<?xml version="1.0" encoding="UTF-8"?>
<gpx version="1.1" creator="https://www.www-youtrack-es.amenigma.com" xsi:schemaLocation="http://www.topografix.com/GPX/1/1 http://www.topografix.com/GPX/1/1/gpx.xsd http://www.garmin.com/xmlschemas/GpxExtensions/v3 http://www.garmin.com/xmlschemas/GpxExtensionsv3.xsd http://www.garmin.com/xmlschemas/TrackPointExtension/v1 http://www.garmin.com/xmlschemas/TrackPointExtensionv1.xsd" xmlns:gpxtpx="http://www.garmin.com/xmlschemas/TrackPointExtension/v1" xmlns:gpxx="http://www.garmin.com/xmlschemas/GpxExtensions/v3" xmlns:xsi="http://www.w3.org/2001/XMLSchema-instance">
  <metadata>
    <author>
      <name>Pedro Cerqueira</name>
      <email id="cerqueirapedro" domain="sapo.pt"/>
    </author>
    <link href="https://www.www-youtrack-es.amenigma.com">
      <text>YouTrack.es</text>
    </link>
    <time>2026-08-31T07:21:42Z</time>
  </metadata>
  <trk>
    <src>https://www.www-youtrack-es.amenigma.com</src>
    <link href="https://www.www-youtrack-es.amenigma.com/ruta/12351-gr11--do-cabo-de-s--vicente-a-santiago-do-cacem">
      <text>YouTrack.es</text>
    </link>
    <trkseg>
      <trkpt lat="37.023433" lon="-8.995324">
        <ele>-64.881</ele>
        <time>2018-12-27T11:31:57Z</time>
      </trkpt>
      <trkpt lat="37.023435" lon="-8.995321">
        <ele>-64.361</ele>
        <time>2018-12-27T11:31:58Z</time>
      </trkpt>
      <trkpt lat="37.023428" lon="-8.995329">
        <ele>-60.017</ele>
        <time>2018-12-27T11:32:09Z</time>
      </trkpt>
      <trkpt lat="37.023428" lon="-8.995330">
        <ele>-54.708</ele>
        <time>2018-12-27T11:32:10Z</time>
      </trkpt>
      <trkpt lat="37.023427" lon="-8.995333">
        <ele>-51.371</ele>
        <time>2018-12-27T11:32:11Z</time>
      </trkpt>
      <trkpt lat="37.023429" lon="-8.995331">
        <ele>-46.559</ele>
        <time>2018-12-27T11:32:12Z</time>
      </trkpt>
      <trkpt lat="37.023433" lon="-8.995331">
        <ele>-43.286</ele>
        <time>2018-12-27T11:32:13Z</time>
      </trkpt>
      <trkpt lat="37.023435" lon="-8.995332">
        <ele>-39.320</ele>
        <time>2018-12-27T11:32:14Z</time>
      </trkpt>
      <trkpt lat="37.023436" lon="-8.995334">
        <ele>-35.552</ele>
        <time>2018-12-27T11:32:15Z</time>
      </trkpt>
      <trkpt lat="37.023436" lon="-8.995336">
        <ele>-31.687</ele>
        <time>2018-12-27T11:32:16Z</time>
      </trkpt>
      <trkpt lat="37.023437" lon="-8.995338">
        <ele>-27.898</ele>
        <time>2018-12-27T11:32:17Z</time>
      </trkpt>
      <trkpt lat="37.023437" lon="-8.995338">
        <ele>-24.436</ele>
        <time>2018-12-27T11:32:18Z</time>
      </trkpt>
      <trkpt lat="37.023437" lon="-8.995338">
        <ele>-21.147</ele>
        <time>2018-12-27T11:32:19Z</time>
      </trkpt>
      <trkpt lat="37.023438" lon="-8.995340">
        <ele>-14.829</ele>
        <time>2018-12-27T11:32:21Z</time>
      </trkpt>
      <trkpt lat="37.023442" lon="-8.995343">
        <ele>-9.021</ele>
        <time>2018-12-27T11:32:23Z</time>
      </trkpt>
      <trkpt lat="37.023443" lon="-8.995344">
        <ele>-5.708</ele>
        <time>2018-12-27T11:32:24Z</time>
      </trkpt>
      <trkpt lat="37.023443" lon="-8.995347">
        <ele>-0.477</ele>
        <time>2018-12-27T11:32:26Z</time>
      </trkpt>
      <trkpt lat="37.023445" lon="-8.995350">
        <ele>4.425</ele>
        <time>2018-12-27T11:32:28Z</time>
      </trkpt>
      <trkpt lat="37.023444" lon="-8.995348">
        <ele>9.712</ele>
        <time>2018-12-27T11:32:30Z</time>
      </trkpt>
      <trkpt lat="37.023444" lon="-8.995353">
        <ele>14.526</ele>
        <time>2018-12-27T11:32:32Z</time>
      </trkpt>
      <trkpt lat="37.023444" lon="-8.995356">
        <ele>18.428</ele>
        <time>2018-12-27T11:32:34Z</time>
      </trkpt>
      <trkpt lat="37.023448" lon="-8.995357">
        <ele>22.773</ele>
        <time>2018-12-27T11:32:36Z</time>
      </trkpt>
      <trkpt lat="37.023450" lon="-8.995356">
        <ele>26.014</ele>
        <time>2018-12-27T11:32:38Z</time>
      </trkpt>
      <trkpt lat="37.023446" lon="-8.995357">
        <ele>29.982</ele>
        <time>2018-12-27T11:32:40Z</time>
      </trkpt>
      <trkpt lat="37.023441" lon="-8.995358">
        <ele>33.352</ele>
        <time>2018-12-27T11:32:42Z</time>
      </trkpt>
      <trkpt lat="37.023441" lon="-8.995357">
        <ele>36.653</ele>
        <time>2018-12-27T11:32:44Z</time>
      </trkpt>
      <trkpt lat="37.023444" lon="-8.995359">
        <ele>40.908</ele>
        <time>2018-12-27T11:32:47Z</time>
      </trkpt>
      <trkpt lat="37.023445" lon="-8.995361">
        <ele>44.308</ele>
        <time>2018-12-27T11:32:50Z</time>
      </trkpt>
      <trkpt lat="37.023441" lon="-8.995357">
        <ele>49.138</ele>
        <time>2018-12-27T11:32:53Z</time>
      </trkpt>
      <trkpt lat="37.023428" lon="-8.995341">
        <ele>52.596</ele>
        <time>2018-12-27T11:32:57Z</time>
      </trkpt>
      <trkpt lat="37.023435" lon="-8.995349">
        <ele>56.343</ele>
        <time>2018-12-27T11:33:01Z</time>
      </trkpt>
      <trkpt lat="37.023443" lon="-8.995353">
        <ele>59.717</ele>
        <time>2018-12-27T11:33:06Z</time>
      </trkpt>
      <trkpt lat="37.023441" lon="-8.995346">
        <ele>62.659</ele>
        <time>2018-12-27T11:33:11Z</time>
      </trkpt>
      <trkpt lat="37.023442" lon="-8.995345">
        <ele>64.564</ele>
        <time>2018-12-27T11:33:14Z</time>
      </trkpt>
      <trkpt lat="37.023442" lon="-8.995368">
        <ele>67.965</ele>
        <time>2018-12-27T11:33:20Z</time>
      </trkpt>
      <trkpt lat="37.023425" lon="-8.995413">
        <ele>71.273</ele>
        <time>2018-12-27T11:33:25Z</time>
      </trkpt>
      <trkpt lat="37.023421" lon="-8.995416">
        <ele>70.386</ele>
        <time>2018-12-27T11:33:26Z</time>
      </trkpt>
      <trkpt lat="37.023397" lon="-8.995469">
        <ele>73.660</ele>
        <time>2018-12-27T11:33:34Z</time>
      </trkpt>
      <trkpt lat="37.023373" lon="-8.995517">
        <ele>76.026</ele>
        <time>2018-12-27T11:33:46Z</time>
      </trkpt>
      <trkpt lat="37.023349" lon="-8.995538">
        <ele>76.008</ele>
        <time>2018-12-27T11:33:57Z</time>
      </trkpt>
      <trkpt lat="37.023281" lon="-8.995632">
        <ele>76.041</ele>
        <time>2018-12-27T11:34:09Z</time>
      </trkpt>
      <trkpt lat="37.023267" lon="-8.995646">
        <ele>76.559</ele>
        <time>2018-12-27T11:34:11Z</time>
      </trkpt>
      <trkpt lat="37.023257" lon="-8.995677">
        <ele>76.586</ele>
        <time>2018-12-27T11:34:14Z</time>
      </trkpt>
      <trkpt lat="37.023234" lon="-8.995717">
        <ele>76.540</ele>
        <time>2018-12-27T11:34:19Z</time>
      </trkpt>
      <trkpt lat="37.023209" lon="-8.995762">
        <ele>76.512</ele>
        <time>2018-12-27T11:34:25Z</time>
      </trkpt>
      <trkpt lat="37.023160" lon="-8.995827">
        <ele>77.077</ele>
        <time>2018-12-27T11:34:37Z</time>
      </trkpt>
      <trkpt lat="37.023160" lon="-8.995826">
        <ele>77.038</ele>
        <time>2018-12-27T11:34:59Z</time>
      </trkpt>
      <trkpt lat="37.023160" lon="-8.995825">
        <ele>77.066</ele>
        <time>2018-12-27T11:35:07Z</time>
      </trkpt>
      <trkpt lat="37.023142" lon="-8.995852">
        <ele>76.534</ele>
        <time>2018-12-27T11:35:12Z</time>
      </trkpt>
      <trkpt lat="37.023087" lon="-8.995900">
        <ele>77.055</ele>
        <time>2018-12-27T11:35:24Z</time>
      </trkpt>
      <trkpt lat="37.023092" lon="-8.995899">
        <ele>77.010</ele>
        <time>2018-12-27T11:35:34Z</time>
      </trkpt>
      <trkpt lat="37.023127" lon="-8.995874">
        <ele>77.008</ele>
        <time>2018-12-27T11:35:45Z</time>
      </trkpt>
      <trkpt lat="37.023123" lon="-8.995875">
        <ele>76.516</ele>
        <time>2018-12-27T11:36:08Z</time>
      </trkpt>
      <trkpt lat="37.023121" lon="-8.995875">
        <ele>76.094</ele>
        <time>2018-12-27T11:36:36Z</time>
      </trkpt>
      <trkpt lat="37.023124" lon="-8.995876">
        <ele>75.631</ele>
        <time>2018-12-27T11:36:57Z</time>
      </trkpt>
      <trkpt lat="37.023137" lon="-8.995875">
        <ele>76.055</ele>
        <time>2018-12-27T11:37:18Z</time>
      </trkpt>
      <trkpt lat="37.023133" lon="-8.995903">
        <ele>75.667</ele>
        <time>2018-12-27T11:37:38Z</time>
      </trkpt>
      <trkpt lat="37.023160" lon="-8.995963">
        <ele>76.012</ele>
        <time>2018-12-27T11:37:46Z</time>
      </trkpt>
      <trkpt lat="37.023174" lon="-8.995987">
        <ele>75.653</ele>
        <time>2018-12-27T11:37:58Z</time>
      </trkpt>
      <trkpt lat="37.023224" lon="-8.996033">
        <ele>76.011</ele>
        <time>2018-12-27T11:38:06Z</time>
      </trkpt>
      <trkpt lat="37.023303" lon="-8.996116">
        <ele>75.692</ele>
        <time>2018-12-27T11:38:18Z</time>
      </trkpt>
      <trkpt lat="37.023310" lon="-8.996127">
        <ele>75.673</ele>
        <time>2018-12-27T11:38:23Z</time>
      </trkpt>
      <trkpt lat="37.023337" lon="-8.996118">
        <ele>76.020</ele>
        <time>2018-12-27T11:38:27Z</time>
      </trkpt>
      <trkpt lat="37.023372" lon="-8.996154">
        <ele>76.008</ele>
        <time>2018-12-27T11:38:41Z</time>
      </trkpt>
      <trkpt lat="37.023372" lon="-8.996154">
        <ele>76.062</ele>
        <time>2018-12-27T11:39:03Z</time>
      </trkpt>
      <trkpt lat="37.023344" lon="-8.996120">
        <ele>75.680</ele>
        <time>2018-12-27T11:39:17Z</time>
      </trkpt>
      <trkpt lat="37.023340" lon="-8.996118">
        <ele>75.637</ele>
        <time>2018-12-27T11:39:19Z</time>
      </trkpt>
      <trkpt lat="37.023318" lon="-8.996113">
        <ele>75.681</ele>
        <time>2018-12-27T11:39:21Z</time>
      </trkpt>
      <trkpt lat="37.023301" lon="-8.996135">
        <ele>75.193</ele>
        <time>2018-12-27T11:39:24Z</time>
      </trkpt>
      <trkpt lat="37.023315" lon="-8.996290">
        <ele>74.678</ele>
        <time>2018-12-27T11:39:37Z</time>
      </trkpt>
      <trkpt lat="37.023343" lon="-8.996357">
        <ele>74.639</ele>
        <time>2018-12-27T11:39:49Z</time>
      </trkpt>
      <trkpt lat="37.023334" lon="-8.996361">
        <ele>74.117</ele>
        <time>2018-12-27T11:39:59Z</time>
      </trkpt>
      <trkpt lat="37.023324" lon="-8.996387">
        <ele>73.611</ele>
        <time>2018-12-27T11:40:01Z</time>
      </trkpt>
      <trkpt lat="37.023314" lon="-8.996429">
        <ele>73.621</ele>
        <time>2018-12-27T11:40:16Z</time>
      </trkpt>
      <trkpt lat="37.023304" lon="-8.996428">
        <ele>73.603</ele>
        <time>2018-12-27T11:40:17Z</time>
      </trkpt>
      <trkpt lat="37.023283" lon="-8.996430">
        <ele>73.208</ele>
        <time>2018-12-27T11:40:19Z</time>
      </trkpt>
      <trkpt lat="37.023271" lon="-8.996455">
        <ele>73.264</ele>
        <time>2018-12-27T11:40:21Z</time>
      </trkpt>
      <trkpt lat="37.023257" lon="-8.996488">
        <ele>73.262</ele>
        <time>2018-12-27T11:40:34Z</time>
      </trkpt>
      <trkpt lat="37.023282" lon="-8.996470">
        <ele>73.659</ele>
        <time>2018-12-27T11:40:46Z</time>
      </trkpt>
      <trkpt lat="37.023282" lon="-8.996470">
        <ele>73.613</ele>
        <time>2018-12-27T11:41:07Z</time>
      </trkpt>
      <trkpt lat="37.023287" lon="-8.996479">
        <ele>73.285</ele>
        <time>2018-12-27T11:41:15Z</time>
      </trkpt>
      <trkpt lat="37.023333" lon="-8.996626">
        <ele>73.260</ele>
        <time>2018-12-27T11:41:30Z</time>
      </trkpt>
      <trkpt lat="37.023331" lon="-8.996619">
        <ele>73.241</ele>
        <time>2018-12-27T11:41:48Z</time>
      </trkpt>
      <trkpt lat="37.023311" lon="-8.996569">
        <ele>72.769</ele>
        <time>2018-12-27T11:42:01Z</time>
      </trkpt>
      <trkpt lat="37.023328" lon="-8.996563">
        <ele>73.284</ele>
        <time>2018-12-27T11:42:17Z</time>
      </trkpt>
      <trkpt lat="37.023328" lon="-8.996563">
        <ele>72.707</ele>
        <time>2018-12-27T11:42:39Z</time>
      </trkpt>
      <trkpt lat="37.023321" lon="-8.996556">
        <ele>72.717</ele>
        <time>2018-12-27T11:42:55Z</time>
      </trkpt>
      <trkpt lat="37.023298" lon="-8.996518">
        <ele>72.708</ele>
        <time>2018-12-27T11:43:00Z</time>
      </trkpt>
      <trkpt lat="37.023284" lon="-8.996493">
        <ele>72.711</ele>
        <time>2018-12-27T11:43:03Z</time>
      </trkpt>
      <trkpt lat="37.023268" lon="-8.996424">
        <ele>73.299</ele>
        <time>2018-12-27T11:43:15Z</time>
      </trkpt>
      <trkpt lat="37.023270" lon="-8.996353">
        <ele>73.216</ele>
        <time>2018-12-27T11:43:23Z</time>
      </trkpt>
      <trkpt lat="37.023275" lon="-8.996321">
        <ele>73.670</ele>
        <time>2018-12-27T11:43:26Z</time>
      </trkpt>
      <trkpt lat="37.023275" lon="-8.996262">
        <ele>73.682</ele>
        <time>2018-12-27T11:43:31Z</time>
      </trkpt>
      <trkpt lat="37.023283" lon="-8.996239">
        <ele>73.617</ele>
        <time>2018-12-27T11:43:33Z</time>
      </trkpt>
      <trkpt lat="37.023325" lon="-8.996126">
        <ele>74.688</ele>
        <time>2018-12-27T11:43:43Z</time>
      </trkpt>
      <trkpt lat="37.023323" lon="-8.996071">
        <ele>75.186</ele>
        <time>2018-12-27T11:43:51Z</time>
      </trkpt>
      <trkpt lat="37.023316" lon="-8.996066">
        <ele>74.637</ele>
        <time>2018-12-27T11:44:03Z</time>
      </trkpt>
      <trkpt lat="37.023310" lon="-8.996064">
        <ele>74.649</ele>
        <time>2018-12-27T11:44:20Z</time>
      </trkpt>
      <trkpt lat="37.023304" lon="-8.996035">
        <ele>74.613</ele>
        <time>2018-12-27T11:44:32Z</time>
      </trkpt>
      <trkpt lat="37.023310" lon="-8.996021">
        <ele>74.608</ele>
        <time>2018-12-27T11:44:49Z</time>
      </trkpt>
      <trkpt lat="37.023303" lon="-8.996023">
        <ele>74.176</ele>
        <time>2018-12-27T11:45:14Z</time>
      </trkpt>
      <trkpt lat="37.023304" lon="-8.996019">
        <ele>74.154</ele>
        <time>2018-12-27T11:45:38Z</time>
      </trkpt>
      <trkpt lat="37.023304" lon="-8.996019">
        <ele>74.131</ele>
        <time>2018-12-27T11:46:03Z</time>
      </trkpt>
      <trkpt lat="37.023304" lon="-8.996018">
        <ele>74.655</ele>
        <time>2018-12-27T11:46:35Z</time>
      </trkpt>
      <trkpt lat="37.023298" lon="-8.996027">
        <ele>74.147</ele>
        <time>2018-12-27T11:47:06Z</time>
      </trkpt>
      <trkpt lat="37.023290" lon="-8.996062">
        <ele>74.112</ele>
        <time>2018-12-27T11:47:19Z</time>
      </trkpt>
      <trkpt lat="37.023283" lon="-8.996047">
        <ele>74.173</ele>
        <time>2018-12-27T11:47:45Z</time>
      </trkpt>
      <trkpt lat="37.023283" lon="-8.996047">
        <ele>73.221</ele>
        <time>2018-12-27T11:48:19Z</time>
      </trkpt>
      <trkpt lat="37.023286" lon="-8.996048">
        <ele>73.674</ele>
        <time>2018-12-27T11:48:52Z</time>
      </trkpt>
      <trkpt lat="37.023280" lon="-8.996045">
        <ele>73.656</ele>
        <time>2018-12-27T11:49:20Z</time>
      </trkpt>
      <trkpt lat="37.023280" lon="-8.996045">
        <ele>73.621</ele>
        <time>2018-12-27T11:49:50Z</time>
      </trkpt>
      <trkpt lat="37.023280" lon="-8.996045">
        <ele>73.608</ele>
        <time>2018-12-27T11:50:22Z</time>
      </trkpt>
      <trkpt lat="37.023279" lon="-8.996045">
        <ele>73.260</ele>
        <time>2018-12-27T11:51:02Z</time>
      </trkpt>
      <trkpt lat="37.023279" lon="-8.996043">
        <ele>72.748</ele>
        <time>2018-12-27T11:51:36Z</time>
      </trkpt>
      <trkpt lat="37.023280" lon="-8.996042">
        <ele>72.735</ele>
        <time>2018-12-27T11:52:12Z</time>
      </trkpt>
      <trkpt lat="37.023280" lon="-8.996042">
        <ele>72.299</ele>
        <time>2018-12-27T11:52:48Z</time>
      </trkpt>
      <trkpt lat="37.023281" lon="-8.996043">
        <ele>71.771</ele>
        <time>2018-12-27T11:53:23Z</time>
      </trkpt>
      <trkpt lat="37.023285" lon="-8.996049">
        <ele>72.736</ele>
        <time>2018-12-27T11:53:47Z</time>
      </trkpt>
      <trkpt lat="37.023285" lon="-8.996049">
        <ele>72.297</ele>
        <time>2018-12-27T11:54:08Z</time>
      </trkpt>
      <trkpt lat="37.023290" lon="-8.996053">
        <ele>72.225</ele>
        <time>2018-12-27T11:54:25Z</time>
      </trkpt>
      <trkpt lat="37.023297" lon="-8.996057">
        <ele>71.731</ele>
        <time>2018-12-27T11:54:54Z</time>
      </trkpt>
      <trkpt lat="37.023297" lon="-8.996057">
        <ele>72.261</ele>
        <time>2018-12-27T11:55:24Z</time>
      </trkpt>
      <trkpt lat="37.023303" lon="-8.996056">
        <ele>71.207</ele>
        <time>2018-12-27T11:55:55Z</time>
      </trkpt>
      <trkpt lat="37.023305" lon="-8.996043">
        <ele>71.708</ele>
        <time>2018-12-27T11:56:16Z</time>
      </trkpt>
      <trkpt lat="37.023305" lon="-8.996043">
        <ele>71.796</ele>
        <time>2018-12-27T11:56:40Z</time>
      </trkpt>
      <trkpt lat="37.023306" lon="-8.996042">
        <ele>71.734</ele>
        <time>2018-12-27T11:57:00Z</time>
      </trkpt>
      <trkpt lat="37.023312" lon="-8.996040">
        <ele>71.261</ele>
        <time>2018-12-27T11:57:16Z</time>
      </trkpt>
      <trkpt lat="37.023315" lon="-8.996040">
        <ele>71.295</ele>
        <time>2018-12-27T11:57:36Z</time>
      </trkpt>
      <trkpt lat="37.023315" lon="-8.996040">
        <ele>71.297</ele>
        <time>2018-12-27T11:57:53Z</time>
      </trkpt>
      <trkpt lat="37.023272" lon="-8.996087">
        <ele>71.272</ele>
        <time>2018-12-27T11:58:04Z</time>
      </trkpt>
      <trkpt lat="37.023197" lon="-8.996008">
        <ele>70.713</ele>
        <time>2018-12-27T11:58:19Z</time>
      </trkpt>
      <trkpt lat="37.023188" lon="-8.996003">
        <ele>71.251</ele>
        <time>2018-12-27T11:58:23Z</time>
      </trkpt>
      <trkpt lat="37.023154" lon="-8.996038">
        <ele>70.731</ele>
        <time>2018-12-27T11:58:35Z</time>
      </trkpt>
      <trkpt lat="37.023145" lon="-8.996050">
        <ele>69.861</ele>
        <time>2018-12-27T11:58:51Z</time>
      </trkpt>
      <trkpt lat="37.023145" lon="-8.996050">
        <ele>69.807</ele>
        <time>2018-12-27T11:59:18Z</time>
      </trkpt>
      <trkpt lat="37.023137" lon="-8.996064">
        <ele>69.808</ele>
        <time>2018-12-27T11:59:29Z</time>
      </trkpt>
      <trkpt lat="37.023150" lon="-8.996055">
        <ele>69.866</ele>
        <time>2018-12-27T11:59:41Z</time>
      </trkpt>
      <trkpt lat="37.023169" lon="-8.996034">
        <ele>71.284</ele>
        <time>2018-12-27T11:59:54Z</time>
      </trkpt>
      <trkpt lat="37.023175" lon="-8.995935">
        <ele>70.791</ele>
        <time>2018-12-27T12:00:05Z</time>
      </trkpt>
      <trkpt lat="37.023182" lon="-8.995914">
        <ele>71.235</ele>
        <time>2018-12-27T12:00:07Z</time>
      </trkpt>
      <trkpt lat="37.023201" lon="-8.995829">
        <ele>70.737</ele>
        <time>2018-12-27T12:00:18Z</time>
      </trkpt>
      <trkpt lat="37.023228" lon="-8.995777">
        <ele>70.772</ele>
        <time>2018-12-27T12:00:23Z</time>
      </trkpt>
      <trkpt lat="37.023253" lon="-8.995701">
        <ele>70.713</ele>
        <time>2018-12-27T12:00:36Z</time>
      </trkpt>
      <trkpt lat="37.023256" lon="-8.995689">
        <ele>70.721</ele>
        <time>2018-12-27T12:00:38Z</time>
      </trkpt>
      <trkpt lat="37.023366" lon="-8.995553">
        <ele>70.346</ele>
        <time>2018-12-27T12:00:53Z</time>
      </trkpt>
      <trkpt lat="37.023423" lon="-8.995532">
        <ele>70.388</ele>
        <time>2018-12-27T12:01:05Z</time>
      </trkpt>
      <trkpt lat="37.023441" lon="-8.995526">
        <ele>70.316</ele>
        <time>2018-12-27T12:01:17Z</time>
      </trkpt>
      <trkpt lat="37.023440" lon="-8.995528">
        <ele>69.808</ele>
        <time>2018-12-27T12:01:41Z</time>
      </trkpt>
      <trkpt lat="37.023439" lon="-8.995531">
        <ele>70.337</ele>
        <time>2018-12-27T12:02:03Z</time>
      </trkpt>
      <trkpt lat="37.023439" lon="-8.995531">
        <ele>70.335</ele>
        <time>2018-12-27T12:02:27Z</time>
      </trkpt>
      <trkpt lat="37.023439" lon="-8.995532">
        <ele>70.792</ele>
        <time>2018-12-27T12:02:47Z</time>
      </trkpt>
      <trkpt lat="37.023442" lon="-8.995532">
        <ele>70.386</ele>
        <time>2018-12-27T12:03:17Z</time>
      </trkpt>
      <trkpt lat="37.023442" lon="-8.995532">
        <ele>70.318</ele>
        <time>2018-12-27T12:03:34Z</time>
      </trkpt>
      <trkpt lat="37.023440" lon="-8.995536">
        <ele>70.343</ele>
        <time>2018-12-27T12:03:54Z</time>
      </trkpt>
      <trkpt lat="37.023443" lon="-8.995537">
        <ele>69.884</ele>
        <time>2018-12-27T12:04:13Z</time>
      </trkpt>
      <trkpt lat="37.023448" lon="-8.995538">
        <ele>70.362</ele>
        <time>2018-12-27T12:04:27Z</time>
      </trkpt>
      <trkpt lat="37.023451" lon="-8.995528">
        <ele>69.884</ele>
        <time>2018-12-27T12:04:43Z</time>
      </trkpt>
      <trkpt lat="37.023451" lon="-8.995528">
        <ele>70.307</ele>
        <time>2018-12-27T12:05:00Z</time>
      </trkpt>
      <trkpt lat="37.023443" lon="-8.995527">
        <ele>69.817</ele>
        <time>2018-12-27T12:05:08Z</time>
      </trkpt>
      <trkpt lat="37.023447" lon="-8.995499">
        <ele>69.808</ele>
        <time>2018-12-27T12:05:14Z</time>
      </trkpt>
      <trkpt lat="37.023453" lon="-8.995464">
        <ele>69.871</ele>
        <time>2018-12-27T12:05:17Z</time>
      </trkpt>
      <trkpt lat="37.023485" lon="-8.995356">
        <ele>69.869</ele>
        <time>2018-12-27T12:05:28Z</time>
      </trkpt>
      <trkpt lat="37.023575" lon="-8.995138">
        <ele>69.876</ele>
        <time>2018-12-27T12:05:44Z</time>
      </trkpt>
      <trkpt lat="37.023594" lon="-8.995099">
        <ele>69.340</ele>
        <time>2018-12-27T12:05:47Z</time>
      </trkpt>
      <trkpt lat="37.023661" lon="-8.994952">
        <ele>69.392</ele>
        <time>2018-12-27T12:06:00Z</time>
      </trkpt>
      <trkpt lat="37.023666" lon="-8.994947">
        <ele>68.847</ele>
        <time>2018-12-27T12:06:01Z</time>
      </trkpt>
      <trkpt lat="37.023742" lon="-8.994847">
        <ele>69.338</ele>
        <time>2018-12-27T12:06:15Z</time>
      </trkpt>
      <trkpt lat="37.023814" lon="-8.994792">
        <ele>68.876</ele>
        <time>2018-12-27T12:06:28Z</time>
      </trkpt>
      <trkpt lat="37.023820" lon="-8.994819">
        <ele>68.897</ele>
        <time>2018-12-27T12:06:40Z</time>
      </trkpt>
      <trkpt lat="37.023804" lon="-8.994833">
        <ele>69.323</ele>
        <time>2018-12-27T12:06:51Z</time>
      </trkpt>
      <trkpt lat="37.023842" lon="-8.994833">
        <ele>69.325</ele>
        <time>2018-12-27T12:06:55Z</time>
      </trkpt>
      <trkpt lat="37.023858" lon="-8.994838">
        <ele>69.308</ele>
        <time>2018-12-27T12:06:57Z</time>
      </trkpt>
      <trkpt lat="37.023914" lon="-8.994850">
        <ele>69.322</ele>
        <time>2018-12-27T12:07:11Z</time>
      </trkpt>
      <trkpt lat="37.023909" lon="-8.994830">
        <ele>69.390</ele>
        <time>2018-12-27T12:07:23Z</time>
      </trkpt>
      <trkpt lat="37.023909" lon="-8.994830">
        <ele>69.337</ele>
        <time>2018-12-27T12:07:39Z</time>
      </trkpt>
      <trkpt lat="37.023909" lon="-8.994830">
        <ele>69.381</ele>
        <time>2018-12-27T12:08:00Z</time>
      </trkpt>
      <trkpt lat="37.023910" lon="-8.994832">
        <ele>69.843</ele>
        <time>2018-12-27T12:08:24Z</time>
      </trkpt>
      <trkpt lat="37.023907" lon="-8.994831">
        <ele>68.878</ele>
        <time>2018-12-27T12:08:50Z</time>
      </trkpt>
      <trkpt lat="37.023909" lon="-8.994834">
        <ele>69.359</ele>
        <time>2018-12-27T12:09:07Z</time>
      </trkpt>
      <trkpt lat="37.023909" lon="-8.994834">
        <ele>68.817</ele>
        <time>2018-12-27T12:09:32Z</time>
      </trkpt>
      <trkpt lat="37.023894" lon="-8.994815">
        <ele>69.378</ele>
        <time>2018-12-27T12:09:43Z</time>
      </trkpt>
      <trkpt lat="37.023875" lon="-8.994789">
        <ele>69.333</ele>
        <time>2018-12-27T12:09:46Z</time>
      </trkpt>
      <trkpt lat="37.023816" lon="-8.994699">
        <ele>68.826</ele>
        <time>2018-12-27T12:09:59Z</time>
      </trkpt>
      <trkpt lat="37.023824" lon="-8.994645">
        <ele>68.808</ele>
        <time>2018-12-27T12:10:04Z</time>
      </trkpt>
      <trkpt lat="37.023831" lon="-8.994606">
        <ele>68.820</ele>
        <time>2018-12-27T12:10:07Z</time>
      </trkpt>
      <trkpt lat="37.023850" lon="-8.994571">
        <ele>68.888</ele>
        <time>2018-12-27T12:10:18Z</time>
      </trkpt>
      <trkpt lat="37.023850" lon="-8.994571">
        <ele>68.885</ele>
        <time>2018-12-27T12:10:20Z</time>
      </trkpt>
      <trkpt lat="37.023792" lon="-8.994573">
        <ele>68.879</ele>
        <time>2018-12-27T12:10:25Z</time>
      </trkpt>
      <trkpt lat="37.023690" lon="-8.994595">
        <ele>68.341</ele>
        <time>2018-12-27T12:10:33Z</time>
      </trkpt>
      <trkpt lat="37.023629" lon="-8.994604">
        <ele>68.886</ele>
        <time>2018-12-27T12:10:38Z</time>
      </trkpt>
      <trkpt lat="37.023592" lon="-8.994603">
        <ele>68.877</ele>
        <time>2018-12-27T12:10:41Z</time>
      </trkpt>
      <trkpt lat="37.023495" lon="-8.994610">
        <ele>68.885</ele>
        <time>2018-12-27T12:10:49Z</time>
      </trkpt>
      <trkpt lat="37.023404" lon="-8.994642">
        <ele>68.818</ele>
        <time>2018-12-27T12:10:59Z</time>
      </trkpt>
      <trkpt lat="37.023382" lon="-8.994650">
        <ele>68.898</ele>
        <time>2018-12-27T12:11:02Z</time>
      </trkpt>
      <trkpt lat="37.023322" lon="-8.994648">
        <ele>68.317</ele>
        <time>2018-12-27T12:11:08Z</time>
      </trkpt>
      <trkpt lat="37.023287" lon="-8.994667">
        <ele>68.308</ele>
        <time>2018-12-27T12:11:11Z</time>
      </trkpt>
      <trkpt lat="37.023204" lon="-8.994777">
        <ele>68.334</ele>
        <time>2018-12-27T12:11:23Z</time>
      </trkpt>
      <trkpt lat="37.023198" lon="-8.994789">
        <ele>68.352</ele>
        <time>2018-12-27T12:11:26Z</time>
      </trkpt>
      <trkpt lat="37.023162" lon="-8.994831">
        <ele>68.349</ele>
        <time>2018-12-27T12:11:41Z</time>
      </trkpt>
      <trkpt lat="37.023158" lon="-8.994833">
        <ele>68.333</ele>
        <time>2018-12-27T12:12:05Z</time>
      </trkpt>
      <trkpt lat="37.023158" lon="-8.994833">
        <ele>68.315</ele>
        <time>2018-12-27T12:12:30Z</time>
      </trkpt>
      <trkpt lat="37.023168" lon="-8.994833">
        <ele>68.340</ele>
        <time>2018-12-27T12:12:49Z</time>
      </trkpt>
      <trkpt lat="37.023167" lon="-8.994832">
        <ele>68.391</ele>
        <time>2018-12-27T12:12:54Z</time>
      </trkpt>
      <trkpt lat="37.023164" lon="-8.994805">
        <ele>68.839</ele>
        <time>2018-12-27T12:13:06Z</time>
      </trkpt>
      <trkpt lat="37.023156" lon="-8.994797">
        <ele>68.382</ele>
        <time>2018-12-27T12:13:23Z</time>
      </trkpt>
      <trkpt lat="37.023163" lon="-8.994787">
        <ele>68.343</ele>
        <time>2018-12-27T12:13:29Z</time>
      </trkpt>
      <trkpt lat="37.023190" lon="-8.994754">
        <ele>68.317</ele>
        <time>2018-12-27T12:13:33Z</time>
      </trkpt>
      <trkpt lat="37.023221" lon="-8.994721">
        <ele>68.808</ele>
        <time>2018-12-27T12:13:43Z</time>
      </trkpt>
      <trkpt lat="37.023308" lon="-8.994673">
        <ele>68.331</ele>
        <time>2018-12-27T12:13:57Z</time>
      </trkpt>
      <trkpt lat="37.023346" lon="-8.994663">
        <ele>68.859</ele>
        <time>2018-12-27T12:14:06Z</time>
      </trkpt>
      <trkpt lat="37.023453" lon="-8.994615">
        <ele>68.866</ele>
        <time>2018-12-27T12:14:18Z</time>
      </trkpt>
      <trkpt lat="37.023563" lon="-8.994598">
        <ele>68.880</ele>
        <time>2018-12-27T12:14:30Z</time>
      </trkpt>
      <trkpt lat="37.023563" lon="-8.994605">
        <ele>68.862</ele>
        <time>2018-12-27T12:14:45Z</time>
      </trkpt>
      <trkpt lat="37.023639" lon="-8.994609">
        <ele>68.897</ele>
        <time>2018-12-27T12:15:02Z</time>
      </trkpt>
      <trkpt lat="37.023698" lon="-8.994593">
        <ele>68.828</ele>
        <time>2018-12-27T12:15:09Z</time>
      </trkpt>
      <trkpt lat="37.023730" lon="-8.994587">
        <ele>68.356</ele>
        <time>2018-12-27T12:15:12Z</time>
      </trkpt>
      <trkpt lat="37.023793" lon="-8.994534">
        <ele>68.877</ele>
        <time>2018-12-27T12:15:19Z</time>
      </trkpt>
      <trkpt lat="37.023890" lon="-8.994470">
        <ele>68.861</ele>
        <time>2018-12-27T12:15:29Z</time>
      </trkpt>
      <trkpt lat="37.023980" lon="-8.994284">
        <ele>68.327</ele>
        <time>2018-12-27T12:15:44Z</time>
      </trkpt>
      <trkpt lat="37.024033" lon="-8.994119">
        <ele>68.808</ele>
        <time>2018-12-27T12:15:56Z</time>
      </trkpt>
      <trkpt lat="37.024087" lon="-8.993974">
        <ele>68.810</ele>
        <time>2018-12-27T12:16:07Z</time>
      </trkpt>
      <trkpt lat="37.024113" lon="-8.993898">
        <ele>68.328</ele>
        <time>2018-12-27T12:16:13Z</time>
      </trkpt>
      <trkpt lat="37.024126" lon="-8.993870">
        <ele>68.355</ele>
        <time>2018-12-27T12:16:24Z</time>
      </trkpt>
      <trkpt lat="37.024126" lon="-8.993901">
        <ele>68.379</ele>
        <time>2018-12-27T12:16:27Z</time>
      </trkpt>
      <trkpt lat="37.024182" lon="-8.994014">
        <ele>68.341</ele>
        <time>2018-12-27T12:16:40Z</time>
      </trkpt>
      <trkpt lat="37.024206" lon="-8.994058">
        <ele>67.986</ele>
        <time>2018-12-27T12:16:44Z</time>
      </trkpt>
      <trkpt lat="37.024243" lon="-8.994073">
        <ele>67.957</ele>
        <time>2018-12-27T12:16:48Z</time>
      </trkpt>
      <trkpt lat="37.024257" lon="-8.994084">
        <ele>67.965</ele>
        <time>2018-12-27T12:16:50Z</time>
      </trkpt>
      <trkpt lat="37.024340" lon="-8.994147">
        <ele>67.937</ele>
        <time>2018-12-27T12:17:01Z</time>
      </trkpt>
      <trkpt lat="37.024378" lon="-8.994186">
        <ele>67.949</ele>
        <time>2018-12-27T12:17:08Z</time>
      </trkpt>
      <trkpt lat="37.024395" lon="-8.994203">
        <ele>67.413</ele>
        <time>2018-12-27T12:17:10Z</time>
      </trkpt>
      <trkpt lat="37.024494" lon="-8.994248">
        <ele>67.408</ele>
        <time>2018-12-27T12:17:22Z</time>
      </trkpt>
      <trkpt lat="37.024524" lon="-8.994249">
        <ele>67.496</ele>
        <time>2018-12-27T12:17:26Z</time>
      </trkpt>
      <trkpt lat="37.024552" lon="-8.994254">
        <ele>67.424</ele>
        <time>2018-12-27T12:17:29Z</time>
      </trkpt>
      <trkpt lat="37.024652" lon="-8.994305">
        <ele>66.931</ele>
        <time>2018-12-27T12:17:41Z</time>
      </trkpt>
      <trkpt lat="37.024724" lon="-8.994332">
        <ele>66.415</ele>
        <time>2018-12-27T12:17:48Z</time>
      </trkpt>
      <trkpt lat="37.024818" lon="-8.994327">
        <ele>66.427</ele>
        <time>2018-12-27T12:17:58Z</time>
      </trkpt>
      <trkpt lat="37.024848" lon="-8.994301">
        <ele>66.922</ele>
        <time>2018-12-27T12:18:02Z</time>
      </trkpt>
      <trkpt lat="37.024979" lon="-8.994309">
        <ele>66.443</ele>
        <time>2018-12-27T12:18:16Z</time>
      </trkpt>
      <trkpt lat="37.025073" lon="-8.994295">
        <ele>66.491</ele>
        <time>2018-12-27T12:18:27Z</time>
      </trkpt>
      <trkpt lat="37.025173" lon="-8.994235">
        <ele>65.543</ele>
        <time>2018-12-27T12:18:40Z</time>
      </trkpt>
      <trkpt lat="37.025186" lon="-8.994226">
        <ele>65.964</ele>
        <time>2018-12-27T12:18:42Z</time>
      </trkpt>
      <trkpt lat="37.025240" lon="-8.994192">
        <ele>65.510</ele>
        <time>2018-12-27T12:18:55Z</time>
      </trkpt>
      <trkpt lat="37.025235" lon="-8.994208">
        <ele>65.508</ele>
        <time>2018-12-27T12:19:00Z</time>
      </trkpt>
      <trkpt lat="37.025240" lon="-8.994296">
        <ele>65.597</ele>
        <time>2018-12-27T12:19:12Z</time>
      </trkpt>
      <trkpt lat="37.025241" lon="-8.994294">
        <ele>65.575</ele>
        <time>2018-12-27T12:19:33Z</time>
      </trkpt>
      <trkpt lat="37.025242" lon="-8.994298">
        <ele>65.572</ele>
        <time>2018-12-27T12:19:49Z</time>
      </trkpt>
      <trkpt lat="37.025246" lon="-8.994295">
        <ele>65.556</ele>
        <time>2018-12-27T12:20:05Z</time>
      </trkpt>
      <trkpt lat="37.025276" lon="-8.994259">
        <ele>65.518</ele>
        <time>2018-12-27T12:20:10Z</time>
      </trkpt>
      <trkpt lat="37.025379" lon="-8.994174">
        <ele>65.083</ele>
        <time>2018-12-27T12:20:21Z</time>
      </trkpt>
      <trkpt lat="37.025419" lon="-8.994146">
        <ele>65.084</ele>
        <time>2018-12-27T12:20:26Z</time>
      </trkpt>
      <trkpt lat="37.025470" lon="-8.994144">
        <ele>64.542</ele>
        <time>2018-12-27T12:20:32Z</time>
      </trkpt>
      <trkpt lat="37.025572" lon="-8.994125">
        <ele>64.533</ele>
        <time>2018-12-27T12:20:45Z</time>
      </trkpt>
      <trkpt lat="37.025592" lon="-8.994110">
        <ele>64.523</ele>
        <time>2018-12-27T12:20:49Z</time>
      </trkpt>
      <trkpt lat="37.025630" lon="-8.994085">
        <ele>64.515</ele>
        <time>2018-12-27T12:20:54Z</time>
      </trkpt>
      <trkpt lat="37.025669" lon="-8.994010">
        <ele>63.508</ele>
        <time>2018-12-27T12:21:07Z</time>
      </trkpt>
      <trkpt lat="37.025707" lon="-8.993914">
        <ele>63.596</ele>
        <time>2018-12-27T12:21:20Z</time>
      </trkpt>
      <trkpt lat="37.025775" lon="-8.993830">
        <ele>63.134</ele>
        <time>2018-12-27T12:21:34Z</time>
      </trkpt>
      <trkpt lat="37.025780" lon="-8.993825">
        <ele>63.131</ele>
        <time>2018-12-27T12:21:35Z</time>
      </trkpt>
      <trkpt lat="37.025797" lon="-8.993800">
        <ele>63.555</ele>
        <time>2018-12-27T12:21:38Z</time>
      </trkpt>
      <trkpt lat="37.025841" lon="-8.993706">
        <ele>63.587</ele>
        <time>2018-12-27T12:21:50Z</time>
      </trkpt>
      <trkpt lat="37.025859" lon="-8.993675">
        <ele>63.142</ele>
        <time>2018-12-27T12:22:03Z</time>
      </trkpt>
      <trkpt lat="37.025868" lon="-8.993664">
        <ele>62.663</ele>
        <time>2018-12-27T12:22:20Z</time>
      </trkpt>
      <trkpt lat="37.025927" lon="-8.993588">
        <ele>62.621</ele>
        <time>2018-12-27T12:22:30Z</time>
      </trkpt>
      <trkpt lat="37.025931" lon="-8.993566">
        <ele>62.152</ele>
        <time>2018-12-27T12:22:32Z</time>
      </trkpt>
      <trkpt lat="37.025988" lon="-8.993493">
        <ele>62.653</ele>
        <time>2018-12-27T12:22:44Z</time>
      </trkpt>
      <trkpt lat="37.025996" lon="-8.993486">
        <ele>62.608</ele>
        <time>2018-12-27T12:22:53Z</time>
      </trkpt>
      <trkpt lat="37.026004" lon="-8.993478">
        <ele>62.608</ele>
        <time>2018-12-27T12:22:55Z</time>
      </trkpt>
      <trkpt lat="37.026024" lon="-8.993464">
        <ele>62.168</ele>
        <time>2018-12-27T12:22:57Z</time>
      </trkpt>
      <trkpt lat="37.026085" lon="-8.993407">
        <ele>62.176</ele>
        <time>2018-12-27T12:23:08Z</time>
      </trkpt>
      <trkpt lat="37.026153" lon="-8.993382">
        <ele>62.173</ele>
        <time>2018-12-27T12:23:20Z</time>
      </trkpt>
      <trkpt lat="37.026244" lon="-8.993361">
        <ele>61.647</ele>
        <time>2018-12-27T12:23:31Z</time>
      </trkpt>
      <trkpt lat="37.026280" lon="-8.993346">
        <ele>61.659</ele>
        <time>2018-12-27T12:23:35Z</time>
      </trkpt>
      <trkpt lat="37.026318" lon="-8.993329">
        <ele>62.134</ele>
        <time>2018-12-27T12:23:39Z</time>
      </trkpt>
      <trkpt lat="37.026364" lon="-8.993314">
        <ele>62.165</ele>
        <time>2018-12-27T12:23:45Z</time>
      </trkpt>
      <trkpt lat="37.026390" lon="-8.993304">
        <ele>61.643</ele>
        <time>2018-12-27T12:23:54Z</time>
      </trkpt>
      <trkpt lat="37.026383" lon="-8.993284">
        <ele>62.681</ele>
        <time>2018-12-27T12:24:05Z</time>
      </trkpt>
      <trkpt lat="37.026405" lon="-8.993259">
        <ele>62.661</ele>
        <time>2018-12-27T12:24:08Z</time>
      </trkpt>
      <trkpt lat="37.026416" lon="-8.993232">
        <ele>62.617</ele>
        <time>2018-12-27T12:24:19Z</time>
      </trkpt>
      <trkpt lat="37.026428" lon="-8.993206">
        <ele>62.608</ele>
        <time>2018-12-27T12:24:32Z</time>
      </trkpt>
      <trkpt lat="37.026416" lon="-8.993172">
        <ele>62.671</ele>
        <time>2018-12-27T12:24:54Z</time>
      </trkpt>
      <trkpt lat="37.026414" lon="-8.993148">
        <ele>62.179</ele>
        <time>2018-12-27T12:25:06Z</time>
      </trkpt>
      <trkpt lat="37.026409" lon="-8.993126">
        <ele>62.686</ele>
        <time>2018-12-27T12:25:19Z</time>
      </trkpt>
      <trkpt lat="37.026409" lon="-8.993126">
        <ele>62.630</ele>
        <time>2018-12-27T12:25:23Z</time>
      </trkpt>
      <trkpt lat="37.026428" lon="-8.993116">
        <ele>61.622</ele>
        <time>2018-12-27T12:25:36Z</time>
      </trkpt>
      <trkpt lat="37.026428" lon="-8.993116">
        <ele>62.187</ele>
        <time>2018-12-27T12:25:57Z</time>
      </trkpt>
      <trkpt lat="37.026428" lon="-8.993117">
        <ele>62.628</ele>
        <time>2018-12-27T12:26:08Z</time>
      </trkpt>
      <trkpt lat="37.026428" lon="-8.993117">
        <ele>61.626</ele>
        <time>2018-12-27T12:26:20Z</time>
      </trkpt>
      <trkpt lat="37.026428" lon="-8.993117">
        <ele>62.157</ele>
        <time>2018-12-27T12:26:40Z</time>
      </trkpt>
      <trkpt lat="37.026427" lon="-8.993120">
        <ele>61.600</ele>
        <time>2018-12-27T12:27:03Z</time>
      </trkpt>
      <trkpt lat="37.026429" lon="-8.993122">
        <ele>62.620</ele>
        <time>2018-12-27T12:27:27Z</time>
      </trkpt>
      <trkpt lat="37.026422" lon="-8.993106">
        <ele>62.108</ele>
        <time>2018-12-27T12:27:34Z</time>
      </trkpt>
      <trkpt lat="37.026421" lon="-8.993088">
        <ele>62.178</ele>
        <time>2018-12-27T12:27:43Z</time>
      </trkpt>
      <trkpt lat="37.026401" lon="-8.993058">
        <ele>62.136</ele>
        <time>2018-12-27T12:27:46Z</time>
      </trkpt>
      <trkpt lat="37.026382" lon="-8.993029">
        <ele>62.133</ele>
        <time>2018-12-27T12:27:59Z</time>
      </trkpt>
      <trkpt lat="37.026381" lon="-8.993018">
        <ele>62.157</ele>
        <time>2018-12-27T12:28:02Z</time>
      </trkpt>
      <trkpt lat="37.026387" lon="-8.992872">
        <ele>62.189</ele>
        <time>2018-12-27T12:28:15Z</time>
      </trkpt>
      <trkpt lat="37.026394" lon="-8.992846">
        <ele>61.634</ele>
        <time>2018-12-27T12:28:17Z</time>
      </trkpt>
      <trkpt lat="37.026399" lon="-8.992725">
        <ele>61.675</ele>
        <time>2018-12-27T12:28:28Z</time>
      </trkpt>
      <trkpt lat="37.026410" lon="-8.992634">
        <ele>62.113</ele>
        <time>2018-12-27T12:28:38Z</time>
      </trkpt>
      <trkpt lat="37.026420" lon="-8.992616">
        <ele>62.147</ele>
        <time>2018-12-27T12:28:40Z</time>
      </trkpt>
      <trkpt lat="37.026446" lon="-8.992534">
        <ele>62.129</ele>
        <time>2018-12-27T12:28:50Z</time>
      </trkpt>
      <trkpt lat="37.026475" lon="-8.992507">
        <ele>62.121</ele>
        <time>2018-12-27T12:28:54Z</time>
      </trkpt>
      <trkpt lat="37.026491" lon="-8.992441">
        <ele>62.108</ele>
        <time>2018-12-27T12:29:00Z</time>
      </trkpt>
      <trkpt lat="37.026515" lon="-8.992393">
        <ele>62.157</ele>
        <time>2018-12-27T12:29:07Z</time>
      </trkpt>
      <trkpt lat="37.026531" lon="-8.992343">
        <ele>62.185</ele>
        <time>2018-12-27T12:29:12Z</time>
      </trkpt>
      <trkpt lat="37.026532" lon="-8.992318">
        <ele>62.172</ele>
        <time>2018-12-27T12:29:14Z</time>
      </trkpt>
      <trkpt lat="37.026525" lon="-8.992252">
        <ele>62.646</ele>
        <time>2018-12-27T12:29:23Z</time>
      </trkpt>
      <trkpt lat="37.026526" lon="-8.992209">
        <ele>62.178</ele>
        <time>2018-12-27T12:29:27Z</time>
      </trkpt>
      <trkpt lat="37.026529" lon="-8.992111">
        <ele>63.153</ele>
        <time>2018-12-27T12:29:36Z</time>
      </trkpt>
      <trkpt lat="37.026508" lon="-8.992053">
        <ele>64.034</ele>
        <time>2018-12-27T12:29:42Z</time>
      </trkpt>
      <trkpt lat="37.026505" lon="-8.991997">
        <ele>64.572</ele>
        <time>2018-12-27T12:29:48Z</time>
      </trkpt>
      <trkpt lat="37.026483" lon="-8.991916">
        <ele>65.973</ele>
        <time>2018-12-27T12:29:58Z</time>
      </trkpt>
      <trkpt lat="37.026480" lon="-8.991906">
        <ele>65.985</ele>
        <time>2018-12-27T12:29:59Z</time>
      </trkpt>
      <trkpt lat="37.026451" lon="-8.991871">
        <ele>66.913</ele>
        <time>2018-12-27T12:30:06Z</time>
      </trkpt>
      <trkpt lat="37.026434" lon="-8.991868">
        <ele>66.908</ele>
        <time>2018-12-27T12:30:08Z</time>
      </trkpt>
      <trkpt lat="37.026419" lon="-8.991852">
        <ele>66.940</ele>
        <time>2018-12-27T12:30:10Z</time>
      </trkpt>
      <trkpt lat="37.026403" lon="-8.991840">
        <ele>67.478</ele>
        <time>2018-12-27T12:30:12Z</time>
      </trkpt>
      <trkpt lat="37.026378" lon="-8.991801">
        <ele>67.465</ele>
        <time>2018-12-27T12:30:16Z</time>
      </trkpt>
      <trkpt lat="37.026322" lon="-8.991714">
        <ele>67.979</ele>
        <time>2018-12-27T12:30:25Z</time>
      </trkpt>
      <trkpt lat="37.026312" lon="-8.991676">
        <ele>67.931</ele>
        <time>2018-12-27T12:30:28Z</time>
      </trkpt>
      <trkpt lat="37.026315" lon="-8.991648">
        <ele>67.486</ele>
        <time>2018-12-27T12:30:30Z</time>
      </trkpt>
      <trkpt lat="37.026293" lon="-8.991569">
        <ele>67.437</ele>
        <time>2018-12-27T12:30:36Z</time>
      </trkpt>
      <trkpt lat="37.026279" lon="-8.991518">
        <ele>67.455</ele>
        <time>2018-12-27T12:30:40Z</time>
      </trkpt>
      <trkpt lat="37.026240" lon="-8.991432">
        <ele>67.429</ele>
        <time>2018-12-27T12:30:47Z</time>
      </trkpt>
      <trkpt lat="37.026228" lon="-8.991364">
        <ele>66.900</ele>
        <time>2018-12-27T12:30:52Z</time>
      </trkpt>
      <trkpt lat="37.026216" lon="-8.991341">
        <ele>66.920</ele>
        <time>2018-12-27T12:30:54Z</time>
      </trkpt>
      <trkpt lat="37.026185" lon="-8.991263">
        <ele>66.408</ele>
        <time>2018-12-27T12:31:00Z</time>
      </trkpt>
      <trkpt lat="37.026184" lon="-8.991219">
        <ele>65.935</ele>
        <time>2018-12-27T12:31:03Z</time>
      </trkpt>
      <trkpt lat="37.026171" lon="-8.991177">
        <ele>65.993</ele>
        <time>2018-12-27T12:31:07Z</time>
      </trkpt>
      <trkpt lat="37.026157" lon="-8.991123">
        <ele>65.560</ele>
        <time>2018-12-27T12:31:12Z</time>
      </trkpt>
      <trkpt lat="37.026163" lon="-8.991068">
        <ele>65.584</ele>
        <time>2018-12-27T12:31:16Z</time>
      </trkpt>
      <trkpt lat="37.026156" lon="-8.991024">
        <ele>65.096</ele>
        <time>2018-12-27T12:31:19Z</time>
      </trkpt>
      <trkpt lat="37.026150" lon="-8.990894">
        <ele>65.031</ele>
        <time>2018-12-27T12:31:28Z</time>
      </trkpt>
      <trkpt lat="37.026088" lon="-8.990890">
        <ele>65.542</ele>
        <time>2018-12-27T12:31:34Z</time>
      </trkpt>
      <trkpt lat="37.026063" lon="-8.990871">
        <ele>65.570</ele>
        <time>2018-12-27T12:31:38Z</time>
      </trkpt>
      <trkpt lat="37.025961" lon="-8.990821">
        <ele>65.536</ele>
        <time>2018-12-27T12:31:46Z</time>
      </trkpt>
      <trkpt lat="37.025855" lon="-8.990790">
        <ele>65.517</ele>
        <time>2018-12-27T12:31:59Z</time>
      </trkpt>
      <trkpt lat="37.025855" lon="-8.990790">
        <ele>65.918</ele>
        <time>2018-12-27T12:32:04Z</time>
      </trkpt>
      <trkpt lat="37.025746" lon="-8.990795">
        <ele>65.508</ele>
        <time>2018-12-27T12:32:14Z</time>
      </trkpt>
      <trkpt lat="37.025725" lon="-8.990800">
        <ele>65.926</ele>
        <time>2018-12-27T12:32:16Z</time>
      </trkpt>
      <trkpt lat="37.025600" lon="-8.990777">
        <ele>65.954</ele>
        <time>2018-12-27T12:32:28Z</time>
      </trkpt>
      <trkpt lat="37.025591" lon="-8.990775">
        <ele>65.551</ele>
        <time>2018-12-27T12:32:29Z</time>
      </trkpt>
      <trkpt lat="37.025548" lon="-8.990793">
        <ele>65.985</ele>
        <time>2018-12-27T12:32:35Z</time>
      </trkpt>
      <trkpt lat="37.025515" lon="-8.990823">
        <ele>65.997</ele>
        <time>2018-12-27T12:32:45Z</time>
      </trkpt>
      <trkpt lat="37.025502" lon="-8.990819">
        <ele>65.592</ele>
        <time>2018-12-27T12:32:47Z</time>
      </trkpt>
      <trkpt lat="37.025459" lon="-8.990806">
        <ele>66.453</ele>
        <time>2018-12-27T12:32:58Z</time>
      </trkpt>
      <trkpt lat="37.025468" lon="-8.990808">
        <ele>65.991</ele>
        <time>2018-12-27T12:33:06Z</time>
      </trkpt>
      <trkpt lat="37.025489" lon="-8.990809">
        <ele>65.946</ele>
        <time>2018-12-27T12:33:08Z</time>
      </trkpt>
      <trkpt lat="37.025531" lon="-8.990765">
        <ele>65.588</ele>
        <time>2018-12-27T12:33:13Z</time>
      </trkpt>
      <trkpt lat="37.025589" lon="-8.990762">
        <ele>65.516</ele>
        <time>2018-12-27T12:33:18Z</time>
      </trkpt>
      <trkpt lat="37.025657" lon="-8.990762">
        <ele>65.908</ele>
        <time>2018-12-27T12:33:23Z</time>
      </trkpt>
      <trkpt lat="37.025707" lon="-8.990753">
        <ele>65.527</ele>
        <time>2018-12-27T12:33:27Z</time>
      </trkpt>
      <trkpt lat="37.025877" lon="-8.990790">
        <ele>65.085</ele>
        <time>2018-12-27T12:33:40Z</time>
      </trkpt>
      <trkpt lat="37.025891" lon="-8.990788">
        <ele>65.562</ele>
        <time>2018-12-27T12:33:41Z</time>
      </trkpt>
      <trkpt lat="37.025968" lon="-8.990820">
        <ele>65.056</ele>
        <time>2018-12-27T12:33:47Z</time>
      </trkpt>
      <trkpt lat="37.026024" lon="-8.990809">
        <ele>65.048</ele>
        <time>2018-12-27T12:33:51Z</time>
      </trkpt>
      <trkpt lat="37.026082" lon="-8.990820">
        <ele>65.593</ele>
        <time>2018-12-27T12:33:55Z</time>
      </trkpt>
      <trkpt lat="37.026179" lon="-8.990848">
        <ele>65.034</ele>
        <time>2018-12-27T12:34:03Z</time>
      </trkpt>
      <trkpt lat="37.026314" lon="-8.990769">
        <ele>65.552</ele>
        <time>2018-12-27T12:34:16Z</time>
      </trkpt>
      <trkpt lat="37.026336" lon="-8.990756">
        <ele>65.981</ele>
        <time>2018-12-27T12:34:20Z</time>
      </trkpt>
      <trkpt lat="37.026377" lon="-8.990730">
        <ele>65.561</ele>
        <time>2018-12-27T12:34:24Z</time>
      </trkpt>
      <trkpt lat="37.026508" lon="-8.990699">
        <ele>65.517</ele>
        <time>2018-12-27T12:34:35Z</time>
      </trkpt>
      <trkpt lat="37.026648" lon="-8.990700">
        <ele>65.908</ele>
        <time>2018-12-27T12:34:46Z</time>
      </trkpt>
      <trkpt lat="37.026766" lon="-8.990659">
        <ele>65.551</ele>
        <time>2018-12-27T12:34:58Z</time>
      </trkpt>
      <trkpt lat="37.026813" lon="-8.990635">
        <ele>65.559</ele>
        <time>2018-12-27T12:35:02Z</time>
      </trkpt>
      <trkpt lat="37.026872" lon="-8.990547">
        <ele>65.586</ele>
        <time>2018-12-27T12:35:10Z</time>
      </trkpt>
      <trkpt lat="37.026901" lon="-8.990505">
        <ele>65.570</ele>
        <time>2018-12-27T12:35:21Z</time>
      </trkpt>
      <trkpt lat="37.026999" lon="-8.990429">
        <ele>65.552</ele>
        <time>2018-12-27T12:35:31Z</time>
      </trkpt>
      <trkpt lat="37.027119" lon="-8.990346">
        <ele>65.077</ele>
        <time>2018-12-27T12:35:42Z</time>
      </trkpt>
      <trkpt lat="37.027218" lon="-8.990306">
        <ele>65.558</ele>
        <time>2018-12-27T12:35:51Z</time>
      </trkpt>
      <trkpt lat="37.027247" lon="-8.990256">
        <ele>65.946</ele>
        <time>2018-12-27T12:35:58Z</time>
      </trkpt>
      <trkpt lat="37.027259" lon="-8.990221">
        <ele>65.967</ele>
        <time>2018-12-27T12:36:01Z</time>
      </trkpt>
      <trkpt lat="37.027318" lon="-8.990120">
        <ele>66.481</ele>
        <time>2018-12-27T12:36:10Z</time>
      </trkpt>
      <trkpt lat="37.027387" lon="-8.989990">
        <ele>66.919</ele>
        <time>2018-12-27T12:36:21Z</time>
      </trkpt>
      <trkpt lat="37.027400" lon="-8.989953">
        <ele>66.908</ele>
        <time>2018-12-27T12:36:24Z</time>
      </trkpt>
      <trkpt lat="37.027433" lon="-8.989911">
        <ele>66.969</ele>
        <time>2018-12-27T12:36:28Z</time>
      </trkpt>
      <trkpt lat="37.027539" lon="-8.989926">
        <ele>66.497</ele>
        <time>2018-12-27T12:36:37Z</time>
      </trkpt>
      <trkpt lat="37.027612" lon="-8.989922">
        <ele>65.954</ele>
        <time>2018-12-27T12:36:45Z</time>
      </trkpt>
      <trkpt lat="37.027620" lon="-8.989906">
        <ele>66.458</ele>
        <time>2018-12-27T12:36:58Z</time>
      </trkpt>
      <trkpt lat="37.027620" lon="-8.989906">
        <ele>66.410</ele>
        <time>2018-12-27T12:36:59Z</time>
      </trkpt>
      <trkpt lat="37.027654" lon="-8.989924">
        <ele>66.435</ele>
        <time>2018-12-27T12:37:09Z</time>
      </trkpt>
      <trkpt lat="37.027674" lon="-8.989882">
        <ele>66.416</ele>
        <time>2018-12-27T12:37:14Z</time>
      </trkpt>
      <trkpt lat="37.027716" lon="-8.989837">
        <ele>66.494</ele>
        <time>2018-12-27T12:37:19Z</time>
      </trkpt>
      <trkpt lat="37.027785" lon="-8.989791">
        <ele>66.932</ele>
        <time>2018-12-27T12:37:26Z</time>
      </trkpt>
      <trkpt lat="37.027865" lon="-8.989762">
        <ele>66.492</ele>
        <time>2018-12-27T12:37:38Z</time>
      </trkpt>
      <trkpt lat="37.027866" lon="-8.989740">
        <ele>67.411</ele>
        <time>2018-12-27T12:37:40Z</time>
      </trkpt>
      <trkpt lat="37.027834" lon="-8.989650">
        <ele>66.908</ele>
        <time>2018-12-27T12:37:48Z</time>
      </trkpt>
      <trkpt lat="37.027835" lon="-8.989602">
        <ele>66.946</ele>
        <time>2018-12-27T12:37:52Z</time>
      </trkpt>
      <trkpt lat="37.027815" lon="-8.989555">
        <ele>66.964</ele>
        <time>2018-12-27T12:37:56Z</time>
      </trkpt>
      <trkpt lat="37.027813" lon="-8.989497">
        <ele>66.451</ele>
        <time>2018-12-27T12:38:01Z</time>
      </trkpt>
      <trkpt lat="37.027817" lon="-8.989432">
        <ele>66.445</ele>
        <time>2018-12-27T12:38:06Z</time>
      </trkpt>
      <trkpt lat="37.027805" lon="-8.989366">
        <ele>66.467</ele>
        <time>2018-12-27T12:38:11Z</time>
      </trkpt>
      <trkpt lat="37.027818" lon="-8.989309">
        <ele>65.532</ele>
        <time>2018-12-27T12:38:15Z</time>
      </trkpt>
      <trkpt lat="37.027855" lon="-8.989223">
        <ele>65.923</ele>
        <time>2018-12-27T12:38:22Z</time>
      </trkpt>
      <trkpt lat="37.027876" lon="-8.989169">
        <ele>65.971</ele>
        <time>2018-12-27T12:38:26Z</time>
      </trkpt>
      <trkpt lat="37.027944" lon="-8.989029">
        <ele>66.457</ele>
        <time>2018-12-27T12:38:38Z</time>
      </trkpt>
      <trkpt lat="37.027946" lon="-8.989017">
        <ele>66.900</ele>
        <time>2018-12-27T12:38:39Z</time>
      </trkpt>
      <trkpt lat="37.027970" lon="-8.988962">
        <ele>66.920</ele>
        <time>2018-12-27T12:38:44Z</time>
      </trkpt>
      <trkpt lat="37.027989" lon="-8.988940">
        <ele>66.908</ele>
        <time>2018-12-27T12:38:46Z</time>
      </trkpt>
      <trkpt lat="37.028015" lon="-8.988857">
        <ele>67.458</ele>
        <time>2018-12-27T12:38:53Z</time>
      </trkpt>
      <trkpt lat="37.028093" lon="-8.988732">
        <ele>67.916</ele>
        <time>2018-12-27T12:39:04Z</time>
      </trkpt>
      <trkpt lat="37.028101" lon="-8.988722">
        <ele>67.913</ele>
        <time>2018-12-27T12:39:05Z</time>
      </trkpt>
      <trkpt lat="37.028123" lon="-8.988688">
        <ele>67.927</ele>
        <time>2018-12-27T12:39:08Z</time>
      </trkpt>
      <trkpt lat="37.028153" lon="-8.988618">
        <ele>68.349</ele>
        <time>2018-12-27T12:39:15Z</time>
      </trkpt>
      <trkpt lat="37.028238" lon="-8.988471">
        <ele>68.344</ele>
        <time>2018-12-27T12:39:27Z</time>
      </trkpt>
      <trkpt lat="37.028240" lon="-8.988444">
        <ele>67.995</ele>
        <time>2018-12-27T12:39:29Z</time>
      </trkpt>
      <trkpt lat="37.028264" lon="-8.988367">
        <ele>68.343</ele>
        <time>2018-12-27T12:39:35Z</time>
      </trkpt>
      <trkpt lat="37.028358" lon="-8.988241">
        <ele>68.315</ele>
        <time>2018-12-27T12:39:48Z</time>
      </trkpt>
      <trkpt lat="37.028396" lon="-8.988224">
        <ele>67.965</ele>
        <time>2018-12-27T12:39:52Z</time>
      </trkpt>
      <trkpt lat="37.028436" lon="-8.988174">
        <ele>67.911</ele>
        <time>2018-12-27T12:39:57Z</time>
      </trkpt>
      <trkpt lat="37.028518" lon="-8.988019">
        <ele>67.408</ele>
        <time>2018-12-27T12:40:10Z</time>
      </trkpt>
      <trkpt lat="37.028552" lon="-8.987950">
        <ele>66.954</ele>
        <time>2018-12-27T12:40:16Z</time>
      </trkpt>
      <trkpt lat="37.028562" lon="-8.987916">
        <ele>66.432</ele>
        <time>2018-12-27T12:40:19Z</time>
      </trkpt>
      <trkpt lat="37.028602" lon="-8.987848">
        <ele>65.959</ele>
        <time>2018-12-27T12:40:24Z</time>
      </trkpt>
      <trkpt lat="37.028618" lon="-8.987823">
        <ele>65.923</ele>
        <time>2018-12-27T12:40:26Z</time>
      </trkpt>
      <trkpt lat="37.028674" lon="-8.987745">
        <ele>65.565</ele>
        <time>2018-12-27T12:40:33Z</time>
      </trkpt>
      <trkpt lat="37.028689" lon="-8.987720">
        <ele>65.540</ele>
        <time>2018-12-27T12:40:35Z</time>
      </trkpt>
      <trkpt lat="37.028758" lon="-8.987623">
        <ele>65.931</ele>
        <time>2018-12-27T12:40:44Z</time>
      </trkpt>
      <trkpt lat="37.028828" lon="-8.987516">
        <ele>65.529</ele>
        <time>2018-12-27T12:40:57Z</time>
      </trkpt>
      <trkpt lat="37.028832" lon="-8.987470">
        <ele>65.018</ele>
        <time>2018-12-27T12:41:11Z</time>
      </trkpt>
      <trkpt lat="37.028857" lon="-8.987430">
        <ele>63.598</ele>
        <time>2018-12-27T12:41:20Z</time>
      </trkpt>
      <trkpt lat="37.028863" lon="-8.987426">
        <ele>63.117</ele>
        <time>2018-12-27T12:41:21Z</time>
      </trkpt>
      <trkpt lat="37.028886" lon="-8.987417">
        <ele>61.608</ele>
        <time>2018-12-27T12:41:24Z</time>
      </trkpt>
      <trkpt lat="37.028892" lon="-8.987399">
        <ele>60.794</ele>
        <time>2018-12-27T12:41:26Z</time>
      </trkpt>
      <trkpt lat="37.028909" lon="-8.987369">
        <ele>59.782</ele>
        <time>2018-12-27T12:41:29Z</time>
      </trkpt>
      <trkpt lat="37.028929" lon="-8.987309">
        <ele>58.329</ele>
        <time>2018-12-27T12:41:35Z</time>
      </trkpt>
      <trkpt lat="37.028934" lon="-8.987247">
        <ele>56.833</ele>
        <time>2018-12-27T12:41:40Z</time>
      </trkpt>
      <trkpt lat="37.028937" lon="-8.987206">
        <ele>55.855</ele>
        <time>2018-12-27T12:41:43Z</time>
      </trkpt>
      <trkpt lat="37.028981" lon="-8.987147">
        <ele>53.420</ele>
        <time>2018-12-27T12:41:52Z</time>
      </trkpt>
      <trkpt lat="37.029021" lon="-8.987145">
        <ele>52.061</ele>
        <time>2018-12-27T12:41:57Z</time>
      </trkpt>
      <trkpt lat="37.029077" lon="-8.987139">
        <ele>50.199</ele>
        <time>2018-12-27T12:42:02Z</time>
      </trkpt>
      <trkpt lat="37.029099" lon="-8.987122">
        <ele>49.677</ele>
        <time>2018-12-27T12:42:04Z</time>
      </trkpt>
      <trkpt lat="37.029205" lon="-8.987132">
        <ele>47.261</ele>
        <time>2018-12-27T12:42:15Z</time>
      </trkpt>
      <trkpt lat="37.029211" lon="-8.987129">
        <ele>47.227</ele>
        <time>2018-12-27T12:42:19Z</time>
      </trkpt>
      <trkpt lat="37.029234" lon="-8.987131">
        <ele>46.708</ele>
        <time>2018-12-27T12:42:22Z</time>
      </trkpt>
      <trkpt lat="37.029256" lon="-8.987142">
        <ele>45.330</ele>
        <time>2018-12-27T12:42:24Z</time>
      </trkpt>
      <trkpt lat="37.029286" lon="-8.987143">
        <ele>44.838</ele>
        <time>2018-12-27T12:42:27Z</time>
      </trkpt>
      <trkpt lat="37.029310" lon="-8.987113">
        <ele>42.935</ele>
        <time>2018-12-27T12:42:31Z</time>
      </trkpt>
      <trkpt lat="37.029328" lon="-8.987119">
        <ele>42.479</ele>
        <time>2018-12-27T12:42:34Z</time>
      </trkpt>
      <trkpt lat="37.029358" lon="-8.987119">
        <ele>41.491</ele>
        <time>2018-12-27T12:42:38Z</time>
      </trkpt>
      <trkpt lat="37.029389" lon="-8.987140">
        <ele>39.576</ele>
        <time>2018-12-27T12:42:50Z</time>
      </trkpt>
      <trkpt lat="37.029448" lon="-8.987167">
        <ele>36.677</ele>
        <time>2018-12-27T12:43:01Z</time>
      </trkpt>
      <trkpt lat="37.029451" lon="-8.987179">
        <ele>36.135</ele>
        <time>2018-12-27T12:43:02Z</time>
      </trkpt>
      <trkpt lat="37.029484" lon="-8.987189">
        <ele>34.267</ele>
        <time>2018-12-27T12:43:07Z</time>
      </trkpt>
      <trkpt lat="37.029511" lon="-8.987175">
        <ele>33.381</ele>
        <time>2018-12-27T12:43:10Z</time>
      </trkpt>
      <trkpt lat="37.029537" lon="-8.987142">
        <ele>31.319</ele>
        <time>2018-12-27T12:43:15Z</time>
      </trkpt>
      <trkpt lat="37.029561" lon="-8.987122">
        <ele>30.908</ele>
        <time>2018-12-27T12:43:18Z</time>
      </trkpt>
      <trkpt lat="37.029592" lon="-8.987101">
        <ele>29.489</ele>
        <time>2018-12-27T12:43:23Z</time>
      </trkpt>
      <trkpt lat="37.029666" lon="-8.987126">
        <ele>26.517</ele>
        <time>2018-12-27T12:43:34Z</time>
      </trkpt>
      <trkpt lat="37.029684" lon="-8.987123">
        <ele>26.064</ele>
        <time>2018-12-27T12:43:36Z</time>
      </trkpt>
      <trkpt lat="37.029759" lon="-8.987083">
        <ele>24.128</ele>
        <time>2018-12-27T12:43:48Z</time>
      </trkpt>
      <trkpt lat="37.029830" lon="-8.987102">
        <ele>20.830</ele>
        <time>2018-12-27T12:43:59Z</time>
      </trkpt>
      <trkpt lat="37.029858" lon="-8.987113">
        <ele>19.815</ele>
        <time>2018-12-27T12:44:12Z</time>
      </trkpt>
      <trkpt lat="37.029854" lon="-8.987152">
        <ele>19.886</ele>
        <time>2018-12-27T12:44:27Z</time>
      </trkpt>
      <trkpt lat="37.029871" lon="-8.987174">
        <ele>19.344</ele>
        <time>2018-12-27T12:44:32Z</time>
      </trkpt>
      <trkpt lat="37.029899" lon="-8.987221">
        <ele>17.483</ele>
        <time>2018-12-27T12:44:37Z</time>
      </trkpt>
      <trkpt lat="37.029920" lon="-8.987201">
        <ele>17.425</ele>
        <time>2018-12-27T12:44:50Z</time>
      </trkpt>
      <trkpt lat="37.029921" lon="-8.987185">
        <ele>17.417</ele>
        <time>2018-12-27T12:45:07Z</time>
      </trkpt>
      <trkpt lat="37.029918" lon="-8.987167">
        <ele>17.408</ele>
        <time>2018-12-27T12:45:27Z</time>
      </trkpt>
      <trkpt lat="37.029922" lon="-8.987167">
        <ele>18.411</ele>
        <time>2018-12-27T12:45:42Z</time>
      </trkpt>
      <trkpt lat="37.029927" lon="-8.987135">
        <ele>18.839</ele>
        <time>2018-12-27T12:45:58Z</time>
      </trkpt>
      <trkpt lat="37.029927" lon="-8.987135">
        <ele>19.356</ele>
        <time>2018-12-27T12:46:21Z</time>
      </trkpt>
      <trkpt lat="37.029932" lon="-8.987109">
        <ele>19.310</ele>
        <time>2018-12-27T12:46:44Z</time>
      </trkpt>
      <trkpt lat="37.029939" lon="-8.987103">
        <ele>20.392</ele>
        <time>2018-12-27T12:47:03Z</time>
      </trkpt>
      <trkpt lat="37.029939" lon="-8.987103">
        <ele>20.897</ele>
        <time>2018-12-27T12:47:22Z</time>
      </trkpt>
      <trkpt lat="37.029939" lon="-8.987103">
        <ele>20.868</ele>
        <time>2018-12-27T12:47:44Z</time>
      </trkpt>
      <trkpt lat="37.029918" lon="-8.987052">
        <ele>21.216</ele>
        <time>2018-12-27T12:48:09Z</time>
      </trkpt>
      <trkpt lat="37.029917" lon="-8.987059">
        <ele>21.722</ele>
        <time>2018-12-27T12:48:24Z</time>
      </trkpt>
      <trkpt lat="37.029924" lon="-8.987066">
        <ele>21.262</ele>
        <time>2018-12-27T12:48:33Z</time>
      </trkpt>
      <trkpt lat="37.029924" lon="-8.987070">
        <ele>21.708</ele>
        <time>2018-12-27T12:48:52Z</time>
      </trkpt>
      <trkpt lat="37.029922" lon="-8.987044">
        <ele>21.708</ele>
        <time>2018-12-27T12:49:11Z</time>
      </trkpt>
      <trkpt lat="37.029922" lon="-8.987044">
        <ele>22.255</ele>
        <time>2018-12-27T12:49:27Z</time>
      </trkpt>
      <trkpt lat="37.029922" lon="-8.987044">
        <ele>22.243</ele>
        <time>2018-12-27T12:49:43Z</time>
      </trkpt>
      <trkpt lat="37.029892" lon="-8.986985">
        <ele>23.290</ele>
        <time>2018-12-27T12:49:55Z</time>
      </trkpt>
      <trkpt lat="37.029831" lon="-8.986949">
        <ele>25.684</ele>
        <time>2018-12-27T12:50:07Z</time>
      </trkpt>
      <trkpt lat="37.029788" lon="-8.986978">
        <ele>28.086</ele>
        <time>2018-12-27T12:50:28Z</time>
      </trkpt>
      <trkpt lat="37.029727" lon="-8.986945">
        <ele>29.991</ele>
        <time>2018-12-27T12:50:39Z</time>
      </trkpt>
      <trkpt lat="37.029676" lon="-8.987005">
        <ele>31.342</ele>
        <time>2018-12-27T12:50:50Z</time>
      </trkpt>
      <trkpt lat="37.029660" lon="-8.987015">
        <ele>31.830</ele>
        <time>2018-12-27T12:50:59Z</time>
      </trkpt>
      <trkpt lat="37.029649" lon="-8.987004">
        <ele>32.332</ele>
        <time>2018-12-27T12:51:15Z</time>
      </trkpt>
      <trkpt lat="37.029649" lon="-8.987004">
        <ele>32.892</ele>
        <time>2018-12-27T12:51:36Z</time>
      </trkpt>
      <trkpt lat="37.029663" lon="-8.987047">
        <ele>32.811</ele>
        <time>2018-12-27T12:51:58Z</time>
      </trkpt>
      <trkpt lat="37.029664" lon="-8.987049">
        <ele>32.808</ele>
        <time>2018-12-27T12:52:20Z</time>
      </trkpt>
      <trkpt lat="37.029639" lon="-8.987085">
        <ele>34.226</ele>
        <time>2018-12-27T12:52:38Z</time>
      </trkpt>
      <trkpt lat="37.029562" lon="-8.987078">
        <ele>35.764</ele>
        <time>2018-12-27T12:52:48Z</time>
      </trkpt>
      <trkpt lat="37.029483" lon="-8.987131">
        <ele>39.551</ele>
        <time>2018-12-27T12:53:01Z</time>
      </trkpt>
      <trkpt lat="37.029438" lon="-8.987118">
        <ele>40.995</ele>
        <time>2018-12-27T12:53:08Z</time>
      </trkpt>
      <trkpt lat="37.029369" lon="-8.987057">
        <ele>43.887</ele>
        <time>2018-12-27T12:53:20Z</time>
      </trkpt>
      <trkpt lat="37.029313" lon="-8.987033">
        <ele>46.282</ele>
        <time>2018-12-27T12:53:33Z</time>
      </trkpt>
      <trkpt lat="37.029306" lon="-8.987052">
        <ele>47.713</ele>
        <time>2018-12-27T12:53:46Z</time>
      </trkpt>
      <trkpt lat="37.029274" lon="-8.987090">
        <ele>50.131</ele>
        <time>2018-12-27T12:53:56Z</time>
      </trkpt>
      <trkpt lat="37.029262" lon="-8.987096">
        <ele>50.642</ele>
        <time>2018-12-27T12:53:58Z</time>
      </trkpt>
      <trkpt lat="37.029229" lon="-8.987148">
        <ele>52.522</ele>
        <time>2018-12-27T12:54:07Z</time>
      </trkpt>
      <trkpt lat="37.029206" lon="-8.987158">
        <ele>53.914</ele>
        <time>2018-12-27T12:54:28Z</time>
      </trkpt>
      <trkpt lat="37.029183" lon="-8.987155">
        <ele>54.408</ele>
        <time>2018-12-27T12:54:33Z</time>
      </trkpt>
      <trkpt lat="37.029122" lon="-8.987141">
        <ele>56.867</ele>
        <time>2018-12-27T12:54:45Z</time>
      </trkpt>
      <trkpt lat="37.029085" lon="-8.987151">
        <ele>57.895</ele>
        <time>2018-12-27T12:55:05Z</time>
      </trkpt>
      <trkpt lat="37.029083" lon="-8.987147">
        <ele>57.872</ele>
        <time>2018-12-27T12:55:06Z</time>
      </trkpt>
      <trkpt lat="37.029021" lon="-8.987216">
        <ele>58.376</ele>
        <time>2018-12-27T12:55:18Z</time>
      </trkpt>
      <trkpt lat="37.029021" lon="-8.987216">
        <ele>58.758</ele>
        <time>2018-12-27T12:55:19Z</time>
      </trkpt>
      <trkpt lat="37.028970" lon="-8.987222">
        <ele>60.223</ele>
        <time>2018-12-27T12:55:26Z</time>
      </trkpt>
      <trkpt lat="37.028925" lon="-8.987242">
        <ele>63.594</ele>
        <time>2018-12-27T12:55:37Z</time>
      </trkpt>
      <trkpt lat="37.028910" lon="-8.987215">
        <ele>65.562</ele>
        <time>2018-12-27T12:55:52Z</time>
      </trkpt>
      <trkpt lat="37.028869" lon="-8.987210">
        <ele>67.957</ele>
        <time>2018-12-27T12:56:04Z</time>
      </trkpt>
      <trkpt lat="37.028852" lon="-8.987220">
        <ele>69.800</ele>
        <time>2018-12-27T12:56:14Z</time>
      </trkpt>
      <trkpt lat="37.028841" lon="-8.987210">
        <ele>72.220</ele>
        <time>2018-12-27T12:56:25Z</time>
      </trkpt>
      <trkpt lat="37.028812" lon="-8.987213">
        <ele>74.108</ele>
        <time>2018-12-27T12:56:36Z</time>
      </trkpt>
      <trkpt lat="37.028795" lon="-8.987226">
        <ele>74.688</ele>
        <time>2018-12-27T12:56:47Z</time>
      </trkpt>
      <trkpt lat="37.028778" lon="-8.987239">
        <ele>74.616</ele>
        <time>2018-12-27T12:56:57Z</time>
      </trkpt>
      <trkpt lat="37.028768" lon="-8.987279">
        <ele>74.643</ele>
        <time>2018-12-27T12:57:00Z</time>
      </trkpt>
      <trkpt lat="37.028751" lon="-8.987378">
        <ele>74.127</ele>
        <time>2018-12-27T12:57:11Z</time>
      </trkpt>
      <trkpt lat="37.028714" lon="-8.987527">
        <ele>74.199</ele>
        <time>2018-12-27T12:57:22Z</time>
      </trkpt>
      <trkpt lat="37.028671" lon="-8.987600">
        <ele>73.664</ele>
        <time>2018-12-27T12:57:34Z</time>
      </trkpt>
      <trkpt lat="37.028669" lon="-8.987608">
        <ele>74.135</ele>
        <time>2018-12-27T12:57:49Z</time>
      </trkpt>
      <trkpt lat="37.028660" lon="-8.987648">
        <ele>74.163</ele>
        <time>2018-12-27T12:57:52Z</time>
      </trkpt>
      <trkpt lat="37.028653" lon="-8.987704">
        <ele>73.626</ele>
        <time>2018-12-27T12:58:06Z</time>
      </trkpt>
      <trkpt lat="37.028645" lon="-8.987699">
        <ele>73.247</ele>
        <time>2018-12-27T12:58:16Z</time>
      </trkpt>
      <trkpt lat="37.028628" lon="-8.987651">
        <ele>73.611</ele>
        <time>2018-12-27T12:58:26Z</time>
      </trkpt>
      <trkpt lat="37.028607" lon="-8.987620">
        <ele>73.608</ele>
        <time>2018-12-27T12:58:29Z</time>
      </trkpt>
      <trkpt lat="37.028581" lon="-8.987570">
        <ele>73.675</ele>
        <time>2018-12-27T12:58:34Z</time>
      </trkpt>
      <trkpt lat="37.028532" lon="-8.987528">
        <ele>73.623</ele>
        <time>2018-12-27T12:58:39Z</time>
      </trkpt>
      <trkpt lat="37.028464" lon="-8.987507">
        <ele>73.670</ele>
        <time>2018-12-27T12:58:45Z</time>
      </trkpt>
      <trkpt lat="37.028358" lon="-8.987499">
        <ele>73.614</ele>
        <time>2018-12-27T12:58:57Z</time>
      </trkpt>
      <trkpt lat="37.028326" lon="-8.987500">
        <ele>73.616</ele>
        <time>2018-12-27T12:59:00Z</time>
      </trkpt>
      <trkpt lat="37.028270" lon="-8.987432">
        <ele>73.221</ele>
        <time>2018-12-27T12:59:13Z</time>
      </trkpt>
      <trkpt lat="37.028265" lon="-8.987423">
        <ele>73.272</ele>
        <time>2018-12-27T12:59:14Z</time>
      </trkpt>
      <trkpt lat="37.028217" lon="-8.987353">
        <ele>72.720</ele>
        <time>2018-12-27T12:59:25Z</time>
      </trkpt>
      <trkpt lat="37.028206" lon="-8.987332">
        <ele>73.263</ele>
        <time>2018-12-27T12:59:27Z</time>
      </trkpt>
      <trkpt lat="37.028195" lon="-8.987313">
        <ele>72.744</ele>
        <time>2018-12-27T12:59:29Z</time>
      </trkpt>
      <trkpt lat="37.028176" lon="-8.987289">
        <ele>72.718</ele>
        <time>2018-12-27T12:59:38Z</time>
      </trkpt>
      <trkpt lat="37.028157" lon="-8.987272">
        <ele>72.708</ele>
        <time>2018-12-27T12:59:40Z</time>
      </trkpt>
      <trkpt lat="37.028123" lon="-8.987269">
        <ele>72.769</ele>
        <time>2018-12-27T12:59:44Z</time>
      </trkpt>
      <trkpt lat="37.028017" lon="-8.987139">
        <ele>71.777</ele>
        <time>2018-12-27T12:59:58Z</time>
      </trkpt>
      <trkpt lat="37.027974" lon="-8.987094">
        <ele>71.794</ele>
        <time>2018-12-27T13:00:09Z</time>
      </trkpt>
      <trkpt lat="37.027974" lon="-8.987094">
        <ele>71.778</ele>
        <time>2018-12-27T13:00:10Z</time>
      </trkpt>
      <trkpt lat="37.027930" lon="-8.987012">
        <ele>71.760</ele>
        <time>2018-12-27T13:00:17Z</time>
      </trkpt>
      <trkpt lat="37.027912" lon="-8.987002">
        <ele>71.785</ele>
        <time>2018-12-27T13:00:19Z</time>
      </trkpt>
      <trkpt lat="37.027843" lon="-8.986928">
        <ele>72.216</ele>
        <time>2018-12-27T13:00:27Z</time>
      </trkpt>
      <trkpt lat="37.027781" lon="-8.986881">
        <ele>71.724</ele>
        <time>2018-12-27T13:00:34Z</time>
      </trkpt>
      <trkpt lat="37.027742" lon="-8.986852">
        <ele>71.719</ele>
        <time>2018-12-27T13:00:38Z</time>
      </trkpt>
      <trkpt lat="37.027639" lon="-8.986757">
        <ele>72.209</ele>
        <time>2018-12-27T13:00:49Z</time>
      </trkpt>
      <trkpt lat="37.027621" lon="-8.986743">
        <ele>71.719</ele>
        <time>2018-12-27T13:00:51Z</time>
      </trkpt>
      <trkpt lat="37.027525" lon="-8.986692">
        <ele>71.208</ele>
        <time>2018-12-27T13:01:00Z</time>
      </trkpt>
      <trkpt lat="37.027500" lon="-8.986680">
        <ele>71.764</ele>
        <time>2018-12-27T13:01:02Z</time>
      </trkpt>
      <trkpt lat="37.027371" lon="-8.986550">
        <ele>71.262</ele>
        <time>2018-12-27T13:01:15Z</time>
      </trkpt>
      <trkpt lat="37.027344" lon="-8.986530">
        <ele>71.739</ele>
        <time>2018-12-27T13:01:18Z</time>
      </trkpt>
      <trkpt lat="37.027285" lon="-8.986486">
        <ele>71.723</ele>
        <time>2018-12-27T13:01:24Z</time>
      </trkpt>
      <trkpt lat="37.027266" lon="-8.986455">
        <ele>72.275</ele>
        <time>2018-12-27T13:01:27Z</time>
      </trkpt>
      <trkpt lat="37.027284" lon="-8.986289">
        <ele>71.710</ele>
        <time>2018-12-27T13:01:39Z</time>
      </trkpt>
      <trkpt lat="37.027300" lon="-8.986266">
        <ele>71.741</ele>
        <time>2018-12-27T13:01:41Z</time>
      </trkpt>
      <trkpt lat="37.027359" lon="-8.986114">
        <ele>71.239</ele>
        <time>2018-12-27T13:01:52Z</time>
      </trkpt>
      <trkpt lat="37.027368" lon="-8.986087">
        <ele>71.746</ele>
        <time>2018-12-27T13:01:54Z</time>
      </trkpt>
      <trkpt lat="37.027378" lon="-8.986057">
        <ele>71.788</ele>
        <time>2018-12-27T13:01:56Z</time>
      </trkpt>
      <trkpt lat="37.027393" lon="-8.986033">
        <ele>71.216</ele>
        <time>2018-12-27T13:01:58Z</time>
      </trkpt>
      <trkpt lat="37.027411" lon="-8.985977">
        <ele>71.208</ele>
        <time>2018-12-27T13:02:02Z</time>
      </trkpt>
      <trkpt lat="37.027479" lon="-8.985802">
        <ele>71.247</ele>
        <time>2018-12-27T13:02:15Z</time>
      </trkpt>
      <trkpt lat="37.027505" lon="-8.985724">
        <ele>70.785</ele>
        <time>2018-12-27T13:02:28Z</time>
      </trkpt>
      <trkpt lat="37.027513" lon="-8.985701">
        <ele>70.352</ele>
        <time>2018-12-27T13:02:30Z</time>
      </trkpt>
      <trkpt lat="37.027569" lon="-8.985600">
        <ele>70.326</ele>
        <time>2018-12-27T13:02:38Z</time>
      </trkpt>
      <trkpt lat="37.027611" lon="-8.985506">
        <ele>70.368</ele>
        <time>2018-12-27T13:02:50Z</time>
      </trkpt>
      <trkpt lat="37.027645" lon="-8.985395">
        <ele>70.373</ele>
        <time>2018-12-27T13:02:58Z</time>
      </trkpt>
      <trkpt lat="37.027692" lon="-8.985325">
        <ele>69.874</ele>
        <time>2018-12-27T13:03:04Z</time>
      </trkpt>
      <trkpt lat="37.027689" lon="-8.985248">
        <ele>69.362</ele>
        <time>2018-12-27T13:03:10Z</time>
      </trkpt>
      <trkpt lat="37.027692" lon="-8.985223">
        <ele>69.328</ele>
        <time>2018-12-27T13:03:12Z</time>
      </trkpt>
      <trkpt lat="37.027692" lon="-8.985185">
        <ele>69.389</ele>
        <time>2018-12-27T13:03:15Z</time>
      </trkpt>
      <trkpt lat="37.027712" lon="-8.985091">
        <ele>69.317</ele>
        <time>2018-12-27T13:03:22Z</time>
      </trkpt>
      <trkpt lat="37.027722" lon="-8.985045">
        <ele>68.808</ele>
        <time>2018-12-27T13:03:36Z</time>
      </trkpt>
      <trkpt lat="37.027751" lon="-8.984972">
        <ele>68.375</ele>
        <time>2018-12-27T13:03:42Z</time>
      </trkpt>
      <trkpt lat="37.027804" lon="-8.984921">
        <ele>68.363</ele>
        <time>2018-12-27T13:03:49Z</time>
      </trkpt>
      <trkpt lat="37.027812" lon="-8.984890">
        <ele>68.380</ele>
        <time>2018-12-27T13:03:52Z</time>
      </trkpt>
      <trkpt lat="37.027843" lon="-8.984772">
        <ele>68.324</ele>
        <time>2018-12-27T13:03:59Z</time>
      </trkpt>
      <trkpt lat="37.027910" lon="-8.984668">
        <ele>68.356</ele>
        <time>2018-12-27T13:04:06Z</time>
      </trkpt>
      <trkpt lat="37.027921" lon="-8.984583">
        <ele>68.331</ele>
        <time>2018-12-27T13:04:11Z</time>
      </trkpt>
      <trkpt lat="37.027937" lon="-8.984560">
        <ele>68.342</ele>
        <time>2018-12-27T13:04:13Z</time>
      </trkpt>
      <trkpt lat="37.027950" lon="-8.984514">
        <ele>68.340</ele>
        <time>2018-12-27T13:04:17Z</time>
      </trkpt>
      <trkpt lat="37.027977" lon="-8.984447">
        <ele>68.333</ele>
        <time>2018-12-27T13:04:22Z</time>
      </trkpt>
      <trkpt lat="37.028007" lon="-8.984341">
        <ele>68.323</ele>
        <time>2018-12-27T13:04:30Z</time>
      </trkpt>
      <trkpt lat="37.028073" lon="-8.984227">
        <ele>68.815</ele>
        <time>2018-12-27T13:04:40Z</time>
      </trkpt>
      <trkpt lat="37.028092" lon="-8.984156">
        <ele>69.308</ele>
        <time>2018-12-27T13:04:46Z</time>
      </trkpt>
      <trkpt lat="37.028144" lon="-8.983972">
        <ele>68.896</ele>
        <time>2018-12-27T13:05:00Z</time>
      </trkpt>
      <trkpt lat="37.028170" lon="-8.983805">
        <ele>69.394</ele>
        <time>2018-12-27T13:05:12Z</time>
      </trkpt>
      <trkpt lat="37.028180" lon="-8.983652">
        <ele>69.871</ele>
        <time>2018-12-27T13:05:23Z</time>
      </trkpt>
      <trkpt lat="37.028194" lon="-8.983566">
        <ele>69.885</ele>
        <time>2018-12-27T13:05:29Z</time>
      </trkpt>
      <trkpt lat="37.028211" lon="-8.983457">
        <ele>69.837</ele>
        <time>2018-12-27T13:05:37Z</time>
      </trkpt>
      <trkpt lat="37.028223" lon="-8.983313">
        <ele>70.362</ele>
        <time>2018-12-27T13:05:47Z</time>
      </trkpt>
      <trkpt lat="37.028235" lon="-8.983208">
        <ele>70.313</ele>
        <time>2018-12-27T13:05:54Z</time>
      </trkpt>
      <trkpt lat="37.028240" lon="-8.983119">
        <ele>70.391</ele>
        <time>2018-12-27T13:06:00Z</time>
      </trkpt>
      <trkpt lat="37.028252" lon="-8.983082">
        <ele>70.326</ele>
        <time>2018-12-27T13:06:03Z</time>
      </trkpt>
      <trkpt lat="37.028260" lon="-8.982963">
        <ele>70.347</ele>
        <time>2018-12-27T13:06:11Z</time>
      </trkpt>
      <trkpt lat="37.028250" lon="-8.982886">
        <ele>70.311</ele>
        <time>2018-12-27T13:06:16Z</time>
      </trkpt>
      <trkpt lat="37.028265" lon="-8.982800">
        <ele>70.308</ele>
        <time>2018-12-27T13:06:22Z</time>
      </trkpt>
      <trkpt lat="37.028266" lon="-8.982711">
        <ele>69.885</ele>
        <time>2018-12-27T13:06:28Z</time>
      </trkpt>
      <trkpt lat="37.028276" lon="-8.982665">
        <ele>70.363</ele>
        <time>2018-12-27T13:06:31Z</time>
      </trkpt>
      <trkpt lat="37.028265" lon="-8.982602">
        <ele>70.360</ele>
        <time>2018-12-27T13:06:35Z</time>
      </trkpt>
      <trkpt lat="37.028270" lon="-8.982537">
        <ele>69.884</ele>
        <time>2018-12-27T13:06:39Z</time>
      </trkpt>
      <trkpt lat="37.028283" lon="-8.982492">
        <ele>69.836</ele>
        <time>2018-12-27T13:06:42Z</time>
      </trkpt>
      <trkpt lat="37.028279" lon="-8.982436">
        <ele>69.831</ele>
        <time>2018-12-27T13:06:46Z</time>
      </trkpt>
      <trkpt lat="37.028292" lon="-8.982363">
        <ele>69.852</ele>
        <time>2018-12-27T13:06:51Z</time>
      </trkpt>
      <trkpt lat="37.028289" lon="-8.982230">
        <ele>69.890</ele>
        <time>2018-12-27T13:07:00Z</time>
      </trkpt>
      <trkpt lat="37.028276" lon="-8.982062">
        <ele>70.396</ele>
        <time>2018-12-27T13:07:12Z</time>
      </trkpt>
      <trkpt lat="37.028279" lon="-8.982018">
        <ele>69.831</ele>
        <time>2018-12-27T13:07:15Z</time>
      </trkpt>
      <trkpt lat="37.028262" lon="-8.981959">
        <ele>70.324</ele>
        <time>2018-12-27T13:07:28Z</time>
      </trkpt>
      <trkpt lat="37.028245" lon="-8.981941">
        <ele>70.308</ele>
        <time>2018-12-27T13:07:30Z</time>
      </trkpt>
      <trkpt lat="37.028164" lon="-8.981903">
        <ele>69.842</ele>
        <time>2018-12-27T13:07:36Z</time>
      </trkpt>
      <trkpt lat="37.028022" lon="-8.981984">
        <ele>68.890</ele>
        <time>2018-12-27T13:07:47Z</time>
      </trkpt>
      <trkpt lat="37.028007" lon="-8.982017">
        <ele>68.827</ele>
        <time>2018-12-27T13:07:52Z</time>
      </trkpt>
      <trkpt lat="37.027911" lon="-8.982069">
        <ele>67.921</ele>
        <time>2018-12-27T13:07:59Z</time>
      </trkpt>
      <trkpt lat="37.027838" lon="-8.982143">
        <ele>67.443</ele>
        <time>2018-12-27T13:08:05Z</time>
      </trkpt>
      <trkpt lat="37.027814" lon="-8.982177">
        <ele>67.498</ele>
        <time>2018-12-27T13:08:11Z</time>
      </trkpt>
      <trkpt lat="37.027779" lon="-8.982218">
        <ele>67.439</ele>
        <time>2018-12-27T13:08:15Z</time>
      </trkpt>
      <trkpt lat="37.027618" lon="-8.982390">
        <ele>66.427</ele>
        <time>2018-12-27T13:08:31Z</time>
      </trkpt>
      <trkpt lat="37.027466" lon="-8.982539">
        <ele>65.052</ele>
        <time>2018-12-27T13:08:46Z</time>
      </trkpt>
      <trkpt lat="37.027438" lon="-8.982567">
        <ele>64.553</ele>
        <time>2018-12-27T13:08:49Z</time>
      </trkpt>
      <trkpt lat="37.027394" lon="-8.982635">
        <ele>64.008</ele>
        <time>2018-12-27T13:08:55Z</time>
      </trkpt>
      <trkpt lat="37.027308" lon="-8.982667">
        <ele>64.008</ele>
        <time>2018-12-27T13:09:04Z</time>
      </trkpt>
      <trkpt lat="37.027275" lon="-8.982612">
        <ele>64.078</ele>
        <time>2018-12-27T13:09:17Z</time>
      </trkpt>
      <trkpt lat="37.027300" lon="-8.982594">
        <ele>63.566</ele>
        <time>2018-12-27T13:09:28Z</time>
      </trkpt>
      <trkpt lat="37.027245" lon="-8.982614">
        <ele>62.623</ele>
        <time>2018-12-27T13:09:38Z</time>
      </trkpt>
      <trkpt lat="37.027225" lon="-8.982614">
        <ele>62.197</ele>
        <time>2018-12-27T13:09:46Z</time>
      </trkpt>
      <trkpt lat="37.027170" lon="-8.982660">
        <ele>60.749</ele>
        <time>2018-12-27T13:10:00Z</time>
      </trkpt>
      <trkpt lat="37.027163" lon="-8.982668">
        <ele>60.264</ele>
        <time>2018-12-27T13:10:02Z</time>
      </trkpt>
      <trkpt lat="37.027129" lon="-8.982721">
        <ele>60.235</ele>
        <time>2018-12-27T13:10:15Z</time>
      </trkpt>
      <trkpt lat="37.027126" lon="-8.982758">
        <ele>59.713</ele>
        <time>2018-12-27T13:10:19Z</time>
      </trkpt>
      <trkpt lat="37.027070" lon="-8.982790">
        <ele>59.253</ele>
        <time>2018-12-27T13:10:30Z</time>
      </trkpt>
      <trkpt lat="37.027051" lon="-8.982779">
        <ele>57.804</ele>
        <time>2018-12-27T13:10:32Z</time>
      </trkpt>
      <trkpt lat="37.026994" lon="-8.982813">
        <ele>55.414</ele>
        <time>2018-12-27T13:10:43Z</time>
      </trkpt>
      <trkpt lat="37.026960" lon="-8.982791">
        <ele>53.408</ele>
        <time>2018-12-27T13:10:50Z</time>
      </trkpt>
      <trkpt lat="37.026879" lon="-8.982775">
        <ele>50.648</ele>
        <time>2018-12-27T13:11:03Z</time>
      </trkpt>
      <trkpt lat="37.026808" lon="-8.982832">
        <ele>48.636</ele>
        <time>2018-12-27T13:11:15Z</time>
      </trkpt>
      <trkpt lat="37.026794" lon="-8.982854">
        <ele>48.613</ele>
        <time>2018-12-27T13:11:27Z</time>
      </trkpt>
      <trkpt lat="37.026776" lon="-8.982849">
        <ele>47.717</ele>
        <time>2018-12-27T13:11:38Z</time>
      </trkpt>
      <trkpt lat="37.026711" lon="-8.982862">
        <ele>45.829</ele>
        <time>2018-12-27T13:11:49Z</time>
      </trkpt>
      <trkpt lat="37.026673" lon="-8.982880">
        <ele>43.844</ele>
        <time>2018-12-27T13:12:02Z</time>
      </trkpt>
      <trkpt lat="37.026654" lon="-8.982893">
        <ele>43.885</ele>
        <time>2018-12-27T13:12:19Z</time>
      </trkpt>
      <trkpt lat="37.026629" lon="-8.982903">
        <ele>41.913</ele>
        <time>2018-12-27T13:12:34Z</time>
      </trkpt>
      <trkpt lat="37.026590" lon="-8.982917">
        <ele>40.075</ele>
        <time>2018-12-27T13:12:48Z</time>
      </trkpt>
      <trkpt lat="37.026571" lon="-8.982924">
        <ele>38.528</ele>
        <time>2018-12-27T13:12:58Z</time>
      </trkpt>
      <trkpt lat="37.026568" lon="-8.982914">
        <ele>38.120</ele>
        <time>2018-12-27T13:13:13Z</time>
      </trkpt>
      <trkpt lat="37.026556" lon="-8.982930">
        <ele>35.708</ele>
        <time>2018-12-27T13:13:27Z</time>
      </trkpt>
      <trkpt lat="37.026540" lon="-8.982925">
        <ele>34.740</ele>
        <time>2018-12-27T13:13:37Z</time>
      </trkpt>
      <trkpt lat="37.026484" lon="-8.983021">
        <ele>32.888</ele>
        <time>2018-12-27T13:13:50Z</time>
      </trkpt>
      <trkpt lat="37.026453" lon="-8.983006">
        <ele>31.395</ele>
        <time>2018-12-27T13:13:55Z</time>
      </trkpt>
      <trkpt lat="37.026417" lon="-8.983019">
        <ele>30.929</ele>
        <time>2018-12-27T13:14:00Z</time>
      </trkpt>
      <trkpt lat="37.026337" lon="-8.983040">
        <ele>29.961</ele>
        <time>2018-12-27T13:14:09Z</time>
      </trkpt>
      <trkpt lat="37.026276" lon="-8.983058">
        <ele>28.596</ele>
        <time>2018-12-27T13:14:20Z</time>
      </trkpt>
      <trkpt lat="37.026246" lon="-8.983061">
        <ele>27.037</ele>
        <time>2018-12-27T13:14:27Z</time>
      </trkpt>
      <trkpt lat="37.026194" lon="-8.983088">
        <ele>26.015</ele>
        <time>2018-12-27T13:14:37Z</time>
      </trkpt>
      <trkpt lat="37.026195" lon="-8.983088">
        <ele>25.623</ele>
        <time>2018-12-27T13:14:49Z</time>
      </trkpt>
      <trkpt lat="37.026122" lon="-8.983101">
        <ele>24.683</ele>
        <time>2018-12-27T13:15:02Z</time>
      </trkpt>
      <trkpt lat="37.026124" lon="-8.983103">
        <ele>24.611</ele>
        <time>2018-12-27T13:15:12Z</time>
      </trkpt>
      <trkpt lat="37.026134" lon="-8.983002">
        <ele>22.208</ele>
        <time>2018-12-27T13:15:23Z</time>
      </trkpt>
      <trkpt lat="37.026126" lon="-8.982964">
        <ele>20.375</ele>
        <time>2018-12-27T13:15:31Z</time>
      </trkpt>
      <trkpt lat="37.026110" lon="-8.982913">
        <ele>16.943</ele>
        <time>2018-12-27T13:15:41Z</time>
      </trkpt>
      <trkpt lat="37.026124" lon="-8.982922">
        <ele>17.440</ele>
        <time>2018-12-27T13:15:53Z</time>
      </trkpt>
      <trkpt lat="37.026125" lon="-8.982925">
        <ele>16.494</ele>
        <time>2018-12-27T13:16:05Z</time>
      </trkpt>
      <trkpt lat="37.026125" lon="-8.982925">
        <ele>16.036</ele>
        <time>2018-12-27T13:16:36Z</time>
      </trkpt>
      <trkpt lat="37.026126" lon="-8.982922">
        <ele>16.431</ele>
        <time>2018-12-27T13:17:04Z</time>
      </trkpt>
      <trkpt lat="37.026125" lon="-8.982923">
        <ele>16.072</ele>
        <time>2018-12-27T13:17:31Z</time>
      </trkpt>
      <trkpt lat="37.026125" lon="-8.982923">
        <ele>16.050</ele>
        <time>2018-12-27T13:17:59Z</time>
      </trkpt>
      <trkpt lat="37.026125" lon="-8.982923">
        <ele>16.042</ele>
        <time>2018-12-27T13:18:29Z</time>
      </trkpt>
      <trkpt lat="37.026125" lon="-8.982923">
        <ele>15.522</ele>
        <time>2018-12-27T13:18:53Z</time>
      </trkpt>
      <trkpt lat="37.026125" lon="-8.982923">
        <ele>15.514</ele>
        <time>2018-12-27T13:19:22Z</time>
      </trkpt>
      <trkpt lat="37.026125" lon="-8.982923">
        <ele>15.508</ele>
        <time>2018-12-27T13:19:54Z</time>
      </trkpt>
      <trkpt lat="37.026126" lon="-8.982922">
        <ele>15.537</ele>
        <time>2018-12-27T13:20:24Z</time>
      </trkpt>
      <trkpt lat="37.026126" lon="-8.982922">
        <ele>15.545</ele>
        <time>2018-12-27T13:20:58Z</time>
      </trkpt>
      <trkpt lat="37.026125" lon="-8.982923">
        <ele>15.552</ele>
        <time>2018-12-27T13:21:24Z</time>
      </trkpt>
      <trkpt lat="37.026125" lon="-8.982923">
        <ele>15.526</ele>
        <time>2018-12-27T13:21:52Z</time>
      </trkpt>
      <trkpt lat="37.026125" lon="-8.982922">
        <ele>15.578</ele>
        <time>2018-12-27T13:22:19Z</time>
      </trkpt>
      <trkpt lat="37.026126" lon="-8.982922">
        <ele>16.033</ele>
        <time>2018-12-27T13:22:45Z</time>
      </trkpt>
      <trkpt lat="37.026126" lon="-8.982922">
        <ele>15.564</ele>
        <time>2018-12-27T13:23:16Z</time>
      </trkpt>
      <trkpt lat="37.026126" lon="-8.982922">
        <ele>15.572</ele>
        <time>2018-12-27T13:23:46Z</time>
      </trkpt>
      <trkpt lat="37.026122" lon="-8.982927">
        <ele>16.098</ele>
        <time>2018-12-27T13:24:15Z</time>
      </trkpt>
      <trkpt lat="37.026122" lon="-8.982926">
        <ele>15.515</ele>
        <time>2018-12-27T13:24:45Z</time>
      </trkpt>
      <trkpt lat="37.026122" lon="-8.982925">
        <ele>15.026</ele>
        <time>2018-12-27T13:25:18Z</time>
      </trkpt>
      <trkpt lat="37.026122" lon="-8.982925">
        <ele>15.008</ele>
        <time>2018-12-27T13:25:51Z</time>
      </trkpt>
      <trkpt lat="37.026107" lon="-8.982924">
        <ele>16.012</ele>
        <time>2018-12-27T13:26:04Z</time>
      </trkpt>
      <trkpt lat="37.026109" lon="-8.982930">
        <ele>16.050</ele>
        <time>2018-12-27T13:26:18Z</time>
      </trkpt>
      <trkpt lat="37.026109" lon="-8.982944">
        <ele>17.977</ele>
        <time>2018-12-27T13:26:31Z</time>
      </trkpt>
      <trkpt lat="37.026115" lon="-8.982975">
        <ele>21.221</ele>
        <time>2018-12-27T13:26:38Z</time>
      </trkpt>
      <trkpt lat="37.026115" lon="-8.982975">
        <ele>22.753</ele>
        <time>2018-12-27T13:26:42Z</time>
      </trkpt>
      <trkpt lat="37.026124" lon="-8.983041">
        <ele>23.698</ele>
        <time>2018-12-27T13:26:47Z</time>
      </trkpt>
      <trkpt lat="37.026169" lon="-8.983052">
        <ele>24.639</ele>
        <time>2018-12-27T13:26:51Z</time>
      </trkpt>
      <trkpt lat="37.026209" lon="-8.983053">
        <ele>24.667</ele>
        <time>2018-12-27T13:26:56Z</time>
      </trkpt>
      <trkpt lat="37.026232" lon="-8.983053">
        <ele>24.626</ele>
        <time>2018-12-27T13:27:09Z</time>
      </trkpt>
      <trkpt lat="37.026284" lon="-8.983054">
        <ele>27.047</ele>
        <time>2018-12-27T13:27:19Z</time>
      </trkpt>
      <trkpt lat="37.026296" lon="-8.983052">
        <ele>27.511</ele>
        <time>2018-12-27T13:27:21Z</time>
      </trkpt>
      <trkpt lat="37.026360" lon="-8.983003">
        <ele>28.508</ele>
        <time>2018-12-27T13:27:31Z</time>
      </trkpt>
      <trkpt lat="37.026427" lon="-8.982994">
        <ele>29.425</ele>
        <time>2018-12-27T13:27:40Z</time>
      </trkpt>
      <trkpt lat="37.026442" lon="-8.983003">
        <ele>29.913</ele>
        <time>2018-12-27T13:27:42Z</time>
      </trkpt>
      <trkpt lat="37.026476" lon="-8.982998">
        <ele>31.350</ele>
        <time>2018-12-27T13:27:47Z</time>
      </trkpt>
      <trkpt lat="37.026519" lon="-8.982916">
        <ele>34.264</ele>
        <time>2018-12-27T13:27:59Z</time>
      </trkpt>
      <trkpt lat="37.026519" lon="-8.982916">
        <ele>34.216</ele>
        <time>2018-12-27T13:28:14Z</time>
      </trkpt>
      <trkpt lat="37.026556" lon="-8.982903">
        <ele>36.641</ele>
        <time>2018-12-27T13:28:19Z</time>
      </trkpt>
      <trkpt lat="37.026584" lon="-8.982891">
        <ele>39.042</ele>
        <time>2018-12-27T13:28:28Z</time>
      </trkpt>
      <trkpt lat="37.026600" lon="-8.982888">
        <ele>40.580</ele>
        <time>2018-12-27T13:28:34Z</time>
      </trkpt>
      <trkpt lat="37.026641" lon="-8.982860">
        <ele>41.473</ele>
        <time>2018-12-27T13:28:45Z</time>
      </trkpt>
      <trkpt lat="37.026641" lon="-8.982860">
        <ele>41.985</ele>
        <time>2018-12-27T13:28:57Z</time>
      </trkpt>
      <trkpt lat="37.026717" lon="-8.982842">
        <ele>44.313</ele>
        <time>2018-12-27T13:29:09Z</time>
      </trkpt>
      <trkpt lat="37.026748" lon="-8.982831">
        <ele>45.308</ele>
        <time>2018-12-27T13:29:13Z</time>
      </trkpt>
      <trkpt lat="37.026771" lon="-8.982831">
        <ele>46.760</ele>
        <time>2018-12-27T13:29:15Z</time>
      </trkpt>
      <trkpt lat="37.026789" lon="-8.982811">
        <ele>46.768</ele>
        <time>2018-12-27T13:29:18Z</time>
      </trkpt>
      <trkpt lat="37.026802" lon="-8.982790">
        <ele>47.225</ele>
        <time>2018-12-27T13:29:20Z</time>
      </trkpt>
      <trkpt lat="37.026849" lon="-8.982756">
        <ele>48.239</ele>
        <time>2018-12-27T13:29:26Z</time>
      </trkpt>
      <trkpt lat="37.026907" lon="-8.982785">
        <ele>50.691</ele>
        <time>2018-12-27T13:29:35Z</time>
      </trkpt>
      <trkpt lat="37.026906" lon="-8.982812">
        <ele>51.066</ele>
        <time>2018-12-27T13:29:45Z</time>
      </trkpt>
      <trkpt lat="37.026915" lon="-8.982836">
        <ele>51.547</ele>
        <time>2018-12-27T13:29:48Z</time>
      </trkpt>
      <trkpt lat="37.026965" lon="-8.982865">
        <ele>53.465</ele>
        <time>2018-12-27T13:29:54Z</time>
      </trkpt>
      <trkpt lat="37.026992" lon="-8.982923">
        <ele>55.473</ele>
        <time>2018-12-27T13:30:05Z</time>
      </trkpt>
      <trkpt lat="37.026966" lon="-8.983005">
        <ele>58.785</ele>
        <time>2018-12-27T13:30:16Z</time>
      </trkpt>
      <trkpt lat="37.026956" lon="-8.983014">
        <ele>59.713</ele>
        <time>2018-12-27T13:30:18Z</time>
      </trkpt>
      <trkpt lat="37.026944" lon="-8.983032">
        <ele>59.708</ele>
        <time>2018-12-27T13:30:31Z</time>
      </trkpt>
      <trkpt lat="37.026943" lon="-8.983025">
        <ele>59.710</ele>
        <time>2018-12-27T13:30:47Z</time>
      </trkpt>
      <trkpt lat="37.026975" lon="-8.982974">
        <ele>56.878</ele>
        <time>2018-12-27T13:30:58Z</time>
      </trkpt>
      <trkpt lat="37.026973" lon="-8.982949">
        <ele>55.835</ele>
        <time>2018-12-27T13:31:00Z</time>
      </trkpt>
      <trkpt lat="37.026986" lon="-8.982863">
        <ele>53.969</ele>
        <time>2018-12-27T13:31:09Z</time>
      </trkpt>
      <trkpt lat="37.027023" lon="-8.982808">
        <ele>54.941</ele>
        <time>2018-12-27T13:31:16Z</time>
      </trkpt>
      <trkpt lat="37.027068" lon="-8.982771">
        <ele>55.866</ele>
        <time>2018-12-27T13:31:20Z</time>
      </trkpt>
      <trkpt lat="37.027122" lon="-8.982741">
        <ele>57.387</ele>
        <time>2018-12-27T13:31:27Z</time>
      </trkpt>
      <trkpt lat="37.027137" lon="-8.982703">
        <ele>58.355</ele>
        <time>2018-12-27T13:31:33Z</time>
      </trkpt>
      <trkpt lat="37.027216" lon="-8.982635">
        <ele>59.288</ele>
        <time>2018-12-27T13:31:46Z</time>
      </trkpt>
      <trkpt lat="37.027226" lon="-8.982629">
        <ele>59.724</ele>
        <time>2018-12-27T13:31:47Z</time>
      </trkpt>
      <trkpt lat="37.027287" lon="-8.982633">
        <ele>61.126</ele>
        <time>2018-12-27T13:31:56Z</time>
      </trkpt>
      <trkpt lat="37.027276" lon="-8.982611">
        <ele>61.108</ele>
        <time>2018-12-27T13:32:09Z</time>
      </trkpt>
      <trkpt lat="37.027280" lon="-8.982673">
        <ele>61.161</ele>
        <time>2018-12-27T13:32:22Z</time>
      </trkpt>
      <trkpt lat="37.027261" lon="-8.982694">
        <ele>61.149</ele>
        <time>2018-12-27T13:32:35Z</time>
      </trkpt>
      <trkpt lat="37.027266" lon="-8.982690">
        <ele>61.116</ele>
        <time>2018-12-27T13:32:51Z</time>
      </trkpt>
      <trkpt lat="37.027278" lon="-8.982678">
        <ele>61.150</ele>
        <time>2018-12-27T13:33:02Z</time>
      </trkpt>
      <trkpt lat="37.027278" lon="-8.982678">
        <ele>61.172</ele>
        <time>2018-12-27T13:33:08Z</time>
      </trkpt>
      <trkpt lat="37.027321" lon="-8.982682">
        <ele>61.147</ele>
        <time>2018-12-27T13:33:12Z</time>
      </trkpt>
      <trkpt lat="37.027383" lon="-8.982639">
        <ele>61.618</ele>
        <time>2018-12-27T13:33:18Z</time>
      </trkpt>
      <trkpt lat="37.027489" lon="-8.982523">
        <ele>62.636</ele>
        <time>2018-12-27T13:33:29Z</time>
      </trkpt>
      <trkpt lat="37.027548" lon="-8.982479">
        <ele>62.612</ele>
        <time>2018-12-27T13:33:34Z</time>
      </trkpt>
      <trkpt lat="37.027601" lon="-8.982440">
        <ele>62.632</ele>
        <time>2018-12-27T13:33:38Z</time>
      </trkpt>
      <trkpt lat="37.027646" lon="-8.982403">
        <ele>63.505</ele>
        <time>2018-12-27T13:33:42Z</time>
      </trkpt>
      <trkpt lat="37.027666" lon="-8.982345">
        <ele>63.508</ele>
        <time>2018-12-27T13:33:47Z</time>
      </trkpt>
      <trkpt lat="37.027729" lon="-8.982267">
        <ele>64.054</ele>
        <time>2018-12-27T13:33:54Z</time>
      </trkpt>
      <trkpt lat="37.027769" lon="-8.982218">
        <ele>64.092</ele>
        <time>2018-12-27T13:33:59Z</time>
      </trkpt>
      <trkpt lat="37.027796" lon="-8.982161">
        <ele>64.069</ele>
        <time>2018-12-27T13:34:04Z</time>
      </trkpt>
      <trkpt lat="37.027819" lon="-8.982133">
        <ele>64.563</ele>
        <time>2018-12-27T13:34:07Z</time>
      </trkpt>
      <trkpt lat="37.027884" lon="-8.982048">
        <ele>65.565</ele>
        <time>2018-12-27T13:34:15Z</time>
      </trkpt>
      <trkpt lat="37.027915" lon="-8.982020">
        <ele>65.030</ele>
        <time>2018-12-27T13:34:18Z</time>
      </trkpt>
      <trkpt lat="37.027977" lon="-8.981981">
        <ele>65.591</ele>
        <time>2018-12-27T13:34:23Z</time>
      </trkpt>
      <trkpt lat="37.028083" lon="-8.981847">
        <ele>65.599</ele>
        <time>2018-12-27T13:34:36Z</time>
      </trkpt>
      <trkpt lat="37.028107" lon="-8.981818">
        <ele>65.949</ele>
        <time>2018-12-27T13:34:39Z</time>
      </trkpt>
      <trkpt lat="37.028113" lon="-8.981797">
        <ele>65.902</ele>
        <time>2018-12-27T13:34:41Z</time>
      </trkpt>
      <trkpt lat="37.028089" lon="-8.981738">
        <ele>65.922</ele>
        <time>2018-12-27T13:34:46Z</time>
      </trkpt>
      <trkpt lat="37.028075" lon="-8.981688">
        <ele>65.908</ele>
        <time>2018-12-27T13:34:58Z</time>
      </trkpt>
      <trkpt lat="37.028074" lon="-8.981689">
        <ele>65.947</ele>
        <time>2018-12-27T13:35:09Z</time>
      </trkpt>
      <trkpt lat="37.028200" lon="-8.981703">
        <ele>65.945</ele>
        <time>2018-12-27T13:35:21Z</time>
      </trkpt>
      <trkpt lat="37.028215" lon="-8.981553">
        <ele>65.962</ele>
        <time>2018-12-27T13:35:32Z</time>
      </trkpt>
      <trkpt lat="37.028199" lon="-8.981436">
        <ele>66.486</ele>
        <time>2018-12-27T13:35:40Z</time>
      </trkpt>
      <trkpt lat="37.028188" lon="-8.981356">
        <ele>66.458</ele>
        <time>2018-12-27T13:35:46Z</time>
      </trkpt>
      <trkpt lat="37.028171" lon="-8.981276">
        <ele>66.453</ele>
        <time>2018-12-27T13:35:53Z</time>
      </trkpt>
      <trkpt lat="37.028159" lon="-8.981175">
        <ele>67.474</ele>
        <time>2018-12-27T13:36:07Z</time>
      </trkpt>
      <trkpt lat="37.028161" lon="-8.981120">
        <ele>67.442</ele>
        <time>2018-12-27T13:36:21Z</time>
      </trkpt>
      <trkpt lat="37.028148" lon="-8.981006">
        <ele>66.948</ele>
        <time>2018-12-27T13:36:33Z</time>
      </trkpt>
      <trkpt lat="37.028146" lon="-8.980958">
        <ele>67.461</ele>
        <time>2018-12-27T13:36:39Z</time>
      </trkpt>
      <trkpt lat="37.028139" lon="-8.980937">
        <ele>67.417</ele>
        <time>2018-12-27T13:36:41Z</time>
      </trkpt>
      <trkpt lat="37.028134" lon="-8.980911">
        <ele>67.908</ele>
        <time>2018-12-27T13:36:58Z</time>
      </trkpt>
      <trkpt lat="37.028117" lon="-8.980838">
        <ele>67.447</ele>
        <time>2018-12-27T13:37:12Z</time>
      </trkpt>
      <trkpt lat="37.028113" lon="-8.980794">
        <ele>67.435</ele>
        <time>2018-12-27T13:37:16Z</time>
      </trkpt>
      <trkpt lat="37.028088" lon="-8.980659">
        <ele>67.432</ele>
        <time>2018-12-27T13:37:29Z</time>
      </trkpt>
      <trkpt lat="37.028074" lon="-8.980622">
        <ele>67.986</ele>
        <time>2018-12-27T13:37:48Z</time>
      </trkpt>
      <trkpt lat="37.028079" lon="-8.980558">
        <ele>67.448</ele>
        <time>2018-12-27T13:37:52Z</time>
      </trkpt>
      <trkpt lat="37.028055" lon="-8.980452">
        <ele>67.973</ele>
        <time>2018-12-27T13:37:59Z</time>
      </trkpt>
      <trkpt lat="37.028052" lon="-8.980404">
        <ele>67.914</ele>
        <time>2018-12-27T13:38:02Z</time>
      </trkpt>
      <trkpt lat="37.028040" lon="-8.980349">
        <ele>67.942</ele>
        <time>2018-12-27T13:38:06Z</time>
      </trkpt>
      <trkpt lat="37.028065" lon="-8.980245">
        <ele>68.398</ele>
        <time>2018-12-27T13:38:13Z</time>
      </trkpt>
      <trkpt lat="37.028073" lon="-8.980212">
        <ele>68.315</ele>
        <time>2018-12-27T13:38:15Z</time>
      </trkpt>
      <trkpt lat="37.028051" lon="-8.980149">
        <ele>68.326</ele>
        <time>2018-12-27T13:38:19Z</time>
      </trkpt>
      <trkpt lat="37.028015" lon="-8.979946">
        <ele>68.808</ele>
        <time>2018-12-27T13:38:31Z</time>
      </trkpt>
      <trkpt lat="37.028010" lon="-8.979875">
        <ele>68.822</ele>
        <time>2018-12-27T13:38:35Z</time>
      </trkpt>
      <trkpt lat="37.027997" lon="-8.979814">
        <ele>68.830</ele>
        <time>2018-12-27T13:38:39Z</time>
      </trkpt>
      <trkpt lat="37.027970" lon="-8.979698">
        <ele>68.867</ele>
        <time>2018-12-27T13:38:50Z</time>
      </trkpt>
      <trkpt lat="37.027939" lon="-8.979576">
        <ele>68.891</ele>
        <time>2018-12-27T13:38:58Z</time>
      </trkpt>
      <trkpt lat="37.027887" lon="-8.979255">
        <ele>68.823</ele>
        <time>2018-12-27T13:39:16Z</time>
      </trkpt>
      <trkpt lat="37.027867" lon="-8.979115">
        <ele>69.338</ele>
        <time>2018-12-27T13:39:24Z</time>
      </trkpt>
      <trkpt lat="37.027846" lon="-8.979010">
        <ele>68.899</ele>
        <time>2018-12-27T13:39:31Z</time>
      </trkpt>
      <trkpt lat="37.027810" lon="-8.978809">
        <ele>69.367</ele>
        <time>2018-12-27T13:39:44Z</time>
      </trkpt>
      <trkpt lat="37.027801" lon="-8.978700">
        <ele>69.344</ele>
        <time>2018-12-27T13:39:51Z</time>
      </trkpt>
      <trkpt lat="37.027763" lon="-8.978605">
        <ele>68.805</ele>
        <time>2018-12-27T13:39:58Z</time>
      </trkpt>
      <trkpt lat="37.027743" lon="-8.978493">
        <ele>68.315</ele>
        <time>2018-12-27T13:40:05Z</time>
      </trkpt>
      <trkpt lat="37.027699" lon="-8.978289">
        <ele>68.308</ele>
        <time>2018-12-27T13:40:19Z</time>
      </trkpt>
      <trkpt lat="37.027703" lon="-8.978225">
        <ele>68.397</ele>
        <time>2018-12-27T13:40:23Z</time>
      </trkpt>
      <trkpt lat="37.027676" lon="-8.978092">
        <ele>68.365</ele>
        <time>2018-12-27T13:40:33Z</time>
      </trkpt>
      <trkpt lat="37.027581" lon="-8.978073">
        <ele>67.982</ele>
        <time>2018-12-27T13:40:48Z</time>
      </trkpt>
      <trkpt lat="37.027581" lon="-8.978073">
        <ele>67.996</ele>
        <time>2018-12-27T13:40:59Z</time>
      </trkpt>
      <trkpt lat="37.027612" lon="-8.977997">
        <ele>67.478</ele>
        <time>2018-12-27T13:41:04Z</time>
      </trkpt>
      <trkpt lat="37.027598" lon="-8.977720">
        <ele>66.483</ele>
        <time>2018-12-27T13:41:19Z</time>
      </trkpt>
      <trkpt lat="37.027573" lon="-8.977450">
        <ele>65.574</ele>
        <time>2018-12-27T13:41:33Z</time>
      </trkpt>
      <trkpt lat="37.027548" lon="-8.977327">
        <ele>65.052</ele>
        <time>2018-12-27T13:41:39Z</time>
      </trkpt>
      <trkpt lat="37.027522" lon="-8.977237">
        <ele>65.084</ele>
        <time>2018-12-27T13:41:44Z</time>
      </trkpt>
      <trkpt lat="37.027497" lon="-8.977058">
        <ele>64.507</ele>
        <time>2018-12-27T13:41:54Z</time>
      </trkpt>
      <trkpt lat="37.027492" lon="-8.977024">
        <ele>64.517</ele>
        <time>2018-12-27T13:41:56Z</time>
      </trkpt>
      <trkpt lat="37.027475" lon="-8.976899">
        <ele>64.008</ele>
        <time>2018-12-27T13:42:07Z</time>
      </trkpt>
      <trkpt lat="37.027483" lon="-8.976881">
        <ele>63.571</ele>
        <time>2018-12-27T13:42:20Z</time>
      </trkpt>
      <trkpt lat="37.027466" lon="-8.976902">
        <ele>63.569</ele>
        <time>2018-12-27T13:42:36Z</time>
      </trkpt>
      <trkpt lat="37.027466" lon="-8.976902">
        <ele>63.586</ele>
        <time>2018-12-27T13:42:38Z</time>
      </trkpt>
      <trkpt lat="37.027424" lon="-8.976898">
        <ele>63.530</ele>
        <time>2018-12-27T13:42:43Z</time>
      </trkpt>
      <trkpt lat="37.027376" lon="-8.976854">
        <ele>63.592</ele>
        <time>2018-12-27T13:42:48Z</time>
      </trkpt>
      <trkpt lat="37.027366" lon="-8.976709">
        <ele>63.557</ele>
        <time>2018-12-27T13:42:59Z</time>
      </trkpt>
      <trkpt lat="37.027363" lon="-8.976688">
        <ele>63.578</ele>
        <time>2018-12-27T13:43:01Z</time>
      </trkpt>
      <trkpt lat="37.027364" lon="-8.976660">
        <ele>63.556</ele>
        <time>2018-12-27T13:43:08Z</time>
      </trkpt>
      <trkpt lat="37.027366" lon="-8.976621">
        <ele>64.088</ele>
        <time>2018-12-27T13:43:12Z</time>
      </trkpt>
      <trkpt lat="37.027387" lon="-8.976443">
        <ele>63.524</ele>
        <time>2018-12-27T13:43:24Z</time>
      </trkpt>
      <trkpt lat="37.027387" lon="-8.976425">
        <ele>63.126</ele>
        <time>2018-12-27T13:43:25Z</time>
      </trkpt>
      <trkpt lat="37.027361" lon="-8.976195">
        <ele>63.108</ele>
        <time>2018-12-27T13:43:41Z</time>
      </trkpt>
      <trkpt lat="37.027338" lon="-8.976115">
        <ele>62.631</ele>
        <time>2018-12-27T13:43:46Z</time>
      </trkpt>
      <trkpt lat="37.027329" lon="-8.976041">
        <ele>62.639</ele>
        <time>2018-12-27T13:43:51Z</time>
      </trkpt>
      <trkpt lat="37.027335" lon="-8.975971">
        <ele>62.656</ele>
        <time>2018-12-27T13:43:55Z</time>
      </trkpt>
      <trkpt lat="37.027326" lon="-8.975892">
        <ele>62.180</ele>
        <time>2018-12-27T13:44:00Z</time>
      </trkpt>
      <trkpt lat="37.027313" lon="-8.975780">
        <ele>61.682</ele>
        <time>2018-12-27T13:44:07Z</time>
      </trkpt>
      <trkpt lat="37.027312" lon="-8.975601">
        <ele>61.177</ele>
        <time>2018-12-27T13:44:18Z</time>
      </trkpt>
      <trkpt lat="37.027294" lon="-8.975409">
        <ele>60.768</ele>
        <time>2018-12-27T13:44:30Z</time>
      </trkpt>
      <trkpt lat="37.027281" lon="-8.975304">
        <ele>60.276</ele>
        <time>2018-12-27T13:44:37Z</time>
      </trkpt>
      <trkpt lat="37.027289" lon="-8.975253">
        <ele>60.757</ele>
        <time>2018-12-27T13:44:40Z</time>
      </trkpt>
      <trkpt lat="37.027291" lon="-8.975138">
        <ele>60.700</ele>
        <time>2018-12-27T13:44:47Z</time>
      </trkpt>
      <trkpt lat="37.027299" lon="-8.975032">
        <ele>60.220</ele>
        <time>2018-12-27T13:44:54Z</time>
      </trkpt>
      <trkpt lat="37.027313" lon="-8.974865">
        <ele>60.208</ele>
        <time>2018-12-27T13:45:04Z</time>
      </trkpt>
      <trkpt lat="37.027318" lon="-8.974757">
        <ele>60.758</ele>
        <time>2018-12-27T13:45:11Z</time>
      </trkpt>
      <trkpt lat="37.027348" lon="-8.974534">
        <ele>60.286</ele>
        <time>2018-12-27T13:45:25Z</time>
      </trkpt>
      <trkpt lat="37.027347" lon="-8.974504">
        <ele>60.223</ele>
        <time>2018-12-27T13:45:27Z</time>
      </trkpt>
      <trkpt lat="37.027357" lon="-8.974420">
        <ele>60.277</ele>
        <time>2018-12-27T13:45:32Z</time>
      </trkpt>
      <trkpt lat="37.027358" lon="-8.974370">
        <ele>59.749</ele>
        <time>2018-12-27T13:45:35Z</time>
      </trkpt>
      <trkpt lat="37.027379" lon="-8.974167">
        <ele>59.774</ele>
        <time>2018-12-27T13:45:50Z</time>
      </trkpt>
      <trkpt lat="37.027375" lon="-8.974156">
        <ele>59.765</ele>
        <time>2018-12-27T13:46:08Z</time>
      </trkpt>
      <trkpt lat="37.027382" lon="-8.974094">
        <ele>59.763</ele>
        <time>2018-12-27T13:46:21Z</time>
      </trkpt>
      <trkpt lat="37.027379" lon="-8.974057">
        <ele>59.237</ele>
        <time>2018-12-27T13:46:29Z</time>
      </trkpt>
      <trkpt lat="37.027373" lon="-8.973973">
        <ele>59.749</ele>
        <time>2018-12-27T13:46:35Z</time>
      </trkpt>
      <trkpt lat="37.027408" lon="-8.973739">
        <ele>59.213</ele>
        <time>2018-12-27T13:46:51Z</time>
      </trkpt>
      <trkpt lat="37.027406" lon="-8.973694">
        <ele>59.208</ele>
        <time>2018-12-27T13:46:54Z</time>
      </trkpt>
      <trkpt lat="37.027409" lon="-8.973620">
        <ele>58.726</ele>
        <time>2018-12-27T13:46:59Z</time>
      </trkpt>
      <trkpt lat="37.027428" lon="-8.973391">
        <ele>58.334</ele>
        <time>2018-12-27T13:47:14Z</time>
      </trkpt>
      <trkpt lat="37.027428" lon="-8.973377">
        <ele>58.331</ele>
        <time>2018-12-27T13:47:15Z</time>
      </trkpt>
      <trkpt lat="37.027444" lon="-8.973187">
        <ele>58.395</ele>
        <time>2018-12-27T13:47:27Z</time>
      </trkpt>
      <trkpt lat="37.027452" lon="-8.973145">
        <ele>57.837</ele>
        <time>2018-12-27T13:47:30Z</time>
      </trkpt>
      <trkpt lat="37.027446" lon="-8.973081">
        <ele>57.892</ele>
        <time>2018-12-27T13:47:34Z</time>
      </trkpt>
      <trkpt lat="37.027466" lon="-8.972894">
        <ele>57.383</ele>
        <time>2018-12-27T13:47:46Z</time>
      </trkpt>
      <trkpt lat="37.027483" lon="-8.972679">
        <ele>57.331</ele>
        <time>2018-12-27T13:48:00Z</time>
      </trkpt>
      <trkpt lat="37.027479" lon="-8.972648">
        <ele>56.862</ele>
        <time>2018-12-27T13:48:02Z</time>
      </trkpt>
      <trkpt lat="37.027494" lon="-8.972537">
        <ele>56.883</ele>
        <time>2018-12-27T13:48:09Z</time>
      </trkpt>
      <trkpt lat="37.027502" lon="-8.972504">
        <ele>56.811</ele>
        <time>2018-12-27T13:48:11Z</time>
      </trkpt>
      <trkpt lat="37.027503" lon="-8.972336">
        <ele>56.808</ele>
        <time>2018-12-27T13:48:22Z</time>
      </trkpt>
      <trkpt lat="37.027505" lon="-8.972207">
        <ele>56.379</ele>
        <time>2018-12-27T13:48:30Z</time>
      </trkpt>
      <trkpt lat="37.027532" lon="-8.971955">
        <ele>55.837</ele>
        <time>2018-12-27T13:48:46Z</time>
      </trkpt>
      <trkpt lat="37.027554" lon="-8.971816">
        <ele>55.824</ele>
        <time>2018-12-27T13:48:55Z</time>
      </trkpt>
      <trkpt lat="37.027552" lon="-8.971751">
        <ele>55.888</ele>
        <time>2018-12-27T13:48:59Z</time>
      </trkpt>
      <trkpt lat="37.027566" lon="-8.971564">
        <ele>55.840</ele>
        <time>2018-12-27T13:49:11Z</time>
      </trkpt>
      <trkpt lat="37.027710" lon="-8.971494">
        <ele>55.875</ele>
        <time>2018-12-27T13:49:26Z</time>
      </trkpt>
      <trkpt lat="37.027719" lon="-8.971496">
        <ele>55.496</ele>
        <time>2018-12-27T13:49:27Z</time>
      </trkpt>
      <trkpt lat="37.027741" lon="-8.971494">
        <ele>55.854</ele>
        <time>2018-12-27T13:49:31Z</time>
      </trkpt>
      <trkpt lat="37.027721" lon="-8.971459">
        <ele>55.866</ele>
        <time>2018-12-27T13:49:47Z</time>
      </trkpt>
      <trkpt lat="37.027721" lon="-8.971459">
        <ele>55.429</ele>
        <time>2018-12-27T13:49:50Z</time>
      </trkpt>
      <trkpt lat="37.027902" lon="-8.971511">
        <ele>56.321</ele>
        <time>2018-12-27T13:50:04Z</time>
      </trkpt>
      <trkpt lat="37.028106" lon="-8.971552">
        <ele>56.308</ele>
        <time>2018-12-27T13:50:19Z</time>
      </trkpt>
      <trkpt lat="37.028334" lon="-8.971542">
        <ele>56.379</ele>
        <time>2018-12-27T13:50:34Z</time>
      </trkpt>
      <trkpt lat="37.028395" lon="-8.971532">
        <ele>56.847</ele>
        <time>2018-12-27T13:50:42Z</time>
      </trkpt>
      <trkpt lat="37.028413" lon="-8.971547">
        <ele>56.864</ele>
        <time>2018-12-27T13:50:45Z</time>
      </trkpt>
      <trkpt lat="37.028591" lon="-8.971492">
        <ele>56.818</ele>
        <time>2018-12-27T13:50:57Z</time>
      </trkpt>
      <trkpt lat="37.028734" lon="-8.971451">
        <ele>56.820</ele>
        <time>2018-12-27T13:51:08Z</time>
      </trkpt>
      <trkpt lat="37.028756" lon="-8.971437">
        <ele>56.345</ele>
        <time>2018-12-27T13:51:12Z</time>
      </trkpt>
      <trkpt lat="37.028829" lon="-8.971320">
        <ele>56.816</ele>
        <time>2018-12-27T13:51:21Z</time>
      </trkpt>
      <trkpt lat="37.028897" lon="-8.971208">
        <ele>57.394</ele>
        <time>2018-12-27T13:51:31Z</time>
      </trkpt>
      <trkpt lat="37.028931" lon="-8.971173">
        <ele>57.379</ele>
        <time>2018-12-27T13:51:35Z</time>
      </trkpt>
      <trkpt lat="37.028994" lon="-8.970995">
        <ele>56.805</ele>
        <time>2018-12-27T13:51:45Z</time>
      </trkpt>
      <trkpt lat="37.029045" lon="-8.970837">
        <ele>56.825</ele>
        <time>2018-12-27T13:51:57Z</time>
      </trkpt>
      <trkpt lat="37.029049" lon="-8.970800">
        <ele>57.308</ele>
        <time>2018-12-27T13:52:00Z</time>
      </trkpt>
      <trkpt lat="37.029068" lon="-8.970751">
        <ele>57.380</ele>
        <time>2018-12-27T13:52:07Z</time>
      </trkpt>
      <trkpt lat="37.029095" lon="-8.970671">
        <ele>57.388</ele>
        <time>2018-12-27T13:52:12Z</time>
      </trkpt>
      <trkpt lat="37.029190" lon="-8.970448">
        <ele>57.825</ele>
        <time>2018-12-27T13:52:27Z</time>
      </trkpt>
      <trkpt lat="37.029262" lon="-8.970233">
        <ele>57.849</ele>
        <time>2018-12-27T13:52:41Z</time>
      </trkpt>
      <trkpt lat="37.029276" lon="-8.970210">
        <ele>57.341</ele>
        <time>2018-12-27T13:52:43Z</time>
      </trkpt>
      <trkpt lat="37.029302" lon="-8.970121">
        <ele>57.896</ele>
        <time>2018-12-27T13:52:49Z</time>
      </trkpt>
      <trkpt lat="37.029348" lon="-8.970026">
        <ele>58.397</ele>
        <time>2018-12-27T13:52:56Z</time>
      </trkpt>
      <trkpt lat="37.029413" lon="-8.969791">
        <ele>58.325</ele>
        <time>2018-12-27T13:53:12Z</time>
      </trkpt>
      <trkpt lat="37.029480" lon="-8.969615">
        <ele>58.769</ele>
        <time>2018-12-27T13:53:24Z</time>
      </trkpt>
      <trkpt lat="37.029499" lon="-8.969538">
        <ele>58.704</ele>
        <time>2018-12-27T13:53:29Z</time>
      </trkpt>
      <trkpt lat="37.029587" lon="-8.969329">
        <ele>59.224</ele>
        <time>2018-12-27T13:53:44Z</time>
      </trkpt>
      <trkpt lat="37.029677" lon="-8.969135">
        <ele>59.208</ele>
        <time>2018-12-27T13:53:58Z</time>
      </trkpt>
      <trkpt lat="37.029781" lon="-8.969007">
        <ele>59.289</ele>
        <time>2018-12-27T13:54:08Z</time>
      </trkpt>
      <trkpt lat="37.029884" lon="-8.968878">
        <ele>58.757</ele>
        <time>2018-12-27T13:54:20Z</time>
      </trkpt>
      <trkpt lat="37.029913" lon="-8.968849">
        <ele>59.764</ele>
        <time>2018-12-27T13:54:23Z</time>
      </trkpt>
      <trkpt lat="37.030068" lon="-8.968698">
        <ele>59.738</ele>
        <time>2018-12-27T13:54:38Z</time>
      </trkpt>
      <trkpt lat="37.030181" lon="-8.968596">
        <ele>59.270</ele>
        <time>2018-12-27T13:54:48Z</time>
      </trkpt>
      <trkpt lat="37.030325" lon="-8.968539">
        <ele>59.725</ele>
        <time>2018-12-27T13:55:01Z</time>
      </trkpt>
      <trkpt lat="37.030484" lon="-8.968485">
        <ele>60.286</ele>
        <time>2018-12-27T13:55:16Z</time>
      </trkpt>
      <trkpt lat="37.030670" lon="-8.968419">
        <ele>60.294</ele>
        <time>2018-12-27T13:55:32Z</time>
      </trkpt>
      <trkpt lat="37.030848" lon="-8.968392">
        <ele>59.739</ele>
        <time>2018-12-27T13:55:46Z</time>
      </trkpt>
      <trkpt lat="37.031044" lon="-8.968370">
        <ele>59.201</ele>
        <time>2018-12-27T13:56:01Z</time>
      </trkpt>
      <trkpt lat="37.031238" lon="-8.968358">
        <ele>58.721</ele>
        <time>2018-12-27T13:56:16Z</time>
      </trkpt>
      <trkpt lat="37.031434" lon="-8.968339">
        <ele>58.708</ele>
        <time>2018-12-27T13:56:32Z</time>
      </trkpt>
      <trkpt lat="37.031620" lon="-8.968323">
        <ele>58.326</ele>
        <time>2018-12-27T13:56:47Z</time>
      </trkpt>
      <trkpt lat="37.031835" lon="-8.968301">
        <ele>58.334</ele>
        <time>2018-12-27T13:57:04Z</time>
      </trkpt>
      <trkpt lat="37.032049" lon="-8.968293">
        <ele>57.881</ele>
        <time>2018-12-27T13:57:21Z</time>
      </trkpt>
      <trkpt lat="37.032232" lon="-8.968277">
        <ele>57.375</ele>
        <time>2018-12-27T13:57:36Z</time>
      </trkpt>
      <trkpt lat="37.032409" lon="-8.968265">
        <ele>57.357</ele>
        <time>2018-12-27T13:57:49Z</time>
      </trkpt>
      <trkpt lat="37.032552" lon="-8.968244">
        <ele>57.822</ele>
        <time>2018-12-27T13:58:04Z</time>
      </trkpt>
      <trkpt lat="37.032552" lon="-8.968244">
        <ele>57.353</ele>
        <time>2018-12-27T13:58:18Z</time>
      </trkpt>
      <trkpt lat="37.032645" lon="-8.968249">
        <ele>57.311</ele>
        <time>2018-12-27T13:58:33Z</time>
      </trkpt>
      <trkpt lat="37.032646" lon="-8.968255">
        <ele>56.878</ele>
        <time>2018-12-27T13:58:40Z</time>
      </trkpt>
      <trkpt lat="37.032685" lon="-8.968239">
        <ele>57.833</ele>
        <time>2018-12-27T13:58:48Z</time>
      </trkpt>
      <trkpt lat="37.032730" lon="-8.968234">
        <ele>57.326</ele>
        <time>2018-12-27T13:58:52Z</time>
      </trkpt>
      <trkpt lat="37.033019" lon="-8.968195">
        <ele>57.808</ele>
        <time>2018-12-27T13:59:11Z</time>
      </trkpt>
      <trkpt lat="37.033217" lon="-8.968179">
        <ele>58.370</ele>
        <time>2018-12-27T13:59:26Z</time>
      </trkpt>
      <trkpt lat="37.033471" lon="-8.968167">
        <ele>58.398</ele>
        <time>2018-12-27T13:59:44Z</time>
      </trkpt>
      <trkpt lat="37.033815" lon="-8.968147">
        <ele>57.895</ele>
        <time>2018-12-27T14:00:08Z</time>
      </trkpt>
      <trkpt lat="37.034079" lon="-8.968111">
        <ele>58.719</ele>
        <time>2018-12-27T14:00:28Z</time>
      </trkpt>
      <trkpt lat="37.034369" lon="-8.968090">
        <ele>58.371</ele>
        <time>2018-12-27T14:00:49Z</time>
      </trkpt>
      <trkpt lat="37.034632" lon="-8.968073">
        <ele>58.786</ele>
        <time>2018-12-27T14:01:09Z</time>
      </trkpt>
      <trkpt lat="37.034982" lon="-8.968045">
        <ele>58.717</ele>
        <time>2018-12-27T14:01:35Z</time>
      </trkpt>
      <trkpt lat="37.035247" lon="-8.968015">
        <ele>59.715</ele>
        <time>2018-12-27T14:01:57Z</time>
      </trkpt>
      <trkpt lat="37.035459" lon="-8.968000">
        <ele>59.756</ele>
        <time>2018-12-27T14:02:13Z</time>
      </trkpt>
      <trkpt lat="37.035567" lon="-8.967991">
        <ele>60.259</ele>
        <time>2018-12-27T14:02:21Z</time>
      </trkpt>
      <trkpt lat="37.035770" lon="-8.967971">
        <ele>60.214</ele>
        <time>2018-12-27T14:02:36Z</time>
      </trkpt>
      <trkpt lat="37.035844" lon="-8.967969">
        <ele>60.208</ele>
        <time>2018-12-27T14:02:42Z</time>
      </trkpt>
      <trkpt lat="37.036051" lon="-8.967945">
        <ele>60.248</ele>
        <time>2018-12-27T14:02:59Z</time>
      </trkpt>
      <trkpt lat="37.036221" lon="-8.967935">
        <ele>60.726</ele>
        <time>2018-12-27T14:03:13Z</time>
      </trkpt>
      <trkpt lat="37.036395" lon="-8.967933">
        <ele>60.733</ele>
        <time>2018-12-27T14:03:28Z</time>
      </trkpt>
      <trkpt lat="37.036450" lon="-8.967929">
        <ele>60.717</ele>
        <time>2018-12-27T14:03:36Z</time>
      </trkpt>
      <trkpt lat="37.036559" lon="-8.967919">
        <ele>60.719</ele>
        <time>2018-12-27T14:03:45Z</time>
      </trkpt>
      <trkpt lat="37.036584" lon="-8.967925">
        <ele>61.194</ele>
        <time>2018-12-27T14:03:47Z</time>
      </trkpt>
      <trkpt lat="37.036781" lon="-8.967900">
        <ele>61.165</ele>
        <time>2018-12-27T14:04:03Z</time>
      </trkpt>
      <trkpt lat="37.036992" lon="-8.967877">
        <ele>60.763</ele>
        <time>2018-12-27T14:04:20Z</time>
      </trkpt>
      <trkpt lat="37.037188" lon="-8.967852">
        <ele>61.671</ele>
        <time>2018-12-27T14:04:35Z</time>
      </trkpt>
      <trkpt lat="37.037267" lon="-8.967859">
        <ele>61.641</ele>
        <time>2018-12-27T14:04:41Z</time>
      </trkpt>
      <trkpt lat="37.037347" lon="-8.967832">
        <ele>61.115</ele>
        <time>2018-12-27T14:04:48Z</time>
      </trkpt>
      <trkpt lat="37.037546" lon="-8.967828">
        <ele>62.108</ele>
        <time>2018-12-27T14:05:04Z</time>
      </trkpt>
      <trkpt lat="37.037724" lon="-8.967820">
        <ele>62.680</ele>
        <time>2018-12-27T14:05:18Z</time>
      </trkpt>
      <trkpt lat="37.037736" lon="-8.967820">
        <ele>62.668</ele>
        <time>2018-12-27T14:05:19Z</time>
      </trkpt>
      <trkpt lat="37.037799" lon="-8.967813">
        <ele>62.135</ele>
        <time>2018-12-27T14:05:24Z</time>
      </trkpt>
      <trkpt lat="37.037891" lon="-8.967805">
        <ele>62.679</ele>
        <time>2018-12-27T14:05:35Z</time>
      </trkpt>
      <trkpt lat="37.038086" lon="-8.967783">
        <ele>63.151</ele>
        <time>2018-12-27T14:05:50Z</time>
      </trkpt>
      <trkpt lat="37.038282" lon="-8.967775">
        <ele>63.116</ele>
        <time>2018-12-27T14:06:05Z</time>
      </trkpt>
      <trkpt lat="37.038440" lon="-8.967759">
        <ele>63.157</ele>
        <time>2018-12-27T14:06:18Z</time>
      </trkpt>
      <trkpt lat="37.038579" lon="-8.967748">
        <ele>63.535</ele>
        <time>2018-12-27T14:06:29Z</time>
      </trkpt>
      <trkpt lat="37.038801" lon="-8.967725">
        <ele>63.196</ele>
        <time>2018-12-27T14:06:47Z</time>
      </trkpt>
      <trkpt lat="37.039003" lon="-8.967718">
        <ele>63.531</ele>
        <time>2018-12-27T14:07:03Z</time>
      </trkpt>
      <trkpt lat="37.039203" lon="-8.967699">
        <ele>63.524</ele>
        <time>2018-12-27T14:07:19Z</time>
      </trkpt>
      <trkpt lat="37.039380" lon="-8.967676">
        <ele>64.008</ele>
        <time>2018-12-27T14:07:34Z</time>
      </trkpt>
      <trkpt lat="37.039388" lon="-8.967674">
        <ele>64.092</ele>
        <time>2018-12-27T14:07:35Z</time>
      </trkpt>
      <trkpt lat="37.039439" lon="-8.967677">
        <ele>64.510</ele>
        <time>2018-12-27T14:07:39Z</time>
      </trkpt>
      <trkpt lat="37.039631" lon="-8.967657">
        <ele>64.527</ele>
        <time>2018-12-27T14:07:55Z</time>
      </trkpt>
      <trkpt lat="37.039781" lon="-8.967657">
        <ele>64.591</ele>
        <time>2018-12-27T14:08:07Z</time>
      </trkpt>
      <trkpt lat="37.040003" lon="-8.967634">
        <ele>65.573</ele>
        <time>2018-12-27T14:08:24Z</time>
      </trkpt>
      <trkpt lat="37.040199" lon="-8.967617">
        <ele>65.578</ele>
        <time>2018-12-27T14:08:39Z</time>
      </trkpt>
      <trkpt lat="37.040403" lon="-8.967602">
        <ele>65.519</ele>
        <time>2018-12-27T14:08:55Z</time>
      </trkpt>
      <trkpt lat="37.040586" lon="-8.967584">
        <ele>65.557</ele>
        <time>2018-12-27T14:09:09Z</time>
      </trkpt>
      <trkpt lat="37.040599" lon="-8.967586">
        <ele>65.553</ele>
        <time>2018-12-27T14:09:10Z</time>
      </trkpt>
      <trkpt lat="37.040729" lon="-8.967573">
        <ele>65.904</ele>
        <time>2018-12-27T14:09:21Z</time>
      </trkpt>
      <trkpt lat="37.040929" lon="-8.967556">
        <ele>66.914</ele>
        <time>2018-12-27T14:09:37Z</time>
      </trkpt>
      <trkpt lat="37.041101" lon="-8.967547">
        <ele>66.908</ele>
        <time>2018-12-27T14:09:51Z</time>
      </trkpt>
      <trkpt lat="37.041166" lon="-8.967550">
        <ele>66.998</ele>
        <time>2018-12-27T14:09:56Z</time>
      </trkpt>
      <trkpt lat="37.041364" lon="-8.967544">
        <ele>67.446</ele>
        <time>2018-12-27T14:10:11Z</time>
      </trkpt>
      <trkpt lat="37.041543" lon="-8.967523">
        <ele>67.983</ele>
        <time>2018-12-27T14:10:26Z</time>
      </trkpt>
      <trkpt lat="37.041796" lon="-8.967504">
        <ele>67.947</ele>
        <time>2018-12-27T14:10:45Z</time>
      </trkpt>
      <trkpt lat="37.042000" lon="-8.967487">
        <ele>68.399</ele>
        <time>2018-12-27T14:11:01Z</time>
      </trkpt>
      <trkpt lat="37.042174" lon="-8.967470">
        <ele>69.314</ele>
        <time>2018-12-27T14:11:15Z</time>
      </trkpt>
      <trkpt lat="37.042362" lon="-8.967454">
        <ele>69.365</ele>
        <time>2018-12-27T14:11:30Z</time>
      </trkpt>
      <trkpt lat="37.042421" lon="-8.967455">
        <ele>69.853</ele>
        <time>2018-12-27T14:11:36Z</time>
      </trkpt>
      <trkpt lat="37.042473" lon="-8.967442">
        <ele>69.868</ele>
        <time>2018-12-27T14:11:40Z</time>
      </trkpt>
      <trkpt lat="37.042679" lon="-8.967419">
        <ele>70.342</ele>
        <time>2018-12-27T14:11:56Z</time>
      </trkpt>
      <trkpt lat="37.042839" lon="-8.967399">
        <ele>70.726</ele>
        <time>2018-12-27T14:12:10Z</time>
      </trkpt>
      <trkpt lat="37.043033" lon="-8.967388">
        <ele>71.208</ele>
        <time>2018-12-27T14:12:25Z</time>
      </trkpt>
      <trkpt lat="37.043244" lon="-8.967366">
        <ele>71.239</ele>
        <time>2018-12-27T14:12:41Z</time>
      </trkpt>
      <trkpt lat="37.043429" lon="-8.967345">
        <ele>71.757</ele>
        <time>2018-12-27T14:12:56Z</time>
      </trkpt>
      <trkpt lat="37.043498" lon="-8.967352">
        <ele>72.234</ele>
        <time>2018-12-27T14:13:02Z</time>
      </trkpt>
      <trkpt lat="37.043599" lon="-8.967335">
        <ele>72.748</ele>
        <time>2018-12-27T14:13:11Z</time>
      </trkpt>
      <trkpt lat="37.043787" lon="-8.967325">
        <ele>72.790</ele>
        <time>2018-12-27T14:13:26Z</time>
      </trkpt>
      <trkpt lat="37.043892" lon="-8.967304">
        <ele>73.685</ele>
        <time>2018-12-27T14:13:34Z</time>
      </trkpt>
      <trkpt lat="37.044028" lon="-8.967295">
        <ele>73.646</ele>
        <time>2018-12-27T14:13:45Z</time>
      </trkpt>
      <trkpt lat="37.044195" lon="-8.967279">
        <ele>74.154</ele>
        <time>2018-12-27T14:13:58Z</time>
      </trkpt>
      <trkpt lat="37.044384" lon="-8.967267">
        <ele>74.188</ele>
        <time>2018-12-27T14:14:14Z</time>
      </trkpt>
      <trkpt lat="37.044572" lon="-8.967250">
        <ele>75.124</ele>
        <time>2018-12-27T14:14:30Z</time>
      </trkpt>
      <trkpt lat="37.044724" lon="-8.967234">
        <ele>75.126</ele>
        <time>2018-12-27T14:14:42Z</time>
      </trkpt>
      <trkpt lat="37.044828" lon="-8.967247">
        <ele>75.608</ele>
        <time>2018-12-27T14:14:52Z</time>
      </trkpt>
      <trkpt lat="37.044853" lon="-8.967231">
        <ele>75.621</ele>
        <time>2018-12-27T14:14:54Z</time>
      </trkpt>
      <trkpt lat="37.044922" lon="-8.967229">
        <ele>75.689</ele>
        <time>2018-12-27T14:14:59Z</time>
      </trkpt>
      <trkpt lat="37.045139" lon="-8.967205">
        <ele>75.636</ele>
        <time>2018-12-27T14:15:15Z</time>
      </trkpt>
      <trkpt lat="37.045329" lon="-8.967183">
        <ele>76.080</ele>
        <time>2018-12-27T14:15:30Z</time>
      </trkpt>
      <trkpt lat="37.045352" lon="-8.967184">
        <ele>75.622</ele>
        <time>2018-12-27T14:15:32Z</time>
      </trkpt>
      <trkpt lat="37.045375" lon="-8.967191">
        <ele>75.647</ele>
        <time>2018-12-27T14:15:34Z</time>
      </trkpt>
      <trkpt lat="37.045485" lon="-8.967180">
        <ele>75.618</ele>
        <time>2018-12-27T14:15:48Z</time>
      </trkpt>
      <trkpt lat="37.045491" lon="-8.967178">
        <ele>75.616</ele>
        <time>2018-12-27T14:15:55Z</time>
      </trkpt>
      <trkpt lat="37.045521" lon="-8.967174">
        <ele>75.653</ele>
        <time>2018-12-27T14:15:58Z</time>
      </trkpt>
      <trkpt lat="37.045663" lon="-8.967159">
        <ele>75.104</ele>
        <time>2018-12-27T14:16:12Z</time>
      </trkpt>
      <trkpt lat="37.045727" lon="-8.967162">
        <ele>75.114</ele>
        <time>2018-12-27T14:16:21Z</time>
      </trkpt>
      <trkpt lat="37.045764" lon="-8.967159">
        <ele>75.108</ele>
        <time>2018-12-27T14:16:25Z</time>
      </trkpt>
      <trkpt lat="37.045964" lon="-8.967143">
        <ele>74.678</ele>
        <time>2018-12-27T14:16:41Z</time>
      </trkpt>
      <trkpt lat="37.046156" lon="-8.967126">
        <ele>74.196</ele>
        <time>2018-12-27T14:16:56Z</time>
      </trkpt>
      <trkpt lat="37.046371" lon="-8.967108">
        <ele>74.153</ele>
        <time>2018-12-27T14:17:13Z</time>
      </trkpt>
      <trkpt lat="37.046487" lon="-8.967088">
        <ele>73.627</ele>
        <time>2018-12-27T14:17:23Z</time>
      </trkpt>
      <trkpt lat="37.046557" lon="-8.967085">
        <ele>74.159</ele>
        <time>2018-12-27T14:17:29Z</time>
      </trkpt>
      <trkpt lat="37.046742" lon="-8.967073">
        <ele>74.114</ele>
        <time>2018-12-27T14:17:44Z</time>
      </trkpt>
      <trkpt lat="37.046924" lon="-8.967065">
        <ele>74.655</ele>
        <time>2018-12-27T14:17:58Z</time>
      </trkpt>
      <trkpt lat="37.047067" lon="-8.967051">
        <ele>74.693</ele>
        <time>2018-12-27T14:18:10Z</time>
      </trkpt>
      <trkpt lat="37.047281" lon="-8.967036">
        <ele>75.166</ele>
        <time>2018-12-27T14:18:27Z</time>
      </trkpt>
      <trkpt lat="37.047479" lon="-8.967016">
        <ele>76.029</ele>
        <time>2018-12-27T14:18:43Z</time>
      </trkpt>
      <trkpt lat="37.047575" lon="-8.967009">
        <ele>76.021</ele>
        <time>2018-12-27T14:18:51Z</time>
      </trkpt>
      <trkpt lat="37.047769" lon="-8.967015">
        <ele>77.008</ele>
        <time>2018-12-27T14:19:07Z</time>
      </trkpt>
      <trkpt lat="37.047983" lon="-8.966994">
        <ele>77.519</ele>
        <time>2018-12-27T14:19:24Z</time>
      </trkpt>
      <trkpt lat="37.048054" lon="-8.966983">
        <ele>78.077</ele>
        <time>2018-12-27T14:19:37Z</time>
      </trkpt>
      <trkpt lat="37.048058" lon="-8.966980">
        <ele>78.084</ele>
        <time>2018-12-27T14:19:40Z</time>
      </trkpt>
      <trkpt lat="37.048095" lon="-8.966971">
        <ele>78.018</ele>
        <time>2018-12-27T14:19:53Z</time>
      </trkpt>
      <trkpt lat="37.048101" lon="-8.966971">
        <ele>78.050</ele>
        <time>2018-12-27T14:19:56Z</time>
      </trkpt>
      <trkpt lat="37.048135" lon="-8.966978">
        <ele>77.585</ele>
        <time>2018-12-27T14:19:59Z</time>
      </trkpt>
      <trkpt lat="37.048189" lon="-8.966983">
        <ele>78.076</ele>
        <time>2018-12-27T14:20:04Z</time>
      </trkpt>
      <trkpt lat="37.048285" lon="-8.966973">
        <ele>78.464</ele>
        <time>2018-12-27T14:20:12Z</time>
      </trkpt>
      <trkpt lat="37.048450" lon="-8.966915">
        <ele>78.948</ele>
        <time>2018-12-27T14:20:26Z</time>
      </trkpt>
      <trkpt lat="37.048471" lon="-8.966917">
        <ele>78.961</ele>
        <time>2018-12-27T14:20:28Z</time>
      </trkpt>
      <trkpt lat="37.048664" lon="-8.966862">
        <ele>79.417</ele>
        <time>2018-12-27T14:20:44Z</time>
      </trkpt>
      <trkpt lat="37.048707" lon="-8.966840">
        <ele>79.408</ele>
        <time>2018-12-27T14:20:48Z</time>
      </trkpt>
      <trkpt lat="37.048724" lon="-8.966816">
        <ele>79.957</ele>
        <time>2018-12-27T14:21:03Z</time>
      </trkpt>
      <trkpt lat="37.048724" lon="-8.966816">
        <ele>79.925</ele>
        <time>2018-12-27T14:21:19Z</time>
      </trkpt>
      <trkpt lat="37.048728" lon="-8.966821">
        <ele>79.982</ele>
        <time>2018-12-27T14:21:31Z</time>
      </trkpt>
      <trkpt lat="37.048728" lon="-8.966821">
        <ele>79.946</ele>
        <time>2018-12-27T14:21:56Z</time>
      </trkpt>
      <trkpt lat="37.048728" lon="-8.966822">
        <ele>80.478</ele>
        <time>2018-12-27T14:22:08Z</time>
      </trkpt>
      <trkpt lat="37.048770" lon="-8.966808">
        <ele>79.913</ele>
        <time>2018-12-27T14:22:24Z</time>
      </trkpt>
      <trkpt lat="37.048770" lon="-8.966808">
        <ele>79.984</ele>
        <time>2018-12-27T14:22:33Z</time>
      </trkpt>
      <trkpt lat="37.048817" lon="-8.966789">
        <ele>79.452</ele>
        <time>2018-12-27T14:22:37Z</time>
      </trkpt>
      <trkpt lat="37.048889" lon="-8.966739">
        <ele>79.932</ele>
        <time>2018-12-27T14:22:46Z</time>
      </trkpt>
      <trkpt lat="37.048902" lon="-8.966733">
        <ele>79.492</ele>
        <time>2018-12-27T14:22:48Z</time>
      </trkpt>
      <trkpt lat="37.049093" lon="-8.966554">
        <ele>78.411</ele>
        <time>2018-12-27T14:23:06Z</time>
      </trkpt>
      <trkpt lat="37.049164" lon="-8.966490">
        <ele>78.908</ele>
        <time>2018-12-27T14:23:13Z</time>
      </trkpt>
      <trkpt lat="37.049227" lon="-8.966414">
        <ele>78.416</ele>
        <time>2018-12-27T14:23:20Z</time>
      </trkpt>
      <trkpt lat="37.049226" lon="-8.966388">
        <ele>78.464</ele>
        <time>2018-12-27T14:23:26Z</time>
      </trkpt>
      <trkpt lat="37.049350" lon="-8.966202">
        <ele>77.571</ele>
        <time>2018-12-27T14:23:43Z</time>
      </trkpt>
      <trkpt lat="37.049448" lon="-8.965987">
        <ele>77.095</ele>
        <time>2018-12-27T14:23:58Z</time>
      </trkpt>
      <trkpt lat="37.049557" lon="-8.965791">
        <ele>77.037</ele>
        <time>2018-12-27T14:24:13Z</time>
      </trkpt>
      <trkpt lat="37.049624" lon="-8.965632">
        <ele>77.092</ele>
        <time>2018-12-27T14:24:24Z</time>
      </trkpt>
      <trkpt lat="37.049639" lon="-8.965579">
        <ele>77.023</ele>
        <time>2018-12-27T14:24:27Z</time>
      </trkpt>
      <trkpt lat="37.049686" lon="-8.965487">
        <ele>76.511</ele>
        <time>2018-12-27T14:24:33Z</time>
      </trkpt>
      <trkpt lat="37.049739" lon="-8.965358">
        <ele>77.046</ele>
        <time>2018-12-27T14:24:42Z</time>
      </trkpt>
      <trkpt lat="37.049805" lon="-8.965207">
        <ele>77.088</ele>
        <time>2018-12-27T14:24:53Z</time>
      </trkpt>
      <trkpt lat="37.049848" lon="-8.965076">
        <ele>77.016</ele>
        <time>2018-12-27T14:25:02Z</time>
      </trkpt>
      <trkpt lat="37.049878" lon="-8.965019">
        <ele>76.508</ele>
        <time>2018-12-27T14:25:06Z</time>
      </trkpt>
      <trkpt lat="37.049936" lon="-8.964909">
        <ele>77.077</ele>
        <time>2018-12-27T14:25:14Z</time>
      </trkpt>
      <trkpt lat="37.050025" lon="-8.964691">
        <ele>77.095</ele>
        <time>2018-12-27T14:25:30Z</time>
      </trkpt>
      <trkpt lat="37.050042" lon="-8.964663">
        <ele>77.032</ele>
        <time>2018-12-27T14:25:31Z</time>
      </trkpt>
      <trkpt lat="37.050160" lon="-8.964442">
        <ele>77.046</ele>
        <time>2018-12-27T14:25:47Z</time>
      </trkpt>
      <trkpt lat="37.050196" lon="-8.964375">
        <ele>77.588</ele>
        <time>2018-12-27T14:25:52Z</time>
      </trkpt>
      <trkpt lat="37.050219" lon="-8.964302">
        <ele>77.013</ele>
        <time>2018-12-27T14:25:57Z</time>
      </trkpt>
      <trkpt lat="37.050275" lon="-8.964171">
        <ele>77.574</ele>
        <time>2018-12-27T14:26:06Z</time>
      </trkpt>
      <trkpt lat="37.050338" lon="-8.964031">
        <ele>78.082</ele>
        <time>2018-12-27T14:26:16Z</time>
      </trkpt>
      <trkpt lat="37.050423" lon="-8.963847">
        <ele>78.043</ele>
        <time>2018-12-27T14:26:29Z</time>
      </trkpt>
      <trkpt lat="37.050476" lon="-8.963767">
        <ele>78.464</ele>
        <time>2018-12-27T14:26:35Z</time>
      </trkpt>
      <trkpt lat="37.050553" lon="-8.963561">
        <ele>78.010</ele>
        <time>2018-12-27T14:26:49Z</time>
      </trkpt>
      <trkpt lat="37.050607" lon="-8.963430">
        <ele>78.408</ele>
        <time>2018-12-27T14:26:58Z</time>
      </trkpt>
      <trkpt lat="37.050605" lon="-8.963391">
        <ele>78.417</ele>
        <time>2018-12-27T14:27:07Z</time>
      </trkpt>
      <trkpt lat="37.050701" lon="-8.963188">
        <ele>78.485</ele>
        <time>2018-12-27T14:27:21Z</time>
      </trkpt>
      <trkpt lat="37.050706" lon="-8.963173">
        <ele>78.942</ele>
        <time>2018-12-27T14:27:22Z</time>
      </trkpt>
      <trkpt lat="37.050756" lon="-8.963089">
        <ele>78.966</ele>
        <time>2018-12-27T14:27:28Z</time>
      </trkpt>
      <trkpt lat="37.050788" lon="-8.963014">
        <ele>79.448</ele>
        <time>2018-12-27T14:27:33Z</time>
      </trkpt>
      <trkpt lat="37.050846" lon="-8.962903">
        <ele>79.433</ele>
        <time>2018-12-27T14:27:41Z</time>
      </trkpt>
      <trkpt lat="37.050900" lon="-8.962784">
        <ele>79.974</ele>
        <time>2018-12-27T14:27:50Z</time>
      </trkpt>
      <trkpt lat="37.050952" lon="-8.962663">
        <ele>80.452</ele>
        <time>2018-12-27T14:28:00Z</time>
      </trkpt>
      <trkpt lat="37.051011" lon="-8.962550">
        <ele>80.452</ele>
        <time>2018-12-27T14:28:12Z</time>
      </trkpt>
      <trkpt lat="37.051069" lon="-8.962401">
        <ele>81.353</ele>
        <time>2018-12-27T14:28:26Z</time>
      </trkpt>
      <trkpt lat="37.051118" lon="-8.962315">
        <ele>81.308</ele>
        <time>2018-12-27T14:28:34Z</time>
      </trkpt>
      <trkpt lat="37.051180" lon="-8.962180">
        <ele>82.308</ele>
        <time>2018-12-27T14:28:47Z</time>
      </trkpt>
      <trkpt lat="37.051236" lon="-8.962013">
        <ele>82.378</ele>
        <time>2018-12-27T14:29:01Z</time>
      </trkpt>
      <trkpt lat="37.051248" lon="-8.961989">
        <ele>82.846</ele>
        <time>2018-12-27T14:29:03Z</time>
      </trkpt>
      <trkpt lat="37.051292" lon="-8.961931">
        <ele>82.873</ele>
        <time>2018-12-27T14:29:09Z</time>
      </trkpt>
      <trkpt lat="37.051340" lon="-8.961828">
        <ele>83.267</ele>
        <time>2018-12-27T14:29:18Z</time>
      </trkpt>
      <trkpt lat="37.051373" lon="-8.961729">
        <ele>83.299</ele>
        <time>2018-12-27T14:29:27Z</time>
      </trkpt>
      <trkpt lat="37.051421" lon="-8.961598">
        <ele>83.764</ele>
        <time>2018-12-27T14:29:39Z</time>
      </trkpt>
      <trkpt lat="37.051478" lon="-8.961496">
        <ele>84.235</ele>
        <time>2018-12-27T14:29:48Z</time>
      </trkpt>
      <trkpt lat="37.051491" lon="-8.961475">
        <ele>84.763</ele>
        <time>2018-12-27T14:30:01Z</time>
      </trkpt>
      <trkpt lat="37.051491" lon="-8.961475">
        <ele>84.789</ele>
        <time>2018-12-27T14:30:30Z</time>
      </trkpt>
      <trkpt lat="37.051487" lon="-8.961469">
        <ele>84.206</ele>
        <time>2018-12-27T14:30:40Z</time>
      </trkpt>
      <trkpt lat="37.051499" lon="-8.961430">
        <ele>84.726</ele>
        <time>2018-12-27T14:30:43Z</time>
      </trkpt>
      <trkpt lat="37.051521" lon="-8.961375">
        <ele>84.708</ele>
        <time>2018-12-27T14:30:47Z</time>
      </trkpt>
      <trkpt lat="37.051525" lon="-8.961349">
        <ele>84.711</ele>
        <time>2018-12-27T14:30:49Z</time>
      </trkpt>
      <trkpt lat="37.051593" lon="-8.961171">
        <ele>84.739</ele>
        <time>2018-12-27T14:31:02Z</time>
      </trkpt>
      <trkpt lat="37.051620" lon="-8.961114">
        <ele>85.236</ele>
        <time>2018-12-27T14:31:06Z</time>
      </trkpt>
      <trkpt lat="37.051681" lon="-8.960962">
        <ele>85.640</ele>
        <time>2018-12-27T14:31:17Z</time>
      </trkpt>
      <trkpt lat="37.051732" lon="-8.960869">
        <ele>86.132</ele>
        <time>2018-12-27T14:31:24Z</time>
      </trkpt>
      <trkpt lat="37.051789" lon="-8.960789">
        <ele>86.677</ele>
        <time>2018-12-27T14:31:30Z</time>
      </trkpt>
      <trkpt lat="37.051823" lon="-8.960722">
        <ele>86.118</ele>
        <time>2018-12-27T14:31:35Z</time>
      </trkpt>
      <trkpt lat="37.051901" lon="-8.960532">
        <ele>86.676</ele>
        <time>2018-12-27T14:31:49Z</time>
      </trkpt>
      <trkpt lat="37.051909" lon="-8.960517">
        <ele>86.666</ele>
        <time>2018-12-27T14:31:54Z</time>
      </trkpt>
      <trkpt lat="37.051939" lon="-8.960434">
        <ele>86.629</ele>
        <time>2018-12-27T14:32:00Z</time>
      </trkpt>
      <trkpt lat="37.051956" lon="-8.960406">
        <ele>87.121</ele>
        <time>2018-12-27T14:32:02Z</time>
      </trkpt>
      <trkpt lat="37.051979" lon="-8.960354">
        <ele>87.108</ele>
        <time>2018-12-27T14:32:06Z</time>
      </trkpt>
      <trkpt lat="37.052025" lon="-8.960232">
        <ele>87.149</ele>
        <time>2018-12-27T14:32:14Z</time>
      </trkpt>
      <trkpt lat="37.052114" lon="-8.960091">
        <ele>87.117</ele>
        <time>2018-12-27T14:32:25Z</time>
      </trkpt>
      <trkpt lat="37.052133" lon="-8.960076">
        <ele>87.114</ele>
        <time>2018-12-27T14:32:28Z</time>
      </trkpt>
      <trkpt lat="37.052178" lon="-8.959998">
        <ele>86.648</ele>
        <time>2018-12-27T14:32:32Z</time>
      </trkpt>
      <trkpt lat="37.052260" lon="-8.959883">
        <ele>87.640</ele>
        <time>2018-12-27T14:32:42Z</time>
      </trkpt>
      <trkpt lat="37.052358" lon="-8.959719">
        <ele>87.145</ele>
        <time>2018-12-27T14:32:55Z</time>
      </trkpt>
      <trkpt lat="37.052454" lon="-8.959542">
        <ele>86.656</ele>
        <time>2018-12-27T14:33:09Z</time>
      </trkpt>
      <trkpt lat="37.052581" lon="-8.959380">
        <ele>86.634</ele>
        <time>2018-12-27T14:33:22Z</time>
      </trkpt>
      <trkpt lat="37.052643" lon="-8.959268">
        <ele>86.628</ele>
        <time>2018-12-27T14:33:30Z</time>
      </trkpt>
      <trkpt lat="37.052727" lon="-8.959152">
        <ele>86.689</ele>
        <time>2018-12-27T14:33:39Z</time>
      </trkpt>
      <trkpt lat="37.052759" lon="-8.959086">
        <ele>86.617</ele>
        <time>2018-12-27T14:33:44Z</time>
      </trkpt>
      <trkpt lat="37.052858" lon="-8.958961">
        <ele>86.608</ele>
        <time>2018-12-27T14:33:54Z</time>
      </trkpt>
      <trkpt lat="37.052872" lon="-8.958939">
        <ele>87.175</ele>
        <time>2018-12-27T14:33:56Z</time>
      </trkpt>
      <trkpt lat="37.052927" lon="-8.958861">
        <ele>86.613</ele>
        <time>2018-12-27T14:34:02Z</time>
      </trkpt>
      <trkpt lat="37.053035" lon="-8.958702">
        <ele>86.160</ele>
        <time>2018-12-27T14:34:14Z</time>
      </trkpt>
      <trkpt lat="37.053141" lon="-8.958546">
        <ele>86.154</ele>
        <time>2018-12-27T14:34:26Z</time>
      </trkpt>
      <trkpt lat="37.053167" lon="-8.958507">
        <ele>85.656</ele>
        <time>2018-12-27T14:34:29Z</time>
      </trkpt>
      <trkpt lat="37.053223" lon="-8.958384">
        <ele>86.181</ele>
        <time>2018-12-27T14:34:38Z</time>
      </trkpt>
      <trkpt lat="37.053280" lon="-8.958320">
        <ele>85.622</ele>
        <time>2018-12-27T14:34:43Z</time>
      </trkpt>
      <trkpt lat="37.053363" lon="-8.958207">
        <ele>85.610</ele>
        <time>2018-12-27T14:34:52Z</time>
      </trkpt>
      <trkpt lat="37.053412" lon="-8.958134">
        <ele>85.665</ele>
        <time>2018-12-27T14:34:57Z</time>
      </trkpt>
      <trkpt lat="37.053435" lon="-8.958085">
        <ele>85.668</ele>
        <time>2018-12-27T14:35:01Z</time>
      </trkpt>
      <trkpt lat="37.053535" lon="-8.957938">
        <ele>85.614</ele>
        <time>2018-12-27T14:35:13Z</time>
      </trkpt>
      <trkpt lat="37.053541" lon="-8.957897">
        <ele>85.608</ele>
        <time>2018-12-27T14:35:16Z</time>
      </trkpt>
      <trkpt lat="37.053575" lon="-8.957840">
        <ele>85.639</ele>
        <time>2018-12-27T14:35:20Z</time>
      </trkpt>
      <trkpt lat="37.053686" lon="-8.957709">
        <ele>85.677</ele>
        <time>2018-12-27T14:35:31Z</time>
      </trkpt>
      <trkpt lat="37.053734" lon="-8.957637">
        <ele>85.284</ele>
        <time>2018-12-27T14:35:37Z</time>
      </trkpt>
      <trkpt lat="37.053771" lon="-8.957580">
        <ele>84.758</ele>
        <time>2018-12-27T14:35:41Z</time>
      </trkpt>
      <trkpt lat="37.053838" lon="-8.957463">
        <ele>84.730</ele>
        <time>2018-12-27T14:35:50Z</time>
      </trkpt>
      <trkpt lat="37.053897" lon="-8.957397">
        <ele>84.725</ele>
        <time>2018-12-27T14:35:55Z</time>
      </trkpt>
      <trkpt lat="37.053933" lon="-8.957287">
        <ele>84.716</ele>
        <time>2018-12-27T14:36:09Z</time>
      </trkpt>
      <trkpt lat="37.053933" lon="-8.957287">
        <ele>84.754</ele>
        <time>2018-12-27T14:36:21Z</time>
      </trkpt>
      <trkpt lat="37.053952" lon="-8.957282">
        <ele>84.744</ele>
        <time>2018-12-27T14:36:24Z</time>
      </trkpt>
      <trkpt lat="37.054019" lon="-8.957282">
        <ele>84.705</ele>
        <time>2018-12-27T14:36:31Z</time>
      </trkpt>
      <trkpt lat="37.054067" lon="-8.957335">
        <ele>84.715</ele>
        <time>2018-12-27T14:36:39Z</time>
      </trkpt>
      <trkpt lat="37.054221" lon="-8.957468">
        <ele>85.208</ele>
        <time>2018-12-27T14:36:53Z</time>
      </trkpt>
      <trkpt lat="37.054294" lon="-8.957510">
        <ele>85.627</ele>
        <time>2018-12-27T14:36:59Z</time>
      </trkpt>
      <trkpt lat="37.054473" lon="-8.957559">
        <ele>85.245</ele>
        <time>2018-12-27T14:37:12Z</time>
      </trkpt>
      <trkpt lat="37.054655" lon="-8.957595">
        <ele>86.122</ele>
        <time>2018-12-27T14:37:26Z</time>
      </trkpt>
      <trkpt lat="37.054801" lon="-8.957631">
        <ele>86.646</ele>
        <time>2018-12-27T14:37:38Z</time>
      </trkpt>
      <trkpt lat="37.054965" lon="-8.957666">
        <ele>87.118</ele>
        <time>2018-12-27T14:37:51Z</time>
      </trkpt>
      <trkpt lat="37.055132" lon="-8.957691">
        <ele>87.683</ele>
        <time>2018-12-27T14:38:04Z</time>
      </trkpt>
      <trkpt lat="37.055281" lon="-8.957705">
        <ele>88.144</ele>
        <time>2018-12-27T14:38:15Z</time>
      </trkpt>
      <trkpt lat="37.055361" lon="-8.957715">
        <ele>88.192</ele>
        <time>2018-12-27T14:38:21Z</time>
      </trkpt>
      <trkpt lat="37.055399" lon="-8.957708">
        <ele>88.133</ele>
        <time>2018-12-27T14:38:24Z</time>
      </trkpt>
      <trkpt lat="37.055548" lon="-8.957717">
        <ele>88.523</ele>
        <time>2018-12-27T14:38:36Z</time>
      </trkpt>
      <trkpt lat="37.055694" lon="-8.957700">
        <ele>88.515</ele>
        <time>2018-12-27T14:38:48Z</time>
      </trkpt>
      <trkpt lat="37.055845" lon="-8.957693">
        <ele>89.508</ele>
        <time>2018-12-27T14:39:01Z</time>
      </trkpt>
      <trkpt lat="37.056010" lon="-8.957669">
        <ele>90.016</ele>
        <time>2018-12-27T14:39:14Z</time>
      </trkpt>
      <trkpt lat="37.056037" lon="-8.957667">
        <ele>90.074</ele>
        <time>2018-12-27T14:39:16Z</time>
      </trkpt>
      <trkpt lat="37.056090" lon="-8.957665">
        <ele>90.071</ele>
        <time>2018-12-27T14:39:20Z</time>
      </trkpt>
      <trkpt lat="37.056273" lon="-8.957655">
        <ele>90.595</ele>
        <time>2018-12-27T14:39:35Z</time>
      </trkpt>
      <trkpt lat="37.056437" lon="-8.957654">
        <ele>90.947</ele>
        <time>2018-12-27T14:39:48Z</time>
      </trkpt>
      <trkpt lat="37.056547" lon="-8.957666">
        <ele>90.562</ele>
        <time>2018-12-27T14:39:57Z</time>
      </trkpt>
      <trkpt lat="37.056605" lon="-8.957667">
        <ele>90.573</ele>
        <time>2018-12-27T14:40:02Z</time>
      </trkpt>
      <trkpt lat="37.056756" lon="-8.957688">
        <ele>91.491</ele>
        <time>2018-12-27T14:40:15Z</time>
      </trkpt>
      <trkpt lat="37.056805" lon="-8.957689">
        <ele>91.986</ele>
        <time>2018-12-27T14:40:19Z</time>
      </trkpt>
      <trkpt lat="37.056852" lon="-8.957704">
        <ele>91.460</ele>
        <time>2018-12-27T14:40:23Z</time>
      </trkpt>
      <trkpt lat="37.057043" lon="-8.957710">
        <ele>92.426</ele>
        <time>2018-12-27T14:40:38Z</time>
      </trkpt>
      <trkpt lat="37.057084" lon="-8.957698">
        <ele>92.408</ele>
        <time>2018-12-27T14:40:48Z</time>
      </trkpt>
      <trkpt lat="37.057110" lon="-8.957702">
        <ele>92.441</ele>
        <time>2018-12-27T14:40:50Z</time>
      </trkpt>
      <trkpt lat="37.057266" lon="-8.957692">
        <ele>92.439</ele>
        <time>2018-12-27T14:41:01Z</time>
      </trkpt>
      <trkpt lat="37.057427" lon="-8.957703">
        <ele>92.996</ele>
        <time>2018-12-27T14:41:13Z</time>
      </trkpt>
      <trkpt lat="37.057621" lon="-8.957701">
        <ele>92.960</ele>
        <time>2018-12-27T14:41:28Z</time>
      </trkpt>
      <trkpt lat="37.057796" lon="-8.957689">
        <ele>92.452</ele>
        <time>2018-12-27T14:41:42Z</time>
      </trkpt>
      <trkpt lat="37.057811" lon="-8.957687">
        <ele>92.497</ele>
        <time>2018-12-27T14:41:43Z</time>
      </trkpt>
      <trkpt lat="37.057996" lon="-8.957658">
        <ele>92.958</ele>
        <time>2018-12-27T14:41:58Z</time>
      </trkpt>
      <trkpt lat="37.058147" lon="-8.957600">
        <ele>92.476</ele>
        <time>2018-12-27T14:42:10Z</time>
      </trkpt>
      <trkpt lat="37.058159" lon="-8.957600">
        <ele>92.456</ele>
        <time>2018-12-27T14:42:11Z</time>
      </trkpt>
      <trkpt lat="37.058320" lon="-8.957509">
        <ele>92.959</ele>
        <time>2018-12-27T14:42:26Z</time>
      </trkpt>
      <trkpt lat="37.058492" lon="-8.957440">
        <ele>92.914</ele>
        <time>2018-12-27T14:42:40Z</time>
      </trkpt>
      <trkpt lat="37.058625" lon="-8.957385">
        <ele>93.308</ele>
        <time>2018-12-27T14:42:52Z</time>
      </trkpt>
      <trkpt lat="37.058724" lon="-8.957355">
        <ele>93.398</ele>
        <time>2018-12-27T14:43:00Z</time>
      </trkpt>
      <trkpt lat="37.058907" lon="-8.957296">
        <ele>93.316</ele>
        <time>2018-12-27T14:43:15Z</time>
      </trkpt>
      <trkpt lat="37.059075" lon="-8.957296">
        <ele>93.313</ele>
        <time>2018-12-27T14:43:29Z</time>
      </trkpt>
      <trkpt lat="37.059221" lon="-8.957361">
        <ele>92.437</ele>
        <time>2018-12-27T14:43:44Z</time>
      </trkpt>
      <trkpt lat="37.059242" lon="-8.957377">
        <ele>92.459</ele>
        <time>2018-12-27T14:43:47Z</time>
      </trkpt>
      <trkpt lat="37.059259" lon="-8.957384">
        <ele>92.424</ele>
        <time>2018-12-27T14:43:49Z</time>
      </trkpt>
      <trkpt lat="37.059300" lon="-8.957379">
        <ele>92.955</ele>
        <time>2018-12-27T14:44:02Z</time>
      </trkpt>
      <trkpt lat="37.059300" lon="-8.957379">
        <ele>92.983</ele>
        <time>2018-12-27T14:44:18Z</time>
      </trkpt>
      <trkpt lat="37.059312" lon="-8.957420">
        <ele>91.945</ele>
        <time>2018-12-27T14:44:22Z</time>
      </trkpt>
      <trkpt lat="37.059349" lon="-8.957514">
        <ele>91.947</ele>
        <time>2018-12-27T14:44:30Z</time>
      </trkpt>
      <trkpt lat="37.059377" lon="-8.957627">
        <ele>90.511</ele>
        <time>2018-12-27T14:44:44Z</time>
      </trkpt>
      <trkpt lat="37.059377" lon="-8.957627">
        <ele>90.908</ele>
        <time>2018-12-27T14:44:48Z</time>
      </trkpt>
      <trkpt lat="37.059378" lon="-8.957654">
        <ele>90.527</ele>
        <time>2018-12-27T14:44:50Z</time>
      </trkpt>
      <trkpt lat="37.059420" lon="-8.957841">
        <ele>90.555</ele>
        <time>2018-12-27T14:45:04Z</time>
      </trkpt>
      <trkpt lat="37.059435" lon="-8.957878">
        <ele>90.512</ele>
        <time>2018-12-27T14:45:07Z</time>
      </trkpt>
      <trkpt lat="37.059434" lon="-8.957953">
        <ele>90.526</ele>
        <time>2018-12-27T14:45:12Z</time>
      </trkpt>
      <trkpt lat="37.059444" lon="-8.958027">
        <ele>90.518</ele>
        <time>2018-12-27T14:45:17Z</time>
      </trkpt>
      <trkpt lat="37.059470" lon="-8.958215">
        <ele>90.593</ele>
        <time>2018-12-27T14:45:29Z</time>
      </trkpt>
      <trkpt lat="37.059499" lon="-8.958382">
        <ele>90.934</ele>
        <time>2018-12-27T14:45:43Z</time>
      </trkpt>
      <trkpt lat="37.059499" lon="-8.958380">
        <ele>90.592</ele>
        <time>2018-12-27T14:45:47Z</time>
      </trkpt>
      <trkpt lat="37.059495" lon="-8.958372">
        <ele>90.573</ele>
        <time>2018-12-27T14:46:02Z</time>
      </trkpt>
      <trkpt lat="37.059510" lon="-8.958399">
        <ele>90.085</ele>
        <time>2018-12-27T14:46:17Z</time>
      </trkpt>
      <trkpt lat="37.059512" lon="-8.958402">
        <ele>90.513</ele>
        <time>2018-12-27T14:46:35Z</time>
      </trkpt>
      <trkpt lat="37.059525" lon="-8.958423">
        <ele>90.508</ele>
        <time>2018-12-27T14:46:42Z</time>
      </trkpt>
      <trkpt lat="37.059569" lon="-8.958596">
        <ele>90.930</ele>
        <time>2018-12-27T14:46:56Z</time>
      </trkpt>
      <trkpt lat="37.059566" lon="-8.958635">
        <ele>90.958</ele>
        <time>2018-12-27T14:47:13Z</time>
      </trkpt>
      <trkpt lat="37.059579" lon="-8.958703">
        <ele>91.475</ele>
        <time>2018-12-27T14:47:28Z</time>
      </trkpt>
      <trkpt lat="37.059608" lon="-8.958850">
        <ele>91.479</ele>
        <time>2018-12-27T14:47:39Z</time>
      </trkpt>
      <trkpt lat="37.059629" lon="-8.958923">
        <ele>92.451</ele>
        <time>2018-12-27T14:47:52Z</time>
      </trkpt>
      <trkpt lat="37.059639" lon="-8.958958">
        <ele>92.416</ele>
        <time>2018-12-27T14:47:55Z</time>
      </trkpt>
      <trkpt lat="37.059663" lon="-8.959017">
        <ele>92.997</ele>
        <time>2018-12-27T14:48:00Z</time>
      </trkpt>
      <trkpt lat="37.059693" lon="-8.959127">
        <ele>93.855</ele>
        <time>2018-12-27T14:48:08Z</time>
      </trkpt>
      <trkpt lat="37.059711" lon="-8.959196">
        <ele>93.854</ele>
        <time>2018-12-27T14:48:13Z</time>
      </trkpt>
      <trkpt lat="37.059771" lon="-8.959392">
        <ele>93.856</ele>
        <time>2018-12-27T14:48:27Z</time>
      </trkpt>
      <trkpt lat="37.059779" lon="-8.959405">
        <ele>94.311</ele>
        <time>2018-12-27T14:48:28Z</time>
      </trkpt>
      <trkpt lat="37.059798" lon="-8.959475">
        <ele>94.308</ele>
        <time>2018-12-27T14:48:33Z</time>
      </trkpt>
      <trkpt lat="37.059822" lon="-8.959557">
        <ele>94.858</ele>
        <time>2018-12-27T14:48:39Z</time>
      </trkpt>
      <trkpt lat="37.059894" lon="-8.959786">
        <ele>94.826</ele>
        <time>2018-12-27T14:48:55Z</time>
      </trkpt>
      <trkpt lat="37.059925" lon="-8.959914">
        <ele>94.863</ele>
        <time>2018-12-27T14:49:04Z</time>
      </trkpt>
      <trkpt lat="37.059931" lon="-8.960027">
        <ele>95.717</ele>
        <time>2018-12-27T14:49:15Z</time>
      </trkpt>
      <trkpt lat="37.059945" lon="-8.960080">
        <ele>95.749</ele>
        <time>2018-12-27T14:49:19Z</time>
      </trkpt>
      <trkpt lat="37.059956" lon="-8.960118">
        <ele>96.264</ele>
        <time>2018-12-27T14:49:22Z</time>
      </trkpt>
      <trkpt lat="37.059963" lon="-8.960144">
        <ele>96.225</ele>
        <time>2018-12-27T14:49:24Z</time>
      </trkpt>
      <trkpt lat="37.059980" lon="-8.960206">
        <ele>96.773</ele>
        <time>2018-12-27T14:49:29Z</time>
      </trkpt>
      <trkpt lat="37.060013" lon="-8.960394">
        <ele>97.259</ele>
        <time>2018-12-27T14:49:43Z</time>
      </trkpt>
      <trkpt lat="37.060020" lon="-8.960437">
        <ele>97.203</ele>
        <time>2018-12-27T14:49:46Z</time>
      </trkpt>
      <trkpt lat="37.060033" lon="-8.960473">
        <ele>96.723</ele>
        <time>2018-12-27T14:49:49Z</time>
      </trkpt>
      <trkpt lat="37.060044" lon="-8.960539">
        <ele>96.208</ele>
        <time>2018-12-27T14:49:54Z</time>
      </trkpt>
      <trkpt lat="37.060075" lon="-8.960696">
        <ele>96.728</ele>
        <time>2018-12-27T14:50:05Z</time>
      </trkpt>
      <trkpt lat="37.060106" lon="-8.960784">
        <ele>96.716</ele>
        <time>2018-12-27T14:50:12Z</time>
      </trkpt>
      <trkpt lat="37.060136" lon="-8.960969">
        <ele>96.723</ele>
        <time>2018-12-27T14:50:25Z</time>
      </trkpt>
      <trkpt lat="37.060152" lon="-8.961018">
        <ele>96.797</ele>
        <time>2018-12-27T14:50:29Z</time>
      </trkpt>
      <trkpt lat="37.060208" lon="-8.961138">
        <ele>96.719</ele>
        <time>2018-12-27T14:50:40Z</time>
      </trkpt>
      <trkpt lat="37.060223" lon="-8.961156">
        <ele>97.274</ele>
        <time>2018-12-27T14:50:42Z</time>
      </trkpt>
      <trkpt lat="37.060239" lon="-8.961165">
        <ele>96.745</ele>
        <time>2018-12-27T14:50:44Z</time>
      </trkpt>
      <trkpt lat="37.060276" lon="-8.961202">
        <ele>97.223</ele>
        <time>2018-12-27T14:50:49Z</time>
      </trkpt>
      <trkpt lat="37.060354" lon="-8.961284">
        <ele>96.729</ele>
        <time>2018-12-27T14:50:59Z</time>
      </trkpt>
      <trkpt lat="37.060397" lon="-8.961331">
        <ele>96.700</ele>
        <time>2018-12-27T14:51:04Z</time>
      </trkpt>
      <trkpt lat="37.060485" lon="-8.961388">
        <ele>96.220</ele>
        <time>2018-12-27T14:51:13Z</time>
      </trkpt>
      <trkpt lat="37.060527" lon="-8.961405">
        <ele>96.208</ele>
        <time>2018-12-27T14:51:17Z</time>
      </trkpt>
      <trkpt lat="37.060561" lon="-8.961431">
        <ele>96.235</ele>
        <time>2018-12-27T14:51:21Z</time>
      </trkpt>
      <trkpt lat="37.060575" lon="-8.961451">
        <ele>95.753</ele>
        <time>2018-12-27T14:51:23Z</time>
      </trkpt>
      <trkpt lat="37.060616" lon="-8.961485">
        <ele>96.290</ele>
        <time>2018-12-27T14:51:27Z</time>
      </trkpt>
      <trkpt lat="37.060639" lon="-8.961494">
        <ele>96.274</ele>
        <time>2018-12-27T14:51:29Z</time>
      </trkpt>
      <trkpt lat="37.060753" lon="-8.961589">
        <ele>96.296</ele>
        <time>2018-12-27T14:51:41Z</time>
      </trkpt>
      <trkpt lat="37.060821" lon="-8.961656">
        <ele>96.271</ele>
        <time>2018-12-27T14:51:49Z</time>
      </trkpt>
      <trkpt lat="37.060871" lon="-8.961691">
        <ele>96.272</ele>
        <time>2018-12-27T14:51:54Z</time>
      </trkpt>
      <trkpt lat="37.060908" lon="-8.961724">
        <ele>95.780</ele>
        <time>2018-12-27T14:52:00Z</time>
      </trkpt>
      <trkpt lat="37.060925" lon="-8.961749">
        <ele>96.228</ele>
        <time>2018-12-27T14:52:03Z</time>
      </trkpt>
      <trkpt lat="37.060979" lon="-8.961816">
        <ele>95.789</ele>
        <time>2018-12-27T14:52:09Z</time>
      </trkpt>
      <trkpt lat="37.061089" lon="-8.961924">
        <ele>95.317</ele>
        <time>2018-12-27T14:52:20Z</time>
      </trkpt>
      <trkpt lat="37.061184" lon="-8.962020">
        <ele>95.708</ele>
        <time>2018-12-27T14:52:30Z</time>
      </trkpt>
      <trkpt lat="37.061321" lon="-8.962127">
        <ele>95.795</ele>
        <time>2018-12-27T14:52:43Z</time>
      </trkpt>
      <trkpt lat="37.061437" lon="-8.962175">
        <ele>95.733</ele>
        <time>2018-12-27T14:52:52Z</time>
      </trkpt>
      <trkpt lat="37.061482" lon="-8.962191">
        <ele>96.290</ele>
        <time>2018-12-27T14:52:56Z</time>
      </trkpt>
      <trkpt lat="37.061638" lon="-8.962237">
        <ele>96.294</ele>
        <time>2018-12-27T14:53:09Z</time>
      </trkpt>
      <trkpt lat="37.061802" lon="-8.962250">
        <ele>96.296</ele>
        <time>2018-12-27T14:53:22Z</time>
      </trkpt>
      <trkpt lat="37.061946" lon="-8.962274">
        <ele>96.721</ele>
        <time>2018-12-27T14:53:34Z</time>
      </trkpt>
      <trkpt lat="37.062096" lon="-8.962296">
        <ele>97.232</ele>
        <time>2018-12-27T14:53:47Z</time>
      </trkpt>
      <trkpt lat="37.062204" lon="-8.962320">
        <ele>97.720</ele>
        <time>2018-12-27T14:53:56Z</time>
      </trkpt>
      <trkpt lat="37.062354" lon="-8.962349">
        <ele>98.145</ele>
        <time>2018-12-27T14:54:09Z</time>
      </trkpt>
      <trkpt lat="37.062438" lon="-8.962371">
        <ele>98.647</ele>
        <time>2018-12-27T14:54:16Z</time>
      </trkpt>
      <trkpt lat="37.062584" lon="-8.962402">
        <ele>98.611</ele>
        <time>2018-12-27T14:54:29Z</time>
      </trkpt>
      <trkpt lat="37.062721" lon="-8.962390">
        <ele>99.108</ele>
        <time>2018-12-27T14:54:41Z</time>
      </trkpt>
      <trkpt lat="37.062802" lon="-8.962359">
        <ele>99.667</ele>
        <time>2018-12-27T14:54:50Z</time>
      </trkpt>
      <trkpt lat="37.062847" lon="-8.962324">
        <ele>100.625</ele>
        <time>2018-12-27T14:55:04Z</time>
      </trkpt>
      <trkpt lat="37.062838" lon="-8.962307">
        <ele>100.132</ele>
        <time>2018-12-27T14:55:15Z</time>
      </trkpt>
      <trkpt lat="37.062838" lon="-8.962307">
        <ele>100.146</ele>
        <time>2018-12-27T14:55:20Z</time>
      </trkpt>
      <trkpt lat="37.062882" lon="-8.962247">
        <ele>100.698</ele>
        <time>2018-12-27T14:55:26Z</time>
      </trkpt>
      <trkpt lat="37.062901" lon="-8.962217">
        <ele>101.043</ele>
        <time>2018-12-27T14:55:29Z</time>
      </trkpt>
      <trkpt lat="37.062911" lon="-8.962196">
        <ele>101.024</ele>
        <time>2018-12-27T14:55:31Z</time>
      </trkpt>
      <trkpt lat="37.062990" lon="-8.962090">
        <ele>100.612</ele>
        <time>2018-12-27T14:55:41Z</time>
      </trkpt>
      <trkpt lat="37.063079" lon="-8.961908">
        <ele>100.678</ele>
        <time>2018-12-27T14:55:56Z</time>
      </trkpt>
      <trkpt lat="37.063093" lon="-8.961871">
        <ele>100.633</ele>
        <time>2018-12-27T14:56:03Z</time>
      </trkpt>
      <trkpt lat="37.063154" lon="-8.961687">
        <ele>100.126</ele>
        <time>2018-12-27T14:56:17Z</time>
      </trkpt>
      <trkpt lat="37.063191" lon="-8.961585">
        <ele>100.608</ele>
        <time>2018-12-27T14:56:24Z</time>
      </trkpt>
      <trkpt lat="37.063208" lon="-8.961530">
        <ele>100.650</ele>
        <time>2018-12-27T14:56:28Z</time>
      </trkpt>
      <trkpt lat="37.063231" lon="-8.961376">
        <ele>100.678</ele>
        <time>2018-12-27T14:56:39Z</time>
      </trkpt>
      <trkpt lat="37.063254" lon="-8.961219">
        <ele>100.615</ele>
        <time>2018-12-27T14:56:50Z</time>
      </trkpt>
      <trkpt lat="37.063260" lon="-8.961196">
        <ele>100.169</ele>
        <time>2018-12-27T14:56:52Z</time>
      </trkpt>
      <trkpt lat="37.063249" lon="-8.961158">
        <ele>100.651</ele>
        <time>2018-12-27T14:56:55Z</time>
      </trkpt>
      <trkpt lat="37.063236" lon="-8.961085">
        <ele>100.676</ele>
        <time>2018-12-27T14:57:00Z</time>
      </trkpt>
      <trkpt lat="37.063204" lon="-8.961021">
        <ele>101.067</ele>
        <time>2018-12-27T14:57:05Z</time>
      </trkpt>
      <trkpt lat="37.063178" lon="-8.960952">
        <ele>101.045</ele>
        <time>2018-12-27T14:57:10Z</time>
      </trkpt>
      <trkpt lat="37.063169" lon="-8.960786">
        <ele>101.037</ele>
        <time>2018-12-27T14:57:21Z</time>
      </trkpt>
      <trkpt lat="37.063178" lon="-8.960774">
        <ele>101.049</ele>
        <time>2018-12-27T14:57:22Z</time>
      </trkpt>
      <trkpt lat="37.063118" lon="-8.960655">
        <ele>101.513</ele>
        <time>2018-12-27T14:57:30Z</time>
      </trkpt>
      <trkpt lat="37.063121" lon="-8.960586">
        <ele>101.508</ele>
        <time>2018-12-27T14:57:35Z</time>
      </trkpt>
      <trkpt lat="37.063133" lon="-8.960518">
        <ele>102.036</ele>
        <time>2018-12-27T14:57:40Z</time>
      </trkpt>
      <trkpt lat="37.063124" lon="-8.960464">
        <ele>102.034</ele>
        <time>2018-12-27T14:57:44Z</time>
      </trkpt>
      <trkpt lat="37.063140" lon="-8.960442">
        <ele>102.071</ele>
        <time>2018-12-27T14:57:46Z</time>
      </trkpt>
      <trkpt lat="37.063134" lon="-8.960415">
        <ele>102.565</ele>
        <time>2018-12-27T14:57:52Z</time>
      </trkpt>
      <trkpt lat="37.063123" lon="-8.960367">
        <ele>102.597</ele>
        <time>2018-12-27T14:58:03Z</time>
      </trkpt>
      <trkpt lat="37.063123" lon="-8.960367">
        <ele>102.532</ele>
        <time>2018-12-27T14:58:04Z</time>
      </trkpt>
      <trkpt lat="37.063133" lon="-8.960347">
        <ele>102.513</ele>
        <time>2018-12-27T14:58:06Z</time>
      </trkpt>
      <trkpt lat="37.063145" lon="-8.960320">
        <ele>102.561</ele>
        <time>2018-12-27T14:58:09Z</time>
      </trkpt>
      <trkpt lat="37.063212" lon="-8.960178">
        <ele>103.481</ele>
        <time>2018-12-27T14:58:22Z</time>
      </trkpt>
      <trkpt lat="37.063229" lon="-8.960148">
        <ele>103.061</ele>
        <time>2018-12-27T14:58:25Z</time>
      </trkpt>
      <trkpt lat="37.063292" lon="-8.960059">
        <ele>103.917</ele>
        <time>2018-12-27T14:58:33Z</time>
      </trkpt>
      <trkpt lat="37.063406" lon="-8.959905">
        <ele>103.908</ele>
        <time>2018-12-27T14:58:48Z</time>
      </trkpt>
      <trkpt lat="37.063482" lon="-8.959829">
        <ele>103.941</ele>
        <time>2018-12-27T14:59:03Z</time>
      </trkpt>
      <trkpt lat="37.063597" lon="-8.959727">
        <ele>103.999</ele>
        <time>2018-12-27T14:59:15Z</time>
      </trkpt>
      <trkpt lat="37.063679" lon="-8.959671">
        <ele>104.446</ele>
        <time>2018-12-27T14:59:22Z</time>
      </trkpt>
      <trkpt lat="37.063819" lon="-8.959552">
        <ele>104.990</ele>
        <time>2018-12-27T14:59:36Z</time>
      </trkpt>
      <trkpt lat="37.063862" lon="-8.959525">
        <ele>104.992</ele>
        <time>2018-12-27T14:59:40Z</time>
      </trkpt>
      <trkpt lat="37.064028" lon="-8.959389">
        <ele>104.987</ele>
        <time>2018-12-27T14:59:56Z</time>
      </trkpt>
      <trkpt lat="37.064217" lon="-8.959233">
        <ele>104.918</ele>
        <time>2018-12-27T15:00:12Z</time>
      </trkpt>
      <trkpt lat="37.064338" lon="-8.959142">
        <ele>106.316</ele>
        <time>2018-12-27T15:00:23Z</time>
      </trkpt>
      <trkpt lat="37.064378" lon="-8.959096">
        <ele>105.457</ele>
        <time>2018-12-27T15:00:28Z</time>
      </trkpt>
      <trkpt lat="37.064440" lon="-8.959050">
        <ele>106.300</ele>
        <time>2018-12-27T15:00:34Z</time>
      </trkpt>
      <trkpt lat="37.064592" lon="-8.958923">
        <ele>106.320</ele>
        <time>2018-12-27T15:00:49Z</time>
      </trkpt>
      <trkpt lat="37.064735" lon="-8.958799">
        <ele>106.808</ele>
        <time>2018-12-27T15:01:04Z</time>
      </trkpt>
      <trkpt lat="37.064770" lon="-8.958779">
        <ele>107.318</ele>
        <time>2018-12-27T15:01:07Z</time>
      </trkpt>
      <trkpt lat="37.064933" lon="-8.958672">
        <ele>107.846</ele>
        <time>2018-12-27T15:01:21Z</time>
      </trkpt>
      <trkpt lat="37.064967" lon="-8.958654">
        <ele>107.823</ele>
        <time>2018-12-27T15:01:24Z</time>
      </trkpt>
      <trkpt lat="37.065122" lon="-8.958532">
        <ele>108.227</ele>
        <time>2018-12-27T15:01:39Z</time>
      </trkpt>
      <trkpt lat="37.065305" lon="-8.958416">
        <ele>108.749</ele>
        <time>2018-12-27T15:01:55Z</time>
      </trkpt>
      <trkpt lat="37.065461" lon="-8.958324">
        <ele>108.784</ele>
        <time>2018-12-27T15:02:08Z</time>
      </trkpt>
      <trkpt lat="37.065617" lon="-8.958266">
        <ele>108.735</ele>
        <time>2018-12-27T15:02:20Z</time>
      </trkpt>
      <trkpt lat="37.065720" lon="-8.958245">
        <ele>108.773</ele>
        <time>2018-12-27T15:02:28Z</time>
      </trkpt>
      <trkpt lat="37.065831" lon="-8.958187">
        <ele>108.736</ele>
        <time>2018-12-27T15:02:37Z</time>
      </trkpt>
      <trkpt lat="37.065962" lon="-8.958059">
        <ele>109.217</ele>
        <time>2018-12-27T15:02:50Z</time>
      </trkpt>
      <trkpt lat="37.066074" lon="-8.957875">
        <ele>109.718</ele>
        <time>2018-12-27T15:03:04Z</time>
      </trkpt>
      <trkpt lat="37.066094" lon="-8.957831">
        <ele>110.208</ele>
        <time>2018-12-27T15:03:07Z</time>
      </trkpt>
      <trkpt lat="37.066180" lon="-8.957623">
        <ele>109.766</ele>
        <time>2018-12-27T15:03:22Z</time>
      </trkpt>
      <trkpt lat="37.066292" lon="-8.957444">
        <ele>110.274</ele>
        <time>2018-12-27T15:03:36Z</time>
      </trkpt>
      <trkpt lat="37.066361" lon="-8.957354">
        <ele>110.681</ele>
        <time>2018-12-27T15:03:43Z</time>
      </trkpt>
      <trkpt lat="37.066385" lon="-8.957312">
        <ele>111.195</ele>
        <time>2018-12-27T15:03:47Z</time>
      </trkpt>
      <trkpt lat="37.066429" lon="-8.957254">
        <ele>111.637</ele>
        <time>2018-12-27T15:03:52Z</time>
      </trkpt>
      <trkpt lat="37.066498" lon="-8.957171">
        <ele>111.692</ele>
        <time>2018-12-27T15:04:00Z</time>
      </trkpt>
      <trkpt lat="37.066630" lon="-8.956972">
        <ele>112.123</ele>
        <time>2018-12-27T15:04:15Z</time>
      </trkpt>
      <trkpt lat="37.066667" lon="-8.956828">
        <ele>112.131</ele>
        <time>2018-12-27T15:04:25Z</time>
      </trkpt>
      <trkpt lat="37.066702" lon="-8.956714">
        <ele>112.641</ele>
        <time>2018-12-27T15:04:33Z</time>
      </trkpt>
      <trkpt lat="37.066735" lon="-8.956613">
        <ele>113.081</ele>
        <time>2018-12-27T15:04:40Z</time>
      </trkpt>
      <trkpt lat="37.066777" lon="-8.956453">
        <ele>114.509</ele>
        <time>2018-12-27T15:04:51Z</time>
      </trkpt>
      <trkpt lat="37.066798" lon="-8.956383">
        <ele>115.008</ele>
        <time>2018-12-27T15:04:56Z</time>
      </trkpt>
      <trkpt lat="37.066831" lon="-8.956340">
        <ele>115.017</ele>
        <time>2018-12-27T15:04:59Z</time>
      </trkpt>
      <trkpt lat="37.066857" lon="-8.956292">
        <ele>115.075</ele>
        <time>2018-12-27T15:05:03Z</time>
      </trkpt>
      <trkpt lat="37.066964" lon="-8.956144">
        <ele>115.922</ele>
        <time>2018-12-27T15:05:15Z</time>
      </trkpt>
      <trkpt lat="37.067015" lon="-8.956036">
        <ele>115.946</ele>
        <time>2018-12-27T15:05:23Z</time>
      </trkpt>
      <trkpt lat="37.067030" lon="-8.956012">
        <ele>115.928</ele>
        <time>2018-12-27T15:05:25Z</time>
      </trkpt>
      <trkpt lat="37.067092" lon="-8.955836">
        <ele>115.973</ele>
        <time>2018-12-27T15:05:36Z</time>
      </trkpt>
      <trkpt lat="37.067144" lon="-8.955643">
        <ele>115.994</ele>
        <time>2018-12-27T15:05:49Z</time>
      </trkpt>
      <trkpt lat="37.067200" lon="-8.955501">
        <ele>116.452</ele>
        <time>2018-12-27T15:05:59Z</time>
      </trkpt>
      <trkpt lat="37.067227" lon="-8.955398">
        <ele>116.424</ele>
        <time>2018-12-27T15:06:06Z</time>
      </trkpt>
      <trkpt lat="37.067312" lon="-8.955172">
        <ele>116.904</ele>
        <time>2018-12-27T15:06:22Z</time>
      </trkpt>
      <trkpt lat="37.067400" lon="-8.954976">
        <ele>116.914</ele>
        <time>2018-12-27T15:06:37Z</time>
      </trkpt>
      <trkpt lat="37.067474" lon="-8.954862">
        <ele>117.408</ele>
        <time>2018-12-27T15:06:46Z</time>
      </trkpt>
      <trkpt lat="37.067524" lon="-8.954762">
        <ele>117.965</ele>
        <time>2018-12-27T15:06:53Z</time>
      </trkpt>
      <trkpt lat="37.067543" lon="-8.954724">
        <ele>117.973</ele>
        <time>2018-12-27T15:06:56Z</time>
      </trkpt>
      <trkpt lat="37.067609" lon="-8.954500">
        <ele>117.930</ele>
        <time>2018-12-27T15:07:11Z</time>
      </trkpt>
      <trkpt lat="37.067667" lon="-8.954306">
        <ele>118.394</ele>
        <time>2018-12-27T15:07:24Z</time>
      </trkpt>
      <trkpt lat="37.067759" lon="-8.954081">
        <ele>118.346</ele>
        <time>2018-12-27T15:07:40Z</time>
      </trkpt>
      <trkpt lat="37.067899" lon="-8.953904">
        <ele>116.941</ele>
        <time>2018-12-27T15:07:56Z</time>
      </trkpt>
      <trkpt lat="37.068005" lon="-8.953724">
        <ele>115.032</ele>
        <time>2018-12-27T15:08:10Z</time>
      </trkpt>
      <trkpt lat="37.068037" lon="-8.953658">
        <ele>114.560</ele>
        <time>2018-12-27T15:08:15Z</time>
      </trkpt>
      <trkpt lat="37.068045" lon="-8.953630">
        <ele>114.087</ele>
        <time>2018-12-27T15:08:17Z</time>
      </trkpt>
      <trkpt lat="37.068141" lon="-8.953413">
        <ele>112.642</ele>
        <time>2018-12-27T15:08:32Z</time>
      </trkpt>
      <trkpt lat="37.068170" lon="-8.953363">
        <ele>113.026</ele>
        <time>2018-12-27T15:08:36Z</time>
      </trkpt>
      <trkpt lat="37.068213" lon="-8.953290">
        <ele>112.608</ele>
        <time>2018-12-27T15:08:47Z</time>
      </trkpt>
      <trkpt lat="37.068230" lon="-8.953282">
        <ele>112.671</ele>
        <time>2018-12-27T15:08:51Z</time>
      </trkpt>
      <trkpt lat="37.068310" lon="-8.953212">
        <ele>111.619</ele>
        <time>2018-12-27T15:08:59Z</time>
      </trkpt>
      <trkpt lat="37.068444" lon="-8.953152">
        <ele>112.146</ele>
        <time>2018-12-27T15:09:10Z</time>
      </trkpt>
      <trkpt lat="37.068522" lon="-8.953113">
        <ele>112.670</ele>
        <time>2018-12-27T15:09:17Z</time>
      </trkpt>
      <trkpt lat="37.068594" lon="-8.953080">
        <ele>112.192</ele>
        <time>2018-12-27T15:09:23Z</time>
      </trkpt>
      <trkpt lat="37.068639" lon="-8.953056">
        <ele>113.087</ele>
        <time>2018-12-27T15:09:27Z</time>
      </trkpt>
      <trkpt lat="37.068740" lon="-8.953018">
        <ele>113.098</ele>
        <time>2018-12-27T15:09:35Z</time>
      </trkpt>
      <trkpt lat="37.068861" lon="-8.952986">
        <ele>114.586</ele>
        <time>2018-12-27T15:09:45Z</time>
      </trkpt>
      <trkpt lat="37.068922" lon="-8.952955">
        <ele>115.573</ele>
        <time>2018-12-27T15:09:50Z</time>
      </trkpt>
      <trkpt lat="37.068969" lon="-8.952933">
        <ele>115.585</ele>
        <time>2018-12-27T15:09:54Z</time>
      </trkpt>
      <trkpt lat="37.068998" lon="-8.952922">
        <ele>115.513</ele>
        <time>2018-12-27T15:09:57Z</time>
      </trkpt>
      <trkpt lat="37.069021" lon="-8.952922">
        <ele>115.908</ele>
        <time>2018-12-27T15:09:59Z</time>
      </trkpt>
      <trkpt lat="37.069169" lon="-8.952844">
        <ele>117.920</ele>
        <time>2018-12-27T15:10:12Z</time>
      </trkpt>
      <trkpt lat="37.069245" lon="-8.952813">
        <ele>117.968</ele>
        <time>2018-12-27T15:10:19Z</time>
      </trkpt>
      <trkpt lat="37.069399" lon="-8.952780">
        <ele>118.815</ele>
        <time>2018-12-27T15:10:31Z</time>
      </trkpt>
      <trkpt lat="37.069500" lon="-8.952729">
        <ele>119.899</ele>
        <time>2018-12-27T15:10:40Z</time>
      </trkpt>
      <trkpt lat="37.069558" lon="-8.952717">
        <ele>119.821</ele>
        <time>2018-12-27T15:10:45Z</time>
      </trkpt>
      <trkpt lat="37.069733" lon="-8.952723">
        <ele>119.826</ele>
        <time>2018-12-27T15:10:59Z</time>
      </trkpt>
      <trkpt lat="37.069804" lon="-8.952752">
        <ele>119.887</ele>
        <time>2018-12-27T15:11:05Z</time>
      </trkpt>
      <trkpt lat="37.069836" lon="-8.952776">
        <ele>120.755</ele>
        <time>2018-12-27T15:11:09Z</time>
      </trkpt>
      <trkpt lat="37.069911" lon="-8.952804">
        <ele>120.792</ele>
        <time>2018-12-27T15:11:15Z</time>
      </trkpt>
      <trkpt lat="37.069995" lon="-8.952831">
        <ele>120.773</ele>
        <time>2018-12-27T15:11:22Z</time>
      </trkpt>
      <trkpt lat="37.070060" lon="-8.952847">
        <ele>121.220</ele>
        <time>2018-12-27T15:11:27Z</time>
      </trkpt>
      <trkpt lat="37.070208" lon="-8.952887">
        <ele>121.708</ele>
        <time>2018-12-27T15:11:39Z</time>
      </trkpt>
      <trkpt lat="37.070308" lon="-8.952910">
        <ele>121.782</ele>
        <time>2018-12-27T15:11:47Z</time>
      </trkpt>
      <trkpt lat="37.070470" lon="-8.952966">
        <ele>122.790</ele>
        <time>2018-12-27T15:12:00Z</time>
      </trkpt>
      <trkpt lat="37.070532" lon="-8.953000">
        <ele>122.777</ele>
        <time>2018-12-27T15:12:05Z</time>
      </trkpt>
      <trkpt lat="37.070662" lon="-8.953053">
        <ele>122.741</ele>
        <time>2018-12-27T15:12:16Z</time>
      </trkpt>
      <trkpt lat="37.070723" lon="-8.953088">
        <ele>122.713</ele>
        <time>2018-12-27T15:12:21Z</time>
      </trkpt>
      <trkpt lat="37.070769" lon="-8.953107">
        <ele>122.758</ele>
        <time>2018-12-27T15:12:25Z</time>
      </trkpt>
      <trkpt lat="37.070938" lon="-8.953168">
        <ele>122.719</ele>
        <time>2018-12-27T15:12:38Z</time>
      </trkpt>
      <trkpt lat="37.071089" lon="-8.953203">
        <ele>122.777</ele>
        <time>2018-12-27T15:12:50Z</time>
      </trkpt>
      <trkpt lat="37.071116" lon="-8.953207">
        <ele>122.785</ele>
        <time>2018-12-27T15:12:52Z</time>
      </trkpt>
      <trkpt lat="37.071194" lon="-8.953204">
        <ele>122.789</ele>
        <time>2018-12-27T15:12:58Z</time>
      </trkpt>
      <trkpt lat="37.071236" lon="-8.953203">
        <ele>122.717</ele>
        <time>2018-12-27T15:13:01Z</time>
      </trkpt>
      <trkpt lat="37.071286" lon="-8.953204">
        <ele>122.208</ele>
        <time>2018-12-27T15:13:05Z</time>
      </trkpt>
      <trkpt lat="37.071478" lon="-8.953175">
        <ele>122.271</ele>
        <time>2018-12-27T15:13:20Z</time>
      </trkpt>
      <trkpt lat="37.071679" lon="-8.953147">
        <ele>122.739</ele>
        <time>2018-12-27T15:13:35Z</time>
      </trkpt>
      <trkpt lat="37.071846" lon="-8.953091">
        <ele>122.716</ele>
        <time>2018-12-27T15:13:48Z</time>
      </trkpt>
      <trkpt lat="37.072023" lon="-8.953018">
        <ele>122.710</ele>
        <time>2018-12-27T15:14:02Z</time>
      </trkpt>
      <trkpt lat="37.072199" lon="-8.952958">
        <ele>123.112</ele>
        <time>2018-12-27T15:14:15Z</time>
      </trkpt>
      <trkpt lat="37.072358" lon="-8.952900">
        <ele>123.647</ele>
        <time>2018-12-27T15:14:27Z</time>
      </trkpt>
      <trkpt lat="37.072499" lon="-8.952837">
        <ele>124.168</ele>
        <time>2018-12-27T15:14:39Z</time>
      </trkpt>
      <trkpt lat="37.072513" lon="-8.952832">
        <ele>124.196</ele>
        <time>2018-12-27T15:14:40Z</time>
      </trkpt>
      <trkpt lat="37.072680" lon="-8.952806">
        <ele>124.613</ele>
        <time>2018-12-27T15:14:53Z</time>
      </trkpt>
      <trkpt lat="37.072863" lon="-8.952754">
        <ele>125.143</ele>
        <time>2018-12-27T15:15:07Z</time>
      </trkpt>
      <trkpt lat="37.072932" lon="-8.952730">
        <ele>124.607</ele>
        <time>2018-12-27T15:15:12Z</time>
      </trkpt>
      <trkpt lat="37.073080" lon="-8.952676">
        <ele>125.108</ele>
        <time>2018-12-27T15:15:24Z</time>
      </trkpt>
      <trkpt lat="37.073216" lon="-8.952610">
        <ele>125.524</ele>
        <time>2018-12-27T15:15:35Z</time>
      </trkpt>
      <trkpt lat="37.073329" lon="-8.952543">
        <ele>125.562</ele>
        <time>2018-12-27T15:15:45Z</time>
      </trkpt>
      <trkpt lat="37.073491" lon="-8.952456">
        <ele>126.069</ele>
        <time>2018-12-27T15:15:58Z</time>
      </trkpt>
      <trkpt lat="37.073536" lon="-8.952418">
        <ele>126.023</ele>
        <time>2018-12-27T15:16:02Z</time>
      </trkpt>
      <trkpt lat="37.073594" lon="-8.952382">
        <ele>126.545</ele>
        <time>2018-12-27T15:16:07Z</time>
      </trkpt>
      <trkpt lat="37.073708" lon="-8.952337">
        <ele>127.030</ele>
        <time>2018-12-27T15:16:16Z</time>
      </trkpt>
      <trkpt lat="37.073895" lon="-8.952271">
        <ele>127.581</ele>
        <time>2018-12-27T15:16:31Z</time>
      </trkpt>
      <trkpt lat="37.073974" lon="-8.952264">
        <ele>127.569</ele>
        <time>2018-12-27T15:16:37Z</time>
      </trkpt>
      <trkpt lat="37.074110" lon="-8.952222">
        <ele>127.923</ele>
        <time>2018-12-27T15:16:48Z</time>
      </trkpt>
      <trkpt lat="37.074251" lon="-8.952186">
        <ele>128.483</ele>
        <time>2018-12-27T15:16:59Z</time>
      </trkpt>
      <trkpt lat="37.074426" lon="-8.952159">
        <ele>128.911</ele>
        <time>2018-12-27T15:17:12Z</time>
      </trkpt>
      <trkpt lat="37.074437" lon="-8.952160">
        <ele>128.908</ele>
        <time>2018-12-27T15:17:13Z</time>
      </trkpt>
      <trkpt lat="37.074573" lon="-8.952156">
        <ele>129.455</ele>
        <time>2018-12-27T15:17:24Z</time>
      </trkpt>
      <trkpt lat="37.074672" lon="-8.952146">
        <ele>129.953</ele>
        <time>2018-12-27T15:17:31Z</time>
      </trkpt>
      <trkpt lat="37.074790" lon="-8.952124">
        <ele>130.450</ele>
        <time>2018-12-27T15:17:40Z</time>
      </trkpt>
      <trkpt lat="37.074978" lon="-8.952047">
        <ele>130.884</ele>
        <time>2018-12-27T15:17:54Z</time>
      </trkpt>
      <trkpt lat="37.075093" lon="-8.951970">
        <ele>131.346</ele>
        <time>2018-12-27T15:18:04Z</time>
      </trkpt>
      <trkpt lat="37.075243" lon="-8.951860">
        <ele>131.811</ele>
        <time>2018-12-27T15:18:17Z</time>
      </trkpt>
      <trkpt lat="37.075317" lon="-8.951790">
        <ele>131.852</ele>
        <time>2018-12-27T15:18:24Z</time>
      </trkpt>
      <trkpt lat="37.075407" lon="-8.951715">
        <ele>131.890</ele>
        <time>2018-12-27T15:18:32Z</time>
      </trkpt>
      <trkpt lat="37.075500" lon="-8.951611">
        <ele>132.376</ele>
        <time>2018-12-27T15:18:42Z</time>
      </trkpt>
      <trkpt lat="37.075592" lon="-8.951510">
        <ele>132.390</ele>
        <time>2018-12-27T15:18:51Z</time>
      </trkpt>
      <trkpt lat="37.075638" lon="-8.951451">
        <ele>132.819</ele>
        <time>2018-12-27T15:18:56Z</time>
      </trkpt>
      <trkpt lat="37.075662" lon="-8.951433">
        <ele>132.808</ele>
        <time>2018-12-27T15:18:58Z</time>
      </trkpt>
      <trkpt lat="37.075778" lon="-8.951307">
        <ele>133.240</ele>
        <time>2018-12-27T15:19:10Z</time>
      </trkpt>
      <trkpt lat="37.075922" lon="-8.951185">
        <ele>133.788</ele>
        <time>2018-12-27T15:19:23Z</time>
      </trkpt>
      <trkpt lat="37.076073" lon="-8.951041">
        <ele>134.225</ele>
        <time>2018-12-27T15:19:37Z</time>
      </trkpt>
      <trkpt lat="37.076202" lon="-8.950903">
        <ele>134.769</ele>
        <time>2018-12-27T15:19:50Z</time>
      </trkpt>
      <trkpt lat="37.076332" lon="-8.950780">
        <ele>135.241</ele>
        <time>2018-12-27T15:20:03Z</time>
      </trkpt>
      <trkpt lat="37.076485" lon="-8.950635">
        <ele>136.136</ele>
        <time>2018-12-27T15:20:18Z</time>
      </trkpt>
      <trkpt lat="37.076570" lon="-8.950562">
        <ele>136.157</ele>
        <time>2018-12-27T15:20:26Z</time>
      </trkpt>
      <trkpt lat="37.076624" lon="-8.950508">
        <ele>136.655</ele>
        <time>2018-12-27T15:20:31Z</time>
      </trkpt>
      <trkpt lat="37.076806" lon="-8.950354">
        <ele>137.134</ele>
        <time>2018-12-27T15:20:47Z</time>
      </trkpt>
      <trkpt lat="37.076815" lon="-8.950350">
        <ele>137.155</ele>
        <time>2018-12-27T15:20:48Z</time>
      </trkpt>
      <trkpt lat="37.076944" lon="-8.950279">
        <ele>137.110</ele>
        <time>2018-12-27T15:20:59Z</time>
      </trkpt>
      <trkpt lat="37.077018" lon="-8.950237">
        <ele>137.108</ele>
        <time>2018-12-27T15:21:05Z</time>
      </trkpt>
      <trkpt lat="37.077072" lon="-8.950215">
        <ele>137.676</ele>
        <time>2018-12-27T15:21:09Z</time>
      </trkpt>
      <trkpt lat="37.077217" lon="-8.950171">
        <ele>137.644</ele>
        <time>2018-12-27T15:21:20Z</time>
      </trkpt>
      <trkpt lat="37.077418" lon="-8.950135">
        <ele>137.651</ele>
        <time>2018-12-27T15:21:36Z</time>
      </trkpt>
      <trkpt lat="37.077589" lon="-8.950106">
        <ele>138.045</ele>
        <time>2018-12-27T15:21:49Z</time>
      </trkpt>
      <trkpt lat="37.077740" lon="-8.950091">
        <ele>138.547</ele>
        <time>2018-12-27T15:22:01Z</time>
      </trkpt>
      <trkpt lat="37.077947" lon="-8.950051">
        <ele>139.012</ele>
        <time>2018-12-27T15:22:16Z</time>
      </trkpt>
      <trkpt lat="37.078022" lon="-8.950034">
        <ele>138.553</ele>
        <time>2018-12-27T15:22:22Z</time>
      </trkpt>
      <trkpt lat="37.078071" lon="-8.950016">
        <ele>138.571</ele>
        <time>2018-12-27T15:22:26Z</time>
      </trkpt>
      <trkpt lat="37.078111" lon="-8.950006">
        <ele>139.079</ele>
        <time>2018-12-27T15:22:29Z</time>
      </trkpt>
      <trkpt lat="37.078273" lon="-8.949961">
        <ele>138.505</ele>
        <time>2018-12-27T15:22:42Z</time>
      </trkpt>
      <trkpt lat="37.078402" lon="-8.949919">
        <ele>139.025</ele>
        <time>2018-12-27T15:22:52Z</time>
      </trkpt>
      <trkpt lat="37.078575" lon="-8.949894">
        <ele>139.508</ele>
        <time>2018-12-27T15:23:05Z</time>
      </trkpt>
      <trkpt lat="37.078755" lon="-8.949874">
        <ele>140.090</ele>
        <time>2018-12-27T15:23:18Z</time>
      </trkpt>
      <trkpt lat="37.078783" lon="-8.949870">
        <ele>140.058</ele>
        <time>2018-12-27T15:23:20Z</time>
      </trkpt>
      <trkpt lat="37.078844" lon="-8.949859">
        <ele>140.055</ele>
        <time>2018-12-27T15:23:25Z</time>
      </trkpt>
      <trkpt lat="37.079004" lon="-8.949848">
        <ele>140.919</ele>
        <time>2018-12-27T15:23:37Z</time>
      </trkpt>
      <trkpt lat="37.079083" lon="-8.949868">
        <ele>140.451</ele>
        <time>2018-12-27T15:23:43Z</time>
      </trkpt>
      <trkpt lat="37.079106" lon="-8.949869">
        <ele>140.426</ele>
        <time>2018-12-27T15:23:45Z</time>
      </trkpt>
      <trkpt lat="37.079157" lon="-8.949865">
        <ele>140.937</ele>
        <time>2018-12-27T15:23:49Z</time>
      </trkpt>
      <trkpt lat="37.079215" lon="-8.949851">
        <ele>140.995</ele>
        <time>2018-12-27T15:23:53Z</time>
      </trkpt>
      <trkpt lat="37.079379" lon="-8.949773">
        <ele>141.467</ele>
        <time>2018-12-27T15:24:06Z</time>
      </trkpt>
      <trkpt lat="37.079506" lon="-8.949662">
        <ele>141.981</ele>
        <time>2018-12-27T15:24:18Z</time>
      </trkpt>
      <trkpt lat="37.079619" lon="-8.949545">
        <ele>142.419</ele>
        <time>2018-12-27T15:24:29Z</time>
      </trkpt>
      <trkpt lat="37.079759" lon="-8.949438">
        <ele>142.808</ele>
        <time>2018-12-27T15:24:41Z</time>
      </trkpt>
      <trkpt lat="37.079847" lon="-8.949398">
        <ele>142.899</ele>
        <time>2018-12-27T15:24:48Z</time>
      </trkpt>
      <trkpt lat="37.080006" lon="-8.949301">
        <ele>143.327</ele>
        <time>2018-12-27T15:25:01Z</time>
      </trkpt>
      <trkpt lat="37.080054" lon="-8.949267">
        <ele>142.854</ele>
        <time>2018-12-27T15:25:05Z</time>
      </trkpt>
      <trkpt lat="37.080133" lon="-8.949215">
        <ele>143.388</ele>
        <time>2018-12-27T15:25:12Z</time>
      </trkpt>
      <trkpt lat="37.080276" lon="-8.949073">
        <ele>144.370</ele>
        <time>2018-12-27T15:25:26Z</time>
      </trkpt>
      <trkpt lat="37.080342" lon="-8.949012">
        <ele>144.325</ele>
        <time>2018-12-27T15:25:33Z</time>
      </trkpt>
      <trkpt lat="37.080418" lon="-8.948919">
        <ele>144.396</ele>
        <time>2018-12-27T15:25:41Z</time>
      </trkpt>
      <trkpt lat="37.080583" lon="-8.948753">
        <ele>145.314</ele>
        <time>2018-12-27T15:25:57Z</time>
      </trkpt>
      <trkpt lat="37.080727" lon="-8.948616">
        <ele>145.751</ele>
        <time>2018-12-27T15:26:10Z</time>
      </trkpt>
      <trkpt lat="37.080853" lon="-8.948487">
        <ele>145.701</ele>
        <time>2018-12-27T15:26:23Z</time>
      </trkpt>
      <trkpt lat="37.080899" lon="-8.948440">
        <ele>146.211</ele>
        <time>2018-12-27T15:26:27Z</time>
      </trkpt>
      <trkpt lat="37.081022" lon="-8.948297">
        <ele>146.708</ele>
        <time>2018-12-27T15:26:40Z</time>
      </trkpt>
      <trkpt lat="37.081153" lon="-8.948155">
        <ele>147.228</ele>
        <time>2018-12-27T15:26:53Z</time>
      </trkpt>
      <trkpt lat="37.081218" lon="-8.948103">
        <ele>148.116</ele>
        <time>2018-12-27T15:26:59Z</time>
      </trkpt>
      <trkpt lat="37.081272" lon="-8.948053">
        <ele>147.773</ele>
        <time>2018-12-27T15:27:04Z</time>
      </trkpt>
      <trkpt lat="37.081434" lon="-8.947952">
        <ele>148.167</ele>
        <time>2018-12-27T15:27:18Z</time>
      </trkpt>
      <trkpt lat="37.081591" lon="-8.947873">
        <ele>148.649</ele>
        <time>2018-12-27T15:27:31Z</time>
      </trkpt>
      <trkpt lat="37.081748" lon="-8.947798">
        <ele>148.624</ele>
        <time>2018-12-27T15:27:44Z</time>
      </trkpt>
      <trkpt lat="37.081923" lon="-8.947739">
        <ele>149.135</ele>
        <time>2018-12-27T15:27:58Z</time>
      </trkpt>
      <trkpt lat="37.082076" lon="-8.947750">
        <ele>149.643</ele>
        <time>2018-12-27T15:28:10Z</time>
      </trkpt>
      <trkpt lat="37.082111" lon="-8.947768">
        <ele>149.115</ele>
        <time>2018-12-27T15:28:13Z</time>
      </trkpt>
      <trkpt lat="37.082204" lon="-8.947797">
        <ele>149.165</ele>
        <time>2018-12-27T15:28:20Z</time>
      </trkpt>
      <trkpt lat="37.082353" lon="-8.947870">
        <ele>150.111</ele>
        <time>2018-12-27T15:28:32Z</time>
      </trkpt>
      <trkpt lat="37.082486" lon="-8.947912">
        <ele>149.608</ele>
        <time>2018-12-27T15:28:43Z</time>
      </trkpt>
      <trkpt lat="37.082622" lon="-8.947925">
        <ele>150.174</ele>
        <time>2018-12-27T15:28:54Z</time>
      </trkpt>
      <trkpt lat="37.082749" lon="-8.947830">
        <ele>150.592</ele>
        <time>2018-12-27T15:29:06Z</time>
      </trkpt>
      <trkpt lat="37.082761" lon="-8.947802">
        <ele>150.559</ele>
        <time>2018-12-27T15:29:08Z</time>
      </trkpt>
      <trkpt lat="37.082824" lon="-8.947609">
        <ele>150.533</ele>
        <time>2018-12-27T15:29:21Z</time>
      </trkpt>
      <trkpt lat="37.082881" lon="-8.947424">
        <ele>150.165</ele>
        <time>2018-12-27T15:29:33Z</time>
      </trkpt>
      <trkpt lat="37.082951" lon="-8.947189">
        <ele>150.120</ele>
        <time>2018-12-27T15:29:48Z</time>
      </trkpt>
      <trkpt lat="37.082976" lon="-8.946989">
        <ele>150.521</ele>
        <time>2018-12-27T15:30:01Z</time>
      </trkpt>
      <trkpt lat="37.082952" lon="-8.946774">
        <ele>150.199</ele>
        <time>2018-12-27T15:30:15Z</time>
      </trkpt>
      <trkpt lat="37.082911" lon="-8.946515">
        <ele>150.135</ele>
        <time>2018-12-27T15:30:31Z</time>
      </trkpt>
      <trkpt lat="37.082901" lon="-8.946458">
        <ele>149.686</ele>
        <time>2018-12-27T15:30:35Z</time>
      </trkpt>
      <trkpt lat="37.082893" lon="-8.946247">
        <ele>149.614</ele>
        <time>2018-12-27T15:30:49Z</time>
      </trkpt>
      <trkpt lat="37.082893" lon="-8.946231">
        <ele>149.608</ele>
        <time>2018-12-27T15:30:50Z</time>
      </trkpt>
      <trkpt lat="37.082873" lon="-8.946139">
        <ele>149.656</ele>
        <time>2018-12-27T15:30:58Z</time>
      </trkpt>
      <trkpt lat="37.082866" lon="-8.945879">
        <ele>149.134</ele>
        <time>2018-12-27T15:31:16Z</time>
      </trkpt>
      <trkpt lat="37.082870" lon="-8.945804">
        <ele>148.691</ele>
        <time>2018-12-27T15:31:21Z</time>
      </trkpt>
      <trkpt lat="37.082868" lon="-8.945726">
        <ele>148.695</ele>
        <time>2018-12-27T15:31:26Z</time>
      </trkpt>
      <trkpt lat="37.082887" lon="-8.945487">
        <ele>148.177</ele>
        <time>2018-12-27T15:31:41Z</time>
      </trkpt>
      <trkpt lat="37.082894" lon="-8.945266">
        <ele>147.722</ele>
        <time>2018-12-27T15:31:54Z</time>
      </trkpt>
      <trkpt lat="37.082891" lon="-8.945167">
        <ele>147.223</ele>
        <time>2018-12-27T15:32:01Z</time>
      </trkpt>
      <trkpt lat="37.082895" lon="-8.945099">
        <ele>147.211</ele>
        <time>2018-12-27T15:32:05Z</time>
      </trkpt>
      <trkpt lat="37.082906" lon="-8.944844">
        <ele>146.263</ele>
        <time>2018-12-27T15:32:21Z</time>
      </trkpt>
      <trkpt lat="37.082911" lon="-8.944777">
        <ele>146.244</ele>
        <time>2018-12-27T15:32:25Z</time>
      </trkpt>
      <trkpt lat="37.082929" lon="-8.944618">
        <ele>146.218</ele>
        <time>2018-12-27T15:32:35Z</time>
      </trkpt>
      <trkpt lat="37.082961" lon="-8.944367">
        <ele>145.708</ele>
        <time>2018-12-27T15:32:51Z</time>
      </trkpt>
      <trkpt lat="37.082997" lon="-8.944128">
        <ele>145.739</ele>
        <time>2018-12-27T15:33:06Z</time>
      </trkpt>
      <trkpt lat="37.083032" lon="-8.943847">
        <ele>145.337</ele>
        <time>2018-12-27T15:33:23Z</time>
      </trkpt>
      <trkpt lat="37.083036" lon="-8.943819">
        <ele>145.384</ele>
        <time>2018-12-27T15:33:25Z</time>
      </trkpt>
      <trkpt lat="37.083041" lon="-8.943739">
        <ele>145.348</ele>
        <time>2018-12-27T15:33:30Z</time>
      </trkpt>
      <trkpt lat="37.083079" lon="-8.943481">
        <ele>144.810</ele>
        <time>2018-12-27T15:33:46Z</time>
      </trkpt>
      <trkpt lat="37.083090" lon="-8.943225">
        <ele>144.835</ele>
        <time>2018-12-27T15:34:02Z</time>
      </trkpt>
      <trkpt lat="37.083092" lon="-8.942973">
        <ele>144.316</ele>
        <time>2018-12-27T15:34:17Z</time>
      </trkpt>
      <trkpt lat="37.083066" lon="-8.942771">
        <ele>144.374</ele>
        <time>2018-12-27T15:34:30Z</time>
      </trkpt>
      <trkpt lat="37.083067" lon="-8.942529">
        <ele>143.849</ele>
        <time>2018-12-27T15:34:45Z</time>
      </trkpt>
      <trkpt lat="37.083068" lon="-8.942395">
        <ele>143.302</ele>
        <time>2018-12-27T15:34:53Z</time>
      </trkpt>
      <trkpt lat="37.083055" lon="-8.942173">
        <ele>142.822</ele>
        <time>2018-12-27T15:35:07Z</time>
      </trkpt>
      <trkpt lat="37.083034" lon="-8.942037">
        <ele>142.808</ele>
        <time>2018-12-27T15:35:16Z</time>
      </trkpt>
      <trkpt lat="37.083024" lon="-8.941835">
        <ele>142.487</ele>
        <time>2018-12-27T15:35:29Z</time>
      </trkpt>
      <trkpt lat="37.083025" lon="-8.941772">
        <ele>142.495</ele>
        <time>2018-12-27T15:35:33Z</time>
      </trkpt>
      <trkpt lat="37.083002" lon="-8.941550">
        <ele>141.482</ele>
        <time>2018-12-27T15:35:47Z</time>
      </trkpt>
      <trkpt lat="37.083000" lon="-8.941533">
        <ele>141.936</ele>
        <time>2018-12-27T15:35:48Z</time>
      </trkpt>
      <trkpt lat="37.082991" lon="-8.941422">
        <ele>141.948</ele>
        <time>2018-12-27T15:35:55Z</time>
      </trkpt>
      <trkpt lat="37.082983" lon="-8.941161">
        <ele>140.993</ele>
        <time>2018-12-27T15:36:11Z</time>
      </trkpt>
      <trkpt lat="37.082966" lon="-8.940873">
        <ele>140.474</ele>
        <time>2018-12-27T15:36:28Z</time>
      </trkpt>
      <trkpt lat="37.082962" lon="-8.940622">
        <ele>140.412</ele>
        <time>2018-12-27T15:36:43Z</time>
      </trkpt>
      <trkpt lat="37.082963" lon="-8.940593">
        <ele>140.413</ele>
        <time>2018-12-27T15:36:45Z</time>
      </trkpt>
      <trkpt lat="37.082953" lon="-8.940407">
        <ele>140.043</ele>
        <time>2018-12-27T15:36:56Z</time>
      </trkpt>
      <trkpt lat="37.082946" lon="-8.940246">
        <ele>140.007</ele>
        <time>2018-12-27T15:37:06Z</time>
      </trkpt>
      <trkpt lat="37.082939" lon="-8.940012">
        <ele>139.008</ele>
        <time>2018-12-27T15:37:21Z</time>
      </trkpt>
      <trkpt lat="37.082932" lon="-8.939747">
        <ele>138.594</ele>
        <time>2018-12-27T15:37:37Z</time>
      </trkpt>
      <trkpt lat="37.082923" lon="-8.939681">
        <ele>138.072</ele>
        <time>2018-12-27T15:37:41Z</time>
      </trkpt>
      <trkpt lat="37.082840" lon="-8.939428">
        <ele>138.099</ele>
        <time>2018-12-27T15:37:57Z</time>
      </trkpt>
      <trkpt lat="37.082784" lon="-8.939247">
        <ele>137.673</ele>
        <time>2018-12-27T15:38:09Z</time>
      </trkpt>
      <trkpt lat="37.082715" lon="-8.939001">
        <ele>137.675</ele>
        <time>2018-12-27T15:38:25Z</time>
      </trkpt>
      <trkpt lat="37.082676" lon="-8.938761">
        <ele>137.170</ele>
        <time>2018-12-27T15:38:40Z</time>
      </trkpt>
      <trkpt lat="37.082662" lon="-8.938548">
        <ele>136.131</ele>
        <time>2018-12-27T15:38:54Z</time>
      </trkpt>
      <trkpt lat="37.082663" lon="-8.938503">
        <ele>136.189</ele>
        <time>2018-12-27T15:38:57Z</time>
      </trkpt>
      <trkpt lat="37.082659" lon="-8.938286">
        <ele>136.147</ele>
        <time>2018-12-27T15:39:07Z</time>
      </trkpt>
      <trkpt lat="37.082675" lon="-8.938278">
        <ele>136.129</ele>
        <time>2018-12-27T15:39:11Z</time>
      </trkpt>
      <trkpt lat="37.082676" lon="-8.938247">
        <ele>136.121</ele>
        <time>2018-12-27T15:39:13Z</time>
      </trkpt>
      <trkpt lat="37.082669" lon="-8.938141">
        <ele>135.608</ele>
        <time>2018-12-27T15:39:17Z</time>
      </trkpt>
      <trkpt lat="37.082692" lon="-8.937967">
        <ele>135.667</ele>
        <time>2018-12-27T15:39:28Z</time>
      </trkpt>
      <trkpt lat="37.082781" lon="-8.937749">
        <ele>135.245</ele>
        <time>2018-12-27T15:39:42Z</time>
      </trkpt>
      <trkpt lat="37.082829" lon="-8.937659">
        <ele>135.282</ele>
        <time>2018-12-27T15:39:49Z</time>
      </trkpt>
      <trkpt lat="37.082946" lon="-8.937479">
        <ele>135.256</ele>
        <time>2018-12-27T15:40:03Z</time>
      </trkpt>
      <trkpt lat="37.083043" lon="-8.937346">
        <ele>135.648</ele>
        <time>2018-12-27T15:40:14Z</time>
      </trkpt>
      <trkpt lat="37.083080" lon="-8.937281">
        <ele>135.243</ele>
        <time>2018-12-27T15:40:19Z</time>
      </trkpt>
      <trkpt lat="37.083174" lon="-8.937082">
        <ele>135.254</ele>
        <time>2018-12-27T15:40:33Z</time>
      </trkpt>
      <trkpt lat="37.083235" lon="-8.936916">
        <ele>135.292</ele>
        <time>2018-12-27T15:40:45Z</time>
      </trkpt>
      <trkpt lat="37.083328" lon="-8.936686">
        <ele>134.772</ele>
        <time>2018-12-27T15:41:01Z</time>
      </trkpt>
      <trkpt lat="37.083410" lon="-8.936466">
        <ele>134.213</ele>
        <time>2018-12-27T15:41:16Z</time>
      </trkpt>
      <trkpt lat="37.083491" lon="-8.936231">
        <ele>134.214</ele>
        <time>2018-12-27T15:41:32Z</time>
      </trkpt>
      <trkpt lat="37.083562" lon="-8.936043">
        <ele>134.708</ele>
        <time>2018-12-27T15:41:45Z</time>
      </trkpt>
      <trkpt lat="37.083527" lon="-8.935822">
        <ele>134.280</ele>
        <time>2018-12-27T15:42:00Z</time>
      </trkpt>
      <trkpt lat="37.083508" lon="-8.935766">
        <ele>134.798</ele>
        <time>2018-12-27T15:42:04Z</time>
      </trkpt>
      <trkpt lat="37.083489" lon="-8.935707">
        <ele>134.775</ele>
        <time>2018-12-27T15:42:08Z</time>
      </trkpt>
      <trkpt lat="37.083414" lon="-8.935524">
        <ele>135.219</ele>
        <time>2018-12-27T15:42:21Z</time>
      </trkpt>
      <trkpt lat="37.083396" lon="-8.935483">
        <ele>135.231</ele>
        <time>2018-12-27T15:42:24Z</time>
      </trkpt>
      <trkpt lat="37.083358" lon="-8.935352">
        <ele>135.656</ele>
        <time>2018-12-27T15:42:33Z</time>
      </trkpt>
      <trkpt lat="37.083328" lon="-8.935268">
        <ele>135.617</ele>
        <time>2018-12-27T15:42:38Z</time>
      </trkpt>
      <trkpt lat="37.083252" lon="-8.935055">
        <ele>135.685</ele>
        <time>2018-12-27T15:42:53Z</time>
      </trkpt>
      <trkpt lat="37.083192" lon="-8.934877">
        <ele>135.694</ele>
        <time>2018-12-27T15:43:06Z</time>
      </trkpt>
      <trkpt lat="37.083176" lon="-8.934813">
        <ele>135.257</ele>
        <time>2018-12-27T15:43:10Z</time>
      </trkpt>
      <trkpt lat="37.083116" lon="-8.934643">
        <ele>135.622</ele>
        <time>2018-12-27T15:43:22Z</time>
      </trkpt>
      <trkpt lat="37.083042" lon="-8.934419">
        <ele>135.208</ele>
        <time>2018-12-27T15:43:37Z</time>
      </trkpt>
      <trkpt lat="37.082970" lon="-8.934187">
        <ele>134.742</ele>
        <time>2018-12-27T15:43:53Z</time>
      </trkpt>
      <trkpt lat="37.082913" lon="-8.934077">
        <ele>134.790</ele>
        <time>2018-12-27T15:44:01Z</time>
      </trkpt>
      <trkpt lat="37.082888" lon="-8.934002">
        <ele>134.767</ele>
        <time>2018-12-27T15:44:06Z</time>
      </trkpt>
      <trkpt lat="37.082801" lon="-8.933772">
        <ele>134.231</ele>
        <time>2018-12-27T15:44:22Z</time>
      </trkpt>
      <trkpt lat="37.082722" lon="-8.933573">
        <ele>134.213</ele>
        <time>2018-12-27T15:44:36Z</time>
      </trkpt>
      <trkpt lat="37.082687" lon="-8.933497">
        <ele>133.768</ele>
        <time>2018-12-27T15:44:41Z</time>
      </trkpt>
      <trkpt lat="37.082617" lon="-8.933337">
        <ele>133.799</ele>
        <time>2018-12-27T15:44:53Z</time>
      </trkpt>
      <trkpt lat="37.082583" lon="-8.933274">
        <ele>133.747</ele>
        <time>2018-12-27T15:44:58Z</time>
      </trkpt>
      <trkpt lat="37.082556" lon="-8.933170">
        <ele>133.741</ele>
        <time>2018-12-27T15:45:05Z</time>
      </trkpt>
      <trkpt lat="37.082524" lon="-8.932901">
        <ele>133.281</ele>
        <time>2018-12-27T15:45:24Z</time>
      </trkpt>
      <trkpt lat="37.082537" lon="-8.932676">
        <ele>133.209</ele>
        <time>2018-12-27T15:45:38Z</time>
      </trkpt>
      <trkpt lat="37.082566" lon="-8.932480">
        <ele>132.808</ele>
        <time>2018-12-27T15:45:51Z</time>
      </trkpt>
      <trkpt lat="37.082610" lon="-8.932269">
        <ele>132.337</ele>
        <time>2018-12-27T15:46:05Z</time>
      </trkpt>
      <trkpt lat="37.082626" lon="-8.932087">
        <ele>132.345</ele>
        <time>2018-12-27T15:46:18Z</time>
      </trkpt>
      <trkpt lat="37.082651" lon="-8.931864">
        <ele>132.372</ele>
        <time>2018-12-27T15:46:32Z</time>
      </trkpt>
      <trkpt lat="37.082672" lon="-8.931767">
        <ele>132.326</ele>
        <time>2018-12-27T15:46:38Z</time>
      </trkpt>
      <trkpt lat="37.082675" lon="-8.931732">
        <ele>132.328</ele>
        <time>2018-12-27T15:46:40Z</time>
      </trkpt>
      <trkpt lat="37.082706" lon="-8.931504">
        <ele>131.833</ele>
        <time>2018-12-27T15:46:55Z</time>
      </trkpt>
      <trkpt lat="37.082744" lon="-8.931304">
        <ele>131.844</ele>
        <time>2018-12-27T15:47:08Z</time>
      </trkpt>
      <trkpt lat="37.082767" lon="-8.931097">
        <ele>131.322</ele>
        <time>2018-12-27T15:47:21Z</time>
      </trkpt>
      <trkpt lat="37.082787" lon="-8.930834">
        <ele>130.818</ele>
        <time>2018-12-27T15:47:36Z</time>
      </trkpt>
      <trkpt lat="37.082825" lon="-8.930617">
        <ele>130.898</ele>
        <time>2018-12-27T15:47:50Z</time>
      </trkpt>
      <trkpt lat="37.082828" lon="-8.930587">
        <ele>130.417</ele>
        <time>2018-12-27T15:47:52Z</time>
      </trkpt>
      <trkpt lat="37.082882" lon="-8.930423">
        <ele>130.408</ele>
        <time>2018-12-27T15:48:04Z</time>
      </trkpt>
      <trkpt lat="37.082937" lon="-8.930251">
        <ele>130.434</ele>
        <time>2018-12-27T15:48:20Z</time>
      </trkpt>
      <trkpt lat="37.082946" lon="-8.930228">
        <ele>130.432</ele>
        <time>2018-12-27T15:48:21Z</time>
      </trkpt>
      <trkpt lat="37.082984" lon="-8.930148">
        <ele>130.459</ele>
        <time>2018-12-27T15:48:35Z</time>
      </trkpt>
      <trkpt lat="37.082984" lon="-8.930148">
        <ele>129.913</ele>
        <time>2018-12-27T15:48:37Z</time>
      </trkpt>
      <trkpt lat="37.082993" lon="-8.930104">
        <ele>129.955</ele>
        <time>2018-12-27T15:48:41Z</time>
      </trkpt>
      <trkpt lat="37.083044" lon="-8.930020">
        <ele>129.910</ele>
        <time>2018-12-27T15:48:50Z</time>
      </trkpt>
      <trkpt lat="37.083140" lon="-8.929808">
        <ele>129.471</ele>
        <time>2018-12-27T15:49:07Z</time>
      </trkpt>
      <trkpt lat="37.083165" lon="-8.929750">
        <ele>129.959</ele>
        <time>2018-12-27T15:49:20Z</time>
      </trkpt>
      <trkpt lat="37.083152" lon="-8.929722">
        <ele>129.982</ele>
        <time>2018-12-27T15:49:33Z</time>
      </trkpt>
      <trkpt lat="37.083152" lon="-8.929722">
        <ele>129.943</ele>
        <time>2018-12-27T15:49:34Z</time>
      </trkpt>
      <trkpt lat="37.083148" lon="-8.929548">
        <ele>129.417</ele>
        <time>2018-12-27T15:49:46Z</time>
      </trkpt>
      <trkpt lat="37.083148" lon="-8.929499">
        <ele>129.408</ele>
        <time>2018-12-27T15:49:49Z</time>
      </trkpt>
      <trkpt lat="37.083168" lon="-8.929396">
        <ele>129.491</ele>
        <time>2018-12-27T15:49:56Z</time>
      </trkpt>
      <trkpt lat="37.083157" lon="-8.929283">
        <ele>129.479</ele>
        <time>2018-12-27T15:50:02Z</time>
      </trkpt>
      <trkpt lat="37.083174" lon="-8.929223">
        <ele>128.926</ele>
        <time>2018-12-27T15:50:08Z</time>
      </trkpt>
      <trkpt lat="37.083180" lon="-8.929153">
        <ele>128.990</ele>
        <time>2018-12-27T15:50:12Z</time>
      </trkpt>
      <trkpt lat="37.083207" lon="-8.928981">
        <ele>129.462</ele>
        <time>2018-12-27T15:50:22Z</time>
      </trkpt>
      <trkpt lat="37.083262" lon="-8.928734">
        <ele>129.457</ele>
        <time>2018-12-27T15:50:39Z</time>
      </trkpt>
      <trkpt lat="37.083322" lon="-8.928483">
        <ele>129.488</ele>
        <time>2018-12-27T15:50:55Z</time>
      </trkpt>
      <trkpt lat="37.083370" lon="-8.928291">
        <ele>129.416</ele>
        <time>2018-12-27T15:51:08Z</time>
      </trkpt>
      <trkpt lat="37.083385" lon="-8.928250">
        <ele>128.952</ele>
        <time>2018-12-27T15:51:11Z</time>
      </trkpt>
      <trkpt lat="37.083403" lon="-8.928162">
        <ele>128.953</ele>
        <time>2018-12-27T15:51:17Z</time>
      </trkpt>
      <trkpt lat="37.083463" lon="-8.928007">
        <ele>127.908</ele>
        <time>2018-12-27T15:51:32Z</time>
      </trkpt>
      <trkpt lat="37.083541" lon="-8.927804">
        <ele>126.508</ele>
        <time>2018-12-27T15:51:43Z</time>
      </trkpt>
      <trkpt lat="37.083558" lon="-8.927775">
        <ele>126.538</ele>
        <time>2018-12-27T15:51:47Z</time>
      </trkpt>
      <trkpt lat="37.083614" lon="-8.927553">
        <ele>125.576</ele>
        <time>2018-12-27T15:51:57Z</time>
      </trkpt>
      <trkpt lat="37.083624" lon="-8.927549">
        <ele>125.543</ele>
        <time>2018-12-27T15:52:00Z</time>
      </trkpt>
      <trkpt lat="37.083642" lon="-8.927506">
        <ele>125.187</ele>
        <time>2018-12-27T15:52:03Z</time>
      </trkpt>
      <trkpt lat="37.083687" lon="-8.927348">
        <ele>124.169</ele>
        <time>2018-12-27T15:52:14Z</time>
      </trkpt>
      <trkpt lat="37.083687" lon="-8.927343">
        <ele>124.114</ele>
        <time>2018-12-27T15:52:15Z</time>
      </trkpt>
      <trkpt lat="37.083713" lon="-8.927256">
        <ele>123.635</ele>
        <time>2018-12-27T15:52:19Z</time>
      </trkpt>
      <trkpt lat="37.083763" lon="-8.927105">
        <ele>123.143</ele>
        <time>2018-12-27T15:52:29Z</time>
      </trkpt>
      <trkpt lat="37.083803" lon="-8.926999">
        <ele>122.773</ele>
        <time>2018-12-27T15:52:39Z</time>
      </trkpt>
      <trkpt lat="37.083872" lon="-8.926795">
        <ele>122.785</ele>
        <time>2018-12-27T15:52:52Z</time>
      </trkpt>
      <trkpt lat="37.083970" lon="-8.926581">
        <ele>120.713</ele>
        <time>2018-12-27T15:53:07Z</time>
      </trkpt>
      <trkpt lat="37.084072" lon="-8.926452">
        <ele>119.308</ele>
        <time>2018-12-27T15:53:19Z</time>
      </trkpt>
      <trkpt lat="37.084146" lon="-8.926389">
        <ele>118.890</ele>
        <time>2018-12-27T15:53:25Z</time>
      </trkpt>
      <trkpt lat="37.084204" lon="-8.926322">
        <ele>117.938</ele>
        <time>2018-12-27T15:53:33Z</time>
      </trkpt>
      <trkpt lat="37.084293" lon="-8.926245">
        <ele>116.965</ele>
        <time>2018-12-27T15:53:42Z</time>
      </trkpt>
      <trkpt lat="37.084342" lon="-8.926224">
        <ele>115.989</ele>
        <time>2018-12-27T15:53:45Z</time>
      </trkpt>
      <trkpt lat="37.084433" lon="-8.926126">
        <ele>115.021</ele>
        <time>2018-12-27T15:53:54Z</time>
      </trkpt>
      <trkpt lat="37.084564" lon="-8.926014">
        <ele>113.056</ele>
        <time>2018-12-27T15:54:05Z</time>
      </trkpt>
      <trkpt lat="37.084622" lon="-8.925907">
        <ele>112.177</ele>
        <time>2018-12-27T15:54:13Z</time>
      </trkpt>
      <trkpt lat="37.084652" lon="-8.925810">
        <ele>111.675</ele>
        <time>2018-12-27T15:54:19Z</time>
      </trkpt>
      <trkpt lat="37.084675" lon="-8.925705">
        <ele>111.633</ele>
        <time>2018-12-27T15:54:26Z</time>
      </trkpt>
      <trkpt lat="37.084677" lon="-8.925629">
        <ele>110.623</ele>
        <time>2018-12-27T15:54:31Z</time>
      </trkpt>
      <trkpt lat="37.084682" lon="-8.925597">
        <ele>110.615</ele>
        <time>2018-12-27T15:54:33Z</time>
      </trkpt>
      <trkpt lat="37.084677" lon="-8.925391">
        <ele>110.608</ele>
        <time>2018-12-27T15:54:46Z</time>
      </trkpt>
      <trkpt lat="37.084681" lon="-8.925283">
        <ele>109.746</ele>
        <time>2018-12-27T15:54:53Z</time>
      </trkpt>
      <trkpt lat="37.084680" lon="-8.925043">
        <ele>109.284</ele>
        <time>2018-12-27T15:55:08Z</time>
      </trkpt>
      <trkpt lat="37.084627" lon="-8.924848">
        <ele>109.771</ele>
        <time>2018-12-27T15:55:21Z</time>
      </trkpt>
      <trkpt lat="37.084563" lon="-8.924637">
        <ele>109.785</ele>
        <time>2018-12-27T15:55:36Z</time>
      </trkpt>
      <trkpt lat="37.084530" lon="-8.924545">
        <ele>109.287</ele>
        <time>2018-12-27T15:55:42Z</time>
      </trkpt>
      <trkpt lat="37.084402" lon="-8.924324">
        <ele>108.232</ele>
        <time>2018-12-27T15:55:59Z</time>
      </trkpt>
      <trkpt lat="37.084339" lon="-8.924242">
        <ele>108.283</ele>
        <time>2018-12-27T15:56:06Z</time>
      </trkpt>
      <trkpt lat="37.084287" lon="-8.924173">
        <ele>107.881</ele>
        <time>2018-12-27T15:56:11Z</time>
      </trkpt>
      <trkpt lat="37.084133" lon="-8.924095">
        <ele>106.827</ele>
        <time>2018-12-27T15:56:24Z</time>
      </trkpt>
      <trkpt lat="37.084023" lon="-8.924055">
        <ele>106.368</ele>
        <time>2018-12-27T15:56:33Z</time>
      </trkpt>
      <trkpt lat="37.083897" lon="-8.924045">
        <ele>106.814</ele>
        <time>2018-12-27T15:56:43Z</time>
      </trkpt>
      <trkpt lat="37.083834" lon="-8.924015">
        <ele>106.808</ele>
        <time>2018-12-27T15:56:48Z</time>
      </trkpt>
      <trkpt lat="37.083795" lon="-8.923984">
        <ele>106.895</ele>
        <time>2018-12-27T15:56:52Z</time>
      </trkpt>
      <trkpt lat="37.083747" lon="-8.923941">
        <ele>106.843</ele>
        <time>2018-12-27T15:56:57Z</time>
      </trkpt>
      <trkpt lat="37.083711" lon="-8.923752">
        <ele>106.820</ele>
        <time>2018-12-27T15:57:11Z</time>
      </trkpt>
      <trkpt lat="37.083720" lon="-8.923530">
        <ele>105.464</ele>
        <time>2018-12-27T15:57:25Z</time>
      </trkpt>
      <trkpt lat="37.083724" lon="-8.923465">
        <ele>104.976</ele>
        <time>2018-12-27T15:57:29Z</time>
      </trkpt>
      <trkpt lat="37.083719" lon="-8.923279">
        <ele>103.081</ele>
        <time>2018-12-27T15:57:41Z</time>
      </trkpt>
      <trkpt lat="37.083713" lon="-8.923231">
        <ele>102.572</ele>
        <time>2018-12-27T15:57:54Z</time>
      </trkpt>
      <trkpt lat="37.083712" lon="-8.923174">
        <ele>102.070</ele>
        <time>2018-12-27T15:57:58Z</time>
      </trkpt>
      <trkpt lat="37.083700" lon="-8.923064">
        <ele>101.511</ele>
        <time>2018-12-27T15:58:05Z</time>
      </trkpt>
      <trkpt lat="37.083701" lon="-8.922973">
        <ele>100.621</ele>
        <time>2018-12-27T15:58:11Z</time>
      </trkpt>
      <trkpt lat="37.083695" lon="-8.922824">
        <ele>99.603</ele>
        <time>2018-12-27T15:58:21Z</time>
      </trkpt>
      <trkpt lat="37.083681" lon="-8.922743">
        <ele>99.608</ele>
        <time>2018-12-27T15:58:26Z</time>
      </trkpt>
      <trkpt lat="37.083663" lon="-8.922474">
        <ele>98.664</ele>
        <time>2018-12-27T15:58:44Z</time>
      </trkpt>
      <trkpt lat="37.083691" lon="-8.922288">
        <ele>97.272</ele>
        <time>2018-12-27T15:58:56Z</time>
      </trkpt>
      <trkpt lat="37.083705" lon="-8.922179">
        <ele>97.229</ele>
        <time>2018-12-27T15:59:03Z</time>
      </trkpt>
      <trkpt lat="37.083701" lon="-8.921924">
        <ele>96.283</ele>
        <time>2018-12-27T15:59:20Z</time>
      </trkpt>
      <trkpt lat="37.083700" lon="-8.921908">
        <ele>96.265</ele>
        <time>2018-12-27T15:59:21Z</time>
      </trkpt>
      <trkpt lat="37.083594" lon="-8.921622">
        <ele>93.870</ele>
        <time>2018-12-27T15:59:41Z</time>
      </trkpt>
      <trkpt lat="37.083480" lon="-8.921413">
        <ele>92.451</ele>
        <time>2018-12-27T15:59:57Z</time>
      </trkpt>
      <trkpt lat="37.083425" lon="-8.921289">
        <ele>91.419</ele>
        <time>2018-12-27T16:00:13Z</time>
      </trkpt>
      <trkpt lat="37.083425" lon="-8.921289">
        <ele>91.495</ele>
        <time>2018-12-27T16:00:14Z</time>
      </trkpt>
      <trkpt lat="37.083375" lon="-8.921165">
        <ele>90.949</ele>
        <time>2018-12-27T16:00:23Z</time>
      </trkpt>
      <trkpt lat="37.083363" lon="-8.921131">
        <ele>90.923</ele>
        <time>2018-12-27T16:00:25Z</time>
      </trkpt>
      <trkpt lat="37.083280" lon="-8.920899">
        <ele>90.008</ele>
        <time>2018-12-27T16:00:41Z</time>
      </trkpt>
      <trkpt lat="37.083275" lon="-8.920885">
        <ele>90.062</ele>
        <time>2018-12-27T16:00:42Z</time>
      </trkpt>
      <trkpt lat="37.083171" lon="-8.920669">
        <ele>88.540</ele>
        <time>2018-12-27T16:00:58Z</time>
      </trkpt>
      <trkpt lat="37.083118" lon="-8.920456">
        <ele>87.167</ele>
        <time>2018-12-27T16:01:13Z</time>
      </trkpt>
      <trkpt lat="37.083149" lon="-8.920349">
        <ele>87.131</ele>
        <time>2018-12-27T16:01:21Z</time>
      </trkpt>
      <trkpt lat="37.083155" lon="-8.920297">
        <ele>87.693</ele>
        <time>2018-12-27T16:01:30Z</time>
      </trkpt>
      <trkpt lat="37.083158" lon="-8.920283">
        <ele>87.178</ele>
        <time>2018-12-27T16:01:32Z</time>
      </trkpt>
      <trkpt lat="37.083191" lon="-8.920048">
        <ele>87.179</ele>
        <time>2018-12-27T16:01:48Z</time>
      </trkpt>
      <trkpt lat="37.083218" lon="-8.919944">
        <ele>87.137</ele>
        <time>2018-12-27T16:01:55Z</time>
      </trkpt>
      <trkpt lat="37.083241" lon="-8.919812">
        <ele>87.149</ele>
        <time>2018-12-27T16:02:03Z</time>
      </trkpt>
      <trkpt lat="37.083259" lon="-8.919605">
        <ele>88.102</ele>
        <time>2018-12-27T16:02:17Z</time>
      </trkpt>
      <trkpt lat="37.083302" lon="-8.919395">
        <ele>88.122</ele>
        <time>2018-12-27T16:02:31Z</time>
      </trkpt>
      <trkpt lat="37.083374" lon="-8.919263">
        <ele>89.008</ele>
        <time>2018-12-27T16:02:42Z</time>
      </trkpt>
      <trkpt lat="37.083512" lon="-8.919236">
        <ele>89.077</ele>
        <time>2018-12-27T16:02:54Z</time>
      </trkpt>
      <trkpt lat="37.083599" lon="-8.919227">
        <ele>89.015</ele>
        <time>2018-12-27T16:03:04Z</time>
      </trkpt>
      <trkpt lat="37.083640" lon="-8.919177">
        <ele>89.582</ele>
        <time>2018-12-27T16:03:09Z</time>
      </trkpt>
      <trkpt lat="37.083654" lon="-8.919057">
        <ele>89.096</ele>
        <time>2018-12-27T16:03:18Z</time>
      </trkpt>
      <trkpt lat="37.083639" lon="-8.918824">
        <ele>88.158</ele>
        <time>2018-12-27T16:03:34Z</time>
      </trkpt>
      <trkpt lat="37.083637" lon="-8.918712">
        <ele>88.163</ele>
        <time>2018-12-27T16:03:41Z</time>
      </trkpt>
      <trkpt lat="37.083601" lon="-8.918565">
        <ele>87.634</ele>
        <time>2018-12-27T16:03:53Z</time>
      </trkpt>
      <trkpt lat="37.083590" lon="-8.918513">
        <ele>87.622</ele>
        <time>2018-12-27T16:03:57Z</time>
      </trkpt>
      <trkpt lat="37.083594" lon="-8.918483">
        <ele>87.144</ele>
        <time>2018-12-27T16:03:59Z</time>
      </trkpt>
      <trkpt lat="37.083557" lon="-8.918368">
        <ele>87.105</ele>
        <time>2018-12-27T16:04:07Z</time>
      </trkpt>
      <trkpt lat="37.083547" lon="-8.918294">
        <ele>87.115</ele>
        <time>2018-12-27T16:04:12Z</time>
      </trkpt>
      <trkpt lat="37.083535" lon="-8.918234">
        <ele>87.108</ele>
        <time>2018-12-27T16:04:16Z</time>
      </trkpt>
      <trkpt lat="37.083504" lon="-8.918085">
        <ele>87.137</ele>
        <time>2018-12-27T16:04:26Z</time>
      </trkpt>
      <trkpt lat="37.083504" lon="-8.917909">
        <ele>86.635</ele>
        <time>2018-12-27T16:04:39Z</time>
      </trkpt>
      <trkpt lat="37.083481" lon="-8.917948">
        <ele>86.132</ele>
        <time>2018-12-27T16:04:42Z</time>
      </trkpt>
      <trkpt lat="37.083469" lon="-8.917982">
        <ele>86.136</ele>
        <time>2018-12-27T16:04:45Z</time>
      </trkpt>
      <trkpt lat="37.083454" lon="-8.917994">
        <ele>86.648</ele>
        <time>2018-12-27T16:04:59Z</time>
      </trkpt>
      <trkpt lat="37.083454" lon="-8.917994">
        <ele>87.173</ele>
        <time>2018-12-27T16:05:03Z</time>
      </trkpt>
      <trkpt lat="37.083481" lon="-8.917919">
        <ele>87.154</ele>
        <time>2018-12-27T16:05:10Z</time>
      </trkpt>
      <trkpt lat="37.083543" lon="-8.917712">
        <ele>87.192</ele>
        <time>2018-12-27T16:05:24Z</time>
      </trkpt>
      <trkpt lat="37.083566" lon="-8.917611">
        <ele>86.615</ele>
        <time>2018-12-27T16:05:31Z</time>
      </trkpt>
      <trkpt lat="37.083553" lon="-8.917371">
        <ele>86.665</ele>
        <time>2018-12-27T16:05:46Z</time>
      </trkpt>
      <trkpt lat="37.083498" lon="-8.917145">
        <ele>86.111</ele>
        <time>2018-12-27T16:06:01Z</time>
      </trkpt>
      <trkpt lat="37.083481" lon="-8.916994">
        <ele>86.108</ele>
        <time>2018-12-27T16:06:11Z</time>
      </trkpt>
      <trkpt lat="37.083481" lon="-8.916924">
        <ele>85.674</ele>
        <time>2018-12-27T16:06:16Z</time>
      </trkpt>
      <trkpt lat="37.083471" lon="-8.916799">
        <ele>85.212</ele>
        <time>2018-12-27T16:06:24Z</time>
      </trkpt>
      <trkpt lat="37.083449" lon="-8.916637">
        <ele>86.179</ele>
        <time>2018-12-27T16:06:35Z</time>
      </trkpt>
      <trkpt lat="37.083427" lon="-8.916519">
        <ele>86.133</ele>
        <time>2018-12-27T16:06:44Z</time>
      </trkpt>
      <trkpt lat="37.083386" lon="-8.916323">
        <ele>86.645</ele>
        <time>2018-12-27T16:06:58Z</time>
      </trkpt>
      <trkpt lat="37.083363" lon="-8.916084">
        <ele>87.130</ele>
        <time>2018-12-27T16:07:14Z</time>
      </trkpt>
      <trkpt lat="37.083348" lon="-8.915913">
        <ele>87.651</ele>
        <time>2018-12-27T16:07:25Z</time>
      </trkpt>
      <trkpt lat="37.083327" lon="-8.915672">
        <ele>89.039</ele>
        <time>2018-12-27T16:07:41Z</time>
      </trkpt>
      <trkpt lat="37.083317" lon="-8.915478">
        <ele>89.079</ele>
        <time>2018-12-27T16:07:54Z</time>
      </trkpt>
      <trkpt lat="37.083289" lon="-8.915329">
        <ele>89.505</ele>
        <time>2018-12-27T16:08:05Z</time>
      </trkpt>
      <trkpt lat="37.083237" lon="-8.915110">
        <ele>89.525</ele>
        <time>2018-12-27T16:08:19Z</time>
      </trkpt>
      <trkpt lat="37.083191" lon="-8.914932">
        <ele>90.008</ele>
        <time>2018-12-27T16:08:32Z</time>
      </trkpt>
      <trkpt lat="37.083167" lon="-8.914746">
        <ele>90.080</ele>
        <time>2018-12-27T16:08:45Z</time>
      </trkpt>
      <trkpt lat="37.083166" lon="-8.914532">
        <ele>90.058</ele>
        <time>2018-12-27T16:09:00Z</time>
      </trkpt>
      <trkpt lat="37.083189" lon="-8.914297">
        <ele>88.535</ele>
        <time>2018-12-27T16:09:16Z</time>
      </trkpt>
      <trkpt lat="37.083256" lon="-8.914089">
        <ele>87.169</ele>
        <time>2018-12-27T16:09:32Z</time>
      </trkpt>
      <trkpt lat="37.083322" lon="-8.913914">
        <ele>86.121</ele>
        <time>2018-12-27T16:09:45Z</time>
      </trkpt>
      <trkpt lat="37.083381" lon="-8.913770">
        <ele>85.636</ele>
        <time>2018-12-27T16:09:58Z</time>
      </trkpt>
      <trkpt lat="37.083380" lon="-8.913768">
        <ele>85.687</ele>
        <time>2018-12-27T16:10:00Z</time>
      </trkpt>
      <trkpt lat="37.083384" lon="-8.913806">
        <ele>85.655</ele>
        <time>2018-12-27T16:10:04Z</time>
      </trkpt>
      <trkpt lat="37.083412" lon="-8.913844">
        <ele>86.164</ele>
        <time>2018-12-27T16:10:08Z</time>
      </trkpt>
      <trkpt lat="37.083432" lon="-8.913898">
        <ele>86.606</ele>
        <time>2018-12-27T16:10:18Z</time>
      </trkpt>
      <trkpt lat="37.083439" lon="-8.913894">
        <ele>86.616</ele>
        <time>2018-12-27T16:10:32Z</time>
      </trkpt>
      <trkpt lat="37.083430" lon="-8.913832">
        <ele>86.608</ele>
        <time>2018-12-27T16:10:36Z</time>
      </trkpt>
      <trkpt lat="37.083440" lon="-8.913677">
        <ele>85.649</ele>
        <time>2018-12-27T16:10:49Z</time>
      </trkpt>
      <trkpt lat="37.083452" lon="-8.913583">
        <ele>85.257</ele>
        <time>2018-12-27T16:10:56Z</time>
      </trkpt>
      <trkpt lat="37.083473" lon="-8.913375">
        <ele>84.224</ele>
        <time>2018-12-27T16:11:12Z</time>
      </trkpt>
      <trkpt lat="37.083530" lon="-8.913223">
        <ele>83.268</ele>
        <time>2018-12-27T16:11:25Z</time>
      </trkpt>
      <trkpt lat="37.083583" lon="-8.913071">
        <ele>82.820</ele>
        <time>2018-12-27T16:11:40Z</time>
      </trkpt>
      <trkpt lat="37.083587" lon="-8.913064">
        <ele>82.875</ele>
        <time>2018-12-27T16:11:56Z</time>
      </trkpt>
      <trkpt lat="37.083616" lon="-8.913003">
        <ele>82.366</ele>
        <time>2018-12-27T16:12:02Z</time>
      </trkpt>
      <trkpt lat="37.083624" lon="-8.912912">
        <ele>81.834</ele>
        <time>2018-12-27T16:12:08Z</time>
      </trkpt>
      <trkpt lat="37.083593" lon="-8.912804">
        <ele>81.334</ele>
        <time>2018-12-27T16:12:17Z</time>
      </trkpt>
      <trkpt lat="37.083582" lon="-8.912769">
        <ele>81.355</ele>
        <time>2018-12-27T16:12:20Z</time>
      </trkpt>
      <trkpt lat="37.083570" lon="-8.912732">
        <ele>81.310</ele>
        <time>2018-12-27T16:12:23Z</time>
      </trkpt>
      <trkpt lat="37.083544" lon="-8.912676">
        <ele>80.808</ele>
        <time>2018-12-27T16:12:28Z</time>
      </trkpt>
      <trkpt lat="37.083472" lon="-8.912573">
        <ele>80.476</ele>
        <time>2018-12-27T16:12:39Z</time>
      </trkpt>
      <trkpt lat="37.083467" lon="-8.912544">
        <ele>80.464</ele>
        <time>2018-12-27T16:12:42Z</time>
      </trkpt>
      <trkpt lat="37.083450" lon="-8.912485">
        <ele>80.471</ele>
        <time>2018-12-27T16:12:54Z</time>
      </trkpt>
      <trkpt lat="37.083432" lon="-8.912470">
        <ele>80.435</ele>
        <time>2018-12-27T16:12:56Z</time>
      </trkpt>
      <trkpt lat="37.083385" lon="-8.912425">
        <ele>79.987</ele>
        <time>2018-12-27T16:13:09Z</time>
      </trkpt>
      <trkpt lat="37.083354" lon="-8.912398">
        <ele>80.442</ele>
        <time>2018-12-27T16:13:17Z</time>
      </trkpt>
      <trkpt lat="37.083326" lon="-8.912380">
        <ele>80.453</ele>
        <time>2018-12-27T16:13:29Z</time>
      </trkpt>
      <trkpt lat="37.083324" lon="-8.912378">
        <ele>79.991</ele>
        <time>2018-12-27T16:13:39Z</time>
      </trkpt>
      <trkpt lat="37.083293" lon="-8.912334">
        <ele>79.981</ele>
        <time>2018-12-27T16:13:43Z</time>
      </trkpt>
      <trkpt lat="37.083273" lon="-8.912250">
        <ele>80.461</ele>
        <time>2018-12-27T16:13:57Z</time>
      </trkpt>
      <trkpt lat="37.083267" lon="-8.912220">
        <ele>80.417</ele>
        <time>2018-12-27T16:14:10Z</time>
      </trkpt>
      <trkpt lat="37.083277" lon="-8.912207">
        <ele>80.408</ele>
        <time>2018-12-27T16:14:12Z</time>
      </trkpt>
      <trkpt lat="37.083304" lon="-8.912143">
        <ele>80.451</ele>
        <time>2018-12-27T16:14:25Z</time>
      </trkpt>
      <trkpt lat="37.083285" lon="-8.912124">
        <ele>80.899</ele>
        <time>2018-12-27T16:14:42Z</time>
      </trkpt>
      <trkpt lat="37.083197" lon="-8.912082">
        <ele>80.436</ele>
        <time>2018-12-27T16:14:53Z</time>
      </trkpt>
      <trkpt lat="37.083176" lon="-8.912081">
        <ele>80.420</ele>
        <time>2018-12-27T16:15:06Z</time>
      </trkpt>
      <trkpt lat="37.083176" lon="-8.912081">
        <ele>80.442</ele>
        <time>2018-12-27T16:15:23Z</time>
      </trkpt>
      <trkpt lat="37.083117" lon="-8.912057">
        <ele>80.427</ele>
        <time>2018-12-27T16:15:39Z</time>
      </trkpt>
      <trkpt lat="37.083020" lon="-8.911975">
        <ele>80.418</ele>
        <time>2018-12-27T16:15:48Z</time>
      </trkpt>
      <trkpt lat="37.082996" lon="-8.911976">
        <ele>80.486</ele>
        <time>2018-12-27T16:15:50Z</time>
      </trkpt>
      <trkpt lat="37.082857" lon="-8.911937">
        <ele>80.469</ele>
        <time>2018-12-27T16:16:05Z</time>
      </trkpt>
      <trkpt lat="37.082832" lon="-8.911881">
        <ele>80.404</ele>
        <time>2018-12-27T16:16:19Z</time>
      </trkpt>
      <trkpt lat="37.082829" lon="-8.911864">
        <ele>79.924</ele>
        <time>2018-12-27T16:16:21Z</time>
      </trkpt>
      <trkpt lat="37.082818" lon="-8.911814">
        <ele>80.408</ele>
        <time>2018-12-27T16:16:38Z</time>
      </trkpt>
      <trkpt lat="37.082818" lon="-8.911814">
        <ele>80.499</ele>
        <time>2018-12-27T16:17:04Z</time>
      </trkpt>
      <trkpt lat="37.082812" lon="-8.911809">
        <ele>80.467</ele>
        <time>2018-12-27T16:17:33Z</time>
      </trkpt>
      <trkpt lat="37.082807" lon="-8.911781">
        <ele>80.454</ele>
        <time>2018-12-27T16:17:36Z</time>
      </trkpt>
      <trkpt lat="37.082804" lon="-8.911738">
        <ele>80.418</ele>
        <time>2018-12-27T16:17:39Z</time>
      </trkpt>
      <trkpt lat="37.082789" lon="-8.911623">
        <ele>80.840</ele>
        <time>2018-12-27T16:17:47Z</time>
      </trkpt>
      <trkpt lat="37.082793" lon="-8.911506">
        <ele>81.885</ele>
        <time>2018-12-27T16:17:55Z</time>
      </trkpt>
      <trkpt lat="37.082770" lon="-8.911338">
        <ele>84.736</ele>
        <time>2018-12-27T16:18:08Z</time>
      </trkpt>
      <trkpt lat="37.082764" lon="-8.911236">
        <ele>85.284</ele>
        <time>2018-12-27T16:18:15Z</time>
      </trkpt>
      <trkpt lat="37.082762" lon="-8.911208">
        <ele>85.685</ele>
        <time>2018-12-27T16:18:17Z</time>
      </trkpt>
      <trkpt lat="37.082765" lon="-8.911093">
        <ele>86.189</ele>
        <time>2018-12-27T16:18:24Z</time>
      </trkpt>
      <trkpt lat="37.082755" lon="-8.910922">
        <ele>86.617</ele>
        <time>2018-12-27T16:18:38Z</time>
      </trkpt>
      <trkpt lat="37.082800" lon="-8.910749">
        <ele>88.108</ele>
        <time>2018-12-27T16:18:52Z</time>
      </trkpt>
      <trkpt lat="37.082802" lon="-8.910679">
        <ele>88.151</ele>
        <time>2018-12-27T16:18:56Z</time>
      </trkpt>
      <trkpt lat="37.082821" lon="-8.910562">
        <ele>89.049</ele>
        <time>2018-12-27T16:19:04Z</time>
      </trkpt>
      <trkpt lat="37.082890" lon="-8.910392">
        <ele>90.016</ele>
        <time>2018-12-27T16:19:15Z</time>
      </trkpt>
      <trkpt lat="37.082904" lon="-8.910350">
        <ele>90.520</ele>
        <time>2018-12-27T16:19:22Z</time>
      </trkpt>
      <trkpt lat="37.082924" lon="-8.910277">
        <ele>90.562</ele>
        <time>2018-12-27T16:19:27Z</time>
      </trkpt>
      <trkpt lat="37.082922" lon="-8.910213">
        <ele>90.967</ele>
        <time>2018-12-27T16:19:31Z</time>
      </trkpt>
      <trkpt lat="37.082966" lon="-8.910087">
        <ele>92.468</ele>
        <time>2018-12-27T16:19:40Z</time>
      </trkpt>
      <trkpt lat="37.082991" lon="-8.909935">
        <ele>93.366</ele>
        <time>2018-12-27T16:19:53Z</time>
      </trkpt>
      <trkpt lat="37.083010" lon="-8.909823">
        <ele>94.382</ele>
        <time>2018-12-27T16:20:02Z</time>
      </trkpt>
      <trkpt lat="37.083033" lon="-8.909777">
        <ele>94.343</ele>
        <time>2018-12-27T16:20:05Z</time>
      </trkpt>
      <trkpt lat="37.083026" lon="-8.909726">
        <ele>94.317</ele>
        <time>2018-12-27T16:20:09Z</time>
      </trkpt>
      <trkpt lat="37.083029" lon="-8.909557">
        <ele>94.808</ele>
        <time>2018-12-27T16:20:22Z</time>
      </trkpt>
      <trkpt lat="37.083033" lon="-8.909492">
        <ele>95.361</ele>
        <time>2018-12-27T16:20:35Z</time>
      </trkpt>
      <trkpt lat="37.083034" lon="-8.909480">
        <ele>95.319</ele>
        <time>2018-12-27T16:20:36Z</time>
      </trkpt>
      <trkpt lat="37.083030" lon="-8.909381">
        <ele>95.736</ele>
        <time>2018-12-27T16:20:44Z</time>
      </trkpt>
      <trkpt lat="37.082991" lon="-8.909348">
        <ele>95.730</ele>
        <time>2018-12-27T16:21:02Z</time>
      </trkpt>
      <trkpt lat="37.082999" lon="-8.909362">
        <ele>95.732</ele>
        <time>2018-12-27T16:21:26Z</time>
      </trkpt>
      <trkpt lat="37.082988" lon="-8.909368">
        <ele>95.727</ele>
        <time>2018-12-27T16:21:39Z</time>
      </trkpt>
      <trkpt lat="37.082956" lon="-8.909395">
        <ele>44.858</ele>
        <time>2018-12-28T07:36:50Z</time>
      </trkpt>
      <trkpt lat="37.082960" lon="-8.909393">
        <ele>44.352</ele>
        <time>2018-12-28T07:36:51Z</time>
      </trkpt>
      <trkpt lat="37.082970" lon="-8.909385">
        <ele>47.717</ele>
        <time>2018-12-28T07:36:59Z</time>
      </trkpt>
      <trkpt lat="37.082966" lon="-8.909391">
        <ele>50.608</ele>
        <time>2018-12-28T07:37:01Z</time>
      </trkpt>
      <trkpt lat="37.082966" lon="-8.909391">
        <ele>53.978</ele>
        <time>2018-12-28T07:37:03Z</time>
      </trkpt>
      <trkpt lat="37.082968" lon="-8.909389">
        <ele>58.366</ele>
        <time>2018-12-28T07:37:06Z</time>
      </trkpt>
      <trkpt lat="37.082971" lon="-8.909387">
        <ele>62.143</ele>
        <time>2018-12-28T07:37:09Z</time>
      </trkpt>
      <trkpt lat="37.082969" lon="-8.909397">
        <ele>65.578</ele>
        <time>2018-12-28T07:37:12Z</time>
      </trkpt>
      <trkpt lat="37.082972" lon="-8.909401">
        <ele>69.314</ele>
        <time>2018-12-28T07:37:16Z</time>
      </trkpt>
      <trkpt lat="37.082975" lon="-8.909401">
        <ele>72.715</ele>
        <time>2018-12-28T07:37:20Z</time>
      </trkpt>
      <trkpt lat="37.082976" lon="-8.909405">
        <ele>76.053</ele>
        <time>2018-12-28T07:37:24Z</time>
      </trkpt>
      <trkpt lat="37.082972" lon="-8.909396">
        <ele>78.939</ele>
        <time>2018-12-28T07:37:29Z</time>
      </trkpt>
      <trkpt lat="37.082969" lon="-8.909393">
        <ele>82.858</ele>
        <time>2018-12-28T07:37:34Z</time>
      </trkpt>
      <trkpt lat="37.082965" lon="-8.909391">
        <ele>84.752</ele>
        <time>2018-12-28T07:37:38Z</time>
      </trkpt>
      <trkpt lat="37.082962" lon="-8.909394">
        <ele>88.117</ele>
        <time>2018-12-28T07:37:45Z</time>
      </trkpt>
      <trkpt lat="37.082961" lon="-8.909394">
        <ele>88.508</ele>
        <time>2018-12-28T07:37:47Z</time>
      </trkpt>
      <trkpt lat="37.082970" lon="-8.909394">
        <ele>91.958</ele>
        <time>2018-12-28T07:37:57Z</time>
      </trkpt>
      <trkpt lat="37.082969" lon="-8.909396">
        <ele>94.896</ele>
        <time>2018-12-28T07:38:15Z</time>
      </trkpt>
      <trkpt lat="37.082986" lon="-8.909403">
        <ele>94.893</ele>
        <time>2018-12-28T07:38:18Z</time>
      </trkpt>
      <trkpt lat="37.083069" lon="-8.909435">
        <ele>95.318</ele>
        <time>2018-12-28T07:38:29Z</time>
      </trkpt>
      <trkpt lat="37.083098" lon="-8.909428">
        <ele>95.744</ele>
        <time>2018-12-28T07:38:49Z</time>
      </trkpt>
      <trkpt lat="37.083086" lon="-8.909431">
        <ele>95.375</ele>
        <time>2018-12-28T07:38:50Z</time>
      </trkpt>
      <trkpt lat="37.083064" lon="-8.909409">
        <ele>95.313</ele>
        <time>2018-12-28T07:39:08Z</time>
      </trkpt>
      <trkpt lat="37.083064" lon="-8.909409">
        <ele>94.899</ele>
        <time>2018-12-28T07:39:32Z</time>
      </trkpt>
      <trkpt lat="37.083061" lon="-8.909407">
        <ele>95.327</ele>
        <time>2018-12-28T07:39:54Z</time>
      </trkpt>
      <trkpt lat="37.083059" lon="-8.909389">
        <ele>95.368</ele>
        <time>2018-12-28T07:40:09Z</time>
      </trkpt>
      <trkpt lat="37.083058" lon="-8.909367">
        <ele>95.314</ele>
        <time>2018-12-28T07:40:23Z</time>
      </trkpt>
      <trkpt lat="37.083037" lon="-8.909307">
        <ele>95.308</ele>
        <time>2018-12-28T07:40:36Z</time>
      </trkpt>
      <trkpt lat="37.083030" lon="-8.909300">
        <ele>95.355</ele>
        <time>2018-12-28T07:40:52Z</time>
      </trkpt>
      <trkpt lat="37.083046" lon="-8.909283">
        <ele>95.323</ele>
        <time>2018-12-28T07:40:54Z</time>
      </trkpt>
      <trkpt lat="37.083062" lon="-8.909266">
        <ele>95.310</ele>
        <time>2018-12-28T07:40:56Z</time>
      </trkpt>
      <trkpt lat="37.083100" lon="-8.909262">
        <ele>95.395</ele>
        <time>2018-12-28T07:41:09Z</time>
      </trkpt>
      <trkpt lat="37.083109" lon="-8.909278">
        <ele>96.261</ele>
        <time>2018-12-28T07:41:14Z</time>
      </trkpt>
      <trkpt lat="37.083125" lon="-8.909294">
        <ele>95.772</ele>
        <time>2018-12-28T07:41:16Z</time>
      </trkpt>
      <trkpt lat="37.083214" lon="-8.909334">
        <ele>96.290</ele>
        <time>2018-12-28T07:41:27Z</time>
      </trkpt>
      <trkpt lat="37.083307" lon="-8.909347">
        <ele>96.776</ele>
        <time>2018-12-28T07:41:41Z</time>
      </trkpt>
      <trkpt lat="37.083307" lon="-8.909347">
        <ele>96.732</ele>
        <time>2018-12-28T07:41:59Z</time>
      </trkpt>
      <trkpt lat="37.083284" lon="-8.909345">
        <ele>96.292</ele>
        <time>2018-12-28T07:42:02Z</time>
      </trkpt>
      <trkpt lat="37.083266" lon="-8.909342">
        <ele>96.711</ele>
        <time>2018-12-28T07:42:04Z</time>
      </trkpt>
      <trkpt lat="37.083211" lon="-8.909337">
        <ele>96.208</ele>
        <time>2018-12-28T07:42:09Z</time>
      </trkpt>
      <trkpt lat="37.083130" lon="-8.909268">
        <ele>95.326</ele>
        <time>2018-12-28T07:42:18Z</time>
      </trkpt>
      <trkpt lat="37.083091" lon="-8.909286">
        <ele>95.344</ele>
        <time>2018-12-28T07:42:22Z</time>
      </trkpt>
      <trkpt lat="37.083030" lon="-8.909351">
        <ele>94.881</ele>
        <time>2018-12-28T07:42:29Z</time>
      </trkpt>
      <trkpt lat="37.082988" lon="-8.909385">
        <ele>95.346</ele>
        <time>2018-12-28T07:42:35Z</time>
      </trkpt>
      <trkpt lat="37.082963" lon="-8.909359">
        <ele>94.322</ele>
        <time>2018-12-28T07:42:51Z</time>
      </trkpt>
      <trkpt lat="37.082985" lon="-8.909315">
        <ele>94.893</ele>
        <time>2018-12-28T07:43:09Z</time>
      </trkpt>
      <trkpt lat="37.082994" lon="-8.909301">
        <ele>94.861</ele>
        <time>2018-12-28T07:43:11Z</time>
      </trkpt>
      <trkpt lat="37.083031" lon="-8.909279">
        <ele>94.837</ele>
        <time>2018-12-28T07:43:16Z</time>
      </trkpt>
      <trkpt lat="37.083079" lon="-8.909289">
        <ele>95.319</ele>
        <time>2018-12-28T07:43:21Z</time>
      </trkpt>
      <trkpt lat="37.083100" lon="-8.909295">
        <ele>95.309</ele>
        <time>2018-12-28T07:43:23Z</time>
      </trkpt>
      <trkpt lat="37.083180" lon="-8.909311">
        <ele>95.719</ele>
        <time>2018-12-28T07:43:31Z</time>
      </trkpt>
      <trkpt lat="37.083197" lon="-8.909322">
        <ele>95.708</ele>
        <time>2018-12-28T07:43:33Z</time>
      </trkpt>
      <trkpt lat="37.083227" lon="-8.909326">
        <ele>96.264</ele>
        <time>2018-12-28T07:43:36Z</time>
      </trkpt>
      <trkpt lat="37.083302" lon="-8.909395">
        <ele>96.212</ele>
        <time>2018-12-28T07:43:45Z</time>
      </trkpt>
      <trkpt lat="37.083326" lon="-8.909572">
        <ele>96.289</ele>
        <time>2018-12-28T07:43:58Z</time>
      </trkpt>
      <trkpt lat="37.083334" lon="-8.909702">
        <ele>95.734</ele>
        <time>2018-12-28T07:44:08Z</time>
      </trkpt>
      <trkpt lat="37.083326" lon="-8.909852">
        <ele>94.880</ele>
        <time>2018-12-28T07:44:21Z</time>
      </trkpt>
      <trkpt lat="37.083316" lon="-8.909905">
        <ele>94.871</ele>
        <time>2018-12-28T07:44:26Z</time>
      </trkpt>
      <trkpt lat="37.083313" lon="-8.909975">
        <ele>94.339</ele>
        <time>2018-12-28T07:44:32Z</time>
      </trkpt>
      <trkpt lat="37.083305" lon="-8.910004">
        <ele>93.875</ele>
        <time>2018-12-28T07:44:35Z</time>
      </trkpt>
      <trkpt lat="37.083285" lon="-8.910151">
        <ele>92.481</ele>
        <time>2018-12-28T07:44:49Z</time>
      </trkpt>
      <trkpt lat="37.083280" lon="-8.910161">
        <ele>91.961</ele>
        <time>2018-12-28T07:44:50Z</time>
      </trkpt>
      <trkpt lat="37.083262" lon="-8.910263">
        <ele>91.417</ele>
        <time>2018-12-28T07:44:58Z</time>
      </trkpt>
      <trkpt lat="37.083250" lon="-8.910277">
        <ele>91.408</ele>
        <time>2018-12-28T07:45:00Z</time>
      </trkpt>
      <trkpt lat="37.083261" lon="-8.910252">
        <ele>90.931</ele>
        <time>2018-12-28T07:45:03Z</time>
      </trkpt>
      <trkpt lat="37.083295" lon="-8.910171">
        <ele>92.449</ele>
        <time>2018-12-28T07:45:11Z</time>
      </trkpt>
      <trkpt lat="37.083425" lon="-8.910219">
        <ele>91.936</ele>
        <time>2018-12-28T07:45:25Z</time>
      </trkpt>
      <trkpt lat="37.083427" lon="-8.910292">
        <ele>91.481</ele>
        <time>2018-12-28T07:45:30Z</time>
      </trkpt>
      <trkpt lat="37.083442" lon="-8.910322">
        <ele>90.977</ele>
        <time>2018-12-28T07:45:33Z</time>
      </trkpt>
      <trkpt lat="37.083504" lon="-8.910406">
        <ele>90.538</ele>
        <time>2018-12-28T07:45:40Z</time>
      </trkpt>
      <trkpt lat="37.083518" lon="-8.910431">
        <ele>90.066</ele>
        <time>2018-12-28T07:45:42Z</time>
      </trkpt>
      <trkpt lat="37.083546" lon="-8.910463">
        <ele>90.092</ele>
        <time>2018-12-28T07:45:54Z</time>
      </trkpt>
      <trkpt lat="37.083579" lon="-8.910513">
        <ele>89.518</ele>
        <time>2018-12-28T07:45:58Z</time>
      </trkpt>
      <trkpt lat="37.083757" lon="-8.910612">
        <ele>89.598</ele>
        <time>2018-12-28T07:46:13Z</time>
      </trkpt>
      <trkpt lat="37.083884" lon="-8.910679">
        <ele>89.017</ele>
        <time>2018-12-28T07:46:25Z</time>
      </trkpt>
      <trkpt lat="37.083948" lon="-8.910727">
        <ele>88.508</ele>
        <time>2018-12-28T07:46:36Z</time>
      </trkpt>
      <trkpt lat="37.083963" lon="-8.910677">
        <ele>89.524</ele>
        <time>2018-12-28T07:46:51Z</time>
      </trkpt>
      <trkpt lat="37.083968" lon="-8.910679">
        <ele>89.532</ele>
        <time>2018-12-28T07:47:11Z</time>
      </trkpt>
      <trkpt lat="37.083966" lon="-8.910686">
        <ele>89.099</ele>
        <time>2018-12-28T07:47:25Z</time>
      </trkpt>
      <trkpt lat="37.083965" lon="-8.910690">
        <ele>89.074</ele>
        <time>2018-12-28T07:47:46Z</time>
      </trkpt>
      <trkpt lat="37.083965" lon="-8.910690">
        <ele>88.550</ele>
        <time>2018-12-28T07:47:57Z</time>
      </trkpt>
      <trkpt lat="37.084013" lon="-8.910727">
        <ele>88.131</ele>
        <time>2018-12-28T07:48:01Z</time>
      </trkpt>
      <trkpt lat="37.084050" lon="-8.910775">
        <ele>88.139</ele>
        <time>2018-12-28T07:48:05Z</time>
      </trkpt>
      <trkpt lat="37.084186" lon="-8.910911">
        <ele>86.625</ele>
        <time>2018-12-28T07:48:20Z</time>
      </trkpt>
      <trkpt lat="37.084286" lon="-8.910943">
        <ele>86.149</ele>
        <time>2018-12-28T07:48:32Z</time>
      </trkpt>
      <trkpt lat="37.084286" lon="-8.910943">
        <ele>86.602</ele>
        <time>2018-12-28T07:48:45Z</time>
      </trkpt>
      <trkpt lat="37.084328" lon="-8.910949">
        <ele>86.122</ele>
        <time>2018-12-28T07:48:49Z</time>
      </trkpt>
      <trkpt lat="37.084347" lon="-8.910963">
        <ele>86.108</ele>
        <time>2018-12-28T07:48:51Z</time>
      </trkpt>
      <trkpt lat="37.084375" lon="-8.910978">
        <ele>85.697</ele>
        <time>2018-12-28T07:48:54Z</time>
      </trkpt>
      <trkpt lat="37.084416" lon="-8.910988">
        <ele>85.645</ele>
        <time>2018-12-28T07:48:58Z</time>
      </trkpt>
      <trkpt lat="37.084512" lon="-8.911029">
        <ele>85.292</ele>
        <time>2018-12-28T07:49:07Z</time>
      </trkpt>
      <trkpt lat="37.084584" lon="-8.911036">
        <ele>85.227</ele>
        <time>2018-12-28T07:49:20Z</time>
      </trkpt>
      <trkpt lat="37.084606" lon="-8.911043">
        <ele>84.273</ele>
        <time>2018-12-28T07:49:31Z</time>
      </trkpt>
      <trkpt lat="37.084649" lon="-8.911064">
        <ele>84.254</ele>
        <time>2018-12-28T07:49:36Z</time>
      </trkpt>
      <trkpt lat="37.084787" lon="-8.911132">
        <ele>84.762</ele>
        <time>2018-12-28T07:49:50Z</time>
      </trkpt>
      <trkpt lat="37.084938" lon="-8.911153">
        <ele>85.248</ele>
        <time>2018-12-28T07:50:04Z</time>
      </trkpt>
      <trkpt lat="37.085108" lon="-8.911181">
        <ele>86.151</ele>
        <time>2018-12-28T07:50:19Z</time>
      </trkpt>
      <trkpt lat="37.085248" lon="-8.911177">
        <ele>87.101</ele>
        <time>2018-12-28T07:50:31Z</time>
      </trkpt>
      <trkpt lat="37.085337" lon="-8.911196">
        <ele>87.611</ele>
        <time>2018-12-28T07:50:39Z</time>
      </trkpt>
      <trkpt lat="37.085366" lon="-8.911200">
        <ele>87.608</ele>
        <time>2018-12-28T07:50:42Z</time>
      </trkpt>
      <trkpt lat="37.085514" lon="-8.911205">
        <ele>88.528</ele>
        <time>2018-12-28T07:50:55Z</time>
      </trkpt>
      <trkpt lat="37.085523" lon="-8.911207">
        <ele>89.086</ele>
        <time>2018-12-28T07:50:56Z</time>
      </trkpt>
      <trkpt lat="37.085627" lon="-8.911205">
        <ele>89.573</ele>
        <time>2018-12-28T07:51:04Z</time>
      </trkpt>
      <trkpt lat="37.085699" lon="-8.911207">
        <ele>90.018</ele>
        <time>2018-12-28T07:51:11Z</time>
      </trkpt>
      <trkpt lat="37.085885" lon="-8.911223">
        <ele>91.974</ele>
        <time>2018-12-28T07:51:26Z</time>
      </trkpt>
      <trkpt lat="37.085914" lon="-8.911217">
        <ele>91.985</ele>
        <time>2018-12-28T07:51:30Z</time>
      </trkpt>
      <trkpt lat="37.085938" lon="-8.911220">
        <ele>91.953</ele>
        <time>2018-12-28T07:51:33Z</time>
      </trkpt>
      <trkpt lat="37.085994" lon="-8.911237">
        <ele>92.479</ele>
        <time>2018-12-28T07:51:38Z</time>
      </trkpt>
      <trkpt lat="37.086044" lon="-8.911246">
        <ele>92.986</ele>
        <time>2018-12-28T07:51:42Z</time>
      </trkpt>
      <trkpt lat="37.086230" lon="-8.911268">
        <ele>93.860</ele>
        <time>2018-12-28T07:51:57Z</time>
      </trkpt>
      <trkpt lat="37.086348" lon="-8.911282">
        <ele>94.326</ele>
        <time>2018-12-28T07:52:07Z</time>
      </trkpt>
      <trkpt lat="37.086488" lon="-8.911304">
        <ele>95.708</ele>
        <time>2018-12-28T07:52:17Z</time>
      </trkpt>
      <trkpt lat="37.086552" lon="-8.911304">
        <ele>96.281</ele>
        <time>2018-12-28T07:52:23Z</time>
      </trkpt>
      <trkpt lat="37.086585" lon="-8.911304">
        <ele>96.719</ele>
        <time>2018-12-28T07:52:26Z</time>
      </trkpt>
      <trkpt lat="37.086637" lon="-8.911313">
        <ele>97.216</ele>
        <time>2018-12-28T07:52:30Z</time>
      </trkpt>
      <trkpt lat="37.086661" lon="-8.911317">
        <ele>97.771</ele>
        <time>2018-12-28T07:52:32Z</time>
      </trkpt>
      <trkpt lat="37.086716" lon="-8.911309">
        <ele>97.787</ele>
        <time>2018-12-28T07:52:36Z</time>
      </trkpt>
      <trkpt lat="37.086797" lon="-8.911312">
        <ele>99.128</ele>
        <time>2018-12-28T07:52:43Z</time>
      </trkpt>
      <trkpt lat="37.086850" lon="-8.911323">
        <ele>99.196</ele>
        <time>2018-12-28T07:52:48Z</time>
      </trkpt>
      <trkpt lat="37.086929" lon="-8.911338">
        <ele>100.162</ele>
        <time>2018-12-28T07:52:55Z</time>
      </trkpt>
      <trkpt lat="37.087055" lon="-8.911352">
        <ele>101.589</ele>
        <time>2018-12-28T07:53:07Z</time>
      </trkpt>
      <trkpt lat="37.087102" lon="-8.911330">
        <ele>102.506</ele>
        <time>2018-12-28T07:53:21Z</time>
      </trkpt>
      <trkpt lat="37.087115" lon="-8.911359">
        <ele>101.526</ele>
        <time>2018-12-28T07:53:24Z</time>
      </trkpt>
      <trkpt lat="37.087181" lon="-8.911378">
        <ele>103.408</ele>
        <time>2018-12-28T07:53:37Z</time>
      </trkpt>
      <trkpt lat="37.087188" lon="-8.911379">
        <ele>103.451</ele>
        <time>2018-12-28T07:54:03Z</time>
      </trkpt>
      <trkpt lat="37.087211" lon="-8.911380">
        <ele>103.089</ele>
        <time>2018-12-28T07:54:05Z</time>
      </trkpt>
      <trkpt lat="37.087262" lon="-8.911403">
        <ele>103.486</ele>
        <time>2018-12-28T07:54:10Z</time>
      </trkpt>
      <trkpt lat="37.087310" lon="-8.911419">
        <ele>104.481</ele>
        <time>2018-12-28T07:54:14Z</time>
      </trkpt>
      <trkpt lat="37.087392" lon="-8.911465">
        <ele>105.417</ele>
        <time>2018-12-28T07:54:21Z</time>
      </trkpt>
      <trkpt lat="37.087434" lon="-8.911480">
        <ele>105.848</ele>
        <time>2018-12-28T07:54:25Z</time>
      </trkpt>
      <trkpt lat="37.087497" lon="-8.911520">
        <ele>106.356</ele>
        <time>2018-12-28T07:54:31Z</time>
      </trkpt>
      <trkpt lat="37.087648" lon="-8.911617">
        <ele>108.222</ele>
        <time>2018-12-28T07:54:44Z</time>
      </trkpt>
      <trkpt lat="37.087729" lon="-8.911716">
        <ele>109.242</ele>
        <time>2018-12-28T07:54:53Z</time>
      </trkpt>
      <trkpt lat="37.087786" lon="-8.911781">
        <ele>110.222</ele>
        <time>2018-12-28T07:55:01Z</time>
      </trkpt>
      <trkpt lat="37.087882" lon="-8.911911">
        <ele>111.114</ele>
        <time>2018-12-28T07:55:13Z</time>
      </trkpt>
      <trkpt lat="37.087891" lon="-8.911918">
        <ele>111.608</ele>
        <time>2018-12-28T07:55:14Z</time>
      </trkpt>
      <trkpt lat="37.087962" lon="-8.911995">
        <ele>112.187</ele>
        <time>2018-12-28T07:55:22Z</time>
      </trkpt>
      <trkpt lat="37.088011" lon="-8.912015">
        <ele>112.655</ele>
        <time>2018-12-28T07:55:26Z</time>
      </trkpt>
      <trkpt lat="37.088090" lon="-8.912078">
        <ele>113.592</ele>
        <time>2018-12-28T07:55:34Z</time>
      </trkpt>
      <trkpt lat="37.088163" lon="-8.912118">
        <ele>114.567</ele>
        <time>2018-12-28T07:55:41Z</time>
      </trkpt>
      <trkpt lat="37.088205" lon="-8.912134">
        <ele>115.093</ele>
        <time>2018-12-28T07:55:45Z</time>
      </trkpt>
      <trkpt lat="37.088314" lon="-8.912145">
        <ele>115.994</ele>
        <time>2018-12-28T07:55:54Z</time>
      </trkpt>
      <trkpt lat="37.088360" lon="-8.912163">
        <ele>116.452</ele>
        <time>2018-12-28T07:55:58Z</time>
      </trkpt>
      <trkpt lat="37.088482" lon="-8.912158">
        <ele>116.988</ele>
        <time>2018-12-28T07:56:07Z</time>
      </trkpt>
      <trkpt lat="37.088500" lon="-8.912153">
        <ele>116.912</ele>
        <time>2018-12-28T07:56:09Z</time>
      </trkpt>
      <trkpt lat="37.088577" lon="-8.912161">
        <ele>117.432</ele>
        <time>2018-12-28T07:56:15Z</time>
      </trkpt>
      <trkpt lat="37.088633" lon="-8.912177">
        <ele>117.905</ele>
        <time>2018-12-28T07:56:19Z</time>
      </trkpt>
      <trkpt lat="37.088805" lon="-8.912160">
        <ele>118.308</ele>
        <time>2018-12-28T07:56:33Z</time>
      </trkpt>
      <trkpt lat="37.088931" lon="-8.912131">
        <ele>118.844</ele>
        <time>2018-12-28T07:56:44Z</time>
      </trkpt>
      <trkpt lat="37.089055" lon="-8.912119">
        <ele>119.822</ele>
        <time>2018-12-28T07:56:55Z</time>
      </trkpt>
      <trkpt lat="37.089174" lon="-8.912145">
        <ele>119.869</ele>
        <time>2018-12-28T07:57:05Z</time>
      </trkpt>
      <trkpt lat="37.089216" lon="-8.912179">
        <ele>120.374</ele>
        <time>2018-12-28T07:57:09Z</time>
      </trkpt>
      <trkpt lat="37.089277" lon="-8.912249">
        <ele>120.760</ele>
        <time>2018-12-28T07:57:16Z</time>
      </trkpt>
      <trkpt lat="37.089366" lon="-8.912312">
        <ele>120.761</ele>
        <time>2018-12-28T07:57:27Z</time>
      </trkpt>
      <trkpt lat="37.089386" lon="-8.912319">
        <ele>120.729</ele>
        <time>2018-12-28T07:57:29Z</time>
      </trkpt>
      <trkpt lat="37.089490" lon="-8.912360">
        <ele>121.265</ele>
        <time>2018-12-28T07:57:39Z</time>
      </trkpt>
      <trkpt lat="37.089522" lon="-8.912376">
        <ele>121.211</ele>
        <time>2018-12-28T07:57:42Z</time>
      </trkpt>
      <trkpt lat="37.089665" lon="-8.912403">
        <ele>122.721</ele>
        <time>2018-12-28T07:57:54Z</time>
      </trkpt>
      <trkpt lat="37.089786" lon="-8.912420">
        <ele>123.103</ele>
        <time>2018-12-28T07:58:04Z</time>
      </trkpt>
      <trkpt lat="37.089858" lon="-8.912445">
        <ele>123.608</ele>
        <time>2018-12-28T07:58:11Z</time>
      </trkpt>
      <trkpt lat="37.089879" lon="-8.912448">
        <ele>123.654</ele>
        <time>2018-12-28T07:58:13Z</time>
      </trkpt>
      <trkpt lat="37.089903" lon="-8.912455">
        <ele>123.642</ele>
        <time>2018-12-28T07:58:15Z</time>
      </trkpt>
      <trkpt lat="37.089953" lon="-8.912474">
        <ele>124.159</ele>
        <time>2018-12-28T07:58:20Z</time>
      </trkpt>
      <trkpt lat="37.090015" lon="-8.912494">
        <ele>124.164</ele>
        <time>2018-12-28T07:58:25Z</time>
      </trkpt>
      <trkpt lat="37.090132" lon="-8.912535">
        <ele>124.140</ele>
        <time>2018-12-28T07:58:34Z</time>
      </trkpt>
      <trkpt lat="37.090187" lon="-8.912552">
        <ele>123.641</ele>
        <time>2018-12-28T07:58:39Z</time>
      </trkpt>
      <trkpt lat="37.090215" lon="-8.912549">
        <ele>124.179</ele>
        <time>2018-12-28T07:58:42Z</time>
      </trkpt>
      <trkpt lat="37.090382" lon="-8.912543">
        <ele>124.175</ele>
        <time>2018-12-28T07:58:56Z</time>
      </trkpt>
      <trkpt lat="37.090550" lon="-8.912556">
        <ele>123.617</ele>
        <time>2018-12-28T07:59:09Z</time>
      </trkpt>
      <trkpt lat="37.090725" lon="-8.912565">
        <ele>124.187</ele>
        <time>2018-12-28T07:59:23Z</time>
      </trkpt>
      <trkpt lat="37.090880" lon="-8.912558">
        <ele>124.115</ele>
        <time>2018-12-28T07:59:35Z</time>
      </trkpt>
      <trkpt lat="37.091023" lon="-8.912549">
        <ele>124.108</ele>
        <time>2018-12-28T07:59:46Z</time>
      </trkpt>
      <trkpt lat="37.091060" lon="-8.912539">
        <ele>124.194</ele>
        <time>2018-12-28T07:59:49Z</time>
      </trkpt>
      <trkpt lat="37.091230" lon="-8.912506">
        <ele>123.612</ele>
        <time>2018-12-28T08:00:03Z</time>
      </trkpt>
      <trkpt lat="37.091391" lon="-8.912500">
        <ele>124.179</ele>
        <time>2018-12-28T08:00:15Z</time>
      </trkpt>
      <trkpt lat="37.091540" lon="-8.912515">
        <ele>124.674</ele>
        <time>2018-12-28T08:00:27Z</time>
      </trkpt>
      <trkpt lat="37.091693" lon="-8.912530">
        <ele>124.670</ele>
        <time>2018-12-28T08:00:39Z</time>
      </trkpt>
      <trkpt lat="37.091801" lon="-8.912528">
        <ele>124.681</ele>
        <time>2018-12-28T08:00:48Z</time>
      </trkpt>
      <trkpt lat="37.091852" lon="-8.912521">
        <ele>125.119</ele>
        <time>2018-12-28T08:00:52Z</time>
      </trkpt>
      <trkpt lat="37.091901" lon="-8.912533">
        <ele>124.665</ele>
        <time>2018-12-28T08:00:56Z</time>
      </trkpt>
      <trkpt lat="37.092040" lon="-8.912513">
        <ele>124.633</ele>
        <time>2018-12-28T08:01:08Z</time>
      </trkpt>
      <trkpt lat="37.092179" lon="-8.912492">
        <ele>124.623</ele>
        <time>2018-12-28T08:01:20Z</time>
      </trkpt>
      <trkpt lat="37.092316" lon="-8.912449">
        <ele>124.115</ele>
        <time>2018-12-28T08:01:32Z</time>
      </trkpt>
      <trkpt lat="37.092481" lon="-8.912406">
        <ele>125.108</ele>
        <time>2018-12-28T08:01:45Z</time>
      </trkpt>
      <trkpt lat="37.092561" lon="-8.912371">
        <ele>125.136</ele>
        <time>2018-12-28T08:01:52Z</time>
      </trkpt>
      <trkpt lat="37.092742" lon="-8.912372">
        <ele>125.134</ele>
        <time>2018-12-28T08:02:07Z</time>
      </trkpt>
      <trkpt lat="37.092852" lon="-8.912370">
        <ele>124.651</ele>
        <time>2018-12-28T08:02:16Z</time>
      </trkpt>
      <trkpt lat="37.093009" lon="-8.912347">
        <ele>124.656</ele>
        <time>2018-12-28T08:02:28Z</time>
      </trkpt>
      <trkpt lat="37.093039" lon="-8.912348">
        <ele>125.132</ele>
        <time>2018-12-28T08:02:31Z</time>
      </trkpt>
      <trkpt lat="37.093073" lon="-8.912351">
        <ele>124.673</ele>
        <time>2018-12-28T08:02:34Z</time>
      </trkpt>
      <trkpt lat="37.093271" lon="-8.912330">
        <ele>124.621</ele>
        <time>2018-12-28T08:02:49Z</time>
      </trkpt>
      <trkpt lat="37.093445" lon="-8.912297">
        <ele>124.647</ele>
        <time>2018-12-28T08:03:03Z</time>
      </trkpt>
      <trkpt lat="37.093597" lon="-8.912268">
        <ele>124.681</ele>
        <time>2018-12-28T08:03:15Z</time>
      </trkpt>
      <trkpt lat="37.093740" lon="-8.912273">
        <ele>124.661</ele>
        <time>2018-12-28T08:03:27Z</time>
      </trkpt>
      <trkpt lat="37.093853" lon="-8.912275">
        <ele>124.617</ele>
        <time>2018-12-28T08:03:36Z</time>
      </trkpt>
      <trkpt lat="37.094002" lon="-8.912325">
        <ele>124.608</ele>
        <time>2018-12-28T08:03:48Z</time>
      </trkpt>
      <trkpt lat="37.094069" lon="-8.912334">
        <ele>124.691</ele>
        <time>2018-12-28T08:03:53Z</time>
      </trkpt>
      <trkpt lat="37.094238" lon="-8.912356">
        <ele>123.679</ele>
        <time>2018-12-28T08:04:06Z</time>
      </trkpt>
      <trkpt lat="37.094380" lon="-8.912321">
        <ele>123.196</ele>
        <time>2018-12-28T08:04:17Z</time>
      </trkpt>
      <trkpt lat="37.094520" lon="-8.912244">
        <ele>122.741</ele>
        <time>2018-12-28T08:04:29Z</time>
      </trkpt>
      <trkpt lat="37.094676" lon="-8.912176">
        <ele>122.727</ele>
        <time>2018-12-28T08:04:42Z</time>
      </trkpt>
      <trkpt lat="37.094826" lon="-8.912110">
        <ele>123.178</ele>
        <time>2018-12-28T08:04:55Z</time>
      </trkpt>
      <trkpt lat="37.095012" lon="-8.912061">
        <ele>124.696</ele>
        <time>2018-12-28T08:05:10Z</time>
      </trkpt>
      <trkpt lat="37.095169" lon="-8.912025">
        <ele>124.662</ele>
        <time>2018-12-28T08:05:22Z</time>
      </trkpt>
      <trkpt lat="37.095344" lon="-8.911971">
        <ele>125.118</ele>
        <time>2018-12-28T08:05:36Z</time>
      </trkpt>
      <trkpt lat="37.095481" lon="-8.911938">
        <ele>125.198</ele>
        <time>2018-12-28T08:05:48Z</time>
      </trkpt>
      <trkpt lat="37.095636" lon="-8.911918">
        <ele>125.517</ele>
        <time>2018-12-28T08:06:01Z</time>
      </trkpt>
      <trkpt lat="37.095784" lon="-8.911880">
        <ele>125.108</ele>
        <time>2018-12-28T08:06:12Z</time>
      </trkpt>
      <trkpt lat="37.095939" lon="-8.911754">
        <ele>125.574</ele>
        <time>2018-12-28T08:06:26Z</time>
      </trkpt>
      <trkpt lat="37.096026" lon="-8.911666">
        <ele>125.162</ele>
        <time>2018-12-28T08:06:35Z</time>
      </trkpt>
      <trkpt lat="37.096138" lon="-8.911592">
        <ele>125.149</ele>
        <time>2018-12-28T08:06:45Z</time>
      </trkpt>
      <trkpt lat="37.096335" lon="-8.911533">
        <ele>125.514</ele>
        <time>2018-12-28T08:07:01Z</time>
      </trkpt>
      <trkpt lat="37.096461" lon="-8.911487">
        <ele>125.570</ele>
        <time>2018-12-28T08:07:12Z</time>
      </trkpt>
      <trkpt lat="37.096603" lon="-8.911432">
        <ele>125.541</ele>
        <time>2018-12-28T08:07:24Z</time>
      </trkpt>
      <trkpt lat="37.096791" lon="-8.911381">
        <ele>125.189</ele>
        <time>2018-12-28T08:07:39Z</time>
      </trkpt>
      <trkpt lat="37.096906" lon="-8.911343">
        <ele>125.575</ele>
        <time>2018-12-28T08:07:48Z</time>
      </trkpt>
      <trkpt lat="37.097051" lon="-8.911299">
        <ele>125.523</ele>
        <time>2018-12-28T08:08:00Z</time>
      </trkpt>
      <trkpt lat="37.097202" lon="-8.911241">
        <ele>126.583</ele>
        <time>2018-12-28T08:08:12Z</time>
      </trkpt>
      <trkpt lat="37.097373" lon="-8.911185">
        <ele>126.511</ele>
        <time>2018-12-28T08:08:26Z</time>
      </trkpt>
      <trkpt lat="37.097517" lon="-8.911137">
        <ele>126.508</ele>
        <time>2018-12-28T08:08:37Z</time>
      </trkpt>
      <trkpt lat="37.097539" lon="-8.911131">
        <ele>126.535</ele>
        <time>2018-12-28T08:08:39Z</time>
      </trkpt>
      <trkpt lat="37.097595" lon="-8.911104">
        <ele>127.083</ele>
        <time>2018-12-28T08:08:47Z</time>
      </trkpt>
      <trkpt lat="37.097618" lon="-8.911097">
        <ele>126.550</ele>
        <time>2018-12-28T08:08:49Z</time>
      </trkpt>
      <trkpt lat="37.097795" lon="-8.910991">
        <ele>127.065</ele>
        <time>2018-12-28T08:09:04Z</time>
      </trkpt>
      <trkpt lat="37.097843" lon="-8.910960">
        <ele>127.081</ele>
        <time>2018-12-28T08:09:09Z</time>
      </trkpt>
      <trkpt lat="37.097884" lon="-8.910925">
        <ele>126.572</ele>
        <time>2018-12-28T08:09:14Z</time>
      </trkpt>
      <trkpt lat="37.097928" lon="-8.910905">
        <ele>127.010</ele>
        <time>2018-12-28T08:09:19Z</time>
      </trkpt>
      <trkpt lat="37.097986" lon="-8.910884">
        <ele>127.026</ele>
        <time>2018-12-28T08:09:23Z</time>
      </trkpt>
      <trkpt lat="37.098162" lon="-8.910851">
        <ele>126.593</ele>
        <time>2018-12-28T08:09:36Z</time>
      </trkpt>
      <trkpt lat="37.098178" lon="-8.910849">
        <ele>126.565</ele>
        <time>2018-12-28T08:09:38Z</time>
      </trkpt>
      <trkpt lat="37.098278" lon="-8.910794">
        <ele>127.021</ele>
        <time>2018-12-28T08:09:46Z</time>
      </trkpt>
      <trkpt lat="37.098297" lon="-8.910786">
        <ele>127.008</ele>
        <time>2018-12-28T08:09:48Z</time>
      </trkpt>
      <trkpt lat="37.098428" lon="-8.910739">
        <ele>127.032</ele>
        <time>2018-12-28T08:09:59Z</time>
      </trkpt>
      <trkpt lat="37.098575" lon="-8.910685">
        <ele>127.080</ele>
        <time>2018-12-28T08:10:11Z</time>
      </trkpt>
      <trkpt lat="37.098745" lon="-8.910649">
        <ele>127.567</ele>
        <time>2018-12-28T08:10:25Z</time>
      </trkpt>
      <trkpt lat="37.098888" lon="-8.910644">
        <ele>127.512</ele>
        <time>2018-12-28T08:10:36Z</time>
      </trkpt>
      <trkpt lat="37.099056" lon="-8.910617">
        <ele>127.938</ele>
        <time>2018-12-28T08:10:49Z</time>
      </trkpt>
      <trkpt lat="37.099161" lon="-8.910617">
        <ele>127.939</ele>
        <time>2018-12-28T08:10:57Z</time>
      </trkpt>
      <trkpt lat="37.099220" lon="-8.910611">
        <ele>127.927</ele>
        <time>2018-12-28T08:11:01Z</time>
      </trkpt>
      <trkpt lat="37.099383" lon="-8.910601">
        <ele>127.983</ele>
        <time>2018-12-28T08:11:14Z</time>
      </trkpt>
      <trkpt lat="37.099545" lon="-8.910599">
        <ele>127.929</ele>
        <time>2018-12-28T08:11:27Z</time>
      </trkpt>
      <trkpt lat="37.099728" lon="-8.910579">
        <ele>128.400</ele>
        <time>2018-12-28T08:11:41Z</time>
      </trkpt>
      <trkpt lat="37.099896" lon="-8.910564">
        <ele>128.420</ele>
        <time>2018-12-28T08:11:55Z</time>
      </trkpt>
      <trkpt lat="37.100059" lon="-8.910531">
        <ele>128.408</ele>
        <time>2018-12-28T08:12:08Z</time>
      </trkpt>
      <trkpt lat="37.100215" lon="-8.910501">
        <ele>128.435</ele>
        <time>2018-12-28T08:12:21Z</time>
      </trkpt>
      <trkpt lat="37.100407" lon="-8.910469">
        <ele>128.463</ele>
        <time>2018-12-28T08:12:36Z</time>
      </trkpt>
      <trkpt lat="37.100569" lon="-8.910446">
        <ele>128.420</ele>
        <time>2018-12-28T08:12:49Z</time>
      </trkpt>
      <trkpt lat="37.100720" lon="-8.910424">
        <ele>128.455</ele>
        <time>2018-12-28T08:13:01Z</time>
      </trkpt>
      <trkpt lat="37.100895" lon="-8.910387">
        <ele>128.941</ele>
        <time>2018-12-28T08:13:15Z</time>
      </trkpt>
      <trkpt lat="37.101066" lon="-8.910333">
        <ele>128.472</ele>
        <time>2018-12-28T08:13:29Z</time>
      </trkpt>
      <trkpt lat="37.101229" lon="-8.910277">
        <ele>128.430</ele>
        <time>2018-12-28T08:13:41Z</time>
      </trkpt>
      <trkpt lat="37.101378" lon="-8.910157">
        <ele>128.986</ele>
        <time>2018-12-28T08:13:54Z</time>
      </trkpt>
      <trkpt lat="37.101516" lon="-8.910040">
        <ele>128.477</ele>
        <time>2018-12-28T08:14:07Z</time>
      </trkpt>
      <trkpt lat="37.101645" lon="-8.909931">
        <ele>128.461</ele>
        <time>2018-12-28T08:14:19Z</time>
      </trkpt>
      <trkpt lat="37.101681" lon="-8.909908">
        <ele>128.427</ele>
        <time>2018-12-28T08:14:22Z</time>
      </trkpt>
      <trkpt lat="37.101834" lon="-8.909763">
        <ele>128.908</ele>
        <time>2018-12-28T08:14:37Z</time>
      </trkpt>
      <trkpt lat="37.101991" lon="-8.909668">
        <ele>129.450</ele>
        <time>2018-12-28T08:14:51Z</time>
      </trkpt>
      <trkpt lat="37.102146" lon="-8.909542">
        <ele>129.438</ele>
        <time>2018-12-28T08:15:05Z</time>
      </trkpt>
      <trkpt lat="37.102290" lon="-8.909483">
        <ele>129.485</ele>
        <time>2018-12-28T08:15:17Z</time>
      </trkpt>
      <trkpt lat="37.102419" lon="-8.909404">
        <ele>128.910</ele>
        <time>2018-12-28T08:15:28Z</time>
      </trkpt>
      <trkpt lat="37.102573" lon="-8.909331">
        <ele>128.426</ele>
        <time>2018-12-28T08:15:41Z</time>
      </trkpt>
      <trkpt lat="37.102738" lon="-8.909223">
        <ele>127.977</ele>
        <time>2018-12-28T08:15:55Z</time>
      </trkpt>
      <trkpt lat="37.102812" lon="-8.909163">
        <ele>127.995</ele>
        <time>2018-12-28T08:16:02Z</time>
      </trkpt>
      <trkpt lat="37.102956" lon="-8.909035">
        <ele>127.571</ele>
        <time>2018-12-28T08:16:17Z</time>
      </trkpt>
      <trkpt lat="37.102957" lon="-8.909014">
        <ele>127.997</ele>
        <time>2018-12-28T08:16:22Z</time>
      </trkpt>
      <trkpt lat="37.102987" lon="-8.908993">
        <ele>127.923</ele>
        <time>2018-12-28T08:16:25Z</time>
      </trkpt>
      <trkpt lat="37.103065" lon="-8.908940">
        <ele>127.525</ele>
        <time>2018-12-28T08:16:31Z</time>
      </trkpt>
      <trkpt lat="37.103112" lon="-8.908905">
        <ele>127.508</ele>
        <time>2018-12-28T08:16:38Z</time>
      </trkpt>
      <trkpt lat="37.103263" lon="-8.908827">
        <ele>125.582</ele>
        <time>2018-12-28T08:16:51Z</time>
      </trkpt>
      <trkpt lat="37.103430" lon="-8.908752">
        <ele>124.680</ele>
        <time>2018-12-28T08:17:03Z</time>
      </trkpt>
      <trkpt lat="37.103593" lon="-8.908705">
        <ele>124.147</ele>
        <time>2018-12-28T08:17:15Z</time>
      </trkpt>
      <trkpt lat="37.103635" lon="-8.908699">
        <ele>123.622</ele>
        <time>2018-12-28T08:17:18Z</time>
      </trkpt>
      <trkpt lat="37.103740" lon="-8.908645">
        <ele>124.168</ele>
        <time>2018-12-28T08:17:26Z</time>
      </trkpt>
      <trkpt lat="37.103890" lon="-8.908585">
        <ele>124.159</ele>
        <time>2018-12-28T08:17:38Z</time>
      </trkpt>
      <trkpt lat="37.104058" lon="-8.908512">
        <ele>123.647</ele>
        <time>2018-12-28T08:17:52Z</time>
      </trkpt>
      <trkpt lat="37.104226" lon="-8.908437">
        <ele>124.663</ele>
        <time>2018-12-28T08:18:06Z</time>
      </trkpt>
      <trkpt lat="37.104404" lon="-8.908356">
        <ele>124.677</ele>
        <time>2018-12-28T08:18:20Z</time>
      </trkpt>
      <trkpt lat="37.104559" lon="-8.908289">
        <ele>125.161</ele>
        <time>2018-12-28T08:18:33Z</time>
      </trkpt>
      <trkpt lat="37.104674" lon="-8.908245">
        <ele>125.127</ele>
        <time>2018-12-28T08:18:42Z</time>
      </trkpt>
      <trkpt lat="37.104842" lon="-8.908133">
        <ele>125.108</ele>
        <time>2018-12-28T08:18:57Z</time>
      </trkpt>
      <trkpt lat="37.104910" lon="-8.908048">
        <ele>125.180</ele>
        <time>2018-12-28T08:19:05Z</time>
      </trkpt>
      <trkpt lat="37.105002" lon="-8.907905">
        <ele>126.038</ele>
        <time>2018-12-28T08:19:17Z</time>
      </trkpt>
      <trkpt lat="37.105091" lon="-8.907763">
        <ele>127.085</ele>
        <time>2018-12-28T08:19:28Z</time>
      </trkpt>
      <trkpt lat="37.105224" lon="-8.907649">
        <ele>127.960</ele>
        <time>2018-12-28T08:19:41Z</time>
      </trkpt>
      <trkpt lat="37.105355" lon="-8.907559">
        <ele>129.416</ele>
        <time>2018-12-28T08:19:53Z</time>
      </trkpt>
      <trkpt lat="37.105372" lon="-8.907548">
        <ele>129.967</ele>
        <time>2018-12-28T08:19:55Z</time>
      </trkpt>
      <trkpt lat="37.105487" lon="-8.907472">
        <ele>130.445</ele>
        <time>2018-12-28T08:20:06Z</time>
      </trkpt>
      <trkpt lat="37.105624" lon="-8.907408">
        <ele>131.331</ele>
        <time>2018-12-28T08:20:18Z</time>
      </trkpt>
      <trkpt lat="37.105822" lon="-8.907296">
        <ele>131.375</ele>
        <time>2018-12-28T08:20:35Z</time>
      </trkpt>
      <trkpt lat="37.105997" lon="-8.907209">
        <ele>130.828</ele>
        <time>2018-12-28T08:20:49Z</time>
      </trkpt>
      <trkpt lat="37.106171" lon="-8.907125">
        <ele>131.320</ele>
        <time>2018-12-28T08:21:03Z</time>
      </trkpt>
      <trkpt lat="37.106308" lon="-8.907043">
        <ele>131.308</ele>
        <time>2018-12-28T08:21:15Z</time>
      </trkpt>
      <trkpt lat="37.106471" lon="-8.906970">
        <ele>131.880</ele>
        <time>2018-12-28T08:21:28Z</time>
      </trkpt>
      <trkpt lat="37.106623" lon="-8.906899">
        <ele>131.838</ele>
        <time>2018-12-28T08:21:41Z</time>
      </trkpt>
      <trkpt lat="37.106686" lon="-8.906875">
        <ele>132.315</ele>
        <time>2018-12-28T08:21:46Z</time>
      </trkpt>
      <trkpt lat="37.106835" lon="-8.906803">
        <ele>132.860</ele>
        <time>2018-12-28T08:21:59Z</time>
      </trkpt>
      <trkpt lat="37.106839" lon="-8.906807">
        <ele>132.826</ele>
        <time>2018-12-28T08:22:18Z</time>
      </trkpt>
      <trkpt lat="37.106868" lon="-8.906798">
        <ele>132.347</ele>
        <time>2018-12-28T08:22:21Z</time>
      </trkpt>
      <trkpt lat="37.106889" lon="-8.906788">
        <ele>132.815</ele>
        <time>2018-12-28T08:22:32Z</time>
      </trkpt>
      <trkpt lat="37.106989" lon="-8.906736">
        <ele>132.851</ele>
        <time>2018-12-28T08:22:42Z</time>
      </trkpt>
      <trkpt lat="37.107133" lon="-8.906608">
        <ele>132.827</ele>
        <time>2018-12-28T08:22:56Z</time>
      </trkpt>
      <trkpt lat="37.107274" lon="-8.906496">
        <ele>133.268</ele>
        <time>2018-12-28T08:23:08Z</time>
      </trkpt>
      <trkpt lat="37.107308" lon="-8.906469">
        <ele>133.214</ele>
        <time>2018-12-28T08:23:11Z</time>
      </trkpt>
      <trkpt lat="37.107429" lon="-8.906340">
        <ele>133.208</ele>
        <time>2018-12-28T08:23:24Z</time>
      </trkpt>
      <trkpt lat="37.107583" lon="-8.906225">
        <ele>133.265</ele>
        <time>2018-12-28T08:23:37Z</time>
      </trkpt>
      <trkpt lat="37.107727" lon="-8.906139">
        <ele>133.743</ele>
        <time>2018-12-28T08:23:49Z</time>
      </trkpt>
      <trkpt lat="37.107832" lon="-8.906073">
        <ele>133.290</ele>
        <time>2018-12-28T08:23:59Z</time>
      </trkpt>
      <trkpt lat="37.107981" lon="-8.905958">
        <ele>133.755</ele>
        <time>2018-12-28T08:24:12Z</time>
      </trkpt>
      <trkpt lat="37.108094" lon="-8.905881">
        <ele>133.791</ele>
        <time>2018-12-28T08:24:27Z</time>
      </trkpt>
      <trkpt lat="37.108094" lon="-8.905881">
        <ele>133.212</ele>
        <time>2018-12-28T08:24:30Z</time>
      </trkpt>
      <trkpt lat="37.108169" lon="-8.905819">
        <ele>133.270</ele>
        <time>2018-12-28T08:24:37Z</time>
      </trkpt>
      <trkpt lat="37.108346" lon="-8.905664">
        <ele>132.836</ele>
        <time>2018-12-28T08:24:51Z</time>
      </trkpt>
      <trkpt lat="37.108493" lon="-8.905538">
        <ele>132.886</ele>
        <time>2018-12-28T08:25:05Z</time>
      </trkpt>
      <trkpt lat="37.108498" lon="-8.905538">
        <ele>133.260</ele>
        <time>2018-12-28T08:25:10Z</time>
      </trkpt>
      <trkpt lat="37.108545" lon="-8.905511">
        <ele>132.826</ele>
        <time>2018-12-28T08:25:14Z</time>
      </trkpt>
      <trkpt lat="37.108687" lon="-8.905438">
        <ele>133.208</ele>
        <time>2018-12-28T08:25:24Z</time>
      </trkpt>
      <trkpt lat="37.108851" lon="-8.905325">
        <ele>133.251</ele>
        <time>2018-12-28T08:25:37Z</time>
      </trkpt>
      <trkpt lat="37.108876" lon="-8.905309">
        <ele>133.289</ele>
        <time>2018-12-28T08:25:39Z</time>
      </trkpt>
      <trkpt lat="37.109041" lon="-8.905188">
        <ele>133.726</ele>
        <time>2018-12-28T08:25:53Z</time>
      </trkpt>
      <trkpt lat="37.109205" lon="-8.905055">
        <ele>133.791</ele>
        <time>2018-12-28T08:26:08Z</time>
      </trkpt>
      <trkpt lat="37.109360" lon="-8.904935">
        <ele>133.717</ele>
        <time>2018-12-28T08:26:22Z</time>
      </trkpt>
      <trkpt lat="37.109499" lon="-8.904854">
        <ele>134.798</ele>
        <time>2018-12-28T08:26:34Z</time>
      </trkpt>
      <trkpt lat="37.109648" lon="-8.904761">
        <ele>135.236</ele>
        <time>2018-12-28T08:26:47Z</time>
      </trkpt>
      <trkpt lat="37.109793" lon="-8.904665">
        <ele>135.212</ele>
        <time>2018-12-28T08:26:59Z</time>
      </trkpt>
      <trkpt lat="37.109952" lon="-8.904550">
        <ele>136.188</ele>
        <time>2018-12-28T08:27:14Z</time>
      </trkpt>
      <trkpt lat="37.110089" lon="-8.904434">
        <ele>136.124</ele>
        <time>2018-12-28T08:27:27Z</time>
      </trkpt>
      <trkpt lat="37.110226" lon="-8.904322">
        <ele>137.126</ele>
        <time>2018-12-28T08:27:39Z</time>
      </trkpt>
      <trkpt lat="37.110404" lon="-8.904200">
        <ele>137.108</ele>
        <time>2018-12-28T08:27:54Z</time>
      </trkpt>
      <trkpt lat="37.110551" lon="-8.904094">
        <ele>137.121</ele>
        <time>2018-12-28T08:28:07Z</time>
      </trkpt>
      <trkpt lat="37.110694" lon="-8.903997">
        <ele>137.149</ele>
        <time>2018-12-28T08:28:20Z</time>
      </trkpt>
      <trkpt lat="37.110861" lon="-8.903911">
        <ele>137.696</ele>
        <time>2018-12-28T08:28:34Z</time>
      </trkpt>
      <trkpt lat="37.111028" lon="-8.903812">
        <ele>137.151</ele>
        <time>2018-12-28T08:28:48Z</time>
      </trkpt>
      <trkpt lat="37.111194" lon="-8.903705">
        <ele>137.177</ele>
        <time>2018-12-28T08:29:03Z</time>
      </trkpt>
      <trkpt lat="37.111206" lon="-8.903695">
        <ele>137.188</ele>
        <time>2018-12-28T08:29:10Z</time>
      </trkpt>
      <trkpt lat="37.111287" lon="-8.903628">
        <ele>137.166</ele>
        <time>2018-12-28T08:29:18Z</time>
      </trkpt>
      <trkpt lat="37.111451" lon="-8.903461">
        <ele>136.672</ele>
        <time>2018-12-28T08:29:35Z</time>
      </trkpt>
      <trkpt lat="37.111621" lon="-8.903332">
        <ele>137.136</ele>
        <time>2018-12-28T08:29:50Z</time>
      </trkpt>
      <trkpt lat="37.111759" lon="-8.903197">
        <ele>137.117</ele>
        <time>2018-12-28T08:30:04Z</time>
      </trkpt>
      <trkpt lat="37.111897" lon="-8.903045">
        <ele>137.118</ele>
        <time>2018-12-28T08:30:18Z</time>
      </trkpt>
      <trkpt lat="37.112033" lon="-8.902881">
        <ele>137.608</ele>
        <time>2018-12-28T08:30:33Z</time>
      </trkpt>
      <trkpt lat="37.112169" lon="-8.902698">
        <ele>137.646</ele>
        <time>2018-12-28T08:30:49Z</time>
      </trkpt>
      <trkpt lat="37.112295" lon="-8.902547">
        <ele>137.164</ele>
        <time>2018-12-28T08:31:03Z</time>
      </trkpt>
      <trkpt lat="37.112421" lon="-8.902420">
        <ele>137.651</ele>
        <time>2018-12-28T08:31:16Z</time>
      </trkpt>
      <trkpt lat="37.112557" lon="-8.902287">
        <ele>137.636</ele>
        <time>2018-12-28T08:31:30Z</time>
      </trkpt>
      <trkpt lat="37.112684" lon="-8.902130">
        <ele>137.642</ele>
        <time>2018-12-28T08:31:45Z</time>
      </trkpt>
      <trkpt lat="37.112824" lon="-8.901993">
        <ele>137.613</ele>
        <time>2018-12-28T08:31:59Z</time>
      </trkpt>
      <trkpt lat="37.112969" lon="-8.901881">
        <ele>137.651</ele>
        <time>2018-12-28T08:32:12Z</time>
      </trkpt>
      <trkpt lat="37.113082" lon="-8.901813">
        <ele>137.697</ele>
        <time>2018-12-28T08:32:22Z</time>
      </trkpt>
      <trkpt lat="37.113124" lon="-8.901773">
        <ele>137.181</ele>
        <time>2018-12-28T08:32:26Z</time>
      </trkpt>
      <trkpt lat="37.113161" lon="-8.901753">
        <ele>137.161</ele>
        <time>2018-12-28T08:32:29Z</time>
      </trkpt>
      <trkpt lat="37.113332" lon="-8.901642">
        <ele>137.617</ele>
        <time>2018-12-28T08:32:44Z</time>
      </trkpt>
      <trkpt lat="37.113387" lon="-8.901602">
        <ele>137.608</ele>
        <time>2018-12-28T08:32:49Z</time>
      </trkpt>
      <trkpt lat="37.113538" lon="-8.901570">
        <ele>137.691</ele>
        <time>2018-12-28T08:33:01Z</time>
      </trkpt>
      <trkpt lat="37.113677" lon="-8.901573">
        <ele>137.189</ele>
        <time>2018-12-28T08:33:13Z</time>
      </trkpt>
      <trkpt lat="37.113825" lon="-8.901579">
        <ele>137.676</ele>
        <time>2018-12-28T08:33:24Z</time>
      </trkpt>
      <trkpt lat="37.113851" lon="-8.901581">
        <ele>137.171</ele>
        <time>2018-12-28T08:33:26Z</time>
      </trkpt>
      <trkpt lat="37.113931" lon="-8.901571">
        <ele>137.657</ele>
        <time>2018-12-28T08:33:32Z</time>
      </trkpt>
      <trkpt lat="37.114098" lon="-8.901559">
        <ele>137.668</ele>
        <time>2018-12-28T08:33:44Z</time>
      </trkpt>
      <trkpt lat="37.114248" lon="-8.901533">
        <ele>137.686</ele>
        <time>2018-12-28T08:33:56Z</time>
      </trkpt>
      <trkpt lat="37.114278" lon="-8.901522">
        <ele>138.042</ele>
        <time>2018-12-28T08:33:58Z</time>
      </trkpt>
      <trkpt lat="37.114378" lon="-8.901517">
        <ele>138.016</ele>
        <time>2018-12-28T08:34:06Z</time>
      </trkpt>
      <trkpt lat="37.114534" lon="-8.901507">
        <ele>138.076</ele>
        <time>2018-12-28T08:34:18Z</time>
      </trkpt>
      <trkpt lat="37.114698" lon="-8.901463">
        <ele>138.013</ele>
        <time>2018-12-28T08:34:31Z</time>
      </trkpt>
      <trkpt lat="37.114797" lon="-8.901427">
        <ele>138.008</ele>
        <time>2018-12-28T08:34:39Z</time>
      </trkpt>
      <trkpt lat="37.114976" lon="-8.901342">
        <ele>138.034</ele>
        <time>2018-12-28T08:34:53Z</time>
      </trkpt>
      <trkpt lat="37.114987" lon="-8.901340">
        <ele>138.082</ele>
        <time>2018-12-28T08:34:54Z</time>
      </trkpt>
      <trkpt lat="37.115074" lon="-8.901287">
        <ele>138.099</ele>
        <time>2018-12-28T08:35:01Z</time>
      </trkpt>
      <trkpt lat="37.115155" lon="-8.901230">
        <ele>138.064</ele>
        <time>2018-12-28T08:35:08Z</time>
      </trkpt>
      <trkpt lat="37.115337" lon="-8.901115">
        <ele>138.060</ele>
        <time>2018-12-28T08:35:23Z</time>
      </trkpt>
      <trkpt lat="37.115493" lon="-8.901025">
        <ele>137.621</ele>
        <time>2018-12-28T08:35:36Z</time>
      </trkpt>
      <trkpt lat="37.115505" lon="-8.901016">
        <ele>137.649</ele>
        <time>2018-12-28T08:35:37Z</time>
      </trkpt>
      <trkpt lat="37.115544" lon="-8.900973">
        <ele>137.625</ele>
        <time>2018-12-28T08:35:41Z</time>
      </trkpt>
      <trkpt lat="37.115719" lon="-8.900854">
        <ele>137.654</ele>
        <time>2018-12-28T08:35:56Z</time>
      </trkpt>
      <trkpt lat="37.115750" lon="-8.900827">
        <ele>137.656</ele>
        <time>2018-12-28T08:35:59Z</time>
      </trkpt>
      <trkpt lat="37.115908" lon="-8.900714">
        <ele>137.111</ele>
        <time>2018-12-28T08:36:12Z</time>
      </trkpt>
      <trkpt lat="37.116001" lon="-8.900667">
        <ele>137.608</ele>
        <time>2018-12-28T08:36:24Z</time>
      </trkpt>
      <trkpt lat="37.116086" lon="-8.900608">
        <ele>136.678</ele>
        <time>2018-12-28T08:36:35Z</time>
      </trkpt>
      <trkpt lat="37.116115" lon="-8.900597">
        <ele>136.646</ele>
        <time>2018-12-28T08:36:40Z</time>
      </trkpt>
      <trkpt lat="37.116170" lon="-8.900582">
        <ele>137.173</ele>
        <time>2018-12-28T08:36:45Z</time>
      </trkpt>
      <trkpt lat="37.116239" lon="-8.900531">
        <ele>136.658</ele>
        <time>2018-12-28T08:36:50Z</time>
      </trkpt>
      <trkpt lat="37.116266" lon="-8.900515">
        <ele>136.694</ele>
        <time>2018-12-28T08:36:52Z</time>
      </trkpt>
      <trkpt lat="37.116373" lon="-8.900454">
        <ele>137.195</ele>
        <time>2018-12-28T08:37:00Z</time>
      </trkpt>
      <trkpt lat="37.116497" lon="-8.900375">
        <ele>137.153</ele>
        <time>2018-12-28T08:37:11Z</time>
      </trkpt>
      <trkpt lat="37.116546" lon="-8.900352">
        <ele>137.159</ele>
        <time>2018-12-28T08:37:15Z</time>
      </trkpt>
      <trkpt lat="37.116701" lon="-8.900272">
        <ele>137.122</ele>
        <time>2018-12-28T08:37:26Z</time>
      </trkpt>
      <trkpt lat="37.116904" lon="-8.900129">
        <ele>136.662</ele>
        <time>2018-12-28T08:37:42Z</time>
      </trkpt>
      <trkpt lat="37.117026" lon="-8.900045">
        <ele>136.108</ele>
        <time>2018-12-28T08:37:52Z</time>
      </trkpt>
      <trkpt lat="37.117101" lon="-8.900012">
        <ele>136.608</ele>
        <time>2018-12-28T08:37:58Z</time>
      </trkpt>
      <trkpt lat="37.117132" lon="-8.899974">
        <ele>137.175</ele>
        <time>2018-12-28T08:38:01Z</time>
      </trkpt>
      <trkpt lat="37.117194" lon="-8.899892">
        <ele>136.663</ele>
        <time>2018-12-28T08:38:15Z</time>
      </trkpt>
      <trkpt lat="37.117191" lon="-8.899900">
        <ele>136.670</ele>
        <time>2018-12-28T08:38:29Z</time>
      </trkpt>
      <trkpt lat="37.117187" lon="-8.899902">
        <ele>136.135</ele>
        <time>2018-12-28T08:38:45Z</time>
      </trkpt>
      <trkpt lat="37.117187" lon="-8.899902">
        <ele>136.631</ele>
        <time>2018-12-28T08:39:05Z</time>
      </trkpt>
      <trkpt lat="37.117185" lon="-8.899902">
        <ele>136.612</ele>
        <time>2018-12-28T08:39:19Z</time>
      </trkpt>
      <trkpt lat="37.117175" lon="-8.899820">
        <ele>136.610</ele>
        <time>2018-12-28T08:39:31Z</time>
      </trkpt>
      <trkpt lat="37.117175" lon="-8.899820">
        <ele>136.676</ele>
        <time>2018-12-28T08:39:56Z</time>
      </trkpt>
      <trkpt lat="37.117175" lon="-8.899827">
        <ele>136.648</ele>
        <time>2018-12-28T08:40:21Z</time>
      </trkpt>
      <trkpt lat="37.117179" lon="-8.899835">
        <ele>136.661</ele>
        <time>2018-12-28T08:40:22Z</time>
      </trkpt>
      <trkpt lat="37.117193" lon="-8.899882">
        <ele>136.117</ele>
        <time>2018-12-28T08:40:29Z</time>
      </trkpt>
      <trkpt lat="37.117180" lon="-8.899899">
        <ele>136.108</ele>
        <time>2018-12-28T08:40:32Z</time>
      </trkpt>
      <trkpt lat="37.117167" lon="-8.899924">
        <ele>136.167</ele>
        <time>2018-12-28T08:40:34Z</time>
      </trkpt>
      <trkpt lat="37.117168" lon="-8.899965">
        <ele>136.665</ele>
        <time>2018-12-28T08:40:37Z</time>
      </trkpt>
      <trkpt lat="37.117195" lon="-8.899970">
        <ele>136.692</ele>
        <time>2018-12-28T08:40:42Z</time>
      </trkpt>
      <trkpt lat="37.117263" lon="-8.899981">
        <ele>136.167</ele>
        <time>2018-12-28T08:40:49Z</time>
      </trkpt>
      <trkpt lat="37.117321" lon="-8.899939">
        <ele>136.633</ele>
        <time>2018-12-28T08:40:56Z</time>
      </trkpt>
      <trkpt lat="37.117354" lon="-8.899938">
        <ele>136.164</ele>
        <time>2018-12-28T08:40:59Z</time>
      </trkpt>
      <trkpt lat="37.117481" lon="-8.899919">
        <ele>137.112</ele>
        <time>2018-12-28T08:41:12Z</time>
      </trkpt>
      <trkpt lat="37.117603" lon="-8.899852">
        <ele>137.148</ele>
        <time>2018-12-28T08:41:24Z</time>
      </trkpt>
      <trkpt lat="37.117619" lon="-8.899833">
        <ele>137.158</ele>
        <time>2018-12-28T08:41:26Z</time>
      </trkpt>
      <trkpt lat="37.117724" lon="-8.899747">
        <ele>137.652</ele>
        <time>2018-12-28T08:41:37Z</time>
      </trkpt>
      <trkpt lat="37.117828" lon="-8.899649">
        <ele>138.017</ele>
        <time>2018-12-28T08:41:48Z</time>
      </trkpt>
      <trkpt lat="37.117848" lon="-8.899628">
        <ele>138.008</ele>
        <time>2018-12-28T08:41:50Z</time>
      </trkpt>
      <trkpt lat="37.117906" lon="-8.899528">
        <ele>138.098</ele>
        <time>2018-12-28T08:41:59Z</time>
      </trkpt>
      <trkpt lat="37.117995" lon="-8.899422">
        <ele>138.096</ele>
        <time>2018-12-28T08:42:10Z</time>
      </trkpt>
      <trkpt lat="37.118000" lon="-8.899420">
        <ele>138.063</ele>
        <time>2018-12-28T08:42:12Z</time>
      </trkpt>
      <trkpt lat="37.118020" lon="-8.899402">
        <ele>138.098</ele>
        <time>2018-12-28T08:42:14Z</time>
      </trkpt>
      <trkpt lat="37.118112" lon="-8.899296">
        <ele>138.064</ele>
        <time>2018-12-28T08:42:25Z</time>
      </trkpt>
      <trkpt lat="37.118211" lon="-8.899197">
        <ele>138.515</ele>
        <time>2018-12-28T08:42:36Z</time>
      </trkpt>
      <trkpt lat="37.118382" lon="-8.899117">
        <ele>138.583</ele>
        <time>2018-12-28T08:42:51Z</time>
      </trkpt>
      <trkpt lat="37.118496" lon="-8.899015">
        <ele>138.589</ele>
        <time>2018-12-28T08:43:02Z</time>
      </trkpt>
      <trkpt lat="37.118588" lon="-8.898926">
        <ele>139.099</ele>
        <time>2018-12-28T08:43:12Z</time>
      </trkpt>
      <trkpt lat="37.118615" lon="-8.898897">
        <ele>139.007</ele>
        <time>2018-12-28T08:43:15Z</time>
      </trkpt>
      <trkpt lat="37.118741" lon="-8.898762">
        <ele>138.527</ele>
        <time>2018-12-28T08:43:29Z</time>
      </trkpt>
      <trkpt lat="37.118805" lon="-8.898695">
        <ele>138.508</ele>
        <time>2018-12-28T08:43:36Z</time>
      </trkpt>
      <trkpt lat="37.118925" lon="-8.898554">
        <ele>139.022</ele>
        <time>2018-12-28T08:43:50Z</time>
      </trkpt>
      <trkpt lat="37.119047" lon="-8.898441">
        <ele>138.520</ele>
        <time>2018-12-28T08:44:02Z</time>
      </trkpt>
      <trkpt lat="37.119182" lon="-8.898316">
        <ele>139.097</ele>
        <time>2018-12-28T08:44:16Z</time>
      </trkpt>
      <trkpt lat="37.119290" lon="-8.898206">
        <ele>138.562</ele>
        <time>2018-12-28T08:44:28Z</time>
      </trkpt>
      <trkpt lat="37.119439" lon="-8.898085">
        <ele>138.558</ele>
        <time>2018-12-28T08:44:42Z</time>
      </trkpt>
      <trkpt lat="37.119450" lon="-8.898079">
        <ele>138.579</ele>
        <time>2018-12-28T08:44:43Z</time>
      </trkpt>
      <trkpt lat="37.119529" lon="-8.898035">
        <ele>138.537</ele>
        <time>2018-12-28T08:44:50Z</time>
      </trkpt>
      <trkpt lat="37.119545" lon="-8.898015">
        <ele>138.013</ele>
        <time>2018-12-28T08:44:52Z</time>
      </trkpt>
      <trkpt lat="37.119574" lon="-8.897998">
        <ele>139.089</ele>
        <time>2018-12-28T08:44:55Z</time>
      </trkpt>
      <trkpt lat="37.119720" lon="-8.897873">
        <ele>138.506</ele>
        <time>2018-12-28T08:45:09Z</time>
      </trkpt>
      <trkpt lat="37.119834" lon="-8.897796">
        <ele>138.526</ele>
        <time>2018-12-28T08:45:20Z</time>
      </trkpt>
      <trkpt lat="37.119865" lon="-8.897771">
        <ele>139.008</ele>
        <time>2018-12-28T08:45:23Z</time>
      </trkpt>
      <trkpt lat="37.119892" lon="-8.897739">
        <ele>138.561</ele>
        <time>2018-12-28T08:45:26Z</time>
      </trkpt>
      <trkpt lat="37.119931" lon="-8.897708">
        <ele>139.069</ele>
        <time>2018-12-28T08:45:30Z</time>
      </trkpt>
      <trkpt lat="37.120091" lon="-8.897584">
        <ele>138.536</ele>
        <time>2018-12-28T08:45:47Z</time>
      </trkpt>
      <trkpt lat="37.120232" lon="-8.897537">
        <ele>138.071</ele>
        <time>2018-12-28T08:45:59Z</time>
      </trkpt>
      <trkpt lat="37.120320" lon="-8.897468">
        <ele>138.027</ele>
        <time>2018-12-28T08:46:08Z</time>
      </trkpt>
      <trkpt lat="37.120432" lon="-8.897351">
        <ele>137.698</ele>
        <time>2018-12-28T08:46:20Z</time>
      </trkpt>
      <trkpt lat="37.120529" lon="-8.897237">
        <ele>137.636</ele>
        <time>2018-12-28T08:46:31Z</time>
      </trkpt>
      <trkpt lat="37.120572" lon="-8.897205">
        <ele>137.692</ele>
        <time>2018-12-28T08:46:35Z</time>
      </trkpt>
      <trkpt lat="37.120612" lon="-8.897162">
        <ele>137.664</ele>
        <time>2018-12-28T08:46:40Z</time>
      </trkpt>
      <trkpt lat="37.120649" lon="-8.897147">
        <ele>137.606</ele>
        <time>2018-12-28T08:46:43Z</time>
      </trkpt>
      <trkpt lat="37.120699" lon="-8.897130">
        <ele>137.616</ele>
        <time>2018-12-28T08:46:52Z</time>
      </trkpt>
      <trkpt lat="37.120800" lon="-8.897068">
        <ele>137.608</ele>
        <time>2018-12-28T08:47:02Z</time>
      </trkpt>
      <trkpt lat="37.120898" lon="-8.896945">
        <ele>137.649</ele>
        <time>2018-12-28T08:47:14Z</time>
      </trkpt>
      <trkpt lat="37.120963" lon="-8.896889">
        <ele>138.027</ele>
        <time>2018-12-28T08:47:21Z</time>
      </trkpt>
      <trkpt lat="37.121067" lon="-8.896848">
        <ele>138.014</ele>
        <time>2018-12-28T08:47:30Z</time>
      </trkpt>
      <trkpt lat="37.121086" lon="-8.896839">
        <ele>138.049</ele>
        <time>2018-12-28T08:47:32Z</time>
      </trkpt>
      <trkpt lat="37.121169" lon="-8.896804">
        <ele>138.565</ele>
        <time>2018-12-28T08:47:39Z</time>
      </trkpt>
      <trkpt lat="37.121293" lon="-8.896764">
        <ele>138.066</ele>
        <time>2018-12-28T08:47:50Z</time>
      </trkpt>
      <trkpt lat="37.121431" lon="-8.896714">
        <ele>138.044</ele>
        <time>2018-12-28T08:48:02Z</time>
      </trkpt>
      <trkpt lat="37.121451" lon="-8.896703">
        <ele>138.070</ele>
        <time>2018-12-28T08:48:04Z</time>
      </trkpt>
      <trkpt lat="37.121505" lon="-8.896663">
        <ele>138.064</ele>
        <time>2018-12-28T08:48:09Z</time>
      </trkpt>
      <trkpt lat="37.121668" lon="-8.896597">
        <ele>138.006</ele>
        <time>2018-12-28T08:48:22Z</time>
      </trkpt>
      <trkpt lat="37.121696" lon="-8.896586">
        <ele>138.016</ele>
        <time>2018-12-28T08:48:24Z</time>
      </trkpt>
      <trkpt lat="37.121815" lon="-8.896545">
        <ele>138.008</ele>
        <time>2018-12-28T08:48:34Z</time>
      </trkpt>
      <trkpt lat="37.121990" lon="-8.896486">
        <ele>138.559</ele>
        <time>2018-12-28T08:48:48Z</time>
      </trkpt>
      <trkpt lat="37.122126" lon="-8.896443">
        <ele>138.587</ele>
        <time>2018-12-28T08:48:59Z</time>
      </trkpt>
      <trkpt lat="37.122305" lon="-8.896409">
        <ele>138.574</ele>
        <time>2018-12-28T08:49:13Z</time>
      </trkpt>
      <trkpt lat="37.122367" lon="-8.896392">
        <ele>138.089</ele>
        <time>2018-12-28T08:49:18Z</time>
      </trkpt>
      <trkpt lat="37.122481" lon="-8.896339">
        <ele>137.615</ele>
        <time>2018-12-28T08:49:27Z</time>
      </trkpt>
      <trkpt lat="37.122562" lon="-8.896330">
        <ele>137.676</ele>
        <time>2018-12-28T08:49:36Z</time>
      </trkpt>
      <trkpt lat="37.122585" lon="-8.896332">
        <ele>137.624</ele>
        <time>2018-12-28T08:49:38Z</time>
      </trkpt>
      <trkpt lat="37.122616" lon="-8.896333">
        <ele>137.640</ele>
        <time>2018-12-28T08:49:41Z</time>
      </trkpt>
      <trkpt lat="37.122625" lon="-8.896359">
        <ele>137.668</ele>
        <time>2018-12-28T08:49:57Z</time>
      </trkpt>
      <trkpt lat="37.122627" lon="-8.896355">
        <ele>137.642</ele>
        <time>2018-12-28T08:50:26Z</time>
      </trkpt>
      <trkpt lat="37.122627" lon="-8.896355">
        <ele>137.626</ele>
        <time>2018-12-28T08:50:33Z</time>
      </trkpt>
      <trkpt lat="37.122649" lon="-8.896332">
        <ele>137.608</ele>
        <time>2018-12-28T08:50:36Z</time>
      </trkpt>
      <trkpt lat="37.122672" lon="-8.896314">
        <ele>137.679</ele>
        <time>2018-12-28T08:50:51Z</time>
      </trkpt>
      <trkpt lat="37.122672" lon="-8.896314">
        <ele>137.657</ele>
        <time>2018-12-28T08:50:52Z</time>
      </trkpt>
      <trkpt lat="37.122744" lon="-8.896287">
        <ele>137.154</ele>
        <time>2018-12-28T08:50:58Z</time>
      </trkpt>
      <trkpt lat="37.122806" lon="-8.896258">
        <ele>137.189</ele>
        <time>2018-12-28T08:51:12Z</time>
      </trkpt>
      <trkpt lat="37.122806" lon="-8.896258">
        <ele>137.155</ele>
        <time>2018-12-28T08:51:20Z</time>
      </trkpt>
      <trkpt lat="37.122887" lon="-8.896237">
        <ele>136.636</ele>
        <time>2018-12-28T08:51:26Z</time>
      </trkpt>
      <trkpt lat="37.122940" lon="-8.896208">
        <ele>136.624</ele>
        <time>2018-12-28T08:51:30Z</time>
      </trkpt>
      <trkpt lat="37.123092" lon="-8.896154">
        <ele>137.170</ele>
        <time>2018-12-28T08:51:41Z</time>
      </trkpt>
      <trkpt lat="37.123273" lon="-8.896084">
        <ele>136.658</ele>
        <time>2018-12-28T08:51:56Z</time>
      </trkpt>
      <trkpt lat="37.123323" lon="-8.896067">
        <ele>136.652</ele>
        <time>2018-12-28T08:52:00Z</time>
      </trkpt>
      <trkpt lat="37.123378" lon="-8.896062">
        <ele>137.117</ele>
        <time>2018-12-28T08:52:05Z</time>
      </trkpt>
      <trkpt lat="37.123487" lon="-8.896021">
        <ele>137.108</ele>
        <time>2018-12-28T08:52:14Z</time>
      </trkpt>
      <trkpt lat="37.123580" lon="-8.896019">
        <ele>136.638</ele>
        <time>2018-12-28T08:52:21Z</time>
      </trkpt>
      <trkpt lat="37.123770" lon="-8.895933">
        <ele>137.156</ele>
        <time>2018-12-28T08:52:36Z</time>
      </trkpt>
      <trkpt lat="37.123895" lon="-8.895879">
        <ele>137.663</ele>
        <time>2018-12-28T08:52:47Z</time>
      </trkpt>
      <trkpt lat="37.124082" lon="-8.895877">
        <ele>136.698</ele>
        <time>2018-12-28T08:53:00Z</time>
      </trkpt>
      <trkpt lat="37.124102" lon="-8.895888">
        <ele>136.694</ele>
        <time>2018-12-28T08:53:02Z</time>
      </trkpt>
      <trkpt lat="37.124195" lon="-8.895943">
        <ele>137.155</ele>
        <time>2018-12-28T08:53:09Z</time>
      </trkpt>
      <trkpt lat="37.124338" lon="-8.896012">
        <ele>137.673</ele>
        <time>2018-12-28T08:53:21Z</time>
      </trkpt>
      <trkpt lat="37.124401" lon="-8.896037">
        <ele>137.619</ele>
        <time>2018-12-28T08:53:26Z</time>
      </trkpt>
      <trkpt lat="37.124455" lon="-8.896080">
        <ele>137.668</ele>
        <time>2018-12-28T08:53:31Z</time>
      </trkpt>
      <trkpt lat="37.124623" lon="-8.895998">
        <ele>137.642</ele>
        <time>2018-12-28T08:53:44Z</time>
      </trkpt>
      <trkpt lat="37.124649" lon="-8.895953">
        <ele>137.626</ele>
        <time>2018-12-28T08:53:47Z</time>
      </trkpt>
      <trkpt lat="37.124733" lon="-8.895720">
        <ele>138.008</ele>
        <time>2018-12-28T08:54:02Z</time>
      </trkpt>
      <trkpt lat="37.124847" lon="-8.895474">
        <ele>138.039</ele>
        <time>2018-12-28T08:54:19Z</time>
      </trkpt>
      <trkpt lat="37.124856" lon="-8.895462">
        <ele>138.047</ele>
        <time>2018-12-28T08:54:20Z</time>
      </trkpt>
      <trkpt lat="37.124893" lon="-8.895356">
        <ele>138.014</ele>
        <time>2018-12-28T08:54:27Z</time>
      </trkpt>
      <trkpt lat="37.124987" lon="-8.895158">
        <ele>138.019</ele>
        <time>2018-12-28T08:54:41Z</time>
      </trkpt>
      <trkpt lat="37.125082" lon="-8.894954">
        <ele>138.045</ele>
        <time>2018-12-28T08:54:55Z</time>
      </trkpt>
      <trkpt lat="37.125110" lon="-8.894853">
        <ele>138.066</ele>
        <time>2018-12-28T08:55:01Z</time>
      </trkpt>
      <trkpt lat="37.125131" lon="-8.894779">
        <ele>138.034</ele>
        <time>2018-12-28T08:55:06Z</time>
      </trkpt>
      <trkpt lat="37.125220" lon="-8.894561">
        <ele>138.060</ele>
        <time>2018-12-28T08:55:21Z</time>
      </trkpt>
      <trkpt lat="37.125282" lon="-8.894452">
        <ele>138.092</ele>
        <time>2018-12-28T08:55:29Z</time>
      </trkpt>
      <trkpt lat="37.125294" lon="-8.894428">
        <ele>138.073</ele>
        <time>2018-12-28T08:55:31Z</time>
      </trkpt>
      <trkpt lat="37.125346" lon="-8.894315">
        <ele>138.020</ele>
        <time>2018-12-28T08:55:39Z</time>
      </trkpt>
      <trkpt lat="37.125441" lon="-8.894062">
        <ele>138.008</ele>
        <time>2018-12-28T08:55:56Z</time>
      </trkpt>
      <trkpt lat="37.125500" lon="-8.893935">
        <ele>138.042</ele>
        <time>2018-12-28T08:56:05Z</time>
      </trkpt>
      <trkpt lat="37.125645" lon="-8.893729">
        <ele>138.520</ele>
        <time>2018-12-28T08:56:22Z</time>
      </trkpt>
      <trkpt lat="37.125708" lon="-8.893596">
        <ele>138.597</ele>
        <time>2018-12-28T08:56:31Z</time>
      </trkpt>
      <trkpt lat="37.125726" lon="-8.893485">
        <ele>138.532</ele>
        <time>2018-12-28T08:56:38Z</time>
      </trkpt>
      <trkpt lat="37.125779" lon="-8.893351">
        <ele>138.028</ele>
        <time>2018-12-28T08:56:47Z</time>
      </trkpt>
      <trkpt lat="37.125810" lon="-8.893278">
        <ele>138.579</ele>
        <time>2018-12-28T08:56:52Z</time>
      </trkpt>
      <trkpt lat="37.125856" lon="-8.893213">
        <ele>138.537</ele>
        <time>2018-12-28T08:56:57Z</time>
      </trkpt>
      <trkpt lat="37.125903" lon="-8.893040">
        <ele>138.553</ele>
        <time>2018-12-28T08:57:07Z</time>
      </trkpt>
      <trkpt lat="37.125935" lon="-8.892946">
        <ele>139.065</ele>
        <time>2018-12-28T08:57:13Z</time>
      </trkpt>
      <trkpt lat="37.125981" lon="-8.892846">
        <ele>139.068</ele>
        <time>2018-12-28T08:57:20Z</time>
      </trkpt>
      <trkpt lat="37.126100" lon="-8.892701">
        <ele>138.514</ele>
        <time>2018-12-28T08:57:33Z</time>
      </trkpt>
      <trkpt lat="37.126144" lon="-8.892616">
        <ele>139.008</ele>
        <time>2018-12-28T08:57:39Z</time>
      </trkpt>
      <trkpt lat="37.126195" lon="-8.892384">
        <ele>139.019</ele>
        <time>2018-12-28T08:57:53Z</time>
      </trkpt>
      <trkpt lat="37.126283" lon="-8.892196">
        <ele>139.027</ele>
        <time>2018-12-28T08:58:05Z</time>
      </trkpt>
      <trkpt lat="37.126322" lon="-8.892040">
        <ele>138.544</ele>
        <time>2018-12-28T08:58:16Z</time>
      </trkpt>
      <trkpt lat="37.126386" lon="-8.891938">
        <ele>138.529</ele>
        <time>2018-12-28T08:58:23Z</time>
      </trkpt>
      <trkpt lat="37.126443" lon="-8.891818">
        <ele>138.035</ele>
        <time>2018-12-28T08:58:32Z</time>
      </trkpt>
      <trkpt lat="37.126505" lon="-8.891749">
        <ele>137.616</ele>
        <time>2018-12-28T08:58:38Z</time>
      </trkpt>
      <trkpt lat="37.126547" lon="-8.891707">
        <ele>137.654</ele>
        <time>2018-12-28T08:58:43Z</time>
      </trkpt>
      <trkpt lat="37.126603" lon="-8.891670">
        <ele>137.650</ele>
        <time>2018-12-28T08:58:48Z</time>
      </trkpt>
      <trkpt lat="37.126759" lon="-8.891641">
        <ele>138.088</ele>
        <time>2018-12-28T08:59:00Z</time>
      </trkpt>
      <trkpt lat="37.126939" lon="-8.891640">
        <ele>138.024</ele>
        <time>2018-12-28T08:59:13Z</time>
      </trkpt>
      <trkpt lat="37.126998" lon="-8.891627">
        <ele>138.026</ele>
        <time>2018-12-28T08:59:18Z</time>
      </trkpt>
      <trkpt lat="37.127057" lon="-8.891622">
        <ele>138.008</ele>
        <time>2018-12-28T08:59:22Z</time>
      </trkpt>
      <trkpt lat="37.127159" lon="-8.891614">
        <ele>138.581</ele>
        <time>2018-12-28T08:59:30Z</time>
      </trkpt>
      <trkpt lat="37.127315" lon="-8.891621">
        <ele>138.539</ele>
        <time>2018-12-28T08:59:43Z</time>
      </trkpt>
      <trkpt lat="37.127504" lon="-8.891641">
        <ele>139.096</ele>
        <time>2018-12-28T08:59:57Z</time>
      </trkpt>
      <trkpt lat="37.127674" lon="-8.891651">
        <ele>139.011</ele>
        <time>2018-12-28T09:00:09Z</time>
      </trkpt>
      <trkpt lat="37.127835" lon="-8.891653">
        <ele>138.557</ele>
        <time>2018-12-28T09:00:21Z</time>
      </trkpt>
      <trkpt lat="37.127997" lon="-8.891655">
        <ele>138.598</ele>
        <time>2018-12-28T09:00:32Z</time>
      </trkpt>
      <trkpt lat="37.128097" lon="-8.891601">
        <ele>138.576</ele>
        <time>2018-12-28T09:00:40Z</time>
      </trkpt>
      <trkpt lat="37.128190" lon="-8.891652">
        <ele>138.522</ele>
        <time>2018-12-28T09:00:47Z</time>
      </trkpt>
      <trkpt lat="37.128373" lon="-8.891663">
        <ele>138.012</ele>
        <time>2018-12-28T09:01:01Z</time>
      </trkpt>
      <trkpt lat="37.128532" lon="-8.891692">
        <ele>138.532</ele>
        <time>2018-12-28T09:01:13Z</time>
      </trkpt>
      <trkpt lat="37.128544" lon="-8.891695">
        <ele>138.005</ele>
        <time>2018-12-28T09:01:14Z</time>
      </trkpt>
      <trkpt lat="37.128655" lon="-8.891705">
        <ele>138.508</ele>
        <time>2018-12-28T09:01:22Z</time>
      </trkpt>
      <trkpt lat="37.128717" lon="-8.891711">
        <ele>138.514</ele>
        <time>2018-12-28T09:01:27Z</time>
      </trkpt>
      <trkpt lat="37.128830" lon="-8.891713">
        <ele>138.532</ele>
        <time>2018-12-28T09:01:34Z</time>
      </trkpt>
      <trkpt lat="37.129017" lon="-8.891690">
        <ele>137.649</ele>
        <time>2018-12-28T09:01:48Z</time>
      </trkpt>
      <trkpt lat="37.129150" lon="-8.891646">
        <ele>137.134</ele>
        <time>2018-12-28T09:01:58Z</time>
      </trkpt>
      <trkpt lat="37.129303" lon="-8.891644">
        <ele>135.260</ele>
        <time>2018-12-28T09:02:09Z</time>
      </trkpt>
      <trkpt lat="37.129340" lon="-8.891631">
        <ele>134.211</ele>
        <time>2018-12-28T09:02:12Z</time>
      </trkpt>
      <trkpt lat="37.129376" lon="-8.891615">
        <ele>134.299</ele>
        <time>2018-12-28T09:02:15Z</time>
      </trkpt>
      <trkpt lat="37.129418" lon="-8.891586">
        <ele>133.765</ele>
        <time>2018-12-28T09:02:19Z</time>
      </trkpt>
      <trkpt lat="37.129608" lon="-8.891538">
        <ele>132.324</ele>
        <time>2018-12-28T09:02:34Z</time>
      </trkpt>
      <trkpt lat="37.129641" lon="-8.891551">
        <ele>132.304</ele>
        <time>2018-12-28T09:02:37Z</time>
      </trkpt>
      <trkpt lat="37.129689" lon="-8.891594">
        <ele>132.314</ele>
        <time>2018-12-28T09:02:41Z</time>
      </trkpt>
      <trkpt lat="37.129759" lon="-8.891667">
        <ele>133.208</ele>
        <time>2018-12-28T09:02:49Z</time>
      </trkpt>
      <trkpt lat="37.129869" lon="-8.891779">
        <ele>133.745</ele>
        <time>2018-12-28T09:02:59Z</time>
      </trkpt>
      <trkpt lat="37.129987" lon="-8.891848">
        <ele>135.293</ele>
        <time>2018-12-28T09:03:08Z</time>
      </trkpt>
      <trkpt lat="37.130090" lon="-8.891906">
        <ele>136.140</ele>
        <time>2018-12-28T09:03:17Z</time>
      </trkpt>
      <trkpt lat="37.130152" lon="-8.891938">
        <ele>135.645</ele>
        <time>2018-12-28T09:03:22Z</time>
      </trkpt>
      <trkpt lat="37.130228" lon="-8.892002">
        <ele>136.671</ele>
        <time>2018-12-28T09:03:29Z</time>
      </trkpt>
      <trkpt lat="37.130319" lon="-8.892066">
        <ele>136.682</ele>
        <time>2018-12-28T09:03:37Z</time>
      </trkpt>
      <trkpt lat="37.130402" lon="-8.892138">
        <ele>137.190</ele>
        <time>2018-12-28T09:03:45Z</time>
      </trkpt>
      <trkpt lat="37.130446" lon="-8.892161">
        <ele>137.656</ele>
        <time>2018-12-28T09:03:49Z</time>
      </trkpt>
      <trkpt lat="37.130538" lon="-8.892223">
        <ele>137.676</ele>
        <time>2018-12-28T09:03:57Z</time>
      </trkpt>
      <trkpt lat="37.130598" lon="-8.892290">
        <ele>137.690</ele>
        <time>2018-12-28T09:04:03Z</time>
      </trkpt>
      <trkpt lat="37.130719" lon="-8.892391">
        <ele>137.119</ele>
        <time>2018-12-28T09:04:15Z</time>
      </trkpt>
      <trkpt lat="37.130801" lon="-8.892452">
        <ele>137.108</ele>
        <time>2018-12-28T09:04:23Z</time>
      </trkpt>
      <trkpt lat="37.130837" lon="-8.892479">
        <ele>137.190</ele>
        <time>2018-12-28T09:04:26Z</time>
      </trkpt>
      <trkpt lat="37.130953" lon="-8.892589">
        <ele>137.628</ele>
        <time>2018-12-28T09:04:37Z</time>
      </trkpt>
      <trkpt lat="37.130960" lon="-8.892597">
        <ele>137.175</ele>
        <time>2018-12-28T09:04:38Z</time>
      </trkpt>
      <trkpt lat="37.130987" lon="-8.892622">
        <ele>137.610</ele>
        <time>2018-12-28T09:04:41Z</time>
      </trkpt>
      <trkpt lat="37.131029" lon="-8.892655">
        <ele>137.686</ele>
        <time>2018-12-28T09:04:45Z</time>
      </trkpt>
      <trkpt lat="37.131145" lon="-8.892785">
        <ele>137.637</ele>
        <time>2018-12-28T09:04:55Z</time>
      </trkpt>
      <trkpt lat="37.131173" lon="-8.892817">
        <ele>137.655</ele>
        <time>2018-12-28T09:04:58Z</time>
      </trkpt>
      <trkpt lat="37.131236" lon="-8.892864">
        <ele>137.681</ele>
        <time>2018-12-28T09:05:03Z</time>
      </trkpt>
      <trkpt lat="37.131311" lon="-8.892935">
        <ele>138.018</ele>
        <time>2018-12-28T09:05:10Z</time>
      </trkpt>
      <trkpt lat="37.131353" lon="-8.892951">
        <ele>138.098</ele>
        <time>2018-12-28T09:05:13Z</time>
      </trkpt>
      <trkpt lat="37.131401" lon="-8.892967">
        <ele>138.017</ele>
        <time>2018-12-28T09:05:17Z</time>
      </trkpt>
      <trkpt lat="37.131542" lon="-8.893053">
        <ele>138.508</ele>
        <time>2018-12-28T09:05:29Z</time>
      </trkpt>
      <trkpt lat="37.131685" lon="-8.893165">
        <ele>138.044</ele>
        <time>2018-12-28T09:05:42Z</time>
      </trkpt>
      <trkpt lat="37.131733" lon="-8.893187">
        <ele>137.622</ele>
        <time>2018-12-28T09:05:46Z</time>
      </trkpt>
      <trkpt lat="37.131817" lon="-8.893238">
        <ele>137.689</ele>
        <time>2018-12-28T09:05:53Z</time>
      </trkpt>
      <trkpt lat="37.131925" lon="-8.893289">
        <ele>137.614</ele>
        <time>2018-12-28T09:06:02Z</time>
      </trkpt>
      <trkpt lat="37.131940" lon="-8.893291">
        <ele>138.050</ele>
        <time>2018-12-28T09:06:03Z</time>
      </trkpt>
      <trkpt lat="37.132085" lon="-8.893410">
        <ele>138.011</ele>
        <time>2018-12-28T09:06:16Z</time>
      </trkpt>
      <trkpt lat="37.132193" lon="-8.893501">
        <ele>138.059</ele>
        <time>2018-12-28T09:06:26Z</time>
      </trkpt>
      <trkpt lat="37.132233" lon="-8.893515">
        <ele>138.055</ele>
        <time>2018-12-28T09:06:29Z</time>
      </trkpt>
      <trkpt lat="37.132351" lon="-8.893603">
        <ele>138.058</ele>
        <time>2018-12-28T09:06:39Z</time>
      </trkpt>
      <trkpt lat="37.132478" lon="-8.893678">
        <ele>137.652</ele>
        <time>2018-12-28T09:06:50Z</time>
      </trkpt>
      <trkpt lat="37.132554" lon="-8.893705">
        <ele>137.117</ele>
        <time>2018-12-28T09:06:56Z</time>
      </trkpt>
      <trkpt lat="37.132710" lon="-8.893768">
        <ele>137.608</ele>
        <time>2018-12-28T09:07:08Z</time>
      </trkpt>
      <trkpt lat="37.132732" lon="-8.893777">
        <ele>137.188</ele>
        <time>2018-12-28T09:07:10Z</time>
      </trkpt>
      <trkpt lat="37.132797" lon="-8.893818">
        <ele>137.666</ele>
        <time>2018-12-28T09:07:16Z</time>
      </trkpt>
      <trkpt lat="37.132852" lon="-8.893870">
        <ele>137.623</ele>
        <time>2018-12-28T09:07:21Z</time>
      </trkpt>
      <trkpt lat="37.132932" lon="-8.893907">
        <ele>137.618</ele>
        <time>2018-12-28T09:07:28Z</time>
      </trkpt>
      <trkpt lat="37.132964" lon="-8.893921">
        <ele>137.614</ele>
        <time>2018-12-28T09:07:30Z</time>
      </trkpt>
      <trkpt lat="37.133094" lon="-8.894020">
        <ele>137.685</ele>
        <time>2018-12-28T09:07:42Z</time>
      </trkpt>
      <trkpt lat="37.133159" lon="-8.894033">
        <ele>136.653</ele>
        <time>2018-12-28T09:07:47Z</time>
      </trkpt>
      <trkpt lat="37.133251" lon="-8.894038">
        <ele>136.199</ele>
        <time>2018-12-28T09:07:54Z</time>
      </trkpt>
      <trkpt lat="37.133378" lon="-8.893960">
        <ele>135.696</ele>
        <time>2018-12-28T09:08:05Z</time>
      </trkpt>
      <trkpt lat="37.133429" lon="-8.893897">
        <ele>135.231</ele>
        <time>2018-12-28T09:08:11Z</time>
      </trkpt>
      <trkpt lat="37.133588" lon="-8.893744">
        <ele>133.724</ele>
        <time>2018-12-28T09:08:27Z</time>
      </trkpt>
      <trkpt lat="37.133752" lon="-8.893648">
        <ele>132.808</ele>
        <time>2018-12-28T09:08:41Z</time>
      </trkpt>
      <trkpt lat="37.133808" lon="-8.893587">
        <ele>131.882</ele>
        <time>2018-12-28T09:08:47Z</time>
      </trkpt>
      <trkpt lat="37.133822" lon="-8.893482">
        <ele>131.370</ele>
        <time>2018-12-28T09:08:54Z</time>
      </trkpt>
      <trkpt lat="37.133854" lon="-8.893323">
        <ele>132.357</ele>
        <time>2018-12-28T09:09:05Z</time>
      </trkpt>
      <trkpt lat="37.133839" lon="-8.893277">
        <ele>132.862</ele>
        <time>2018-12-28T09:09:09Z</time>
      </trkpt>
      <trkpt lat="37.133830" lon="-8.893252">
        <ele>132.888</ele>
        <time>2018-12-28T09:09:11Z</time>
      </trkpt>
      <trkpt lat="37.133823" lon="-8.893228">
        <ele>132.829</ele>
        <time>2018-12-28T09:09:13Z</time>
      </trkpt>
      <trkpt lat="37.133810" lon="-8.893203">
        <ele>132.327</ele>
        <time>2018-12-28T09:09:15Z</time>
      </trkpt>
      <trkpt lat="37.133772" lon="-8.893097">
        <ele>130.483</ele>
        <time>2018-12-28T09:09:28Z</time>
      </trkpt>
      <trkpt lat="37.133771" lon="-8.893087">
        <ele>130.412</ele>
        <time>2018-12-28T09:09:35Z</time>
      </trkpt>
      <trkpt lat="37.133776" lon="-8.893055">
        <ele>129.432</ele>
        <time>2018-12-28T09:09:38Z</time>
      </trkpt>
      <trkpt lat="37.133790" lon="-8.892968">
        <ele>127.505</ele>
        <time>2018-12-28T09:09:44Z</time>
      </trkpt>
      <trkpt lat="37.133803" lon="-8.892917">
        <ele>126.508</ele>
        <time>2018-12-28T09:09:47Z</time>
      </trkpt>
      <trkpt lat="37.133859" lon="-8.892762">
        <ele>123.174</ele>
        <time>2018-12-28T09:09:58Z</time>
      </trkpt>
      <trkpt lat="37.133881" lon="-8.892657">
        <ele>121.232</ele>
        <time>2018-12-28T09:10:06Z</time>
      </trkpt>
      <trkpt lat="37.133884" lon="-8.892631">
        <ele>120.749</ele>
        <time>2018-12-28T09:10:08Z</time>
      </trkpt>
      <trkpt lat="37.133898" lon="-8.892584">
        <ele>119.364</ele>
        <time>2018-12-28T09:10:12Z</time>
      </trkpt>
      <trkpt lat="37.133924" lon="-8.892460">
        <ele>116.460</ele>
        <time>2018-12-28T09:10:22Z</time>
      </trkpt>
      <trkpt lat="37.133946" lon="-8.892394">
        <ele>115.071</ele>
        <time>2018-12-28T09:10:27Z</time>
      </trkpt>
      <trkpt lat="37.133965" lon="-8.892319">
        <ele>113.579</ele>
        <time>2018-12-28T09:10:38Z</time>
      </trkpt>
      <trkpt lat="37.133974" lon="-8.892282">
        <ele>113.065</ele>
        <time>2018-12-28T09:10:41Z</time>
      </trkpt>
      <trkpt lat="37.133998" lon="-8.892126">
        <ele>110.237</ele>
        <time>2018-12-28T09:10:51Z</time>
      </trkpt>
      <trkpt lat="37.133999" lon="-8.892082">
        <ele>108.749</ele>
        <time>2018-12-28T09:10:54Z</time>
      </trkpt>
      <trkpt lat="37.134013" lon="-8.892052">
        <ele>107.813</ele>
        <time>2018-12-28T09:11:06Z</time>
      </trkpt>
      <trkpt lat="37.134014" lon="-8.892000">
        <ele>107.308</ele>
        <time>2018-12-28T09:11:13Z</time>
      </trkpt>
      <trkpt lat="37.134073" lon="-8.891826">
        <ele>103.976</ele>
        <time>2018-12-28T09:11:26Z</time>
      </trkpt>
      <trkpt lat="37.134081" lon="-8.891670">
        <ele>101.524</ele>
        <time>2018-12-28T09:11:37Z</time>
      </trkpt>
      <trkpt lat="37.134071" lon="-8.891503">
        <ele>100.641</ele>
        <time>2018-12-28T09:11:49Z</time>
      </trkpt>
      <trkpt lat="37.134068" lon="-8.891417">
        <ele>99.136</ele>
        <time>2018-12-28T09:11:55Z</time>
      </trkpt>
      <trkpt lat="37.134103" lon="-8.891299">
        <ele>97.792</ele>
        <time>2018-12-28T09:12:04Z</time>
      </trkpt>
      <trkpt lat="37.134115" lon="-8.891254">
        <ele>97.723</ele>
        <time>2018-12-28T09:12:07Z</time>
      </trkpt>
      <trkpt lat="37.134112" lon="-8.891204">
        <ele>97.211</ele>
        <time>2018-12-28T09:12:10Z</time>
      </trkpt>
      <trkpt lat="37.134111" lon="-8.891032">
        <ele>93.857</ele>
        <time>2018-12-28T09:12:20Z</time>
      </trkpt>
      <trkpt lat="37.134111" lon="-8.891003">
        <ele>92.925</ele>
        <time>2018-12-28T09:12:22Z</time>
      </trkpt>
      <trkpt lat="37.134102" lon="-8.890854">
        <ele>90.526</ele>
        <time>2018-12-28T09:12:33Z</time>
      </trkpt>
      <trkpt lat="37.134099" lon="-8.890837">
        <ele>90.508</ele>
        <time>2018-12-28T09:12:34Z</time>
      </trkpt>
      <trkpt lat="37.134096" lon="-8.890768">
        <ele>89.508</ele>
        <time>2018-12-28T09:12:38Z</time>
      </trkpt>
      <trkpt lat="37.134090" lon="-8.890706">
        <ele>88.135</ele>
        <time>2018-12-28T09:12:42Z</time>
      </trkpt>
      <trkpt lat="37.134083" lon="-8.890647">
        <ele>87.693</ele>
        <time>2018-12-28T09:12:46Z</time>
      </trkpt>
      <trkpt lat="37.134053" lon="-8.890483">
        <ele>84.780</ele>
        <time>2018-12-28T09:12:56Z</time>
      </trkpt>
      <trkpt lat="37.134044" lon="-8.890449">
        <ele>84.235</ele>
        <time>2018-12-28T09:13:00Z</time>
      </trkpt>
      <trkpt lat="37.133983" lon="-8.890307">
        <ele>82.891</ele>
        <time>2018-12-28T09:13:11Z</time>
      </trkpt>
      <trkpt lat="37.133981" lon="-8.890297">
        <ele>82.832</ele>
        <time>2018-12-28T09:13:12Z</time>
      </trkpt>
      <trkpt lat="37.133948" lon="-8.890248">
        <ele>82.380</ele>
        <time>2018-12-28T09:13:17Z</time>
      </trkpt>
      <trkpt lat="37.133793" lon="-8.890240">
        <ele>79.926</ele>
        <time>2018-12-28T09:13:31Z</time>
      </trkpt>
      <trkpt lat="37.133748" lon="-8.890229">
        <ele>80.466</ele>
        <time>2018-12-28T09:13:36Z</time>
      </trkpt>
      <trkpt lat="37.133708" lon="-8.890247">
        <ele>81.329</ele>
        <time>2018-12-28T09:13:40Z</time>
      </trkpt>
      <trkpt lat="37.133626" lon="-8.890238">
        <ele>82.321</ele>
        <time>2018-12-28T09:13:48Z</time>
      </trkpt>
      <trkpt lat="37.133597" lon="-8.890222">
        <ele>82.808</ele>
        <time>2018-12-28T09:13:51Z</time>
      </trkpt>
      <trkpt lat="37.133515" lon="-8.890206">
        <ele>84.239</ele>
        <time>2018-12-28T09:13:58Z</time>
      </trkpt>
      <trkpt lat="37.133407" lon="-8.890204">
        <ele>84.717</ele>
        <time>2018-12-28T09:14:12Z</time>
      </trkpt>
      <trkpt lat="37.133347" lon="-8.890181">
        <ele>84.264</ele>
        <time>2018-12-28T09:14:27Z</time>
      </trkpt>
      <trkpt lat="37.133276" lon="-8.890146">
        <ele>85.229</ele>
        <time>2018-12-28T09:14:39Z</time>
      </trkpt>
      <trkpt lat="37.133201" lon="-8.890087">
        <ele>85.655</ele>
        <time>2018-12-28T09:14:51Z</time>
      </trkpt>
      <trkpt lat="37.133095" lon="-8.890008">
        <ele>85.686</ele>
        <time>2018-12-28T09:15:05Z</time>
      </trkpt>
      <trkpt lat="37.133068" lon="-8.889984">
        <ele>85.624</ele>
        <time>2018-12-28T09:15:15Z</time>
      </trkpt>
      <trkpt lat="37.133017" lon="-8.889924">
        <ele>85.620</ele>
        <time>2018-12-28T09:15:22Z</time>
      </trkpt>
      <trkpt lat="37.132957" lon="-8.889856">
        <ele>85.645</ele>
        <time>2018-12-28T09:15:28Z</time>
      </trkpt>
      <trkpt lat="37.132874" lon="-8.889721">
        <ele>86.647</ele>
        <time>2018-12-28T09:15:41Z</time>
      </trkpt>
      <trkpt lat="37.132857" lon="-8.889696">
        <ele>87.111</ele>
        <time>2018-12-28T09:15:43Z</time>
      </trkpt>
      <trkpt lat="37.132824" lon="-8.889630">
        <ele>87.108</ele>
        <time>2018-12-28T09:15:49Z</time>
      </trkpt>
      <trkpt lat="37.132810" lon="-8.889596">
        <ele>87.197</ele>
        <time>2018-12-28T09:15:52Z</time>
      </trkpt>
      <trkpt lat="37.132757" lon="-8.889494">
        <ele>86.685</ele>
        <time>2018-12-28T09:16:04Z</time>
      </trkpt>
      <trkpt lat="37.132759" lon="-8.889490">
        <ele>87.112</ele>
        <time>2018-12-28T09:16:14Z</time>
      </trkpt>
      <trkpt lat="37.132723" lon="-8.889344">
        <ele>85.617</ele>
        <time>2018-12-28T09:16:25Z</time>
      </trkpt>
      <trkpt lat="37.132696" lon="-8.889196">
        <ele>85.623</ele>
        <time>2018-12-28T09:16:38Z</time>
      </trkpt>
      <trkpt lat="37.132688" lon="-8.889164">
        <ele>85.624</ele>
        <time>2018-12-28T09:16:41Z</time>
      </trkpt>
      <trkpt lat="37.132665" lon="-8.889128">
        <ele>86.162</ele>
        <time>2018-12-28T09:16:52Z</time>
      </trkpt>
      <trkpt lat="37.132666" lon="-8.889113">
        <ele>86.148</ele>
        <time>2018-12-28T09:16:54Z</time>
      </trkpt>
      <trkpt lat="37.132640" lon="-8.889044">
        <ele>86.695</ele>
        <time>2018-12-28T09:16:59Z</time>
      </trkpt>
      <trkpt lat="37.132636" lon="-8.889002">
        <ele>86.649</ele>
        <time>2018-12-28T09:17:02Z</time>
      </trkpt>
      <trkpt lat="37.132625" lon="-8.888928">
        <ele>86.123</ele>
        <time>2018-12-28T09:17:07Z</time>
      </trkpt>
      <trkpt lat="37.132614" lon="-8.888890">
        <ele>85.608</ele>
        <time>2018-12-28T09:17:18Z</time>
      </trkpt>
      <trkpt lat="37.132609" lon="-8.888882">
        <ele>85.662</ele>
        <time>2018-12-28T09:17:23Z</time>
      </trkpt>
      <trkpt lat="37.132552" lon="-8.888791">
        <ele>85.610</ele>
        <time>2018-12-28T09:17:30Z</time>
      </trkpt>
      <trkpt lat="37.132430" lon="-8.888670">
        <ele>85.687</ele>
        <time>2018-12-28T09:17:42Z</time>
      </trkpt>
      <trkpt lat="37.132427" lon="-8.888659">
        <ele>85.262</ele>
        <time>2018-12-28T09:17:43Z</time>
      </trkpt>
      <trkpt lat="37.132383" lon="-8.888623">
        <ele>86.188</ele>
        <time>2018-12-28T09:17:47Z</time>
      </trkpt>
      <trkpt lat="37.132366" lon="-8.888455">
        <ele>87.119</ele>
        <time>2018-12-28T09:17:57Z</time>
      </trkpt>
      <trkpt lat="37.132358" lon="-8.888437">
        <ele>87.117</ele>
        <time>2018-12-28T09:17:58Z</time>
      </trkpt>
      <trkpt lat="37.132342" lon="-8.888367">
        <ele>88.163</ele>
        <time>2018-12-28T09:18:03Z</time>
      </trkpt>
      <trkpt lat="37.132320" lon="-8.888278">
        <ele>88.169</ele>
        <time>2018-12-28T09:18:09Z</time>
      </trkpt>
      <trkpt lat="37.132271" lon="-8.888172">
        <ele>88.504</ele>
        <time>2018-12-28T09:18:16Z</time>
      </trkpt>
      <trkpt lat="37.132248" lon="-8.888072">
        <ele>88.524</ele>
        <time>2018-12-28T09:18:24Z</time>
      </trkpt>
      <trkpt lat="37.132216" lon="-8.887994">
        <ele>89.508</ele>
        <time>2018-12-28T09:18:34Z</time>
      </trkpt>
      <trkpt lat="37.132206" lon="-8.887967">
        <ele>89.059</ele>
        <time>2018-12-28T09:18:36Z</time>
      </trkpt>
      <trkpt lat="37.132195" lon="-8.887928">
        <ele>89.527</ele>
        <time>2018-12-28T09:18:39Z</time>
      </trkpt>
      <trkpt lat="37.132131" lon="-8.887784">
        <ele>90.024</ele>
        <time>2018-12-28T09:18:50Z</time>
      </trkpt>
      <trkpt lat="37.132126" lon="-8.887769">
        <ele>90.099</ele>
        <time>2018-12-28T09:18:51Z</time>
      </trkpt>
      <trkpt lat="37.132097" lon="-8.887728">
        <ele>90.055</ele>
        <time>2018-12-28T09:18:54Z</time>
      </trkpt>
      <trkpt lat="37.132049" lon="-8.887622">
        <ele>90.596</ele>
        <time>2018-12-28T09:19:04Z</time>
      </trkpt>
      <trkpt lat="37.132049" lon="-8.887614">
        <ele>90.954</ele>
        <time>2018-12-28T09:19:22Z</time>
      </trkpt>
      <trkpt lat="37.132045" lon="-8.887602">
        <ele>90.960</ele>
        <time>2018-12-28T09:19:31Z</time>
      </trkpt>
      <trkpt lat="37.132013" lon="-8.887537">
        <ele>90.919</ele>
        <time>2018-12-28T09:19:36Z</time>
      </trkpt>
      <trkpt lat="37.132017" lon="-8.887471">
        <ele>90.909</ele>
        <time>2018-12-28T09:19:40Z</time>
      </trkpt>
      <trkpt lat="37.131998" lon="-8.887371">
        <ele>91.919</ele>
        <time>2018-12-28T09:19:46Z</time>
      </trkpt>
      <trkpt lat="37.131983" lon="-8.887290">
        <ele>91.908</ele>
        <time>2018-12-28T09:19:51Z</time>
      </trkpt>
      <trkpt lat="37.131909" lon="-8.887101">
        <ele>92.454</ele>
        <time>2018-12-28T09:20:03Z</time>
      </trkpt>
      <trkpt lat="37.131885" lon="-8.887052">
        <ele>93.322</ele>
        <time>2018-12-28T09:20:16Z</time>
      </trkpt>
      <trkpt lat="37.131886" lon="-8.887015">
        <ele>92.989</ele>
        <time>2018-12-28T09:20:20Z</time>
      </trkpt>
      <trkpt lat="37.131894" lon="-8.886899">
        <ele>92.954</ele>
        <time>2018-12-28T09:20:28Z</time>
      </trkpt>
      <trkpt lat="37.131916" lon="-8.886769">
        <ele>92.470</ele>
        <time>2018-12-28T09:20:37Z</time>
      </trkpt>
      <trkpt lat="37.131931" lon="-8.886711">
        <ele>91.951</ele>
        <time>2018-12-28T09:20:41Z</time>
      </trkpt>
      <trkpt lat="37.131957" lon="-8.886634">
        <ele>90.989</ele>
        <time>2018-12-28T09:20:47Z</time>
      </trkpt>
      <trkpt lat="37.131966" lon="-8.886579">
        <ele>90.525</ele>
        <time>2018-12-28T09:20:52Z</time>
      </trkpt>
      <trkpt lat="37.131959" lon="-8.886545">
        <ele>90.098</ele>
        <time>2018-12-28T09:20:55Z</time>
      </trkpt>
      <trkpt lat="37.131947" lon="-8.886463">
        <ele>89.515</ele>
        <time>2018-12-28T09:21:07Z</time>
      </trkpt>
      <trkpt lat="37.131942" lon="-8.886436">
        <ele>90.526</ele>
        <time>2018-12-28T09:21:13Z</time>
      </trkpt>
      <trkpt lat="37.131945" lon="-8.886290">
        <ele>92.908</ele>
        <time>2018-12-28T09:21:26Z</time>
      </trkpt>
      <trkpt lat="37.131938" lon="-8.886247">
        <ele>93.332</ele>
        <time>2018-12-28T09:21:41Z</time>
      </trkpt>
      <trkpt lat="37.131950" lon="-8.886225">
        <ele>93.310</ele>
        <time>2018-12-28T09:21:44Z</time>
      </trkpt>
      <trkpt lat="37.131918" lon="-8.886069">
        <ele>93.867</ele>
        <time>2018-12-28T09:21:54Z</time>
      </trkpt>
      <trkpt lat="37.131909" lon="-8.886002">
        <ele>93.332</ele>
        <time>2018-12-28T09:21:59Z</time>
      </trkpt>
      <trkpt lat="37.131860" lon="-8.885870">
        <ele>93.328</ele>
        <time>2018-12-28T09:22:11Z</time>
      </trkpt>
      <trkpt lat="37.131837" lon="-8.885851">
        <ele>93.369</ele>
        <time>2018-12-28T09:22:13Z</time>
      </trkpt>
      <trkpt lat="37.131731" lon="-8.885752">
        <ele>93.357</ele>
        <time>2018-12-28T09:22:25Z</time>
      </trkpt>
      <trkpt lat="37.131712" lon="-8.885718">
        <ele>93.323</ele>
        <time>2018-12-28T09:22:28Z</time>
      </trkpt>
      <trkpt lat="37.131662" lon="-8.885638">
        <ele>94.323</ele>
        <time>2018-12-28T09:22:38Z</time>
      </trkpt>
      <trkpt lat="37.131636" lon="-8.885598">
        <ele>93.883</ele>
        <time>2018-12-28T09:22:42Z</time>
      </trkpt>
      <trkpt lat="37.131531" lon="-8.885467">
        <ele>93.311</ele>
        <time>2018-12-28T09:22:56Z</time>
      </trkpt>
      <trkpt lat="37.131505" lon="-8.885465">
        <ele>93.308</ele>
        <time>2018-12-28T09:22:58Z</time>
      </trkpt>
      <trkpt lat="37.131459" lon="-8.885444">
        <ele>93.885</ele>
        <time>2018-12-28T09:23:02Z</time>
      </trkpt>
      <trkpt lat="37.131333" lon="-8.885380">
        <ele>96.263</ele>
        <time>2018-12-28T09:23:17Z</time>
      </trkpt>
      <trkpt lat="37.131294" lon="-8.885380">
        <ele>97.270</ele>
        <time>2018-12-28T09:23:20Z</time>
      </trkpt>
      <trkpt lat="37.131179" lon="-8.885324">
        <ele>98.195</ele>
        <time>2018-12-28T09:23:32Z</time>
      </trkpt>
      <trkpt lat="37.131034" lon="-8.885354">
        <ele>99.641</ele>
        <time>2018-12-28T09:23:46Z</time>
      </trkpt>
      <trkpt lat="37.130982" lon="-8.885348">
        <ele>100.112</ele>
        <time>2018-12-28T09:23:50Z</time>
      </trkpt>
      <trkpt lat="37.130959" lon="-8.885346">
        <ele>100.630</ele>
        <time>2018-12-28T09:23:52Z</time>
      </trkpt>
      <trkpt lat="37.130836" lon="-8.885360">
        <ele>100.626</ele>
        <time>2018-12-28T09:24:07Z</time>
      </trkpt>
      <trkpt lat="37.130828" lon="-8.885359">
        <ele>100.638</ele>
        <time>2018-12-28T09:24:14Z</time>
      </trkpt>
      <trkpt lat="37.130793" lon="-8.885359">
        <ele>100.670</ele>
        <time>2018-12-28T09:24:17Z</time>
      </trkpt>
      <trkpt lat="37.130674" lon="-8.885358">
        <ele>99.617</ele>
        <time>2018-12-28T09:24:28Z</time>
      </trkpt>
      <trkpt lat="37.130561" lon="-8.885386">
        <ele>99.108</ele>
        <time>2018-12-28T09:24:37Z</time>
      </trkpt>
      <trkpt lat="37.130506" lon="-8.885417">
        <ele>99.116</ele>
        <time>2018-12-28T09:24:43Z</time>
      </trkpt>
      <trkpt lat="37.130460" lon="-8.885438">
        <ele>99.154</ele>
        <time>2018-12-28T09:24:47Z</time>
      </trkpt>
      <trkpt lat="37.130412" lon="-8.885477">
        <ele>99.681</ele>
        <time>2018-12-28T09:24:52Z</time>
      </trkpt>
      <trkpt lat="37.130366" lon="-8.885481">
        <ele>100.196</ele>
        <time>2018-12-28T09:24:56Z</time>
      </trkpt>
      <trkpt lat="37.130240" lon="-8.885504">
        <ele>100.622</ele>
        <time>2018-12-28T09:25:08Z</time>
      </trkpt>
      <trkpt lat="37.130175" lon="-8.885525">
        <ele>100.193</ele>
        <time>2018-12-28T09:25:20Z</time>
      </trkpt>
      <trkpt lat="37.130152" lon="-8.885525">
        <ele>100.611</ele>
        <time>2018-12-28T09:25:23Z</time>
      </trkpt>
      <trkpt lat="37.130113" lon="-8.885560">
        <ele>100.647</ele>
        <time>2018-12-28T09:25:29Z</time>
      </trkpt>
      <trkpt lat="37.130036" lon="-8.885581">
        <ele>101.511</ele>
        <time>2018-12-28T09:25:36Z</time>
      </trkpt>
      <trkpt lat="37.129993" lon="-8.885619">
        <ele>102.021</ele>
        <time>2018-12-28T09:25:41Z</time>
      </trkpt>
      <trkpt lat="37.129909" lon="-8.885647">
        <ele>103.903</ele>
        <time>2018-12-28T09:25:51Z</time>
      </trkpt>
      <trkpt lat="37.129885" lon="-8.885656">
        <ele>104.408</ele>
        <time>2018-12-28T09:25:53Z</time>
      </trkpt>
      <trkpt lat="37.129837" lon="-8.885654">
        <ele>106.314</ele>
        <time>2018-12-28T09:25:58Z</time>
      </trkpt>
      <trkpt lat="37.129764" lon="-8.885627">
        <ele>107.842</ele>
        <time>2018-12-28T09:26:05Z</time>
      </trkpt>
      <trkpt lat="37.129618" lon="-8.885614">
        <ele>109.759</ele>
        <time>2018-12-28T09:26:18Z</time>
      </trkpt>
      <trkpt lat="37.129524" lon="-8.885565">
        <ele>111.634</ele>
        <time>2018-12-28T09:26:27Z</time>
      </trkpt>
      <trkpt lat="37.129509" lon="-8.885523">
        <ele>111.630</ele>
        <time>2018-12-28T09:26:30Z</time>
      </trkpt>
      <trkpt lat="37.129480" lon="-8.885491">
        <ele>112.681</ele>
        <time>2018-12-28T09:26:33Z</time>
      </trkpt>
      <trkpt lat="37.129446" lon="-8.885430">
        <ele>113.559</ele>
        <time>2018-12-28T09:26:38Z</time>
      </trkpt>
      <trkpt lat="37.129363" lon="-8.885259">
        <ele>114.595</ele>
        <time>2018-12-28T09:26:51Z</time>
      </trkpt>
      <trkpt lat="37.129338" lon="-8.885223">
        <ele>114.543</ele>
        <time>2018-12-28T09:26:54Z</time>
      </trkpt>
      <trkpt lat="37.129302" lon="-8.885217">
        <ele>114.564</ele>
        <time>2018-12-28T09:26:57Z</time>
      </trkpt>
      <trkpt lat="37.129227" lon="-8.885210">
        <ele>115.510</ele>
        <time>2018-12-28T09:27:05Z</time>
      </trkpt>
      <trkpt lat="37.129178" lon="-8.885206">
        <ele>116.908</ele>
        <time>2018-12-28T09:27:10Z</time>
      </trkpt>
      <trkpt lat="37.129075" lon="-8.885141">
        <ele>118.827</ele>
        <time>2018-12-28T09:27:21Z</time>
      </trkpt>
      <trkpt lat="37.129054" lon="-8.885120">
        <ele>119.355</ele>
        <time>2018-12-28T09:27:24Z</time>
      </trkpt>
      <trkpt lat="37.129039" lon="-8.885093">
        <ele>119.882</ele>
        <time>2018-12-28T09:27:26Z</time>
      </trkpt>
      <trkpt lat="37.128984" lon="-8.885025">
        <ele>121.287</ele>
        <time>2018-12-28T09:27:33Z</time>
      </trkpt>
      <trkpt lat="37.128942" lon="-8.884948">
        <ele>122.713</ele>
        <time>2018-12-28T09:27:40Z</time>
      </trkpt>
      <trkpt lat="37.128929" lon="-8.884918">
        <ele>122.724</ele>
        <time>2018-12-28T09:27:42Z</time>
      </trkpt>
      <trkpt lat="37.128842" lon="-8.884768">
        <ele>124.662</ele>
        <time>2018-12-28T09:27:53Z</time>
      </trkpt>
      <trkpt lat="37.128821" lon="-8.884731">
        <ele>125.528</ele>
        <time>2018-12-28T09:27:56Z</time>
      </trkpt>
      <trkpt lat="37.128707" lon="-8.884616">
        <ele>127.545</ele>
        <time>2018-12-28T09:28:09Z</time>
      </trkpt>
      <trkpt lat="37.128634" lon="-8.884565">
        <ele>129.447</ele>
        <time>2018-12-28T09:28:17Z</time>
      </trkpt>
      <trkpt lat="37.128590" lon="-8.884557">
        <ele>129.911</ele>
        <time>2018-12-28T09:28:22Z</time>
      </trkpt>
      <trkpt lat="37.128579" lon="-8.884558">
        <ele>129.908</ele>
        <time>2018-12-28T09:28:24Z</time>
      </trkpt>
      <trkpt lat="37.128542" lon="-8.884545">
        <ele>130.417</ele>
        <time>2018-12-28T09:28:27Z</time>
      </trkpt>
      <trkpt lat="37.128473" lon="-8.884537">
        <ele>130.485</ele>
        <time>2018-12-28T09:28:33Z</time>
      </trkpt>
      <trkpt lat="37.128350" lon="-8.884532">
        <ele>131.892</ele>
        <time>2018-12-28T09:28:44Z</time>
      </trkpt>
      <trkpt lat="37.128221" lon="-8.884557">
        <ele>132.377</ele>
        <time>2018-12-28T09:28:56Z</time>
      </trkpt>
      <trkpt lat="37.128176" lon="-8.884567">
        <ele>132.373</ele>
        <time>2018-12-28T09:29:00Z</time>
      </trkpt>
      <trkpt lat="37.128151" lon="-8.884562">
        <ele>132.824</ele>
        <time>2018-12-28T09:29:02Z</time>
      </trkpt>
      <trkpt lat="37.128071" lon="-8.884609">
        <ele>133.242</ele>
        <time>2018-12-28T09:29:11Z</time>
      </trkpt>
      <trkpt lat="37.128049" lon="-8.884659">
        <ele>133.788</ele>
        <time>2018-12-28T09:29:15Z</time>
      </trkpt>
      <trkpt lat="37.128008" lon="-8.884728">
        <ele>133.252</ele>
        <time>2018-12-28T09:29:21Z</time>
      </trkpt>
      <trkpt lat="37.127986" lon="-8.884803">
        <ele>133.253</ele>
        <time>2018-12-28T09:29:27Z</time>
      </trkpt>
      <trkpt lat="37.127940" lon="-8.884881">
        <ele>133.208</ele>
        <time>2018-12-28T09:29:35Z</time>
      </trkpt>
      <trkpt lat="37.127865" lon="-8.884965">
        <ele>132.308</ele>
        <time>2018-12-28T09:29:48Z</time>
      </trkpt>
      <trkpt lat="37.127821" lon="-8.885000">
        <ele>131.338</ele>
        <time>2018-12-28T09:29:59Z</time>
      </trkpt>
      <trkpt lat="37.127778" lon="-8.885045">
        <ele>129.966</ele>
        <time>2018-12-28T09:30:15Z</time>
      </trkpt>
      <trkpt lat="37.127774" lon="-8.885038">
        <ele>130.433</ele>
        <time>2018-12-28T09:30:34Z</time>
      </trkpt>
      <trkpt lat="37.127782" lon="-8.885027">
        <ele>130.438</ele>
        <time>2018-12-28T09:30:40Z</time>
      </trkpt>
      <trkpt lat="37.127832" lon="-8.884961">
        <ele>131.874</ele>
        <time>2018-12-28T09:30:49Z</time>
      </trkpt>
      <trkpt lat="37.127863" lon="-8.884932">
        <ele>132.355</ele>
        <time>2018-12-28T09:30:53Z</time>
      </trkpt>
      <trkpt lat="37.127893" lon="-8.884918">
        <ele>132.813</ele>
        <time>2018-12-28T09:30:56Z</time>
      </trkpt>
      <trkpt lat="37.127910" lon="-8.884902">
        <ele>132.899</ele>
        <time>2018-12-28T09:30:58Z</time>
      </trkpt>
      <trkpt lat="37.127925" lon="-8.884862">
        <ele>133.271</ele>
        <time>2018-12-28T09:31:01Z</time>
      </trkpt>
      <trkpt lat="37.127956" lon="-8.884802">
        <ele>132.841</ele>
        <time>2018-12-28T09:31:06Z</time>
      </trkpt>
      <trkpt lat="37.127975" lon="-8.884776">
        <ele>133.215</ele>
        <time>2018-12-28T09:31:09Z</time>
      </trkpt>
      <trkpt lat="37.127988" lon="-8.884717">
        <ele>133.208</ele>
        <time>2018-12-28T09:31:14Z</time>
      </trkpt>
      <trkpt lat="37.127985" lon="-8.884697">
        <ele>133.240</ele>
        <time>2018-12-28T09:31:16Z</time>
      </trkpt>
      <trkpt lat="37.127978" lon="-8.884660">
        <ele>133.728</ele>
        <time>2018-12-28T09:31:19Z</time>
      </trkpt>
      <trkpt lat="37.127947" lon="-8.884568">
        <ele>134.785</ele>
        <time>2018-12-28T09:31:28Z</time>
      </trkpt>
      <trkpt lat="37.127895" lon="-8.884458">
        <ele>136.120</ele>
        <time>2018-12-28T09:31:40Z</time>
      </trkpt>
      <trkpt lat="37.127818" lon="-8.884365">
        <ele>137.116</ele>
        <time>2018-12-28T09:31:52Z</time>
      </trkpt>
      <trkpt lat="37.127794" lon="-8.884329">
        <ele>137.677</ele>
        <time>2018-12-28T09:31:56Z</time>
      </trkpt>
      <trkpt lat="37.127781" lon="-8.884294">
        <ele>138.045</ele>
        <time>2018-12-28T09:31:59Z</time>
      </trkpt>
      <trkpt lat="37.127777" lon="-8.884246">
        <ele>138.591</ele>
        <time>2018-12-28T09:32:03Z</time>
      </trkpt>
      <trkpt lat="37.127778" lon="-8.884175">
        <ele>139.051</ele>
        <time>2018-12-28T09:32:08Z</time>
      </trkpt>
      <trkpt lat="37.127753" lon="-8.884023">
        <ele>140.001</ele>
        <time>2018-12-28T09:32:19Z</time>
      </trkpt>
      <trkpt lat="37.127760" lon="-8.883922">
        <ele>139.511</ele>
        <time>2018-12-28T09:32:26Z</time>
      </trkpt>
      <trkpt lat="37.127750" lon="-8.883892">
        <ele>139.508</ele>
        <time>2018-12-28T09:32:28Z</time>
      </trkpt>
      <trkpt lat="37.127726" lon="-8.883695">
        <ele>140.068</ele>
        <time>2018-12-28T09:32:42Z</time>
      </trkpt>
      <trkpt lat="37.127712" lon="-8.883673">
        <ele>140.096</ele>
        <time>2018-12-28T09:32:44Z</time>
      </trkpt>
      <trkpt lat="37.127714" lon="-8.883584">
        <ele>140.063</ele>
        <time>2018-12-28T09:32:50Z</time>
      </trkpt>
      <trkpt lat="37.127709" lon="-8.883511">
        <ele>140.028</ele>
        <time>2018-12-28T09:32:55Z</time>
      </trkpt>
      <trkpt lat="37.127702" lon="-8.883458">
        <ele>139.584</ele>
        <time>2018-12-28T09:32:59Z</time>
      </trkpt>
      <trkpt lat="37.127697" lon="-8.883437">
        <ele>139.595</ele>
        <time>2018-12-28T09:33:01Z</time>
      </trkpt>
      <trkpt lat="37.127690" lon="-8.883399">
        <ele>139.563</ele>
        <time>2018-12-28T09:33:18Z</time>
      </trkpt>
      <trkpt lat="37.127713" lon="-8.883345">
        <ele>140.059</ele>
        <time>2018-12-28T09:33:34Z</time>
      </trkpt>
      <trkpt lat="37.127729" lon="-8.883338">
        <ele>140.056</ele>
        <time>2018-12-28T09:33:51Z</time>
      </trkpt>
      <trkpt lat="37.127726" lon="-8.883337">
        <ele>140.059</ele>
        <time>2018-12-28T09:34:11Z</time>
      </trkpt>
      <trkpt lat="37.127726" lon="-8.883337">
        <ele>140.414</ele>
        <time>2018-12-28T09:34:20Z</time>
      </trkpt>
      <trkpt lat="37.127730" lon="-8.883312">
        <ele>140.008</ele>
        <time>2018-12-28T09:34:22Z</time>
      </trkpt>
      <trkpt lat="37.127729" lon="-8.883164">
        <ele>139.538</ele>
        <time>2018-12-28T09:34:31Z</time>
      </trkpt>
      <trkpt lat="37.127717" lon="-8.883083">
        <ele>140.076</ele>
        <time>2018-12-28T09:34:36Z</time>
      </trkpt>
      <trkpt lat="37.127693" lon="-8.882923">
        <ele>139.543</ele>
        <time>2018-12-28T09:34:46Z</time>
      </trkpt>
      <trkpt lat="37.127653" lon="-8.882676">
        <ele>140.068</ele>
        <time>2018-12-28T09:35:03Z</time>
      </trkpt>
      <trkpt lat="37.127670" lon="-8.882518">
        <ele>139.594</ele>
        <time>2018-12-28T09:35:14Z</time>
      </trkpt>
      <trkpt lat="37.127683" lon="-8.882447">
        <ele>140.065</ele>
        <time>2018-12-28T09:35:19Z</time>
      </trkpt>
      <trkpt lat="37.127684" lon="-8.882421">
        <ele>140.013</ele>
        <time>2018-12-28T09:35:21Z</time>
      </trkpt>
      <trkpt lat="37.127704" lon="-8.882366">
        <ele>140.039</ele>
        <time>2018-12-28T09:35:25Z</time>
      </trkpt>
      <trkpt lat="37.127737" lon="-8.882306">
        <ele>139.515</ele>
        <time>2018-12-28T09:35:30Z</time>
      </trkpt>
      <trkpt lat="37.127795" lon="-8.882226">
        <ele>140.065</ele>
        <time>2018-12-28T09:35:37Z</time>
      </trkpt>
      <trkpt lat="37.127836" lon="-8.882090">
        <ele>140.011</ele>
        <time>2018-12-28T09:35:47Z</time>
      </trkpt>
      <trkpt lat="37.127881" lon="-8.882006">
        <ele>140.008</ele>
        <time>2018-12-28T09:35:53Z</time>
      </trkpt>
      <trkpt lat="37.127897" lon="-8.881979">
        <ele>140.054</ele>
        <time>2018-12-28T09:35:55Z</time>
      </trkpt>
      <trkpt lat="37.127933" lon="-8.881901">
        <ele>140.092</ele>
        <time>2018-12-28T09:36:01Z</time>
      </trkpt>
      <trkpt lat="37.128034" lon="-8.881791">
        <ele>140.029</ele>
        <time>2018-12-28T09:36:13Z</time>
      </trkpt>
      <trkpt lat="37.128073" lon="-8.881758">
        <ele>140.024</ele>
        <time>2018-12-28T09:36:17Z</time>
      </trkpt>
      <trkpt lat="37.128128" lon="-8.881695">
        <ele>140.060</ele>
        <time>2018-12-28T09:36:23Z</time>
      </trkpt>
      <trkpt lat="37.128273" lon="-8.881591">
        <ele>139.581</ele>
        <time>2018-12-28T09:36:37Z</time>
      </trkpt>
      <trkpt lat="37.128352" lon="-8.881531">
        <ele>140.019</ele>
        <time>2018-12-28T09:36:44Z</time>
      </trkpt>
      <trkpt lat="37.128418" lon="-8.881496">
        <ele>140.035</ele>
        <time>2018-12-28T09:36:49Z</time>
      </trkpt>
      <trkpt lat="37.128451" lon="-8.881452">
        <ele>139.518</ele>
        <time>2018-12-28T09:36:53Z</time>
      </trkpt>
      <trkpt lat="37.128620" lon="-8.881338">
        <ele>139.598</ele>
        <time>2018-12-28T09:37:10Z</time>
      </trkpt>
      <trkpt lat="37.128631" lon="-8.881333">
        <ele>139.517</ele>
        <time>2018-12-28T09:37:11Z</time>
      </trkpt>
      <trkpt lat="37.128830" lon="-8.881313">
        <ele>139.008</ele>
        <time>2018-12-28T09:37:27Z</time>
      </trkpt>
      <trkpt lat="37.128934" lon="-8.881307">
        <ele>139.084</ele>
        <time>2018-12-28T09:37:36Z</time>
      </trkpt>
      <trkpt lat="37.128994" lon="-8.881299">
        <ele>139.012</ele>
        <time>2018-12-28T09:37:41Z</time>
      </trkpt>
      <trkpt lat="37.129116" lon="-8.881296">
        <ele>139.039</ele>
        <time>2018-12-28T09:37:51Z</time>
      </trkpt>
      <trkpt lat="37.129140" lon="-8.881305">
        <ele>139.084</ele>
        <time>2018-12-28T09:37:53Z</time>
      </trkpt>
      <trkpt lat="37.129202" lon="-8.881324">
        <ele>139.020</ele>
        <time>2018-12-28T09:37:59Z</time>
      </trkpt>
      <trkpt lat="37.129233" lon="-8.881348">
        <ele>139.011</ele>
        <time>2018-12-28T09:38:02Z</time>
      </trkpt>
      <trkpt lat="37.129333" lon="-8.881353">
        <ele>139.019</ele>
        <time>2018-12-28T09:38:12Z</time>
      </trkpt>
      <trkpt lat="37.129388" lon="-8.881332">
        <ele>139.025</ele>
        <time>2018-12-28T09:38:16Z</time>
      </trkpt>
      <trkpt lat="37.129490" lon="-8.881317">
        <ele>139.097</ele>
        <time>2018-12-28T09:38:24Z</time>
      </trkpt>
      <trkpt lat="37.129640" lon="-8.881360">
        <ele>139.023</ele>
        <time>2018-12-28T09:38:37Z</time>
      </trkpt>
      <trkpt lat="37.129699" lon="-8.881383">
        <ele>139.525</ele>
        <time>2018-12-28T09:38:42Z</time>
      </trkpt>
      <trkpt lat="37.129783" lon="-8.881403">
        <ele>139.508</ele>
        <time>2018-12-28T09:38:49Z</time>
      </trkpt>
      <trkpt lat="37.129828" lon="-8.881414">
        <ele>139.512</ele>
        <time>2018-12-28T09:38:52Z</time>
      </trkpt>
      <trkpt lat="37.129907" lon="-8.881442">
        <ele>139.560</ele>
        <time>2018-12-28T09:38:58Z</time>
      </trkpt>
      <trkpt lat="37.129953" lon="-8.881472">
        <ele>139.547</ele>
        <time>2018-12-28T09:39:02Z</time>
      </trkpt>
      <trkpt lat="37.130156" lon="-8.881520">
        <ele>140.012</ele>
        <time>2018-12-28T09:39:17Z</time>
      </trkpt>
      <trkpt lat="37.130295" lon="-8.881561">
        <ele>140.038</ele>
        <time>2018-12-28T09:39:28Z</time>
      </trkpt>
      <trkpt lat="37.130481" lon="-8.881592">
        <ele>140.499</ele>
        <time>2018-12-28T09:39:43Z</time>
      </trkpt>
      <trkpt lat="37.130668" lon="-8.881597">
        <ele>140.017</ele>
        <time>2018-12-28T09:39:58Z</time>
      </trkpt>
      <trkpt lat="37.130799" lon="-8.881521">
        <ele>140.423</ele>
        <time>2018-12-28T09:40:11Z</time>
      </trkpt>
      <trkpt lat="37.130821" lon="-8.881501">
        <ele>140.463</ele>
        <time>2018-12-28T09:40:13Z</time>
      </trkpt>
      <trkpt lat="37.130958" lon="-8.881414">
        <ele>140.444</ele>
        <time>2018-12-28T09:40:25Z</time>
      </trkpt>
      <trkpt lat="37.130998" lon="-8.881389">
        <ele>140.018</ele>
        <time>2018-12-28T09:40:28Z</time>
      </trkpt>
      <trkpt lat="37.131094" lon="-8.881312">
        <ele>140.408</ele>
        <time>2018-12-28T09:40:36Z</time>
      </trkpt>
      <trkpt lat="37.131145" lon="-8.881279">
        <ele>140.439</ele>
        <time>2018-12-28T09:40:40Z</time>
      </trkpt>
      <trkpt lat="37.131276" lon="-8.881166">
        <ele>140.497</ele>
        <time>2018-12-28T09:40:53Z</time>
      </trkpt>
      <trkpt lat="37.131370" lon="-8.881084">
        <ele>140.434</ele>
        <time>2018-12-28T09:41:01Z</time>
      </trkpt>
      <trkpt lat="37.131403" lon="-8.881065">
        <ele>140.469</ele>
        <time>2018-12-28T09:41:04Z</time>
      </trkpt>
      <trkpt lat="37.131572" lon="-8.880949">
        <ele>140.455</ele>
        <time>2018-12-28T09:41:19Z</time>
      </trkpt>
      <trkpt lat="37.131589" lon="-8.880935">
        <ele>140.456</ele>
        <time>2018-12-28T09:41:22Z</time>
      </trkpt>
      <trkpt lat="37.131648" lon="-8.880899">
        <ele>140.994</ele>
        <time>2018-12-28T09:41:28Z</time>
      </trkpt>
      <trkpt lat="37.131779" lon="-8.880800">
        <ele>140.480</ele>
        <time>2018-12-28T09:41:41Z</time>
      </trkpt>
      <trkpt lat="37.131849" lon="-8.880750">
        <ele>140.458</ele>
        <time>2018-12-28T09:41:48Z</time>
      </trkpt>
      <trkpt lat="37.131942" lon="-8.880662">
        <ele>140.452</ele>
        <time>2018-12-28T09:41:56Z</time>
      </trkpt>
      <trkpt lat="37.132119" lon="-8.880519">
        <ele>140.917</ele>
        <time>2018-12-28T09:42:11Z</time>
      </trkpt>
      <trkpt lat="37.132266" lon="-8.880393">
        <ele>140.408</ele>
        <time>2018-12-28T09:42:24Z</time>
      </trkpt>
      <trkpt lat="37.132329" lon="-8.880354">
        <ele>140.478</ele>
        <time>2018-12-28T09:42:30Z</time>
      </trkpt>
      <trkpt lat="37.132345" lon="-8.880330">
        <ele>140.486</ele>
        <time>2018-12-28T09:42:32Z</time>
      </trkpt>
      <trkpt lat="37.132397" lon="-8.880288">
        <ele>140.053</ele>
        <time>2018-12-28T09:42:37Z</time>
      </trkpt>
      <trkpt lat="37.132445" lon="-8.880247">
        <ele>140.038</ele>
        <time>2018-12-28T09:42:41Z</time>
      </trkpt>
      <trkpt lat="37.132587" lon="-8.880138">
        <ele>139.554</ele>
        <time>2018-12-28T09:42:55Z</time>
      </trkpt>
      <trkpt lat="37.132694" lon="-8.879995">
        <ele>140.485</ele>
        <time>2018-12-28T09:43:07Z</time>
      </trkpt>
      <trkpt lat="37.132697" lon="-8.879968">
        <ele>140.433</ele>
        <time>2018-12-28T09:43:09Z</time>
      </trkpt>
      <trkpt lat="37.132763" lon="-8.879830">
        <ele>140.449</ele>
        <time>2018-12-28T09:43:18Z</time>
      </trkpt>
      <trkpt lat="37.132812" lon="-8.879697">
        <ele>140.423</ele>
        <time>2018-12-28T09:43:27Z</time>
      </trkpt>
      <trkpt lat="37.132835" lon="-8.879635">
        <ele>140.483</ele>
        <time>2018-12-28T09:43:31Z</time>
      </trkpt>
      <trkpt lat="37.132926" lon="-8.879486">
        <ele>140.411</ele>
        <time>2018-12-28T09:43:43Z</time>
      </trkpt>
      <trkpt lat="37.132963" lon="-8.879394">
        <ele>140.408</ele>
        <time>2018-12-28T09:43:50Z</time>
      </trkpt>
      <trkpt lat="37.133037" lon="-8.879251">
        <ele>140.445</ele>
        <time>2018-12-28T09:44:00Z</time>
      </trkpt>
      <trkpt lat="37.133100" lon="-8.879134">
        <ele>140.473</ele>
        <time>2018-12-28T09:44:09Z</time>
      </trkpt>
      <trkpt lat="37.133144" lon="-8.879011">
        <ele>140.440</ele>
        <time>2018-12-28T09:44:18Z</time>
      </trkpt>
      <trkpt lat="37.133185" lon="-8.878906">
        <ele>140.425</ele>
        <time>2018-12-28T09:44:25Z</time>
      </trkpt>
      <trkpt lat="37.133218" lon="-8.878816">
        <ele>140.491</ele>
        <time>2018-12-28T09:44:31Z</time>
      </trkpt>
      <trkpt lat="37.133267" lon="-8.878721">
        <ele>140.442</ele>
        <time>2018-12-28T09:44:38Z</time>
      </trkpt>
      <trkpt lat="37.133298" lon="-8.878597">
        <ele>140.420</ele>
        <time>2018-12-28T09:44:47Z</time>
      </trkpt>
      <trkpt lat="37.133344" lon="-8.878481">
        <ele>140.456</ele>
        <time>2018-12-28T09:44:55Z</time>
      </trkpt>
      <trkpt lat="37.133388" lon="-8.878376">
        <ele>140.047</ele>
        <time>2018-12-28T09:45:02Z</time>
      </trkpt>
      <trkpt lat="37.133415" lon="-8.878258">
        <ele>140.429</ele>
        <time>2018-12-28T09:45:10Z</time>
      </trkpt>
      <trkpt lat="37.133438" lon="-8.878067">
        <ele>140.021</ele>
        <time>2018-12-28T09:45:23Z</time>
      </trkpt>
      <trkpt lat="37.133438" lon="-8.878029">
        <ele>140.008</ele>
        <time>2018-12-28T09:45:26Z</time>
      </trkpt>
      <trkpt lat="37.133434" lon="-8.877990">
        <ele>140.067</ele>
        <time>2018-12-28T09:45:29Z</time>
      </trkpt>
      <trkpt lat="37.133437" lon="-8.877780">
        <ele>139.555</ele>
        <time>2018-12-28T09:45:42Z</time>
      </trkpt>
      <trkpt lat="37.133427" lon="-8.877565">
        <ele>139.542</ele>
        <time>2018-12-28T09:45:55Z</time>
      </trkpt>
      <trkpt lat="37.133422" lon="-8.877492">
        <ele>140.077</ele>
        <time>2018-12-28T09:45:59Z</time>
      </trkpt>
      <trkpt lat="37.133413" lon="-8.877402">
        <ele>140.093</ele>
        <time>2018-12-28T09:46:04Z</time>
      </trkpt>
      <trkpt lat="37.133400" lon="-8.877321">
        <ele>139.544</ele>
        <time>2018-12-28T09:46:09Z</time>
      </trkpt>
      <trkpt lat="37.133396" lon="-8.877260">
        <ele>140.052</ele>
        <time>2018-12-28T09:46:13Z</time>
      </trkpt>
      <trkpt lat="37.133385" lon="-8.877059">
        <ele>140.088</ele>
        <time>2018-12-28T09:46:26Z</time>
      </trkpt>
      <trkpt lat="37.133375" lon="-8.876901">
        <ele>140.049</ele>
        <time>2018-12-28T09:46:35Z</time>
      </trkpt>
      <trkpt lat="37.133373" lon="-8.876843">
        <ele>139.502</ele>
        <time>2018-12-28T09:46:39Z</time>
      </trkpt>
      <trkpt lat="37.133374" lon="-8.876818">
        <ele>139.522</ele>
        <time>2018-12-28T09:46:41Z</time>
      </trkpt>
      <trkpt lat="37.133375" lon="-8.876682">
        <ele>139.508</ele>
        <time>2018-12-28T09:46:51Z</time>
      </trkpt>
      <trkpt lat="37.133371" lon="-8.876653">
        <ele>139.557</ele>
        <time>2018-12-28T09:46:53Z</time>
      </trkpt>
      <trkpt lat="37.133363" lon="-8.876600">
        <ele>139.575</ele>
        <time>2018-12-28T09:46:56Z</time>
      </trkpt>
      <trkpt lat="37.133360" lon="-8.876463">
        <ele>139.022</ele>
        <time>2018-12-28T09:47:05Z</time>
      </trkpt>
      <trkpt lat="37.133318" lon="-8.876280">
        <ele>139.537</ele>
        <time>2018-12-28T09:47:16Z</time>
      </trkpt>
      <trkpt lat="37.133305" lon="-8.876211">
        <ele>139.083</ele>
        <time>2018-12-28T09:47:21Z</time>
      </trkpt>
      <trkpt lat="37.133308" lon="-8.876175">
        <ele>139.034</ele>
        <time>2018-12-28T09:47:24Z</time>
      </trkpt>
      <trkpt lat="37.133296" lon="-8.876030">
        <ele>139.042</ele>
        <time>2018-12-28T09:47:33Z</time>
      </trkpt>
      <trkpt lat="37.133310" lon="-8.875957">
        <ele>138.558</ele>
        <time>2018-12-28T09:47:39Z</time>
      </trkpt>
      <trkpt lat="37.133294" lon="-8.875852">
        <ele>138.035</ele>
        <time>2018-12-28T09:47:45Z</time>
      </trkpt>
      <trkpt lat="37.133293" lon="-8.875814">
        <ele>138.086</ele>
        <time>2018-12-28T09:47:47Z</time>
      </trkpt>
      <trkpt lat="37.133254" lon="-8.875683">
        <ele>137.614</ele>
        <time>2018-12-28T09:47:55Z</time>
      </trkpt>
      <trkpt lat="37.133245" lon="-8.875624">
        <ele>137.108</ele>
        <time>2018-12-28T09:47:59Z</time>
      </trkpt>
      <trkpt lat="37.133215" lon="-8.875507">
        <ele>136.626</ele>
        <time>2018-12-28T09:48:06Z</time>
      </trkpt>
      <trkpt lat="37.133185" lon="-8.875388">
        <ele>136.644</ele>
        <time>2018-12-28T09:48:13Z</time>
      </trkpt>
      <trkpt lat="37.133170" lon="-8.875287">
        <ele>136.631</ele>
        <time>2018-12-28T09:48:19Z</time>
      </trkpt>
      <trkpt lat="37.133167" lon="-8.875257">
        <ele>136.156</ele>
        <time>2018-12-28T09:48:21Z</time>
      </trkpt>
      <trkpt lat="37.133132" lon="-8.875096">
        <ele>136.182</ele>
        <time>2018-12-28T09:48:31Z</time>
      </trkpt>
      <trkpt lat="37.133107" lon="-8.874943">
        <ele>135.673</ele>
        <time>2018-12-28T09:48:41Z</time>
      </trkpt>
      <trkpt lat="37.133054" lon="-8.874816">
        <ele>135.641</ele>
        <time>2018-12-28T09:48:49Z</time>
      </trkpt>
      <trkpt lat="37.133027" lon="-8.874677">
        <ele>135.677</ele>
        <time>2018-12-28T09:48:57Z</time>
      </trkpt>
      <trkpt lat="37.133008" lon="-8.874618">
        <ele>136.139</ele>
        <time>2018-12-28T09:49:01Z</time>
      </trkpt>
      <trkpt lat="37.132959" lon="-8.874420">
        <ele>135.601</ele>
        <time>2018-12-28T09:49:13Z</time>
      </trkpt>
      <trkpt lat="37.132916" lon="-8.874260">
        <ele>135.621</ele>
        <time>2018-12-28T09:49:23Z</time>
      </trkpt>
      <trkpt lat="37.132873" lon="-8.874156">
        <ele>135.608</ele>
        <time>2018-12-28T09:49:30Z</time>
      </trkpt>
      <trkpt lat="37.132857" lon="-8.874113">
        <ele>136.136</ele>
        <time>2018-12-28T09:49:33Z</time>
      </trkpt>
      <trkpt lat="37.132820" lon="-8.873998">
        <ele>134.794</ele>
        <time>2018-12-28T09:49:41Z</time>
      </trkpt>
      <trkpt lat="37.132767" lon="-8.873834">
        <ele>132.871</ele>
        <time>2018-12-28T09:49:53Z</time>
      </trkpt>
      <trkpt lat="37.132781" lon="-8.873851">
        <ele>132.816</ele>
        <time>2018-12-28T09:50:03Z</time>
      </trkpt>
      <trkpt lat="37.132781" lon="-8.873851">
        <ele>132.812</ele>
        <time>2018-12-28T09:50:09Z</time>
      </trkpt>
      <trkpt lat="37.132778" lon="-8.873840">
        <ele>132.833</ele>
        <time>2018-12-28T09:50:11Z</time>
      </trkpt>
      <trkpt lat="37.132746" lon="-8.873744">
        <ele>131.871</ele>
        <time>2018-12-28T09:50:18Z</time>
      </trkpt>
      <trkpt lat="37.132715" lon="-8.873670">
        <ele>131.847</ele>
        <time>2018-12-28T09:50:23Z</time>
      </trkpt>
      <trkpt lat="37.132607" lon="-8.873511">
        <ele>130.459</ele>
        <time>2018-12-28T09:50:36Z</time>
      </trkpt>
      <trkpt lat="37.132591" lon="-8.873482">
        <ele>130.803</ele>
        <time>2018-12-28T09:50:38Z</time>
      </trkpt>
      <trkpt lat="37.132512" lon="-8.873385">
        <ele>130.423</ele>
        <time>2018-12-28T09:50:47Z</time>
      </trkpt>
      <trkpt lat="37.132476" lon="-8.873335">
        <ele>130.408</ele>
        <time>2018-12-28T09:50:51Z</time>
      </trkpt>
      <trkpt lat="37.132444" lon="-8.873292">
        <ele>130.498</ele>
        <time>2018-12-28T09:50:55Z</time>
      </trkpt>
      <trkpt lat="37.132370" lon="-8.873211">
        <ele>130.496</ele>
        <time>2018-12-28T09:51:02Z</time>
      </trkpt>
      <trkpt lat="37.132335" lon="-8.873176">
        <ele>130.453</ele>
        <time>2018-12-28T09:51:06Z</time>
      </trkpt>
      <trkpt lat="37.132275" lon="-8.873133">
        <ele>130.458</ele>
        <time>2018-12-28T09:51:12Z</time>
      </trkpt>
      <trkpt lat="37.132172" lon="-8.873017">
        <ele>129.934</ele>
        <time>2018-12-28T09:51:23Z</time>
      </trkpt>
      <trkpt lat="37.132076" lon="-8.872845">
        <ele>128.955</ele>
        <time>2018-12-28T09:51:36Z</time>
      </trkpt>
      <trkpt lat="37.131982" lon="-8.872713">
        <ele>127.073</ele>
        <time>2018-12-28T09:51:47Z</time>
      </trkpt>
      <trkpt lat="37.131936" lon="-8.872645">
        <ele>127.039</ele>
        <time>2018-12-28T09:51:52Z</time>
      </trkpt>
      <trkpt lat="37.131893" lon="-8.872619">
        <ele>126.527</ele>
        <time>2018-12-28T09:51:56Z</time>
      </trkpt>
      <trkpt lat="37.131871" lon="-8.872588">
        <ele>126.568</ele>
        <time>2018-12-28T09:51:59Z</time>
      </trkpt>
      <trkpt lat="37.131815" lon="-8.872500">
        <ele>126.014</ele>
        <time>2018-12-28T09:52:07Z</time>
      </trkpt>
      <trkpt lat="37.131785" lon="-8.872463">
        <ele>125.508</ele>
        <time>2018-12-28T09:52:10Z</time>
      </trkpt>
      <trkpt lat="37.131703" lon="-8.872341">
        <ele>126.085</ele>
        <time>2018-12-28T09:52:20Z</time>
      </trkpt>
      <trkpt lat="37.131675" lon="-8.872265">
        <ele>125.543</ele>
        <time>2018-12-28T09:52:25Z</time>
      </trkpt>
      <trkpt lat="37.131667" lon="-8.872229">
        <ele>125.520</ele>
        <time>2018-12-28T09:52:27Z</time>
      </trkpt>
      <trkpt lat="37.131648" lon="-8.872125">
        <ele>125.545</ele>
        <time>2018-12-28T09:52:34Z</time>
      </trkpt>
      <trkpt lat="37.131605" lon="-8.872018">
        <ele>126.521</ele>
        <time>2018-12-28T09:52:41Z</time>
      </trkpt>
      <trkpt lat="37.131598" lon="-8.871982">
        <ele>126.582</ele>
        <time>2018-12-28T09:52:43Z</time>
      </trkpt>
      <trkpt lat="37.131569" lon="-8.871897">
        <ele>127.510</ele>
        <time>2018-12-28T09:52:49Z</time>
      </trkpt>
      <trkpt lat="37.131541" lon="-8.871728">
        <ele>126.536</ele>
        <time>2018-12-28T09:53:00Z</time>
      </trkpt>
      <trkpt lat="37.131530" lon="-8.871664">
        <ele>126.075</ele>
        <time>2018-12-28T09:53:04Z</time>
      </trkpt>
      <trkpt lat="37.131523" lon="-8.871628">
        <ele>125.528</ele>
        <time>2018-12-28T09:53:06Z</time>
      </trkpt>
      <trkpt lat="37.131488" lon="-8.871544">
        <ele>125.120</ele>
        <time>2018-12-28T09:53:12Z</time>
      </trkpt>
      <trkpt lat="37.131466" lon="-8.871462">
        <ele>124.608</ele>
        <time>2018-12-28T09:53:17Z</time>
      </trkpt>
      <trkpt lat="37.131453" lon="-8.871407">
        <ele>124.180</ele>
        <time>2018-12-28T09:53:21Z</time>
      </trkpt>
      <trkpt lat="37.131396" lon="-8.871281">
        <ele>124.178</ele>
        <time>2018-12-28T09:53:31Z</time>
      </trkpt>
      <trkpt lat="37.131352" lon="-8.871219">
        <ele>123.645</ele>
        <time>2018-12-28T09:53:36Z</time>
      </trkpt>
      <trkpt lat="37.131194" lon="-8.871127">
        <ele>123.180</ele>
        <time>2018-12-28T09:53:49Z</time>
      </trkpt>
      <trkpt lat="37.131080" lon="-8.871068">
        <ele>121.786</ele>
        <time>2018-12-28T09:53:58Z</time>
      </trkpt>
      <trkpt lat="37.131046" lon="-8.871005">
        <ele>120.367</ele>
        <time>2018-12-28T09:54:03Z</time>
      </trkpt>
      <trkpt lat="37.131061" lon="-8.870921">
        <ele>119.325</ele>
        <time>2018-12-28T09:54:08Z</time>
      </trkpt>
      <trkpt lat="37.131097" lon="-8.870877">
        <ele>118.331</ele>
        <time>2018-12-28T09:54:12Z</time>
      </trkpt>
      <trkpt lat="37.131133" lon="-8.870839">
        <ele>117.923</ele>
        <time>2018-12-28T09:54:16Z</time>
      </trkpt>
      <trkpt lat="37.131177" lon="-8.870788">
        <ele>117.483</ele>
        <time>2018-12-28T09:54:21Z</time>
      </trkpt>
      <trkpt lat="37.131213" lon="-8.870742">
        <ele>116.911</ele>
        <time>2018-12-28T09:54:25Z</time>
      </trkpt>
      <trkpt lat="37.131304" lon="-8.870592">
        <ele>115.508</ele>
        <time>2018-12-28T09:54:37Z</time>
      </trkpt>
      <trkpt lat="37.131377" lon="-8.870495">
        <ele>114.515</ele>
        <time>2018-12-28T09:54:45Z</time>
      </trkpt>
      <trkpt lat="37.131384" lon="-8.870491">
        <ele>114.073</ele>
        <time>2018-12-28T09:54:46Z</time>
      </trkpt>
      <trkpt lat="37.131531" lon="-8.870330">
        <ele>112.640</ele>
        <time>2018-12-28T09:55:00Z</time>
      </trkpt>
      <trkpt lat="37.131535" lon="-8.870315">
        <ele>112.615</ele>
        <time>2018-12-28T09:55:01Z</time>
      </trkpt>
      <trkpt lat="37.131564" lon="-8.870211">
        <ele>111.611</ele>
        <time>2018-12-28T09:55:08Z</time>
      </trkpt>
      <trkpt lat="37.131583" lon="-8.870160">
        <ele>110.662</ele>
        <time>2018-12-28T09:55:11Z</time>
      </trkpt>
      <trkpt lat="37.131612" lon="-8.870106">
        <ele>110.660</ele>
        <time>2018-12-28T09:55:15Z</time>
      </trkpt>
      <trkpt lat="37.131620" lon="-8.870039">
        <ele>109.776</ele>
        <time>2018-12-28T09:55:20Z</time>
      </trkpt>
      <trkpt lat="37.131645" lon="-8.869985">
        <ele>109.297</ele>
        <time>2018-12-28T09:55:23Z</time>
      </trkpt>
      <trkpt lat="37.131648" lon="-8.869859">
        <ele>107.323</ele>
        <time>2018-12-28T09:55:31Z</time>
      </trkpt>
      <trkpt lat="37.131639" lon="-8.869820">
        <ele>106.825</ele>
        <time>2018-12-28T09:55:34Z</time>
      </trkpt>
      <trkpt lat="37.131611" lon="-8.869709">
        <ele>104.908</ele>
        <time>2018-12-28T09:55:41Z</time>
      </trkpt>
      <trkpt lat="37.131555" lon="-8.869549">
        <ele>103.432</ele>
        <time>2018-12-28T09:55:52Z</time>
      </trkpt>
      <trkpt lat="37.131533" lon="-8.869495">
        <ele>103.460</ele>
        <time>2018-12-28T09:55:56Z</time>
      </trkpt>
      <trkpt lat="37.131515" lon="-8.869436">
        <ele>103.067</ele>
        <time>2018-12-28T09:56:00Z</time>
      </trkpt>
      <trkpt lat="37.131482" lon="-8.869332">
        <ele>102.012</ele>
        <time>2018-12-28T09:56:07Z</time>
      </trkpt>
      <trkpt lat="37.131410" lon="-8.869150">
        <ele>101.588</ele>
        <time>2018-12-28T09:56:19Z</time>
      </trkpt>
      <trkpt lat="37.131338" lon="-8.869038">
        <ele>101.039</ele>
        <time>2018-12-28T09:56:27Z</time>
      </trkpt>
      <trkpt lat="37.131275" lon="-8.868877">
        <ele>100.157</ele>
        <time>2018-12-28T09:56:37Z</time>
      </trkpt>
      <trkpt lat="37.131253" lon="-8.868837">
        <ele>100.153</ele>
        <time>2018-12-28T09:56:40Z</time>
      </trkpt>
      <trkpt lat="37.131223" lon="-8.868757">
        <ele>99.686</ele>
        <time>2018-12-28T09:56:45Z</time>
      </trkpt>
      <trkpt lat="37.131190" lon="-8.868642">
        <ele>99.160</ele>
        <time>2018-12-28T09:56:52Z</time>
      </trkpt>
      <trkpt lat="37.131152" lon="-8.868576">
        <ele>98.626</ele>
        <time>2018-12-28T09:56:57Z</time>
      </trkpt>
      <trkpt lat="37.131141" lon="-8.868544">
        <ele>98.608</ele>
        <time>2018-12-28T09:56:59Z</time>
      </trkpt>
      <trkpt lat="37.131117" lon="-8.868486">
        <ele>98.651</ele>
        <time>2018-12-28T09:57:03Z</time>
      </trkpt>
      <trkpt lat="37.131034" lon="-8.868344">
        <ele>98.649</ele>
        <time>2018-12-28T09:57:14Z</time>
      </trkpt>
      <trkpt lat="37.131012" lon="-8.868302">
        <ele>99.126</ele>
        <time>2018-12-28T09:57:17Z</time>
      </trkpt>
      <trkpt lat="37.130957" lon="-8.868218">
        <ele>99.161</ele>
        <time>2018-12-28T09:57:24Z</time>
      </trkpt>
      <trkpt lat="37.130942" lon="-8.868188">
        <ele>99.187</ele>
        <time>2018-12-28T09:57:26Z</time>
      </trkpt>
      <trkpt lat="37.130866" lon="-8.868014">
        <ele>100.118</ele>
        <time>2018-12-28T09:57:38Z</time>
      </trkpt>
      <trkpt lat="37.130830" lon="-8.867782">
        <ele>99.636</ele>
        <time>2018-12-28T09:57:52Z</time>
      </trkpt>
      <trkpt lat="37.130819" lon="-8.867730">
        <ele>99.132</ele>
        <time>2018-12-28T09:57:55Z</time>
      </trkpt>
      <trkpt lat="37.130806" lon="-8.867580">
        <ele>98.151</ele>
        <time>2018-12-28T09:58:04Z</time>
      </trkpt>
      <trkpt lat="37.130775" lon="-8.867339">
        <ele>94.301</ele>
        <time>2018-12-28T09:58:19Z</time>
      </trkpt>
      <trkpt lat="37.130745" lon="-8.867146">
        <ele>92.911</ele>
        <time>2018-12-28T09:58:31Z</time>
      </trkpt>
      <trkpt lat="37.130736" lon="-8.867052">
        <ele>92.408</ele>
        <time>2018-12-28T09:58:36Z</time>
      </trkpt>
      <trkpt lat="37.130700" lon="-8.866910">
        <ele>90.968</ele>
        <time>2018-12-28T09:58:45Z</time>
      </trkpt>
      <trkpt lat="37.130694" lon="-8.866859">
        <ele>90.016</ele>
        <time>2018-12-28T09:58:48Z</time>
      </trkpt>
      <trkpt lat="37.130664" lon="-8.866755">
        <ele>88.123</ele>
        <time>2018-12-28T09:58:55Z</time>
      </trkpt>
      <trkpt lat="37.130662" lon="-8.866739">
        <ele>88.148</ele>
        <time>2018-12-28T09:58:56Z</time>
      </trkpt>
      <trkpt lat="37.130651" lon="-8.866678">
        <ele>87.114</ele>
        <time>2018-12-28T09:59:00Z</time>
      </trkpt>
      <trkpt lat="37.130616" lon="-8.866485">
        <ele>85.655</ele>
        <time>2018-12-28T09:59:11Z</time>
      </trkpt>
      <trkpt lat="37.130608" lon="-8.866370">
        <ele>85.253</ele>
        <time>2018-12-28T09:59:18Z</time>
      </trkpt>
      <trkpt lat="37.130607" lon="-8.866285">
        <ele>85.249</ele>
        <time>2018-12-28T09:59:23Z</time>
      </trkpt>
      <trkpt lat="37.130575" lon="-8.866113">
        <ele>84.249</ele>
        <time>2018-12-28T09:59:34Z</time>
      </trkpt>
      <trkpt lat="37.130520" lon="-8.865969">
        <ele>84.202</ele>
        <time>2018-12-28T09:59:45Z</time>
      </trkpt>
      <trkpt lat="37.130484" lon="-8.865918">
        <ele>83.722</ele>
        <time>2018-12-28T09:59:50Z</time>
      </trkpt>
      <trkpt lat="37.130432" lon="-8.865765">
        <ele>84.208</ele>
        <time>2018-12-28T10:00:04Z</time>
      </trkpt>
      <trkpt lat="37.130425" lon="-8.865748">
        <ele>83.737</ele>
        <time>2018-12-28T10:00:19Z</time>
      </trkpt>
      <trkpt lat="37.130425" lon="-8.865748">
        <ele>84.275</ele>
        <time>2018-12-28T10:00:22Z</time>
      </trkpt>
      <trkpt lat="37.130451" lon="-8.865556">
        <ele>83.752</ele>
        <time>2018-12-28T10:00:36Z</time>
      </trkpt>
      <trkpt lat="37.130518" lon="-8.865384">
        <ele>83.277</ele>
        <time>2018-12-28T10:00:49Z</time>
      </trkpt>
      <trkpt lat="37.130533" lon="-8.865346">
        <ele>82.833</ele>
        <time>2018-12-28T10:00:52Z</time>
      </trkpt>
      <trkpt lat="37.130565" lon="-8.865279">
        <ele>82.844</ele>
        <time>2018-12-28T10:00:57Z</time>
      </trkpt>
      <trkpt lat="37.130624" lon="-8.865114">
        <ele>82.872</ele>
        <time>2018-12-28T10:01:10Z</time>
      </trkpt>
      <trkpt lat="37.130617" lon="-8.865092">
        <ele>82.358</ele>
        <time>2018-12-28T10:01:22Z</time>
      </trkpt>
      <trkpt lat="37.130617" lon="-8.865098">
        <ele>82.861</ele>
        <time>2018-12-28T10:01:39Z</time>
      </trkpt>
      <trkpt lat="37.130610" lon="-8.865100">
        <ele>82.321</ele>
        <time>2018-12-28T10:01:56Z</time>
      </trkpt>
      <trkpt lat="37.130610" lon="-8.865100">
        <ele>82.813</ele>
        <time>2018-12-28T10:02:18Z</time>
      </trkpt>
      <trkpt lat="37.130608" lon="-8.865104">
        <ele>82.808</ele>
        <time>2018-12-28T10:02:34Z</time>
      </trkpt>
      <trkpt lat="37.130608" lon="-8.865104">
        <ele>82.329</ele>
        <time>2018-12-28T10:02:43Z</time>
      </trkpt>
      <trkpt lat="37.130588" lon="-8.864895">
        <ele>83.267</ele>
        <time>2018-12-28T10:02:55Z</time>
      </trkpt>
      <trkpt lat="37.130602" lon="-8.864727">
        <ele>83.724</ele>
        <time>2018-12-28T10:03:06Z</time>
      </trkpt>
      <trkpt lat="37.130612" lon="-8.864646">
        <ele>83.779</ele>
        <time>2018-12-28T10:03:12Z</time>
      </trkpt>
      <trkpt lat="37.130621" lon="-8.864618">
        <ele>83.795</ele>
        <time>2018-12-28T10:03:14Z</time>
      </trkpt>
      <trkpt lat="37.130620" lon="-8.864560">
        <ele>84.276</ele>
        <time>2018-12-28T10:03:18Z</time>
      </trkpt>
      <trkpt lat="37.130627" lon="-8.864496">
        <ele>84.234</ele>
        <time>2018-12-28T10:03:22Z</time>
      </trkpt>
      <trkpt lat="37.130633" lon="-8.864453">
        <ele>84.710</ele>
        <time>2018-12-28T10:03:25Z</time>
      </trkpt>
      <trkpt lat="37.130654" lon="-8.864317">
        <ele>84.729</ele>
        <time>2018-12-28T10:03:34Z</time>
      </trkpt>
      <trkpt lat="37.130661" lon="-8.864242">
        <ele>84.700</ele>
        <time>2018-12-28T10:03:39Z</time>
      </trkpt>
      <trkpt lat="37.130666" lon="-8.864153">
        <ele>85.220</ele>
        <time>2018-12-28T10:03:45Z</time>
      </trkpt>
      <trkpt lat="37.130674" lon="-8.864126">
        <ele>84.708</ele>
        <time>2018-12-28T10:03:47Z</time>
      </trkpt>
      <trkpt lat="37.130667" lon="-8.864012">
        <ele>85.295</ele>
        <time>2018-12-28T10:03:54Z</time>
      </trkpt>
      <trkpt lat="37.130673" lon="-8.863923">
        <ele>85.623</ele>
        <time>2018-12-28T10:04:00Z</time>
      </trkpt>
      <trkpt lat="37.130686" lon="-8.863807">
        <ele>85.620</ele>
        <time>2018-12-28T10:04:07Z</time>
      </trkpt>
      <trkpt lat="37.130707" lon="-8.863706">
        <ele>85.685</ele>
        <time>2018-12-28T10:04:14Z</time>
      </trkpt>
      <trkpt lat="37.130714" lon="-8.863645">
        <ele>86.121</ele>
        <time>2018-12-28T10:04:18Z</time>
      </trkpt>
      <trkpt lat="37.130728" lon="-8.863606">
        <ele>85.692</ele>
        <time>2018-12-28T10:04:21Z</time>
      </trkpt>
      <trkpt lat="37.130756" lon="-8.863398">
        <ele>86.110</ele>
        <time>2018-12-28T10:04:36Z</time>
      </trkpt>
      <trkpt lat="37.130727" lon="-8.863178">
        <ele>84.766</ele>
        <time>2018-12-28T10:04:52Z</time>
      </trkpt>
      <trkpt lat="37.130728" lon="-8.863154">
        <ele>84.786</ele>
        <time>2018-12-28T10:04:54Z</time>
      </trkpt>
      <trkpt lat="37.130676" lon="-8.862959">
        <ele>82.860</ele>
        <time>2018-12-28T10:05:08Z</time>
      </trkpt>
      <trkpt lat="37.130652" lon="-8.862905">
        <ele>82.326</ele>
        <time>2018-12-28T10:05:12Z</time>
      </trkpt>
      <trkpt lat="37.130601" lon="-8.862770">
        <ele>81.308</ele>
        <time>2018-12-28T10:05:22Z</time>
      </trkpt>
      <trkpt lat="37.130565" lon="-8.862714">
        <ele>80.451</ele>
        <time>2018-12-28T10:05:27Z</time>
      </trkpt>
      <trkpt lat="37.130493" lon="-8.862593">
        <ele>79.449</ele>
        <time>2018-12-28T10:05:37Z</time>
      </trkpt>
      <trkpt lat="37.130443" lon="-8.862517">
        <ele>78.986</ele>
        <time>2018-12-28T10:05:49Z</time>
      </trkpt>
      <trkpt lat="37.130442" lon="-8.862491">
        <ele>78.441</ele>
        <time>2018-12-28T10:06:07Z</time>
      </trkpt>
      <trkpt lat="37.130451" lon="-8.862484">
        <ele>78.417</ele>
        <time>2018-12-28T10:06:18Z</time>
      </trkpt>
      <trkpt lat="37.130469" lon="-8.862451">
        <ele>78.458</ele>
        <time>2018-12-28T10:06:43Z</time>
      </trkpt>
      <trkpt lat="37.130432" lon="-8.862460">
        <ele>78.086</ele>
        <time>2018-12-28T10:06:55Z</time>
      </trkpt>
      <trkpt lat="37.130432" lon="-8.862460">
        <ele>78.442</ele>
        <time>2018-12-28T10:06:57Z</time>
      </trkpt>
      <trkpt lat="37.130366" lon="-8.862351">
        <ele>77.557</ele>
        <time>2018-12-28T10:07:06Z</time>
      </trkpt>
      <trkpt lat="37.130284" lon="-8.862193">
        <ele>75.600</ele>
        <time>2018-12-28T10:07:18Z</time>
      </trkpt>
      <trkpt lat="37.130268" lon="-8.862004">
        <ele>74.120</ele>
        <time>2018-12-28T10:07:30Z</time>
      </trkpt>
      <trkpt lat="37.130278" lon="-8.861959">
        <ele>73.208</ele>
        <time>2018-12-28T10:07:33Z</time>
      </trkpt>
      <trkpt lat="37.130314" lon="-8.861897">
        <ele>72.268</ele>
        <time>2018-12-28T10:07:38Z</time>
      </trkpt>
      <trkpt lat="37.130320" lon="-8.861869">
        <ele>71.226</ele>
        <time>2018-12-28T10:07:40Z</time>
      </trkpt>
      <trkpt lat="37.130398" lon="-8.861739">
        <ele>68.363</ele>
        <time>2018-12-28T10:07:51Z</time>
      </trkpt>
      <trkpt lat="37.130402" lon="-8.861731">
        <ele>67.988</ele>
        <time>2018-12-28T10:07:52Z</time>
      </trkpt>
      <trkpt lat="37.130518" lon="-8.861620">
        <ele>65.054</ele>
        <time>2018-12-28T10:08:03Z</time>
      </trkpt>
      <trkpt lat="37.130638" lon="-8.861559">
        <ele>63.125</ele>
        <time>2018-12-28T10:08:13Z</time>
      </trkpt>
      <trkpt lat="37.130656" lon="-8.861544">
        <ele>62.613</ele>
        <time>2018-12-28T10:08:15Z</time>
      </trkpt>
      <trkpt lat="37.130811" lon="-8.861517">
        <ele>61.659</ele>
        <time>2018-12-28T10:08:26Z</time>
      </trkpt>
      <trkpt lat="37.130964" lon="-8.861508">
        <ele>61.117</ele>
        <time>2018-12-28T10:08:37Z</time>
      </trkpt>
      <trkpt lat="37.131097" lon="-8.861499">
        <ele>60.287</ele>
        <time>2018-12-28T10:08:47Z</time>
      </trkpt>
      <trkpt lat="37.131254" lon="-8.861443">
        <ele>60.215</ele>
        <time>2018-12-28T10:08:59Z</time>
      </trkpt>
      <trkpt lat="37.131405" lon="-8.861389">
        <ele>59.208</ele>
        <time>2018-12-28T10:09:11Z</time>
      </trkpt>
      <trkpt lat="37.131565" lon="-8.861321">
        <ele>57.894</ele>
        <time>2018-12-28T10:09:25Z</time>
      </trkpt>
      <trkpt lat="37.131668" lon="-8.861272">
        <ele>57.842</ele>
        <time>2018-12-28T10:09:34Z</time>
      </trkpt>
      <trkpt lat="37.131738" lon="-8.861252">
        <ele>57.819</ele>
        <time>2018-12-28T10:09:40Z</time>
      </trkpt>
      <trkpt lat="37.131928" lon="-8.861188">
        <ele>58.764</ele>
        <time>2018-12-28T10:09:55Z</time>
      </trkpt>
      <trkpt lat="37.131978" lon="-8.861187">
        <ele>58.790</ele>
        <time>2018-12-28T10:09:59Z</time>
      </trkpt>
      <trkpt lat="37.132091" lon="-8.861212">
        <ele>58.751</ele>
        <time>2018-12-28T10:10:08Z</time>
      </trkpt>
      <trkpt lat="37.132162" lon="-8.861243">
        <ele>59.219</ele>
        <time>2018-12-28T10:10:14Z</time>
      </trkpt>
      <trkpt lat="37.132178" lon="-8.861253">
        <ele>58.735</ele>
        <time>2018-12-28T10:10:16Z</time>
      </trkpt>
      <trkpt lat="37.132329" lon="-8.861296">
        <ele>58.352</ele>
        <time>2018-12-28T10:10:28Z</time>
      </trkpt>
      <trkpt lat="37.132381" lon="-8.861309">
        <ele>58.353</ele>
        <time>2018-12-28T10:10:32Z</time>
      </trkpt>
      <trkpt lat="37.132554" lon="-8.861311">
        <ele>57.308</ele>
        <time>2018-12-28T10:10:46Z</time>
      </trkpt>
      <trkpt lat="37.132566" lon="-8.861310">
        <ele>56.808</ele>
        <time>2018-12-28T10:10:47Z</time>
      </trkpt>
      <trkpt lat="37.132720" lon="-8.861383">
        <ele>56.848</ele>
        <time>2018-12-28T10:11:00Z</time>
      </trkpt>
      <trkpt lat="37.132762" lon="-8.861416">
        <ele>56.896</ele>
        <time>2018-12-28T10:11:04Z</time>
      </trkpt>
      <trkpt lat="37.132919" lon="-8.861512">
        <ele>56.833</ele>
        <time>2018-12-28T10:11:18Z</time>
      </trkpt>
      <trkpt lat="37.133055" lon="-8.861618">
        <ele>56.318</ele>
        <time>2018-12-28T10:11:31Z</time>
      </trkpt>
      <trkpt lat="37.133198" lon="-8.861774">
        <ele>55.884</ele>
        <time>2018-12-28T10:11:46Z</time>
      </trkpt>
      <trkpt lat="37.133336" lon="-8.861954">
        <ele>55.885</ele>
        <time>2018-12-28T10:12:01Z</time>
      </trkpt>
      <trkpt lat="37.133344" lon="-8.861964">
        <ele>55.493</ele>
        <time>2018-12-28T10:12:02Z</time>
      </trkpt>
      <trkpt lat="37.133486" lon="-8.862131">
        <ele>55.889</ele>
        <time>2018-12-28T10:12:18Z</time>
      </trkpt>
      <trkpt lat="37.133573" lon="-8.862255">
        <ele>55.881</ele>
        <time>2018-12-28T10:12:29Z</time>
      </trkpt>
      <trkpt lat="37.133624" lon="-8.862303">
        <ele>55.461</ele>
        <time>2018-12-28T10:12:34Z</time>
      </trkpt>
      <trkpt lat="37.133664" lon="-8.862334">
        <ele>55.817</ele>
        <time>2018-12-28T10:12:38Z</time>
      </trkpt>
      <trkpt lat="37.133787" lon="-8.862425">
        <ele>56.308</ele>
        <time>2018-12-28T10:12:50Z</time>
      </trkpt>
      <trkpt lat="37.133927" lon="-8.862538">
        <ele>57.311</ele>
        <time>2018-12-28T10:13:01Z</time>
      </trkpt>
      <trkpt lat="37.134047" lon="-8.862585">
        <ele>58.779</ele>
        <time>2018-12-28T10:13:10Z</time>
      </trkpt>
      <trkpt lat="37.134222" lon="-8.862573">
        <ele>58.716</ele>
        <time>2018-12-28T10:13:24Z</time>
      </trkpt>
      <trkpt lat="37.134235" lon="-8.862576">
        <ele>58.761</ele>
        <time>2018-12-28T10:13:25Z</time>
      </trkpt>
      <trkpt lat="37.134335" lon="-8.862551">
        <ele>58.747</ele>
        <time>2018-12-28T10:13:31Z</time>
      </trkpt>
      <trkpt lat="37.134369" lon="-8.862552">
        <ele>58.338</ele>
        <time>2018-12-28T10:13:34Z</time>
      </trkpt>
      <trkpt lat="37.134542" lon="-8.862556">
        <ele>57.836</ele>
        <time>2018-12-28T10:13:49Z</time>
      </trkpt>
      <trkpt lat="37.134713" lon="-8.862570">
        <ele>56.892</ele>
        <time>2018-12-28T10:14:02Z</time>
      </trkpt>
      <trkpt lat="37.134833" lon="-8.862563">
        <ele>55.823</ele>
        <time>2018-12-28T10:14:12Z</time>
      </trkpt>
      <trkpt lat="37.134979" lon="-8.862551">
        <ele>55.483</ele>
        <time>2018-12-28T10:14:24Z</time>
      </trkpt>
      <trkpt lat="37.134992" lon="-8.862549">
        <ele>55.411</ele>
        <time>2018-12-28T10:14:25Z</time>
      </trkpt>
      <trkpt lat="37.135158" lon="-8.862501">
        <ele>55.408</ele>
        <time>2018-12-28T10:14:39Z</time>
      </trkpt>
      <trkpt lat="37.135235" lon="-8.862480">
        <ele>54.935</ele>
        <time>2018-12-28T10:14:46Z</time>
      </trkpt>
      <trkpt lat="37.135330" lon="-8.862462">
        <ele>54.473</ele>
        <time>2018-12-28T10:14:54Z</time>
      </trkpt>
      <trkpt lat="37.135479" lon="-8.862435">
        <ele>54.490</ele>
        <time>2018-12-28T10:15:07Z</time>
      </trkpt>
      <trkpt lat="37.135645" lon="-8.862374">
        <ele>54.435</ele>
        <time>2018-12-28T10:15:20Z</time>
      </trkpt>
      <trkpt lat="37.135692" lon="-8.862347">
        <ele>54.971</ele>
        <time>2018-12-28T10:15:25Z</time>
      </trkpt>
      <trkpt lat="37.135729" lon="-8.862334">
        <ele>54.982</ele>
        <time>2018-12-28T10:15:39Z</time>
      </trkpt>
      <trkpt lat="37.135772" lon="-8.862311">
        <ele>54.470</ele>
        <time>2018-12-28T10:15:43Z</time>
      </trkpt>
      <trkpt lat="37.135947" lon="-8.862216">
        <ele>54.496</ele>
        <time>2018-12-28T10:15:59Z</time>
      </trkpt>
      <trkpt lat="37.135958" lon="-8.862211">
        <ele>54.964</ele>
        <time>2018-12-28T10:16:00Z</time>
      </trkpt>
      <trkpt lat="37.136000" lon="-8.862179">
        <ele>54.406</ele>
        <time>2018-12-28T10:16:04Z</time>
      </trkpt>
      <trkpt lat="37.136111" lon="-8.862060">
        <ele>54.916</ele>
        <time>2018-12-28T10:16:16Z</time>
      </trkpt>
      <trkpt lat="37.136227" lon="-8.861939">
        <ele>53.908</ele>
        <time>2018-12-28T10:16:27Z</time>
      </trkpt>
      <trkpt lat="37.136372" lon="-8.861899">
        <ele>52.559</ele>
        <time>2018-12-28T10:16:39Z</time>
      </trkpt>
      <trkpt lat="37.136400" lon="-8.861903">
        <ele>53.497</ele>
        <time>2018-12-28T10:16:49Z</time>
      </trkpt>
      <trkpt lat="37.136495" lon="-8.861920">
        <ele>52.564</ele>
        <time>2018-12-28T10:16:57Z</time>
      </trkpt>
      <trkpt lat="37.136628" lon="-8.862009">
        <ele>53.419</ele>
        <time>2018-12-28T10:17:09Z</time>
      </trkpt>
      <trkpt lat="37.136723" lon="-8.862100">
        <ele>54.425</ele>
        <time>2018-12-28T10:17:19Z</time>
      </trkpt>
      <trkpt lat="37.136768" lon="-8.862132">
        <ele>53.956</ele>
        <time>2018-12-28T10:17:23Z</time>
      </trkpt>
      <trkpt lat="37.136797" lon="-8.862158">
        <ele>54.484</ele>
        <time>2018-12-28T10:17:26Z</time>
      </trkpt>
      <trkpt lat="37.136899" lon="-8.862213">
        <ele>54.980</ele>
        <time>2018-12-28T10:17:35Z</time>
      </trkpt>
      <trkpt lat="37.137037" lon="-8.862302">
        <ele>55.899</ele>
        <time>2018-12-28T10:17:48Z</time>
      </trkpt>
      <trkpt lat="37.137107" lon="-8.862324">
        <ele>55.407</ele>
        <time>2018-12-28T10:17:54Z</time>
      </trkpt>
      <trkpt lat="37.137124" lon="-8.862341">
        <ele>55.827</ele>
        <time>2018-12-28T10:17:56Z</time>
      </trkpt>
      <trkpt lat="37.137174" lon="-8.862356">
        <ele>55.808</ele>
        <time>2018-12-28T10:18:00Z</time>
      </trkpt>
      <trkpt lat="37.137232" lon="-8.862380">
        <ele>55.862</ele>
        <time>2018-12-28T10:18:05Z</time>
      </trkpt>
      <trkpt lat="37.137330" lon="-8.862431">
        <ele>55.830</ele>
        <time>2018-12-28T10:18:13Z</time>
      </trkpt>
      <trkpt lat="37.137390" lon="-8.862443">
        <ele>55.877</ele>
        <time>2018-12-28T10:18:18Z</time>
      </trkpt>
      <trkpt lat="37.137440" lon="-8.862466">
        <ele>55.442</ele>
        <time>2018-12-28T10:18:22Z</time>
      </trkpt>
      <trkpt lat="37.137576" lon="-8.862505">
        <ele>55.448</ele>
        <time>2018-12-28T10:18:34Z</time>
      </trkpt>
      <trkpt lat="37.137723" lon="-8.862539">
        <ele>55.479</ele>
        <time>2018-12-28T10:18:46Z</time>
      </trkpt>
      <trkpt lat="37.137886" lon="-8.862555">
        <ele>55.497</ele>
        <time>2018-12-28T10:18:59Z</time>
      </trkpt>
      <trkpt lat="37.138024" lon="-8.862562">
        <ele>55.433</ele>
        <time>2018-12-28T10:19:09Z</time>
      </trkpt>
      <trkpt lat="37.138080" lon="-8.862564">
        <ele>54.939</ele>
        <time>2018-12-28T10:19:13Z</time>
      </trkpt>
      <trkpt lat="37.138119" lon="-8.862581">
        <ele>55.401</ele>
        <time>2018-12-28T10:19:17Z</time>
      </trkpt>
      <trkpt lat="37.138267" lon="-8.862586">
        <ele>54.921</ele>
        <time>2018-12-28T10:19:28Z</time>
      </trkpt>
      <trkpt lat="37.138398" lon="-8.862640">
        <ele>54.908</ele>
        <time>2018-12-28T10:19:40Z</time>
      </trkpt>
      <trkpt lat="37.138400" lon="-8.862634">
        <ele>54.426</ele>
        <time>2018-12-28T10:19:52Z</time>
      </trkpt>
      <trkpt lat="37.138400" lon="-8.862634">
        <ele>54.994</ele>
        <time>2018-12-28T10:19:55Z</time>
      </trkpt>
      <trkpt lat="37.138419" lon="-8.862644">
        <ele>54.461</ele>
        <time>2018-12-28T10:19:57Z</time>
      </trkpt>
      <trkpt lat="37.138506" lon="-8.862684">
        <ele>54.456</ele>
        <time>2018-12-28T10:20:05Z</time>
      </trkpt>
      <trkpt lat="37.138569" lon="-8.862702">
        <ele>54.982</ele>
        <time>2018-12-28T10:20:11Z</time>
      </trkpt>
      <trkpt lat="37.138658" lon="-8.862775">
        <ele>54.473</ele>
        <time>2018-12-28T10:20:20Z</time>
      </trkpt>
      <trkpt lat="37.138713" lon="-8.862819">
        <ele>54.441</ele>
        <time>2018-12-28T10:20:25Z</time>
      </trkpt>
      <trkpt lat="37.138757" lon="-8.862834">
        <ele>54.417</ele>
        <time>2018-12-28T10:20:29Z</time>
      </trkpt>
      <trkpt lat="37.138782" lon="-8.862842">
        <ele>54.974</ele>
        <time>2018-12-28T10:20:31Z</time>
      </trkpt>
      <trkpt lat="37.138816" lon="-8.862861">
        <ele>54.456</ele>
        <time>2018-12-28T10:20:34Z</time>
      </trkpt>
      <trkpt lat="37.138872" lon="-8.862890">
        <ele>54.421</ele>
        <time>2018-12-28T10:20:39Z</time>
      </trkpt>
      <trkpt lat="37.138987" lon="-8.862974">
        <ele>54.408</ele>
        <time>2018-12-28T10:20:50Z</time>
      </trkpt>
      <trkpt lat="37.139028" lon="-8.862995">
        <ele>54.910</ele>
        <time>2018-12-28T10:21:04Z</time>
      </trkpt>
      <trkpt lat="37.139028" lon="-8.862995">
        <ele>55.458</ele>
        <time>2018-12-28T10:21:09Z</time>
      </trkpt>
      <trkpt lat="37.139048" lon="-8.863013">
        <ele>54.975</ele>
        <time>2018-12-28T10:21:11Z</time>
      </trkpt>
      <trkpt lat="37.139146" lon="-8.863104">
        <ele>54.920</ele>
        <time>2018-12-28T10:21:21Z</time>
      </trkpt>
      <trkpt lat="37.139283" lon="-8.863225">
        <ele>55.486</ele>
        <time>2018-12-28T10:21:34Z</time>
      </trkpt>
      <trkpt lat="37.139322" lon="-8.863280">
        <ele>55.897</ele>
        <time>2018-12-28T10:21:39Z</time>
      </trkpt>
      <trkpt lat="37.139410" lon="-8.863346">
        <ele>55.815</ele>
        <time>2018-12-28T10:21:48Z</time>
      </trkpt>
      <trkpt lat="37.139454" lon="-8.863344">
        <ele>56.381</ele>
        <time>2018-12-28T10:21:52Z</time>
      </trkpt>
      <trkpt lat="37.139607" lon="-8.863297">
        <ele>56.879</ele>
        <time>2018-12-28T10:22:04Z</time>
      </trkpt>
      <trkpt lat="37.139659" lon="-8.863263">
        <ele>57.305</ele>
        <time>2018-12-28T10:22:09Z</time>
      </trkpt>
      <trkpt lat="37.139693" lon="-8.863251">
        <ele>57.825</ele>
        <time>2018-12-28T10:22:12Z</time>
      </trkpt>
      <trkpt lat="37.139819" lon="-8.863185">
        <ele>58.708</ele>
        <time>2018-12-28T10:22:23Z</time>
      </trkpt>
      <trkpt lat="37.139846" lon="-8.863157">
        <ele>58.740</ele>
        <time>2018-12-28T10:22:26Z</time>
      </trkpt>
      <trkpt lat="37.139963" lon="-8.863075">
        <ele>59.738</ele>
        <time>2018-12-28T10:22:41Z</time>
      </trkpt>
      <trkpt lat="37.139963" lon="-8.863075">
        <ele>60.255</ele>
        <time>2018-12-28T10:22:45Z</time>
      </trkpt>
      <trkpt lat="37.140038" lon="-8.863038">
        <ele>60.240</ele>
        <time>2018-12-28T10:22:55Z</time>
      </trkpt>
      <trkpt lat="37.140060" lon="-8.863026">
        <ele>60.766</ele>
        <time>2018-12-28T10:22:57Z</time>
      </trkpt>
      <trkpt lat="37.140096" lon="-8.862986">
        <ele>61.677</ele>
        <time>2018-12-28T10:23:09Z</time>
      </trkpt>
      <trkpt lat="37.140096" lon="-8.862986">
        <ele>61.145</ele>
        <time>2018-12-28T10:23:14Z</time>
      </trkpt>
      <trkpt lat="37.140134" lon="-8.862978">
        <ele>61.141</ele>
        <time>2018-12-28T10:23:17Z</time>
      </trkpt>
      <trkpt lat="37.140259" lon="-8.862868">
        <ele>60.783</ele>
        <time>2018-12-28T10:23:29Z</time>
      </trkpt>
      <trkpt lat="37.140305" lon="-8.862807">
        <ele>60.225</ele>
        <time>2018-12-28T10:23:34Z</time>
      </trkpt>
      <trkpt lat="37.140446" lon="-8.862639">
        <ele>58.317</ele>
        <time>2018-12-28T10:23:49Z</time>
      </trkpt>
      <trkpt lat="37.140598" lon="-8.862513">
        <ele>56.308</ele>
        <time>2018-12-28T10:24:04Z</time>
      </trkpt>
      <trkpt lat="37.140636" lon="-8.862484">
        <ele>56.341</ele>
        <time>2018-12-28T10:24:08Z</time>
      </trkpt>
      <trkpt lat="37.140640" lon="-8.862442">
        <ele>56.329</ele>
        <time>2018-12-28T10:24:21Z</time>
      </trkpt>
      <trkpt lat="37.140640" lon="-8.862442">
        <ele>56.886</ele>
        <time>2018-12-28T10:24:47Z</time>
      </trkpt>
      <trkpt lat="37.140652" lon="-8.862455">
        <ele>56.371</ele>
        <time>2018-12-28T10:25:06Z</time>
      </trkpt>
      <trkpt lat="37.140692" lon="-8.862444">
        <ele>56.377</ele>
        <time>2018-12-28T10:25:19Z</time>
      </trkpt>
      <trkpt lat="37.140711" lon="-8.862445">
        <ele>56.868</ele>
        <time>2018-12-28T10:25:35Z</time>
      </trkpt>
      <trkpt lat="37.140713" lon="-8.862448">
        <ele>56.366</ele>
        <time>2018-12-28T10:26:02Z</time>
      </trkpt>
      <trkpt lat="37.140721" lon="-8.862444">
        <ele>56.382</ele>
        <time>2018-12-28T10:26:07Z</time>
      </trkpt>
      <trkpt lat="37.140770" lon="-8.862425">
        <ele>56.814</ele>
        <time>2018-12-28T10:26:19Z</time>
      </trkpt>
      <trkpt lat="37.140819" lon="-8.862441">
        <ele>57.354</ele>
        <time>2018-12-28T10:26:34Z</time>
      </trkpt>
      <trkpt lat="37.140872" lon="-8.862438">
        <ele>57.809</ele>
        <time>2018-12-28T10:26:41Z</time>
      </trkpt>
      <trkpt lat="37.140913" lon="-8.862392">
        <ele>59.208</ele>
        <time>2018-12-28T10:26:52Z</time>
      </trkpt>
      <trkpt lat="37.140940" lon="-8.862415">
        <ele>59.254</ele>
        <time>2018-12-28T10:27:03Z</time>
      </trkpt>
      <trkpt lat="37.140940" lon="-8.862415">
        <ele>58.782</ele>
        <time>2018-12-28T10:27:06Z</time>
      </trkpt>
      <trkpt lat="37.140954" lon="-8.862398">
        <ele>58.789</ele>
        <time>2018-12-28T10:27:08Z</time>
      </trkpt>
      <trkpt lat="37.140980" lon="-8.862367">
        <ele>59.734</ele>
        <time>2018-12-28T10:27:18Z</time>
      </trkpt>
      <trkpt lat="37.141022" lon="-8.862339">
        <ele>60.250</ele>
        <time>2018-12-28T10:27:28Z</time>
      </trkpt>
      <trkpt lat="37.141028" lon="-8.862338">
        <ele>59.781</ele>
        <time>2018-12-28T10:27:32Z</time>
      </trkpt>
      <trkpt lat="37.141048" lon="-8.862309">
        <ele>60.299</ele>
        <time>2018-12-28T10:27:35Z</time>
      </trkpt>
      <trkpt lat="37.141069" lon="-8.862278">
        <ele>60.785</ele>
        <time>2018-12-28T10:27:40Z</time>
      </trkpt>
      <trkpt lat="37.141100" lon="-8.862259">
        <ele>60.712</ele>
        <time>2018-12-28T10:27:44Z</time>
      </trkpt>
      <trkpt lat="37.141127" lon="-8.862243">
        <ele>60.732</ele>
        <time>2018-12-28T10:27:48Z</time>
      </trkpt>
      <trkpt lat="37.141177" lon="-8.862222">
        <ele>61.105</ele>
        <time>2018-12-28T10:28:01Z</time>
      </trkpt>
      <trkpt lat="37.141195" lon="-8.862209">
        <ele>61.608</ele>
        <time>2018-12-28T10:28:15Z</time>
      </trkpt>
      <trkpt lat="37.141234" lon="-8.862208">
        <ele>61.154</ele>
        <time>2018-12-28T10:28:26Z</time>
      </trkpt>
      <trkpt lat="37.141290" lon="-8.862188">
        <ele>61.642</ele>
        <time>2018-12-28T10:28:32Z</time>
      </trkpt>
      <trkpt lat="37.141325" lon="-8.862166">
        <ele>61.649</ele>
        <time>2018-12-28T10:28:36Z</time>
      </trkpt>
      <trkpt lat="37.141344" lon="-8.862162">
        <ele>62.114</ele>
        <time>2018-12-28T10:28:52Z</time>
      </trkpt>
      <trkpt lat="37.141385" lon="-8.862204">
        <ele>62.640</ele>
        <time>2018-12-28T10:29:03Z</time>
      </trkpt>
      <trkpt lat="37.141405" lon="-8.862186">
        <ele>63.191</ele>
        <time>2018-12-28T10:29:19Z</time>
      </trkpt>
      <trkpt lat="37.141409" lon="-8.862170">
        <ele>62.629</ele>
        <time>2018-12-28T10:29:25Z</time>
      </trkpt>
      <trkpt lat="37.141398" lon="-8.862129">
        <ele>62.145</ele>
        <time>2018-12-28T10:29:34Z</time>
      </trkpt>
      <trkpt lat="37.141379" lon="-8.862060">
        <ele>62.138</ele>
        <time>2018-12-28T10:29:45Z</time>
      </trkpt>
      <trkpt lat="37.141375" lon="-8.862045">
        <ele>62.170</ele>
        <time>2018-12-28T10:29:50Z</time>
      </trkpt>
      <trkpt lat="37.141377" lon="-8.862060">
        <ele>61.617</ele>
        <time>2018-12-28T10:29:52Z</time>
      </trkpt>
      <trkpt lat="37.141433" lon="-8.862055">
        <ele>61.608</ele>
        <time>2018-12-28T10:29:59Z</time>
      </trkpt>
      <trkpt lat="37.141458" lon="-8.862050">
        <ele>62.176</ele>
        <time>2018-12-28T10:30:10Z</time>
      </trkpt>
      <trkpt lat="37.141478" lon="-8.862066">
        <ele>61.634</ele>
        <time>2018-12-28T10:30:25Z</time>
      </trkpt>
      <trkpt lat="37.141482" lon="-8.862069">
        <ele>61.611</ele>
        <time>2018-12-28T10:30:45Z</time>
      </trkpt>
      <trkpt lat="37.141487" lon="-8.862072">
        <ele>61.676</ele>
        <time>2018-12-28T10:30:51Z</time>
      </trkpt>
      <trkpt lat="37.141547" lon="-8.862022">
        <ele>61.152</ele>
        <time>2018-12-28T10:31:00Z</time>
      </trkpt>
      <trkpt lat="37.141601" lon="-8.861949">
        <ele>60.253</ele>
        <time>2018-12-28T10:31:06Z</time>
      </trkpt>
      <trkpt lat="37.141713" lon="-8.861828">
        <ele>58.791</ele>
        <time>2018-12-28T10:31:18Z</time>
      </trkpt>
      <trkpt lat="37.141719" lon="-8.861818">
        <ele>58.387</ele>
        <time>2018-12-28T10:31:19Z</time>
      </trkpt>
      <trkpt lat="37.141797" lon="-8.861725">
        <ele>58.393</ele>
        <time>2018-12-28T10:31:33Z</time>
      </trkpt>
      <trkpt lat="37.141797" lon="-8.861725">
        <ele>58.365</ele>
        <time>2018-12-28T10:31:34Z</time>
      </trkpt>
      <trkpt lat="37.141819" lon="-8.861666">
        <ele>58.321</ele>
        <time>2018-12-28T10:31:39Z</time>
      </trkpt>
      <trkpt lat="37.141844" lon="-8.861642">
        <ele>58.308</ele>
        <time>2018-12-28T10:31:43Z</time>
      </trkpt>
      <trkpt lat="37.141867" lon="-8.861593">
        <ele>58.722</ele>
        <time>2018-12-28T10:31:48Z</time>
      </trkpt>
      <trkpt lat="37.141884" lon="-8.861553">
        <ele>58.370</ele>
        <time>2018-12-28T10:32:00Z</time>
      </trkpt>
      <trkpt lat="37.141897" lon="-8.861545">
        <ele>58.767</ele>
        <time>2018-12-28T10:32:15Z</time>
      </trkpt>
      <trkpt lat="37.141907" lon="-8.861538">
        <ele>58.312</ele>
        <time>2018-12-28T10:32:16Z</time>
      </trkpt>
      <trkpt lat="37.141940" lon="-8.861507">
        <ele>58.318</ele>
        <time>2018-12-28T10:32:20Z</time>
      </trkpt>
      <trkpt lat="37.142075" lon="-8.861353">
        <ele>55.469</ele>
        <time>2018-12-28T10:32:35Z</time>
      </trkpt>
      <trkpt lat="37.142201" lon="-8.861310">
        <ele>53.917</ele>
        <time>2018-12-28T10:32:45Z</time>
      </trkpt>
      <trkpt lat="37.142299" lon="-8.861427">
        <ele>54.943</ele>
        <time>2018-12-28T10:32:56Z</time>
      </trkpt>
      <trkpt lat="37.142363" lon="-8.861611">
        <ele>55.489</ele>
        <time>2018-12-28T10:33:08Z</time>
      </trkpt>
      <trkpt lat="37.142372" lon="-8.861642">
        <ele>55.406</ele>
        <time>2018-12-28T10:33:10Z</time>
      </trkpt>
      <trkpt lat="37.142426" lon="-8.861700">
        <ele>55.826</ele>
        <time>2018-12-28T10:33:15Z</time>
      </trkpt>
      <trkpt lat="37.142512" lon="-8.861718">
        <ele>56.308</ele>
        <time>2018-12-28T10:33:22Z</time>
      </trkpt>
      <trkpt lat="37.142561" lon="-8.861679">
        <ele>56.821</ele>
        <time>2018-12-28T10:33:27Z</time>
      </trkpt>
      <trkpt lat="37.142704" lon="-8.861477">
        <ele>58.329</ele>
        <time>2018-12-28T10:33:43Z</time>
      </trkpt>
      <trkpt lat="37.142793" lon="-8.861369">
        <ele>59.276</ele>
        <time>2018-12-28T10:33:53Z</time>
      </trkpt>
      <trkpt lat="37.142929" lon="-8.861240">
        <ele>58.361</ele>
        <time>2018-12-28T10:34:07Z</time>
      </trkpt>
      <trkpt lat="37.143082" lon="-8.861137">
        <ele>57.397</ele>
        <time>2018-12-28T10:34:21Z</time>
      </trkpt>
      <trkpt lat="37.143298" lon="-8.861018">
        <ele>55.478</ele>
        <time>2018-12-28T10:34:38Z</time>
      </trkpt>
      <trkpt lat="37.143414" lon="-8.860976">
        <ele>53.976</ele>
        <time>2018-12-28T10:34:47Z</time>
      </trkpt>
      <trkpt lat="37.143583" lon="-8.860889">
        <ele>53.912</ele>
        <time>2018-12-28T10:35:01Z</time>
      </trkpt>
      <trkpt lat="37.143673" lon="-8.860861">
        <ele>53.416</ele>
        <time>2018-12-28T10:35:09Z</time>
      </trkpt>
      <trkpt lat="37.143704" lon="-8.860855">
        <ele>53.476</ele>
        <time>2018-12-28T10:35:12Z</time>
      </trkpt>
      <trkpt lat="37.143733" lon="-8.860845">
        <ele>53.413</ele>
        <time>2018-12-28T10:35:15Z</time>
      </trkpt>
      <trkpt lat="37.143815" lon="-8.860825">
        <ele>53.008</ele>
        <time>2018-12-28T10:35:21Z</time>
      </trkpt>
      <trkpt lat="37.143939" lon="-8.860744">
        <ele>53.034</ele>
        <time>2018-12-28T10:35:33Z</time>
      </trkpt>
      <trkpt lat="37.144100" lon="-8.860666">
        <ele>52.582</ele>
        <time>2018-12-28T10:35:46Z</time>
      </trkpt>
      <trkpt lat="37.144134" lon="-8.860654">
        <ele>52.559</ele>
        <time>2018-12-28T10:35:49Z</time>
      </trkpt>
      <trkpt lat="37.144175" lon="-8.860637">
        <ele>52.554</ele>
        <time>2018-12-28T10:35:52Z</time>
      </trkpt>
      <trkpt lat="37.144220" lon="-8.860600">
        <ele>52.080</ele>
        <time>2018-12-28T10:35:56Z</time>
      </trkpt>
      <trkpt lat="37.144392" lon="-8.860514">
        <ele>52.091</ele>
        <time>2018-12-28T10:36:10Z</time>
      </trkpt>
      <trkpt lat="37.144558" lon="-8.860484">
        <ele>52.019</ele>
        <time>2018-12-28T10:36:23Z</time>
      </trkpt>
      <trkpt lat="37.144768" lon="-8.860416">
        <ele>51.515</ele>
        <time>2018-12-28T10:36:40Z</time>
      </trkpt>
      <trkpt lat="37.144933" lon="-8.860356">
        <ele>50.671</ele>
        <time>2018-12-28T10:36:54Z</time>
      </trkpt>
      <trkpt lat="37.145097" lon="-8.860286">
        <ele>51.541</ele>
        <time>2018-12-28T10:37:07Z</time>
      </trkpt>
      <trkpt lat="37.145261" lon="-8.860218">
        <ele>53.015</ele>
        <time>2018-12-28T10:37:21Z</time>
      </trkpt>
      <trkpt lat="37.145346" lon="-8.860182">
        <ele>53.408</ele>
        <time>2018-12-28T10:37:29Z</time>
      </trkpt>
      <trkpt lat="37.145394" lon="-8.860147">
        <ele>53.010</ele>
        <time>2018-12-28T10:37:34Z</time>
      </trkpt>
      <trkpt lat="37.145561" lon="-8.860069">
        <ele>53.418</ele>
        <time>2018-12-28T10:37:48Z</time>
      </trkpt>
      <trkpt lat="37.145707" lon="-8.859990">
        <ele>53.485</ele>
        <time>2018-12-28T10:38:00Z</time>
      </trkpt>
      <trkpt lat="37.145868" lon="-8.859909">
        <ele>53.950</ele>
        <time>2018-12-28T10:38:13Z</time>
      </trkpt>
      <trkpt lat="37.145968" lon="-8.859838">
        <ele>53.496</ele>
        <time>2018-12-28T10:38:24Z</time>
      </trkpt>
      <trkpt lat="37.146171" lon="-8.859729">
        <ele>53.947</ele>
        <time>2018-12-28T10:38:39Z</time>
      </trkpt>
      <trkpt lat="37.146236" lon="-8.859700">
        <ele>53.915</ele>
        <time>2018-12-28T10:38:44Z</time>
      </trkpt>
      <trkpt lat="37.146320" lon="-8.859673">
        <ele>54.431</ele>
        <time>2018-12-28T10:38:51Z</time>
      </trkpt>
      <trkpt lat="37.146354" lon="-8.859653">
        <ele>54.415</ele>
        <time>2018-12-28T10:38:54Z</time>
      </trkpt>
      <trkpt lat="37.146384" lon="-8.859640">
        <ele>54.465</ele>
        <time>2018-12-28T10:38:57Z</time>
      </trkpt>
      <trkpt lat="37.146421" lon="-8.859616">
        <ele>54.911</ele>
        <time>2018-12-28T10:39:00Z</time>
      </trkpt>
      <trkpt lat="37.146597" lon="-8.859505">
        <ele>54.908</ele>
        <time>2018-12-28T10:39:16Z</time>
      </trkpt>
      <trkpt lat="37.146748" lon="-8.859379">
        <ele>53.944</ele>
        <time>2018-12-28T10:39:29Z</time>
      </trkpt>
      <trkpt lat="37.146884" lon="-8.859240">
        <ele>52.512</ele>
        <time>2018-12-28T10:39:42Z</time>
      </trkpt>
      <trkpt lat="37.146955" lon="-8.859172">
        <ele>51.589</ele>
        <time>2018-12-28T10:39:48Z</time>
      </trkpt>
      <trkpt lat="37.146977" lon="-8.859127">
        <ele>51.054</ele>
        <time>2018-12-28T10:39:51Z</time>
      </trkpt>
      <trkpt lat="37.147049" lon="-8.858990">
        <ele>50.150</ele>
        <time>2018-12-28T10:40:01Z</time>
      </trkpt>
      <trkpt lat="37.147167" lon="-8.858775">
        <ele>49.181</ele>
        <time>2018-12-28T10:40:18Z</time>
      </trkpt>
      <trkpt lat="37.147320" lon="-8.858677">
        <ele>49.669</ele>
        <time>2018-12-28T10:40:32Z</time>
      </trkpt>
      <trkpt lat="37.147501" lon="-8.858611">
        <ele>48.645</ele>
        <time>2018-12-28T10:40:47Z</time>
      </trkpt>
      <trkpt lat="37.147651" lon="-8.858482">
        <ele>48.254</ele>
        <time>2018-12-28T10:41:01Z</time>
      </trkpt>
      <trkpt lat="37.147804" lon="-8.858348">
        <ele>47.756</ele>
        <time>2018-12-28T10:41:15Z</time>
      </trkpt>
      <trkpt lat="37.147937" lon="-8.858242">
        <ele>47.711</ele>
        <time>2018-12-28T10:41:28Z</time>
      </trkpt>
      <trkpt lat="37.148079" lon="-8.858124">
        <ele>47.208</ele>
        <time>2018-12-28T10:41:42Z</time>
      </trkpt>
      <trkpt lat="37.148214" lon="-8.858043">
        <ele>47.778</ele>
        <time>2018-12-28T10:41:54Z</time>
      </trkpt>
      <trkpt lat="37.148289" lon="-8.857987">
        <ele>47.236</ele>
        <time>2018-12-28T10:42:01Z</time>
      </trkpt>
      <trkpt lat="37.148311" lon="-8.857946">
        <ele>47.773</ele>
        <time>2018-12-28T10:42:18Z</time>
      </trkpt>
      <trkpt lat="37.148311" lon="-8.857946">
        <ele>47.778</ele>
        <time>2018-12-28T10:42:19Z</time>
      </trkpt>
      <trkpt lat="37.148331" lon="-8.857941">
        <ele>47.784</ele>
        <time>2018-12-28T10:42:21Z</time>
      </trkpt>
      <trkpt lat="37.148453" lon="-8.857800">
        <ele>48.275</ele>
        <time>2018-12-28T10:42:34Z</time>
      </trkpt>
      <trkpt lat="37.148576" lon="-8.857682">
        <ele>48.243</ele>
        <time>2018-12-28T10:42:46Z</time>
      </trkpt>
      <trkpt lat="37.148691" lon="-8.857523">
        <ele>48.239</ele>
        <time>2018-12-28T10:42:59Z</time>
      </trkpt>
      <trkpt lat="37.148814" lon="-8.857351">
        <ele>48.275</ele>
        <time>2018-12-28T10:43:14Z</time>
      </trkpt>
      <trkpt lat="37.148917" lon="-8.857220">
        <ele>48.228</ele>
        <time>2018-12-28T10:43:26Z</time>
      </trkpt>
      <trkpt lat="37.149028" lon="-8.857090">
        <ele>48.220</ele>
        <time>2018-12-28T10:43:39Z</time>
      </trkpt>
      <trkpt lat="37.149124" lon="-8.857007">
        <ele>48.208</ele>
        <time>2018-12-28T10:43:52Z</time>
      </trkpt>
      <trkpt lat="37.149127" lon="-8.856999">
        <ele>48.250</ele>
        <time>2018-12-28T10:44:04Z</time>
      </trkpt>
      <trkpt lat="37.149233" lon="-8.856939">
        <ele>48.278</ele>
        <time>2018-12-28T10:44:19Z</time>
      </trkpt>
      <trkpt lat="37.149250" lon="-8.856938">
        <ele>47.735</ele>
        <time>2018-12-28T10:44:21Z</time>
      </trkpt>
      <trkpt lat="37.149279" lon="-8.856930">
        <ele>48.260</ele>
        <time>2018-12-28T10:44:24Z</time>
      </trkpt>
      <trkpt lat="37.149427" lon="-8.856910">
        <ele>47.756</ele>
        <time>2018-12-28T10:44:37Z</time>
      </trkpt>
      <trkpt lat="37.149535" lon="-8.856909">
        <ele>47.787</ele>
        <time>2018-12-28T10:44:47Z</time>
      </trkpt>
      <trkpt lat="37.149691" lon="-8.856927">
        <ele>45.895</ele>
        <time>2018-12-28T10:45:02Z</time>
      </trkpt>
      <trkpt lat="37.149712" lon="-8.856934">
        <ele>45.831</ele>
        <time>2018-12-28T10:45:04Z</time>
      </trkpt>
      <trkpt lat="37.149776" lon="-8.856945">
        <ele>44.819</ele>
        <time>2018-12-28T10:45:10Z</time>
      </trkpt>
      <trkpt lat="37.149841" lon="-8.856965">
        <ele>44.809</ele>
        <time>2018-12-28T10:45:17Z</time>
      </trkpt>
      <trkpt lat="37.149900" lon="-8.856962">
        <ele>44.819</ele>
        <time>2018-12-28T10:45:31Z</time>
      </trkpt>
      <trkpt lat="37.149909" lon="-8.856965">
        <ele>44.308</ele>
        <time>2018-12-28T10:45:34Z</time>
      </trkpt>
      <trkpt lat="37.149972" lon="-8.856998">
        <ele>45.384</ele>
        <time>2018-12-28T10:45:40Z</time>
      </trkpt>
      <trkpt lat="37.150079" lon="-8.857108">
        <ele>46.272</ele>
        <time>2018-12-28T10:45:53Z</time>
      </trkpt>
      <trkpt lat="37.150087" lon="-8.857125">
        <ele>46.269</ele>
        <time>2018-12-28T10:45:55Z</time>
      </trkpt>
      <trkpt lat="37.150116" lon="-8.857154">
        <ele>46.784</ele>
        <time>2018-12-28T10:45:59Z</time>
      </trkpt>
      <trkpt lat="37.150171" lon="-8.857216">
        <ele>46.750</ele>
        <time>2018-12-28T10:46:05Z</time>
      </trkpt>
      <trkpt lat="37.150203" lon="-8.857238">
        <ele>46.751</ele>
        <time>2018-12-28T10:46:08Z</time>
      </trkpt>
      <trkpt lat="37.150217" lon="-8.857291">
        <ele>47.279</ele>
        <time>2018-12-28T10:46:20Z</time>
      </trkpt>
      <trkpt lat="37.150226" lon="-8.857291">
        <ele>47.275</ele>
        <time>2018-12-28T10:46:21Z</time>
      </trkpt>
      <trkpt lat="37.150248" lon="-8.857290">
        <ele>47.215</ele>
        <time>2018-12-28T10:46:23Z</time>
      </trkpt>
      <trkpt lat="37.150356" lon="-8.857327">
        <ele>46.765</ele>
        <time>2018-12-28T10:46:32Z</time>
      </trkpt>
      <trkpt lat="37.150472" lon="-8.857360">
        <ele>47.211</ele>
        <time>2018-12-28T10:46:41Z</time>
      </trkpt>
      <trkpt lat="37.150593" lon="-8.857400">
        <ele>47.708</ele>
        <time>2018-12-28T10:46:51Z</time>
      </trkpt>
      <trkpt lat="37.150754" lon="-8.857483">
        <ele>48.284</ele>
        <time>2018-12-28T10:47:06Z</time>
      </trkpt>
      <trkpt lat="37.150856" lon="-8.857505">
        <ele>47.792</ele>
        <time>2018-12-28T10:47:15Z</time>
      </trkpt>
      <trkpt lat="37.151056" lon="-8.857459">
        <ele>47.729</ele>
        <time>2018-12-28T10:47:28Z</time>
      </trkpt>
      <trkpt lat="37.151205" lon="-8.857476">
        <ele>46.774</ele>
        <time>2018-12-28T10:47:41Z</time>
      </trkpt>
      <trkpt lat="37.151395" lon="-8.857504">
        <ele>45.860</ele>
        <time>2018-12-28T10:47:55Z</time>
      </trkpt>
      <trkpt lat="37.151434" lon="-8.857502">
        <ele>46.241</ele>
        <time>2018-12-28T10:48:06Z</time>
      </trkpt>
      <trkpt lat="37.151498" lon="-8.857500">
        <ele>45.869</ele>
        <time>2018-12-28T10:48:11Z</time>
      </trkpt>
      <trkpt lat="37.151692" lon="-8.857460">
        <ele>46.255</ele>
        <time>2018-12-28T10:48:26Z</time>
      </trkpt>
      <trkpt lat="37.151871" lon="-8.857421">
        <ele>46.282</ele>
        <time>2018-12-28T10:48:40Z</time>
      </trkpt>
      <trkpt lat="37.151982" lon="-8.857380">
        <ele>45.843</ele>
        <time>2018-12-28T10:48:49Z</time>
      </trkpt>
      <trkpt lat="37.152115" lon="-8.857366">
        <ele>44.317</ele>
        <time>2018-12-28T10:49:00Z</time>
      </trkpt>
      <trkpt lat="37.152204" lon="-8.857350">
        <ele>44.808</ele>
        <time>2018-12-28T10:49:07Z</time>
      </trkpt>
      <trkpt lat="37.152369" lon="-8.857335">
        <ele>44.391</ele>
        <time>2018-12-28T10:49:20Z</time>
      </trkpt>
      <trkpt lat="37.152536" lon="-8.857240">
        <ele>43.499</ele>
        <time>2018-12-28T10:49:33Z</time>
      </trkpt>
      <trkpt lat="37.152565" lon="-8.857206">
        <ele>42.926</ele>
        <time>2018-12-28T10:49:36Z</time>
      </trkpt>
      <trkpt lat="37.152633" lon="-8.857091">
        <ele>42.971</ele>
        <time>2018-12-28T10:49:45Z</time>
      </trkpt>
      <trkpt lat="37.152653" lon="-8.857038">
        <ele>42.937</ele>
        <time>2018-12-28T10:49:53Z</time>
      </trkpt>
      <trkpt lat="37.152734" lon="-8.856894">
        <ele>42.468</ele>
        <time>2018-12-28T10:50:04Z</time>
      </trkpt>
      <trkpt lat="37.152834" lon="-8.856688">
        <ele>42.486</ele>
        <time>2018-12-28T10:50:18Z</time>
      </trkpt>
      <trkpt lat="37.152872" lon="-8.856627">
        <ele>42.462</ele>
        <time>2018-12-28T10:50:23Z</time>
      </trkpt>
      <trkpt lat="37.152989" lon="-8.856476">
        <ele>41.436</ele>
        <time>2018-12-28T10:50:36Z</time>
      </trkpt>
      <trkpt lat="37.153110" lon="-8.856348">
        <ele>41.917</ele>
        <time>2018-12-28T10:50:48Z</time>
      </trkpt>
      <trkpt lat="37.153226" lon="-8.856213">
        <ele>40.518</ele>
        <time>2018-12-28T10:51:01Z</time>
      </trkpt>
      <trkpt lat="37.153375" lon="-8.856129">
        <ele>40.908</ele>
        <time>2018-12-28T10:51:14Z</time>
      </trkpt>
      <trkpt lat="37.153494" lon="-8.856050">
        <ele>40.566</ele>
        <time>2018-12-28T10:51:24Z</time>
      </trkpt>
      <trkpt lat="37.153650" lon="-8.855918">
        <ele>40.994</ele>
        <time>2018-12-28T10:51:37Z</time>
      </trkpt>
      <trkpt lat="37.153786" lon="-8.855754">
        <ele>40.551</ele>
        <time>2018-12-28T10:51:51Z</time>
      </trkpt>
      <trkpt lat="37.153890" lon="-8.855629">
        <ele>40.986</ele>
        <time>2018-12-28T10:52:02Z</time>
      </trkpt>
      <trkpt lat="37.154031" lon="-8.855462">
        <ele>40.542</ele>
        <time>2018-12-28T10:52:16Z</time>
      </trkpt>
      <trkpt lat="37.154165" lon="-8.855333">
        <ele>40.033</ele>
        <time>2018-12-28T10:52:29Z</time>
      </trkpt>
      <trkpt lat="37.154304" lon="-8.855245">
        <ele>39.561</ele>
        <time>2018-12-28T10:52:41Z</time>
      </trkpt>
      <trkpt lat="37.154467" lon="-8.855183">
        <ele>39.567</ele>
        <time>2018-12-28T10:52:54Z</time>
      </trkpt>
      <trkpt lat="37.154545" lon="-8.855164">
        <ele>40.069</ele>
        <time>2018-12-28T10:53:01Z</time>
      </trkpt>
      <trkpt lat="37.154712" lon="-8.855114">
        <ele>39.504</ele>
        <time>2018-12-28T10:53:14Z</time>
      </trkpt>
      <trkpt lat="37.154860" lon="-8.855043">
        <ele>39.024</ele>
        <time>2018-12-28T10:53:27Z</time>
      </trkpt>
      <trkpt lat="37.155034" lon="-8.854955">
        <ele>40.008</ele>
        <time>2018-12-28T10:53:41Z</time>
      </trkpt>
      <trkpt lat="37.155201" lon="-8.854873">
        <ele>39.539</ele>
        <time>2018-12-28T10:53:55Z</time>
      </trkpt>
      <trkpt lat="37.155354" lon="-8.854792">
        <ele>39.547</ele>
        <time>2018-12-28T10:54:08Z</time>
      </trkpt>
      <trkpt lat="37.155488" lon="-8.854674">
        <ele>40.094</ele>
        <time>2018-12-28T10:54:20Z</time>
      </trkpt>
      <trkpt lat="37.155603" lon="-8.854520">
        <ele>40.059</ele>
        <time>2018-12-28T10:54:33Z</time>
      </trkpt>
      <trkpt lat="37.155732" lon="-8.854318">
        <ele>39.525</ele>
        <time>2018-12-28T10:54:48Z</time>
      </trkpt>
      <trkpt lat="37.155829" lon="-8.854130">
        <ele>39.086</ele>
        <time>2018-12-28T10:55:02Z</time>
      </trkpt>
      <trkpt lat="37.155922" lon="-8.853915">
        <ele>40.014</ele>
        <time>2018-12-28T10:55:16Z</time>
      </trkpt>
      <trkpt lat="37.155939" lon="-8.853852">
        <ele>39.070</ele>
        <time>2018-12-28T10:55:20Z</time>
      </trkpt>
      <trkpt lat="37.155954" lon="-8.853789">
        <ele>39.597</ele>
        <time>2018-12-28T10:55:24Z</time>
      </trkpt>
      <trkpt lat="37.155967" lon="-8.853731">
        <ele>39.523</ele>
        <time>2018-12-28T10:55:28Z</time>
      </trkpt>
      <trkpt lat="37.155994" lon="-8.853598">
        <ele>40.025</ele>
        <time>2018-12-28T10:55:37Z</time>
      </trkpt>
      <trkpt lat="37.156067" lon="-8.853466">
        <ele>39.508</ele>
        <time>2018-12-28T10:55:49Z</time>
      </trkpt>
      <trkpt lat="37.156079" lon="-8.853460">
        <ele>39.052</ele>
        <time>2018-12-28T10:56:02Z</time>
      </trkpt>
      <trkpt lat="37.156062" lon="-8.853382">
        <ele>40.550</ele>
        <time>2018-12-28T10:56:17Z</time>
      </trkpt>
      <trkpt lat="37.156055" lon="-8.853359">
        <ele>40.067</ele>
        <time>2018-12-28T10:56:29Z</time>
      </trkpt>
      <trkpt lat="37.156064" lon="-8.853356">
        <ele>40.532</ele>
        <time>2018-12-28T10:56:34Z</time>
      </trkpt>
      <trkpt lat="37.156078" lon="-8.853339">
        <ele>40.018</ele>
        <time>2018-12-28T10:56:36Z</time>
      </trkpt>
      <trkpt lat="37.156099" lon="-8.853272">
        <ele>39.599</ele>
        <time>2018-12-28T10:56:41Z</time>
      </trkpt>
      <trkpt lat="37.156189" lon="-8.853105">
        <ele>39.027</ele>
        <time>2018-12-28T10:56:55Z</time>
      </trkpt>
      <trkpt lat="37.156276" lon="-8.852979">
        <ele>39.023</ele>
        <time>2018-12-28T10:57:07Z</time>
      </trkpt>
      <trkpt lat="37.156426" lon="-8.852855">
        <ele>39.542</ele>
        <time>2018-12-28T10:57:22Z</time>
      </trkpt>
      <trkpt lat="37.156566" lon="-8.852754">
        <ele>40.022</ele>
        <time>2018-12-28T10:57:35Z</time>
      </trkpt>
      <trkpt lat="37.156734" lon="-8.852637">
        <ele>39.514</ele>
        <time>2018-12-28T10:57:49Z</time>
      </trkpt>
      <trkpt lat="37.156902" lon="-8.852514">
        <ele>39.508</ele>
        <time>2018-12-28T10:58:03Z</time>
      </trkpt>
      <trkpt lat="37.157058" lon="-8.852401">
        <ele>39.537</ele>
        <time>2018-12-28T10:58:16Z</time>
      </trkpt>
      <trkpt lat="37.157204" lon="-8.852263">
        <ele>39.545</ele>
        <time>2018-12-28T10:58:30Z</time>
      </trkpt>
      <trkpt lat="37.157359" lon="-8.852114">
        <ele>39.542</ele>
        <time>2018-12-28T10:58:44Z</time>
      </trkpt>
      <trkpt lat="37.157506" lon="-8.852003">
        <ele>39.547</ele>
        <time>2018-12-28T10:58:57Z</time>
      </trkpt>
      <trkpt lat="37.157671" lon="-8.851896">
        <ele>38.583</ele>
        <time>2018-12-28T10:59:10Z</time>
      </trkpt>
      <trkpt lat="37.157857" lon="-8.851861">
        <ele>39.024</ele>
        <time>2018-12-28T10:59:25Z</time>
      </trkpt>
      <trkpt lat="37.158015" lon="-8.851791">
        <ele>39.082</ele>
        <time>2018-12-28T10:59:38Z</time>
      </trkpt>
      <trkpt lat="37.158191" lon="-8.851704">
        <ele>39.088</ele>
        <time>2018-12-28T10:59:53Z</time>
      </trkpt>
      <trkpt lat="37.158324" lon="-8.851579">
        <ele>39.086</ele>
        <time>2018-12-28T11:00:06Z</time>
      </trkpt>
      <trkpt lat="37.158472" lon="-8.851449">
        <ele>39.060</ele>
        <time>2018-12-28T11:00:20Z</time>
      </trkpt>
      <trkpt lat="37.158639" lon="-8.851344">
        <ele>39.026</ele>
        <time>2018-12-28T11:00:35Z</time>
      </trkpt>
      <trkpt lat="37.158808" lon="-8.851255">
        <ele>38.508</ele>
        <time>2018-12-28T11:00:49Z</time>
      </trkpt>
      <trkpt lat="37.158983" lon="-8.851167">
        <ele>38.531</ele>
        <time>2018-12-28T11:01:04Z</time>
      </trkpt>
      <trkpt lat="37.159183" lon="-8.851086">
        <ele>38.559</ele>
        <time>2018-12-28T11:01:20Z</time>
      </trkpt>
      <trkpt lat="37.159327" lon="-8.851050">
        <ele>38.546</ele>
        <time>2018-12-28T11:01:31Z</time>
      </trkpt>
      <trkpt lat="37.159485" lon="-8.851036">
        <ele>38.561</ele>
        <time>2018-12-28T11:01:44Z</time>
      </trkpt>
      <trkpt lat="37.159645" lon="-8.851055">
        <ele>37.657</ele>
        <time>2018-12-28T11:01:57Z</time>
      </trkpt>
      <trkpt lat="37.159809" lon="-8.851122">
        <ele>38.118</ele>
        <time>2018-12-28T11:02:10Z</time>
      </trkpt>
      <trkpt lat="37.159836" lon="-8.851127">
        <ele>38.186</ele>
        <time>2018-12-28T11:02:12Z</time>
      </trkpt>
      <trkpt lat="37.159904" lon="-8.851152">
        <ele>38.182</ele>
        <time>2018-12-28T11:02:18Z</time>
      </trkpt>
      <trkpt lat="37.160105" lon="-8.851213">
        <ele>38.191</ele>
        <time>2018-12-28T11:02:34Z</time>
      </trkpt>
      <trkpt lat="37.160258" lon="-8.851225">
        <ele>38.181</ele>
        <time>2018-12-28T11:02:46Z</time>
      </trkpt>
      <trkpt lat="37.160414" lon="-8.851182">
        <ele>37.119</ele>
        <time>2018-12-28T11:02:58Z</time>
      </trkpt>
      <trkpt lat="37.160544" lon="-8.851038">
        <ele>35.708</ele>
        <time>2018-12-28T11:03:12Z</time>
      </trkpt>
      <trkpt lat="37.160587" lon="-8.850959">
        <ele>36.672</ele>
        <time>2018-12-28T11:03:19Z</time>
      </trkpt>
      <trkpt lat="37.160600" lon="-8.850928">
        <ele>36.640</ele>
        <time>2018-12-28T11:03:22Z</time>
      </trkpt>
      <trkpt lat="37.160606" lon="-8.850745">
        <ele>38.147</ele>
        <time>2018-12-28T11:03:35Z</time>
      </trkpt>
      <trkpt lat="37.160621" lon="-8.850584">
        <ele>37.692</ele>
        <time>2018-12-28T11:03:45Z</time>
      </trkpt>
      <trkpt lat="37.160634" lon="-8.850428">
        <ele>38.118</ele>
        <time>2018-12-28T11:03:55Z</time>
      </trkpt>
      <trkpt lat="37.160660" lon="-8.850335">
        <ele>37.639</ele>
        <time>2018-12-28T11:04:01Z</time>
      </trkpt>
      <trkpt lat="37.160687" lon="-8.850168">
        <ele>37.167</ele>
        <time>2018-12-28T11:04:12Z</time>
      </trkpt>
      <trkpt lat="37.160715" lon="-8.850060">
        <ele>37.653</ele>
        <time>2018-12-28T11:04:19Z</time>
      </trkpt>
      <trkpt lat="37.160810" lon="-8.849815">
        <ele>36.631</ele>
        <time>2018-12-28T11:04:35Z</time>
      </trkpt>
      <trkpt lat="37.160838" lon="-8.849759">
        <ele>36.661</ele>
        <time>2018-12-28T11:04:39Z</time>
      </trkpt>
      <trkpt lat="37.160908" lon="-8.849555">
        <ele>36.107</ele>
        <time>2018-12-28T11:04:53Z</time>
      </trkpt>
      <trkpt lat="37.160981" lon="-8.849356">
        <ele>37.108</ele>
        <time>2018-12-28T11:05:07Z</time>
      </trkpt>
      <trkpt lat="37.161001" lon="-8.849307">
        <ele>37.176</ele>
        <time>2018-12-28T11:05:11Z</time>
      </trkpt>
      <trkpt lat="37.161043" lon="-8.849219">
        <ele>37.144</ele>
        <time>2018-12-28T11:05:17Z</time>
      </trkpt>
      <trkpt lat="37.161095" lon="-8.849081">
        <ele>37.191</ele>
        <time>2018-12-28T11:05:27Z</time>
      </trkpt>
      <trkpt lat="37.161115" lon="-8.848841">
        <ele>37.166</ele>
        <time>2018-12-28T11:05:42Z</time>
      </trkpt>
      <trkpt lat="37.161116" lon="-8.848826">
        <ele>36.692</ele>
        <time>2018-12-28T11:05:43Z</time>
      </trkpt>
      <trkpt lat="37.161130" lon="-8.848722">
        <ele>36.113</ele>
        <time>2018-12-28T11:05:50Z</time>
      </trkpt>
      <trkpt lat="37.161131" lon="-8.848647">
        <ele>36.141</ele>
        <time>2018-12-28T11:05:55Z</time>
      </trkpt>
      <trkpt lat="37.161186" lon="-8.848402">
        <ele>36.197</ele>
        <time>2018-12-28T11:06:11Z</time>
      </trkpt>
      <trkpt lat="37.161245" lon="-8.848199">
        <ele>36.144</ele>
        <time>2018-12-28T11:06:25Z</time>
      </trkpt>
      <trkpt lat="37.161266" lon="-8.848136">
        <ele>36.605</ele>
        <time>2018-12-28T11:06:36Z</time>
      </trkpt>
      <trkpt lat="37.161274" lon="-8.848076">
        <ele>37.115</ele>
        <time>2018-12-28T11:06:44Z</time>
      </trkpt>
      <trkpt lat="37.161308" lon="-8.847996">
        <ele>36.608</ele>
        <time>2018-12-28T11:06:50Z</time>
      </trkpt>
      <trkpt lat="37.161383" lon="-8.847802">
        <ele>37.127</ele>
        <time>2018-12-28T11:07:03Z</time>
      </trkpt>
      <trkpt lat="37.161456" lon="-8.847583">
        <ele>36.655</ele>
        <time>2018-12-28T11:07:18Z</time>
      </trkpt>
      <trkpt lat="37.161511" lon="-8.847431">
        <ele>36.692</ele>
        <time>2018-12-28T11:07:29Z</time>
      </trkpt>
      <trkpt lat="37.161623" lon="-8.847249">
        <ele>36.637</ele>
        <time>2018-12-28T11:07:44Z</time>
      </trkpt>
      <trkpt lat="37.161646" lon="-8.847199">
        <ele>36.673</ele>
        <time>2018-12-28T11:07:48Z</time>
      </trkpt>
      <trkpt lat="37.161681" lon="-8.847114">
        <ele>36.684</ele>
        <time>2018-12-28T11:07:59Z</time>
      </trkpt>
      <trkpt lat="37.161696" lon="-8.847082">
        <ele>36.662</ele>
        <time>2018-12-28T11:08:03Z</time>
      </trkpt>
      <trkpt lat="37.161699" lon="-8.847051">
        <ele>36.698</ele>
        <time>2018-12-28T11:08:20Z</time>
      </trkpt>
      <trkpt lat="37.161706" lon="-8.847021">
        <ele>36.141</ele>
        <time>2018-12-28T11:08:23Z</time>
      </trkpt>
      <trkpt lat="37.161689" lon="-8.846957">
        <ele>36.181</ele>
        <time>2018-12-28T11:08:30Z</time>
      </trkpt>
      <trkpt lat="37.161685" lon="-8.846930">
        <ele>36.609</ele>
        <time>2018-12-28T11:08:32Z</time>
      </trkpt>
      <trkpt lat="37.161661" lon="-8.846891">
        <ele>36.608</ele>
        <time>2018-12-28T11:08:47Z</time>
      </trkpt>
      <trkpt lat="37.161659" lon="-8.846879">
        <ele>36.667</ele>
        <time>2018-12-28T11:09:03Z</time>
      </trkpt>
      <trkpt lat="37.161659" lon="-8.846879">
        <ele>37.185</ele>
        <time>2018-12-28T11:09:25Z</time>
      </trkpt>
      <trkpt lat="37.161659" lon="-8.846879">
        <ele>37.182</ele>
        <time>2018-12-28T11:09:39Z</time>
      </trkpt>
      <trkpt lat="37.161671" lon="-8.846878">
        <ele>36.667</ele>
        <time>2018-12-28T11:09:41Z</time>
      </trkpt>
      <trkpt lat="37.161755" lon="-8.846928">
        <ele>37.173</ele>
        <time>2018-12-28T11:09:50Z</time>
      </trkpt>
      <trkpt lat="37.161776" lon="-8.846941">
        <ele>37.154</ele>
        <time>2018-12-28T11:09:52Z</time>
      </trkpt>
      <trkpt lat="37.161793" lon="-8.846945">
        <ele>36.622</ele>
        <time>2018-12-28T11:09:54Z</time>
      </trkpt>
      <trkpt lat="37.161830" lon="-8.846945">
        <ele>36.638</ele>
        <time>2018-12-28T11:09:58Z</time>
      </trkpt>
      <trkpt lat="37.161847" lon="-8.846933">
        <ele>36.146</ele>
        <time>2018-12-28T11:10:00Z</time>
      </trkpt>
      <trkpt lat="37.161968" lon="-8.846797">
        <ele>36.188</ele>
        <time>2018-12-28T11:10:15Z</time>
      </trkpt>
      <trkpt lat="37.162074" lon="-8.846717">
        <ele>36.616</ele>
        <time>2018-12-28T11:10:28Z</time>
      </trkpt>
      <trkpt lat="37.162107" lon="-8.846666">
        <ele>36.608</ele>
        <time>2018-12-28T11:10:34Z</time>
      </trkpt>
      <trkpt lat="37.162135" lon="-8.846644">
        <ele>37.137</ele>
        <time>2018-12-28T11:10:37Z</time>
      </trkpt>
      <trkpt lat="37.162146" lon="-8.846610">
        <ele>37.185</ele>
        <time>2018-12-28T11:10:52Z</time>
      </trkpt>
      <trkpt lat="37.162159" lon="-8.846628">
        <ele>37.112</ele>
        <time>2018-12-28T11:11:05Z</time>
      </trkpt>
      <trkpt lat="37.162159" lon="-8.846628">
        <ele>37.147</ele>
        <time>2018-12-28T11:11:06Z</time>
      </trkpt>
      <trkpt lat="37.162209" lon="-8.846656">
        <ele>36.643</ele>
        <time>2018-12-28T11:11:17Z</time>
      </trkpt>
      <trkpt lat="37.162227" lon="-8.846657">
        <ele>36.684</ele>
        <time>2018-12-28T11:11:21Z</time>
      </trkpt>
      <trkpt lat="37.162246" lon="-8.846643">
        <ele>36.642</ele>
        <time>2018-12-28T11:11:23Z</time>
      </trkpt>
      <trkpt lat="37.162393" lon="-8.846567">
        <ele>36.638</ele>
        <time>2018-12-28T11:11:37Z</time>
      </trkpt>
      <trkpt lat="37.162440" lon="-8.846529">
        <ele>36.154</ele>
        <time>2018-12-28T11:11:42Z</time>
      </trkpt>
      <trkpt lat="37.162600" lon="-8.846380">
        <ele>36.156</ele>
        <time>2018-12-28T11:11:59Z</time>
      </trkpt>
      <trkpt lat="37.162694" lon="-8.846320">
        <ele>36.111</ele>
        <time>2018-12-28T11:12:11Z</time>
      </trkpt>
      <trkpt lat="37.162716" lon="-8.846331">
        <ele>36.108</ele>
        <time>2018-12-28T11:12:21Z</time>
      </trkpt>
      <trkpt lat="37.162773" lon="-8.846353">
        <ele>35.238</ele>
        <time>2018-12-28T11:12:26Z</time>
      </trkpt>
      <trkpt lat="37.162902" lon="-8.846419">
        <ele>35.736</ele>
        <time>2018-12-28T11:12:39Z</time>
      </trkpt>
      <trkpt lat="37.162935" lon="-8.846437">
        <ele>36.163</ele>
        <time>2018-12-28T11:12:43Z</time>
      </trkpt>
      <trkpt lat="37.163091" lon="-8.846440">
        <ele>36.148</ele>
        <time>2018-12-28T11:12:55Z</time>
      </trkpt>
      <trkpt lat="37.163243" lon="-8.846438">
        <ele>35.744</ele>
        <time>2018-12-28T11:13:08Z</time>
      </trkpt>
      <trkpt lat="37.163380" lon="-8.846438">
        <ele>35.735</ele>
        <time>2018-12-28T11:13:21Z</time>
      </trkpt>
      <trkpt lat="37.163390" lon="-8.846442">
        <ele>35.793</ele>
        <time>2018-12-28T11:13:22Z</time>
      </trkpt>
      <trkpt lat="37.163465" lon="-8.846464">
        <ele>34.729</ele>
        <time>2018-12-28T11:13:29Z</time>
      </trkpt>
      <trkpt lat="37.163521" lon="-8.846522">
        <ele>34.257</ele>
        <time>2018-12-28T11:13:35Z</time>
      </trkpt>
      <trkpt lat="37.163545" lon="-8.846566">
        <ele>34.700</ele>
        <time>2018-12-28T11:13:39Z</time>
      </trkpt>
      <trkpt lat="37.163645" lon="-8.846702">
        <ele>36.120</ele>
        <time>2018-12-28T11:13:53Z</time>
      </trkpt>
      <trkpt lat="37.163761" lon="-8.846769">
        <ele>36.108</ele>
        <time>2018-12-28T11:14:04Z</time>
      </trkpt>
      <trkpt lat="37.163825" lon="-8.846779">
        <ele>35.718</ele>
        <time>2018-12-28T11:14:09Z</time>
      </trkpt>
      <trkpt lat="37.164012" lon="-8.846840">
        <ele>35.796</ele>
        <time>2018-12-28T11:14:25Z</time>
      </trkpt>
      <trkpt lat="37.164193" lon="-8.846897">
        <ele>35.783</ele>
        <time>2018-12-28T11:14:40Z</time>
      </trkpt>
      <trkpt lat="37.164356" lon="-8.846959">
        <ele>35.788</ele>
        <time>2018-12-28T11:14:53Z</time>
      </trkpt>
      <trkpt lat="37.164456" lon="-8.846951">
        <ele>35.744</ele>
        <time>2018-12-28T11:15:00Z</time>
      </trkpt>
      <trkpt lat="37.164502" lon="-8.846949">
        <ele>35.765</ele>
        <time>2018-12-28T11:15:08Z</time>
      </trkpt>
      <trkpt lat="37.164687" lon="-8.846913">
        <ele>36.133</ele>
        <time>2018-12-28T11:15:23Z</time>
      </trkpt>
      <trkpt lat="37.164698" lon="-8.846911">
        <ele>36.149</ele>
        <time>2018-12-28T11:15:24Z</time>
      </trkpt>
      <trkpt lat="37.164743" lon="-8.846881">
        <ele>35.767</ele>
        <time>2018-12-28T11:15:28Z</time>
      </trkpt>
      <trkpt lat="37.164800" lon="-8.846840">
        <ele>36.181</ele>
        <time>2018-12-28T11:15:33Z</time>
      </trkpt>
      <trkpt lat="37.164963" lon="-8.846697">
        <ele>35.219</ele>
        <time>2018-12-28T11:15:48Z</time>
      </trkpt>
      <trkpt lat="37.165085" lon="-8.846580">
        <ele>35.708</ele>
        <time>2018-12-28T11:16:00Z</time>
      </trkpt>
      <trkpt lat="37.165233" lon="-8.846480">
        <ele>35.259</ele>
        <time>2018-12-28T11:16:14Z</time>
      </trkpt>
      <trkpt lat="37.165347" lon="-8.846462">
        <ele>35.777</ele>
        <time>2018-12-28T11:16:24Z</time>
      </trkpt>
      <trkpt lat="37.165493" lon="-8.846518">
        <ele>36.674</ele>
        <time>2018-12-28T11:16:36Z</time>
      </trkpt>
      <trkpt lat="37.165586" lon="-8.846610">
        <ele>35.769</ele>
        <time>2018-12-28T11:16:46Z</time>
      </trkpt>
      <trkpt lat="37.165658" lon="-8.846689">
        <ele>35.745</ele>
        <time>2018-12-28T11:16:54Z</time>
      </trkpt>
      <trkpt lat="37.165840" lon="-8.846787">
        <ele>35.756</ele>
        <time>2018-12-28T11:17:09Z</time>
      </trkpt>
      <trkpt lat="37.165995" lon="-8.846923">
        <ele>35.274</ele>
        <time>2018-12-28T11:17:23Z</time>
      </trkpt>
      <trkpt lat="37.166062" lon="-8.847003">
        <ele>36.170</ele>
        <time>2018-12-28T11:17:30Z</time>
      </trkpt>
      <trkpt lat="37.166116" lon="-8.847069">
        <ele>35.713</ele>
        <time>2018-12-28T11:17:36Z</time>
      </trkpt>
      <trkpt lat="37.166193" lon="-8.847179">
        <ele>35.743</ele>
        <time>2018-12-28T11:17:45Z</time>
      </trkpt>
      <trkpt lat="37.166289" lon="-8.847409">
        <ele>35.207</ele>
        <time>2018-12-28T11:18:00Z</time>
      </trkpt>
      <trkpt lat="37.166320" lon="-8.847537">
        <ele>35.208</ele>
        <time>2018-12-28T11:18:08Z</time>
      </trkpt>
      <trkpt lat="37.166357" lon="-8.847665">
        <ele>34.744</ele>
        <time>2018-12-28T11:18:16Z</time>
      </trkpt>
      <trkpt lat="37.166428" lon="-8.847706">
        <ele>34.212</ele>
        <time>2018-12-28T11:18:22Z</time>
      </trkpt>
      <trkpt lat="37.166469" lon="-8.847746">
        <ele>33.789</ele>
        <time>2018-12-28T11:18:26Z</time>
      </trkpt>
      <trkpt lat="37.166544" lon="-8.847865">
        <ele>33.754</ele>
        <time>2018-12-28T11:18:36Z</time>
      </trkpt>
      <trkpt lat="37.166594" lon="-8.848061">
        <ele>35.250</ele>
        <time>2018-12-28T11:18:50Z</time>
      </trkpt>
      <trkpt lat="37.166614" lon="-8.848248">
        <ele>35.211</ele>
        <time>2018-12-28T11:19:03Z</time>
      </trkpt>
      <trkpt lat="37.166614" lon="-8.848248">
        <ele>35.299</ele>
        <time>2018-12-28T11:19:24Z</time>
      </trkpt>
      <trkpt lat="37.166614" lon="-8.848260">
        <ele>35.275</ele>
        <time>2018-12-28T11:19:27Z</time>
      </trkpt>
      <trkpt lat="37.166604" lon="-8.848344">
        <ele>35.253</ele>
        <time>2018-12-28T11:19:32Z</time>
      </trkpt>
      <trkpt lat="37.166613" lon="-8.848505">
        <ele>34.704</ele>
        <time>2018-12-28T11:19:42Z</time>
      </trkpt>
      <trkpt lat="37.166612" lon="-8.848538">
        <ele>35.214</ele>
        <time>2018-12-28T11:19:47Z</time>
      </trkpt>
      <trkpt lat="37.166619" lon="-8.848669">
        <ele>35.708</ele>
        <time>2018-12-28T11:19:55Z</time>
      </trkpt>
      <trkpt lat="37.166604" lon="-8.848747">
        <ele>35.248</ele>
        <time>2018-12-28T11:20:01Z</time>
      </trkpt>
      <trkpt lat="37.166584" lon="-8.848886">
        <ele>35.216</ele>
        <time>2018-12-28T11:20:10Z</time>
      </trkpt>
      <trkpt lat="37.166571" lon="-8.849053">
        <ele>34.793</ele>
        <time>2018-12-28T11:20:21Z</time>
      </trkpt>
      <trkpt lat="37.166628" lon="-8.849266">
        <ele>34.798</ele>
        <time>2018-12-28T11:20:34Z</time>
      </trkpt>
      <trkpt lat="37.166690" lon="-8.849310">
        <ele>34.714</ele>
        <time>2018-12-28T11:20:39Z</time>
      </trkpt>
      <trkpt lat="37.166770" lon="-8.849349">
        <ele>34.715</ele>
        <time>2018-12-28T11:20:45Z</time>
      </trkpt>
      <trkpt lat="37.166905" lon="-8.849421">
        <ele>33.713</ele>
        <time>2018-12-28T11:20:55Z</time>
      </trkpt>
      <trkpt lat="37.166936" lon="-8.849450">
        <ele>33.349</ele>
        <time>2018-12-28T11:20:59Z</time>
      </trkpt>
      <trkpt lat="37.167021" lon="-8.849484">
        <ele>32.383</ele>
        <time>2018-12-28T11:21:06Z</time>
      </trkpt>
      <trkpt lat="37.167146" lon="-8.849532">
        <ele>32.825</ele>
        <time>2018-12-28T11:21:17Z</time>
      </trkpt>
      <trkpt lat="37.167286" lon="-8.849560">
        <ele>33.717</ele>
        <time>2018-12-28T11:21:30Z</time>
      </trkpt>
      <trkpt lat="37.167474" lon="-8.849517">
        <ele>34.208</ele>
        <time>2018-12-28T11:21:45Z</time>
      </trkpt>
      <trkpt lat="37.167553" lon="-8.849513">
        <ele>34.231</ele>
        <time>2018-12-28T11:21:51Z</time>
      </trkpt>
      <trkpt lat="37.167659" lon="-8.849498">
        <ele>34.269</ele>
        <time>2018-12-28T11:21:59Z</time>
      </trkpt>
      <trkpt lat="37.167693" lon="-8.849501">
        <ele>34.296</ele>
        <time>2018-12-28T11:22:02Z</time>
      </trkpt>
      <trkpt lat="37.167863" lon="-8.849476">
        <ele>34.711</ele>
        <time>2018-12-28T11:22:15Z</time>
      </trkpt>
      <trkpt lat="37.168046" lon="-8.849415">
        <ele>32.817</ele>
        <time>2018-12-28T11:22:29Z</time>
      </trkpt>
      <trkpt lat="37.168245" lon="-8.849412">
        <ele>32.868</ele>
        <time>2018-12-28T11:22:44Z</time>
      </trkpt>
      <trkpt lat="37.168415" lon="-8.849506">
        <ele>32.326</ele>
        <time>2018-12-28T11:22:58Z</time>
      </trkpt>
      <trkpt lat="37.168458" lon="-8.849534">
        <ele>32.882</ele>
        <time>2018-12-28T11:23:01Z</time>
      </trkpt>
      <trkpt lat="37.168523" lon="-8.849565">
        <ele>32.874</ele>
        <time>2018-12-28T11:23:06Z</time>
      </trkpt>
      <trkpt lat="37.168637" lon="-8.849639">
        <ele>33.356</ele>
        <time>2018-12-28T11:23:15Z</time>
      </trkpt>
      <trkpt lat="37.168695" lon="-8.849859">
        <ele>33.721</ele>
        <time>2018-12-28T11:23:29Z</time>
      </trkpt>
      <trkpt lat="37.168656" lon="-8.850067">
        <ele>33.308</ele>
        <time>2018-12-28T11:23:43Z</time>
      </trkpt>
      <trkpt lat="37.168611" lon="-8.850145">
        <ele>33.770</ele>
        <time>2018-12-28T11:23:50Z</time>
      </trkpt>
      <trkpt lat="37.168514" lon="-8.850350">
        <ele>34.268</ele>
        <time>2018-12-28T11:24:04Z</time>
      </trkpt>
      <trkpt lat="37.168429" lon="-8.850500">
        <ele>33.785</ele>
        <time>2018-12-28T11:24:15Z</time>
      </trkpt>
      <trkpt lat="37.168387" lon="-8.850565">
        <ele>34.260</ele>
        <time>2018-12-28T11:24:20Z</time>
      </trkpt>
      <trkpt lat="37.168325" lon="-8.850646">
        <ele>33.766</ele>
        <time>2018-12-28T11:24:27Z</time>
      </trkpt>
      <trkpt lat="37.168280" lon="-8.850701">
        <ele>33.317</ele>
        <time>2018-12-28T11:24:32Z</time>
      </trkpt>
      <trkpt lat="37.168165" lon="-8.850903">
        <ele>32.375</ele>
        <time>2018-12-28T11:24:47Z</time>
      </trkpt>
      <trkpt lat="37.168162" lon="-8.850916">
        <ele>32.371</ele>
        <time>2018-12-28T11:24:48Z</time>
      </trkpt>
      <trkpt lat="37.168176" lon="-8.851067">
        <ele>31.839</ele>
        <time>2018-12-28T11:24:59Z</time>
      </trkpt>
      <trkpt lat="37.168181" lon="-8.851081">
        <ele>32.301</ele>
        <time>2018-12-28T11:25:01Z</time>
      </trkpt>
      <trkpt lat="37.168150" lon="-8.851140">
        <ele>32.821</ele>
        <time>2018-12-28T11:25:12Z</time>
      </trkpt>
      <trkpt lat="37.168129" lon="-8.851159">
        <ele>32.308</ele>
        <time>2018-12-28T11:25:18Z</time>
      </trkpt>
      <trkpt lat="37.168044" lon="-8.851187">
        <ele>30.936</ele>
        <time>2018-12-28T11:25:25Z</time>
      </trkpt>
      <trkpt lat="37.167965" lon="-8.851263">
        <ele>31.384</ele>
        <time>2018-12-28T11:25:33Z</time>
      </trkpt>
      <trkpt lat="37.167964" lon="-8.851295">
        <ele>31.381</ele>
        <time>2018-12-28T11:25:35Z</time>
      </trkpt>
      <trkpt lat="37.167941" lon="-8.851370">
        <ele>31.876</ele>
        <time>2018-12-28T11:25:40Z</time>
      </trkpt>
      <trkpt lat="37.167842" lon="-8.851535">
        <ele>32.362</ele>
        <time>2018-12-28T11:25:52Z</time>
      </trkpt>
      <trkpt lat="37.167799" lon="-8.851645">
        <ele>32.333</ele>
        <time>2018-12-28T11:25:57Z</time>
      </trkpt>
      <trkpt lat="37.167770" lon="-8.851661">
        <ele>31.831</ele>
        <time>2018-12-28T11:26:00Z</time>
      </trkpt>
      <trkpt lat="37.167726" lon="-8.851779">
        <ele>32.817</ele>
        <time>2018-12-28T11:26:08Z</time>
      </trkpt>
      <trkpt lat="37.167707" lon="-8.851887">
        <ele>32.826</ele>
        <time>2018-12-28T11:26:14Z</time>
      </trkpt>
      <trkpt lat="37.167702" lon="-8.852117">
        <ele>34.247</ele>
        <time>2018-12-28T11:26:28Z</time>
      </trkpt>
      <trkpt lat="37.167736" lon="-8.852302">
        <ele>33.311</ele>
        <time>2018-12-28T11:26:40Z</time>
      </trkpt>
      <trkpt lat="37.167769" lon="-8.852415">
        <ele>33.308</ele>
        <time>2018-12-28T11:26:47Z</time>
      </trkpt>
      <trkpt lat="37.167828" lon="-8.852518">
        <ele>32.855</ele>
        <time>2018-12-28T11:26:55Z</time>
      </trkpt>
      <trkpt lat="37.167923" lon="-8.852635">
        <ele>33.743</ele>
        <time>2018-12-28T11:27:05Z</time>
      </trkpt>
      <trkpt lat="37.167989" lon="-8.852755">
        <ele>33.370</ele>
        <time>2018-12-28T11:27:14Z</time>
      </trkpt>
      <trkpt lat="37.168094" lon="-8.852886">
        <ele>33.385</ele>
        <time>2018-12-28T11:27:25Z</time>
      </trkpt>
      <trkpt lat="37.168143" lon="-8.852938">
        <ele>33.351</ele>
        <time>2018-12-28T11:27:30Z</time>
      </trkpt>
      <trkpt lat="37.168232" lon="-8.853067">
        <ele>32.392</ele>
        <time>2018-12-28T11:27:41Z</time>
      </trkpt>
      <trkpt lat="37.168236" lon="-8.853130">
        <ele>32.350</ele>
        <time>2018-12-28T11:27:45Z</time>
      </trkpt>
      <trkpt lat="37.168322" lon="-8.853337">
        <ele>31.826</ele>
        <time>2018-12-28T11:27:59Z</time>
      </trkpt>
      <trkpt lat="37.168374" lon="-8.853457">
        <ele>31.326</ele>
        <time>2018-12-28T11:28:08Z</time>
      </trkpt>
      <trkpt lat="37.168402" lon="-8.853600">
        <ele>31.847</ele>
        <time>2018-12-28T11:28:17Z</time>
      </trkpt>
      <trkpt lat="37.168440" lon="-8.853679">
        <ele>31.311</ele>
        <time>2018-12-28T11:28:23Z</time>
      </trkpt>
      <trkpt lat="37.168453" lon="-8.853747">
        <ele>31.808</ele>
        <time>2018-12-28T11:28:27Z</time>
      </trkpt>
      <trkpt lat="37.168497" lon="-8.853845">
        <ele>31.875</ele>
        <time>2018-12-28T11:28:34Z</time>
      </trkpt>
      <trkpt lat="37.168542" lon="-8.853935">
        <ele>32.843</ele>
        <time>2018-12-28T11:28:41Z</time>
      </trkpt>
      <trkpt lat="37.168574" lon="-8.854024">
        <ele>32.830</ele>
        <time>2018-12-28T11:28:47Z</time>
      </trkpt>
      <trkpt lat="37.168598" lon="-8.854076">
        <ele>32.895</ele>
        <time>2018-12-28T11:28:51Z</time>
      </trkpt>
      <trkpt lat="37.168677" lon="-8.854306">
        <ele>32.851</ele>
        <time>2018-12-28T11:29:07Z</time>
      </trkpt>
      <trkpt lat="37.168685" lon="-8.854371">
        <ele>33.312</ele>
        <time>2018-12-28T11:29:11Z</time>
      </trkpt>
      <trkpt lat="37.168710" lon="-8.854426">
        <ele>33.370</ele>
        <time>2018-12-28T11:29:15Z</time>
      </trkpt>
      <trkpt lat="37.168727" lon="-8.854453">
        <ele>32.886</ele>
        <time>2018-12-28T11:29:17Z</time>
      </trkpt>
      <trkpt lat="37.168758" lon="-8.854646">
        <ele>32.818</ele>
        <time>2018-12-28T11:29:29Z</time>
      </trkpt>
      <trkpt lat="37.168756" lon="-8.854883">
        <ele>32.398</ele>
        <time>2018-12-28T11:29:43Z</time>
      </trkpt>
      <trkpt lat="37.168692" lon="-8.855091">
        <ele>32.317</ele>
        <time>2018-12-28T11:29:56Z</time>
      </trkpt>
      <trkpt lat="37.168657" lon="-8.855173">
        <ele>32.308</ele>
        <time>2018-12-28T11:30:02Z</time>
      </trkpt>
      <trkpt lat="37.168631" lon="-8.855264">
        <ele>32.314</ele>
        <time>2018-12-28T11:30:08Z</time>
      </trkpt>
      <trkpt lat="37.168614" lon="-8.855321">
        <ele>32.882</ele>
        <time>2018-12-28T11:30:12Z</time>
      </trkpt>
      <trkpt lat="37.168537" lon="-8.855503">
        <ele>31.859</ele>
        <time>2018-12-28T11:30:25Z</time>
      </trkpt>
      <trkpt lat="37.168501" lon="-8.855624">
        <ele>31.814</ele>
        <time>2018-12-28T11:30:33Z</time>
      </trkpt>
      <trkpt lat="37.168446" lon="-8.855704">
        <ele>31.890</ele>
        <time>2018-12-28T11:30:39Z</time>
      </trkpt>
      <trkpt lat="37.168400" lon="-8.855759">
        <ele>31.841</ele>
        <time>2018-12-28T11:30:44Z</time>
      </trkpt>
      <trkpt lat="37.168350" lon="-8.855792">
        <ele>32.359</ele>
        <time>2018-12-28T11:30:48Z</time>
      </trkpt>
      <trkpt lat="37.168280" lon="-8.855887">
        <ele>31.835</ele>
        <time>2018-12-28T11:30:56Z</time>
      </trkpt>
      <trkpt lat="37.168204" lon="-8.856022">
        <ele>31.884</ele>
        <time>2018-12-28T11:31:06Z</time>
      </trkpt>
      <trkpt lat="37.168158" lon="-8.856109">
        <ele>31.807</ele>
        <time>2018-12-28T11:31:12Z</time>
      </trkpt>
      <trkpt lat="37.168089" lon="-8.856249">
        <ele>31.817</ele>
        <time>2018-12-28T11:31:22Z</time>
      </trkpt>
      <trkpt lat="37.168068" lon="-8.856395">
        <ele>32.308</ele>
        <time>2018-12-28T11:31:31Z</time>
      </trkpt>
      <trkpt lat="37.168053" lon="-8.856467">
        <ele>32.351</ele>
        <time>2018-12-28T11:31:36Z</time>
      </trkpt>
      <trkpt lat="37.168005" lon="-8.856561">
        <ele>32.319</ele>
        <time>2018-12-28T11:31:43Z</time>
      </trkpt>
      <trkpt lat="37.167930" lon="-8.856793">
        <ele>32.836</ele>
        <time>2018-12-28T11:31:57Z</time>
      </trkpt>
      <trkpt lat="37.167909" lon="-8.857050">
        <ele>32.351</ele>
        <time>2018-12-28T11:32:12Z</time>
      </trkpt>
      <trkpt lat="37.167928" lon="-8.857134">
        <ele>31.847</ele>
        <time>2018-12-28T11:32:17Z</time>
      </trkpt>
      <trkpt lat="37.167942" lon="-8.857196">
        <ele>31.858</ele>
        <time>2018-12-28T11:32:21Z</time>
      </trkpt>
      <trkpt lat="37.167948" lon="-8.857223">
        <ele>31.876</ele>
        <time>2018-12-28T11:32:23Z</time>
      </trkpt>
      <trkpt lat="37.167920" lon="-8.857389">
        <ele>31.332</ele>
        <time>2018-12-28T11:32:34Z</time>
      </trkpt>
      <trkpt lat="37.167899" lon="-8.857470">
        <ele>31.353</ele>
        <time>2018-12-28T11:32:40Z</time>
      </trkpt>
      <trkpt lat="37.167832" lon="-8.857683">
        <ele>31.804</ele>
        <time>2018-12-28T11:32:55Z</time>
      </trkpt>
      <trkpt lat="37.167811" lon="-8.857741">
        <ele>31.814</ele>
        <time>2018-12-28T11:32:59Z</time>
      </trkpt>
      <trkpt lat="37.167810" lon="-8.857801">
        <ele>31.308</ele>
        <time>2018-12-28T11:33:03Z</time>
      </trkpt>
      <trkpt lat="37.167743" lon="-8.858011">
        <ele>31.338</ele>
        <time>2018-12-28T11:33:17Z</time>
      </trkpt>
      <trkpt lat="37.167710" lon="-8.858092">
        <ele>32.386</ele>
        <time>2018-12-28T11:33:30Z</time>
      </trkpt>
      <trkpt lat="37.167664" lon="-8.858137">
        <ele>31.883</ele>
        <time>2018-12-28T11:33:35Z</time>
      </trkpt>
      <trkpt lat="37.167517" lon="-8.858234">
        <ele>31.868</ele>
        <time>2018-12-28T11:33:48Z</time>
      </trkpt>
      <trkpt lat="37.167493" lon="-8.858263">
        <ele>31.864</ele>
        <time>2018-12-28T11:33:51Z</time>
      </trkpt>
      <trkpt lat="37.167448" lon="-8.858285">
        <ele>31.845</ele>
        <time>2018-12-28T11:33:55Z</time>
      </trkpt>
      <trkpt lat="37.167339" lon="-8.858378">
        <ele>31.893</ele>
        <time>2018-12-28T11:34:07Z</time>
      </trkpt>
      <trkpt lat="37.167324" lon="-8.858381">
        <ele>31.889</ele>
        <time>2018-12-28T11:34:10Z</time>
      </trkpt>
      <trkpt lat="37.167271" lon="-8.858363">
        <ele>31.816</ele>
        <time>2018-12-28T11:34:20Z</time>
      </trkpt>
      <trkpt lat="37.167269" lon="-8.858352">
        <ele>31.876</ele>
        <time>2018-12-28T11:34:37Z</time>
      </trkpt>
      <trkpt lat="37.167270" lon="-8.858350">
        <ele>32.313</ele>
        <time>2018-12-28T11:34:53Z</time>
      </trkpt>
      <trkpt lat="37.167255" lon="-8.858354">
        <ele>31.808</ele>
        <time>2018-12-28T11:35:06Z</time>
      </trkpt>
      <trkpt lat="37.167223" lon="-8.858376">
        <ele>31.834</ele>
        <time>2018-12-28T11:35:20Z</time>
      </trkpt>
      <trkpt lat="37.167249" lon="-8.858400">
        <ele>31.362</ele>
        <time>2018-12-28T11:35:42Z</time>
      </trkpt>
      <trkpt lat="37.167274" lon="-8.858419">
        <ele>31.869</ele>
        <time>2018-12-28T11:35:45Z</time>
      </trkpt>
      <trkpt lat="37.167290" lon="-8.858456">
        <ele>31.824</ele>
        <time>2018-12-28T11:35:48Z</time>
      </trkpt>
      <trkpt lat="37.167317" lon="-8.858529">
        <ele>31.860</ele>
        <time>2018-12-28T11:35:54Z</time>
      </trkpt>
      <trkpt lat="37.167331" lon="-8.858571">
        <ele>31.861</ele>
        <time>2018-12-28T11:35:57Z</time>
      </trkpt>
      <trkpt lat="37.167343" lon="-8.858675">
        <ele>31.339</ele>
        <time>2018-12-28T11:36:04Z</time>
      </trkpt>
      <trkpt lat="37.167369" lon="-8.858930">
        <ele>31.325</ele>
        <time>2018-12-28T11:36:21Z</time>
      </trkpt>
      <trkpt lat="37.167397" lon="-8.859175">
        <ele>31.369</ele>
        <time>2018-12-28T11:36:36Z</time>
      </trkpt>
      <trkpt lat="37.167419" lon="-8.859414">
        <ele>31.804</ele>
        <time>2018-12-28T11:36:51Z</time>
      </trkpt>
      <trkpt lat="37.167448" lon="-8.859630">
        <ele>31.324</ele>
        <time>2018-12-28T11:37:04Z</time>
      </trkpt>
      <trkpt lat="37.167457" lon="-8.859846">
        <ele>30.908</ele>
        <time>2018-12-28T11:37:18Z</time>
      </trkpt>
      <trkpt lat="37.167479" lon="-8.860090">
        <ele>30.959</ele>
        <time>2018-12-28T11:37:33Z</time>
      </trkpt>
      <trkpt lat="37.167480" lon="-8.860163">
        <ele>31.397</ele>
        <time>2018-12-28T11:37:41Z</time>
      </trkpt>
      <trkpt lat="37.167465" lon="-8.860136">
        <ele>31.384</ele>
        <time>2018-12-28T11:37:57Z</time>
      </trkpt>
      <trkpt lat="37.167465" lon="-8.860136">
        <ele>31.389</ele>
        <time>2018-12-28T11:38:16Z</time>
      </trkpt>
      <trkpt lat="37.167476" lon="-8.860176">
        <ele>31.375</ele>
        <time>2018-12-28T11:38:30Z</time>
      </trkpt>
      <trkpt lat="37.167488" lon="-8.860225">
        <ele>30.926</ele>
        <time>2018-12-28T11:38:37Z</time>
      </trkpt>
      <trkpt lat="37.167505" lon="-8.860376">
        <ele>31.324</ele>
        <time>2018-12-28T11:38:48Z</time>
      </trkpt>
      <trkpt lat="37.167522" lon="-8.860622">
        <ele>31.330</ele>
        <time>2018-12-28T11:39:05Z</time>
      </trkpt>
      <trkpt lat="37.167556" lon="-8.860880">
        <ele>30.997</ele>
        <time>2018-12-28T11:39:22Z</time>
      </trkpt>
      <trkpt lat="37.167567" lon="-8.860922">
        <ele>31.323</ele>
        <time>2018-12-28T11:39:25Z</time>
      </trkpt>
      <trkpt lat="37.167556" lon="-8.860983">
        <ele>31.825</ele>
        <time>2018-12-28T11:39:31Z</time>
      </trkpt>
      <trkpt lat="37.167554" lon="-8.861009">
        <ele>31.308</ele>
        <time>2018-12-28T11:39:33Z</time>
      </trkpt>
      <trkpt lat="37.167544" lon="-8.861083">
        <ele>31.392</ele>
        <time>2018-12-28T11:39:45Z</time>
      </trkpt>
      <trkpt lat="37.167553" lon="-8.861117">
        <ele>31.310</ele>
        <time>2018-12-28T11:39:48Z</time>
      </trkpt>
      <trkpt lat="37.167558" lon="-8.861142">
        <ele>31.327</ele>
        <time>2018-12-28T11:39:50Z</time>
      </trkpt>
      <trkpt lat="37.167561" lon="-8.861274">
        <ele>31.882</ele>
        <time>2018-12-28T11:39:58Z</time>
      </trkpt>
      <trkpt lat="37.167548" lon="-8.861506">
        <ele>32.398</ele>
        <time>2018-12-28T11:40:12Z</time>
      </trkpt>
      <trkpt lat="37.167531" lon="-8.861620">
        <ele>32.819</ele>
        <time>2018-12-28T11:40:20Z</time>
      </trkpt>
      <trkpt lat="37.167498" lon="-8.861828">
        <ele>33.747</ele>
        <time>2018-12-28T11:40:33Z</time>
      </trkpt>
      <trkpt lat="37.167470" lon="-8.862039">
        <ele>34.293</ele>
        <time>2018-12-28T11:40:46Z</time>
      </trkpt>
      <trkpt lat="37.167452" lon="-8.862246">
        <ele>35.766</ele>
        <time>2018-12-28T11:40:59Z</time>
      </trkpt>
      <trkpt lat="37.167476" lon="-8.862351">
        <ele>35.729</ele>
        <time>2018-12-28T11:41:06Z</time>
      </trkpt>
      <trkpt lat="37.167535" lon="-8.862429">
        <ele>36.621</ele>
        <time>2018-12-28T11:41:13Z</time>
      </trkpt>
      <trkpt lat="37.167565" lon="-8.862443">
        <ele>36.108</ele>
        <time>2018-12-28T11:41:16Z</time>
      </trkpt>
      <trkpt lat="37.167573" lon="-8.862459">
        <ele>36.159</ele>
        <time>2018-12-28T11:41:24Z</time>
      </trkpt>
      <trkpt lat="37.167592" lon="-8.862474">
        <ele>36.667</ele>
        <time>2018-12-28T11:41:27Z</time>
      </trkpt>
      <trkpt lat="37.167666" lon="-8.862521">
        <ele>37.124</ele>
        <time>2018-12-28T11:41:38Z</time>
      </trkpt>
      <trkpt lat="37.167666" lon="-8.862521">
        <ele>37.129</ele>
        <time>2018-12-28T11:41:54Z</time>
      </trkpt>
      <trkpt lat="37.167698" lon="-8.862511">
        <ele>36.685</ele>
        <time>2018-12-28T11:41:57Z</time>
      </trkpt>
      <trkpt lat="37.167888" lon="-8.862406">
        <ele>34.276</ele>
        <time>2018-12-28T11:42:12Z</time>
      </trkpt>
      <trkpt lat="37.168044" lon="-8.862349">
        <ele>32.874</ele>
        <time>2018-12-28T11:42:26Z</time>
      </trkpt>
      <trkpt lat="37.168230" lon="-8.862340">
        <ele>30.440</ele>
        <time>2018-12-28T11:42:42Z</time>
      </trkpt>
      <trkpt lat="37.168381" lon="-8.862382">
        <ele>30.997</ele>
        <time>2018-12-28T11:42:54Z</time>
      </trkpt>
      <trkpt lat="37.168457" lon="-8.862417">
        <ele>30.923</ele>
        <time>2018-12-28T11:43:00Z</time>
      </trkpt>
      <trkpt lat="37.168528" lon="-8.862439">
        <ele>30.425</ele>
        <time>2018-12-28T11:43:06Z</time>
      </trkpt>
      <trkpt lat="37.168684" lon="-8.862553">
        <ele>30.908</ele>
        <time>2018-12-28T11:43:19Z</time>
      </trkpt>
      <trkpt lat="37.168756" lon="-8.862655">
        <ele>30.432</ele>
        <time>2018-12-28T11:43:28Z</time>
      </trkpt>
      <trkpt lat="37.168785" lon="-8.862782">
        <ele>30.960</ele>
        <time>2018-12-28T11:43:36Z</time>
      </trkpt>
      <trkpt lat="37.168780" lon="-8.863013">
        <ele>31.857</ele>
        <time>2018-12-28T11:43:50Z</time>
      </trkpt>
      <trkpt lat="37.168843" lon="-8.863229">
        <ele>31.822</ele>
        <time>2018-12-28T11:44:04Z</time>
      </trkpt>
      <trkpt lat="37.168851" lon="-8.863238">
        <ele>31.818</ele>
        <time>2018-12-28T11:44:05Z</time>
      </trkpt>
      <trkpt lat="37.168961" lon="-8.863371">
        <ele>31.899</ele>
        <time>2018-12-28T11:44:17Z</time>
      </trkpt>
      <trkpt lat="37.168978" lon="-8.863393">
        <ele>31.817</ele>
        <time>2018-12-28T11:44:19Z</time>
      </trkpt>
      <trkpt lat="37.169088" lon="-8.863518">
        <ele>32.893</ele>
        <time>2018-12-28T11:44:31Z</time>
      </trkpt>
      <trkpt lat="37.169171" lon="-8.863567">
        <ele>32.812</ele>
        <time>2018-12-28T11:44:37Z</time>
      </trkpt>
      <trkpt lat="37.169212" lon="-8.863596">
        <ele>33.332</ele>
        <time>2018-12-28T11:44:41Z</time>
      </trkpt>
      <trkpt lat="37.169354" lon="-8.863694">
        <ele>32.305</ele>
        <time>2018-12-28T11:44:54Z</time>
      </trkpt>
      <trkpt lat="37.169379" lon="-8.863710">
        <ele>32.808</ele>
        <time>2018-12-28T11:44:56Z</time>
      </trkpt>
      <trkpt lat="37.169493" lon="-8.863804">
        <ele>32.814</ele>
        <time>2018-12-28T11:45:07Z</time>
      </trkpt>
      <trkpt lat="37.169555" lon="-8.863848">
        <ele>32.842</ele>
        <time>2018-12-28T11:45:12Z</time>
      </trkpt>
      <trkpt lat="37.169653" lon="-8.863928">
        <ele>32.849</ele>
        <time>2018-12-28T11:45:25Z</time>
      </trkpt>
      <trkpt lat="37.169653" lon="-8.863928">
        <ele>32.894</ele>
        <time>2018-12-28T11:45:30Z</time>
      </trkpt>
      <trkpt lat="37.169676" lon="-8.863957">
        <ele>32.320</ele>
        <time>2018-12-28T11:45:33Z</time>
      </trkpt>
      <trkpt lat="37.169825" lon="-8.864068">
        <ele>33.351</ele>
        <time>2018-12-28T11:45:46Z</time>
      </trkpt>
      <trkpt lat="37.169999" lon="-8.864113">
        <ele>35.279</ele>
        <time>2018-12-28T11:46:00Z</time>
      </trkpt>
      <trkpt lat="37.170121" lon="-8.864116">
        <ele>34.725</ele>
        <time>2018-12-28T11:46:09Z</time>
      </trkpt>
      <trkpt lat="37.170304" lon="-8.864138">
        <ele>34.739</ele>
        <time>2018-12-28T11:46:24Z</time>
      </trkpt>
      <trkpt lat="37.170443" lon="-8.864133">
        <ele>36.101</ele>
        <time>2018-12-28T11:46:35Z</time>
      </trkpt>
      <trkpt lat="37.170455" lon="-8.864128">
        <ele>36.121</ele>
        <time>2018-12-28T11:46:36Z</time>
      </trkpt>
      <trkpt lat="37.170625" lon="-8.864117">
        <ele>37.608</ele>
        <time>2018-12-28T11:46:48Z</time>
      </trkpt>
      <trkpt lat="37.170646" lon="-8.864112">
        <ele>38.186</ele>
        <time>2018-12-28T11:46:50Z</time>
      </trkpt>
      <trkpt lat="37.170805" lon="-8.864103">
        <ele>38.174</ele>
        <time>2018-12-28T11:47:03Z</time>
      </trkpt>
      <trkpt lat="37.170884" lon="-8.864095">
        <ele>38.151</ele>
        <time>2018-12-28T11:47:09Z</time>
      </trkpt>
      <trkpt lat="37.171011" lon="-8.864052">
        <ele>38.166</ele>
        <time>2018-12-28T11:47:21Z</time>
      </trkpt>
      <trkpt lat="37.171035" lon="-8.864041">
        <ele>38.582</ele>
        <time>2018-12-28T11:47:35Z</time>
      </trkpt>
      <trkpt lat="37.171073" lon="-8.864036">
        <ele>38.573</ele>
        <time>2018-12-28T11:47:38Z</time>
      </trkpt>
      <trkpt lat="37.171186" lon="-8.864030">
        <ele>38.541</ele>
        <time>2018-12-28T11:47:46Z</time>
      </trkpt>
      <trkpt lat="37.171348" lon="-8.864152">
        <ele>38.537</ele>
        <time>2018-12-28T11:48:01Z</time>
      </trkpt>
      <trkpt lat="37.171411" lon="-8.864205">
        <ele>37.619</ele>
        <time>2018-12-28T11:48:15Z</time>
      </trkpt>
      <trkpt lat="37.171411" lon="-8.864205">
        <ele>38.109</ele>
        <time>2018-12-28T11:48:16Z</time>
      </trkpt>
      <trkpt lat="37.171442" lon="-8.864227">
        <ele>37.619</ele>
        <time>2018-12-28T11:48:19Z</time>
      </trkpt>
      <trkpt lat="37.171498" lon="-8.864240">
        <ele>37.108</ele>
        <time>2018-12-28T11:48:32Z</time>
      </trkpt>
      <trkpt lat="37.171498" lon="-8.864240">
        <ele>37.664</ele>
        <time>2018-12-28T11:48:42Z</time>
      </trkpt>
      <trkpt lat="37.171521" lon="-8.864251">
        <ele>37.192</ele>
        <time>2018-12-28T11:48:44Z</time>
      </trkpt>
      <trkpt lat="37.171678" lon="-8.864349">
        <ele>36.189</ele>
        <time>2018-12-28T11:48:58Z</time>
      </trkpt>
      <trkpt lat="37.171747" lon="-8.864421">
        <ele>35.214</ele>
        <time>2018-12-28T11:49:05Z</time>
      </trkpt>
      <trkpt lat="37.171915" lon="-8.864527">
        <ele>33.770</ele>
        <time>2018-12-28T11:49:18Z</time>
      </trkpt>
      <trkpt lat="37.172033" lon="-8.864643">
        <ele>32.811</ele>
        <time>2018-12-28T11:49:30Z</time>
      </trkpt>
      <trkpt lat="37.172198" lon="-8.864853">
        <ele>32.369</ele>
        <time>2018-12-28T11:49:47Z</time>
      </trkpt>
      <trkpt lat="37.172205" lon="-8.864865">
        <ele>31.875</ele>
        <time>2018-12-28T11:49:48Z</time>
      </trkpt>
      <trkpt lat="37.172263" lon="-8.864988">
        <ele>31.815</ele>
        <time>2018-12-28T11:49:56Z</time>
      </trkpt>
      <trkpt lat="37.172281" lon="-8.865013">
        <ele>31.365</ele>
        <time>2018-12-28T11:49:58Z</time>
      </trkpt>
      <trkpt lat="37.172355" lon="-8.865139">
        <ele>31.311</ele>
        <time>2018-12-28T11:50:07Z</time>
      </trkpt>
      <trkpt lat="37.172403" lon="-8.865222">
        <ele>31.808</ele>
        <time>2018-12-28T11:50:13Z</time>
      </trkpt>
      <trkpt lat="37.172434" lon="-8.865258">
        <ele>31.374</ele>
        <time>2018-12-28T11:50:16Z</time>
      </trkpt>
      <trkpt lat="37.172475" lon="-8.865319">
        <ele>31.852</ele>
        <time>2018-12-28T11:50:21Z</time>
      </trkpt>
      <trkpt lat="37.172618" lon="-8.865491">
        <ele>30.929</ele>
        <time>2018-12-28T11:50:35Z</time>
      </trkpt>
      <trkpt lat="37.172659" lon="-8.865580">
        <ele>30.944</ele>
        <time>2018-12-28T11:50:41Z</time>
      </trkpt>
      <trkpt lat="37.172701" lon="-8.865597">
        <ele>31.350</ele>
        <time>2018-12-28T11:50:54Z</time>
      </trkpt>
      <trkpt lat="37.172703" lon="-8.865604">
        <ele>31.351</ele>
        <time>2018-12-28T11:51:09Z</time>
      </trkpt>
      <trkpt lat="37.172705" lon="-8.865647">
        <ele>30.989</ele>
        <time>2018-12-28T11:51:26Z</time>
      </trkpt>
      <trkpt lat="37.172708" lon="-8.865651">
        <ele>30.945</ele>
        <time>2018-12-28T11:51:28Z</time>
      </trkpt>
      <trkpt lat="37.172749" lon="-8.865740">
        <ele>30.931</ele>
        <time>2018-12-28T11:51:35Z</time>
      </trkpt>
      <trkpt lat="37.172777" lon="-8.865799">
        <ele>31.361</ele>
        <time>2018-12-28T11:51:40Z</time>
      </trkpt>
      <trkpt lat="37.172817" lon="-8.865849">
        <ele>30.907</ele>
        <time>2018-12-28T11:51:44Z</time>
      </trkpt>
      <trkpt lat="37.172844" lon="-8.865895">
        <ele>30.408</ele>
        <time>2018-12-28T11:51:47Z</time>
      </trkpt>
      <trkpt lat="37.172936" lon="-8.866087">
        <ele>29.966</ele>
        <time>2018-12-28T11:52:00Z</time>
      </trkpt>
      <trkpt lat="37.172983" lon="-8.866176">
        <ele>29.454</ele>
        <time>2018-12-28T11:52:07Z</time>
      </trkpt>
      <trkpt lat="37.173017" lon="-8.866223">
        <ele>28.991</ele>
        <time>2018-12-28T11:52:11Z</time>
      </trkpt>
      <trkpt lat="37.173146" lon="-8.866317">
        <ele>28.536</ele>
        <time>2018-12-28T11:52:22Z</time>
      </trkpt>
      <trkpt lat="37.173188" lon="-8.866351">
        <ele>28.012</ele>
        <time>2018-12-28T11:52:26Z</time>
      </trkpt>
      <trkpt lat="37.173357" lon="-8.866389">
        <ele>27.523</ele>
        <time>2018-12-28T11:52:39Z</time>
      </trkpt>
      <trkpt lat="37.173357" lon="-8.866389">
        <ele>27.551</ele>
        <time>2018-12-28T11:52:40Z</time>
      </trkpt>
      <trkpt lat="37.173381" lon="-8.866394">
        <ele>27.087</ele>
        <time>2018-12-28T11:52:43Z</time>
      </trkpt>
      <trkpt lat="37.173579" lon="-8.866427">
        <ele>27.083</ele>
        <time>2018-12-28T11:52:58Z</time>
      </trkpt>
      <trkpt lat="37.173806" lon="-8.866476">
        <ele>26.525</ele>
        <time>2018-12-28T11:53:13Z</time>
      </trkpt>
      <trkpt lat="37.174008" lon="-8.866501">
        <ele>27.017</ele>
        <time>2018-12-28T11:53:27Z</time>
      </trkpt>
      <trkpt lat="37.174163" lon="-8.866551">
        <ele>26.508</ele>
        <time>2018-12-28T11:53:41Z</time>
      </trkpt>
      <trkpt lat="37.174174" lon="-8.866549">
        <ele>26.561</ele>
        <time>2018-12-28T11:53:51Z</time>
      </trkpt>
      <trkpt lat="37.174207" lon="-8.866544">
        <ele>26.579</ele>
        <time>2018-12-28T11:54:05Z</time>
      </trkpt>
      <trkpt lat="37.174292" lon="-8.866554">
        <ele>26.516</ele>
        <time>2018-12-28T11:54:18Z</time>
      </trkpt>
      <trkpt lat="37.174291" lon="-8.866557">
        <ele>27.021</ele>
        <time>2018-12-28T11:54:22Z</time>
      </trkpt>
      <trkpt lat="37.174308" lon="-8.866566">
        <ele>26.597</ele>
        <time>2018-12-28T11:54:24Z</time>
      </trkpt>
      <trkpt lat="37.174484" lon="-8.866600">
        <ele>26.528</ele>
        <time>2018-12-28T11:54:38Z</time>
      </trkpt>
      <trkpt lat="37.174636" lon="-8.866622">
        <ele>26.526</ele>
        <time>2018-12-28T11:54:50Z</time>
      </trkpt>
      <trkpt lat="37.174803" lon="-8.866637">
        <ele>26.552</ele>
        <time>2018-12-28T11:55:03Z</time>
      </trkpt>
      <trkpt lat="37.174877" lon="-8.866645">
        <ele>27.084</ele>
        <time>2018-12-28T11:55:10Z</time>
      </trkpt>
      <trkpt lat="37.174962" lon="-8.866674">
        <ele>27.007</ele>
        <time>2018-12-28T11:55:17Z</time>
      </trkpt>
      <trkpt lat="37.175018" lon="-8.866688">
        <ele>27.017</ele>
        <time>2018-12-28T11:55:21Z</time>
      </trkpt>
      <trkpt lat="37.175087" lon="-8.866747">
        <ele>27.008</ele>
        <time>2018-12-28T11:55:32Z</time>
      </trkpt>
      <trkpt lat="37.175261" lon="-8.866781">
        <ele>27.011</ele>
        <time>2018-12-28T11:55:46Z</time>
      </trkpt>
      <trkpt lat="37.175415" lon="-8.866766">
        <ele>26.579</ele>
        <time>2018-12-28T11:55:58Z</time>
      </trkpt>
      <trkpt lat="37.175588" lon="-8.866754">
        <ele>27.046</ele>
        <time>2018-12-28T11:56:11Z</time>
      </trkpt>
      <trkpt lat="37.175741" lon="-8.866729">
        <ele>27.091</ele>
        <time>2018-12-28T11:56:22Z</time>
      </trkpt>
      <trkpt lat="37.175889" lon="-8.866786">
        <ele>26.557</ele>
        <time>2018-12-28T11:56:35Z</time>
      </trkpt>
      <trkpt lat="37.176038" lon="-8.866923">
        <ele>27.058</ele>
        <time>2018-12-28T11:56:48Z</time>
      </trkpt>
      <trkpt lat="37.176136" lon="-8.867026">
        <ele>28.026</ele>
        <time>2018-12-28T11:56:58Z</time>
      </trkpt>
      <trkpt lat="37.176229" lon="-8.867137">
        <ele>28.012</ele>
        <time>2018-12-28T11:57:07Z</time>
      </trkpt>
      <trkpt lat="37.176357" lon="-8.867286">
        <ele>29.416</ele>
        <time>2018-12-28T11:57:20Z</time>
      </trkpt>
      <trkpt lat="37.176378" lon="-8.867336">
        <ele>29.476</ele>
        <time>2018-12-28T11:57:23Z</time>
      </trkpt>
      <trkpt lat="37.176471" lon="-8.867484">
        <ele>28.513</ele>
        <time>2018-12-28T11:57:34Z</time>
      </trkpt>
      <trkpt lat="37.176604" lon="-8.867698">
        <ele>26.508</ele>
        <time>2018-12-28T11:57:49Z</time>
      </trkpt>
      <trkpt lat="37.176642" lon="-8.867753">
        <ele>26.034</ele>
        <time>2018-12-28T11:57:53Z</time>
      </trkpt>
      <trkpt lat="37.176763" lon="-8.867935">
        <ele>25.122</ele>
        <time>2018-12-28T11:58:07Z</time>
      </trkpt>
      <trkpt lat="37.176814" lon="-8.868020">
        <ele>24.629</ele>
        <time>2018-12-28T11:58:14Z</time>
      </trkpt>
      <trkpt lat="37.176847" lon="-8.868125">
        <ele>24.124</ele>
        <time>2018-12-28T11:58:21Z</time>
      </trkpt>
      <trkpt lat="37.176881" lon="-8.868296">
        <ele>24.120</ele>
        <time>2018-12-28T11:58:32Z</time>
      </trkpt>
      <trkpt lat="37.176899" lon="-8.868456">
        <ele>23.631</ele>
        <time>2018-12-28T11:58:42Z</time>
      </trkpt>
      <trkpt lat="37.176915" lon="-8.868554">
        <ele>23.689</ele>
        <time>2018-12-28T11:58:48Z</time>
      </trkpt>
      <trkpt lat="37.176952" lon="-8.868643">
        <ele>23.655</ele>
        <time>2018-12-28T11:58:54Z</time>
      </trkpt>
      <trkpt lat="37.176960" lon="-8.868719">
        <ele>23.262</ele>
        <time>2018-12-28T11:58:59Z</time>
      </trkpt>
      <trkpt lat="37.176983" lon="-8.868830">
        <ele>22.783</ele>
        <time>2018-12-28T11:59:06Z</time>
      </trkpt>
      <trkpt lat="37.176995" lon="-8.868900">
        <ele>23.211</ele>
        <time>2018-12-28T11:59:10Z</time>
      </trkpt>
      <trkpt lat="37.177016" lon="-8.869081">
        <ele>23.608</ele>
        <time>2018-12-28T11:59:21Z</time>
      </trkpt>
      <trkpt lat="37.177029" lon="-8.869117">
        <ele>23.239</ele>
        <time>2018-12-28T11:59:23Z</time>
      </trkpt>
      <trkpt lat="37.177025" lon="-8.869186">
        <ele>23.687</ele>
        <time>2018-12-28T11:59:27Z</time>
      </trkpt>
      <trkpt lat="37.177049" lon="-8.869357">
        <ele>23.624</ele>
        <time>2018-12-28T11:59:36Z</time>
      </trkpt>
      <trkpt lat="37.177054" lon="-8.869465">
        <ele>23.269</ele>
        <time>2018-12-28T11:59:42Z</time>
      </trkpt>
      <trkpt lat="37.177057" lon="-8.869498">
        <ele>23.215</ele>
        <time>2018-12-28T11:59:44Z</time>
      </trkpt>
      <trkpt lat="37.177058" lon="-8.869559">
        <ele>23.216</ele>
        <time>2018-12-28T11:59:48Z</time>
      </trkpt>
      <trkpt lat="37.177092" lon="-8.869688">
        <ele>23.684</ele>
        <time>2018-12-28T11:59:55Z</time>
      </trkpt>
      <trkpt lat="37.177122" lon="-8.869863">
        <ele>23.660</ele>
        <time>2018-12-28T12:00:05Z</time>
      </trkpt>
      <trkpt lat="37.177138" lon="-8.869891">
        <ele>23.677</ele>
        <time>2018-12-28T12:00:07Z</time>
      </trkpt>
      <trkpt lat="37.177212" lon="-8.870064">
        <ele>23.261</ele>
        <time>2018-12-28T12:00:18Z</time>
      </trkpt>
      <trkpt lat="37.177307" lon="-8.870212">
        <ele>23.227</ele>
        <time>2018-12-28T12:00:29Z</time>
      </trkpt>
      <trkpt lat="37.177320" lon="-8.870239">
        <ele>23.208</ele>
        <time>2018-12-28T12:00:31Z</time>
      </trkpt>
      <trkpt lat="37.177363" lon="-8.870308">
        <ele>22.730</ele>
        <time>2018-12-28T12:00:36Z</time>
      </trkpt>
      <trkpt lat="37.177397" lon="-8.870366">
        <ele>22.788</ele>
        <time>2018-12-28T12:00:40Z</time>
      </trkpt>
      <trkpt lat="37.177431" lon="-8.870411">
        <ele>22.735</ele>
        <time>2018-12-28T12:00:44Z</time>
      </trkpt>
      <trkpt lat="37.177515" lon="-8.870562">
        <ele>22.730</ele>
        <time>2018-12-28T12:00:55Z</time>
      </trkpt>
      <trkpt lat="37.177561" lon="-8.870667">
        <ele>22.736</ele>
        <time>2018-12-28T12:01:02Z</time>
      </trkpt>
      <trkpt lat="37.177595" lon="-8.870730">
        <ele>22.247</ele>
        <time>2018-12-28T12:01:07Z</time>
      </trkpt>
      <trkpt lat="37.177624" lon="-8.870787">
        <ele>22.265</ele>
        <time>2018-12-28T12:01:11Z</time>
      </trkpt>
      <trkpt lat="37.177647" lon="-8.870868">
        <ele>22.261</ele>
        <time>2018-12-28T12:01:16Z</time>
      </trkpt>
      <trkpt lat="37.177711" lon="-8.871024">
        <ele>22.241</ele>
        <time>2018-12-28T12:01:27Z</time>
      </trkpt>
      <trkpt lat="37.177770" lon="-8.871136">
        <ele>21.781</ele>
        <time>2018-12-28T12:01:35Z</time>
      </trkpt>
      <trkpt lat="37.177834" lon="-8.871202">
        <ele>22.209</ele>
        <time>2018-12-28T12:01:41Z</time>
      </trkpt>
      <trkpt lat="37.177984" lon="-8.871305">
        <ele>22.708</ele>
        <time>2018-12-28T12:01:54Z</time>
      </trkpt>
      <trkpt lat="37.178101" lon="-8.871437">
        <ele>23.267</ele>
        <time>2018-12-28T12:02:06Z</time>
      </trkpt>
      <trkpt lat="37.178195" lon="-8.871503">
        <ele>23.245</ele>
        <time>2018-12-28T12:02:14Z</time>
      </trkpt>
      <trkpt lat="37.178275" lon="-8.871617">
        <ele>22.722</ele>
        <time>2018-12-28T12:02:23Z</time>
      </trkpt>
      <trkpt lat="37.178323" lon="-8.871651">
        <ele>22.727</ele>
        <time>2018-12-28T12:02:27Z</time>
      </trkpt>
      <trkpt lat="37.178404" lon="-8.871825">
        <ele>23.243</ele>
        <time>2018-12-28T12:02:38Z</time>
      </trkpt>
      <trkpt lat="37.178424" lon="-8.871868">
        <ele>23.224</ele>
        <time>2018-12-28T12:02:41Z</time>
      </trkpt>
      <trkpt lat="37.178463" lon="-8.871955">
        <ele>23.232</ele>
        <time>2018-12-28T12:02:47Z</time>
      </trkpt>
      <trkpt lat="37.178494" lon="-8.872020">
        <ele>23.228</ele>
        <time>2018-12-28T12:02:52Z</time>
      </trkpt>
      <trkpt lat="37.178519" lon="-8.872114">
        <ele>23.293</ele>
        <time>2018-12-28T12:02:57Z</time>
      </trkpt>
      <trkpt lat="37.178514" lon="-8.872269">
        <ele>22.765</ele>
        <time>2018-12-28T12:03:06Z</time>
      </trkpt>
      <trkpt lat="37.178510" lon="-8.872303">
        <ele>22.721</ele>
        <time>2018-12-28T12:03:08Z</time>
      </trkpt>
      <trkpt lat="37.178499" lon="-8.872523">
        <ele>22.208</ele>
        <time>2018-12-28T12:03:21Z</time>
      </trkpt>
      <trkpt lat="37.178493" lon="-8.872585">
        <ele>22.732</ele>
        <time>2018-12-28T12:03:25Z</time>
      </trkpt>
      <trkpt lat="37.178483" lon="-8.872655">
        <ele>22.260</ele>
        <time>2018-12-28T12:03:29Z</time>
      </trkpt>
      <trkpt lat="37.178495" lon="-8.872815">
        <ele>22.767</ele>
        <time>2018-12-28T12:03:39Z</time>
      </trkpt>
      <trkpt lat="37.178479" lon="-8.872924">
        <ele>22.252</ele>
        <time>2018-12-28T12:03:46Z</time>
      </trkpt>
      <trkpt lat="37.178439" lon="-8.873125">
        <ele>21.728</ele>
        <time>2018-12-28T12:03:59Z</time>
      </trkpt>
      <trkpt lat="37.178413" lon="-8.873237">
        <ele>22.269</ele>
        <time>2018-12-28T12:04:06Z</time>
      </trkpt>
      <trkpt lat="37.178377" lon="-8.873446">
        <ele>22.767</ele>
        <time>2018-12-28T12:04:19Z</time>
      </trkpt>
      <trkpt lat="37.178348" lon="-8.873622">
        <ele>23.263</ele>
        <time>2018-12-28T12:04:30Z</time>
      </trkpt>
      <trkpt lat="37.178327" lon="-8.873786">
        <ele>23.223</ele>
        <time>2018-12-28T12:04:40Z</time>
      </trkpt>
      <trkpt lat="37.178300" lon="-8.873990">
        <ele>23.283</ele>
        <time>2018-12-28T12:04:53Z</time>
      </trkpt>
      <trkpt lat="37.178294" lon="-8.874003">
        <ele>23.211</ele>
        <time>2018-12-28T12:04:54Z</time>
      </trkpt>
      <trkpt lat="37.178284" lon="-8.874090">
        <ele>23.208</ele>
        <time>2018-12-28T12:04:59Z</time>
      </trkpt>
      <trkpt lat="37.178277" lon="-8.874171">
        <ele>22.785</ele>
        <time>2018-12-28T12:05:04Z</time>
      </trkpt>
      <trkpt lat="37.178265" lon="-8.874251">
        <ele>22.773</ele>
        <time>2018-12-28T12:05:09Z</time>
      </trkpt>
      <trkpt lat="37.178236" lon="-8.874453">
        <ele>22.780</ele>
        <time>2018-12-28T12:05:22Z</time>
      </trkpt>
      <trkpt lat="37.178234" lon="-8.874480">
        <ele>22.275</ele>
        <time>2018-12-28T12:05:24Z</time>
      </trkpt>
      <trkpt lat="37.178224" lon="-8.874507">
        <ele>22.291</ele>
        <time>2018-12-28T12:05:26Z</time>
      </trkpt>
      <trkpt lat="37.178257" lon="-8.874725">
        <ele>21.732</ele>
        <time>2018-12-28T12:05:38Z</time>
      </trkpt>
      <trkpt lat="37.178304" lon="-8.874946">
        <ele>21.250</ele>
        <time>2018-12-28T12:05:52Z</time>
      </trkpt>
      <trkpt lat="37.178342" lon="-8.875016">
        <ele>20.816</ele>
        <time>2018-12-28T12:05:57Z</time>
      </trkpt>
      <trkpt lat="37.178368" lon="-8.875099">
        <ele>20.863</ele>
        <time>2018-12-28T12:06:03Z</time>
      </trkpt>
      <trkpt lat="37.178388" lon="-8.875199">
        <ele>20.344</ele>
        <time>2018-12-28T12:06:09Z</time>
      </trkpt>
      <trkpt lat="37.178423" lon="-8.875377">
        <ele>20.318</ele>
        <time>2018-12-28T12:06:21Z</time>
      </trkpt>
      <trkpt lat="37.178441" lon="-8.875448">
        <ele>20.308</ele>
        <time>2018-12-28T12:06:32Z</time>
      </trkpt>
      <trkpt lat="37.178466" lon="-8.875548">
        <ele>20.379</ele>
        <time>2018-12-28T12:06:39Z</time>
      </trkpt>
      <trkpt lat="37.178478" lon="-8.875684">
        <ele>20.327</ele>
        <time>2018-12-28T12:06:51Z</time>
      </trkpt>
      <trkpt lat="37.178499" lon="-8.875760">
        <ele>19.824</ele>
        <time>2018-12-28T12:07:04Z</time>
      </trkpt>
      <trkpt lat="37.178499" lon="-8.875839">
        <ele>19.839</ele>
        <time>2018-12-28T12:07:09Z</time>
      </trkpt>
      <trkpt lat="37.178522" lon="-8.875959">
        <ele>19.375</ele>
        <time>2018-12-28T12:07:17Z</time>
      </trkpt>
      <trkpt lat="37.178580" lon="-8.876182">
        <ele>19.896</ele>
        <time>2018-12-28T12:07:31Z</time>
      </trkpt>
      <trkpt lat="37.178603" lon="-8.876336">
        <ele>19.864</ele>
        <time>2018-12-28T12:07:40Z</time>
      </trkpt>
      <trkpt lat="37.178632" lon="-8.876404">
        <ele>18.830</ele>
        <time>2018-12-28T12:07:45Z</time>
      </trkpt>
      <trkpt lat="37.178650" lon="-8.876444">
        <ele>19.366</ele>
        <time>2018-12-28T12:07:48Z</time>
      </trkpt>
      <trkpt lat="37.178704" lon="-8.876635">
        <ele>19.329</ele>
        <time>2018-12-28T12:08:01Z</time>
      </trkpt>
      <trkpt lat="37.178746" lon="-8.876853">
        <ele>19.321</ele>
        <time>2018-12-28T12:08:14Z</time>
      </trkpt>
      <trkpt lat="37.178751" lon="-8.876866">
        <ele>19.308</ele>
        <time>2018-12-28T12:08:15Z</time>
      </trkpt>
      <trkpt lat="37.178781" lon="-8.876968">
        <ele>19.389</ele>
        <time>2018-12-28T12:08:23Z</time>
      </trkpt>
      <trkpt lat="37.178794" lon="-8.877205">
        <ele>19.387</ele>
        <time>2018-12-28T12:08:39Z</time>
      </trkpt>
      <trkpt lat="37.178809" lon="-8.877365">
        <ele>19.344</ele>
        <time>2018-12-28T12:08:51Z</time>
      </trkpt>
      <trkpt lat="37.178879" lon="-8.877518">
        <ele>19.349</ele>
        <time>2018-12-28T12:09:02Z</time>
      </trkpt>
      <trkpt lat="37.178882" lon="-8.877557">
        <ele>19.865</ele>
        <time>2018-12-28T12:09:05Z</time>
      </trkpt>
      <trkpt lat="37.178962" lon="-8.877715">
        <ele>19.326</ele>
        <time>2018-12-28T12:09:19Z</time>
      </trkpt>
      <trkpt lat="37.179053" lon="-8.877813">
        <ele>19.364</ele>
        <time>2018-12-28T12:09:28Z</time>
      </trkpt>
      <trkpt lat="37.179131" lon="-8.878006">
        <ele>18.820</ele>
        <time>2018-12-28T12:09:42Z</time>
      </trkpt>
      <trkpt lat="37.179183" lon="-8.878074">
        <ele>18.439</ele>
        <time>2018-12-28T12:09:49Z</time>
      </trkpt>
      <trkpt lat="37.179282" lon="-8.878161">
        <ele>18.401</ele>
        <time>2018-12-28T12:09:56Z</time>
      </trkpt>
      <trkpt lat="37.179379" lon="-8.878247">
        <ele>18.421</ele>
        <time>2018-12-28T12:10:07Z</time>
      </trkpt>
      <trkpt lat="37.179405" lon="-8.878271">
        <ele>17.908</ele>
        <time>2018-12-28T12:10:09Z</time>
      </trkpt>
      <trkpt lat="37.179528" lon="-8.878385">
        <ele>17.956</ele>
        <time>2018-12-28T12:10:21Z</time>
      </trkpt>
      <trkpt lat="37.179532" lon="-8.878409">
        <ele>17.924</ele>
        <time>2018-12-28T12:10:23Z</time>
      </trkpt>
      <trkpt lat="37.179520" lon="-8.878452">
        <ele>18.441</ele>
        <time>2018-12-28T12:10:28Z</time>
      </trkpt>
      <trkpt lat="37.179480" lon="-8.878508">
        <ele>18.876</ele>
        <time>2018-12-28T12:10:34Z</time>
      </trkpt>
      <trkpt lat="37.179464" lon="-8.878526">
        <ele>19.392</ele>
        <time>2018-12-28T12:10:36Z</time>
      </trkpt>
      <trkpt lat="37.179361" lon="-8.878596">
        <ele>19.833</ele>
        <time>2018-12-28T12:10:48Z</time>
      </trkpt>
      <trkpt lat="37.179290" lon="-8.878664">
        <ele>21.261</ele>
        <time>2018-12-28T12:10:58Z</time>
      </trkpt>
      <trkpt lat="37.179236" lon="-8.878710">
        <ele>21.227</ele>
        <time>2018-12-28T12:11:05Z</time>
      </trkpt>
      <trkpt lat="37.179175" lon="-8.878754">
        <ele>21.798</ele>
        <time>2018-12-28T12:11:18Z</time>
      </trkpt>
      <trkpt lat="37.179137" lon="-8.878794">
        <ele>22.215</ele>
        <time>2018-12-28T12:11:32Z</time>
      </trkpt>
      <trkpt lat="37.179029" lon="-8.878834">
        <ele>22.726</ele>
        <time>2018-12-28T12:11:47Z</time>
      </trkpt>
      <trkpt lat="37.178971" lon="-8.878875">
        <ele>23.608</ele>
        <time>2018-12-28T12:11:54Z</time>
      </trkpt>
      <trkpt lat="37.178948" lon="-8.878903">
        <ele>23.682</ele>
        <time>2018-12-28T12:11:57Z</time>
      </trkpt>
      <trkpt lat="37.178874" lon="-8.878957">
        <ele>25.150</ele>
        <time>2018-12-28T12:12:05Z</time>
      </trkpt>
      <trkpt lat="37.178824" lon="-8.879028">
        <ele>25.667</ele>
        <time>2018-12-28T12:12:11Z</time>
      </trkpt>
      <trkpt lat="37.178744" lon="-8.879120">
        <ele>27.592</ele>
        <time>2018-12-28T12:12:20Z</time>
      </trkpt>
      <trkpt lat="37.178625" lon="-8.879223">
        <ele>29.998</ele>
        <time>2018-12-28T12:12:34Z</time>
      </trkpt>
      <trkpt lat="37.178520" lon="-8.879346">
        <ele>32.899</ele>
        <time>2018-12-28T12:12:48Z</time>
      </trkpt>
      <trkpt lat="37.178487" lon="-8.879382">
        <ele>33.347</ele>
        <time>2018-12-28T12:12:53Z</time>
      </trkpt>
      <trkpt lat="37.178485" lon="-8.879406">
        <ele>33.753</ele>
        <time>2018-12-28T12:12:55Z</time>
      </trkpt>
      <trkpt lat="37.178377" lon="-8.879486">
        <ele>35.719</ele>
        <time>2018-12-28T12:13:05Z</time>
      </trkpt>
      <trkpt lat="37.178320" lon="-8.879477">
        <ele>36.609</ele>
        <time>2018-12-28T12:13:09Z</time>
      </trkpt>
      <trkpt lat="37.178289" lon="-8.879495">
        <ele>37.619</ele>
        <time>2018-12-28T12:13:11Z</time>
      </trkpt>
      <trkpt lat="37.178240" lon="-8.879530">
        <ele>38.108</ele>
        <time>2018-12-28T12:13:15Z</time>
      </trkpt>
      <trkpt lat="37.178202" lon="-8.879545">
        <ele>38.114</ele>
        <time>2018-12-28T12:13:18Z</time>
      </trkpt>
      <trkpt lat="37.178161" lon="-8.879598">
        <ele>38.532</ele>
        <time>2018-12-28T12:13:23Z</time>
      </trkpt>
      <trkpt lat="37.178122" lon="-8.879650">
        <ele>39.539</ele>
        <time>2018-12-28T12:13:27Z</time>
      </trkpt>
      <trkpt lat="37.178074" lon="-8.879684">
        <ele>40.094</ele>
        <time>2018-12-28T12:13:32Z</time>
      </trkpt>
      <trkpt lat="37.178026" lon="-8.879709">
        <ele>40.530</ele>
        <time>2018-12-28T12:13:37Z</time>
      </trkpt>
      <trkpt lat="37.178006" lon="-8.879730">
        <ele>41.431</ele>
        <time>2018-12-28T12:13:39Z</time>
      </trkpt>
      <trkpt lat="37.177991" lon="-8.879744">
        <ele>41.959</ele>
        <time>2018-12-28T12:13:43Z</time>
      </trkpt>
      <trkpt lat="37.177967" lon="-8.879757">
        <ele>42.485</ele>
        <time>2018-12-28T12:13:45Z</time>
      </trkpt>
      <trkpt lat="37.177845" lon="-8.879840">
        <ele>44.347</ele>
        <time>2018-12-28T12:13:56Z</time>
      </trkpt>
      <trkpt lat="37.177786" lon="-8.879878">
        <ele>45.329</ele>
        <time>2018-12-28T12:14:03Z</time>
      </trkpt>
      <trkpt lat="37.177706" lon="-8.879998">
        <ele>47.721</ele>
        <time>2018-12-28T12:14:14Z</time>
      </trkpt>
      <trkpt lat="37.177667" lon="-8.880025">
        <ele>48.608</ele>
        <time>2018-12-28T12:14:18Z</time>
      </trkpt>
      <trkpt lat="37.177650" lon="-8.880043">
        <ele>48.697</ele>
        <time>2018-12-28T12:14:20Z</time>
      </trkpt>
      <trkpt lat="37.177623" lon="-8.880088">
        <ele>49.685</ele>
        <time>2018-12-28T12:14:24Z</time>
      </trkpt>
      <trkpt lat="37.177585" lon="-8.880104">
        <ele>50.652</ele>
        <time>2018-12-28T12:14:28Z</time>
      </trkpt>
      <trkpt lat="37.177517" lon="-8.880211">
        <ele>52.567</ele>
        <time>2018-12-28T12:14:38Z</time>
      </trkpt>
      <trkpt lat="37.177517" lon="-8.880240">
        <ele>53.453</ele>
        <time>2018-12-28T12:14:40Z</time>
      </trkpt>
      <trkpt lat="37.177514" lon="-8.880287">
        <ele>53.484</ele>
        <time>2018-12-28T12:14:44Z</time>
      </trkpt>
      <trkpt lat="37.177498" lon="-8.880368">
        <ele>54.962</ele>
        <time>2018-12-28T12:14:50Z</time>
      </trkpt>
      <trkpt lat="37.177481" lon="-8.880446">
        <ele>55.868</ele>
        <time>2018-12-28T12:14:56Z</time>
      </trkpt>
      <trkpt lat="37.177513" lon="-8.880538">
        <ele>57.321</ele>
        <time>2018-12-28T12:15:04Z</time>
      </trkpt>
      <trkpt lat="37.177525" lon="-8.880752">
        <ele>60.741</ele>
        <time>2018-12-28T12:15:18Z</time>
      </trkpt>
      <trkpt lat="37.177521" lon="-8.880877">
        <ele>62.605</ele>
        <time>2018-12-28T12:15:27Z</time>
      </trkpt>
      <trkpt lat="37.177500" lon="-8.880960">
        <ele>63.108</ele>
        <time>2018-12-28T12:15:32Z</time>
      </trkpt>
      <trkpt lat="37.177482" lon="-8.881013">
        <ele>63.135</ele>
        <time>2018-12-28T12:15:36Z</time>
      </trkpt>
      <trkpt lat="37.177530" lon="-8.881136">
        <ele>65.063</ele>
        <time>2018-12-28T12:15:48Z</time>
      </trkpt>
      <trkpt lat="37.177533" lon="-8.881139">
        <ele>65.070</ele>
        <time>2018-12-28T12:15:50Z</time>
      </trkpt>
      <trkpt lat="37.177658" lon="-8.881039">
        <ele>66.445</ele>
        <time>2018-12-28T12:16:01Z</time>
      </trkpt>
      <trkpt lat="37.177681" lon="-8.881001">
        <ele>67.461</ele>
        <time>2018-12-28T12:16:04Z</time>
      </trkpt>
      <trkpt lat="37.177779" lon="-8.880873">
        <ele>68.842</ele>
        <time>2018-12-28T12:16:15Z</time>
      </trkpt>
      <trkpt lat="37.177812" lon="-8.880828">
        <ele>69.340</ele>
        <time>2018-12-28T12:16:19Z</time>
      </trkpt>
      <trkpt lat="37.177866" lon="-8.880777">
        <ele>70.796</ele>
        <time>2018-12-28T12:16:25Z</time>
      </trkpt>
      <trkpt lat="37.177915" lon="-8.880722">
        <ele>71.287</ele>
        <time>2018-12-28T12:16:30Z</time>
      </trkpt>
      <trkpt lat="37.178046" lon="-8.880623">
        <ele>72.242</ele>
        <time>2018-12-28T12:16:43Z</time>
      </trkpt>
      <trkpt lat="37.178051" lon="-8.880621">
        <ele>72.226</ele>
        <time>2018-12-28T12:16:44Z</time>
      </trkpt>
      <trkpt lat="37.178054" lon="-8.880600">
        <ele>72.208</ele>
        <time>2018-12-28T12:16:55Z</time>
      </trkpt>
      <trkpt lat="37.178051" lon="-8.880600">
        <ele>72.251</ele>
        <time>2018-12-28T12:17:09Z</time>
      </trkpt>
      <trkpt lat="37.178053" lon="-8.880597">
        <ele>71.769</ele>
        <time>2018-12-28T12:17:33Z</time>
      </trkpt>
      <trkpt lat="37.178053" lon="-8.880597">
        <ele>72.236</ele>
        <time>2018-12-28T12:17:53Z</time>
      </trkpt>
      <trkpt lat="37.178053" lon="-8.880597">
        <ele>71.711</ele>
        <time>2018-12-28T12:18:13Z</time>
      </trkpt>
      <trkpt lat="37.178055" lon="-8.880595">
        <ele>72.297</ele>
        <time>2018-12-28T12:18:34Z</time>
      </trkpt>
      <trkpt lat="37.178054" lon="-8.880596">
        <ele>71.758</ele>
        <time>2018-12-28T12:18:54Z</time>
      </trkpt>
      <trkpt lat="37.178080" lon="-8.880610">
        <ele>71.736</ele>
        <time>2018-12-28T12:19:14Z</time>
      </trkpt>
      <trkpt lat="37.178085" lon="-8.880613">
        <ele>72.212</ele>
        <time>2018-12-28T12:19:33Z</time>
      </trkpt>
      <trkpt lat="37.178088" lon="-8.880610">
        <ele>72.283</ele>
        <time>2018-12-28T12:19:54Z</time>
      </trkpt>
      <trkpt lat="37.178079" lon="-8.880612">
        <ele>72.225</ele>
        <time>2018-12-28T12:20:08Z</time>
      </trkpt>
      <trkpt lat="37.178080" lon="-8.880606">
        <ele>72.717</ele>
        <time>2018-12-28T12:20:25Z</time>
      </trkpt>
      <trkpt lat="37.178110" lon="-8.880609">
        <ele>72.708</ele>
        <time>2018-12-28T12:20:41Z</time>
      </trkpt>
      <trkpt lat="37.178167" lon="-8.880604">
        <ele>73.241</ele>
        <time>2018-12-28T12:20:48Z</time>
      </trkpt>
      <trkpt lat="37.178195" lon="-8.880601">
        <ele>72.719</ele>
        <time>2018-12-28T12:20:51Z</time>
      </trkpt>
      <trkpt lat="37.178214" lon="-8.880603">
        <ele>72.796</ele>
        <time>2018-12-28T12:20:53Z</time>
      </trkpt>
      <trkpt lat="37.178266" lon="-8.880605">
        <ele>72.781</ele>
        <time>2018-12-28T12:20:59Z</time>
      </trkpt>
      <trkpt lat="37.178379" lon="-8.880618">
        <ele>73.697</ele>
        <time>2018-12-28T12:21:13Z</time>
      </trkpt>
      <trkpt lat="37.178412" lon="-8.880632">
        <ele>74.118</ele>
        <time>2018-12-28T12:21:17Z</time>
      </trkpt>
      <trkpt lat="37.178452" lon="-8.880714">
        <ele>75.116</ele>
        <time>2018-12-28T12:21:28Z</time>
      </trkpt>
      <trkpt lat="37.178420" lon="-8.880744">
        <ele>77.072</ele>
        <time>2018-12-28T12:21:35Z</time>
      </trkpt>
      <trkpt lat="37.178325" lon="-8.880794">
        <ele>78.975</ele>
        <time>2018-12-28T12:21:47Z</time>
      </trkpt>
      <trkpt lat="37.178309" lon="-8.880809">
        <ele>79.428</ele>
        <time>2018-12-28T12:21:49Z</time>
      </trkpt>
      <trkpt lat="37.178287" lon="-8.880827">
        <ele>79.420</ele>
        <time>2018-12-28T12:21:51Z</time>
      </trkpt>
      <trkpt lat="37.178263" lon="-8.880831">
        <ele>79.908</ele>
        <time>2018-12-28T12:21:53Z</time>
      </trkpt>
      <trkpt lat="37.178238" lon="-8.880846">
        <ele>80.410</ele>
        <time>2018-12-28T12:21:56Z</time>
      </trkpt>
      <trkpt lat="37.178172" lon="-8.880903">
        <ele>81.368</ele>
        <time>2018-12-28T12:22:03Z</time>
      </trkpt>
      <trkpt lat="37.178133" lon="-8.881000">
        <ele>82.355</ele>
        <time>2018-12-28T12:22:11Z</time>
      </trkpt>
      <trkpt lat="37.178127" lon="-8.881029">
        <ele>82.870</ele>
        <time>2018-12-28T12:22:13Z</time>
      </trkpt>
      <trkpt lat="37.178139" lon="-8.881098">
        <ele>83.276</ele>
        <time>2018-12-28T12:22:18Z</time>
      </trkpt>
      <trkpt lat="37.178155" lon="-8.881121">
        <ele>83.767</ele>
        <time>2018-12-28T12:22:21Z</time>
      </trkpt>
      <trkpt lat="37.178178" lon="-8.881155">
        <ele>84.275</ele>
        <time>2018-12-28T12:22:24Z</time>
      </trkpt>
      <trkpt lat="37.178283" lon="-8.881178">
        <ele>85.611</ele>
        <time>2018-12-28T12:22:33Z</time>
      </trkpt>
      <trkpt lat="37.178396" lon="-8.881230">
        <ele>87.154</ele>
        <time>2018-12-28T12:22:44Z</time>
      </trkpt>
      <trkpt lat="37.178414" lon="-8.881244">
        <ele>87.156</ele>
        <time>2018-12-28T12:22:46Z</time>
      </trkpt>
      <trkpt lat="37.178462" lon="-8.881284">
        <ele>88.111</ele>
        <time>2018-12-28T12:22:51Z</time>
      </trkpt>
      <trkpt lat="37.178486" lon="-8.881311">
        <ele>88.108</ele>
        <time>2018-12-28T12:22:54Z</time>
      </trkpt>
      <trkpt lat="37.178533" lon="-8.881360">
        <ele>89.028</ele>
        <time>2018-12-28T12:23:00Z</time>
      </trkpt>
      <trkpt lat="37.178645" lon="-8.881431">
        <ele>90.056</ele>
        <time>2018-12-28T12:23:12Z</time>
      </trkpt>
      <trkpt lat="37.178677" lon="-8.881456">
        <ele>90.013</ele>
        <time>2018-12-28T12:23:16Z</time>
      </trkpt>
      <trkpt lat="37.178731" lon="-8.881471">
        <ele>90.048</ele>
        <time>2018-12-28T12:23:21Z</time>
      </trkpt>
      <trkpt lat="37.178836" lon="-8.881515">
        <ele>90.934</ele>
        <time>2018-12-28T12:23:32Z</time>
      </trkpt>
      <trkpt lat="37.178874" lon="-8.881531">
        <ele>90.935</ele>
        <time>2018-12-28T12:23:37Z</time>
      </trkpt>
      <trkpt lat="37.178893" lon="-8.881521">
        <ele>91.423</ele>
        <time>2018-12-28T12:23:52Z</time>
      </trkpt>
      <trkpt lat="37.178910" lon="-8.881552">
        <ele>91.929</ele>
        <time>2018-12-28T12:23:59Z</time>
      </trkpt>
      <trkpt lat="37.178976" lon="-8.881630">
        <ele>92.946</ele>
        <time>2018-12-28T12:24:12Z</time>
      </trkpt>
      <trkpt lat="37.178976" lon="-8.881626">
        <ele>92.988</ele>
        <time>2018-12-28T12:24:32Z</time>
      </trkpt>
      <trkpt lat="37.178980" lon="-8.881646">
        <ele>92.916</ele>
        <time>2018-12-28T12:24:34Z</time>
      </trkpt>
      <trkpt lat="37.179023" lon="-8.881779">
        <ele>93.308</ele>
        <time>2018-12-28T12:24:45Z</time>
      </trkpt>
      <trkpt lat="37.179027" lon="-8.881792">
        <ele>93.897</ele>
        <time>2018-12-28T12:24:46Z</time>
      </trkpt>
      <trkpt lat="37.179053" lon="-8.881944">
        <ele>94.895</ele>
        <time>2018-12-28T12:24:58Z</time>
      </trkpt>
      <trkpt lat="37.179065" lon="-8.882015">
        <ele>95.332</ele>
        <time>2018-12-28T12:25:04Z</time>
      </trkpt>
      <trkpt lat="37.179072" lon="-8.882045">
        <ele>95.737</ele>
        <time>2018-12-28T12:25:06Z</time>
      </trkpt>
      <trkpt lat="37.179075" lon="-8.882084">
        <ele>95.773</ele>
        <time>2018-12-28T12:25:09Z</time>
      </trkpt>
      <trkpt lat="37.179083" lon="-8.882137">
        <ele>96.714</ele>
        <time>2018-12-28T12:25:13Z</time>
      </trkpt>
      <trkpt lat="37.179128" lon="-8.882254">
        <ele>96.772</ele>
        <time>2018-12-28T12:25:25Z</time>
      </trkpt>
      <trkpt lat="37.179132" lon="-8.882261">
        <ele>97.238</ele>
        <time>2018-12-28T12:25:37Z</time>
      </trkpt>
      <trkpt lat="37.179158" lon="-8.882288">
        <ele>97.258</ele>
        <time>2018-12-28T12:25:40Z</time>
      </trkpt>
      <trkpt lat="37.179270" lon="-8.882381">
        <ele>99.152</ele>
        <time>2018-12-28T12:25:51Z</time>
      </trkpt>
      <trkpt lat="37.179319" lon="-8.882414">
        <ele>99.117</ele>
        <time>2018-12-28T12:25:56Z</time>
      </trkpt>
      <trkpt lat="37.179370" lon="-8.882438">
        <ele>99.608</ele>
        <time>2018-12-28T12:26:01Z</time>
      </trkpt>
      <trkpt lat="37.179442" lon="-8.882465">
        <ele>100.198</ele>
        <time>2018-12-28T12:26:08Z</time>
      </trkpt>
      <trkpt lat="37.179464" lon="-8.882472">
        <ele>100.116</ele>
        <time>2018-12-28T12:26:10Z</time>
      </trkpt>
      <trkpt lat="37.179575" lon="-8.882506">
        <ele>102.033</ele>
        <time>2018-12-28T12:26:20Z</time>
      </trkpt>
      <trkpt lat="37.179699" lon="-8.882569">
        <ele>103.078</ele>
        <time>2018-12-28T12:26:32Z</time>
      </trkpt>
      <trkpt lat="37.179748" lon="-8.882609">
        <ele>103.434</ele>
        <time>2018-12-28T12:26:37Z</time>
      </trkpt>
      <trkpt lat="37.179793" lon="-8.882632">
        <ele>103.485</ele>
        <time>2018-12-28T12:26:41Z</time>
      </trkpt>
      <trkpt lat="37.179898" lon="-8.882764">
        <ele>103.953</ele>
        <time>2018-12-28T12:26:53Z</time>
      </trkpt>
      <trkpt lat="37.180028" lon="-8.882905">
        <ele>104.939</ele>
        <time>2018-12-28T12:27:06Z</time>
      </trkpt>
      <trkpt lat="37.180095" lon="-8.882970">
        <ele>105.812</ele>
        <time>2018-12-28T12:27:15Z</time>
      </trkpt>
      <trkpt lat="37.180126" lon="-8.883006">
        <ele>106.332</ele>
        <time>2018-12-28T12:27:19Z</time>
      </trkpt>
      <trkpt lat="37.180140" lon="-8.883024">
        <ele>106.305</ele>
        <time>2018-12-28T12:27:21Z</time>
      </trkpt>
      <trkpt lat="37.180174" lon="-8.883088">
        <ele>106.808</ele>
        <time>2018-12-28T12:27:27Z</time>
      </trkpt>
      <trkpt lat="37.180171" lon="-8.883199">
        <ele>107.384</ele>
        <time>2018-12-28T12:27:39Z</time>
      </trkpt>
      <trkpt lat="37.180171" lon="-8.883199">
        <ele>107.382</ele>
        <time>2018-12-28T12:28:04Z</time>
      </trkpt>
      <trkpt lat="37.180171" lon="-8.883199">
        <ele>107.859</ele>
        <time>2018-12-28T12:28:14Z</time>
      </trkpt>
      <trkpt lat="37.180056" lon="-8.883240">
        <ele>108.244</ele>
        <time>2018-12-28T12:28:24Z</time>
      </trkpt>
      <trkpt lat="37.179881" lon="-8.883295">
        <ele>110.650</ele>
        <time>2018-12-28T12:28:38Z</time>
      </trkpt>
      <trkpt lat="37.179871" lon="-8.883303">
        <ele>110.251</ele>
        <time>2018-12-28T12:28:39Z</time>
      </trkpt>
      <trkpt lat="37.179775" lon="-8.883394">
        <ele>111.649</ele>
        <time>2018-12-28T12:28:52Z</time>
      </trkpt>
      <trkpt lat="37.179775" lon="-8.883394">
        <ele>111.675</ele>
        <time>2018-12-28T12:28:57Z</time>
      </trkpt>
      <trkpt lat="37.179770" lon="-8.883408">
        <ele>111.617</ele>
        <time>2018-12-28T12:28:59Z</time>
      </trkpt>
      <trkpt lat="37.179753" lon="-8.883433">
        <ele>111.687</ele>
        <time>2018-12-28T12:29:12Z</time>
      </trkpt>
      <trkpt lat="37.179737" lon="-8.883487">
        <ele>112.615</ele>
        <time>2018-12-28T12:29:32Z</time>
      </trkpt>
      <trkpt lat="37.179722" lon="-8.883541">
        <ele>111.608</ele>
        <time>2018-12-28T12:29:38Z</time>
      </trkpt>
      <trkpt lat="37.179722" lon="-8.883541">
        <ele>112.174</ele>
        <time>2018-12-28T12:29:44Z</time>
      </trkpt>
      <trkpt lat="37.179698" lon="-8.883663">
        <ele>112.172</ele>
        <time>2018-12-28T12:29:52Z</time>
      </trkpt>
      <trkpt lat="37.179679" lon="-8.883737">
        <ele>112.199</ele>
        <time>2018-12-28T12:30:06Z</time>
      </trkpt>
      <trkpt lat="37.179695" lon="-8.883771">
        <ele>111.634</ele>
        <time>2018-12-28T12:30:16Z</time>
      </trkpt>
      <trkpt lat="37.179702" lon="-8.883800">
        <ele>112.170</ele>
        <time>2018-12-28T12:30:19Z</time>
      </trkpt>
      <trkpt lat="37.179753" lon="-8.884006">
        <ele>112.691</ele>
        <time>2018-12-28T12:30:32Z</time>
      </trkpt>
      <trkpt lat="37.179789" lon="-8.884174">
        <ele>112.659</ele>
        <time>2018-12-28T12:30:45Z</time>
      </trkpt>
      <trkpt lat="37.179808" lon="-8.884368">
        <ele>113.595</ele>
        <time>2018-12-28T12:30:59Z</time>
      </trkpt>
      <trkpt lat="37.179812" lon="-8.884528">
        <ele>113.544</ele>
        <time>2018-12-28T12:31:10Z</time>
      </trkpt>
      <trkpt lat="37.179820" lon="-8.884632">
        <ele>114.005</ele>
        <time>2018-12-28T12:31:18Z</time>
      </trkpt>
      <trkpt lat="37.179832" lon="-8.884720">
        <ele>114.015</ele>
        <time>2018-12-28T12:31:24Z</time>
      </trkpt>
      <trkpt lat="37.179831" lon="-8.884805">
        <ele>114.508</ele>
        <time>2018-12-28T12:31:30Z</time>
      </trkpt>
      <trkpt lat="37.179830" lon="-8.884854">
        <ele>115.057</ele>
        <time>2018-12-28T12:31:34Z</time>
      </trkpt>
      <trkpt lat="37.179819" lon="-8.884878">
        <ele>114.535</ele>
        <time>2018-12-28T12:31:36Z</time>
      </trkpt>
      <trkpt lat="37.179791" lon="-8.885022">
        <ele>115.942</ele>
        <time>2018-12-28T12:31:48Z</time>
      </trkpt>
      <trkpt lat="37.179788" lon="-8.885032">
        <ele>115.587</ele>
        <time>2018-12-28T12:31:49Z</time>
      </trkpt>
      <trkpt lat="37.179777" lon="-8.885056">
        <ele>115.533</ele>
        <time>2018-12-28T12:31:51Z</time>
      </trkpt>
      <trkpt lat="37.179748" lon="-8.885162">
        <ele>117.424</ele>
        <time>2018-12-28T12:32:04Z</time>
      </trkpt>
      <trkpt lat="37.179769" lon="-8.885166">
        <ele>115.572</ele>
        <time>2018-12-28T12:32:19Z</time>
      </trkpt>
      <trkpt lat="37.179786" lon="-8.885168">
        <ele>116.478</ele>
        <time>2018-12-28T12:32:32Z</time>
      </trkpt>
      <trkpt lat="37.179786" lon="-8.885168">
        <ele>115.951</ele>
        <time>2018-12-28T12:32:38Z</time>
      </trkpt>
      <trkpt lat="37.179812" lon="-8.885202">
        <ele>114.501</ele>
        <time>2018-12-28T12:32:41Z</time>
      </trkpt>
      <trkpt lat="37.179805" lon="-8.885253">
        <ele>114.511</ele>
        <time>2018-12-28T12:32:45Z</time>
      </trkpt>
      <trkpt lat="37.179808" lon="-8.885307">
        <ele>115.008</ele>
        <time>2018-12-28T12:32:49Z</time>
      </trkpt>
      <trkpt lat="37.179811" lon="-8.885389">
        <ele>114.588</ele>
        <time>2018-12-28T12:32:55Z</time>
      </trkpt>
      <trkpt lat="37.179797" lon="-8.885613">
        <ele>114.016</ele>
        <time>2018-12-28T12:33:11Z</time>
      </trkpt>
      <trkpt lat="37.179800" lon="-8.885839">
        <ele>113.083</ele>
        <time>2018-12-28T12:33:26Z</time>
      </trkpt>
      <trkpt lat="37.179801" lon="-8.886069">
        <ele>112.168</ele>
        <time>2018-12-28T12:33:42Z</time>
      </trkpt>
      <trkpt lat="37.179830" lon="-8.886223">
        <ele>110.664</ele>
        <time>2018-12-28T12:33:53Z</time>
      </trkpt>
      <trkpt lat="37.179909" lon="-8.886418">
        <ele>109.735</ele>
        <time>2018-12-28T12:34:09Z</time>
      </trkpt>
      <trkpt lat="37.179974" lon="-8.886603">
        <ele>109.283</ele>
        <time>2018-12-28T12:34:23Z</time>
      </trkpt>
      <trkpt lat="37.179979" lon="-8.886627">
        <ele>108.739</ele>
        <time>2018-12-28T12:34:25Z</time>
      </trkpt>
      <trkpt lat="37.179998" lon="-8.886666">
        <ele>108.792</ele>
        <time>2018-12-28T12:34:36Z</time>
      </trkpt>
      <trkpt lat="37.180012" lon="-8.886693">
        <ele>108.273</ele>
        <time>2018-12-28T12:34:39Z</time>
      </trkpt>
      <trkpt lat="37.180032" lon="-8.886728">
        <ele>107.820</ele>
        <time>2018-12-28T12:34:42Z</time>
      </trkpt>
      <trkpt lat="37.180167" lon="-8.886926">
        <ele>105.408</ele>
        <time>2018-12-28T12:34:58Z</time>
      </trkpt>
      <trkpt lat="37.180304" lon="-8.887079">
        <ele>103.412</ele>
        <time>2018-12-28T12:35:13Z</time>
      </trkpt>
      <trkpt lat="37.180365" lon="-8.887148">
        <ele>102.020</ele>
        <time>2018-12-28T12:35:20Z</time>
      </trkpt>
      <trkpt lat="37.180397" lon="-8.887271">
        <ele>101.097</ele>
        <time>2018-12-28T12:35:28Z</time>
      </trkpt>
      <trkpt lat="37.180400" lon="-8.887420">
        <ele>99.182</ele>
        <time>2018-12-28T12:35:37Z</time>
      </trkpt>
      <trkpt lat="37.180472" lon="-8.887541">
        <ele>97.268</ele>
        <time>2018-12-28T12:35:47Z</time>
      </trkpt>
      <trkpt lat="37.180604" lon="-8.887700">
        <ele>95.369</ele>
        <time>2018-12-28T12:36:02Z</time>
      </trkpt>
      <trkpt lat="37.180671" lon="-8.887717">
        <ele>95.777</ele>
        <time>2018-12-28T12:36:16Z</time>
      </trkpt>
      <trkpt lat="37.180671" lon="-8.887717">
        <ele>95.763</ele>
        <time>2018-12-28T12:36:17Z</time>
      </trkpt>
      <trkpt lat="37.180671" lon="-8.887717">
        <ele>94.331</ele>
        <time>2018-12-28T12:36:20Z</time>
      </trkpt>
      <trkpt lat="37.180671" lon="-8.887717">
        <ele>94.861</ele>
        <time>2018-12-28T12:36:47Z</time>
      </trkpt>
      <trkpt lat="37.180674" lon="-8.887730">
        <ele>95.307</ele>
        <time>2018-12-28T12:36:53Z</time>
      </trkpt>
      <trkpt lat="37.180708" lon="-8.887794">
        <ele>94.308</ele>
        <time>2018-12-28T12:36:58Z</time>
      </trkpt>
      <trkpt lat="37.180764" lon="-8.887831">
        <ele>93.346</ele>
        <time>2018-12-28T12:37:03Z</time>
      </trkpt>
      <trkpt lat="37.180785" lon="-8.887841">
        <ele>93.314</ele>
        <time>2018-12-28T12:37:05Z</time>
      </trkpt>
      <trkpt lat="37.180903" lon="-8.887848">
        <ele>90.041</ele>
        <time>2018-12-28T12:37:13Z</time>
      </trkpt>
      <trkpt lat="37.180915" lon="-8.887849">
        <ele>90.096</ele>
        <time>2018-12-28T12:37:14Z</time>
      </trkpt>
      <trkpt lat="37.180981" lon="-8.887848">
        <ele>87.692</ele>
        <time>2018-12-28T12:37:20Z</time>
      </trkpt>
      <trkpt lat="37.181075" lon="-8.887874">
        <ele>87.123</ele>
        <time>2018-12-28T12:37:27Z</time>
      </trkpt>
      <trkpt lat="37.181132" lon="-8.887969">
        <ele>87.171</ele>
        <time>2018-12-28T12:37:34Z</time>
      </trkpt>
      <trkpt lat="37.181164" lon="-8.888073">
        <ele>85.647</ele>
        <time>2018-12-28T12:37:41Z</time>
      </trkpt>
      <trkpt lat="37.181179" lon="-8.888136">
        <ele>85.222</ele>
        <time>2018-12-28T12:37:45Z</time>
      </trkpt>
      <trkpt lat="37.181248" lon="-8.888355">
        <ele>81.362</ele>
        <time>2018-12-28T12:38:00Z</time>
      </trkpt>
      <trkpt lat="37.181309" lon="-8.888463">
        <ele>79.908</ele>
        <time>2018-12-28T12:38:07Z</time>
      </trkpt>
      <trkpt lat="37.181369" lon="-8.888545">
        <ele>78.408</ele>
        <time>2018-12-28T12:38:13Z</time>
      </trkpt>
      <trkpt lat="37.181489" lon="-8.888688">
        <ele>76.065</ele>
        <time>2018-12-28T12:38:26Z</time>
      </trkpt>
      <trkpt lat="37.181592" lon="-8.888745">
        <ele>77.063</ele>
        <time>2018-12-28T12:38:41Z</time>
      </trkpt>
      <trkpt lat="37.181601" lon="-8.888772">
        <ele>76.550</ele>
        <time>2018-12-28T12:38:46Z</time>
      </trkpt>
      <trkpt lat="37.181635" lon="-8.888821">
        <ele>76.075</ele>
        <time>2018-12-28T12:38:50Z</time>
      </trkpt>
      <trkpt lat="37.181692" lon="-8.888904">
        <ele>76.081</ele>
        <time>2018-12-28T12:38:57Z</time>
      </trkpt>
      <trkpt lat="37.181732" lon="-8.888956">
        <ele>76.042</ele>
        <time>2018-12-28T12:39:01Z</time>
      </trkpt>
      <trkpt lat="37.181798" lon="-8.888983">
        <ele>76.550</ele>
        <time>2018-12-28T12:39:06Z</time>
      </trkpt>
      <trkpt lat="37.181862" lon="-8.888985">
        <ele>77.516</ele>
        <time>2018-12-28T12:39:11Z</time>
      </trkpt>
      <trkpt lat="37.181942" lon="-8.888998">
        <ele>78.425</ele>
        <time>2018-12-28T12:39:17Z</time>
      </trkpt>
      <trkpt lat="37.182012" lon="-8.889011">
        <ele>80.426</ele>
        <time>2018-12-28T12:39:23Z</time>
      </trkpt>
      <trkpt lat="37.182033" lon="-8.889007">
        <ele>80.408</ele>
        <time>2018-12-28T12:39:25Z</time>
      </trkpt>
      <trkpt lat="37.182058" lon="-8.889018">
        <ele>80.808</ele>
        <time>2018-12-28T12:39:27Z</time>
      </trkpt>
      <trkpt lat="37.182079" lon="-8.889017">
        <ele>81.375</ele>
        <time>2018-12-28T12:39:29Z</time>
      </trkpt>
      <trkpt lat="37.182189" lon="-8.889091">
        <ele>82.863</ele>
        <time>2018-12-28T12:39:40Z</time>
      </trkpt>
      <trkpt lat="37.182281" lon="-8.889294">
        <ele>81.840</ele>
        <time>2018-12-28T12:39:55Z</time>
      </trkpt>
      <trkpt lat="37.182331" lon="-8.889453">
        <ele>80.815</ele>
        <time>2018-12-28T12:40:05Z</time>
      </trkpt>
      <trkpt lat="37.182431" lon="-8.889773">
        <ele>78.441</ele>
        <time>2018-12-28T12:40:22Z</time>
      </trkpt>
      <trkpt lat="37.182443" lon="-8.889808">
        <ele>78.492</ele>
        <time>2018-12-28T12:40:25Z</time>
      </trkpt>
      <trkpt lat="37.182479" lon="-8.889873">
        <ele>77.060</ele>
        <time>2018-12-28T12:40:30Z</time>
      </trkpt>
      <trkpt lat="37.182513" lon="-8.889961">
        <ele>76.566</ele>
        <time>2018-12-28T12:40:35Z</time>
      </trkpt>
      <trkpt lat="37.182561" lon="-8.890036">
        <ele>77.516</ele>
        <time>2018-12-28T12:40:40Z</time>
      </trkpt>
      <trkpt lat="37.182684" lon="-8.890177">
        <ele>76.076</ele>
        <time>2018-12-28T12:40:52Z</time>
      </trkpt>
      <trkpt lat="37.182756" lon="-8.890257">
        <ele>75.613</ele>
        <time>2018-12-28T12:40:58Z</time>
      </trkpt>
      <trkpt lat="37.182820" lon="-8.890334">
        <ele>75.108</ele>
        <time>2018-12-28T12:41:04Z</time>
      </trkpt>
      <trkpt lat="37.182838" lon="-8.890352">
        <ele>75.154</ele>
        <time>2018-12-28T12:41:06Z</time>
      </trkpt>
      <trkpt lat="37.182942" lon="-8.890428">
        <ele>74.182</ele>
        <time>2018-12-28T12:41:15Z</time>
      </trkpt>
      <trkpt lat="37.182992" lon="-8.890578">
        <ele>74.669</ele>
        <time>2018-12-28T12:41:25Z</time>
      </trkpt>
      <trkpt lat="37.183062" lon="-8.890665">
        <ele>75.684</ele>
        <time>2018-12-28T12:41:32Z</time>
      </trkpt>
      <trkpt lat="37.183098" lon="-8.890724">
        <ele>75.630</ele>
        <time>2018-12-28T12:41:37Z</time>
      </trkpt>
      <trkpt lat="37.183165" lon="-8.890776">
        <ele>75.111</ele>
        <time>2018-12-28T12:41:43Z</time>
      </trkpt>
      <trkpt lat="37.183196" lon="-8.890806">
        <ele>75.659</ele>
        <time>2018-12-28T12:41:46Z</time>
      </trkpt>
      <trkpt lat="37.183234" lon="-8.890849">
        <ele>75.165</ele>
        <time>2018-12-28T12:41:50Z</time>
      </trkpt>
      <trkpt lat="37.183373" lon="-8.890986">
        <ele>73.691</ele>
        <time>2018-12-28T12:42:04Z</time>
      </trkpt>
      <trkpt lat="37.183411" lon="-8.891029">
        <ele>72.781</ele>
        <time>2018-12-28T12:42:08Z</time>
      </trkpt>
      <trkpt lat="37.183542" lon="-8.891189">
        <ele>71.219</ele>
        <time>2018-12-28T12:42:22Z</time>
      </trkpt>
      <trkpt lat="37.183608" lon="-8.891313">
        <ele>71.208</ele>
        <time>2018-12-28T12:42:32Z</time>
      </trkpt>
      <trkpt lat="37.183693" lon="-8.891534">
        <ele>68.342</ele>
        <time>2018-12-28T12:42:48Z</time>
      </trkpt>
      <trkpt lat="37.183823" lon="-8.891683">
        <ele>65.580</ele>
        <time>2018-12-28T12:43:02Z</time>
      </trkpt>
      <trkpt lat="37.183847" lon="-8.891696">
        <ele>65.047</ele>
        <time>2018-12-28T12:43:04Z</time>
      </trkpt>
      <trkpt lat="37.183908" lon="-8.891734">
        <ele>65.082</ele>
        <time>2018-12-28T12:43:09Z</time>
      </trkpt>
      <trkpt lat="37.184055" lon="-8.891870">
        <ele>62.628</ele>
        <time>2018-12-28T12:43:24Z</time>
      </trkpt>
      <trkpt lat="37.184066" lon="-8.891883">
        <ele>62.139</ele>
        <time>2018-12-28T12:43:25Z</time>
      </trkpt>
      <trkpt lat="37.184084" lon="-8.891917">
        <ele>61.697</ele>
        <time>2018-12-28T12:43:27Z</time>
      </trkpt>
      <trkpt lat="37.184240" lon="-8.892080">
        <ele>59.743</ele>
        <time>2018-12-28T12:43:41Z</time>
      </trkpt>
      <trkpt lat="37.184334" lon="-8.892222">
        <ele>59.273</ele>
        <time>2018-12-28T12:43:53Z</time>
      </trkpt>
      <trkpt lat="37.184374" lon="-8.892410">
        <ele>58.785</ele>
        <time>2018-12-28T12:44:06Z</time>
      </trkpt>
      <trkpt lat="37.184376" lon="-8.892424">
        <ele>59.213</ele>
        <time>2018-12-28T12:44:07Z</time>
      </trkpt>
      <trkpt lat="37.184383" lon="-8.892518">
        <ele>58.708</ele>
        <time>2018-12-28T12:44:13Z</time>
      </trkpt>
      <trkpt lat="37.184382" lon="-8.892543">
        <ele>58.710</ele>
        <time>2018-12-28T12:44:15Z</time>
      </trkpt>
      <trkpt lat="37.184391" lon="-8.892598">
        <ele>58.758</ele>
        <time>2018-12-28T12:44:19Z</time>
      </trkpt>
      <trkpt lat="37.184382" lon="-8.892645">
        <ele>58.345</ele>
        <time>2018-12-28T12:44:22Z</time>
      </trkpt>
      <trkpt lat="37.184373" lon="-8.892809">
        <ele>58.330</ele>
        <time>2018-12-28T12:44:36Z</time>
      </trkpt>
      <trkpt lat="37.184372" lon="-8.892865">
        <ele>58.316</ele>
        <time>2018-12-28T12:44:51Z</time>
      </trkpt>
      <trkpt lat="37.184369" lon="-8.892872">
        <ele>58.377</ele>
        <time>2018-12-28T12:45:11Z</time>
      </trkpt>
      <trkpt lat="37.184367" lon="-8.892868">
        <ele>58.745</ele>
        <time>2018-12-28T12:45:34Z</time>
      </trkpt>
      <trkpt lat="37.184367" lon="-8.892868">
        <ele>58.781</ele>
        <time>2018-12-28T12:45:35Z</time>
      </trkpt>
      <trkpt lat="37.184335" lon="-8.892879">
        <ele>58.338</ele>
        <time>2018-12-28T12:45:40Z</time>
      </trkpt>
      <trkpt lat="37.184276" lon="-8.893011">
        <ele>59.270</ele>
        <time>2018-12-28T12:45:51Z</time>
      </trkpt>
      <trkpt lat="37.184184" lon="-8.893135">
        <ele>57.317</ele>
        <time>2018-12-28T12:46:04Z</time>
      </trkpt>
      <trkpt lat="37.184177" lon="-8.893147">
        <ele>57.308</ele>
        <time>2018-12-28T12:46:05Z</time>
      </trkpt>
      <trkpt lat="37.184157" lon="-8.893178">
        <ele>57.326</ele>
        <time>2018-12-28T12:46:08Z</time>
      </trkpt>
      <trkpt lat="37.184121" lon="-8.893305">
        <ele>55.874</ele>
        <time>2018-12-28T12:46:23Z</time>
      </trkpt>
      <trkpt lat="37.184084" lon="-8.893357">
        <ele>54.921</ele>
        <time>2018-12-28T12:46:38Z</time>
      </trkpt>
      <trkpt lat="37.184081" lon="-8.893360">
        <ele>54.996</ele>
        <time>2018-12-28T12:46:55Z</time>
      </trkpt>
      <trkpt lat="37.184076" lon="-8.893418">
        <ele>53.032</ele>
        <time>2018-12-28T12:47:11Z</time>
      </trkpt>
      <trkpt lat="37.184076" lon="-8.893418">
        <ele>53.473</ele>
        <time>2018-12-28T12:47:12Z</time>
      </trkpt>
      <trkpt lat="37.184062" lon="-8.893442">
        <ele>53.471</ele>
        <time>2018-12-28T12:47:17Z</time>
      </trkpt>
      <trkpt lat="37.184020" lon="-8.893495">
        <ele>53.937</ele>
        <time>2018-12-28T12:47:29Z</time>
      </trkpt>
      <trkpt lat="37.184021" lon="-8.893489">
        <ele>53.476</ele>
        <time>2018-12-28T12:47:47Z</time>
      </trkpt>
      <trkpt lat="37.184030" lon="-8.893496">
        <ele>53.990</ele>
        <time>2018-12-28T12:47:59Z</time>
      </trkpt>
      <trkpt lat="37.184072" lon="-8.893490">
        <ele>53.419</ele>
        <time>2018-12-28T12:48:08Z</time>
      </trkpt>
      <trkpt lat="37.184072" lon="-8.893590">
        <ele>51.508</ele>
        <time>2018-12-28T12:48:22Z</time>
      </trkpt>
      <trkpt lat="37.184039" lon="-8.893614">
        <ele>52.060</ele>
        <time>2018-12-28T12:48:36Z</time>
      </trkpt>
      <trkpt lat="37.184011" lon="-8.893704">
        <ele>51.548</ele>
        <time>2018-12-28T12:48:49Z</time>
      </trkpt>
      <trkpt lat="37.184037" lon="-8.893758">
        <ele>50.645</ele>
        <time>2018-12-28T12:49:03Z</time>
      </trkpt>
      <trkpt lat="37.184056" lon="-8.893791">
        <ele>49.650</ele>
        <time>2018-12-28T12:49:08Z</time>
      </trkpt>
      <trkpt lat="37.184009" lon="-8.893842">
        <ele>48.696</ele>
        <time>2018-12-28T12:49:13Z</time>
      </trkpt>
      <trkpt lat="37.184015" lon="-8.893849">
        <ele>48.217</ele>
        <time>2018-12-28T12:49:21Z</time>
      </trkpt>
      <trkpt lat="37.184012" lon="-8.893877">
        <ele>48.295</ele>
        <time>2018-12-28T12:49:23Z</time>
      </trkpt>
      <trkpt lat="37.184030" lon="-8.893910">
        <ele>47.761</ele>
        <time>2018-12-28T12:49:26Z</time>
      </trkpt>
      <trkpt lat="37.184125" lon="-8.894051">
        <ele>47.236</ele>
        <time>2018-12-28T12:49:41Z</time>
      </trkpt>
      <trkpt lat="37.184109" lon="-8.894091">
        <ele>46.217</ele>
        <time>2018-12-28T12:49:47Z</time>
      </trkpt>
      <trkpt lat="37.184095" lon="-8.894104">
        <ele>45.818</ele>
        <time>2018-12-28T12:49:49Z</time>
      </trkpt>
      <trkpt lat="37.184062" lon="-8.894135">
        <ele>44.808</ele>
        <time>2018-12-28T12:49:54Z</time>
      </trkpt>
      <trkpt lat="37.184044" lon="-8.894163">
        <ele>44.376</ele>
        <time>2018-12-28T12:49:57Z</time>
      </trkpt>
      <trkpt lat="37.183969" lon="-8.894228">
        <ele>42.924</ele>
        <time>2018-12-28T12:50:13Z</time>
      </trkpt>
      <trkpt lat="37.183897" lon="-8.894269">
        <ele>40.951</ele>
        <time>2018-12-28T12:50:26Z</time>
      </trkpt>
      <trkpt lat="37.183845" lon="-8.894374">
        <ele>39.066</ele>
        <time>2018-12-28T12:50:40Z</time>
      </trkpt>
      <trkpt lat="37.183784" lon="-8.894465">
        <ele>37.132</ele>
        <time>2018-12-28T12:50:51Z</time>
      </trkpt>
      <trkpt lat="37.183731" lon="-8.894553">
        <ele>34.733</ele>
        <time>2018-12-28T12:51:02Z</time>
      </trkpt>
      <trkpt lat="37.183692" lon="-8.894585">
        <ele>33.761</ele>
        <time>2018-12-28T12:51:09Z</time>
      </trkpt>
      <trkpt lat="37.183674" lon="-8.894610">
        <ele>33.797</ele>
        <time>2018-12-28T12:51:12Z</time>
      </trkpt>
      <trkpt lat="37.183617" lon="-8.894742">
        <ele>31.332</ele>
        <time>2018-12-28T12:51:26Z</time>
      </trkpt>
      <trkpt lat="37.183606" lon="-8.894761">
        <ele>30.992</ele>
        <time>2018-12-28T12:51:34Z</time>
      </trkpt>
      <trkpt lat="37.183581" lon="-8.894782">
        <ele>30.411</ele>
        <time>2018-12-28T12:51:37Z</time>
      </trkpt>
      <trkpt lat="37.183529" lon="-8.894881">
        <ele>29.908</ele>
        <time>2018-12-28T12:51:51Z</time>
      </trkpt>
      <trkpt lat="37.183573" lon="-8.894918">
        <ele>30.936</ele>
        <time>2018-12-28T12:52:15Z</time>
      </trkpt>
      <trkpt lat="37.183590" lon="-8.894927">
        <ele>30.934</ele>
        <time>2018-12-28T12:52:31Z</time>
      </trkpt>
      <trkpt lat="37.183592" lon="-8.894929">
        <ele>30.951</ele>
        <time>2018-12-28T12:52:55Z</time>
      </trkpt>
      <trkpt lat="37.183636" lon="-8.894893">
        <ele>30.426</ele>
        <time>2018-12-28T12:53:10Z</time>
      </trkpt>
      <trkpt lat="37.183586" lon="-8.894885">
        <ele>30.912</ele>
        <time>2018-12-28T12:53:28Z</time>
      </trkpt>
      <trkpt lat="37.183586" lon="-8.894871">
        <ele>30.923</ele>
        <time>2018-12-28T12:53:51Z</time>
      </trkpt>
      <trkpt lat="37.183631" lon="-8.894855">
        <ele>30.991</ele>
        <time>2018-12-28T12:54:11Z</time>
      </trkpt>
      <trkpt lat="37.183633" lon="-8.894844">
        <ele>30.927</ele>
        <time>2018-12-28T12:54:33Z</time>
      </trkpt>
      <trkpt lat="37.183630" lon="-8.894848">
        <ele>31.322</ele>
        <time>2018-12-28T12:54:58Z</time>
      </trkpt>
      <trkpt lat="37.183630" lon="-8.894848">
        <ele>31.362</ele>
        <time>2018-12-28T12:55:25Z</time>
      </trkpt>
      <trkpt lat="37.183586" lon="-8.894812">
        <ele>30.908</ele>
        <time>2018-12-28T12:55:45Z</time>
      </trkpt>
      <trkpt lat="37.183590" lon="-8.894829">
        <ele>30.908</ele>
        <time>2018-12-28T12:56:16Z</time>
      </trkpt>
      <trkpt lat="37.183582" lon="-8.894993">
        <ele>30.425</ele>
        <time>2018-12-28T12:56:29Z</time>
      </trkpt>
      <trkpt lat="37.183579" lon="-8.895015">
        <ele>29.923</ele>
        <time>2018-12-28T12:56:41Z</time>
      </trkpt>
      <trkpt lat="37.183575" lon="-8.895006">
        <ele>30.460</ele>
        <time>2018-12-28T12:56:55Z</time>
      </trkpt>
      <trkpt lat="37.183579" lon="-8.895000">
        <ele>30.425</ele>
        <time>2018-12-28T12:57:08Z</time>
      </trkpt>
      <trkpt lat="37.183579" lon="-8.895000">
        <ele>30.451</ele>
        <time>2018-12-28T12:57:35Z</time>
      </trkpt>
      <trkpt lat="37.183579" lon="-8.894998">
        <ele>30.982</ele>
        <time>2018-12-28T12:57:57Z</time>
      </trkpt>
      <trkpt lat="37.183579" lon="-8.894998">
        <ele>30.480</ele>
        <time>2018-12-28T12:58:22Z</time>
      </trkpt>
      <trkpt lat="37.183580" lon="-8.894999">
        <ele>30.916</ele>
        <time>2018-12-28T12:58:53Z</time>
      </trkpt>
      <trkpt lat="37.183580" lon="-8.894998">
        <ele>30.981</ele>
        <time>2018-12-28T12:59:26Z</time>
      </trkpt>
      <trkpt lat="37.183580" lon="-8.894999">
        <ele>30.961</ele>
        <time>2018-12-28T12:59:58Z</time>
      </trkpt>
      <trkpt lat="37.183581" lon="-8.895000">
        <ele>31.317</ele>
        <time>2018-12-28T13:00:30Z</time>
      </trkpt>
      <trkpt lat="37.183581" lon="-8.895000">
        <ele>30.908</ele>
        <time>2018-12-28T13:01:01Z</time>
      </trkpt>
      <trkpt lat="37.183581" lon="-8.895000">
        <ele>31.361</ele>
        <time>2018-12-28T13:01:34Z</time>
      </trkpt>
      <trkpt lat="37.183582" lon="-8.895001">
        <ele>31.899</ele>
        <time>2018-12-28T13:02:05Z</time>
      </trkpt>
      <trkpt lat="37.183582" lon="-8.895004">
        <ele>31.896</ele>
        <time>2018-12-28T13:02:32Z</time>
      </trkpt>
      <trkpt lat="37.183582" lon="-8.895004">
        <ele>31.841</ele>
        <time>2018-12-28T13:03:00Z</time>
      </trkpt>
      <trkpt lat="37.183583" lon="-8.895004">
        <ele>31.817</ele>
        <time>2018-12-28T13:03:31Z</time>
      </trkpt>
      <trkpt lat="37.183583" lon="-8.895006">
        <ele>31.358</ele>
        <time>2018-12-28T13:03:58Z</time>
      </trkpt>
      <trkpt lat="37.183582" lon="-8.895006">
        <ele>31.866</ele>
        <time>2018-12-28T13:04:28Z</time>
      </trkpt>
      <trkpt lat="37.183582" lon="-8.895006">
        <ele>32.312</ele>
        <time>2018-12-28T13:04:59Z</time>
      </trkpt>
      <trkpt lat="37.183585" lon="-8.895002">
        <ele>32.333</ele>
        <time>2018-12-28T13:05:30Z</time>
      </trkpt>
      <trkpt lat="37.183585" lon="-8.894998">
        <ele>32.323</ele>
        <time>2018-12-28T13:05:59Z</time>
      </trkpt>
      <trkpt lat="37.183589" lon="-8.895000">
        <ele>32.315</ele>
        <time>2018-12-28T13:06:29Z</time>
      </trkpt>
      <trkpt lat="37.183589" lon="-8.895000">
        <ele>32.308</ele>
        <time>2018-12-28T13:07:02Z</time>
      </trkpt>
      <trkpt lat="37.183590" lon="-8.895005">
        <ele>32.856</ele>
        <time>2018-12-28T13:07:27Z</time>
      </trkpt>
      <trkpt lat="37.183591" lon="-8.895004">
        <ele>32.824</ele>
        <time>2018-12-28T13:07:59Z</time>
      </trkpt>
      <trkpt lat="37.183592" lon="-8.895008">
        <ele>32.391</ele>
        <time>2018-12-28T13:08:25Z</time>
      </trkpt>
      <trkpt lat="37.183592" lon="-8.895008">
        <ele>32.816</ele>
        <time>2018-12-28T13:08:57Z</time>
      </trkpt>
      <trkpt lat="37.183592" lon="-8.895013">
        <ele>32.832</ele>
        <time>2018-12-28T13:09:21Z</time>
      </trkpt>
      <trkpt lat="37.183592" lon="-8.895017">
        <ele>33.333</ele>
        <time>2018-12-28T13:09:46Z</time>
      </trkpt>
      <trkpt lat="37.183592" lon="-8.895017">
        <ele>32.881</ele>
        <time>2018-12-28T13:10:19Z</time>
      </trkpt>
      <trkpt lat="37.183593" lon="-8.895019">
        <ele>32.817</ele>
        <time>2018-12-28T13:10:47Z</time>
      </trkpt>
      <trkpt lat="37.183595" lon="-8.895027">
        <ele>33.772</ele>
        <time>2018-12-28T13:11:16Z</time>
      </trkpt>
      <trkpt lat="37.183563" lon="-8.895005">
        <ele>33.313</ele>
        <time>2018-12-28T13:11:29Z</time>
      </trkpt>
      <trkpt lat="37.183530" lon="-8.895015">
        <ele>32.814</ele>
        <time>2018-12-28T13:11:32Z</time>
      </trkpt>
      <trkpt lat="37.183522" lon="-8.895036">
        <ele>33.308</ele>
        <time>2018-12-28T13:11:45Z</time>
      </trkpt>
      <trkpt lat="37.183506" lon="-8.895042">
        <ele>32.860</ele>
        <time>2018-12-28T13:12:04Z</time>
      </trkpt>
      <trkpt lat="37.183558" lon="-8.894983">
        <ele>32.818</ele>
        <time>2018-12-28T13:12:09Z</time>
      </trkpt>
      <trkpt lat="37.183566" lon="-8.894986">
        <ele>32.835</ele>
        <time>2018-12-28T13:12:11Z</time>
      </trkpt>
      <trkpt lat="37.183541" lon="-8.894956">
        <ele>32.860</ele>
        <time>2018-12-28T13:12:15Z</time>
      </trkpt>
      <trkpt lat="37.183481" lon="-8.894942">
        <ele>33.316</ele>
        <time>2018-12-28T13:12:22Z</time>
      </trkpt>
      <trkpt lat="37.183407" lon="-8.894987">
        <ele>32.837</ele>
        <time>2018-12-28T13:12:31Z</time>
      </trkpt>
      <trkpt lat="37.183309" lon="-8.895052">
        <ele>32.325</ele>
        <time>2018-12-28T13:12:43Z</time>
      </trkpt>
      <trkpt lat="37.183288" lon="-8.895066">
        <ele>32.871</ele>
        <time>2018-12-28T13:12:58Z</time>
      </trkpt>
      <trkpt lat="37.183313" lon="-8.895064">
        <ele>32.373</ele>
        <time>2018-12-28T13:13:08Z</time>
      </trkpt>
      <trkpt lat="37.183353" lon="-8.895090">
        <ele>31.885</ele>
        <time>2018-12-28T13:13:23Z</time>
      </trkpt>
      <trkpt lat="37.183345" lon="-8.895073">
        <ele>32.313</ele>
        <time>2018-12-28T13:13:25Z</time>
      </trkpt>
      <trkpt lat="37.183374" lon="-8.895056">
        <ele>32.308</ele>
        <time>2018-12-28T13:13:30Z</time>
      </trkpt>
      <trkpt lat="37.183376" lon="-8.894970">
        <ele>32.360</ele>
        <time>2018-12-28T13:13:40Z</time>
      </trkpt>
      <trkpt lat="37.183431" lon="-8.894921">
        <ele>31.848</ele>
        <time>2018-12-28T13:13:45Z</time>
      </trkpt>
      <trkpt lat="37.183453" lon="-8.894866">
        <ele>32.395</ele>
        <time>2018-12-28T13:13:52Z</time>
      </trkpt>
      <trkpt lat="37.183496" lon="-8.894824">
        <ele>32.810</ele>
        <time>2018-12-28T13:14:02Z</time>
      </trkpt>
      <trkpt lat="37.183506" lon="-8.894843">
        <ele>32.396</ele>
        <time>2018-12-28T13:14:13Z</time>
      </trkpt>
      <trkpt lat="37.183516" lon="-8.894924">
        <ele>32.347</ele>
        <time>2018-12-28T13:14:23Z</time>
      </trkpt>
      <trkpt lat="37.183534" lon="-8.894983">
        <ele>32.825</ele>
        <time>2018-12-28T13:14:29Z</time>
      </trkpt>
      <trkpt lat="37.183560" lon="-8.895115">
        <ele>32.841</ele>
        <time>2018-12-28T13:14:41Z</time>
      </trkpt>
      <trkpt lat="37.183582" lon="-8.895203">
        <ele>32.338</ele>
        <time>2018-12-28T13:14:55Z</time>
      </trkpt>
      <trkpt lat="37.183584" lon="-8.895145">
        <ele>32.870</ele>
        <time>2018-12-28T13:15:05Z</time>
      </trkpt>
      <trkpt lat="37.183584" lon="-8.895145">
        <ele>33.317</ele>
        <time>2018-12-28T13:15:19Z</time>
      </trkpt>
      <trkpt lat="37.183572" lon="-8.895148">
        <ele>32.308</ele>
        <time>2018-12-28T13:15:30Z</time>
      </trkpt>
      <trkpt lat="37.183576" lon="-8.895133">
        <ele>32.386</ele>
        <time>2018-12-28T13:15:32Z</time>
      </trkpt>
      <trkpt lat="37.183615" lon="-8.895101">
        <ele>33.364</ele>
        <time>2018-12-28T13:15:43Z</time>
      </trkpt>
      <trkpt lat="37.183593" lon="-8.895035">
        <ele>32.871</ele>
        <time>2018-12-28T13:15:52Z</time>
      </trkpt>
      <trkpt lat="37.183599" lon="-8.894982">
        <ele>32.846</ele>
        <time>2018-12-28T13:16:04Z</time>
      </trkpt>
      <trkpt lat="37.183599" lon="-8.894982">
        <ele>32.852</ele>
        <time>2018-12-28T13:16:31Z</time>
      </trkpt>
      <trkpt lat="37.183604" lon="-8.894982">
        <ele>32.313</ele>
        <time>2018-12-28T13:16:59Z</time>
      </trkpt>
      <trkpt lat="37.183601" lon="-8.894983">
        <ele>32.821</ele>
        <time>2018-12-28T13:17:29Z</time>
      </trkpt>
      <trkpt lat="37.183601" lon="-8.894983">
        <ele>32.387</ele>
        <time>2018-12-28T13:17:59Z</time>
      </trkpt>
      <trkpt lat="37.183580" lon="-8.894929">
        <ele>32.883</ele>
        <time>2018-12-28T13:18:10Z</time>
      </trkpt>
      <trkpt lat="37.183575" lon="-8.894878">
        <ele>32.825</ele>
        <time>2018-12-28T13:18:15Z</time>
      </trkpt>
      <trkpt lat="37.183563" lon="-8.894852">
        <ele>32.817</ele>
        <time>2018-12-28T13:18:27Z</time>
      </trkpt>
      <trkpt lat="37.183538" lon="-8.894809">
        <ele>32.308</ele>
        <time>2018-12-28T13:18:40Z</time>
      </trkpt>
      <trkpt lat="37.183527" lon="-8.894806">
        <ele>32.361</ele>
        <time>2018-12-28T13:18:41Z</time>
      </trkpt>
      <trkpt lat="37.183442" lon="-8.894783">
        <ele>33.349</ele>
        <time>2018-12-28T13:18:55Z</time>
      </trkpt>
      <trkpt lat="37.183446" lon="-8.894835">
        <ele>33.376</ele>
        <time>2018-12-28T13:18:58Z</time>
      </trkpt>
      <trkpt lat="37.183379" lon="-8.894962">
        <ele>33.341</ele>
        <time>2018-12-28T13:19:13Z</time>
      </trkpt>
      <trkpt lat="37.183360" lon="-8.894938">
        <ele>32.877</ele>
        <time>2018-12-28T13:19:20Z</time>
      </trkpt>
      <trkpt lat="37.183368" lon="-8.894908">
        <ele>33.398</ele>
        <time>2018-12-28T13:19:22Z</time>
      </trkpt>
      <trkpt lat="37.183449" lon="-8.894508">
        <ele>32.856</ele>
        <time>2018-12-28T13:19:50Z</time>
      </trkpt>
      <trkpt lat="37.183462" lon="-8.894848">
        <ele>32.852</ele>
        <time>2018-12-28T13:24:45Z</time>
      </trkpt>
      <trkpt lat="37.183507" lon="-8.894640">
        <ele>32.822</ele>
        <time>2018-12-28T13:25:05Z</time>
      </trkpt>
      <trkpt lat="37.183565" lon="-8.894873">
        <ele>31.862</ele>
        <time>2018-12-28T13:25:16Z</time>
      </trkpt>
      <trkpt lat="37.183579" lon="-8.894993">
        <ele>32.308</ele>
        <time>2018-12-28T13:25:29Z</time>
      </trkpt>
      <trkpt lat="37.183574" lon="-8.894992">
        <ele>32.308</ele>
        <time>2018-12-28T13:25:46Z</time>
      </trkpt>
      <trkpt lat="37.183615" lon="-8.894971">
        <ele>31.875</ele>
        <time>2018-12-28T13:26:02Z</time>
      </trkpt>
      <trkpt lat="37.183593" lon="-8.894973">
        <ele>31.813</ele>
        <time>2018-12-28T13:26:19Z</time>
      </trkpt>
      <trkpt lat="37.183589" lon="-8.894995">
        <ele>32.330</ele>
        <time>2018-12-28T13:26:40Z</time>
      </trkpt>
      <trkpt lat="37.183594" lon="-8.894973">
        <ele>31.835</ele>
        <time>2018-12-28T13:27:01Z</time>
      </trkpt>
      <trkpt lat="37.183571" lon="-8.894970">
        <ele>32.321</ele>
        <time>2018-12-28T13:27:18Z</time>
      </trkpt>
      <trkpt lat="37.183580" lon="-8.894983">
        <ele>32.372</ele>
        <time>2018-12-28T13:27:31Z</time>
      </trkpt>
      <trkpt lat="37.183577" lon="-8.894987">
        <ele>31.840</ele>
        <time>2018-12-28T13:27:44Z</time>
      </trkpt>
      <trkpt lat="37.183577" lon="-8.894987">
        <ele>31.826</ele>
        <time>2018-12-28T13:28:09Z</time>
      </trkpt>
      <trkpt lat="37.183577" lon="-8.894986">
        <ele>31.861</ele>
        <time>2018-12-28T13:28:27Z</time>
      </trkpt>
      <trkpt lat="37.183577" lon="-8.894986">
        <ele>32.321</ele>
        <time>2018-12-28T13:28:50Z</time>
      </trkpt>
      <trkpt lat="37.183583" lon="-8.894983">
        <ele>31.313</ele>
        <time>2018-12-28T13:29:08Z</time>
      </trkpt>
      <trkpt lat="37.183585" lon="-8.894984">
        <ele>31.808</ele>
        <time>2018-12-28T13:29:29Z</time>
      </trkpt>
      <trkpt lat="37.183585" lon="-8.894984">
        <ele>31.829</ele>
        <time>2018-12-28T13:29:50Z</time>
      </trkpt>
      <trkpt lat="37.183579" lon="-8.894984">
        <ele>32.347</ele>
        <time>2018-12-28T13:30:10Z</time>
      </trkpt>
      <trkpt lat="37.183563" lon="-8.894973">
        <ele>31.864</ele>
        <time>2018-12-28T13:30:13Z</time>
      </trkpt>
      <trkpt lat="37.183547" lon="-8.894960">
        <ele>31.859</ele>
        <time>2018-12-28T13:30:26Z</time>
      </trkpt>
      <trkpt lat="37.183557" lon="-8.894978">
        <ele>31.895</ele>
        <time>2018-12-28T13:30:39Z</time>
      </trkpt>
      <trkpt lat="37.183557" lon="-8.894978">
        <ele>31.896</ele>
        <time>2018-12-28T13:31:00Z</time>
      </trkpt>
      <trkpt lat="37.183577" lon="-8.895017">
        <ele>31.364</ele>
        <time>2018-12-28T13:31:06Z</time>
      </trkpt>
      <trkpt lat="37.183598" lon="-8.895068">
        <ele>31.850</ele>
        <time>2018-12-28T13:31:17Z</time>
      </trkpt>
      <trkpt lat="37.183602" lon="-8.895073">
        <ele>31.854</ele>
        <time>2018-12-28T13:31:18Z</time>
      </trkpt>
      <trkpt lat="37.183600" lon="-8.895161">
        <ele>31.856</ele>
        <time>2018-12-28T13:31:27Z</time>
      </trkpt>
      <trkpt lat="37.183586" lon="-8.895185">
        <ele>31.811</ele>
        <time>2018-12-28T13:31:29Z</time>
      </trkpt>
      <trkpt lat="37.183579" lon="-8.895207">
        <ele>31.808</ele>
        <time>2018-12-28T13:31:31Z</time>
      </trkpt>
      <trkpt lat="37.183555" lon="-8.895277">
        <ele>31.878</ele>
        <time>2018-12-28T13:31:44Z</time>
      </trkpt>
      <trkpt lat="37.183562" lon="-8.895318">
        <ele>32.866</ele>
        <time>2018-12-28T13:31:55Z</time>
      </trkpt>
      <trkpt lat="37.183564" lon="-8.895323">
        <ele>32.873</ele>
        <time>2018-12-28T13:32:13Z</time>
      </trkpt>
      <trkpt lat="37.183564" lon="-8.895323">
        <ele>33.388</ele>
        <time>2018-12-28T13:32:31Z</time>
      </trkpt>
      <trkpt lat="37.183560" lon="-8.895325">
        <ele>32.824</ele>
        <time>2018-12-28T13:32:52Z</time>
      </trkpt>
      <trkpt lat="37.183560" lon="-8.895325">
        <ele>32.865</ele>
        <time>2018-12-28T13:33:11Z</time>
      </trkpt>
      <trkpt lat="37.183559" lon="-8.895328">
        <ele>32.393</ele>
        <time>2018-12-28T13:33:37Z</time>
      </trkpt>
      <trkpt lat="37.183559" lon="-8.895328">
        <ele>32.899</ele>
        <time>2018-12-28T13:33:57Z</time>
      </trkpt>
      <trkpt lat="37.183560" lon="-8.895324">
        <ele>33.331</ele>
        <time>2018-12-28T13:34:15Z</time>
      </trkpt>
      <trkpt lat="37.183560" lon="-8.895324">
        <ele>34.261</ele>
        <time>2018-12-28T13:34:24Z</time>
      </trkpt>
      <trkpt lat="37.183560" lon="-8.895324">
        <ele>32.807</ele>
        <time>2018-12-28T13:34:26Z</time>
      </trkpt>
      <trkpt lat="37.183560" lon="-8.895324">
        <ele>32.808</ele>
        <time>2018-12-28T13:34:45Z</time>
      </trkpt>
      <trkpt lat="37.183564" lon="-8.895330">
        <ele>32.336</ele>
        <time>2018-12-28T13:35:06Z</time>
      </trkpt>
      <trkpt lat="37.183589" lon="-8.895343">
        <ele>32.364</ele>
        <time>2018-12-28T13:35:29Z</time>
      </trkpt>
      <trkpt lat="37.183597" lon="-8.895339">
        <ele>31.821</ele>
        <time>2018-12-28T13:35:42Z</time>
      </trkpt>
      <trkpt lat="37.183600" lon="-8.895344">
        <ele>31.856</ele>
        <time>2018-12-28T13:35:47Z</time>
      </trkpt>
      <trkpt lat="37.183634" lon="-8.895353">
        <ele>31.832</ele>
        <time>2018-12-28T13:35:50Z</time>
      </trkpt>
      <trkpt lat="37.183675" lon="-8.895354">
        <ele>32.363</ele>
        <time>2018-12-28T13:35:54Z</time>
      </trkpt>
      <trkpt lat="37.183667" lon="-8.895367">
        <ele>32.821</ele>
        <time>2018-12-28T13:36:00Z</time>
      </trkpt>
      <trkpt lat="37.183668" lon="-8.895530">
        <ele>33.777</ele>
        <time>2018-12-28T13:36:11Z</time>
      </trkpt>
      <trkpt lat="37.183679" lon="-8.895568">
        <ele>33.391</ele>
        <time>2018-12-28T13:36:14Z</time>
      </trkpt>
      <trkpt lat="37.183814" lon="-8.895656">
        <ele>33.781</ele>
        <time>2018-12-28T13:36:25Z</time>
      </trkpt>
      <trkpt lat="37.183835" lon="-8.895667">
        <ele>34.719</ele>
        <time>2018-12-28T13:36:28Z</time>
      </trkpt>
      <trkpt lat="37.183877" lon="-8.895684">
        <ele>34.708</ele>
        <time>2018-12-28T13:36:32Z</time>
      </trkpt>
      <trkpt lat="37.184009" lon="-8.895724">
        <ele>35.212</ele>
        <time>2018-12-28T13:36:42Z</time>
      </trkpt>
      <trkpt lat="37.184027" lon="-8.895741">
        <ele>34.750</ele>
        <time>2018-12-28T13:36:44Z</time>
      </trkpt>
      <trkpt lat="37.184124" lon="-8.895805">
        <ele>35.767</ele>
        <time>2018-12-28T13:36:51Z</time>
      </trkpt>
      <trkpt lat="37.184162" lon="-8.895820">
        <ele>35.212</ele>
        <time>2018-12-28T13:36:54Z</time>
      </trkpt>
      <trkpt lat="37.184248" lon="-8.895835">
        <ele>35.238</ele>
        <time>2018-12-28T13:37:01Z</time>
      </trkpt>
      <trkpt lat="37.184378" lon="-8.895889">
        <ele>35.759</ele>
        <time>2018-12-28T13:37:13Z</time>
      </trkpt>
      <trkpt lat="37.184477" lon="-8.895852">
        <ele>34.797</ele>
        <time>2018-12-28T13:37:20Z</time>
      </trkpt>
      <trkpt lat="37.184607" lon="-8.895810">
        <ele>34.273</ele>
        <time>2018-12-28T13:37:32Z</time>
      </trkpt>
      <trkpt lat="37.184703" lon="-8.895764">
        <ele>33.758</ele>
        <time>2018-12-28T13:37:40Z</time>
      </trkpt>
      <trkpt lat="37.184838" lon="-8.895657">
        <ele>33.352</ele>
        <time>2018-12-28T13:37:51Z</time>
      </trkpt>
      <trkpt lat="37.184890" lon="-8.895608">
        <ele>33.317</ele>
        <time>2018-12-28T13:37:56Z</time>
      </trkpt>
      <trkpt lat="37.184946" lon="-8.895571">
        <ele>31.308</ele>
        <time>2018-12-28T13:38:02Z</time>
      </trkpt>
      <trkpt lat="37.184974" lon="-8.895555">
        <ele>31.348</ele>
        <time>2018-12-28T13:38:17Z</time>
      </trkpt>
      <trkpt lat="37.184979" lon="-8.895551">
        <ele>31.866</ele>
        <time>2018-12-28T13:38:21Z</time>
      </trkpt>
      <trkpt lat="37.185036" lon="-8.895466">
        <ele>31.323</ele>
        <time>2018-12-28T13:38:32Z</time>
      </trkpt>
      <trkpt lat="37.185123" lon="-8.895377">
        <ele>30.418</ele>
        <time>2018-12-28T13:38:41Z</time>
      </trkpt>
      <trkpt lat="37.185227" lon="-8.895227">
        <ele>29.434</ele>
        <time>2018-12-28T13:38:55Z</time>
      </trkpt>
      <trkpt lat="37.185345" lon="-8.895083">
        <ele>28.535</ele>
        <time>2018-12-28T13:39:08Z</time>
      </trkpt>
      <trkpt lat="37.185366" lon="-8.895055">
        <ele>28.013</ele>
        <time>2018-12-28T13:39:11Z</time>
      </trkpt>
      <trkpt lat="37.185491" lon="-8.894915">
        <ele>27.099</ele>
        <time>2018-12-28T13:39:26Z</time>
      </trkpt>
      <trkpt lat="37.185575" lon="-8.894801">
        <ele>26.062</ele>
        <time>2018-12-28T13:39:36Z</time>
      </trkpt>
      <trkpt lat="37.185604" lon="-8.894741">
        <ele>26.083</ele>
        <time>2018-12-28T13:39:48Z</time>
      </trkpt>
      <trkpt lat="37.185604" lon="-8.894741">
        <ele>25.111</ele>
        <time>2018-12-28T13:39:50Z</time>
      </trkpt>
      <trkpt lat="37.185619" lon="-8.894726">
        <ele>25.608</ele>
        <time>2018-12-28T13:39:52Z</time>
      </trkpt>
      <trkpt lat="37.185667" lon="-8.894677">
        <ele>26.559</ele>
        <time>2018-12-28T13:39:57Z</time>
      </trkpt>
      <trkpt lat="37.185774" lon="-8.894553">
        <ele>24.667</ele>
        <time>2018-12-28T13:40:09Z</time>
      </trkpt>
      <trkpt lat="37.185834" lon="-8.894495">
        <ele>24.654</ele>
        <time>2018-12-28T13:40:15Z</time>
      </trkpt>
      <trkpt lat="37.185867" lon="-8.894447">
        <ele>24.629</ele>
        <time>2018-12-28T13:40:20Z</time>
      </trkpt>
      <trkpt lat="37.185977" lon="-8.894304">
        <ele>23.615</ele>
        <time>2018-12-28T13:40:34Z</time>
      </trkpt>
      <trkpt lat="37.186077" lon="-8.894136">
        <ele>22.236</ele>
        <time>2018-12-28T13:40:47Z</time>
      </trkpt>
      <trkpt lat="37.186222" lon="-8.893967">
        <ele>20.864</ele>
        <time>2018-12-28T13:41:03Z</time>
      </trkpt>
      <trkpt lat="37.186328" lon="-8.893815">
        <ele>20.320</ele>
        <time>2018-12-28T13:41:17Z</time>
      </trkpt>
      <trkpt lat="37.186491" lon="-8.893625">
        <ele>20.375</ele>
        <time>2018-12-28T13:41:34Z</time>
      </trkpt>
      <trkpt lat="37.186636" lon="-8.893442">
        <ele>19.828</ele>
        <time>2018-12-28T13:41:50Z</time>
      </trkpt>
      <trkpt lat="37.186681" lon="-8.893382">
        <ele>18.820</ele>
        <time>2018-12-28T13:41:55Z</time>
      </trkpt>
      <trkpt lat="37.186692" lon="-8.893343">
        <ele>19.308</ele>
        <time>2018-12-28T13:41:58Z</time>
      </trkpt>
      <trkpt lat="37.186720" lon="-8.893304">
        <ele>19.390</ele>
        <time>2018-12-28T13:42:09Z</time>
      </trkpt>
      <trkpt lat="37.186865" lon="-8.893146">
        <ele>19.398</ele>
        <time>2018-12-28T13:42:24Z</time>
      </trkpt>
      <trkpt lat="37.186969" lon="-8.893015">
        <ele>19.375</ele>
        <time>2018-12-28T13:42:37Z</time>
      </trkpt>
      <trkpt lat="37.187006" lon="-8.892964">
        <ele>19.830</ele>
        <time>2018-12-28T13:42:42Z</time>
      </trkpt>
      <trkpt lat="37.187057" lon="-8.892837">
        <ele>20.846</ele>
        <time>2018-12-28T13:42:53Z</time>
      </trkpt>
      <trkpt lat="37.187077" lon="-8.892802">
        <ele>19.397</ele>
        <time>2018-12-28T13:42:56Z</time>
      </trkpt>
      <trkpt lat="37.187166" lon="-8.892721">
        <ele>19.325</ele>
        <time>2018-12-28T13:43:08Z</time>
      </trkpt>
      <trkpt lat="37.187166" lon="-8.892721">
        <ele>19.321</ele>
        <time>2018-12-28T13:43:09Z</time>
      </trkpt>
      <trkpt lat="37.187190" lon="-8.892723">
        <ele>19.321</ele>
        <time>2018-12-28T13:43:18Z</time>
      </trkpt>
      <trkpt lat="37.187199" lon="-8.892685">
        <ele>18.841</ele>
        <time>2018-12-28T13:43:28Z</time>
      </trkpt>
      <trkpt lat="37.187214" lon="-8.892652">
        <ele>19.305</ele>
        <time>2018-12-28T13:43:31Z</time>
      </trkpt>
      <trkpt lat="37.187225" lon="-8.892633">
        <ele>20.808</ele>
        <time>2018-12-28T13:43:43Z</time>
      </trkpt>
      <trkpt lat="37.187225" lon="-8.892633">
        <ele>20.375</ele>
        <time>2018-12-28T13:43:47Z</time>
      </trkpt>
      <trkpt lat="37.187244" lon="-8.892617">
        <ele>18.423</ele>
        <time>2018-12-28T13:43:49Z</time>
      </trkpt>
      <trkpt lat="37.187283" lon="-8.892572">
        <ele>18.870</ele>
        <time>2018-12-28T13:43:53Z</time>
      </trkpt>
      <trkpt lat="37.187424" lon="-8.892411">
        <ele>19.335</ele>
        <time>2018-12-28T13:44:06Z</time>
      </trkpt>
      <trkpt lat="37.187489" lon="-8.892318">
        <ele>19.341</ele>
        <time>2018-12-28T13:44:18Z</time>
      </trkpt>
      <trkpt lat="37.187632" lon="-8.892146">
        <ele>19.882</ele>
        <time>2018-12-28T13:44:33Z</time>
      </trkpt>
      <trkpt lat="37.187778" lon="-8.891974">
        <ele>18.880</ele>
        <time>2018-12-28T13:44:49Z</time>
      </trkpt>
      <trkpt lat="37.187842" lon="-8.891871">
        <ele>19.856</ele>
        <time>2018-12-28T13:45:01Z</time>
      </trkpt>
      <trkpt lat="37.187848" lon="-8.891866">
        <ele>19.831</ele>
        <time>2018-12-28T13:45:02Z</time>
      </trkpt>
      <trkpt lat="37.187955" lon="-8.891699">
        <ele>19.361</ele>
        <time>2018-12-28T13:45:16Z</time>
      </trkpt>
      <trkpt lat="37.188046" lon="-8.891580">
        <ele>19.807</ele>
        <time>2018-12-28T13:45:27Z</time>
      </trkpt>
      <trkpt lat="37.188131" lon="-8.891469">
        <ele>19.808</ele>
        <time>2018-12-28T13:45:37Z</time>
      </trkpt>
      <trkpt lat="37.188272" lon="-8.891330">
        <ele>20.316</ele>
        <time>2018-12-28T13:45:49Z</time>
      </trkpt>
      <trkpt lat="37.188366" lon="-8.891219">
        <ele>19.824</ele>
        <time>2018-12-28T13:45:59Z</time>
      </trkpt>
      <trkpt lat="37.188451" lon="-8.891097">
        <ele>19.341</ele>
        <time>2018-12-28T13:46:09Z</time>
      </trkpt>
      <trkpt lat="37.188483" lon="-8.891011">
        <ele>20.326</ele>
        <time>2018-12-28T13:46:15Z</time>
      </trkpt>
      <trkpt lat="37.188546" lon="-8.890914">
        <ele>20.312</ele>
        <time>2018-12-28T13:46:22Z</time>
      </trkpt>
      <trkpt lat="37.188569" lon="-8.890878">
        <ele>20.323</ele>
        <time>2018-12-28T13:46:25Z</time>
      </trkpt>
      <trkpt lat="37.188678" lon="-8.890737">
        <ele>20.891</ele>
        <time>2018-12-28T13:46:38Z</time>
      </trkpt>
      <trkpt lat="37.188831" lon="-8.890642">
        <ele>20.317</ele>
        <time>2018-12-28T13:46:49Z</time>
      </trkpt>
      <trkpt lat="37.188998" lon="-8.890570">
        <ele>20.333</ele>
        <time>2018-12-28T13:47:02Z</time>
      </trkpt>
      <trkpt lat="37.189171" lon="-8.890503">
        <ele>20.823</ele>
        <time>2018-12-28T13:47:15Z</time>
      </trkpt>
      <trkpt lat="37.189340" lon="-8.890444">
        <ele>20.315</ele>
        <time>2018-12-28T13:47:27Z</time>
      </trkpt>
      <trkpt lat="37.189427" lon="-8.890447">
        <ele>18.808</ele>
        <time>2018-12-28T13:47:34Z</time>
      </trkpt>
      <trkpt lat="37.189453" lon="-8.890430">
        <ele>19.376</ele>
        <time>2018-12-28T13:47:36Z</time>
      </trkpt>
      <trkpt lat="37.189553" lon="-8.890417">
        <ele>19.834</ele>
        <time>2018-12-28T13:47:43Z</time>
      </trkpt>
      <trkpt lat="37.189659" lon="-8.890418">
        <ele>18.871</ele>
        <time>2018-12-28T13:47:51Z</time>
      </trkpt>
      <trkpt lat="37.189674" lon="-8.890414">
        <ele>19.326</ele>
        <time>2018-12-28T13:47:52Z</time>
      </trkpt>
      <trkpt lat="37.189795" lon="-8.890400">
        <ele>19.352</ele>
        <time>2018-12-28T13:48:00Z</time>
      </trkpt>
      <trkpt lat="37.189947" lon="-8.890341">
        <ele>19.333</ele>
        <time>2018-12-28T13:48:11Z</time>
      </trkpt>
      <trkpt lat="37.189979" lon="-8.890336">
        <ele>19.381</ele>
        <time>2018-12-28T13:48:13Z</time>
      </trkpt>
      <trkpt lat="37.190117" lon="-8.890319">
        <ele>19.357</ele>
        <time>2018-12-28T13:48:23Z</time>
      </trkpt>
      <trkpt lat="37.190164" lon="-8.890331">
        <ele>18.816</ele>
        <time>2018-12-28T13:48:26Z</time>
      </trkpt>
      <trkpt lat="37.190251" lon="-8.890306">
        <ele>19.376</ele>
        <time>2018-12-28T13:48:33Z</time>
      </trkpt>
      <trkpt lat="37.190303" lon="-8.890290">
        <ele>19.813</ele>
        <time>2018-12-28T13:48:37Z</time>
      </trkpt>
      <trkpt lat="37.190415" lon="-8.890285">
        <ele>19.308</ele>
        <time>2018-12-28T13:48:45Z</time>
      </trkpt>
      <trkpt lat="37.190542" lon="-8.890256">
        <ele>20.364</ele>
        <time>2018-12-28T13:48:53Z</time>
      </trkpt>
      <trkpt lat="37.190616" lon="-8.890241">
        <ele>18.842</ele>
        <time>2018-12-28T13:48:59Z</time>
      </trkpt>
      <trkpt lat="37.190775" lon="-8.890227">
        <ele>19.859</ele>
        <time>2018-12-28T13:49:11Z</time>
      </trkpt>
      <trkpt lat="37.190790" lon="-8.890224">
        <ele>19.884</ele>
        <time>2018-12-28T13:49:12Z</time>
      </trkpt>
      <trkpt lat="37.190945" lon="-8.890195">
        <ele>19.870</ele>
        <time>2018-12-28T13:49:23Z</time>
      </trkpt>
      <trkpt lat="37.191097" lon="-8.890137">
        <ele>19.821</ele>
        <time>2018-12-28T13:49:34Z</time>
      </trkpt>
      <trkpt lat="37.191231" lon="-8.890113">
        <ele>18.879</ele>
        <time>2018-12-28T13:49:44Z</time>
      </trkpt>
      <trkpt lat="37.191295" lon="-8.890112">
        <ele>17.955</ele>
        <time>2018-12-28T13:49:48Z</time>
      </trkpt>
      <trkpt lat="37.191442" lon="-8.890084">
        <ele>18.846</ele>
        <time>2018-12-28T13:50:00Z</time>
      </trkpt>
      <trkpt lat="37.191471" lon="-8.890080">
        <ele>19.388</ele>
        <time>2018-12-28T13:50:02Z</time>
      </trkpt>
      <trkpt lat="37.191540" lon="-8.890058">
        <ele>18.816</ele>
        <time>2018-12-28T13:50:07Z</time>
      </trkpt>
      <trkpt lat="37.191601" lon="-8.890064">
        <ele>18.808</ele>
        <time>2018-12-28T13:50:11Z</time>
      </trkpt>
      <trkpt lat="37.191746" lon="-8.890027">
        <ele>19.367</ele>
        <time>2018-12-28T13:50:22Z</time>
      </trkpt>
      <trkpt lat="37.191906" lon="-8.889996">
        <ele>19.325</ele>
        <time>2018-12-28T13:50:33Z</time>
      </trkpt>
      <trkpt lat="37.192005" lon="-8.889983">
        <ele>19.822</ele>
        <time>2018-12-28T13:50:41Z</time>
      </trkpt>
      <trkpt lat="37.192102" lon="-8.889955">
        <ele>19.337</ele>
        <time>2018-12-28T13:50:48Z</time>
      </trkpt>
      <trkpt lat="37.192163" lon="-8.889956">
        <ele>18.813</ele>
        <time>2018-12-28T13:50:53Z</time>
      </trkpt>
      <trkpt lat="37.192250" lon="-8.889941">
        <ele>19.394</ele>
        <time>2018-12-28T13:50:59Z</time>
      </trkpt>
      <trkpt lat="37.192280" lon="-8.889935">
        <ele>17.912</ele>
        <time>2018-12-28T13:51:01Z</time>
      </trkpt>
      <trkpt lat="37.192395" lon="-8.889910">
        <ele>19.398</ele>
        <time>2018-12-28T13:51:10Z</time>
      </trkpt>
      <trkpt lat="37.192589" lon="-8.889876">
        <ele>18.834</ele>
        <time>2018-12-28T13:51:25Z</time>
      </trkpt>
      <trkpt lat="37.192616" lon="-8.889870">
        <ele>18.855</ele>
        <time>2018-12-28T13:51:27Z</time>
      </trkpt>
      <trkpt lat="37.192682" lon="-8.889855">
        <ele>18.810</ele>
        <time>2018-12-28T13:51:32Z</time>
      </trkpt>
      <trkpt lat="37.192724" lon="-8.889840">
        <ele>19.308</ele>
        <time>2018-12-28T13:51:35Z</time>
      </trkpt>
      <trkpt lat="37.192765" lon="-8.889782">
        <ele>19.376</ele>
        <time>2018-12-28T13:51:48Z</time>
      </trkpt>
      <trkpt lat="37.192759" lon="-8.889770">
        <ele>19.324</ele>
        <time>2018-12-28T13:51:50Z</time>
      </trkpt>
      <trkpt lat="37.192745" lon="-8.889759">
        <ele>19.831</ele>
        <time>2018-12-28T13:51:52Z</time>
      </trkpt>
      <trkpt lat="37.192704" lon="-8.889724">
        <ele>19.866</ele>
        <time>2018-12-28T13:51:57Z</time>
      </trkpt>
      <trkpt lat="37.192621" lon="-8.889683">
        <ele>20.392</ele>
        <time>2018-12-28T13:52:10Z</time>
      </trkpt>
      <trkpt lat="37.192601" lon="-8.889645">
        <ele>20.393</ele>
        <time>2018-12-28T13:52:19Z</time>
      </trkpt>
      <trkpt lat="37.192580" lon="-8.889622">
        <ele>20.861</ele>
        <time>2018-12-28T13:52:22Z</time>
      </trkpt>
      <trkpt lat="37.192568" lon="-8.889602">
        <ele>20.397</ele>
        <time>2018-12-28T13:52:24Z</time>
      </trkpt>
      <trkpt lat="37.192553" lon="-8.889591">
        <ele>20.393</ele>
        <time>2018-12-28T13:52:26Z</time>
      </trkpt>
      <trkpt lat="37.192508" lon="-8.889534">
        <ele>20.865</ele>
        <time>2018-12-28T13:52:38Z</time>
      </trkpt>
      <trkpt lat="37.192471" lon="-8.889477">
        <ele>21.221</ele>
        <time>2018-12-28T13:52:51Z</time>
      </trkpt>
      <trkpt lat="37.192456" lon="-8.889461">
        <ele>21.208</ele>
        <time>2018-12-28T13:52:53Z</time>
      </trkpt>
      <trkpt lat="37.192438" lon="-8.889445">
        <ele>21.772</ele>
        <time>2018-12-28T13:52:55Z</time>
      </trkpt>
      <trkpt lat="37.192423" lon="-8.889433">
        <ele>21.750</ele>
        <time>2018-12-28T13:52:57Z</time>
      </trkpt>
      <trkpt lat="37.192394" lon="-8.889408">
        <ele>22.247</ele>
        <time>2018-12-28T13:53:09Z</time>
      </trkpt>
      <trkpt lat="37.192394" lon="-8.889408">
        <ele>22.212</ele>
        <time>2018-12-28T13:53:23Z</time>
      </trkpt>
      <trkpt lat="37.192361" lon="-8.889378">
        <ele>22.258</ele>
        <time>2018-12-28T13:53:28Z</time>
      </trkpt>
      <trkpt lat="37.192309" lon="-8.889323">
        <ele>23.279</ele>
        <time>2018-12-28T13:53:35Z</time>
      </trkpt>
      <trkpt lat="37.192292" lon="-8.889302">
        <ele>23.657</ele>
        <time>2018-12-28T13:53:38Z</time>
      </trkpt>
      <trkpt lat="37.192230" lon="-8.889225">
        <ele>25.693</ele>
        <time>2018-12-28T13:53:48Z</time>
      </trkpt>
      <trkpt lat="37.192214" lon="-8.889216">
        <ele>25.674</ele>
        <time>2018-12-28T13:53:50Z</time>
      </trkpt>
      <trkpt lat="37.192198" lon="-8.889204">
        <ele>26.056</ele>
        <time>2018-12-28T13:53:52Z</time>
      </trkpt>
      <trkpt lat="37.192182" lon="-8.889188">
        <ele>26.521</ele>
        <time>2018-12-28T13:53:54Z</time>
      </trkpt>
      <trkpt lat="37.192112" lon="-8.889129">
        <ele>28.008</ele>
        <time>2018-12-28T13:54:02Z</time>
      </trkpt>
      <trkpt lat="37.192089" lon="-8.889090">
        <ele>28.550</ele>
        <time>2018-12-28T13:54:06Z</time>
      </trkpt>
      <trkpt lat="37.192079" lon="-8.889070">
        <ele>28.568</ele>
        <time>2018-12-28T13:54:08Z</time>
      </trkpt>
      <trkpt lat="37.192042" lon="-8.888929">
        <ele>29.925</ele>
        <time>2018-12-28T13:54:19Z</time>
      </trkpt>
      <trkpt lat="37.192018" lon="-8.888791">
        <ele>31.360</ele>
        <time>2018-12-28T13:54:29Z</time>
      </trkpt>
      <trkpt lat="37.191994" lon="-8.888726">
        <ele>31.826</ele>
        <time>2018-12-28T13:54:35Z</time>
      </trkpt>
      <trkpt lat="37.191997" lon="-8.888696">
        <ele>31.857</ele>
        <time>2018-12-28T13:54:37Z</time>
      </trkpt>
      <trkpt lat="37.192013" lon="-8.888509">
        <ele>34.745</ele>
        <time>2018-12-28T13:54:50Z</time>
      </trkpt>
      <trkpt lat="37.191999" lon="-8.888464">
        <ele>34.761</ele>
        <time>2018-12-28T13:54:54Z</time>
      </trkpt>
      <trkpt lat="37.191996" lon="-8.888429">
        <ele>35.299</ele>
        <time>2018-12-28T13:54:57Z</time>
      </trkpt>
      <trkpt lat="37.191999" lon="-8.888384">
        <ele>36.107</ele>
        <time>2018-12-28T13:55:01Z</time>
      </trkpt>
      <trkpt lat="37.191988" lon="-8.888359">
        <ele>36.127</ele>
        <time>2018-12-28T13:55:03Z</time>
      </trkpt>
      <trkpt lat="37.191982" lon="-8.888320">
        <ele>37.608</ele>
        <time>2018-12-28T13:55:06Z</time>
      </trkpt>
      <trkpt lat="37.191999" lon="-8.888276">
        <ele>38.552</ele>
        <time>2018-12-28T13:55:09Z</time>
      </trkpt>
      <trkpt lat="37.192004" lon="-8.888211">
        <ele>39.070</ele>
        <time>2018-12-28T13:55:14Z</time>
      </trkpt>
      <trkpt lat="37.191997" lon="-8.888145">
        <ele>40.097</ele>
        <time>2018-12-28T13:55:19Z</time>
      </trkpt>
      <trkpt lat="37.191991" lon="-8.888118">
        <ele>40.952</ele>
        <time>2018-12-28T13:55:22Z</time>
      </trkpt>
      <trkpt lat="37.191985" lon="-8.888090">
        <ele>40.958</ele>
        <time>2018-12-28T13:55:24Z</time>
      </trkpt>
      <trkpt lat="37.191931" lon="-8.887901">
        <ele>42.499</ele>
        <time>2018-12-28T13:55:38Z</time>
      </trkpt>
      <trkpt lat="37.191922" lon="-8.887852">
        <ele>42.987</ele>
        <time>2018-12-28T13:55:42Z</time>
      </trkpt>
      <trkpt lat="37.191909" lon="-8.887816">
        <ele>43.463</ele>
        <time>2018-12-28T13:55:45Z</time>
      </trkpt>
      <trkpt lat="37.191889" lon="-8.887791">
        <ele>43.826</ele>
        <time>2018-12-28T13:55:47Z</time>
      </trkpt>
      <trkpt lat="37.191863" lon="-8.887711">
        <ele>44.847</ele>
        <time>2018-12-28T13:55:54Z</time>
      </trkpt>
      <trkpt lat="37.191853" lon="-8.887672">
        <ele>45.811</ele>
        <time>2018-12-28T13:55:57Z</time>
      </trkpt>
      <trkpt lat="37.191842" lon="-8.887648">
        <ele>46.708</ele>
        <time>2018-12-28T13:55:59Z</time>
      </trkpt>
      <trkpt lat="37.191836" lon="-8.887586">
        <ele>47.285</ele>
        <time>2018-12-28T13:56:03Z</time>
      </trkpt>
      <trkpt lat="37.191828" lon="-8.887432">
        <ele>49.663</ele>
        <time>2018-12-28T13:56:14Z</time>
      </trkpt>
      <trkpt lat="37.191814" lon="-8.887316">
        <ele>51.060</ele>
        <time>2018-12-28T13:56:22Z</time>
      </trkpt>
      <trkpt lat="37.191803" lon="-8.887206">
        <ele>52.515</ele>
        <time>2018-12-28T13:56:30Z</time>
      </trkpt>
      <trkpt lat="37.191789" lon="-8.887109">
        <ele>53.441</ele>
        <time>2018-12-28T13:56:37Z</time>
      </trkpt>
      <trkpt lat="37.191775" lon="-8.887086">
        <ele>53.912</ele>
        <time>2018-12-28T13:56:39Z</time>
      </trkpt>
      <trkpt lat="37.191773" lon="-8.887058">
        <ele>54.450</ele>
        <time>2018-12-28T13:56:41Z</time>
      </trkpt>
      <trkpt lat="37.191773" lon="-8.887003">
        <ele>55.416</ele>
        <time>2018-12-28T13:56:45Z</time>
      </trkpt>
      <trkpt lat="37.191761" lon="-8.886940">
        <ele>55.866</ele>
        <time>2018-12-28T13:56:50Z</time>
      </trkpt>
      <trkpt lat="37.191749" lon="-8.886813">
        <ele>57.329</ele>
        <time>2018-12-28T13:56:59Z</time>
      </trkpt>
      <trkpt lat="37.191756" lon="-8.886754">
        <ele>58.321</ele>
        <time>2018-12-28T13:57:03Z</time>
      </trkpt>
      <trkpt lat="37.191761" lon="-8.886713">
        <ele>58.708</ele>
        <time>2018-12-28T13:57:06Z</time>
      </trkpt>
      <trkpt lat="37.191756" lon="-8.886628">
        <ele>59.719</ele>
        <time>2018-12-28T13:57:12Z</time>
      </trkpt>
      <trkpt lat="37.191752" lon="-8.886586">
        <ele>60.757</ele>
        <time>2018-12-28T13:57:15Z</time>
      </trkpt>
      <trkpt lat="37.191747" lon="-8.886557">
        <ele>61.134</ele>
        <time>2018-12-28T13:57:17Z</time>
      </trkpt>
      <trkpt lat="37.191736" lon="-8.886473">
        <ele>62.189</ele>
        <time>2018-12-28T13:57:23Z</time>
      </trkpt>
      <trkpt lat="37.191748" lon="-8.886359">
        <ele>63.135</ele>
        <time>2018-12-28T13:57:31Z</time>
      </trkpt>
      <trkpt lat="37.191756" lon="-8.886203">
        <ele>64.556</ele>
        <time>2018-12-28T13:57:42Z</time>
      </trkpt>
      <trkpt lat="37.191753" lon="-8.886177">
        <ele>65.034</ele>
        <time>2018-12-28T13:57:44Z</time>
      </trkpt>
      <trkpt lat="37.191766" lon="-8.886110">
        <ele>65.970</ele>
        <time>2018-12-28T13:57:49Z</time>
      </trkpt>
      <trkpt lat="37.191786" lon="-8.886040">
        <ele>66.925</ele>
        <time>2018-12-28T13:57:54Z</time>
      </trkpt>
      <trkpt lat="37.191790" lon="-8.886005">
        <ele>66.926</ele>
        <time>2018-12-28T13:57:57Z</time>
      </trkpt>
      <trkpt lat="37.191813" lon="-8.885954">
        <ele>68.308</ele>
        <time>2018-12-28T13:58:01Z</time>
      </trkpt>
      <trkpt lat="37.191805" lon="-8.885930">
        <ele>68.308</ele>
        <time>2018-12-28T13:58:03Z</time>
      </trkpt>
      <trkpt lat="37.191808" lon="-8.885893">
        <ele>68.875</ele>
        <time>2018-12-28T13:58:06Z</time>
      </trkpt>
      <trkpt lat="37.191809" lon="-8.885848">
        <ele>69.353</ele>
        <time>2018-12-28T13:58:09Z</time>
      </trkpt>
      <trkpt lat="37.191794" lon="-8.885802">
        <ele>70.330</ele>
        <time>2018-12-28T13:58:13Z</time>
      </trkpt>
      <trkpt lat="37.191720" lon="-8.885721">
        <ele>70.735</ele>
        <time>2018-12-28T13:58:27Z</time>
      </trkpt>
      <trkpt lat="37.191691" lon="-8.885669">
        <ele>70.741</ele>
        <time>2018-12-28T13:58:42Z</time>
      </trkpt>
      <trkpt lat="37.191691" lon="-8.885669">
        <ele>70.362</ele>
        <time>2018-12-28T13:58:51Z</time>
      </trkpt>
      <trkpt lat="37.191680" lon="-8.885641">
        <ele>70.380</ele>
        <time>2018-12-28T13:58:54Z</time>
      </trkpt>
      <trkpt lat="37.191524" lon="-8.885479">
        <ele>69.866</ele>
        <time>2018-12-28T13:59:09Z</time>
      </trkpt>
      <trkpt lat="37.191428" lon="-8.885387">
        <ele>69.895</ele>
        <time>2018-12-28T13:59:21Z</time>
      </trkpt>
      <trkpt lat="37.191422" lon="-8.885383">
        <ele>70.749</ele>
        <time>2018-12-28T13:59:40Z</time>
      </trkpt>
      <trkpt lat="37.191408" lon="-8.885373">
        <ele>70.723</ele>
        <time>2018-12-28T13:59:54Z</time>
      </trkpt>
      <trkpt lat="37.191383" lon="-8.885340">
        <ele>70.708</ele>
        <time>2018-12-28T13:59:58Z</time>
      </trkpt>
      <trkpt lat="37.191358" lon="-8.885312">
        <ele>71.242</ele>
        <time>2018-12-28T14:00:01Z</time>
      </trkpt>
      <trkpt lat="37.191232" lon="-8.885198">
        <ele>71.790</ele>
        <time>2018-12-28T14:00:15Z</time>
      </trkpt>
      <trkpt lat="37.191201" lon="-8.885165">
        <ele>72.297</ele>
        <time>2018-12-28T14:00:19Z</time>
      </trkpt>
      <trkpt lat="37.191086" lon="-8.885054">
        <ele>73.272</ele>
        <time>2018-12-28T14:00:32Z</time>
      </trkpt>
      <trkpt lat="37.190978" lon="-8.884952">
        <ele>74.198</ele>
        <time>2018-12-28T14:00:43Z</time>
      </trkpt>
      <trkpt lat="37.190900" lon="-8.884870">
        <ele>74.639</ele>
        <time>2018-12-28T14:00:51Z</time>
      </trkpt>
      <trkpt lat="37.190854" lon="-8.884837">
        <ele>75.127</ele>
        <time>2018-12-28T14:00:55Z</time>
      </trkpt>
      <trkpt lat="37.190786" lon="-8.884786">
        <ele>76.063</ele>
        <time>2018-12-28T14:01:02Z</time>
      </trkpt>
      <trkpt lat="37.190752" lon="-8.884750">
        <ele>76.021</ele>
        <time>2018-12-28T14:01:06Z</time>
      </trkpt>
      <trkpt lat="37.190643" lon="-8.884649">
        <ele>77.541</ele>
        <time>2018-12-28T14:01:17Z</time>
      </trkpt>
      <trkpt lat="37.190637" lon="-8.884639">
        <ele>77.505</ele>
        <time>2018-12-28T14:01:18Z</time>
      </trkpt>
      <trkpt lat="37.190515" lon="-8.884521">
        <ele>78.408</ele>
        <time>2018-12-28T14:01:30Z</time>
      </trkpt>
      <trkpt lat="37.190482" lon="-8.884495">
        <ele>78.985</ele>
        <time>2018-12-28T14:01:33Z</time>
      </trkpt>
      <trkpt lat="37.190396" lon="-8.884455">
        <ele>79.943</ele>
        <time>2018-12-28T14:01:43Z</time>
      </trkpt>
      <trkpt lat="37.190396" lon="-8.884455">
        <ele>80.450</ele>
        <time>2018-12-28T14:02:02Z</time>
      </trkpt>
      <trkpt lat="37.190400" lon="-8.884450">
        <ele>80.495</ele>
        <time>2018-12-28T14:02:17Z</time>
      </trkpt>
      <trkpt lat="37.190400" lon="-8.884450">
        <ele>79.411</ele>
        <time>2018-12-28T14:02:23Z</time>
      </trkpt>
      <trkpt lat="37.190387" lon="-8.884436">
        <ele>80.852</ele>
        <time>2018-12-28T14:02:26Z</time>
      </trkpt>
      <trkpt lat="37.190353" lon="-8.884397">
        <ele>80.880</ele>
        <time>2018-12-28T14:02:30Z</time>
      </trkpt>
      <trkpt lat="37.190316" lon="-8.884370">
        <ele>81.336</ele>
        <time>2018-12-28T14:02:34Z</time>
      </trkpt>
      <trkpt lat="37.190296" lon="-8.884354">
        <ele>81.343</ele>
        <time>2018-12-28T14:02:36Z</time>
      </trkpt>
      <trkpt lat="37.190259" lon="-8.884316">
        <ele>82.364</ele>
        <time>2018-12-28T14:02:40Z</time>
      </trkpt>
      <trkpt lat="37.190160" lon="-8.884189">
        <ele>84.210</ele>
        <time>2018-12-28T14:02:51Z</time>
      </trkpt>
      <trkpt lat="37.190123" lon="-8.884150">
        <ele>84.708</ele>
        <time>2018-12-28T14:02:55Z</time>
      </trkpt>
      <trkpt lat="37.190089" lon="-8.884068">
        <ele>86.187</ele>
        <time>2018-12-28T14:03:01Z</time>
      </trkpt>
      <trkpt lat="37.190020" lon="-8.883937">
        <ele>87.195</ele>
        <time>2018-12-28T14:03:11Z</time>
      </trkpt>
      <trkpt lat="37.189962" lon="-8.883829">
        <ele>88.522</ele>
        <time>2018-12-28T14:03:19Z</time>
      </trkpt>
      <trkpt lat="37.189939" lon="-8.883788">
        <ele>89.087</ele>
        <time>2018-12-28T14:03:22Z</time>
      </trkpt>
      <trkpt lat="37.189847" lon="-8.883681">
        <ele>90.053</ele>
        <time>2018-12-28T14:03:31Z</time>
      </trkpt>
      <trkpt lat="37.189834" lon="-8.883655">
        <ele>89.534</ele>
        <time>2018-12-28T14:03:33Z</time>
      </trkpt>
      <trkpt lat="37.189766" lon="-8.883562">
        <ele>90.982</ele>
        <time>2018-12-28T14:03:41Z</time>
      </trkpt>
      <trkpt lat="37.189664" lon="-8.883427">
        <ele>91.418</ele>
        <time>2018-12-28T14:03:53Z</time>
      </trkpt>
      <trkpt lat="37.189578" lon="-8.883298">
        <ele>92.437</ele>
        <time>2018-12-28T14:04:04Z</time>
      </trkpt>
      <trkpt lat="37.189465" lon="-8.883120">
        <ele>92.449</ele>
        <time>2018-12-28T14:04:19Z</time>
      </trkpt>
      <trkpt lat="37.189370" lon="-8.883012">
        <ele>91.913</ele>
        <time>2018-12-28T14:04:29Z</time>
      </trkpt>
      <trkpt lat="37.189248" lon="-8.882863">
        <ele>91.908</ele>
        <time>2018-12-28T14:04:43Z</time>
      </trkpt>
      <trkpt lat="37.189187" lon="-8.882768">
        <ele>90.596</ele>
        <time>2018-12-28T14:04:52Z</time>
      </trkpt>
      <trkpt lat="37.189163" lon="-8.882710">
        <ele>90.044</ele>
        <time>2018-12-28T14:04:57Z</time>
      </trkpt>
      <trkpt lat="37.189125" lon="-8.882653">
        <ele>89.051</ele>
        <time>2018-12-28T14:05:13Z</time>
      </trkpt>
      <trkpt lat="37.189118" lon="-8.882638">
        <ele>88.576</ele>
        <time>2018-12-28T14:05:16Z</time>
      </trkpt>
      <trkpt lat="37.189087" lon="-8.882589">
        <ele>88.122</ele>
        <time>2018-12-28T14:05:21Z</time>
      </trkpt>
      <trkpt lat="37.189064" lon="-8.882531">
        <ele>87.133</ele>
        <time>2018-12-28T14:05:28Z</time>
      </trkpt>
      <trkpt lat="37.189055" lon="-8.882486">
        <ele>86.671</ele>
        <time>2018-12-28T14:05:32Z</time>
      </trkpt>
      <trkpt lat="37.189038" lon="-8.882431">
        <ele>85.217</ele>
        <time>2018-12-28T14:05:36Z</time>
      </trkpt>
      <trkpt lat="37.188997" lon="-8.882331">
        <ele>84.778</ele>
        <time>2018-12-28T14:05:48Z</time>
      </trkpt>
      <trkpt lat="37.188997" lon="-8.882331">
        <ele>84.733</ele>
        <time>2018-12-28T14:05:50Z</time>
      </trkpt>
      <trkpt lat="37.188938" lon="-8.882176">
        <ele>83.226</ele>
        <time>2018-12-28T14:06:01Z</time>
      </trkpt>
      <trkpt lat="37.188853" lon="-8.882023">
        <ele>83.208</ele>
        <time>2018-12-28T14:06:12Z</time>
      </trkpt>
      <trkpt lat="37.188836" lon="-8.882000">
        <ele>83.710</ele>
        <time>2018-12-28T14:06:14Z</time>
      </trkpt>
      <trkpt lat="37.188808" lon="-8.881950">
        <ele>84.268</ele>
        <time>2018-12-28T14:06:18Z</time>
      </trkpt>
      <trkpt lat="37.188789" lon="-8.881901">
        <ele>84.265</ele>
        <time>2018-12-28T14:06:22Z</time>
      </trkpt>
      <trkpt lat="37.188781" lon="-8.881860">
        <ele>85.270</ele>
        <time>2018-12-28T14:06:25Z</time>
      </trkpt>
      <trkpt lat="37.188758" lon="-8.881752">
        <ele>84.746</ele>
        <time>2018-12-28T14:06:32Z</time>
      </trkpt>
      <trkpt lat="37.188725" lon="-8.881607">
        <ele>85.287</ele>
        <time>2018-12-28T14:06:41Z</time>
      </trkpt>
      <trkpt lat="37.188700" lon="-8.881547">
        <ele>86.195</ele>
        <time>2018-12-28T14:06:45Z</time>
      </trkpt>
      <trkpt lat="37.188663" lon="-8.881482">
        <ele>87.171</ele>
        <time>2018-12-28T14:06:50Z</time>
      </trkpt>
      <trkpt lat="37.188631" lon="-8.881413">
        <ele>87.632</ele>
        <time>2018-12-28T14:06:55Z</time>
      </trkpt>
      <trkpt lat="37.188589" lon="-8.881367">
        <ele>88.192</ele>
        <time>2018-12-28T14:06:59Z</time>
      </trkpt>
      <trkpt lat="37.188505" lon="-8.881249">
        <ele>89.511</ele>
        <time>2018-12-28T14:07:10Z</time>
      </trkpt>
      <trkpt lat="37.188494" lon="-8.881224">
        <ele>89.508</ele>
        <time>2018-12-28T14:07:12Z</time>
      </trkpt>
      <trkpt lat="37.188468" lon="-8.881115">
        <ele>90.976</ele>
        <time>2018-12-28T14:07:19Z</time>
      </trkpt>
      <trkpt lat="37.188477" lon="-8.881071">
        <ele>91.454</ele>
        <time>2018-12-28T14:07:22Z</time>
      </trkpt>
      <trkpt lat="37.188497" lon="-8.880961">
        <ele>92.921</ele>
        <time>2018-12-28T14:07:29Z</time>
      </trkpt>
      <trkpt lat="37.188487" lon="-8.880938">
        <ele>93.346</ele>
        <time>2018-12-28T14:07:31Z</time>
      </trkpt>
      <trkpt lat="37.188516" lon="-8.880811">
        <ele>95.352</ele>
        <time>2018-12-28T14:07:40Z</time>
      </trkpt>
      <trkpt lat="37.188501" lon="-8.880631">
        <ele>92.943</ele>
        <time>2018-12-28T14:07:54Z</time>
      </trkpt>
      <trkpt lat="37.188494" lon="-8.880490">
        <ele>89.591</ele>
        <time>2018-12-28T14:08:05Z</time>
      </trkpt>
      <trkpt lat="37.188496" lon="-8.880393">
        <ele>88.157</ele>
        <time>2018-12-28T14:08:12Z</time>
      </trkpt>
      <trkpt lat="37.188499" lon="-8.880325">
        <ele>86.187</ele>
        <time>2018-12-28T14:08:17Z</time>
      </trkpt>
      <trkpt lat="37.188507" lon="-8.880229">
        <ele>84.242</ele>
        <time>2018-12-28T14:08:24Z</time>
      </trkpt>
      <trkpt lat="37.188516" lon="-8.880160">
        <ele>83.226</ele>
        <time>2018-12-28T14:08:29Z</time>
      </trkpt>
      <trkpt lat="37.188513" lon="-8.879940">
        <ele>79.408</ele>
        <time>2018-12-28T14:08:43Z</time>
      </trkpt>
      <trkpt lat="37.188508" lon="-8.879906">
        <ele>79.471</ele>
        <time>2018-12-28T14:08:45Z</time>
      </trkpt>
      <trkpt lat="37.188389" lon="-8.879754">
        <ele>78.069</ele>
        <time>2018-12-28T14:08:58Z</time>
      </trkpt>
      <trkpt lat="37.188344" lon="-8.879712">
        <ele>77.526</ele>
        <time>2018-12-28T14:09:03Z</time>
      </trkpt>
      <trkpt lat="37.188214" lon="-8.879580">
        <ele>75.661</ele>
        <time>2018-12-28T14:09:16Z</time>
      </trkpt>
      <trkpt lat="37.188128" lon="-8.879462">
        <ele>74.147</ele>
        <time>2018-12-28T14:09:26Z</time>
      </trkpt>
      <trkpt lat="37.188054" lon="-8.879320">
        <ele>71.758</ele>
        <time>2018-12-28T14:09:37Z</time>
      </trkpt>
      <trkpt lat="37.187980" lon="-8.879185">
        <ele>70.386</ele>
        <time>2018-12-28T14:09:47Z</time>
      </trkpt>
      <trkpt lat="37.187842" lon="-8.879095">
        <ele>69.392</ele>
        <time>2018-12-28T14:09:59Z</time>
      </trkpt>
      <trkpt lat="37.187770" lon="-8.879018">
        <ele>68.399</ele>
        <time>2018-12-28T14:10:08Z</time>
      </trkpt>
      <trkpt lat="37.187766" lon="-8.878996">
        <ele>68.307</ele>
        <time>2018-12-28T14:10:10Z</time>
      </trkpt>
      <trkpt lat="37.187894" lon="-8.878912">
        <ele>65.027</ele>
        <time>2018-12-28T14:10:23Z</time>
      </trkpt>
      <trkpt lat="37.188046" lon="-8.878811">
        <ele>62.608</ele>
        <time>2018-12-28T14:10:38Z</time>
      </trkpt>
      <trkpt lat="37.188138" lon="-8.878702">
        <ele>60.762</ele>
        <time>2018-12-28T14:10:48Z</time>
      </trkpt>
      <trkpt lat="37.188196" lon="-8.878537">
        <ele>60.720</ele>
        <time>2018-12-28T14:11:00Z</time>
      </trkpt>
      <trkpt lat="37.188204" lon="-8.878508">
        <ele>61.197</ele>
        <time>2018-12-28T14:11:02Z</time>
      </trkpt>
      <trkpt lat="37.188177" lon="-8.878343">
        <ele>58.332</ele>
        <time>2018-12-28T14:11:15Z</time>
      </trkpt>
      <trkpt lat="37.188152" lon="-8.878133">
        <ele>55.828</ele>
        <time>2018-12-28T14:11:28Z</time>
      </trkpt>
      <trkpt lat="37.188180" lon="-8.877976">
        <ele>53.449</ele>
        <time>2018-12-28T14:11:38Z</time>
      </trkpt>
      <trkpt lat="37.188179" lon="-8.877776">
        <ele>50.637</ele>
        <time>2018-12-28T14:11:52Z</time>
      </trkpt>
      <trkpt lat="37.188161" lon="-8.877645">
        <ele>47.273</ele>
        <time>2018-12-28T14:12:03Z</time>
      </trkpt>
      <trkpt lat="37.188165" lon="-8.877615">
        <ele>46.794</ele>
        <time>2018-12-28T14:12:05Z</time>
      </trkpt>
      <trkpt lat="37.188169" lon="-8.877587">
        <ele>45.857</ele>
        <time>2018-12-28T14:12:07Z</time>
      </trkpt>
      <trkpt lat="37.188123" lon="-8.877410">
        <ele>43.422</ele>
        <time>2018-12-28T14:12:20Z</time>
      </trkpt>
      <trkpt lat="37.188103" lon="-8.877238">
        <ele>40.508</ele>
        <time>2018-12-28T14:12:33Z</time>
      </trkpt>
      <trkpt lat="37.188145" lon="-8.877049">
        <ele>38.122</ele>
        <time>2018-12-28T14:12:47Z</time>
      </trkpt>
      <trkpt lat="37.188180" lon="-8.876905">
        <ele>36.120</ele>
        <time>2018-12-28T14:12:58Z</time>
      </trkpt>
      <trkpt lat="37.188098" lon="-8.876758">
        <ele>33.737</ele>
        <time>2018-12-28T14:13:11Z</time>
      </trkpt>
      <trkpt lat="37.188039" lon="-8.876688">
        <ele>33.752</ele>
        <time>2018-12-28T14:13:18Z</time>
      </trkpt>
      <trkpt lat="37.187938" lon="-8.876582">
        <ele>33.738</ele>
        <time>2018-12-28T14:13:29Z</time>
      </trkpt>
      <trkpt lat="37.187833" lon="-8.876493">
        <ele>33.749</ele>
        <time>2018-12-28T14:13:40Z</time>
      </trkpt>
      <trkpt lat="37.187802" lon="-8.876466">
        <ele>33.377</ele>
        <time>2018-12-28T14:13:43Z</time>
      </trkpt>
      <trkpt lat="37.187734" lon="-8.876408">
        <ele>33.723</ele>
        <time>2018-12-28T14:13:49Z</time>
      </trkpt>
      <trkpt lat="37.187681" lon="-8.876301">
        <ele>34.281</ele>
        <time>2018-12-28T14:13:59Z</time>
      </trkpt>
      <trkpt lat="37.187666" lon="-8.876273">
        <ele>34.761</ele>
        <time>2018-12-28T14:14:01Z</time>
      </trkpt>
      <trkpt lat="37.187629" lon="-8.876195">
        <ele>35.717</ele>
        <time>2018-12-28T14:14:07Z</time>
      </trkpt>
      <trkpt lat="37.187612" lon="-8.876164">
        <ele>36.608</ele>
        <time>2018-12-28T14:14:10Z</time>
      </trkpt>
      <trkpt lat="37.187599" lon="-8.876139">
        <ele>37.141</ele>
        <time>2018-12-28T14:14:12Z</time>
      </trkpt>
      <trkpt lat="37.187563" lon="-8.876047">
        <ele>37.619</ele>
        <time>2018-12-28T14:14:18Z</time>
      </trkpt>
      <trkpt lat="37.187555" lon="-8.876032">
        <ele>38.176</ele>
        <time>2018-12-28T14:14:19Z</time>
      </trkpt>
      <trkpt lat="37.187528" lon="-8.875867">
        <ele>38.161</ele>
        <time>2018-12-28T14:14:29Z</time>
      </trkpt>
      <trkpt lat="37.187463" lon="-8.875719">
        <ele>39.017</ele>
        <time>2018-12-28T14:14:39Z</time>
      </trkpt>
      <trkpt lat="37.187439" lon="-8.875560">
        <ele>39.588</ele>
        <time>2018-12-28T14:14:50Z</time>
      </trkpt>
      <trkpt lat="37.187442" lon="-8.875514">
        <ele>39.546</ele>
        <time>2018-12-28T14:14:53Z</time>
      </trkpt>
      <trkpt lat="37.187434" lon="-8.875418">
        <ele>40.592</ele>
        <time>2018-12-28T14:14:59Z</time>
      </trkpt>
      <trkpt lat="37.187400" lon="-8.875367">
        <ele>41.982</ele>
        <time>2018-12-28T14:15:03Z</time>
      </trkpt>
      <trkpt lat="37.187382" lon="-8.875297">
        <ele>41.943</ele>
        <time>2018-12-28T14:15:08Z</time>
      </trkpt>
      <trkpt lat="37.187373" lon="-8.875221">
        <ele>41.917</ele>
        <time>2018-12-28T14:15:13Z</time>
      </trkpt>
      <trkpt lat="37.187339" lon="-8.875132">
        <ele>42.908</ele>
        <time>2018-12-28T14:15:19Z</time>
      </trkpt>
      <trkpt lat="37.187301" lon="-8.874983">
        <ele>43.431</ele>
        <time>2018-12-28T14:15:29Z</time>
      </trkpt>
      <trkpt lat="37.187275" lon="-8.874858">
        <ele>43.869</ele>
        <time>2018-12-28T14:15:37Z</time>
      </trkpt>
      <trkpt lat="37.187266" lon="-8.874799">
        <ele>44.366</ele>
        <time>2018-12-28T14:15:41Z</time>
      </trkpt>
      <trkpt lat="37.187246" lon="-8.874642">
        <ele>44.381</ele>
        <time>2018-12-28T14:15:51Z</time>
      </trkpt>
      <trkpt lat="37.187225" lon="-8.874526">
        <ele>44.827</ele>
        <time>2018-12-28T14:15:59Z</time>
      </trkpt>
      <trkpt lat="37.187209" lon="-8.874450">
        <ele>44.878</ele>
        <time>2018-12-28T14:16:04Z</time>
      </trkpt>
      <trkpt lat="37.187146" lon="-8.874339">
        <ele>46.276</ele>
        <time>2018-12-28T14:16:13Z</time>
      </trkpt>
      <trkpt lat="37.187090" lon="-8.874155">
        <ele>46.792</ele>
        <time>2018-12-28T14:16:26Z</time>
      </trkpt>
      <trkpt lat="37.187079" lon="-8.874113">
        <ele>46.231</ele>
        <time>2018-12-28T14:16:29Z</time>
      </trkpt>
      <trkpt lat="37.187069" lon="-8.874001">
        <ele>44.861</ele>
        <time>2018-12-28T14:16:36Z</time>
      </trkpt>
      <trkpt lat="37.187052" lon="-8.873901">
        <ele>43.407</ele>
        <time>2018-12-28T14:16:43Z</time>
      </trkpt>
      <trkpt lat="37.187045" lon="-8.873848">
        <ele>42.908</ele>
        <time>2018-12-28T14:16:47Z</time>
      </trkpt>
      <trkpt lat="37.187024" lon="-8.873604">
        <ele>41.436</ele>
        <time>2018-12-28T14:17:03Z</time>
      </trkpt>
      <trkpt lat="37.187026" lon="-8.873575">
        <ele>40.974</ele>
        <time>2018-12-28T14:17:05Z</time>
      </trkpt>
      <trkpt lat="37.187068" lon="-8.873392">
        <ele>38.551</ele>
        <time>2018-12-28T14:17:18Z</time>
      </trkpt>
      <trkpt lat="37.187072" lon="-8.873337">
        <ele>38.566</ele>
        <time>2018-12-28T14:17:22Z</time>
      </trkpt>
      <trkpt lat="37.187138" lon="-8.873166">
        <ele>39.582</ele>
        <time>2018-12-28T14:17:34Z</time>
      </trkpt>
      <trkpt lat="37.187141" lon="-8.873144">
        <ele>39.523</ele>
        <time>2018-12-28T14:17:36Z</time>
      </trkpt>
      <trkpt lat="37.187173" lon="-8.873098">
        <ele>40.011</ele>
        <time>2018-12-28T14:17:40Z</time>
      </trkpt>
      <trkpt lat="37.187275" lon="-8.872995">
        <ele>41.487</ele>
        <time>2018-12-28T14:17:52Z</time>
      </trkpt>
      <trkpt lat="37.187282" lon="-8.872986">
        <ele>41.446</ele>
        <time>2018-12-28T14:17:55Z</time>
      </trkpt>
      <trkpt lat="37.187315" lon="-8.872923">
        <ele>42.488</ele>
        <time>2018-12-28T14:18:03Z</time>
      </trkpt>
      <trkpt lat="37.187393" lon="-8.872781">
        <ele>43.816</ele>
        <time>2018-12-28T14:18:14Z</time>
      </trkpt>
      <trkpt lat="37.187462" lon="-8.872655">
        <ele>45.308</ele>
        <time>2018-12-28T14:18:24Z</time>
      </trkpt>
      <trkpt lat="37.187499" lon="-8.872528">
        <ele>46.297</ele>
        <time>2018-12-28T14:18:35Z</time>
      </trkpt>
      <trkpt lat="37.187561" lon="-8.872440">
        <ele>46.735</ele>
        <time>2018-12-28T14:18:46Z</time>
      </trkpt>
      <trkpt lat="37.187638" lon="-8.872299">
        <ele>46.722</ele>
        <time>2018-12-28T14:18:58Z</time>
      </trkpt>
      <trkpt lat="37.187653" lon="-8.872275">
        <ele>47.267</ele>
        <time>2018-12-28T14:19:00Z</time>
      </trkpt>
      <trkpt lat="37.187680" lon="-8.872206">
        <ele>47.793</ele>
        <time>2018-12-28T14:19:05Z</time>
      </trkpt>
      <trkpt lat="37.187721" lon="-8.872119">
        <ele>47.744</ele>
        <time>2018-12-28T14:19:11Z</time>
      </trkpt>
      <trkpt lat="37.187814" lon="-8.871959">
        <ele>48.262</ele>
        <time>2018-12-28T14:19:24Z</time>
      </trkpt>
      <trkpt lat="37.187858" lon="-8.871946">
        <ele>47.758</ele>
        <time>2018-12-28T14:19:35Z</time>
      </trkpt>
      <trkpt lat="37.187845" lon="-8.871933">
        <ele>48.238</ele>
        <time>2018-12-28T14:19:37Z</time>
      </trkpt>
      <trkpt lat="37.187870" lon="-8.871813">
        <ele>48.270</ele>
        <time>2018-12-28T14:19:45Z</time>
      </trkpt>
      <trkpt lat="37.187896" lon="-8.871717">
        <ele>48.617</ele>
        <time>2018-12-28T14:19:51Z</time>
      </trkpt>
      <trkpt lat="37.187937" lon="-8.871626">
        <ele>49.108</ele>
        <time>2018-12-28T14:19:57Z</time>
      </trkpt>
      <trkpt lat="37.187978" lon="-8.871495">
        <ele>49.116</ele>
        <time>2018-12-28T14:20:06Z</time>
      </trkpt>
      <trkpt lat="37.188002" lon="-8.871458">
        <ele>49.664</ele>
        <time>2018-12-28T14:20:09Z</time>
      </trkpt>
      <trkpt lat="37.188011" lon="-8.871434">
        <ele>49.131</ele>
        <time>2018-12-28T14:20:11Z</time>
      </trkpt>
      <trkpt lat="37.188042" lon="-8.871326">
        <ele>49.126</ele>
        <time>2018-12-28T14:20:19Z</time>
      </trkpt>
      <trkpt lat="37.188037" lon="-8.871292">
        <ele>48.622</ele>
        <time>2018-12-28T14:20:22Z</time>
      </trkpt>
      <trkpt lat="37.188068" lon="-8.871167">
        <ele>47.273</ele>
        <time>2018-12-28T14:20:32Z</time>
      </trkpt>
      <trkpt lat="37.188075" lon="-8.871145">
        <ele>47.281</ele>
        <time>2018-12-28T14:20:34Z</time>
      </trkpt>
      <trkpt lat="37.188081" lon="-8.871068">
        <ele>47.227</ele>
        <time>2018-12-28T14:20:39Z</time>
      </trkpt>
      <trkpt lat="37.188093" lon="-8.870996">
        <ele>47.791</ele>
        <time>2018-12-28T14:20:50Z</time>
      </trkpt>
      <trkpt lat="37.188089" lon="-8.870929">
        <ele>47.781</ele>
        <time>2018-12-28T14:20:56Z</time>
      </trkpt>
      <trkpt lat="37.188080" lon="-8.870874">
        <ele>48.219</ele>
        <time>2018-12-28T14:21:00Z</time>
      </trkpt>
      <trkpt lat="37.188083" lon="-8.870810">
        <ele>49.108</ele>
        <time>2018-12-28T14:21:04Z</time>
      </trkpt>
      <trkpt lat="37.188067" lon="-8.870738">
        <ele>50.172</ele>
        <time>2018-12-28T14:21:09Z</time>
      </trkpt>
      <trkpt lat="37.188045" lon="-8.870668">
        <ele>50.120</ele>
        <time>2018-12-28T14:21:14Z</time>
      </trkpt>
      <trkpt lat="37.188017" lon="-8.870631">
        <ele>50.187</ele>
        <time>2018-12-28T14:21:17Z</time>
      </trkpt>
      <trkpt lat="37.187984" lon="-8.870577">
        <ele>51.062</ele>
        <time>2018-12-28T14:21:21Z</time>
      </trkpt>
      <trkpt lat="37.187927" lon="-8.870534">
        <ele>51.588</ele>
        <time>2018-12-28T14:21:26Z</time>
      </trkpt>
      <trkpt lat="37.187820" lon="-8.870415">
        <ele>52.049</ele>
        <time>2018-12-28T14:21:37Z</time>
      </trkpt>
      <trkpt lat="37.187768" lon="-8.870351">
        <ele>52.057</ele>
        <time>2018-12-28T14:21:42Z</time>
      </trkpt>
      <trkpt lat="37.187738" lon="-8.870304">
        <ele>52.533</ele>
        <time>2018-12-28T14:21:45Z</time>
      </trkpt>
      <trkpt lat="37.187701" lon="-8.870165">
        <ele>53.055</ele>
        <time>2018-12-28T14:21:54Z</time>
      </trkpt>
      <trkpt lat="37.187643" lon="-8.869998">
        <ele>53.407</ele>
        <time>2018-12-28T14:22:05Z</time>
      </trkpt>
      <trkpt lat="37.187606" lon="-8.869854">
        <ele>52.517</ele>
        <time>2018-12-28T14:22:14Z</time>
      </trkpt>
      <trkpt lat="37.187602" lon="-8.869761">
        <ele>53.008</ele>
        <time>2018-12-28T14:22:20Z</time>
      </trkpt>
      <trkpt lat="37.187538" lon="-8.869644">
        <ele>53.988</ele>
        <time>2018-12-28T14:22:30Z</time>
      </trkpt>
      <trkpt lat="37.187515" lon="-8.869630">
        <ele>53.926</ele>
        <time>2018-12-28T14:22:32Z</time>
      </trkpt>
      <trkpt lat="37.187503" lon="-8.869607">
        <ele>54.413</ele>
        <time>2018-12-28T14:22:34Z</time>
      </trkpt>
      <trkpt lat="37.187411" lon="-8.869489">
        <ele>53.938</ele>
        <time>2018-12-28T14:22:44Z</time>
      </trkpt>
      <trkpt lat="37.187404" lon="-8.869474">
        <ele>53.924</ele>
        <time>2018-12-28T14:22:45Z</time>
      </trkpt>
      <trkpt lat="37.187348" lon="-8.869399">
        <ele>53.945</ele>
        <time>2018-12-28T14:22:51Z</time>
      </trkpt>
      <trkpt lat="37.187262" lon="-8.869232">
        <ele>53.463</ele>
        <time>2018-12-28T14:23:04Z</time>
      </trkpt>
      <trkpt lat="37.187257" lon="-8.869215">
        <ele>53.979</ele>
        <time>2018-12-28T14:23:05Z</time>
      </trkpt>
      <trkpt lat="37.187230" lon="-8.869068">
        <ele>53.979</ele>
        <time>2018-12-28T14:23:15Z</time>
      </trkpt>
      <trkpt lat="37.187204" lon="-8.868883">
        <ele>53.405</ele>
        <time>2018-12-28T14:23:27Z</time>
      </trkpt>
      <trkpt lat="37.187197" lon="-8.868835">
        <ele>53.025</ele>
        <time>2018-12-28T14:23:31Z</time>
      </trkpt>
      <trkpt lat="37.187186" lon="-8.868817">
        <ele>52.508</ele>
        <time>2018-12-28T14:23:33Z</time>
      </trkpt>
      <trkpt lat="37.187184" lon="-8.868758">
        <ele>53.080</ele>
        <time>2018-12-28T14:23:37Z</time>
      </trkpt>
      <trkpt lat="37.187139" lon="-8.868611">
        <ele>52.538</ele>
        <time>2018-12-28T14:23:47Z</time>
      </trkpt>
      <trkpt lat="37.187082" lon="-8.868482">
        <ele>52.565</ele>
        <time>2018-12-28T14:23:57Z</time>
      </trkpt>
      <trkpt lat="37.187016" lon="-8.868399">
        <ele>53.460</ele>
        <time>2018-12-28T14:24:04Z</time>
      </trkpt>
      <trkpt lat="37.186935" lon="-8.868297">
        <ele>55.846</ele>
        <time>2018-12-28T14:24:14Z</time>
      </trkpt>
      <trkpt lat="37.186912" lon="-8.868243">
        <ele>56.327</ele>
        <time>2018-12-28T14:24:18Z</time>
      </trkpt>
      <trkpt lat="37.186824" lon="-8.868112">
        <ele>57.385</ele>
        <time>2018-12-28T14:24:30Z</time>
      </trkpt>
      <trkpt lat="37.186811" lon="-8.868086">
        <ele>57.851</ele>
        <time>2018-12-28T14:24:32Z</time>
      </trkpt>
      <trkpt lat="37.186799" lon="-8.868058">
        <ele>58.362</ele>
        <time>2018-12-28T14:24:34Z</time>
      </trkpt>
      <trkpt lat="37.186780" lon="-8.868019">
        <ele>58.783</ele>
        <time>2018-12-28T14:24:37Z</time>
      </trkpt>
      <trkpt lat="37.186759" lon="-8.867908">
        <ele>58.711</ele>
        <time>2018-12-28T14:24:44Z</time>
      </trkpt>
      <trkpt lat="37.186751" lon="-8.867822">
        <ele>59.208</ele>
        <time>2018-12-28T14:24:50Z</time>
      </trkpt>
      <trkpt lat="37.186739" lon="-8.867758">
        <ele>59.789</ele>
        <time>2018-12-28T14:24:54Z</time>
      </trkpt>
      <trkpt lat="37.186731" lon="-8.867700">
        <ele>60.227</ele>
        <time>2018-12-28T14:24:58Z</time>
      </trkpt>
      <trkpt lat="37.186705" lon="-8.867553">
        <ele>61.154</ele>
        <time>2018-12-28T14:25:08Z</time>
      </trkpt>
      <trkpt lat="37.186702" lon="-8.867538">
        <ele>61.629</ele>
        <time>2018-12-28T14:25:09Z</time>
      </trkpt>
      <trkpt lat="37.186696" lon="-8.867393">
        <ele>63.585</ele>
        <time>2018-12-28T14:25:17Z</time>
      </trkpt>
      <trkpt lat="37.186680" lon="-8.867364">
        <ele>64.046</ele>
        <time>2018-12-28T14:25:19Z</time>
      </trkpt>
      <trkpt lat="37.186676" lon="-8.867339">
        <ele>64.574</ele>
        <time>2018-12-28T14:25:21Z</time>
      </trkpt>
      <trkpt lat="37.186678" lon="-8.867200">
        <ele>66.410</ele>
        <time>2018-12-28T14:25:30Z</time>
      </trkpt>
      <trkpt lat="37.186680" lon="-8.867180">
        <ele>66.429</ele>
        <time>2018-12-28T14:25:31Z</time>
      </trkpt>
      <trkpt lat="37.186671" lon="-8.867102">
        <ele>66.900</ele>
        <time>2018-12-28T14:25:36Z</time>
      </trkpt>
      <trkpt lat="37.186664" lon="-8.867061">
        <ele>67.420</ele>
        <time>2018-12-28T14:25:39Z</time>
      </trkpt>
      <trkpt lat="37.186665" lon="-8.867002">
        <ele>68.308</ele>
        <time>2018-12-28T14:25:43Z</time>
      </trkpt>
      <trkpt lat="37.186683" lon="-8.866947">
        <ele>68.825</ele>
        <time>2018-12-28T14:25:47Z</time>
      </trkpt>
      <trkpt lat="37.186704" lon="-8.866849">
        <ele>70.793</ele>
        <time>2018-12-28T14:25:54Z</time>
      </trkpt>
      <trkpt lat="37.186730" lon="-8.866765">
        <ele>71.220</ele>
        <time>2018-12-28T14:26:01Z</time>
      </trkpt>
      <trkpt lat="37.186800" lon="-8.866669">
        <ele>73.215</ele>
        <time>2018-12-28T14:26:08Z</time>
      </trkpt>
      <trkpt lat="37.186866" lon="-8.866561">
        <ele>74.111</ele>
        <time>2018-12-28T14:26:16Z</time>
      </trkpt>
      <trkpt lat="37.186947" lon="-8.866467">
        <ele>76.572</ele>
        <time>2018-12-28T14:26:27Z</time>
      </trkpt>
      <trkpt lat="37.187052" lon="-8.866395">
        <ele>78.430</ele>
        <time>2018-12-28T14:26:36Z</time>
      </trkpt>
      <trkpt lat="37.187094" lon="-8.866345">
        <ele>78.956</ele>
        <time>2018-12-28T14:26:41Z</time>
      </trkpt>
      <trkpt lat="37.187117" lon="-8.866314">
        <ele>78.998</ele>
        <time>2018-12-28T14:26:44Z</time>
      </trkpt>
      <trkpt lat="37.187150" lon="-8.866282">
        <ele>79.415</ele>
        <time>2018-12-28T14:26:48Z</time>
      </trkpt>
      <trkpt lat="37.187200" lon="-8.866142">
        <ele>81.326</ele>
        <time>2018-12-28T14:26:59Z</time>
      </trkpt>
      <trkpt lat="37.187304" lon="-8.866003">
        <ele>83.208</ele>
        <time>2018-12-28T14:27:11Z</time>
      </trkpt>
      <trkpt lat="37.187424" lon="-8.865871">
        <ele>84.732</ele>
        <time>2018-12-28T14:27:23Z</time>
      </trkpt>
      <trkpt lat="37.187433" lon="-8.865862">
        <ele>85.230</ele>
        <time>2018-12-28T14:27:24Z</time>
      </trkpt>
      <trkpt lat="37.187500" lon="-8.865766">
        <ele>86.117</ele>
        <time>2018-12-28T14:27:32Z</time>
      </trkpt>
      <trkpt lat="37.187567" lon="-8.865658">
        <ele>87.642</ele>
        <time>2018-12-28T14:27:41Z</time>
      </trkpt>
      <trkpt lat="37.187606" lon="-8.865567">
        <ele>89.038</ele>
        <time>2018-12-28T14:27:49Z</time>
      </trkpt>
      <trkpt lat="37.187658" lon="-8.865472">
        <ele>90.079</ele>
        <time>2018-12-28T14:27:56Z</time>
      </trkpt>
      <trkpt lat="37.187738" lon="-8.865376">
        <ele>90.927</ele>
        <time>2018-12-28T14:28:04Z</time>
      </trkpt>
      <trkpt lat="37.187768" lon="-8.865329">
        <ele>91.433</ele>
        <time>2018-12-28T14:28:08Z</time>
      </trkpt>
      <trkpt lat="37.187834" lon="-8.865232">
        <ele>92.487</ele>
        <time>2018-12-28T14:28:16Z</time>
      </trkpt>
      <trkpt lat="37.187876" lon="-8.865174">
        <ele>92.942</ele>
        <time>2018-12-28T14:28:21Z</time>
      </trkpt>
      <trkpt lat="37.187928" lon="-8.865106">
        <ele>93.826</ele>
        <time>2018-12-28T14:28:27Z</time>
      </trkpt>
      <trkpt lat="37.188083" lon="-8.865020">
        <ele>94.808</ele>
        <time>2018-12-28T14:28:41Z</time>
      </trkpt>
      <trkpt lat="37.188220" lon="-8.864966">
        <ele>95.731</ele>
        <time>2018-12-28T14:28:53Z</time>
      </trkpt>
      <trkpt lat="37.188260" lon="-8.864959">
        <ele>96.279</ele>
        <time>2018-12-28T14:28:56Z</time>
      </trkpt>
      <trkpt lat="37.188287" lon="-8.864954">
        <ele>96.266</ele>
        <time>2018-12-28T14:28:58Z</time>
      </trkpt>
      <trkpt lat="37.188344" lon="-8.864909">
        <ele>97.711</ele>
        <time>2018-12-28T14:29:04Z</time>
      </trkpt>
      <trkpt lat="37.188387" lon="-8.864879">
        <ele>98.157</ele>
        <time>2018-12-28T14:29:08Z</time>
      </trkpt>
      <trkpt lat="37.188447" lon="-8.864855">
        <ele>99.138</ele>
        <time>2018-12-28T14:29:13Z</time>
      </trkpt>
      <trkpt lat="37.188476" lon="-8.864833">
        <ele>99.166</ele>
        <time>2018-12-28T14:29:16Z</time>
      </trkpt>
      <trkpt lat="37.188518" lon="-8.864822">
        <ele>100.152</ele>
        <time>2018-12-28T14:29:20Z</time>
      </trkpt>
      <trkpt lat="37.188542" lon="-8.864800">
        <ele>100.649</ele>
        <time>2018-12-28T14:29:23Z</time>
      </trkpt>
      <trkpt lat="37.188654" lon="-8.864693">
        <ele>103.402</ele>
        <time>2018-12-28T14:29:35Z</time>
      </trkpt>
      <trkpt lat="37.188676" lon="-8.864670">
        <ele>103.422</ele>
        <time>2018-12-28T14:29:38Z</time>
      </trkpt>
      <trkpt lat="37.188761" lon="-8.864530">
        <ele>105.808</ele>
        <time>2018-12-28T14:29:51Z</time>
      </trkpt>
      <trkpt lat="37.188784" lon="-8.864512">
        <ele>105.847</ele>
        <time>2018-12-28T14:29:53Z</time>
      </trkpt>
      <trkpt lat="37.188832" lon="-8.864489">
        <ele>105.855</ele>
        <time>2018-12-28T14:30:04Z</time>
      </trkpt>
      <trkpt lat="37.188963" lon="-8.864382">
        <ele>102.042</ele>
        <time>2018-12-28T14:30:17Z</time>
      </trkpt>
      <trkpt lat="37.189040" lon="-8.864271">
        <ele>99.687</ele>
        <time>2018-12-28T14:30:27Z</time>
      </trkpt>
      <trkpt lat="37.189074" lon="-8.864201">
        <ele>98.693</ele>
        <time>2018-12-28T14:30:32Z</time>
      </trkpt>
      <trkpt lat="37.189092" lon="-8.864181">
        <ele>98.174</ele>
        <time>2018-12-28T14:30:34Z</time>
      </trkpt>
      <trkpt lat="37.189177" lon="-8.864087">
        <ele>98.132</ele>
        <time>2018-12-28T14:30:44Z</time>
      </trkpt>
      <trkpt lat="37.189288" lon="-8.864078">
        <ele>100.638</ele>
        <time>2018-12-28T14:30:54Z</time>
      </trkpt>
      <trkpt lat="37.189309" lon="-8.864085">
        <ele>101.061</ele>
        <time>2018-12-28T14:30:56Z</time>
      </trkpt>
      <trkpt lat="37.189339" lon="-8.864089">
        <ele>102.021</ele>
        <time>2018-12-28T14:30:59Z</time>
      </trkpt>
      <trkpt lat="37.189401" lon="-8.864082">
        <ele>103.913</ele>
        <time>2018-12-28T14:31:05Z</time>
      </trkpt>
      <trkpt lat="37.189445" lon="-8.864083">
        <ele>105.408</ele>
        <time>2018-12-28T14:31:10Z</time>
      </trkpt>
      <trkpt lat="37.189473" lon="-8.864082">
        <ele>105.859</ele>
        <time>2018-12-28T14:31:13Z</time>
      </trkpt>
      <trkpt lat="37.189522" lon="-8.864066">
        <ele>107.817</ele>
        <time>2018-12-28T14:31:18Z</time>
      </trkpt>
      <trkpt lat="37.189598" lon="-8.864050">
        <ele>108.794</ele>
        <time>2018-12-28T14:31:26Z</time>
      </trkpt>
      <trkpt lat="37.189665" lon="-8.864007">
        <ele>109.749</ele>
        <time>2018-12-28T14:31:32Z</time>
      </trkpt>
      <trkpt lat="37.189727" lon="-8.863891">
        <ele>110.635</ele>
        <time>2018-12-28T14:31:42Z</time>
      </trkpt>
      <trkpt lat="37.189754" lon="-8.863817">
        <ele>110.636</ele>
        <time>2018-12-28T14:31:47Z</time>
      </trkpt>
      <trkpt lat="37.189794" lon="-8.863673">
        <ele>109.744</ele>
        <time>2018-12-28T14:31:57Z</time>
      </trkpt>
      <trkpt lat="37.189806" lon="-8.863641">
        <ele>109.290</ele>
        <time>2018-12-28T14:31:59Z</time>
      </trkpt>
      <trkpt lat="37.189805" lon="-8.863594">
        <ele>109.283</ele>
        <time>2018-12-28T14:32:02Z</time>
      </trkpt>
      <trkpt lat="37.189814" lon="-8.863515">
        <ele>109.225</ele>
        <time>2018-12-28T14:32:07Z</time>
      </trkpt>
      <trkpt lat="37.189830" lon="-8.863472">
        <ele>108.717</ele>
        <time>2018-12-28T14:32:10Z</time>
      </trkpt>
      <trkpt lat="37.189849" lon="-8.863300">
        <ele>107.808</ele>
        <time>2018-12-28T14:32:21Z</time>
      </trkpt>
      <trkpt lat="37.189873" lon="-8.863181">
        <ele>107.371</ele>
        <time>2018-12-28T14:32:29Z</time>
      </trkpt>
      <trkpt lat="37.189911" lon="-8.863118">
        <ele>107.819</ele>
        <time>2018-12-28T14:32:34Z</time>
      </trkpt>
      <trkpt lat="37.190001" lon="-8.863105">
        <ele>106.886</ele>
        <time>2018-12-28T14:32:45Z</time>
      </trkpt>
      <trkpt lat="37.190157" lon="-8.863097">
        <ele>105.821</ele>
        <time>2018-12-28T14:32:59Z</time>
      </trkpt>
      <trkpt lat="37.190229" lon="-8.863106">
        <ele>106.847</ele>
        <time>2018-12-28T14:33:11Z</time>
      </trkpt>
      <trkpt lat="37.190225" lon="-8.863105">
        <ele>106.378</ele>
        <time>2018-12-28T14:33:27Z</time>
      </trkpt>
      <trkpt lat="37.190226" lon="-8.863105">
        <ele>106.376</ele>
        <time>2018-12-28T14:33:48Z</time>
      </trkpt>
      <trkpt lat="37.190226" lon="-8.863105">
        <ele>106.382</ele>
        <time>2018-12-28T14:34:13Z</time>
      </trkpt>
      <trkpt lat="37.190224" lon="-8.863103">
        <ele>106.339</ele>
        <time>2018-12-28T14:34:34Z</time>
      </trkpt>
      <trkpt lat="37.190224" lon="-8.863103">
        <ele>106.301</ele>
        <time>2018-12-28T14:34:52Z</time>
      </trkpt>
      <trkpt lat="37.190223" lon="-8.863102">
        <ele>105.821</ele>
        <time>2018-12-28T14:35:07Z</time>
      </trkpt>
      <trkpt lat="37.190234" lon="-8.863091">
        <ele>107.308</ele>
        <time>2018-12-28T14:35:22Z</time>
      </trkpt>
      <trkpt lat="37.190241" lon="-8.863089">
        <ele>106.886</ele>
        <time>2018-12-28T14:35:37Z</time>
      </trkpt>
      <trkpt lat="37.190249" lon="-8.863093">
        <ele>106.364</ele>
        <time>2018-12-28T14:35:50Z</time>
      </trkpt>
      <trkpt lat="37.190295" lon="-8.863089">
        <ele>106.881</ele>
        <time>2018-12-28T14:35:56Z</time>
      </trkpt>
      <trkpt lat="37.190313" lon="-8.863078">
        <ele>107.336</ele>
        <time>2018-12-28T14:36:12Z</time>
      </trkpt>
      <trkpt lat="37.190315" lon="-8.863075">
        <ele>107.352</ele>
        <time>2018-12-28T14:36:30Z</time>
      </trkpt>
      <trkpt lat="37.190313" lon="-8.863071">
        <ele>107.393</ele>
        <time>2018-12-28T14:37:01Z</time>
      </trkpt>
      <trkpt lat="37.190315" lon="-8.863075">
        <ele>107.371</ele>
        <time>2018-12-28T14:37:02Z</time>
      </trkpt>
      <trkpt lat="37.190331" lon="-8.863084">
        <ele>106.837</ele>
        <time>2018-12-28T14:37:04Z</time>
      </trkpt>
      <trkpt lat="37.190351" lon="-8.863086">
        <ele>107.312</ele>
        <time>2018-12-28T14:37:06Z</time>
      </trkpt>
      <trkpt lat="37.190473" lon="-8.863153">
        <ele>106.832</ele>
        <time>2018-12-28T14:37:18Z</time>
      </trkpt>
      <trkpt lat="37.190503" lon="-8.863167">
        <ele>107.305</ele>
        <time>2018-12-28T14:37:21Z</time>
      </trkpt>
      <trkpt lat="37.190524" lon="-8.863196">
        <ele>107.808</ele>
        <time>2018-12-28T14:37:24Z</time>
      </trkpt>
      <trkpt lat="37.190570" lon="-8.863234">
        <ele>108.294</ele>
        <time>2018-12-28T14:37:29Z</time>
      </trkpt>
      <trkpt lat="37.190653" lon="-8.863276">
        <ele>108.762</ele>
        <time>2018-12-28T14:37:40Z</time>
      </trkpt>
      <trkpt lat="37.190697" lon="-8.863310">
        <ele>109.239</ele>
        <time>2018-12-28T14:37:44Z</time>
      </trkpt>
      <trkpt lat="37.190834" lon="-8.863404">
        <ele>109.274</ele>
        <time>2018-12-28T14:37:57Z</time>
      </trkpt>
      <trkpt lat="37.190963" lon="-8.863512">
        <ele>107.810</ele>
        <time>2018-12-28T14:38:10Z</time>
      </trkpt>
      <trkpt lat="37.191121" lon="-8.863681">
        <ele>103.951</ele>
        <time>2018-12-28T14:38:27Z</time>
      </trkpt>
      <trkpt lat="37.191194" lon="-8.863767">
        <ele>102.519</ele>
        <time>2018-12-28T14:38:36Z</time>
      </trkpt>
      <trkpt lat="37.191294" lon="-8.863888">
        <ele>100.625</ele>
        <time>2018-12-28T14:38:47Z</time>
      </trkpt>
      <trkpt lat="37.191443" lon="-8.863995">
        <ele>99.632</ele>
        <time>2018-12-28T14:39:02Z</time>
      </trkpt>
      <trkpt lat="37.191477" lon="-8.864017">
        <ele>99.192</ele>
        <time>2018-12-28T14:39:05Z</time>
      </trkpt>
      <trkpt lat="37.191568" lon="-8.864036">
        <ele>98.611</ele>
        <time>2018-12-28T14:39:13Z</time>
      </trkpt>
      <trkpt lat="37.191748" lon="-8.863991">
        <ele>97.708</ele>
        <time>2018-12-28T14:39:28Z</time>
      </trkpt>
      <trkpt lat="37.191897" lon="-8.863997">
        <ele>95.316</ele>
        <time>2018-12-28T14:39:42Z</time>
      </trkpt>
      <trkpt lat="37.192078" lon="-8.863956">
        <ele>91.924</ele>
        <time>2018-12-28T14:39:57Z</time>
      </trkpt>
      <trkpt lat="37.192106" lon="-8.863926">
        <ele>91.431</ele>
        <time>2018-12-28T14:40:00Z</time>
      </trkpt>
      <trkpt lat="37.192159" lon="-8.863821">
        <ele>90.596</ele>
        <time>2018-12-28T14:40:08Z</time>
      </trkpt>
      <trkpt lat="37.192194" lon="-8.863743">
        <ele>88.552</ele>
        <time>2018-12-28T14:40:14Z</time>
      </trkpt>
      <trkpt lat="37.192276" lon="-8.863607">
        <ele>85.623</ele>
        <time>2018-12-28T14:40:25Z</time>
      </trkpt>
      <trkpt lat="37.192451" lon="-8.863608">
        <ele>83.771</ele>
        <time>2018-12-28T14:40:40Z</time>
      </trkpt>
      <trkpt lat="37.192532" lon="-8.863604">
        <ele>81.867</ele>
        <time>2018-12-28T14:40:46Z</time>
      </trkpt>
      <trkpt lat="37.192689" lon="-8.863601">
        <ele>79.957</ele>
        <time>2018-12-28T14:40:58Z</time>
      </trkpt>
      <trkpt lat="37.192830" lon="-8.863605">
        <ele>76.000</ele>
        <time>2018-12-28T14:41:10Z</time>
      </trkpt>
      <trkpt lat="37.192882" lon="-8.863605">
        <ele>74.620</ele>
        <time>2018-12-28T14:41:14Z</time>
      </trkpt>
      <trkpt lat="37.193045" lon="-8.863625">
        <ele>71.708</ele>
        <time>2018-12-28T14:41:26Z</time>
      </trkpt>
      <trkpt lat="37.193225" lon="-8.863599">
        <ele>69.868</ele>
        <time>2018-12-28T14:41:40Z</time>
      </trkpt>
      <trkpt lat="37.193319" lon="-8.863523">
        <ele>67.976</ele>
        <time>2018-12-28T14:41:49Z</time>
      </trkpt>
      <trkpt lat="37.193400" lon="-8.863471">
        <ele>65.973</ele>
        <time>2018-12-28T14:41:56Z</time>
      </trkpt>
      <trkpt lat="37.193547" lon="-8.863322">
        <ele>64.068</ele>
        <time>2018-12-28T14:42:11Z</time>
      </trkpt>
      <trkpt lat="37.193704" lon="-8.863154">
        <ele>60.714</ele>
        <time>2018-12-28T14:42:27Z</time>
      </trkpt>
      <trkpt lat="37.193856" lon="-8.863008">
        <ele>57.825</ele>
        <time>2018-12-28T14:42:41Z</time>
      </trkpt>
      <trkpt lat="37.193911" lon="-8.862962">
        <ele>56.893</ele>
        <time>2018-12-28T14:42:46Z</time>
      </trkpt>
      <trkpt lat="37.194053" lon="-8.862844">
        <ele>53.949</ele>
        <time>2018-12-28T14:42:59Z</time>
      </trkpt>
      <trkpt lat="37.194112" lon="-8.862790">
        <ele>52.561</ele>
        <time>2018-12-28T14:43:05Z</time>
      </trkpt>
      <trkpt lat="37.194269" lon="-8.862667">
        <ele>50.121</ele>
        <time>2018-12-28T14:43:19Z</time>
      </trkpt>
      <trkpt lat="37.194282" lon="-8.862657">
        <ele>49.613</ele>
        <time>2018-12-28T14:43:20Z</time>
      </trkpt>
      <trkpt lat="37.194366" lon="-8.862519">
        <ele>48.608</ele>
        <time>2018-12-28T14:43:31Z</time>
      </trkpt>
      <trkpt lat="37.194385" lon="-8.862484">
        <ele>48.249</ele>
        <time>2018-12-28T14:43:34Z</time>
      </trkpt>
      <trkpt lat="37.194448" lon="-8.862399">
        <ele>46.717</ele>
        <time>2018-12-28T14:43:40Z</time>
      </trkpt>
      <trkpt lat="37.194531" lon="-8.862266">
        <ele>44.894</ele>
        <time>2018-12-28T14:43:50Z</time>
      </trkpt>
      <trkpt lat="37.194562" lon="-8.862210">
        <ele>43.439</ele>
        <time>2018-12-28T14:43:58Z</time>
      </trkpt>
      <trkpt lat="37.194626" lon="-8.862121">
        <ele>41.975</ele>
        <time>2018-12-28T14:44:07Z</time>
      </trkpt>
      <trkpt lat="37.194751" lon="-8.861965">
        <ele>40.586</ele>
        <time>2018-12-28T14:44:23Z</time>
      </trkpt>
      <trkpt lat="37.194848" lon="-8.861841">
        <ele>37.174</ele>
        <time>2018-12-28T14:44:35Z</time>
      </trkpt>
      <trkpt lat="37.194951" lon="-8.861726">
        <ele>35.270</ele>
        <time>2018-12-28T14:44:47Z</time>
      </trkpt>
      <trkpt lat="37.195035" lon="-8.861613">
        <ele>32.896</ele>
        <time>2018-12-28T14:45:01Z</time>
      </trkpt>
      <trkpt lat="37.195035" lon="-8.861613">
        <ele>32.831</ele>
        <time>2018-12-28T14:45:04Z</time>
      </trkpt>
      <trkpt lat="37.195065" lon="-8.861597">
        <ele>32.324</ele>
        <time>2018-12-28T14:45:07Z</time>
      </trkpt>
      <trkpt lat="37.195198" lon="-8.861441">
        <ele>29.908</ele>
        <time>2018-12-28T14:45:21Z</time>
      </trkpt>
      <trkpt lat="37.195272" lon="-8.861428">
        <ele>28.992</ele>
        <time>2018-12-28T14:45:27Z</time>
      </trkpt>
      <trkpt lat="37.195371" lon="-8.861411">
        <ele>28.940</ele>
        <time>2018-12-28T14:45:35Z</time>
      </trkpt>
      <trkpt lat="37.195394" lon="-8.861403">
        <ele>28.577</ele>
        <time>2018-12-28T14:45:37Z</time>
      </trkpt>
      <trkpt lat="37.195426" lon="-8.861408">
        <ele>28.972</ele>
        <time>2018-12-28T14:45:40Z</time>
      </trkpt>
      <trkpt lat="37.195470" lon="-8.861411">
        <ele>28.068</ele>
        <time>2018-12-28T14:45:44Z</time>
      </trkpt>
      <trkpt lat="37.195553" lon="-8.861394">
        <ele>28.069</ele>
        <time>2018-12-28T14:45:51Z</time>
      </trkpt>
      <trkpt lat="37.195613" lon="-8.861403">
        <ele>28.057</ele>
        <time>2018-12-28T14:46:02Z</time>
      </trkpt>
      <trkpt lat="37.195648" lon="-8.861358">
        <ele>27.583</ele>
        <time>2018-12-28T14:46:07Z</time>
      </trkpt>
      <trkpt lat="37.195694" lon="-8.861243">
        <ele>27.092</ele>
        <time>2018-12-28T14:46:20Z</time>
      </trkpt>
      <trkpt lat="37.195730" lon="-8.861213">
        <ele>27.073</ele>
        <time>2018-12-28T14:46:24Z</time>
      </trkpt>
      <trkpt lat="37.195787" lon="-8.861181">
        <ele>26.520</ele>
        <time>2018-12-28T14:46:30Z</time>
      </trkpt>
      <trkpt lat="37.195894" lon="-8.861132">
        <ele>26.508</ele>
        <time>2018-12-28T14:46:41Z</time>
      </trkpt>
      <trkpt lat="37.195951" lon="-8.861059">
        <ele>26.562</ele>
        <time>2018-12-28T14:46:54Z</time>
      </trkpt>
      <trkpt lat="37.196027" lon="-8.861028">
        <ele>26.040</ele>
        <time>2018-12-28T14:47:09Z</time>
      </trkpt>
      <trkpt lat="37.196045" lon="-8.860975">
        <ele>26.557</ele>
        <time>2018-12-28T14:47:22Z</time>
      </trkpt>
      <trkpt lat="37.196047" lon="-8.860976">
        <ele>26.072</ele>
        <time>2018-12-28T14:47:37Z</time>
      </trkpt>
      <trkpt lat="37.196098" lon="-8.860933">
        <ele>26.588</ele>
        <time>2018-12-28T14:47:45Z</time>
      </trkpt>
      <trkpt lat="37.196115" lon="-8.860890">
        <ele>25.679</ele>
        <time>2018-12-28T14:47:50Z</time>
      </trkpt>
      <trkpt lat="37.196141" lon="-8.860832">
        <ele>26.087</ele>
        <time>2018-12-28T14:48:03Z</time>
      </trkpt>
      <trkpt lat="37.196136" lon="-8.860799">
        <ele>26.043</ele>
        <time>2018-12-28T14:48:13Z</time>
      </trkpt>
      <trkpt lat="37.196133" lon="-8.860774">
        <ele>26.056</ele>
        <time>2018-12-28T14:48:15Z</time>
      </trkpt>
      <trkpt lat="37.196134" lon="-8.860750">
        <ele>26.559</ele>
        <time>2018-12-28T14:48:17Z</time>
      </trkpt>
      <trkpt lat="37.196140" lon="-8.860673">
        <ele>26.514</ele>
        <time>2018-12-28T14:48:33Z</time>
      </trkpt>
      <trkpt lat="37.196144" lon="-8.860670">
        <ele>26.508</ele>
        <time>2018-12-28T14:48:51Z</time>
      </trkpt>
      <trkpt lat="37.196143" lon="-8.860670">
        <ele>26.058</ele>
        <time>2018-12-28T14:49:22Z</time>
      </trkpt>
      <trkpt lat="37.196142" lon="-8.860667">
        <ele>26.586</ele>
        <time>2018-12-28T14:49:35Z</time>
      </trkpt>
      <trkpt lat="37.196151" lon="-8.860630">
        <ele>26.533</ele>
        <time>2018-12-28T14:49:38Z</time>
      </trkpt>
      <trkpt lat="37.196171" lon="-8.860497">
        <ele>27.038</ele>
        <time>2018-12-28T14:49:48Z</time>
      </trkpt>
      <trkpt lat="37.196176" lon="-8.860456">
        <ele>27.044</ele>
        <time>2018-12-28T14:49:56Z</time>
      </trkpt>
      <trkpt lat="37.196171" lon="-8.860414">
        <ele>27.555</ele>
        <time>2018-12-28T14:49:59Z</time>
      </trkpt>
      <trkpt lat="37.196195" lon="-8.860203">
        <ele>27.513</ele>
        <time>2018-12-28T14:50:13Z</time>
      </trkpt>
      <trkpt lat="37.196199" lon="-8.860164">
        <ele>27.539</ele>
        <time>2018-12-28T14:50:16Z</time>
      </trkpt>
      <trkpt lat="37.196201" lon="-8.860139">
        <ele>27.532</ele>
        <time>2018-12-28T14:50:18Z</time>
      </trkpt>
      <trkpt lat="37.196210" lon="-8.860099">
        <ele>28.092</ele>
        <time>2018-12-28T14:50:21Z</time>
      </trkpt>
      <trkpt lat="37.196208" lon="-8.860061">
        <ele>27.511</ele>
        <time>2018-12-28T14:50:24Z</time>
      </trkpt>
      <trkpt lat="37.196211" lon="-8.860012">
        <ele>27.508</ele>
        <time>2018-12-28T14:50:28Z</time>
      </trkpt>
      <trkpt lat="37.196202" lon="-8.860005">
        <ele>28.576</ele>
        <time>2018-12-28T14:50:43Z</time>
      </trkpt>
      <trkpt lat="37.196196" lon="-8.860005">
        <ele>28.074</ele>
        <time>2018-12-28T14:51:00Z</time>
      </trkpt>
      <trkpt lat="37.196190" lon="-8.859989">
        <ele>27.531</ele>
        <time>2018-12-28T14:51:04Z</time>
      </trkpt>
      <trkpt lat="37.196180" lon="-8.859910">
        <ele>28.046</ele>
        <time>2018-12-28T14:51:10Z</time>
      </trkpt>
      <trkpt lat="37.196213" lon="-8.859740">
        <ele>28.042</ele>
        <time>2018-12-28T14:51:25Z</time>
      </trkpt>
      <trkpt lat="37.196213" lon="-8.859740">
        <ele>27.573</ele>
        <time>2018-12-28T14:51:52Z</time>
      </trkpt>
      <trkpt lat="37.196231" lon="-8.859669">
        <ele>28.031</ele>
        <time>2018-12-28T14:52:04Z</time>
      </trkpt>
      <trkpt lat="37.196234" lon="-8.859584">
        <ele>28.077</ele>
        <time>2018-12-28T14:52:13Z</time>
      </trkpt>
      <trkpt lat="37.196227" lon="-8.859514">
        <ele>28.596</ele>
        <time>2018-12-28T14:52:19Z</time>
      </trkpt>
      <trkpt lat="37.196264" lon="-8.859428">
        <ele>28.531</ele>
        <time>2018-12-28T14:52:28Z</time>
      </trkpt>
      <trkpt lat="37.196279" lon="-8.859314">
        <ele>28.924</ele>
        <time>2018-12-28T14:52:41Z</time>
      </trkpt>
      <trkpt lat="37.196285" lon="-8.859208">
        <ele>28.908</ele>
        <time>2018-12-28T14:52:54Z</time>
      </trkpt>
      <trkpt lat="37.196285" lon="-8.859173">
        <ele>28.912</ele>
        <time>2018-12-28T14:52:57Z</time>
      </trkpt>
      <trkpt lat="37.196298" lon="-8.859095">
        <ele>29.490</ele>
        <time>2018-12-28T14:53:08Z</time>
      </trkpt>
      <trkpt lat="37.196298" lon="-8.859095">
        <ele>30.447</ele>
        <time>2018-12-28T14:53:28Z</time>
      </trkpt>
      <trkpt lat="37.196293" lon="-8.859094">
        <ele>29.952</ele>
        <time>2018-12-28T14:53:56Z</time>
      </trkpt>
      <trkpt lat="37.196293" lon="-8.859094">
        <ele>29.998</ele>
        <time>2018-12-28T14:54:23Z</time>
      </trkpt>
      <trkpt lat="37.196295" lon="-8.859090">
        <ele>29.419</ele>
        <time>2018-12-28T14:54:41Z</time>
      </trkpt>
      <trkpt lat="37.196295" lon="-8.859090">
        <ele>29.967</ele>
        <time>2018-12-28T14:55:06Z</time>
      </trkpt>
      <trkpt lat="37.196293" lon="-8.859092">
        <ele>29.983</ele>
        <time>2018-12-28T14:55:30Z</time>
      </trkpt>
      <trkpt lat="37.196290" lon="-8.859092">
        <ele>29.926</ele>
        <time>2018-12-28T14:55:54Z</time>
      </trkpt>
      <trkpt lat="37.196290" lon="-8.859092">
        <ele>29.947</ele>
        <time>2018-12-28T14:55:56Z</time>
      </trkpt>
      <trkpt lat="37.196277" lon="-8.859074">
        <ele>29.411</ele>
        <time>2018-12-28T14:55:59Z</time>
      </trkpt>
      <trkpt lat="37.196296" lon="-8.859049">
        <ele>29.408</ele>
        <time>2018-12-28T14:56:02Z</time>
      </trkpt>
      <trkpt lat="37.196307" lon="-8.859007">
        <ele>29.455</ele>
        <time>2018-12-28T14:56:06Z</time>
      </trkpt>
      <trkpt lat="37.196318" lon="-8.858984">
        <ele>29.913</ele>
        <time>2018-12-28T14:56:19Z</time>
      </trkpt>
      <trkpt lat="37.196307" lon="-8.859035">
        <ele>29.930</ele>
        <time>2018-12-28T14:56:38Z</time>
      </trkpt>
      <trkpt lat="37.196307" lon="-8.859035">
        <ele>29.975</ele>
        <time>2018-12-28T14:57:00Z</time>
      </trkpt>
      <trkpt lat="37.196304" lon="-8.859025">
        <ele>29.491</ele>
        <time>2018-12-28T14:57:12Z</time>
      </trkpt>
      <trkpt lat="37.196312" lon="-8.858905">
        <ele>29.442</ele>
        <time>2018-12-28T14:57:20Z</time>
      </trkpt>
      <trkpt lat="37.196336" lon="-8.858843">
        <ele>29.470</ele>
        <time>2018-12-28T14:57:25Z</time>
      </trkpt>
      <trkpt lat="37.196426" lon="-8.858663">
        <ele>28.016</ele>
        <time>2018-12-28T14:57:39Z</time>
      </trkpt>
      <trkpt lat="37.196480" lon="-8.858572">
        <ele>28.081</ele>
        <time>2018-12-28T14:57:46Z</time>
      </trkpt>
      <trkpt lat="37.196514" lon="-8.858483">
        <ele>27.561</ele>
        <time>2018-12-28T14:57:53Z</time>
      </trkpt>
      <trkpt lat="37.196534" lon="-8.858405">
        <ele>28.017</ele>
        <time>2018-12-28T14:57:58Z</time>
      </trkpt>
      <trkpt lat="37.196531" lon="-8.858357">
        <ele>27.508</ele>
        <time>2018-12-28T14:58:01Z</time>
      </trkpt>
      <trkpt lat="37.196539" lon="-8.858302">
        <ele>28.021</ele>
        <time>2018-12-28T14:58:05Z</time>
      </trkpt>
      <trkpt lat="37.196528" lon="-8.858229">
        <ele>28.079</ele>
        <time>2018-12-28T14:58:10Z</time>
      </trkpt>
      <trkpt lat="37.196516" lon="-8.858185">
        <ele>28.086</ele>
        <time>2018-12-28T14:58:13Z</time>
      </trkpt>
      <trkpt lat="37.196502" lon="-8.858056">
        <ele>27.061</ele>
        <time>2018-12-28T14:58:22Z</time>
      </trkpt>
      <trkpt lat="37.196499" lon="-8.858042">
        <ele>27.087</ele>
        <time>2018-12-28T14:58:23Z</time>
      </trkpt>
      <trkpt lat="37.196473" lon="-8.857920">
        <ele>26.048</ele>
        <time>2018-12-28T14:58:31Z</time>
      </trkpt>
      <trkpt lat="37.196465" lon="-8.857863">
        <ele>26.566</ele>
        <time>2018-12-28T14:58:35Z</time>
      </trkpt>
      <trkpt lat="37.196460" lon="-8.857762">
        <ele>26.012</ele>
        <time>2018-12-28T14:58:41Z</time>
      </trkpt>
      <trkpt lat="37.196451" lon="-8.857624">
        <ele>26.585</ele>
        <time>2018-12-28T14:58:50Z</time>
      </trkpt>
      <trkpt lat="37.196432" lon="-8.857549">
        <ele>26.589</ele>
        <time>2018-12-28T14:58:55Z</time>
      </trkpt>
      <trkpt lat="37.196417" lon="-8.857504">
        <ele>26.517</ele>
        <time>2018-12-28T14:59:06Z</time>
      </trkpt>
      <trkpt lat="37.196401" lon="-8.857421">
        <ele>26.508</ele>
        <time>2018-12-28T14:59:12Z</time>
      </trkpt>
      <trkpt lat="37.196405" lon="-8.857311">
        <ele>26.561</ele>
        <time>2018-12-28T14:59:19Z</time>
      </trkpt>
      <trkpt lat="37.196439" lon="-8.857183">
        <ele>27.029</ele>
        <time>2018-12-28T14:59:27Z</time>
      </trkpt>
      <trkpt lat="37.196449" lon="-8.857141">
        <ele>27.536</ele>
        <time>2018-12-28T14:59:30Z</time>
      </trkpt>
      <trkpt lat="37.196537" lon="-8.856961">
        <ele>28.071</ele>
        <time>2018-12-28T14:59:44Z</time>
      </trkpt>
      <trkpt lat="37.196622" lon="-8.856827">
        <ele>28.527</ele>
        <time>2018-12-28T14:59:56Z</time>
      </trkpt>
      <trkpt lat="37.196741" lon="-8.856697">
        <ele>28.958</ele>
        <time>2018-12-28T15:00:09Z</time>
      </trkpt>
      <trkpt lat="37.196768" lon="-8.856670">
        <ele>29.476</ele>
        <time>2018-12-28T15:00:12Z</time>
      </trkpt>
      <trkpt lat="37.196796" lon="-8.856634">
        <ele>29.942</ele>
        <time>2018-12-28T15:00:16Z</time>
      </trkpt>
      <trkpt lat="37.196813" lon="-8.856608">
        <ele>29.976</ele>
        <time>2018-12-28T15:00:18Z</time>
      </trkpt>
      <trkpt lat="37.196909" lon="-8.856476">
        <ele>30.990</ele>
        <time>2018-12-28T15:00:31Z</time>
      </trkpt>
      <trkpt lat="37.196974" lon="-8.856388">
        <ele>31.319</ele>
        <time>2018-12-28T15:00:39Z</time>
      </trkpt>
      <trkpt lat="37.197018" lon="-8.856321">
        <ele>31.808</ele>
        <time>2018-12-28T15:00:47Z</time>
      </trkpt>
      <trkpt lat="37.197066" lon="-8.856186">
        <ele>31.820</ele>
        <time>2018-12-28T15:00:56Z</time>
      </trkpt>
      <trkpt lat="37.197073" lon="-8.856153">
        <ele>31.848</ele>
        <time>2018-12-28T15:00:58Z</time>
      </trkpt>
      <trkpt lat="37.197101" lon="-8.856105">
        <ele>32.375</ele>
        <time>2018-12-28T15:01:04Z</time>
      </trkpt>
      <trkpt lat="37.197110" lon="-8.856073">
        <ele>32.350</ele>
        <time>2018-12-28T15:01:11Z</time>
      </trkpt>
      <trkpt lat="37.197141" lon="-8.855944">
        <ele>32.866</ele>
        <time>2018-12-28T15:01:20Z</time>
      </trkpt>
      <trkpt lat="37.197152" lon="-8.855912">
        <ele>32.897</ele>
        <time>2018-12-28T15:01:22Z</time>
      </trkpt>
      <trkpt lat="37.197152" lon="-8.855842">
        <ele>32.875</ele>
        <time>2018-12-28T15:01:26Z</time>
      </trkpt>
      <trkpt lat="37.197174" lon="-8.855758">
        <ele>32.811</ele>
        <time>2018-12-28T15:01:32Z</time>
      </trkpt>
      <trkpt lat="37.197208" lon="-8.855700">
        <ele>32.889</ele>
        <time>2018-12-28T15:01:36Z</time>
      </trkpt>
      <trkpt lat="37.197223" lon="-8.855649">
        <ele>32.806</ele>
        <time>2018-12-28T15:01:40Z</time>
      </trkpt>
      <trkpt lat="37.197294" lon="-8.855489">
        <ele>32.826</ele>
        <time>2018-12-28T15:01:51Z</time>
      </trkpt>
      <trkpt lat="37.197327" lon="-8.855446">
        <ele>32.808</ele>
        <time>2018-12-28T15:01:54Z</time>
      </trkpt>
      <trkpt lat="37.197336" lon="-8.855379">
        <ele>32.841</ele>
        <time>2018-12-28T15:01:58Z</time>
      </trkpt>
      <trkpt lat="37.197349" lon="-8.855331">
        <ele>33.379</ele>
        <time>2018-12-28T15:02:01Z</time>
      </trkpt>
      <trkpt lat="37.197362" lon="-8.855197">
        <ele>33.736</ele>
        <time>2018-12-28T15:02:10Z</time>
      </trkpt>
      <trkpt lat="37.197367" lon="-8.855157">
        <ele>33.761</ele>
        <time>2018-12-28T15:02:13Z</time>
      </trkpt>
      <trkpt lat="37.197332" lon="-8.855003">
        <ele>34.717</ele>
        <time>2018-12-28T15:02:23Z</time>
      </trkpt>
      <trkpt lat="37.197330" lon="-8.854978">
        <ele>34.758</ele>
        <time>2018-12-28T15:02:25Z</time>
      </trkpt>
      <trkpt lat="37.197274" lon="-8.854854">
        <ele>36.176</ele>
        <time>2018-12-28T15:02:35Z</time>
      </trkpt>
      <trkpt lat="37.197212" lon="-8.854802">
        <ele>36.692</ele>
        <time>2018-12-28T15:02:41Z</time>
      </trkpt>
      <trkpt lat="37.197114" lon="-8.854733">
        <ele>37.189</ele>
        <time>2018-12-28T15:02:50Z</time>
      </trkpt>
      <trkpt lat="37.197063" lon="-8.854705">
        <ele>37.606</ele>
        <time>2018-12-28T15:02:54Z</time>
      </trkpt>
      <trkpt lat="37.196973" lon="-8.854627">
        <ele>38.126</ele>
        <time>2018-12-28T15:03:02Z</time>
      </trkpt>
      <trkpt lat="37.196946" lon="-8.854589">
        <ele>37.608</ele>
        <time>2018-12-28T15:03:05Z</time>
      </trkpt>
      <trkpt lat="37.196917" lon="-8.854575">
        <ele>37.671</ele>
        <time>2018-12-28T15:03:08Z</time>
      </trkpt>
      <trkpt lat="37.196856" lon="-8.854485">
        <ele>38.569</ele>
        <time>2018-12-28T15:03:14Z</time>
      </trkpt>
      <trkpt lat="37.196801" lon="-8.854373">
        <ele>38.536</ele>
        <time>2018-12-28T15:03:21Z</time>
      </trkpt>
      <trkpt lat="37.196803" lon="-8.854340">
        <ele>38.151</ele>
        <time>2018-12-28T15:03:23Z</time>
      </trkpt>
      <trkpt lat="37.196820" lon="-8.854325">
        <ele>38.567</ele>
        <time>2018-12-28T15:03:24Z</time>
      </trkpt>
      <trkpt lat="37.196757" lon="-8.854277">
        <ele>39.058</ele>
        <time>2018-12-28T15:03:28Z</time>
      </trkpt>
      <trkpt lat="37.196739" lon="-8.854198">
        <ele>39.016</ele>
        <time>2018-12-28T15:03:33Z</time>
      </trkpt>
      <trkpt lat="37.196738" lon="-8.854165">
        <ele>39.072</ele>
        <time>2018-12-28T15:03:35Z</time>
      </trkpt>
      <trkpt lat="37.196736" lon="-8.854047">
        <ele>39.549</ele>
        <time>2018-12-28T15:03:42Z</time>
      </trkpt>
      <trkpt lat="37.196699" lon="-8.853866">
        <ele>39.502</ele>
        <time>2018-12-28T15:03:52Z</time>
      </trkpt>
      <trkpt lat="37.196699" lon="-8.853731">
        <ele>39.522</ele>
        <time>2018-12-28T15:04:00Z</time>
      </trkpt>
      <trkpt lat="37.196695" lon="-8.853714">
        <ele>39.508</ele>
        <time>2018-12-28T15:04:01Z</time>
      </trkpt>
      <trkpt lat="37.196725" lon="-8.853621">
        <ele>39.027</ele>
        <time>2018-12-28T15:04:06Z</time>
      </trkpt>
      <trkpt lat="37.196771" lon="-8.853427">
        <ele>38.575</ele>
        <time>2018-12-28T15:04:18Z</time>
      </trkpt>
      <trkpt lat="37.196769" lon="-8.853359">
        <ele>38.512</ele>
        <time>2018-12-28T15:04:22Z</time>
      </trkpt>
      <trkpt lat="37.196783" lon="-8.853278">
        <ele>38.197</ele>
        <time>2018-12-28T15:04:27Z</time>
      </trkpt>
      <trkpt lat="37.196793" lon="-8.853244">
        <ele>38.583</ele>
        <time>2018-12-28T15:04:29Z</time>
      </trkpt>
      <trkpt lat="37.196786" lon="-8.853209">
        <ele>38.114</ele>
        <time>2018-12-28T15:04:31Z</time>
      </trkpt>
      <trkpt lat="37.196812" lon="-8.853118">
        <ele>37.662</ele>
        <time>2018-12-28T15:04:37Z</time>
      </trkpt>
      <trkpt lat="37.196845" lon="-8.852974">
        <ele>37.188</ele>
        <time>2018-12-28T15:04:45Z</time>
      </trkpt>
      <trkpt lat="37.196865" lon="-8.852895">
        <ele>37.152</ele>
        <time>2018-12-28T15:04:50Z</time>
      </trkpt>
      <trkpt lat="37.196894" lon="-8.852817">
        <ele>37.153</ele>
        <time>2018-12-28T15:04:55Z</time>
      </trkpt>
      <trkpt lat="37.196921" lon="-8.852788">
        <ele>37.108</ele>
        <time>2018-12-28T15:04:57Z</time>
      </trkpt>
      <trkpt lat="37.196942" lon="-8.852667">
        <ele>36.608</ele>
        <time>2018-12-28T15:05:04Z</time>
      </trkpt>
      <trkpt lat="37.197068" lon="-8.852485">
        <ele>37.138</ele>
        <time>2018-12-28T15:05:18Z</time>
      </trkpt>
      <trkpt lat="37.197082" lon="-8.852460">
        <ele>37.166</ele>
        <time>2018-12-28T15:05:20Z</time>
      </trkpt>
      <trkpt lat="37.197161" lon="-8.852321">
        <ele>37.113</ele>
        <time>2018-12-28T15:05:30Z</time>
      </trkpt>
      <trkpt lat="37.197273" lon="-8.852156">
        <ele>36.178</ele>
        <time>2018-12-28T15:05:43Z</time>
      </trkpt>
      <trkpt lat="37.197427" lon="-8.852031">
        <ele>35.774</ele>
        <time>2018-12-28T15:05:57Z</time>
      </trkpt>
      <trkpt lat="37.197478" lon="-8.851984">
        <ele>35.755</ele>
        <time>2018-12-28T15:06:02Z</time>
      </trkpt>
      <trkpt lat="37.197599" lon="-8.851885">
        <ele>35.213</ele>
        <time>2018-12-28T15:06:14Z</time>
      </trkpt>
      <trkpt lat="37.197603" lon="-8.851881">
        <ele>35.219</ele>
        <time>2018-12-28T15:06:15Z</time>
      </trkpt>
      <trkpt lat="37.197723" lon="-8.851739">
        <ele>35.754</ele>
        <time>2018-12-28T15:06:27Z</time>
      </trkpt>
      <trkpt lat="37.197779" lon="-8.851626">
        <ele>35.756</ele>
        <time>2018-12-28T15:06:34Z</time>
      </trkpt>
      <trkpt lat="37.197831" lon="-8.851481">
        <ele>35.711</ele>
        <time>2018-12-28T15:06:44Z</time>
      </trkpt>
      <trkpt lat="37.197854" lon="-8.851387">
        <ele>35.708</ele>
        <time>2018-12-28T15:06:50Z</time>
      </trkpt>
      <trkpt lat="37.197866" lon="-8.851329">
        <ele>36.148</ele>
        <time>2018-12-28T15:06:54Z</time>
      </trkpt>
      <trkpt lat="37.197874" lon="-8.851254">
        <ele>35.796</ele>
        <time>2018-12-28T15:06:59Z</time>
      </trkpt>
      <trkpt lat="37.197888" lon="-8.851221">
        <ele>35.773</ele>
        <time>2018-12-28T15:07:01Z</time>
      </trkpt>
      <trkpt lat="37.197888" lon="-8.851092">
        <ele>35.268</ele>
        <time>2018-12-28T15:07:09Z</time>
      </trkpt>
      <trkpt lat="37.197898" lon="-8.851029">
        <ele>35.264</ele>
        <time>2018-12-28T15:07:13Z</time>
      </trkpt>
      <trkpt lat="37.197928" lon="-8.850913">
        <ele>35.715</ele>
        <time>2018-12-28T15:07:20Z</time>
      </trkpt>
      <trkpt lat="37.197935" lon="-8.850779">
        <ele>35.753</ele>
        <time>2018-12-28T15:07:28Z</time>
      </trkpt>
      <trkpt lat="37.197942" lon="-8.850737">
        <ele>36.169</ele>
        <time>2018-12-28T15:07:31Z</time>
      </trkpt>
      <trkpt lat="37.197947" lon="-8.850646">
        <ele>35.772</ele>
        <time>2018-12-28T15:07:36Z</time>
      </trkpt>
      <trkpt lat="37.197963" lon="-8.850517">
        <ele>35.713</ele>
        <time>2018-12-28T15:07:44Z</time>
      </trkpt>
      <trkpt lat="37.197960" lon="-8.850490">
        <ele>35.714</ele>
        <time>2018-12-28T15:07:46Z</time>
      </trkpt>
      <trkpt lat="37.197983" lon="-8.850323">
        <ele>35.208</ele>
        <time>2018-12-28T15:07:57Z</time>
      </trkpt>
      <trkpt lat="37.198000" lon="-8.850183">
        <ele>33.740</ele>
        <time>2018-12-28T15:08:06Z</time>
      </trkpt>
      <trkpt lat="37.197955" lon="-8.850068">
        <ele>33.378</ele>
        <time>2018-12-28T15:08:13Z</time>
      </trkpt>
      <trkpt lat="37.197933" lon="-8.849987">
        <ele>32.825</ele>
        <time>2018-12-28T15:08:18Z</time>
      </trkpt>
      <trkpt lat="37.197939" lon="-8.849958">
        <ele>32.850</ele>
        <time>2018-12-28T15:08:20Z</time>
      </trkpt>
      <trkpt lat="37.197939" lon="-8.849797">
        <ele>32.366</ele>
        <time>2018-12-28T15:08:30Z</time>
      </trkpt>
      <trkpt lat="37.198012" lon="-8.849642">
        <ele>32.337</ele>
        <time>2018-12-28T15:08:41Z</time>
      </trkpt>
      <trkpt lat="37.198020" lon="-8.849603">
        <ele>32.895</ele>
        <time>2018-12-28T15:08:44Z</time>
      </trkpt>
      <trkpt lat="37.198023" lon="-8.849449">
        <ele>34.281</ele>
        <time>2018-12-28T15:08:55Z</time>
      </trkpt>
      <trkpt lat="37.198015" lon="-8.849437">
        <ele>34.723</ele>
        <time>2018-12-28T15:08:56Z</time>
      </trkpt>
      <trkpt lat="37.197985" lon="-8.849335">
        <ele>35.783</ele>
        <time>2018-12-28T15:09:02Z</time>
      </trkpt>
      <trkpt lat="37.197976" lon="-8.849235">
        <ele>35.711</ele>
        <time>2018-12-28T15:09:08Z</time>
      </trkpt>
      <trkpt lat="37.197976" lon="-8.849203">
        <ele>36.108</ele>
        <time>2018-12-28T15:09:10Z</time>
      </trkpt>
      <trkpt lat="37.197986" lon="-8.849032">
        <ele>37.655</ele>
        <time>2018-12-28T15:09:21Z</time>
      </trkpt>
      <trkpt lat="37.197970" lon="-8.848839">
        <ele>37.693</ele>
        <time>2018-12-28T15:09:33Z</time>
      </trkpt>
      <trkpt lat="37.197982" lon="-8.848687">
        <ele>37.120</ele>
        <time>2018-12-28T15:09:43Z</time>
      </trkpt>
      <trkpt lat="37.197982" lon="-8.848687">
        <ele>37.125</ele>
        <time>2018-12-28T15:09:44Z</time>
      </trkpt>
      <trkpt lat="37.198009" lon="-8.848549">
        <ele>36.171</ele>
        <time>2018-12-28T15:09:54Z</time>
      </trkpt>
      <trkpt lat="37.198073" lon="-8.848403">
        <ele>35.772</ele>
        <time>2018-12-28T15:10:05Z</time>
      </trkpt>
      <trkpt lat="37.198087" lon="-8.848342">
        <ele>36.160</ele>
        <time>2018-12-28T15:10:18Z</time>
      </trkpt>
      <trkpt lat="37.198099" lon="-8.848316">
        <ele>35.746</ele>
        <time>2018-12-28T15:10:20Z</time>
      </trkpt>
      <trkpt lat="37.198143" lon="-8.848252">
        <ele>35.754</ele>
        <time>2018-12-28T15:10:26Z</time>
      </trkpt>
      <trkpt lat="37.198287" lon="-8.848080">
        <ele>35.756</ele>
        <time>2018-12-28T15:10:41Z</time>
      </trkpt>
      <trkpt lat="37.198355" lon="-8.847991">
        <ele>36.111</ele>
        <time>2018-12-28T15:10:49Z</time>
      </trkpt>
      <trkpt lat="37.198377" lon="-8.847959">
        <ele>36.108</ele>
        <time>2018-12-28T15:10:52Z</time>
      </trkpt>
      <trkpt lat="37.198413" lon="-8.847926">
        <ele>36.688</ele>
        <time>2018-12-28T15:10:56Z</time>
      </trkpt>
      <trkpt lat="37.198572" lon="-8.847770">
        <ele>35.726</ele>
        <time>2018-12-28T15:11:11Z</time>
      </trkpt>
      <trkpt lat="37.198689" lon="-8.847700">
        <ele>35.223</ele>
        <time>2018-12-28T15:11:22Z</time>
      </trkpt>
      <trkpt lat="37.198821" lon="-8.847622">
        <ele>35.268</ele>
        <time>2018-12-28T15:11:34Z</time>
      </trkpt>
      <trkpt lat="37.198941" lon="-8.847535">
        <ele>35.744</ele>
        <time>2018-12-28T15:11:44Z</time>
      </trkpt>
      <trkpt lat="37.198969" lon="-8.847522">
        <ele>35.755</ele>
        <time>2018-12-28T15:11:47Z</time>
      </trkpt>
      <trkpt lat="37.199156" lon="-8.847417">
        <ele>36.143</ele>
        <time>2018-12-28T15:12:02Z</time>
      </trkpt>
      <trkpt lat="37.199338" lon="-8.847319">
        <ele>36.139</ele>
        <time>2018-12-28T15:12:17Z</time>
      </trkpt>
      <trkpt lat="37.199459" lon="-8.847197">
        <ele>36.123</ele>
        <time>2018-12-28T15:12:30Z</time>
      </trkpt>
      <trkpt lat="37.199594" lon="-8.847069">
        <ele>36.183</ele>
        <time>2018-12-28T15:12:42Z</time>
      </trkpt>
      <trkpt lat="37.199605" lon="-8.847063">
        <ele>36.111</ele>
        <time>2018-12-28T15:12:43Z</time>
      </trkpt>
      <trkpt lat="37.199676" lon="-8.847008">
        <ele>36.108</ele>
        <time>2018-12-28T15:12:49Z</time>
      </trkpt>
      <trkpt lat="37.199835" lon="-8.846837">
        <ele>36.155</ele>
        <time>2018-12-28T15:13:05Z</time>
      </trkpt>
      <trkpt lat="37.199846" lon="-8.846826">
        <ele>36.653</ele>
        <time>2018-12-28T15:13:06Z</time>
      </trkpt>
      <trkpt lat="37.199875" lon="-8.846705">
        <ele>37.190</ele>
        <time>2018-12-28T15:13:16Z</time>
      </trkpt>
      <trkpt lat="37.199922" lon="-8.846553">
        <ele>37.695</ele>
        <time>2018-12-28T15:13:26Z</time>
      </trkpt>
      <trkpt lat="37.199953" lon="-8.846500">
        <ele>37.631</ele>
        <time>2018-12-28T15:13:30Z</time>
      </trkpt>
      <trkpt lat="37.199982" lon="-8.846450">
        <ele>37.662</ele>
        <time>2018-12-28T15:13:34Z</time>
      </trkpt>
      <trkpt lat="37.200052" lon="-8.846339">
        <ele>37.150</ele>
        <time>2018-12-28T15:13:42Z</time>
      </trkpt>
      <trkpt lat="37.200106" lon="-8.846217">
        <ele>37.116</ele>
        <time>2018-12-28T15:13:50Z</time>
      </trkpt>
      <trkpt lat="37.200177" lon="-8.846109">
        <ele>37.173</ele>
        <time>2018-12-28T15:13:58Z</time>
      </trkpt>
      <trkpt lat="37.200204" lon="-8.846072">
        <ele>37.185</ele>
        <time>2018-12-28T15:14:01Z</time>
      </trkpt>
      <trkpt lat="37.200226" lon="-8.846020">
        <ele>37.613</ele>
        <time>2018-12-28T15:14:05Z</time>
      </trkpt>
      <trkpt lat="37.200234" lon="-8.845992">
        <ele>38.108</ele>
        <time>2018-12-28T15:14:07Z</time>
      </trkpt>
      <trkpt lat="37.200286" lon="-8.845877">
        <ele>38.180</ele>
        <time>2018-12-28T15:14:15Z</time>
      </trkpt>
      <trkpt lat="37.200362" lon="-8.845767">
        <ele>38.568</ele>
        <time>2018-12-28T15:14:23Z</time>
      </trkpt>
      <trkpt lat="37.200389" lon="-8.845735">
        <ele>39.085</ele>
        <time>2018-12-28T15:14:26Z</time>
      </trkpt>
      <trkpt lat="37.200454" lon="-8.845579">
        <ele>39.580</ele>
        <time>2018-12-28T15:14:37Z</time>
      </trkpt>
      <trkpt lat="37.200514" lon="-8.845471">
        <ele>40.086</ele>
        <time>2018-12-28T15:14:45Z</time>
      </trkpt>
      <trkpt lat="37.200546" lon="-8.845424">
        <ele>40.077</ele>
        <time>2018-12-28T15:14:49Z</time>
      </trkpt>
      <trkpt lat="37.200674" lon="-8.845277">
        <ele>39.045</ele>
        <time>2018-12-28T15:15:01Z</time>
      </trkpt>
      <trkpt lat="37.200792" lon="-8.845115">
        <ele>38.121</ele>
        <time>2018-12-28T15:15:14Z</time>
      </trkpt>
      <trkpt lat="37.200859" lon="-8.845051">
        <ele>38.135</ele>
        <time>2018-12-28T15:15:20Z</time>
      </trkpt>
      <trkpt lat="37.200902" lon="-8.844977">
        <ele>37.686</ele>
        <time>2018-12-28T15:15:25Z</time>
      </trkpt>
      <trkpt lat="37.200990" lon="-8.844780">
        <ele>37.114</ele>
        <time>2018-12-28T15:15:38Z</time>
      </trkpt>
      <trkpt lat="37.200994" lon="-8.844765">
        <ele>37.108</ele>
        <time>2018-12-28T15:15:39Z</time>
      </trkpt>
      <trkpt lat="37.201033" lon="-8.844672">
        <ele>36.616</ele>
        <time>2018-12-28T15:15:46Z</time>
      </trkpt>
      <trkpt lat="37.201090" lon="-8.844432">
        <ele>36.664</ele>
        <time>2018-12-28T15:16:01Z</time>
      </trkpt>
      <trkpt lat="37.201101" lon="-8.844415">
        <ele>36.681</ele>
        <time>2018-12-28T15:16:02Z</time>
      </trkpt>
      <trkpt lat="37.201118" lon="-8.844383">
        <ele>36.636</ele>
        <time>2018-12-28T15:16:04Z</time>
      </trkpt>
      <trkpt lat="37.201170" lon="-8.844205">
        <ele>35.712</ele>
        <time>2018-12-28T15:16:15Z</time>
      </trkpt>
      <trkpt lat="37.201191" lon="-8.844118">
        <ele>35.263</ele>
        <time>2018-12-28T15:16:20Z</time>
      </trkpt>
      <trkpt lat="37.201187" lon="-8.844086">
        <ele>35.791</ele>
        <time>2018-12-28T15:16:22Z</time>
      </trkpt>
      <trkpt lat="37.201194" lon="-8.844015">
        <ele>36.167</ele>
        <time>2018-12-28T15:16:26Z</time>
      </trkpt>
      <trkpt lat="37.201211" lon="-8.843940">
        <ele>36.619</ele>
        <time>2018-12-28T15:16:31Z</time>
      </trkpt>
      <trkpt lat="37.201241" lon="-8.843783">
        <ele>37.109</ele>
        <time>2018-12-28T15:16:40Z</time>
      </trkpt>
      <trkpt lat="37.201247" lon="-8.843749">
        <ele>37.119</ele>
        <time>2018-12-28T15:16:42Z</time>
      </trkpt>
      <trkpt lat="37.201247" lon="-8.843638">
        <ele>36.608</ele>
        <time>2018-12-28T15:16:49Z</time>
      </trkpt>
      <trkpt lat="37.201250" lon="-8.843564">
        <ele>36.174</ele>
        <time>2018-12-28T15:16:54Z</time>
      </trkpt>
      <trkpt lat="37.201248" lon="-8.843510">
        <ele>36.142</ele>
        <time>2018-12-28T15:16:57Z</time>
      </trkpt>
      <trkpt lat="37.201257" lon="-8.843361">
        <ele>36.139</ele>
        <time>2018-12-28T15:17:06Z</time>
      </trkpt>
      <trkpt lat="37.201267" lon="-8.843329">
        <ele>36.694</ele>
        <time>2018-12-28T15:17:08Z</time>
      </trkpt>
      <trkpt lat="37.201294" lon="-8.843180">
        <ele>36.670</ele>
        <time>2018-12-28T15:17:17Z</time>
      </trkpt>
      <trkpt lat="37.201363" lon="-8.842977">
        <ele>36.631</ele>
        <time>2018-12-28T15:17:30Z</time>
      </trkpt>
      <trkpt lat="37.201373" lon="-8.842909">
        <ele>36.629</ele>
        <time>2018-12-28T15:17:34Z</time>
      </trkpt>
      <trkpt lat="37.201385" lon="-8.842832">
        <ele>36.695</ele>
        <time>2018-12-28T15:17:39Z</time>
      </trkpt>
      <trkpt lat="37.201410" lon="-8.842760">
        <ele>36.136</ele>
        <time>2018-12-28T15:17:43Z</time>
      </trkpt>
      <trkpt lat="37.201428" lon="-8.842668">
        <ele>36.117</ele>
        <time>2018-12-28T15:17:49Z</time>
      </trkpt>
      <trkpt lat="37.201498" lon="-8.842538">
        <ele>36.618</ele>
        <time>2018-12-28T15:17:58Z</time>
      </trkpt>
      <trkpt lat="37.201523" lon="-8.842468">
        <ele>36.608</ele>
        <time>2018-12-28T15:18:03Z</time>
      </trkpt>
      <trkpt lat="37.201649" lon="-8.842291">
        <ele>36.116</ele>
        <time>2018-12-28T15:18:17Z</time>
      </trkpt>
      <trkpt lat="37.201728" lon="-8.842159">
        <ele>36.154</ele>
        <time>2018-12-28T15:18:27Z</time>
      </trkpt>
      <trkpt lat="37.201745" lon="-8.842073">
        <ele>36.181</ele>
        <time>2018-12-28T15:18:32Z</time>
      </trkpt>
      <trkpt lat="37.201770" lon="-8.841982">
        <ele>35.756</ele>
        <time>2018-12-28T15:18:37Z</time>
      </trkpt>
      <trkpt lat="37.201774" lon="-8.841926">
        <ele>35.752</ele>
        <time>2018-12-28T15:18:40Z</time>
      </trkpt>
      <trkpt lat="37.201783" lon="-8.841741">
        <ele>35.233</ele>
        <time>2018-12-28T15:18:51Z</time>
      </trkpt>
      <trkpt lat="37.201779" lon="-8.841695">
        <ele>36.161</ele>
        <time>2018-12-28T15:18:54Z</time>
      </trkpt>
      <trkpt lat="37.201758" lon="-8.841636">
        <ele>36.127</ele>
        <time>2018-12-28T15:18:58Z</time>
      </trkpt>
      <trkpt lat="37.201750" lon="-8.841536">
        <ele>36.111</ele>
        <time>2018-12-28T15:19:04Z</time>
      </trkpt>
      <trkpt lat="37.201763" lon="-8.841382">
        <ele>36.121</ele>
        <time>2018-12-28T15:19:13Z</time>
      </trkpt>
      <trkpt lat="37.201766" lon="-8.841296">
        <ele>36.103</ele>
        <time>2018-12-28T15:19:18Z</time>
      </trkpt>
      <trkpt lat="37.201766" lon="-8.841207">
        <ele>36.608</ele>
        <time>2018-12-28T15:19:23Z</time>
      </trkpt>
      <trkpt lat="37.201771" lon="-8.841160">
        <ele>36.624</ele>
        <time>2018-12-28T15:19:26Z</time>
      </trkpt>
      <trkpt lat="37.201785" lon="-8.841061">
        <ele>37.192</ele>
        <time>2018-12-28T15:19:32Z</time>
      </trkpt>
      <trkpt lat="37.201803" lon="-8.840997">
        <ele>36.689</ele>
        <time>2018-12-28T15:19:36Z</time>
      </trkpt>
      <trkpt lat="37.201805" lon="-8.840930">
        <ele>37.184</ele>
        <time>2018-12-28T15:19:40Z</time>
      </trkpt>
      <trkpt lat="37.201824" lon="-8.840758">
        <ele>37.660</ele>
        <time>2018-12-28T15:19:50Z</time>
      </trkpt>
      <trkpt lat="37.201896" lon="-8.840590">
        <ele>37.131</ele>
        <time>2018-12-28T15:20:01Z</time>
      </trkpt>
      <trkpt lat="37.201927" lon="-8.840459">
        <ele>37.149</ele>
        <time>2018-12-28T15:20:09Z</time>
      </trkpt>
      <trkpt lat="37.201970" lon="-8.840312">
        <ele>37.645</ele>
        <time>2018-12-28T15:20:18Z</time>
      </trkpt>
      <trkpt lat="37.201991" lon="-8.840251">
        <ele>37.692</ele>
        <time>2018-12-28T15:20:22Z</time>
      </trkpt>
      <trkpt lat="37.202019" lon="-8.840210">
        <ele>37.673</ele>
        <time>2018-12-28T15:20:25Z</time>
      </trkpt>
      <trkpt lat="37.202031" lon="-8.840134">
        <ele>37.620</ele>
        <time>2018-12-28T15:20:29Z</time>
      </trkpt>
      <trkpt lat="37.202100" lon="-8.839972">
        <ele>38.108</ele>
        <time>2018-12-28T15:20:40Z</time>
      </trkpt>
      <trkpt lat="37.202160" lon="-8.839835">
        <ele>38.182</ele>
        <time>2018-12-28T15:20:49Z</time>
      </trkpt>
      <trkpt lat="37.202194" lon="-8.839729">
        <ele>38.510</ele>
        <time>2018-12-28T15:20:56Z</time>
      </trkpt>
      <trkpt lat="37.202227" lon="-8.839605">
        <ele>38.577</ele>
        <time>2018-12-28T15:21:04Z</time>
      </trkpt>
      <trkpt lat="37.202250" lon="-8.839545">
        <ele>38.532</ele>
        <time>2018-12-28T15:21:08Z</time>
      </trkpt>
      <trkpt lat="37.202325" lon="-8.839362">
        <ele>38.578</ele>
        <time>2018-12-28T15:21:20Z</time>
      </trkpt>
      <trkpt lat="37.202356" lon="-8.839287">
        <ele>38.559</ele>
        <time>2018-12-28T15:21:25Z</time>
      </trkpt>
      <trkpt lat="37.202387" lon="-8.839232">
        <ele>38.517</ele>
        <time>2018-12-28T15:21:29Z</time>
      </trkpt>
      <trkpt lat="37.202420" lon="-8.839180">
        <ele>38.583</ele>
        <time>2018-12-28T15:21:33Z</time>
      </trkpt>
      <trkpt lat="37.202434" lon="-8.839123">
        <ele>38.592</ele>
        <time>2018-12-28T15:21:37Z</time>
      </trkpt>
      <trkpt lat="37.202475" lon="-8.839054">
        <ele>39.073</ele>
        <time>2018-12-28T15:21:42Z</time>
      </trkpt>
      <trkpt lat="37.202573" lon="-8.838863">
        <ele>39.020</ele>
        <time>2018-12-28T15:21:55Z</time>
      </trkpt>
      <trkpt lat="37.202591" lon="-8.838819">
        <ele>39.008</ele>
        <time>2018-12-28T15:21:58Z</time>
      </trkpt>
      <trkpt lat="37.202611" lon="-8.838753">
        <ele>39.052</ele>
        <time>2018-12-28T15:22:02Z</time>
      </trkpt>
      <trkpt lat="37.202619" lon="-8.838699">
        <ele>39.050</ele>
        <time>2018-12-28T15:22:05Z</time>
      </trkpt>
      <trkpt lat="37.202641" lon="-8.838550">
        <ele>39.047</ele>
        <time>2018-12-28T15:22:14Z</time>
      </trkpt>
      <trkpt lat="37.202657" lon="-8.838516">
        <ele>39.032</ele>
        <time>2018-12-28T15:22:16Z</time>
      </trkpt>
      <trkpt lat="37.202658" lon="-8.838372">
        <ele>39.578</ele>
        <time>2018-12-28T15:22:25Z</time>
      </trkpt>
      <trkpt lat="37.202643" lon="-8.838205">
        <ele>40.089</ele>
        <time>2018-12-28T15:22:35Z</time>
      </trkpt>
      <trkpt lat="37.202646" lon="-8.838053">
        <ele>40.087</ele>
        <time>2018-12-28T15:22:44Z</time>
      </trkpt>
      <trkpt lat="37.202630" lon="-8.837974">
        <ele>40.593</ele>
        <time>2018-12-28T15:22:49Z</time>
      </trkpt>
      <trkpt lat="37.202619" lon="-8.837916">
        <ele>40.026</ele>
        <time>2018-12-28T15:22:53Z</time>
      </trkpt>
      <trkpt lat="37.202542" lon="-8.837702">
        <ele>40.047</ele>
        <time>2018-12-28T15:23:06Z</time>
      </trkpt>
      <trkpt lat="37.202498" lon="-8.837573">
        <ele>40.511</ele>
        <time>2018-12-28T15:23:14Z</time>
      </trkpt>
      <trkpt lat="37.202490" lon="-8.837534">
        <ele>40.508</ele>
        <time>2018-12-28T15:23:16Z</time>
      </trkpt>
      <trkpt lat="37.202437" lon="-8.837361">
        <ele>40.985</ele>
        <time>2018-12-28T15:23:27Z</time>
      </trkpt>
      <trkpt lat="37.202418" lon="-8.837276">
        <ele>40.553</ele>
        <time>2018-12-28T15:23:32Z</time>
      </trkpt>
      <trkpt lat="37.202362" lon="-8.837124">
        <ele>40.960</ele>
        <time>2018-12-28T15:23:42Z</time>
      </trkpt>
      <trkpt lat="37.202324" lon="-8.836994">
        <ele>40.575</ele>
        <time>2018-12-28T15:23:50Z</time>
      </trkpt>
      <trkpt lat="37.202306" lon="-8.836971">
        <ele>40.521</ele>
        <time>2018-12-28T15:23:52Z</time>
      </trkpt>
      <trkpt lat="37.202289" lon="-8.836762">
        <ele>40.582</ele>
        <time>2018-12-28T15:24:04Z</time>
      </trkpt>
      <trkpt lat="37.202285" lon="-8.836644">
        <ele>40.560</ele>
        <time>2018-12-28T15:24:12Z</time>
      </trkpt>
      <trkpt lat="37.202278" lon="-8.836579">
        <ele>40.986</ele>
        <time>2018-12-28T15:24:16Z</time>
      </trkpt>
      <trkpt lat="37.202233" lon="-8.836473">
        <ele>41.419</ele>
        <time>2018-12-28T15:24:23Z</time>
      </trkpt>
      <trkpt lat="37.202211" lon="-8.836424">
        <ele>42.409</ele>
        <time>2018-12-28T15:24:37Z</time>
      </trkpt>
      <trkpt lat="37.202211" lon="-8.836424">
        <ele>42.419</ele>
        <time>2018-12-28T15:24:38Z</time>
      </trkpt>
      <trkpt lat="37.202208" lon="-8.836411">
        <ele>41.908</ele>
        <time>2018-12-28T15:24:40Z</time>
      </trkpt>
      <trkpt lat="37.202144" lon="-8.836263">
        <ele>42.424</ele>
        <time>2018-12-28T15:24:49Z</time>
      </trkpt>
      <trkpt lat="37.202105" lon="-8.836167">
        <ele>42.992</ele>
        <time>2018-12-28T15:24:55Z</time>
      </trkpt>
      <trkpt lat="37.202062" lon="-8.836037">
        <ele>43.849</ele>
        <time>2018-12-28T15:25:04Z</time>
      </trkpt>
      <trkpt lat="37.202057" lon="-8.836020">
        <ele>43.894</ele>
        <time>2018-12-28T15:25:05Z</time>
      </trkpt>
      <trkpt lat="37.202035" lon="-8.835965">
        <ele>43.830</ele>
        <time>2018-12-28T15:25:08Z</time>
      </trkpt>
      <trkpt lat="37.202001" lon="-8.835868">
        <ele>43.491</ele>
        <time>2018-12-28T15:25:14Z</time>
      </trkpt>
      <trkpt lat="37.201984" lon="-8.835784">
        <ele>43.469</ele>
        <time>2018-12-28T15:25:19Z</time>
      </trkpt>
      <trkpt lat="37.201906" lon="-8.835542">
        <ele>43.855</ele>
        <time>2018-12-28T15:25:35Z</time>
      </trkpt>
      <trkpt lat="37.201885" lon="-8.835437">
        <ele>45.899</ele>
        <time>2018-12-28T15:25:42Z</time>
      </trkpt>
      <trkpt lat="37.201865" lon="-8.835365">
        <ele>46.707</ele>
        <time>2018-12-28T15:25:47Z</time>
      </trkpt>
      <trkpt lat="37.201852" lon="-8.835313">
        <ele>47.727</ele>
        <time>2018-12-28T15:25:51Z</time>
      </trkpt>
      <trkpt lat="37.201774" lon="-8.835131">
        <ele>50.608</ele>
        <time>2018-12-28T15:26:04Z</time>
      </trkpt>
      <trkpt lat="37.201746" lon="-8.835030">
        <ele>51.552</ele>
        <time>2018-12-28T15:26:11Z</time>
      </trkpt>
      <trkpt lat="37.201700" lon="-8.834891">
        <ele>52.090</ele>
        <time>2018-12-28T15:26:20Z</time>
      </trkpt>
      <trkpt lat="37.201702" lon="-8.834813">
        <ele>52.077</ele>
        <time>2018-12-28T15:26:25Z</time>
      </trkpt>
      <trkpt lat="37.201693" lon="-8.834702">
        <ele>51.082</ele>
        <time>2018-12-28T15:26:31Z</time>
      </trkpt>
      <trkpt lat="37.201652" lon="-8.834520">
        <ele>49.628</ele>
        <time>2018-12-28T15:26:42Z</time>
      </trkpt>
      <trkpt lat="37.201658" lon="-8.834472">
        <ele>49.619</ele>
        <time>2018-12-28T15:26:45Z</time>
      </trkpt>
      <trkpt lat="37.201664" lon="-8.834333">
        <ele>49.617</ele>
        <time>2018-12-28T15:26:54Z</time>
      </trkpt>
      <trkpt lat="37.201665" lon="-8.834285">
        <ele>49.633</ele>
        <time>2018-12-28T15:27:07Z</time>
      </trkpt>
      <trkpt lat="37.201664" lon="-8.834265">
        <ele>49.145</ele>
        <time>2018-12-28T15:27:20Z</time>
      </trkpt>
      <trkpt lat="37.201677" lon="-8.834243">
        <ele>49.147</ele>
        <time>2018-12-28T15:27:22Z</time>
      </trkpt>
      <trkpt lat="37.201824" lon="-8.834133">
        <ele>50.111</ele>
        <time>2018-12-28T15:27:37Z</time>
      </trkpt>
      <trkpt lat="37.201853" lon="-8.834129">
        <ele>50.608</ele>
        <time>2018-12-28T15:27:40Z</time>
      </trkpt>
      <trkpt lat="37.201965" lon="-8.834114">
        <ele>50.187</ele>
        <time>2018-12-28T15:27:49Z</time>
      </trkpt>
      <trkpt lat="37.202104" lon="-8.834070">
        <ele>51.015</ele>
        <time>2018-12-28T15:28:01Z</time>
      </trkpt>
      <trkpt lat="37.202146" lon="-8.834054">
        <ele>52.032</ele>
        <time>2018-12-28T15:28:05Z</time>
      </trkpt>
      <trkpt lat="37.202208" lon="-8.834022">
        <ele>52.557</ele>
        <time>2018-12-28T15:28:10Z</time>
      </trkpt>
      <trkpt lat="37.202233" lon="-8.834011">
        <ele>52.543</ele>
        <time>2018-12-28T15:28:12Z</time>
      </trkpt>
      <trkpt lat="37.202294" lon="-8.833965">
        <ele>53.024</ele>
        <time>2018-12-28T15:28:18Z</time>
      </trkpt>
      <trkpt lat="37.202382" lon="-8.833891">
        <ele>53.482</ele>
        <time>2018-12-28T15:28:26Z</time>
      </trkpt>
      <trkpt lat="37.202411" lon="-8.833869">
        <ele>53.998</ele>
        <time>2018-12-28T15:28:29Z</time>
      </trkpt>
      <trkpt lat="37.202511" lon="-8.833793">
        <ele>55.472</ele>
        <time>2018-12-28T15:28:39Z</time>
      </trkpt>
      <trkpt lat="37.202643" lon="-8.833698">
        <ele>56.313</ele>
        <time>2018-12-28T15:28:51Z</time>
      </trkpt>
      <trkpt lat="37.202654" lon="-8.833688">
        <ele>56.314</ele>
        <time>2018-12-28T15:28:52Z</time>
      </trkpt>
      <trkpt lat="37.202744" lon="-8.833611">
        <ele>56.808</ele>
        <time>2018-12-28T15:29:01Z</time>
      </trkpt>
      <trkpt lat="37.202864" lon="-8.833501">
        <ele>56.830</ele>
        <time>2018-12-28T15:29:13Z</time>
      </trkpt>
      <trkpt lat="37.202914" lon="-8.833453">
        <ele>56.838</ele>
        <time>2018-12-28T15:29:18Z</time>
      </trkpt>
      <trkpt lat="37.202975" lon="-8.833400">
        <ele>56.385</ele>
        <time>2018-12-28T15:29:24Z</time>
      </trkpt>
      <trkpt lat="37.203020" lon="-8.833356">
        <ele>55.810</ele>
        <time>2018-12-28T15:29:28Z</time>
      </trkpt>
      <trkpt lat="37.203077" lon="-8.833292">
        <ele>56.896</ele>
        <time>2018-12-28T15:29:34Z</time>
      </trkpt>
      <trkpt lat="37.203248" lon="-8.833145">
        <ele>55.897</ele>
        <time>2018-12-28T15:29:50Z</time>
      </trkpt>
      <trkpt lat="37.203390" lon="-8.833003">
        <ele>55.855</ele>
        <time>2018-12-28T15:30:03Z</time>
      </trkpt>
      <trkpt lat="37.203414" lon="-8.832976">
        <ele>55.421</ele>
        <time>2018-12-28T15:30:06Z</time>
      </trkpt>
      <trkpt lat="37.203570" lon="-8.832781">
        <ele>55.838</ele>
        <time>2018-12-28T15:30:23Z</time>
      </trkpt>
      <trkpt lat="37.203713" lon="-8.832650">
        <ele>56.370</ele>
        <time>2018-12-28T15:30:36Z</time>
      </trkpt>
      <trkpt lat="37.203868" lon="-8.832529">
        <ele>55.817</ele>
        <time>2018-12-28T15:30:50Z</time>
      </trkpt>
      <trkpt lat="37.203934" lon="-8.832483">
        <ele>54.908</ele>
        <time>2018-12-28T15:30:56Z</time>
      </trkpt>
      <trkpt lat="37.204100" lon="-8.832327">
        <ele>54.456</ele>
        <time>2018-12-28T15:31:12Z</time>
      </trkpt>
      <trkpt lat="37.204107" lon="-8.832312">
        <ele>54.434</ele>
        <time>2018-12-28T15:31:13Z</time>
      </trkpt>
      <trkpt lat="37.204133" lon="-8.832226">
        <ele>54.961</ele>
        <time>2018-12-28T15:31:18Z</time>
      </trkpt>
      <trkpt lat="37.204206" lon="-8.831943">
        <ele>53.416</ele>
        <time>2018-12-28T15:31:35Z</time>
      </trkpt>
      <trkpt lat="37.204258" lon="-8.831729">
        <ele>52.552</ele>
        <time>2018-12-28T15:31:49Z</time>
      </trkpt>
      <trkpt lat="37.204326" lon="-8.831516">
        <ele>52.553</ele>
        <time>2018-12-28T15:32:03Z</time>
      </trkpt>
      <trkpt lat="37.204410" lon="-8.831299">
        <ele>52.541</ele>
        <time>2018-12-28T15:32:17Z</time>
      </trkpt>
      <trkpt lat="37.204431" lon="-8.831253">
        <ele>52.027</ele>
        <time>2018-12-28T15:32:20Z</time>
      </trkpt>
      <trkpt lat="37.204587" lon="-8.831141">
        <ele>52.019</ele>
        <time>2018-12-28T15:32:35Z</time>
      </trkpt>
      <trkpt lat="37.204608" lon="-8.831121">
        <ele>52.009</ele>
        <time>2018-12-28T15:32:37Z</time>
      </trkpt>
      <trkpt lat="37.204708" lon="-8.831064">
        <ele>52.019</ele>
        <time>2018-12-28T15:32:47Z</time>
      </trkpt>
      <trkpt lat="37.204817" lon="-8.831024">
        <ele>53.408</ele>
        <time>2018-12-28T15:32:56Z</time>
      </trkpt>
      <trkpt lat="37.204942" lon="-8.830962">
        <ele>53.454</ele>
        <time>2018-12-28T15:33:07Z</time>
      </trkpt>
      <trkpt lat="37.205086" lon="-8.830893">
        <ele>53.982</ele>
        <time>2018-12-28T15:33:19Z</time>
      </trkpt>
      <trkpt lat="37.205185" lon="-8.830827">
        <ele>53.459</ele>
        <time>2018-12-28T15:33:28Z</time>
      </trkpt>
      <trkpt lat="37.205331" lon="-8.830737">
        <ele>53.914</ele>
        <time>2018-12-28T15:33:40Z</time>
      </trkpt>
      <trkpt lat="37.205464" lon="-8.830637">
        <ele>54.470</ele>
        <time>2018-12-28T15:33:52Z</time>
      </trkpt>
      <trkpt lat="37.205587" lon="-8.830470">
        <ele>54.921</ele>
        <time>2018-12-28T15:34:06Z</time>
      </trkpt>
      <trkpt lat="37.205602" lon="-8.830414">
        <ele>54.919</ele>
        <time>2018-12-28T15:34:10Z</time>
      </trkpt>
      <trkpt lat="37.205732" lon="-8.830204">
        <ele>54.995</ele>
        <time>2018-12-28T15:34:26Z</time>
      </trkpt>
      <trkpt lat="37.205806" lon="-8.830128">
        <ele>54.986</ele>
        <time>2018-12-28T15:34:33Z</time>
      </trkpt>
      <trkpt lat="37.205943" lon="-8.829945">
        <ele>54.960</ele>
        <time>2018-12-28T15:34:48Z</time>
      </trkpt>
      <trkpt lat="37.206042" lon="-8.829737">
        <ele>54.926</ele>
        <time>2018-12-28T15:35:03Z</time>
      </trkpt>
      <trkpt lat="37.206057" lon="-8.829709">
        <ele>54.908</ele>
        <time>2018-12-28T15:35:05Z</time>
      </trkpt>
      <trkpt lat="37.206118" lon="-8.829567">
        <ele>54.961</ele>
        <time>2018-12-28T15:35:15Z</time>
      </trkpt>
      <trkpt lat="37.206254" lon="-8.829392">
        <ele>55.869</ele>
        <time>2018-12-28T15:35:29Z</time>
      </trkpt>
      <trkpt lat="37.206362" lon="-8.829239">
        <ele>55.466</ele>
        <time>2018-12-28T15:35:40Z</time>
      </trkpt>
      <trkpt lat="37.206468" lon="-8.829056">
        <ele>56.361</ele>
        <time>2018-12-28T15:35:53Z</time>
      </trkpt>
      <trkpt lat="37.206523" lon="-8.828928">
        <ele>56.817</ele>
        <time>2018-12-28T15:36:02Z</time>
      </trkpt>
      <trkpt lat="37.206630" lon="-8.828714">
        <ele>56.348</ele>
        <time>2018-12-28T15:36:17Z</time>
      </trkpt>
      <trkpt lat="37.206711" lon="-8.828508">
        <ele>56.396</ele>
        <time>2018-12-28T15:36:30Z</time>
      </trkpt>
      <trkpt lat="37.206727" lon="-8.828325">
        <ele>56.832</ele>
        <time>2018-12-28T15:36:41Z</time>
      </trkpt>
      <trkpt lat="37.206779" lon="-8.828115">
        <ele>56.885</ele>
        <time>2018-12-28T15:36:54Z</time>
      </trkpt>
      <trkpt lat="37.206809" lon="-8.828050">
        <ele>56.889</ele>
        <time>2018-12-28T15:36:58Z</time>
      </trkpt>
      <trkpt lat="37.206872" lon="-8.827825">
        <ele>57.317</ele>
        <time>2018-12-28T15:37:13Z</time>
      </trkpt>
      <trkpt lat="37.206879" lon="-8.827810">
        <ele>57.308</ele>
        <time>2018-12-28T15:37:14Z</time>
      </trkpt>
      <trkpt lat="37.206909" lon="-8.827664">
        <ele>57.361</ele>
        <time>2018-12-28T15:37:23Z</time>
      </trkpt>
      <trkpt lat="37.206960" lon="-8.827443">
        <ele>57.349</ele>
        <time>2018-12-28T15:37:38Z</time>
      </trkpt>
      <trkpt lat="37.206963" lon="-8.827411">
        <ele>57.386</ele>
        <time>2018-12-28T15:37:40Z</time>
      </trkpt>
      <trkpt lat="37.206976" lon="-8.827384">
        <ele>57.891</ele>
        <time>2018-12-28T15:37:42Z</time>
      </trkpt>
      <trkpt lat="37.207019" lon="-8.827254">
        <ele>57.877</ele>
        <time>2018-12-28T15:37:51Z</time>
      </trkpt>
      <trkpt lat="37.207173" lon="-8.827145">
        <ele>58.318</ele>
        <time>2018-12-28T15:38:06Z</time>
      </trkpt>
      <trkpt lat="37.207201" lon="-8.827143">
        <ele>58.386</ele>
        <time>2018-12-28T15:38:22Z</time>
      </trkpt>
      <trkpt lat="37.207226" lon="-8.827123">
        <ele>58.732</ele>
        <time>2018-12-28T15:38:25Z</time>
      </trkpt>
      <trkpt lat="37.207306" lon="-8.827082">
        <ele>59.247</ele>
        <time>2018-12-28T15:38:33Z</time>
      </trkpt>
      <trkpt lat="37.207419" lon="-8.827068">
        <ele>61.629</ele>
        <time>2018-12-28T15:38:43Z</time>
      </trkpt>
      <trkpt lat="37.207458" lon="-8.827078">
        <ele>62.121</ele>
        <time>2018-12-28T15:38:46Z</time>
      </trkpt>
      <trkpt lat="37.207578" lon="-8.827118">
        <ele>63.108</ele>
        <time>2018-12-28T15:38:56Z</time>
      </trkpt>
      <trkpt lat="37.207604" lon="-8.827162">
        <ele>63.187</ele>
        <time>2018-12-28T15:39:02Z</time>
      </trkpt>
      <trkpt lat="37.207630" lon="-8.827186">
        <ele>63.585</ele>
        <time>2018-12-28T15:39:06Z</time>
      </trkpt>
      <trkpt lat="37.207674" lon="-8.827195">
        <ele>63.112</ele>
        <time>2018-12-28T15:39:11Z</time>
      </trkpt>
      <trkpt lat="37.207726" lon="-8.827213">
        <ele>63.527</ele>
        <time>2018-12-28T15:39:15Z</time>
      </trkpt>
      <trkpt lat="37.207798" lon="-8.827228">
        <ele>64.093</ele>
        <time>2018-12-28T15:39:20Z</time>
      </trkpt>
      <trkpt lat="37.207973" lon="-8.827228">
        <ele>64.074</ele>
        <time>2018-12-28T15:39:32Z</time>
      </trkpt>
      <trkpt lat="37.208083" lon="-8.827272">
        <ele>64.022</ele>
        <time>2018-12-28T15:39:43Z</time>
      </trkpt>
      <trkpt lat="37.208260" lon="-8.827307">
        <ele>65.528</ele>
        <time>2018-12-28T15:39:56Z</time>
      </trkpt>
      <trkpt lat="37.208343" lon="-8.827314">
        <ele>65.981</ele>
        <time>2018-12-28T15:40:02Z</time>
      </trkpt>
      <trkpt lat="37.208405" lon="-8.827348">
        <ele>66.461</ele>
        <time>2018-12-28T15:40:07Z</time>
      </trkpt>
      <trkpt lat="37.208427" lon="-8.827363">
        <ele>66.917</ele>
        <time>2018-12-28T15:40:09Z</time>
      </trkpt>
      <trkpt lat="37.208486" lon="-8.827409">
        <ele>67.908</ele>
        <time>2018-12-28T15:40:18Z</time>
      </trkpt>
      <trkpt lat="37.208565" lon="-8.827492">
        <ele>68.861</ele>
        <time>2018-12-28T15:40:25Z</time>
      </trkpt>
      <trkpt lat="37.208706" lon="-8.827641">
        <ele>70.399</ele>
        <time>2018-12-28T15:40:38Z</time>
      </trkpt>
      <trkpt lat="37.208742" lon="-8.827670">
        <ele>70.386</ele>
        <time>2018-12-28T15:40:41Z</time>
      </trkpt>
      <trkpt lat="37.208771" lon="-8.827703">
        <ele>70.751</ele>
        <time>2018-12-28T15:40:44Z</time>
      </trkpt>
      <trkpt lat="37.208801" lon="-8.827755">
        <ele>71.287</ele>
        <time>2018-12-28T15:40:50Z</time>
      </trkpt>
      <trkpt lat="37.208832" lon="-8.827783">
        <ele>71.768</ele>
        <time>2018-12-28T15:40:53Z</time>
      </trkpt>
      <trkpt lat="37.208862" lon="-8.827831">
        <ele>72.216</ele>
        <time>2018-12-28T15:40:56Z</time>
      </trkpt>
      <trkpt lat="37.208892" lon="-8.827890">
        <ele>72.722</ele>
        <time>2018-12-28T15:40:59Z</time>
      </trkpt>
      <trkpt lat="37.208909" lon="-8.827913">
        <ele>73.652</ele>
        <time>2018-12-28T15:41:01Z</time>
      </trkpt>
      <trkpt lat="37.209003" lon="-8.827997">
        <ele>74.653</ele>
        <time>2018-12-28T15:41:11Z</time>
      </trkpt>
      <trkpt lat="37.209094" lon="-8.828029">
        <ele>75.108</ele>
        <time>2018-12-28T15:41:15Z</time>
      </trkpt>
      <trkpt lat="37.209166" lon="-8.828106">
        <ele>76.008</ele>
        <time>2018-12-28T15:41:20Z</time>
      </trkpt>
      <trkpt lat="37.209220" lon="-8.828182">
        <ele>76.518</ele>
        <time>2018-12-28T15:41:25Z</time>
      </trkpt>
      <trkpt lat="37.209285" lon="-8.828194">
        <ele>77.046</ele>
        <time>2018-12-28T15:41:30Z</time>
      </trkpt>
      <trkpt lat="37.209366" lon="-8.828233">
        <ele>78.093</ele>
        <time>2018-12-28T15:41:35Z</time>
      </trkpt>
      <trkpt lat="37.209417" lon="-8.828293">
        <ele>78.438</ele>
        <time>2018-12-28T15:41:39Z</time>
      </trkpt>
      <trkpt lat="37.209434" lon="-8.828331">
        <ele>78.484</ele>
        <time>2018-12-28T15:41:41Z</time>
      </trkpt>
      <trkpt lat="37.209449" lon="-8.828369">
        <ele>79.445</ele>
        <time>2018-12-28T15:41:46Z</time>
      </trkpt>
      <trkpt lat="37.209514" lon="-8.828414">
        <ele>80.433</ele>
        <time>2018-12-28T15:41:50Z</time>
      </trkpt>
      <trkpt lat="37.209541" lon="-8.828466">
        <ele>80.889</ele>
        <time>2018-12-28T15:41:53Z</time>
      </trkpt>
      <trkpt lat="37.209583" lon="-8.828567">
        <ele>81.857</ele>
        <time>2018-12-28T15:42:00Z</time>
      </trkpt>
      <trkpt lat="37.209613" lon="-8.828595">
        <ele>82.300</ele>
        <time>2018-12-28T15:42:03Z</time>
      </trkpt>
      <trkpt lat="37.209705" lon="-8.828680">
        <ele>83.220</ele>
        <time>2018-12-28T15:42:13Z</time>
      </trkpt>
      <trkpt lat="37.209766" lon="-8.828732">
        <ele>84.708</ele>
        <time>2018-12-28T15:42:18Z</time>
      </trkpt>
      <trkpt lat="37.209795" lon="-8.828788">
        <ele>85.248</ele>
        <time>2018-12-28T15:42:21Z</time>
      </trkpt>
      <trkpt lat="37.209815" lon="-8.828827">
        <ele>85.276</ele>
        <time>2018-12-28T15:42:24Z</time>
      </trkpt>
      <trkpt lat="37.209860" lon="-8.828911">
        <ele>85.673</ele>
        <time>2018-12-28T15:42:28Z</time>
      </trkpt>
      <trkpt lat="37.209902" lon="-8.829005">
        <ele>87.158</ele>
        <time>2018-12-28T15:42:34Z</time>
      </trkpt>
      <trkpt lat="37.209907" lon="-8.829039">
        <ele>87.124</ele>
        <time>2018-12-28T15:42:36Z</time>
      </trkpt>
      <trkpt lat="37.209984" lon="-8.829154">
        <ele>88.545</ele>
        <time>2018-12-28T15:42:46Z</time>
      </trkpt>
      <trkpt lat="37.210011" lon="-8.829159">
        <ele>89.053</ele>
        <time>2018-12-28T15:42:51Z</time>
      </trkpt>
      <trkpt lat="37.210078" lon="-8.829066">
        <ele>90.969</ele>
        <time>2018-12-28T15:43:01Z</time>
      </trkpt>
      <trkpt lat="37.210104" lon="-8.829022">
        <ele>91.437</ele>
        <time>2018-12-28T15:43:05Z</time>
      </trkpt>
      <trkpt lat="37.210118" lon="-8.829006">
        <ele>91.449</ele>
        <time>2018-12-28T15:43:06Z</time>
      </trkpt>
      <trkpt lat="37.210165" lon="-8.828947">
        <ele>92.413</ele>
        <time>2018-12-28T15:43:11Z</time>
      </trkpt>
      <trkpt lat="37.210201" lon="-8.828893">
        <ele>93.308</ele>
        <time>2018-12-28T15:43:16Z</time>
      </trkpt>
      <trkpt lat="37.210229" lon="-8.828858">
        <ele>93.856</ele>
        <time>2018-12-28T15:43:20Z</time>
      </trkpt>
      <trkpt lat="37.210247" lon="-8.828836">
        <ele>94.324</ele>
        <time>2018-12-28T15:43:23Z</time>
      </trkpt>
      <trkpt lat="37.210280" lon="-8.828804">
        <ele>95.331</ele>
        <time>2018-12-28T15:43:27Z</time>
      </trkpt>
      <trkpt lat="37.210368" lon="-8.828759">
        <ele>96.716</ele>
        <time>2018-12-28T15:43:34Z</time>
      </trkpt>
      <trkpt lat="37.210445" lon="-8.828716">
        <ele>97.222</ele>
        <time>2018-12-28T15:43:39Z</time>
      </trkpt>
      <trkpt lat="37.210496" lon="-8.828684">
        <ele>98.113</ele>
        <time>2018-12-28T15:43:44Z</time>
      </trkpt>
      <trkpt lat="37.210519" lon="-8.828653">
        <ele>99.161</ele>
        <time>2018-12-28T15:43:47Z</time>
      </trkpt>
      <trkpt lat="37.210593" lon="-8.828590">
        <ele>101.027</ele>
        <time>2018-12-28T15:43:55Z</time>
      </trkpt>
      <trkpt lat="37.210652" lon="-8.828597">
        <ele>101.549</ele>
        <time>2018-12-28T15:44:00Z</time>
      </trkpt>
      <trkpt lat="37.210737" lon="-8.828662">
        <ele>103.002</ele>
        <time>2018-12-28T15:44:04Z</time>
      </trkpt>
      <trkpt lat="37.210767" lon="-8.828715">
        <ele>103.922</ele>
        <time>2018-12-28T15:44:07Z</time>
      </trkpt>
      <trkpt lat="37.210768" lon="-8.828761">
        <ele>104.408</ele>
        <time>2018-12-28T15:44:10Z</time>
      </trkpt>
      <trkpt lat="37.210773" lon="-8.828821">
        <ele>104.437</ele>
        <time>2018-12-28T15:44:14Z</time>
      </trkpt>
      <trkpt lat="37.210781" lon="-8.828941">
        <ele>105.865</ele>
        <time>2018-12-28T15:44:22Z</time>
      </trkpt>
      <trkpt lat="37.210815" lon="-8.829016">
        <ele>106.852</ele>
        <time>2018-12-28T15:44:29Z</time>
      </trkpt>
      <trkpt lat="37.210870" lon="-8.829037">
        <ele>107.367</ele>
        <time>2018-12-28T15:44:34Z</time>
      </trkpt>
      <trkpt lat="37.210905" lon="-8.829043">
        <ele>107.813</ele>
        <time>2018-12-28T15:44:37Z</time>
      </trkpt>
      <trkpt lat="37.210944" lon="-8.829030">
        <ele>108.764</ele>
        <time>2018-12-28T15:44:40Z</time>
      </trkpt>
      <trkpt lat="37.211027" lon="-8.829038">
        <ele>110.212</ele>
        <time>2018-12-28T15:44:48Z</time>
      </trkpt>
      <trkpt lat="37.211048" lon="-8.829059">
        <ele>110.228</ele>
        <time>2018-12-28T15:44:51Z</time>
      </trkpt>
      <trkpt lat="37.211128" lon="-8.829061">
        <ele>112.122</ele>
        <time>2018-12-28T15:44:59Z</time>
      </trkpt>
      <trkpt lat="37.211193" lon="-8.829031">
        <ele>112.662</ele>
        <time>2018-12-28T15:45:06Z</time>
      </trkpt>
      <trkpt lat="37.211307" lon="-8.829047">
        <ele>115.008</ele>
        <time>2018-12-28T15:45:17Z</time>
      </trkpt>
      <trkpt lat="37.211334" lon="-8.829045">
        <ele>115.908</ele>
        <time>2018-12-28T15:45:20Z</time>
      </trkpt>
      <trkpt lat="37.211398" lon="-8.829064">
        <ele>116.465</ele>
        <time>2018-12-28T15:45:26Z</time>
      </trkpt>
      <trkpt lat="37.211515" lon="-8.829120">
        <ele>117.953</ele>
        <time>2018-12-28T15:45:38Z</time>
      </trkpt>
      <trkpt lat="37.211533" lon="-8.829135">
        <ele>117.920</ele>
        <time>2018-12-28T15:45:40Z</time>
      </trkpt>
      <trkpt lat="37.211574" lon="-8.829138">
        <ele>118.385</ele>
        <time>2018-12-28T15:45:44Z</time>
      </trkpt>
      <trkpt lat="37.211626" lon="-8.829158">
        <ele>118.821</ele>
        <time>2018-12-28T15:45:48Z</time>
      </trkpt>
      <trkpt lat="37.211696" lon="-8.829159">
        <ele>119.832</ele>
        <time>2018-12-28T15:45:55Z</time>
      </trkpt>
      <trkpt lat="37.211728" lon="-8.829182">
        <ele>119.320</ele>
        <time>2018-12-28T15:45:57Z</time>
      </trkpt>
      <trkpt lat="37.211821" lon="-8.829259">
        <ele>120.756</ele>
        <time>2018-12-28T15:46:05Z</time>
      </trkpt>
      <trkpt lat="37.211860" lon="-8.829301">
        <ele>121.214</ele>
        <time>2018-12-28T15:46:11Z</time>
      </trkpt>
      <trkpt lat="37.211892" lon="-8.829393">
        <ele>121.754</ele>
        <time>2018-12-28T15:46:15Z</time>
      </trkpt>
      <trkpt lat="37.211920" lon="-8.829440">
        <ele>121.709</ele>
        <time>2018-12-28T15:46:18Z</time>
      </trkpt>
      <trkpt lat="37.211958" lon="-8.829503">
        <ele>122.708</ele>
        <time>2018-12-28T15:46:21Z</time>
      </trkpt>
      <trkpt lat="37.211992" lon="-8.829529">
        <ele>123.124</ele>
        <time>2018-12-28T15:46:25Z</time>
      </trkpt>
      <trkpt lat="37.212053" lon="-8.829555">
        <ele>123.652</ele>
        <time>2018-12-28T15:46:30Z</time>
      </trkpt>
      <trkpt lat="37.212154" lon="-8.829611">
        <ele>125.149</ele>
        <time>2018-12-28T15:46:39Z</time>
      </trkpt>
      <trkpt lat="37.212178" lon="-8.829630">
        <ele>125.194</ele>
        <time>2018-12-28T15:46:41Z</time>
      </trkpt>
      <trkpt lat="37.212260" lon="-8.829662">
        <ele>126.010</ele>
        <time>2018-12-28T15:46:49Z</time>
      </trkpt>
      <trkpt lat="37.212289" lon="-8.829672">
        <ele>126.581</ele>
        <time>2018-12-28T15:46:51Z</time>
      </trkpt>
      <trkpt lat="37.212337" lon="-8.829659">
        <ele>127.059</ele>
        <time>2018-12-28T15:46:55Z</time>
      </trkpt>
      <trkpt lat="37.212428" lon="-8.829658">
        <ele>127.915</ele>
        <time>2018-12-28T15:47:02Z</time>
      </trkpt>
      <trkpt lat="37.212600" lon="-8.829704">
        <ele>129.469</ele>
        <time>2018-12-28T15:47:13Z</time>
      </trkpt>
      <trkpt lat="37.212655" lon="-8.829727">
        <ele>130.404</ele>
        <time>2018-12-28T15:47:18Z</time>
      </trkpt>
      <trkpt lat="37.212841" lon="-8.829766">
        <ele>130.824</ele>
        <time>2018-12-28T15:47:28Z</time>
      </trkpt>
      <trkpt lat="37.212989" lon="-8.829762">
        <ele>131.808</ele>
        <time>2018-12-28T15:47:33Z</time>
      </trkpt>
      <trkpt lat="37.213147" lon="-8.829735">
        <ele>132.849</ele>
        <time>2018-12-28T15:47:42Z</time>
      </trkpt>
      <trkpt lat="37.213268" lon="-8.829679">
        <ele>133.277</ele>
        <time>2018-12-28T15:47:51Z</time>
      </trkpt>
      <trkpt lat="37.213417" lon="-8.829625">
        <ele>134.224</ele>
        <time>2018-12-28T15:48:01Z</time>
      </trkpt>
      <trkpt lat="37.213532" lon="-8.829586">
        <ele>134.749</ele>
        <time>2018-12-28T15:48:10Z</time>
      </trkpt>
      <trkpt lat="37.213703" lon="-8.829519">
        <ele>135.685</ele>
        <time>2018-12-28T15:48:22Z</time>
      </trkpt>
      <trkpt lat="37.213878" lon="-8.829507">
        <ele>136.616</ele>
        <time>2018-12-28T15:48:34Z</time>
      </trkpt>
      <trkpt lat="37.213968" lon="-8.829505">
        <ele>136.664</ele>
        <time>2018-12-28T15:48:39Z</time>
      </trkpt>
      <trkpt lat="37.214036" lon="-8.829522">
        <ele>137.150</ele>
        <time>2018-12-28T15:48:45Z</time>
      </trkpt>
      <trkpt lat="37.214115" lon="-8.829520">
        <ele>137.647</ele>
        <time>2018-12-28T15:48:51Z</time>
      </trkpt>
      <trkpt lat="37.214170" lon="-8.829526">
        <ele>137.629</ele>
        <time>2018-12-28T15:48:55Z</time>
      </trkpt>
      <trkpt lat="37.214269" lon="-8.829516">
        <ele>137.621</ele>
        <time>2018-12-28T15:49:02Z</time>
      </trkpt>
      <trkpt lat="37.214401" lon="-8.829520">
        <ele>138.508</ele>
        <time>2018-12-28T15:49:10Z</time>
      </trkpt>
      <trkpt lat="37.214566" lon="-8.829502">
        <ele>138.577</ele>
        <time>2018-12-28T15:49:22Z</time>
      </trkpt>
      <trkpt lat="37.214712" lon="-8.829481">
        <ele>139.545</ele>
        <time>2018-12-28T15:49:33Z</time>
      </trkpt>
      <trkpt lat="37.214887" lon="-8.829454">
        <ele>140.032</ele>
        <time>2018-12-28T15:49:46Z</time>
      </trkpt>
      <trkpt lat="37.215019" lon="-8.829424">
        <ele>140.017</ele>
        <time>2018-12-28T15:49:57Z</time>
      </trkpt>
      <trkpt lat="37.215174" lon="-8.829383">
        <ele>140.053</ele>
        <time>2018-12-28T15:50:09Z</time>
      </trkpt>
      <trkpt lat="37.215320" lon="-8.829352">
        <ele>140.424</ele>
        <time>2018-12-28T15:50:19Z</time>
      </trkpt>
      <trkpt lat="37.215370" lon="-8.829340">
        <ele>139.512</ele>
        <time>2018-12-28T15:50:23Z</time>
      </trkpt>
      <trkpt lat="37.215518" lon="-8.829304">
        <ele>140.058</ele>
        <time>2018-12-28T15:50:34Z</time>
      </trkpt>
      <trkpt lat="37.215612" lon="-8.829287">
        <ele>139.089</ele>
        <time>2018-12-28T15:50:41Z</time>
      </trkpt>
      <trkpt lat="37.215807" lon="-8.829243">
        <ele>139.006</ele>
        <time>2018-12-28T15:50:56Z</time>
      </trkpt>
      <trkpt lat="37.215964" lon="-8.829219">
        <ele>138.526</ele>
        <time>2018-12-28T15:51:08Z</time>
      </trkpt>
      <trkpt lat="37.215976" lon="-8.829216">
        <ele>138.008</ele>
        <time>2018-12-28T15:51:09Z</time>
      </trkpt>
      <trkpt lat="37.216027" lon="-8.829193">
        <ele>138.591</ele>
        <time>2018-12-28T15:51:13Z</time>
      </trkpt>
      <trkpt lat="37.216056" lon="-8.829197">
        <ele>137.669</ele>
        <time>2018-12-28T15:51:15Z</time>
      </trkpt>
      <trkpt lat="37.216109" lon="-8.829188">
        <ele>138.556</ele>
        <time>2018-12-28T15:51:19Z</time>
      </trkpt>
      <trkpt lat="37.216262" lon="-8.829169">
        <ele>138.081</ele>
        <time>2018-12-28T15:51:31Z</time>
      </trkpt>
      <trkpt lat="37.216363" lon="-8.829153">
        <ele>137.687</ele>
        <time>2018-12-28T15:51:39Z</time>
      </trkpt>
      <trkpt lat="37.216432" lon="-8.829143">
        <ele>137.188</ele>
        <time>2018-12-28T15:51:44Z</time>
      </trkpt>
      <trkpt lat="37.216499" lon="-8.829122">
        <ele>137.676</ele>
        <time>2018-12-28T15:51:49Z</time>
      </trkpt>
      <trkpt lat="37.216541" lon="-8.829118">
        <ele>137.182</ele>
        <time>2018-12-28T15:51:52Z</time>
      </trkpt>
      <trkpt lat="37.216655" lon="-8.829105">
        <ele>136.652</ele>
        <time>2018-12-28T15:52:00Z</time>
      </trkpt>
      <trkpt lat="37.216725" lon="-8.829105">
        <ele>136.653</ele>
        <time>2018-12-28T15:52:05Z</time>
      </trkpt>
      <trkpt lat="37.216819" lon="-8.829094">
        <ele>136.108</ele>
        <time>2018-12-28T15:52:12Z</time>
      </trkpt>
      <trkpt lat="37.216917" lon="-8.829081">
        <ele>136.108</ele>
        <time>2018-12-28T15:52:19Z</time>
      </trkpt>
      <trkpt lat="37.217020" lon="-8.829052">
        <ele>135.638</ele>
        <time>2018-12-28T15:52:27Z</time>
      </trkpt>
      <trkpt lat="37.217193" lon="-8.829032">
        <ele>135.646</ele>
        <time>2018-12-28T15:52:39Z</time>
      </trkpt>
      <trkpt lat="37.217347" lon="-8.828963">
        <ele>134.743</ele>
        <time>2018-12-28T15:52:51Z</time>
      </trkpt>
      <trkpt lat="37.217408" lon="-8.828923">
        <ele>134.248</ele>
        <time>2018-12-28T15:52:56Z</time>
      </trkpt>
      <trkpt lat="37.217436" lon="-8.828846">
        <ele>133.734</ele>
        <time>2018-12-28T15:53:01Z</time>
      </trkpt>
      <trkpt lat="37.217453" lon="-8.828806">
        <ele>134.245</ele>
        <time>2018-12-28T15:53:04Z</time>
      </trkpt>
      <trkpt lat="37.217458" lon="-8.828767">
        <ele>133.773</ele>
        <time>2018-12-28T15:53:07Z</time>
      </trkpt>
      <trkpt lat="37.217472" lon="-8.828724">
        <ele>133.299</ele>
        <time>2018-12-28T15:53:10Z</time>
      </trkpt>
      <trkpt lat="37.217634" lon="-8.828626">
        <ele>132.819</ele>
        <time>2018-12-28T15:53:24Z</time>
      </trkpt>
      <trkpt lat="37.217683" lon="-8.828606">
        <ele>133.209</ele>
        <time>2018-12-28T15:53:28Z</time>
      </trkpt>
      <trkpt lat="37.217730" lon="-8.828607">
        <ele>132.819</ele>
        <time>2018-12-28T15:53:31Z</time>
      </trkpt>
      <trkpt lat="37.217825" lon="-8.828639">
        <ele>132.308</ele>
        <time>2018-12-28T15:53:37Z</time>
      </trkpt>
      <trkpt lat="37.217892" lon="-8.828677">
        <ele>132.334</ele>
        <time>2018-12-28T15:53:41Z</time>
      </trkpt>
      <trkpt lat="37.218052" lon="-8.828703">
        <ele>131.812</ele>
        <time>2018-12-28T15:53:51Z</time>
      </trkpt>
      <trkpt lat="37.218121" lon="-8.828720">
        <ele>131.399</ele>
        <time>2018-12-28T15:53:56Z</time>
      </trkpt>
      <trkpt lat="37.218227" lon="-8.828740">
        <ele>131.354</ele>
        <time>2018-12-28T15:54:03Z</time>
      </trkpt>
      <trkpt lat="37.218326" lon="-8.828744">
        <ele>130.860</ele>
        <time>2018-12-28T15:54:10Z</time>
      </trkpt>
      <trkpt lat="37.218494" lon="-8.828764">
        <ele>129.941</ele>
        <time>2018-12-28T15:54:22Z</time>
      </trkpt>
      <trkpt lat="37.218635" lon="-8.828756">
        <ele>129.969</ele>
        <time>2018-12-28T15:54:33Z</time>
      </trkpt>
      <trkpt lat="37.218813" lon="-8.828747">
        <ele>128.935</ele>
        <time>2018-12-28T15:54:47Z</time>
      </trkpt>
      <trkpt lat="37.218988" lon="-8.828816">
        <ele>128.484</ele>
        <time>2018-12-28T15:55:00Z</time>
      </trkpt>
      <trkpt lat="37.219126" lon="-8.828864">
        <ele>127.507</ele>
        <time>2018-12-28T15:55:10Z</time>
      </trkpt>
      <trkpt lat="37.219308" lon="-8.828832">
        <ele>127.517</ele>
        <time>2018-12-28T15:55:23Z</time>
      </trkpt>
      <trkpt lat="37.219404" lon="-8.828765">
        <ele>126.508</ele>
        <time>2018-12-28T15:55:31Z</time>
      </trkpt>
      <trkpt lat="37.219561" lon="-8.828687">
        <ele>126.511</ele>
        <time>2018-12-28T15:55:43Z</time>
      </trkpt>
      <trkpt lat="37.219716" lon="-8.828621">
        <ele>126.539</ele>
        <time>2018-12-28T15:55:56Z</time>
      </trkpt>
      <trkpt lat="37.219798" lon="-8.828586">
        <ele>126.056</ele>
        <time>2018-12-28T15:56:03Z</time>
      </trkpt>
      <trkpt lat="37.219853" lon="-8.828555">
        <ele>126.041</ele>
        <time>2018-12-28T15:56:08Z</time>
      </trkpt>
      <trkpt lat="37.219886" lon="-8.828522">
        <ele>126.057</ele>
        <time>2018-12-28T15:56:11Z</time>
      </trkpt>
      <trkpt lat="37.220006" lon="-8.828445">
        <ele>125.178</ele>
        <time>2018-12-28T15:56:21Z</time>
      </trkpt>
      <trkpt lat="37.220122" lon="-8.828370">
        <ele>125.196</ele>
        <time>2018-12-28T15:56:31Z</time>
      </trkpt>
      <trkpt lat="37.220139" lon="-8.828366">
        <ele>124.652</ele>
        <time>2018-12-28T15:56:33Z</time>
      </trkpt>
      <trkpt lat="37.220194" lon="-8.828331">
        <ele>124.128</ele>
        <time>2018-12-28T15:56:37Z</time>
      </trkpt>
      <trkpt lat="37.220378" lon="-8.828205">
        <ele>123.189</ele>
        <time>2018-12-28T15:56:51Z</time>
      </trkpt>
      <trkpt lat="37.220460" lon="-8.828156">
        <ele>123.117</ele>
        <time>2018-12-28T15:56:57Z</time>
      </trkpt>
      <trkpt lat="37.220509" lon="-8.828153">
        <ele>122.708</ele>
        <time>2018-12-28T15:57:01Z</time>
      </trkpt>
      <trkpt lat="37.220598" lon="-8.828210">
        <ele>122.265</ele>
        <time>2018-12-28T15:57:13Z</time>
      </trkpt>
      <trkpt lat="37.220726" lon="-8.828147">
        <ele>122.253</ele>
        <time>2018-12-28T15:57:20Z</time>
      </trkpt>
      <trkpt lat="37.220930" lon="-8.828092">
        <ele>122.210</ele>
        <time>2018-12-28T15:57:31Z</time>
      </trkpt>
      <trkpt lat="37.220962" lon="-8.828108">
        <ele>121.795</ele>
        <time>2018-12-28T15:57:39Z</time>
      </trkpt>
      <trkpt lat="37.221022" lon="-8.828099">
        <ele>121.731</ele>
        <time>2018-12-28T15:57:44Z</time>
      </trkpt>
      <trkpt lat="37.221116" lon="-8.828068">
        <ele>121.712</ele>
        <time>2018-12-28T15:57:49Z</time>
      </trkpt>
      <trkpt lat="37.221247" lon="-8.828028">
        <ele>121.210</ele>
        <time>2018-12-28T15:57:58Z</time>
      </trkpt>
      <trkpt lat="37.221359" lon="-8.827992">
        <ele>122.236</ele>
        <time>2018-12-28T15:58:07Z</time>
      </trkpt>
      <trkpt lat="37.221478" lon="-8.827954">
        <ele>123.137</ele>
        <time>2018-12-28T15:58:15Z</time>
      </trkpt>
      <trkpt lat="37.221592" lon="-8.827936">
        <ele>125.149</ele>
        <time>2018-12-28T15:58:23Z</time>
      </trkpt>
      <trkpt lat="37.221644" lon="-8.827925">
        <ele>124.613</ele>
        <time>2018-12-28T15:58:29Z</time>
      </trkpt>
      <trkpt lat="37.221808" lon="-8.827869">
        <ele>124.608</ele>
        <time>2018-12-28T15:58:41Z</time>
      </trkpt>
      <trkpt lat="37.221864" lon="-8.827916">
        <ele>125.146</ele>
        <time>2018-12-28T15:58:48Z</time>
      </trkpt>
      <trkpt lat="37.221996" lon="-8.828038">
        <ele>125.114</ele>
        <time>2018-12-28T15:58:59Z</time>
      </trkpt>
      <trkpt lat="37.222002" lon="-8.828049">
        <ele>125.181</ele>
        <time>2018-12-28T15:59:00Z</time>
      </trkpt>
      <trkpt lat="37.222017" lon="-8.828068">
        <ele>125.186</ele>
        <time>2018-12-28T15:59:02Z</time>
      </trkpt>
      <trkpt lat="37.222099" lon="-8.828090">
        <ele>124.622</ele>
        <time>2018-12-28T15:59:07Z</time>
      </trkpt>
      <trkpt lat="37.222142" lon="-8.828098">
        <ele>124.653</ele>
        <time>2018-12-28T15:59:10Z</time>
      </trkpt>
      <trkpt lat="37.222210" lon="-8.828107">
        <ele>124.161</ele>
        <time>2018-12-28T15:59:16Z</time>
      </trkpt>
      <trkpt lat="37.222314" lon="-8.828145">
        <ele>123.147</ele>
        <time>2018-12-28T15:59:26Z</time>
      </trkpt>
      <trkpt lat="37.222406" lon="-8.828152">
        <ele>121.292</ele>
        <time>2018-12-28T15:59:35Z</time>
      </trkpt>
      <trkpt lat="37.222455" lon="-8.828153">
        <ele>120.773</ele>
        <time>2018-12-28T15:59:40Z</time>
      </trkpt>
      <trkpt lat="37.222491" lon="-8.828155">
        <ele>121.220</ele>
        <time>2018-12-28T15:59:43Z</time>
      </trkpt>
      <trkpt lat="37.222695" lon="-8.828168">
        <ele>119.308</ele>
        <time>2018-12-28T15:59:59Z</time>
      </trkpt>
      <trkpt lat="37.222711" lon="-8.828166">
        <ele>119.342</ele>
        <time>2018-12-28T16:00:00Z</time>
      </trkpt>
      <trkpt lat="37.222787" lon="-8.828169">
        <ele>119.350</ele>
        <time>2018-12-28T16:00:06Z</time>
      </trkpt>
      <trkpt lat="37.223003" lon="-8.828220">
        <ele>116.427</ele>
        <time>2018-12-28T16:00:22Z</time>
      </trkpt>
      <trkpt lat="37.223017" lon="-8.828219">
        <ele>116.432</ele>
        <time>2018-12-28T16:00:23Z</time>
      </trkpt>
      <trkpt lat="37.223149" lon="-8.828230">
        <ele>114.518</ele>
        <time>2018-12-28T16:00:33Z</time>
      </trkpt>
      <trkpt lat="37.223389" lon="-8.828279">
        <ele>114.559</ele>
        <time>2018-12-28T16:00:51Z</time>
      </trkpt>
      <trkpt lat="37.223400" lon="-8.828283">
        <ele>114.077</ele>
        <time>2018-12-28T16:00:52Z</time>
      </trkpt>
      <trkpt lat="37.223520" lon="-8.828303">
        <ele>114.093</ele>
        <time>2018-12-28T16:01:01Z</time>
      </trkpt>
      <trkpt lat="37.223551" lon="-8.828311">
        <ele>114.061</ele>
        <time>2018-12-28T16:01:03Z</time>
      </trkpt>
      <trkpt lat="37.223671" lon="-8.828332">
        <ele>113.021</ele>
        <time>2018-12-28T16:01:12Z</time>
      </trkpt>
      <trkpt lat="37.223780" lon="-8.828363">
        <ele>112.613</ele>
        <time>2018-12-28T16:01:20Z</time>
      </trkpt>
      <trkpt lat="37.223818" lon="-8.828367">
        <ele>112.608</ele>
        <time>2018-12-28T16:01:23Z</time>
      </trkpt>
      <trkpt lat="37.224040" lon="-8.828393">
        <ele>112.169</ele>
        <time>2018-12-28T16:01:39Z</time>
      </trkpt>
      <trkpt lat="37.224199" lon="-8.828424">
        <ele>112.187</ele>
        <time>2018-12-28T16:01:51Z</time>
      </trkpt>
      <trkpt lat="37.224380" lon="-8.828426">
        <ele>112.154</ele>
        <time>2018-12-28T16:02:04Z</time>
      </trkpt>
      <trkpt lat="37.224560" lon="-8.828369">
        <ele>112.169</ele>
        <time>2018-12-28T16:02:17Z</time>
      </trkpt>
      <trkpt lat="37.224582" lon="-8.828363">
        <ele>112.695</ele>
        <time>2018-12-28T16:02:19Z</time>
      </trkpt>
      <trkpt lat="37.224648" lon="-8.828325">
        <ele>113.076</ele>
        <time>2018-12-28T16:02:24Z</time>
      </trkpt>
      <trkpt lat="37.224845" lon="-8.828260">
        <ele>114.084</ele>
        <time>2018-12-28T16:02:38Z</time>
      </trkpt>
      <trkpt lat="37.224974" lon="-8.828264">
        <ele>113.510</ele>
        <time>2018-12-28T16:02:50Z</time>
      </trkpt>
      <trkpt lat="37.224989" lon="-8.828266">
        <ele>113.543</ele>
        <time>2018-12-28T16:02:51Z</time>
      </trkpt>
      <trkpt lat="37.225052" lon="-8.828343">
        <ele>114.064</ele>
        <time>2018-12-28T16:03:05Z</time>
      </trkpt>
      <trkpt lat="37.225154" lon="-8.828445">
        <ele>112.610</ele>
        <time>2018-12-28T16:03:21Z</time>
      </trkpt>
      <trkpt lat="37.225180" lon="-8.828495">
        <ele>111.608</ele>
        <time>2018-12-28T16:03:25Z</time>
      </trkpt>
      <trkpt lat="37.225268" lon="-8.828577">
        <ele>111.637</ele>
        <time>2018-12-28T16:03:34Z</time>
      </trkpt>
      <trkpt lat="37.225387" lon="-8.828733">
        <ele>111.615</ele>
        <time>2018-12-28T16:03:48Z</time>
      </trkpt>
      <trkpt lat="37.225403" lon="-8.828749">
        <ele>111.662</ele>
        <time>2018-12-28T16:04:00Z</time>
      </trkpt>
      <trkpt lat="37.225507" lon="-8.828862">
        <ele>111.167</ele>
        <time>2018-12-28T16:04:10Z</time>
      </trkpt>
      <trkpt lat="37.225544" lon="-8.828906">
        <ele>110.683</ele>
        <time>2018-12-28T16:04:14Z</time>
      </trkpt>
      <trkpt lat="37.225587" lon="-8.828972">
        <ele>109.744</ele>
        <time>2018-12-28T16:04:24Z</time>
      </trkpt>
      <trkpt lat="37.225674" lon="-8.829078">
        <ele>110.662</ele>
        <time>2018-12-28T16:04:33Z</time>
      </trkpt>
      <trkpt lat="37.225696" lon="-8.829097">
        <ele>110.698</ele>
        <time>2018-12-28T16:04:35Z</time>
      </trkpt>
      <trkpt lat="37.225726" lon="-8.829132">
        <ele>110.676</ele>
        <time>2018-12-28T16:04:38Z</time>
      </trkpt>
      <trkpt lat="37.225793" lon="-8.829183">
        <ele>110.290</ele>
        <time>2018-12-28T16:04:44Z</time>
      </trkpt>
      <trkpt lat="37.225880" lon="-8.829326">
        <ele>108.719</ele>
        <time>2018-12-28T16:04:54Z</time>
      </trkpt>
      <trkpt lat="37.225979" lon="-8.829467">
        <ele>107.808</ele>
        <time>2018-12-28T16:05:04Z</time>
      </trkpt>
      <trkpt lat="37.226110" lon="-8.829635">
        <ele>106.320</ele>
        <time>2018-12-28T16:05:19Z</time>
      </trkpt>
      <trkpt lat="37.226138" lon="-8.829671">
        <ele>106.398</ele>
        <time>2018-12-28T16:05:22Z</time>
      </trkpt>
      <trkpt lat="37.226155" lon="-8.829702">
        <ele>106.385</ele>
        <time>2018-12-28T16:05:24Z</time>
      </trkpt>
      <trkpt lat="37.226213" lon="-8.829784">
        <ele>105.450</ele>
        <time>2018-12-28T16:05:30Z</time>
      </trkpt>
      <trkpt lat="37.226354" lon="-8.829934">
        <ele>105.416</ele>
        <time>2018-12-28T16:05:44Z</time>
      </trkpt>
      <trkpt lat="37.226373" lon="-8.829955">
        <ele>104.947</ele>
        <time>2018-12-28T16:05:46Z</time>
      </trkpt>
      <trkpt lat="37.226518" lon="-8.830097">
        <ele>103.495</ele>
        <time>2018-12-28T16:06:00Z</time>
      </trkpt>
      <trkpt lat="37.226547" lon="-8.830134">
        <ele>104.971</ele>
        <time>2018-12-28T16:06:03Z</time>
      </trkpt>
      <trkpt lat="37.226590" lon="-8.830174">
        <ele>104.481</ele>
        <time>2018-12-28T16:06:07Z</time>
      </trkpt>
      <trkpt lat="37.226647" lon="-8.830224">
        <ele>104.461</ele>
        <time>2018-12-28T16:06:12Z</time>
      </trkpt>
      <trkpt lat="37.226738" lon="-8.830366">
        <ele>104.417</ele>
        <time>2018-12-28T16:06:23Z</time>
      </trkpt>
      <trkpt lat="37.226752" lon="-8.830409">
        <ele>104.408</ele>
        <time>2018-12-28T16:06:26Z</time>
      </trkpt>
      <trkpt lat="37.226765" lon="-8.830474">
        <ele>104.971</ele>
        <time>2018-12-28T16:06:30Z</time>
      </trkpt>
      <trkpt lat="37.226791" lon="-8.830579">
        <ele>105.429</ele>
        <time>2018-12-28T16:06:36Z</time>
      </trkpt>
      <trkpt lat="37.226804" lon="-8.830634">
        <ele>105.486</ele>
        <time>2018-12-28T16:06:40Z</time>
      </trkpt>
      <trkpt lat="37.226842" lon="-8.830873">
        <ele>106.831</ele>
        <time>2018-12-28T16:06:54Z</time>
      </trkpt>
      <trkpt lat="37.226923" lon="-8.831055">
        <ele>108.217</ele>
        <time>2018-12-28T16:07:07Z</time>
      </trkpt>
      <trkpt lat="37.226960" lon="-8.831086">
        <ele>109.718</ele>
        <time>2018-12-28T16:07:18Z</time>
      </trkpt>
      <trkpt lat="37.226979" lon="-8.831113">
        <ele>109.776</ele>
        <time>2018-12-28T16:07:21Z</time>
      </trkpt>
      <trkpt lat="37.227003" lon="-8.831139">
        <ele>110.242</ele>
        <time>2018-12-28T16:07:24Z</time>
      </trkpt>
      <trkpt lat="37.227096" lon="-8.831304">
        <ele>111.653</ele>
        <time>2018-12-28T16:07:37Z</time>
      </trkpt>
      <trkpt lat="37.227159" lon="-8.831512">
        <ele>111.104</ele>
        <time>2018-12-28T16:07:50Z</time>
      </trkpt>
      <trkpt lat="37.227215" lon="-8.831686">
        <ele>109.214</ele>
        <time>2018-12-28T16:08:03Z</time>
      </trkpt>
      <trkpt lat="37.227216" lon="-8.831696">
        <ele>109.708</ele>
        <time>2018-12-28T16:08:13Z</time>
      </trkpt>
      <trkpt lat="37.227197" lon="-8.831750">
        <ele>110.288</ele>
        <time>2018-12-28T16:08:17Z</time>
      </trkpt>
      <trkpt lat="37.227208" lon="-8.831810">
        <ele>109.216</ele>
        <time>2018-12-28T16:08:21Z</time>
      </trkpt>
      <trkpt lat="37.227193" lon="-8.831884">
        <ele>109.723</ele>
        <time>2018-12-28T16:08:33Z</time>
      </trkpt>
      <trkpt lat="37.227196" lon="-8.831882">
        <ele>109.268</ele>
        <time>2018-12-28T16:08:50Z</time>
      </trkpt>
      <trkpt lat="37.227202" lon="-8.831891">
        <ele>109.754</ele>
        <time>2018-12-28T16:08:57Z</time>
      </trkpt>
      <trkpt lat="37.227224" lon="-8.831928">
        <ele>109.755</ele>
        <time>2018-12-28T16:09:00Z</time>
      </trkpt>
      <trkpt lat="37.227335" lon="-8.832161">
        <ele>108.723</ele>
        <time>2018-12-28T16:09:14Z</time>
      </trkpt>
      <trkpt lat="37.227394" lon="-8.832328">
        <ele>110.229</ele>
        <time>2018-12-28T16:09:25Z</time>
      </trkpt>
      <trkpt lat="37.227406" lon="-8.832382">
        <ele>109.277</ele>
        <time>2018-12-28T16:09:28Z</time>
      </trkpt>
      <trkpt lat="37.227411" lon="-8.832414">
        <ele>109.761</ele>
        <time>2018-12-28T16:09:30Z</time>
      </trkpt>
      <trkpt lat="37.227407" lon="-8.832627">
        <ele>110.227</ele>
        <time>2018-12-28T16:09:42Z</time>
      </trkpt>
      <trkpt lat="37.227376" lon="-8.832764">
        <ele>110.608</ele>
        <time>2018-12-28T16:09:51Z</time>
      </trkpt>
      <trkpt lat="37.227301" lon="-8.832945">
        <ele>111.120</ele>
        <time>2018-12-28T16:10:04Z</time>
      </trkpt>
      <trkpt lat="37.227278" lon="-8.833011">
        <ele>110.638</ele>
        <time>2018-12-28T16:10:08Z</time>
      </trkpt>
      <trkpt lat="37.227229" lon="-8.833207">
        <ele>111.145</ele>
        <time>2018-12-28T16:10:21Z</time>
      </trkpt>
      <trkpt lat="37.227231" lon="-8.833238">
        <ele>111.120</ele>
        <time>2018-12-28T16:10:23Z</time>
      </trkpt>
      <trkpt lat="37.227233" lon="-8.833288">
        <ele>111.116</ele>
        <time>2018-12-28T16:10:26Z</time>
      </trkpt>
      <trkpt lat="37.227318" lon="-8.833471">
        <ele>111.657</ele>
        <time>2018-12-28T16:10:39Z</time>
      </trkpt>
      <trkpt lat="37.227392" lon="-8.833579">
        <ele>111.695</ele>
        <time>2018-12-28T16:10:48Z</time>
      </trkpt>
      <trkpt lat="37.227428" lon="-8.833628">
        <ele>111.191</ele>
        <time>2018-12-28T16:10:52Z</time>
      </trkpt>
      <trkpt lat="37.227461" lon="-8.833682">
        <ele>111.695</ele>
        <time>2018-12-28T16:10:56Z</time>
      </trkpt>
      <trkpt lat="37.227587" lon="-8.833895">
        <ele>112.149</ele>
        <time>2018-12-28T16:11:11Z</time>
      </trkpt>
      <trkpt lat="37.227594" lon="-8.833908">
        <ele>112.623</ele>
        <time>2018-12-28T16:11:12Z</time>
      </trkpt>
      <trkpt lat="37.227666" lon="-8.834057">
        <ele>113.508</ele>
        <time>2018-12-28T16:11:22Z</time>
      </trkpt>
      <trkpt lat="37.227761" lon="-8.834226">
        <ele>114.542</ele>
        <time>2018-12-28T16:11:34Z</time>
      </trkpt>
      <trkpt lat="37.227814" lon="-8.834307">
        <ele>114.560</ele>
        <time>2018-12-28T16:11:40Z</time>
      </trkpt>
      <trkpt lat="37.227859" lon="-8.834394">
        <ele>114.527</ele>
        <time>2018-12-28T16:11:46Z</time>
      </trkpt>
      <trkpt lat="37.227933" lon="-8.834493">
        <ele>115.062</ele>
        <time>2018-12-28T16:11:54Z</time>
      </trkpt>
      <trkpt lat="37.228001" lon="-8.834588">
        <ele>115.518</ele>
        <time>2018-12-28T16:12:02Z</time>
      </trkpt>
      <trkpt lat="37.228101" lon="-8.834686">
        <ele>115.929</ele>
        <time>2018-12-28T16:12:12Z</time>
      </trkpt>
      <trkpt lat="37.228124" lon="-8.834732">
        <ele>115.927</ele>
        <time>2018-12-28T16:12:15Z</time>
      </trkpt>
      <trkpt lat="37.228146" lon="-8.834779">
        <ele>115.923</ele>
        <time>2018-12-28T16:12:18Z</time>
      </trkpt>
      <trkpt lat="37.228171" lon="-8.834941">
        <ele>117.432</ele>
        <time>2018-12-28T16:12:28Z</time>
      </trkpt>
      <trkpt lat="37.228179" lon="-8.834985">
        <ele>116.992</ele>
        <time>2018-12-28T16:12:31Z</time>
      </trkpt>
      <trkpt lat="37.228193" lon="-8.835155">
        <ele>117.411</ele>
        <time>2018-12-28T16:12:41Z</time>
      </trkpt>
      <trkpt lat="37.228220" lon="-8.835276">
        <ele>118.308</ele>
        <time>2018-12-28T16:12:49Z</time>
      </trkpt>
      <trkpt lat="37.228306" lon="-8.835396">
        <ele>119.326</ele>
        <time>2018-12-28T16:12:59Z</time>
      </trkpt>
      <trkpt lat="37.228358" lon="-8.835454">
        <ele>119.884</ele>
        <time>2018-12-28T16:13:04Z</time>
      </trkpt>
      <trkpt lat="37.228458" lon="-8.835623">
        <ele>120.311</ele>
        <time>2018-12-28T16:13:16Z</time>
      </trkpt>
      <trkpt lat="37.228467" lon="-8.835652">
        <ele>120.366</ele>
        <time>2018-12-28T16:13:18Z</time>
      </trkpt>
      <trkpt lat="37.228488" lon="-8.835718">
        <ele>121.222</ele>
        <time>2018-12-28T16:13:22Z</time>
      </trkpt>
      <trkpt lat="37.228486" lon="-8.835754">
        <ele>121.253</ele>
        <time>2018-12-28T16:13:24Z</time>
      </trkpt>
      <trkpt lat="37.228496" lon="-8.835911">
        <ele>122.281</ele>
        <time>2018-12-28T16:13:33Z</time>
      </trkpt>
      <trkpt lat="37.228499" lon="-8.835924">
        <ele>122.297</ele>
        <time>2018-12-28T16:13:34Z</time>
      </trkpt>
      <trkpt lat="37.228509" lon="-8.836137">
        <ele>123.665</ele>
        <time>2018-12-28T16:13:46Z</time>
      </trkpt>
      <trkpt lat="37.228511" lon="-8.836149">
        <ele>123.668</ele>
        <time>2018-12-28T16:13:47Z</time>
      </trkpt>
      <trkpt lat="37.228525" lon="-8.836282">
        <ele>125.114</ele>
        <time>2018-12-28T16:13:55Z</time>
      </trkpt>
      <trkpt lat="37.228563" lon="-8.836424">
        <ele>127.008</ele>
        <time>2018-12-28T16:14:05Z</time>
      </trkpt>
      <trkpt lat="37.228620" lon="-8.836575">
        <ele>127.569</ele>
        <time>2018-12-28T16:14:15Z</time>
      </trkpt>
      <trkpt lat="37.228717" lon="-8.836787">
        <ele>126.567</ele>
        <time>2018-12-28T16:14:30Z</time>
      </trkpt>
      <trkpt lat="37.228766" lon="-8.836886">
        <ele>126.574</ele>
        <time>2018-12-28T16:14:38Z</time>
      </trkpt>
      <trkpt lat="37.228885" lon="-8.837072">
        <ele>126.599</ele>
        <time>2018-12-28T16:14:53Z</time>
      </trkpt>
      <trkpt lat="37.228992" lon="-8.837294">
        <ele>127.085</ele>
        <time>2018-12-28T16:15:08Z</time>
      </trkpt>
      <trkpt lat="37.229040" lon="-8.837482">
        <ele>127.596</ele>
        <time>2018-12-28T16:15:19Z</time>
      </trkpt>
      <trkpt lat="37.229074" lon="-8.837590">
        <ele>127.964</ele>
        <time>2018-12-28T16:15:26Z</time>
      </trkpt>
      <trkpt lat="37.229094" lon="-8.837655">
        <ele>128.430</ele>
        <time>2018-12-28T16:15:30Z</time>
      </trkpt>
      <trkpt lat="37.229145" lon="-8.837742">
        <ele>128.973</ele>
        <time>2018-12-28T16:15:36Z</time>
      </trkpt>
      <trkpt lat="37.229161" lon="-8.837782">
        <ele>129.485</ele>
        <time>2018-12-28T16:15:39Z</time>
      </trkpt>
      <trkpt lat="37.229218" lon="-8.837885">
        <ele>130.413</ele>
        <time>2018-12-28T16:15:46Z</time>
      </trkpt>
      <trkpt lat="37.229270" lon="-8.838084">
        <ele>130.808</ele>
        <time>2018-12-28T16:15:59Z</time>
      </trkpt>
      <trkpt lat="37.229321" lon="-8.838227">
        <ele>129.410</ele>
        <time>2018-12-28T16:16:09Z</time>
      </trkpt>
      <trkpt lat="37.229406" lon="-8.838447">
        <ele>126.088</ele>
        <time>2018-12-28T16:16:23Z</time>
      </trkpt>
      <trkpt lat="37.229481" lon="-8.838603">
        <ele>124.695</ele>
        <time>2018-12-28T16:16:34Z</time>
      </trkpt>
      <trkpt lat="37.229501" lon="-8.838680">
        <ele>123.640</ele>
        <time>2018-12-28T16:16:39Z</time>
      </trkpt>
      <trkpt lat="37.229516" lon="-8.838775">
        <ele>122.776</ele>
        <time>2018-12-28T16:16:46Z</time>
      </trkpt>
      <trkpt lat="37.229493" lon="-8.838842">
        <ele>122.257</ele>
        <time>2018-12-28T16:16:51Z</time>
      </trkpt>
      <trkpt lat="37.229481" lon="-8.838867">
        <ele>121.735</ele>
        <time>2018-12-28T16:16:53Z</time>
      </trkpt>
      <trkpt lat="37.229430" lon="-8.838911">
        <ele>119.871</ele>
        <time>2018-12-28T16:16:58Z</time>
      </trkpt>
      <trkpt lat="37.229279" lon="-8.839066">
        <ele>116.426</ele>
        <time>2018-12-28T16:17:15Z</time>
      </trkpt>
      <trkpt lat="37.229279" lon="-8.839103">
        <ele>115.947</ele>
        <time>2018-12-28T16:17:18Z</time>
      </trkpt>
      <trkpt lat="37.229282" lon="-8.839154">
        <ele>115.911</ele>
        <time>2018-12-28T16:17:35Z</time>
      </trkpt>
      <trkpt lat="37.229284" lon="-8.839160">
        <ele>115.908</ele>
        <time>2018-12-28T16:17:57Z</time>
      </trkpt>
      <trkpt lat="37.229294" lon="-8.839363">
        <ele>113.075</ele>
        <time>2018-12-28T16:18:11Z</time>
      </trkpt>
      <trkpt lat="37.229297" lon="-8.839373">
        <ele>113.053</ele>
        <time>2018-12-28T16:18:12Z</time>
      </trkpt>
      <trkpt lat="37.229305" lon="-8.839418">
        <ele>112.140</ele>
        <time>2018-12-28T16:18:15Z</time>
      </trkpt>
      <trkpt lat="37.229324" lon="-8.839633">
        <ele>110.215</ele>
        <time>2018-12-28T16:18:28Z</time>
      </trkpt>
      <trkpt lat="37.229332" lon="-8.839656">
        <ele>109.721</ele>
        <time>2018-12-28T16:18:30Z</time>
      </trkpt>
      <trkpt lat="37.229343" lon="-8.839845">
        <ele>107.372</ele>
        <time>2018-12-28T16:18:42Z</time>
      </trkpt>
      <trkpt lat="37.229298" lon="-8.840010">
        <ele>105.450</ele>
        <time>2018-12-28T16:18:53Z</time>
      </trkpt>
      <trkpt lat="37.229284" lon="-8.840052">
        <ele>104.956</ele>
        <time>2018-12-28T16:18:56Z</time>
      </trkpt>
      <trkpt lat="37.229261" lon="-8.840109">
        <ele>103.942</ele>
        <time>2018-12-28T16:19:00Z</time>
      </trkpt>
      <trkpt lat="37.229182" lon="-8.840352">
        <ele>101.522</ele>
        <time>2018-12-28T16:19:15Z</time>
      </trkpt>
      <trkpt lat="37.229063" lon="-8.840557">
        <ele>99.114</ele>
        <time>2018-12-28T16:19:31Z</time>
      </trkpt>
      <trkpt lat="37.228908" lon="-8.840765">
        <ele>96.208</ele>
        <time>2018-12-28T16:19:48Z</time>
      </trkpt>
      <trkpt lat="37.228750" lon="-8.840897">
        <ele>93.877</ele>
        <time>2018-12-28T16:20:03Z</time>
      </trkpt>
      <trkpt lat="37.228577" lon="-8.840976">
        <ele>90.575</ele>
        <time>2018-12-28T16:20:17Z</time>
      </trkpt>
      <trkpt lat="37.228541" lon="-8.840999">
        <ele>90.082</ele>
        <time>2018-12-28T16:20:20Z</time>
      </trkpt>
      <trkpt lat="37.228483" lon="-8.841068">
        <ele>88.517</ele>
        <time>2018-12-28T16:20:27Z</time>
      </trkpt>
      <trkpt lat="37.228392" lon="-8.841155">
        <ele>90.563</ele>
        <time>2018-12-28T16:20:38Z</time>
      </trkpt>
      <trkpt lat="37.228388" lon="-8.841159">
        <ele>90.584</ele>
        <time>2018-12-28T16:20:39Z</time>
      </trkpt>
      <trkpt lat="37.228363" lon="-8.841224">
        <ele>91.482</ele>
        <time>2018-12-28T16:20:44Z</time>
      </trkpt>
      <trkpt lat="37.228333" lon="-8.841240">
        <ele>91.978</ele>
        <time>2018-12-28T16:20:46Z</time>
      </trkpt>
      <trkpt lat="37.228235" lon="-8.841312">
        <ele>93.873</ele>
        <time>2018-12-28T16:20:55Z</time>
      </trkpt>
      <trkpt lat="37.228125" lon="-8.841381">
        <ele>97.285</ele>
        <time>2018-12-28T16:21:06Z</time>
      </trkpt>
      <trkpt lat="37.228057" lon="-8.841448">
        <ele>99.113</ele>
        <time>2018-12-28T16:21:13Z</time>
      </trkpt>
      <trkpt lat="37.228027" lon="-8.841476">
        <ele>100.608</ele>
        <time>2018-12-28T16:21:17Z</time>
      </trkpt>
      <trkpt lat="37.228001" lon="-8.841499">
        <ele>101.050</ele>
        <time>2018-12-28T16:21:20Z</time>
      </trkpt>
      <trkpt lat="37.227977" lon="-8.841532">
        <ele>102.048</ele>
        <time>2018-12-28T16:21:23Z</time>
      </trkpt>
      <trkpt lat="37.227907" lon="-8.841610">
        <ele>103.065</ele>
        <time>2018-12-28T16:21:36Z</time>
      </trkpt>
      <trkpt lat="37.227907" lon="-8.841614">
        <ele>103.070</ele>
        <time>2018-12-28T16:21:52Z</time>
      </trkpt>
      <trkpt lat="37.227916" lon="-8.841594">
        <ele>103.056</ele>
        <time>2018-12-28T16:21:55Z</time>
      </trkpt>
      <trkpt lat="37.227926" lon="-8.841573">
        <ele>102.547</ele>
        <time>2018-12-28T16:21:57Z</time>
      </trkpt>
      <trkpt lat="37.227952" lon="-8.841511">
        <ele>102.525</ele>
        <time>2018-12-28T16:22:02Z</time>
      </trkpt>
      <trkpt lat="37.227990" lon="-8.841443">
        <ele>100.621</ele>
        <time>2018-12-28T16:22:08Z</time>
      </trkpt>
      <trkpt lat="37.228014" lon="-8.841405">
        <ele>100.123</ele>
        <time>2018-12-28T16:22:13Z</time>
      </trkpt>
      <trkpt lat="37.228033" lon="-8.841385">
        <ele>98.683</ele>
        <time>2018-12-28T16:22:15Z</time>
      </trkpt>
      <trkpt lat="37.228045" lon="-8.841362">
        <ele>98.111</ele>
        <time>2018-12-28T16:22:17Z</time>
      </trkpt>
      <trkpt lat="37.228098" lon="-8.841312">
        <ele>96.208</ele>
        <time>2018-12-28T16:22:23Z</time>
      </trkpt>
      <trkpt lat="37.228137" lon="-8.841290">
        <ele>94.865</ele>
        <time>2018-12-28T16:22:27Z</time>
      </trkpt>
      <trkpt lat="37.228299" lon="-8.841192">
        <ele>91.423</ele>
        <time>2018-12-28T16:22:39Z</time>
      </trkpt>
      <trkpt lat="37.228323" lon="-8.841180">
        <ele>90.570</ele>
        <time>2018-12-28T16:22:41Z</time>
      </trkpt>
      <trkpt lat="37.228439" lon="-8.841110">
        <ele>89.065</ele>
        <time>2018-12-28T16:22:51Z</time>
      </trkpt>
      <trkpt lat="37.228496" lon="-8.841052">
        <ele>89.091</ele>
        <time>2018-12-28T16:22:56Z</time>
      </trkpt>
      <trkpt lat="37.228553" lon="-8.841029">
        <ele>90.012</ele>
        <time>2018-12-28T16:23:00Z</time>
      </trkpt>
      <trkpt lat="37.228696" lon="-8.840916">
        <ele>91.910</ele>
        <time>2018-12-28T16:23:11Z</time>
      </trkpt>
      <trkpt lat="37.228846" lon="-8.840825">
        <ele>94.316</ele>
        <time>2018-12-28T16:23:22Z</time>
      </trkpt>
      <trkpt lat="37.228907" lon="-8.840763">
        <ele>95.742</ele>
        <time>2018-12-28T16:23:29Z</time>
      </trkpt>
      <trkpt lat="37.229013" lon="-8.840665">
        <ele>96.722</ele>
        <time>2018-12-28T16:23:38Z</time>
      </trkpt>
      <trkpt lat="37.229030" lon="-8.840625">
        <ele>97.214</ele>
        <time>2018-12-28T16:23:41Z</time>
      </trkpt>
      <trkpt lat="37.229112" lon="-8.840524">
        <ele>98.108</ele>
        <time>2018-12-28T16:23:49Z</time>
      </trkpt>
      <trkpt lat="37.229135" lon="-8.840447">
        <ele>99.687</ele>
        <time>2018-12-28T16:23:54Z</time>
      </trkpt>
      <trkpt lat="37.229156" lon="-8.840416">
        <ele>99.155</ele>
        <time>2018-12-28T16:23:56Z</time>
      </trkpt>
      <trkpt lat="37.229219" lon="-8.840216">
        <ele>101.522</ele>
        <time>2018-12-28T16:24:09Z</time>
      </trkpt>
      <trkpt lat="37.229245" lon="-8.840146">
        <ele>103.067</ele>
        <time>2018-12-28T16:24:14Z</time>
      </trkpt>
      <trkpt lat="37.229306" lon="-8.840013">
        <ele>104.433</ele>
        <time>2018-12-28T16:24:23Z</time>
      </trkpt>
      <trkpt lat="37.229323" lon="-8.839966">
        <ele>104.974</ele>
        <time>2018-12-28T16:24:26Z</time>
      </trkpt>
      <trkpt lat="37.229334" lon="-8.839936">
        <ele>105.412</ele>
        <time>2018-12-28T16:24:28Z</time>
      </trkpt>
      <trkpt lat="37.229340" lon="-8.839776">
        <ele>107.338</ele>
        <time>2018-12-28T16:24:38Z</time>
      </trkpt>
      <trkpt lat="37.229344" lon="-8.839737">
        <ele>108.243</ele>
        <time>2018-12-28T16:24:40Z</time>
      </trkpt>
      <trkpt lat="37.229327" lon="-8.839589">
        <ele>109.764</ele>
        <time>2018-12-28T16:24:49Z</time>
      </trkpt>
      <trkpt lat="37.229297" lon="-8.839477">
        <ele>111.110</ele>
        <time>2018-12-28T16:24:56Z</time>
      </trkpt>
      <trkpt lat="37.229262" lon="-8.839335">
        <ele>112.608</ele>
        <time>2018-12-28T16:25:05Z</time>
      </trkpt>
      <trkpt lat="37.229261" lon="-8.839297">
        <ele>113.027</ele>
        <time>2018-12-28T16:25:07Z</time>
      </trkpt>
      <trkpt lat="37.229265" lon="-8.839095">
        <ele>115.535</ele>
        <time>2018-12-28T16:25:19Z</time>
      </trkpt>
      <trkpt lat="37.229270" lon="-8.839079">
        <ele>115.552</ele>
        <time>2018-12-28T16:25:20Z</time>
      </trkpt>
      <trkpt lat="37.229425" lon="-8.838934">
        <ele>118.357</ele>
        <time>2018-12-28T16:25:33Z</time>
      </trkpt>
      <trkpt lat="37.229439" lon="-8.838933">
        <ele>118.373</ele>
        <time>2018-12-28T16:25:34Z</time>
      </trkpt>
      <trkpt lat="37.229492" lon="-8.838884">
        <ele>119.874</ele>
        <time>2018-12-28T16:25:40Z</time>
      </trkpt>
      <trkpt lat="37.229514" lon="-8.838835">
        <ele>120.762</ele>
        <time>2018-12-28T16:25:44Z</time>
      </trkpt>
      <trkpt lat="37.229528" lon="-8.838725">
        <ele>122.758</ele>
        <time>2018-12-28T16:25:52Z</time>
      </trkpt>
      <trkpt lat="37.229511" lon="-8.838653">
        <ele>123.686</ele>
        <time>2018-12-28T16:25:57Z</time>
      </trkpt>
      <trkpt lat="37.229493" lon="-8.838622">
        <ele>123.660</ele>
        <time>2018-12-28T16:25:59Z</time>
      </trkpt>
      <trkpt lat="37.229470" lon="-8.838585">
        <ele>123.626</ele>
        <time>2018-12-28T16:26:02Z</time>
      </trkpt>
      <trkpt lat="37.229429" lon="-8.838522">
        <ele>124.608</ele>
        <time>2018-12-28T16:26:07Z</time>
      </trkpt>
      <trkpt lat="37.229393" lon="-8.838403">
        <ele>126.041</ele>
        <time>2018-12-28T16:26:15Z</time>
      </trkpt>
      <trkpt lat="37.229361" lon="-8.838279">
        <ele>127.549</ele>
        <time>2018-12-28T16:26:23Z</time>
      </trkpt>
      <trkpt lat="37.229339" lon="-8.838190">
        <ele>128.416</ele>
        <time>2018-12-28T16:26:29Z</time>
      </trkpt>
      <trkpt lat="37.229322" lon="-8.838132">
        <ele>129.481</ele>
        <time>2018-12-28T16:26:33Z</time>
      </trkpt>
      <trkpt lat="37.229271" lon="-8.837995">
        <ele>130.477</ele>
        <time>2018-12-28T16:26:43Z</time>
      </trkpt>
      <trkpt lat="37.229240" lon="-8.837912">
        <ele>130.498</ele>
        <time>2018-12-28T16:26:49Z</time>
      </trkpt>
      <trkpt lat="37.229129" lon="-8.837680">
        <ele>127.956</ele>
        <time>2018-12-28T16:27:05Z</time>
      </trkpt>
      <trkpt lat="37.229111" lon="-8.837621">
        <ele>127.932</ele>
        <time>2018-12-28T16:27:09Z</time>
      </trkpt>
      <trkpt lat="37.229039" lon="-8.837394">
        <ele>126.568</ele>
        <time>2018-12-28T16:27:23Z</time>
      </trkpt>
      <trkpt lat="37.228988" lon="-8.837244">
        <ele>126.042</ele>
        <time>2018-12-28T16:27:33Z</time>
      </trkpt>
      <trkpt lat="37.228958" lon="-8.837201">
        <ele>125.526</ele>
        <time>2018-12-28T16:27:39Z</time>
      </trkpt>
      <trkpt lat="37.228908" lon="-8.837128">
        <ele>125.508</ele>
        <time>2018-12-28T16:27:45Z</time>
      </trkpt>
      <trkpt lat="37.228872" lon="-8.837068">
        <ele>125.519</ele>
        <time>2018-12-28T16:27:49Z</time>
      </trkpt>
      <trkpt lat="37.228847" lon="-8.837017">
        <ele>126.037</ele>
        <time>2018-12-28T16:27:53Z</time>
      </trkpt>
      <trkpt lat="37.228799" lon="-8.836956">
        <ele>126.074</ele>
        <time>2018-12-28T16:27:58Z</time>
      </trkpt>
      <trkpt lat="37.228726" lon="-8.836821">
        <ele>126.059</ele>
        <time>2018-12-28T16:28:08Z</time>
      </trkpt>
      <trkpt lat="37.228686" lon="-8.836732">
        <ele>126.095</ele>
        <time>2018-12-28T16:28:14Z</time>
      </trkpt>
      <trkpt lat="37.228652" lon="-8.836677">
        <ele>126.066</ele>
        <time>2018-12-28T16:28:18Z</time>
      </trkpt>
      <trkpt lat="37.228655" lon="-8.836650">
        <ele>126.094</ele>
        <time>2018-12-28T16:28:23Z</time>
      </trkpt>
      <trkpt lat="37.228598" lon="-8.836486">
        <ele>126.590</ele>
        <time>2018-12-28T16:28:34Z</time>
      </trkpt>
      <trkpt lat="37.228568" lon="-8.836396">
        <ele>126.079</ele>
        <time>2018-12-28T16:28:40Z</time>
      </trkpt>
      <trkpt lat="37.228506" lon="-8.836174">
        <ele>123.105</ele>
        <time>2018-12-28T16:28:56Z</time>
      </trkpt>
      <trkpt lat="37.228504" lon="-8.836087">
        <ele>122.725</ele>
        <time>2018-12-28T16:29:02Z</time>
      </trkpt>
      <trkpt lat="37.228517" lon="-8.835842">
        <ele>120.708</ele>
        <time>2018-12-28T16:29:18Z</time>
      </trkpt>
      <trkpt lat="37.228510" lon="-8.835799">
        <ele>120.310</ele>
        <time>2018-12-28T16:29:21Z</time>
      </trkpt>
      <trkpt lat="37.228503" lon="-8.835754">
        <ele>120.328</ele>
        <time>2018-12-28T16:29:24Z</time>
      </trkpt>
      <trkpt lat="37.228484" lon="-8.835625">
        <ele>119.885</ele>
        <time>2018-12-28T16:29:32Z</time>
      </trkpt>
      <trkpt lat="37.228405" lon="-8.835510">
        <ele>119.330</ele>
        <time>2018-12-28T16:29:42Z</time>
      </trkpt>
      <trkpt lat="37.228371" lon="-8.835472">
        <ele>119.366</ele>
        <time>2018-12-28T16:29:46Z</time>
      </trkpt>
      <trkpt lat="37.228332" lon="-8.835440">
        <ele>118.857</ele>
        <time>2018-12-28T16:29:49Z</time>
      </trkpt>
      <trkpt lat="37.228258" lon="-8.835272">
        <ele>117.975</ele>
        <time>2018-12-28T16:30:02Z</time>
      </trkpt>
      <trkpt lat="37.228227" lon="-8.835173">
        <ele>116.921</ele>
        <time>2018-12-28T16:30:09Z</time>
      </trkpt>
      <trkpt lat="37.228211" lon="-8.834954">
        <ele>116.434</ele>
        <time>2018-12-28T16:30:23Z</time>
      </trkpt>
      <trkpt lat="37.228204" lon="-8.834921">
        <ele>115.955</ele>
        <time>2018-12-28T16:30:25Z</time>
      </trkpt>
      <trkpt lat="37.228184" lon="-8.834807">
        <ele>115.510</ele>
        <time>2018-12-28T16:30:32Z</time>
      </trkpt>
      <trkpt lat="37.228161" lon="-8.834701">
        <ele>115.008</ele>
        <time>2018-12-28T16:30:39Z</time>
      </trkpt>
      <trkpt lat="37.228122" lon="-8.834639">
        <ele>115.026</ele>
        <time>2018-12-28T16:30:44Z</time>
      </trkpt>
      <trkpt lat="37.228072" lon="-8.834575">
        <ele>115.014</ele>
        <time>2018-12-28T16:30:50Z</time>
      </trkpt>
      <trkpt lat="37.228015" lon="-8.834511">
        <ele>114.571</ele>
        <time>2018-12-28T16:31:05Z</time>
      </trkpt>
      <trkpt lat="37.227998" lon="-8.834491">
        <ele>114.536</ele>
        <time>2018-12-28T16:31:20Z</time>
      </trkpt>
      <trkpt lat="37.227998" lon="-8.834491">
        <ele>114.022</ele>
        <time>2018-12-28T16:31:29Z</time>
      </trkpt>
      <trkpt lat="37.227937" lon="-8.834404">
        <ele>114.033</ele>
        <time>2018-12-28T16:31:36Z</time>
      </trkpt>
      <trkpt lat="37.227919" lon="-8.834376">
        <ele>113.531</ele>
        <time>2018-12-28T16:31:38Z</time>
      </trkpt>
      <trkpt lat="37.227817" lon="-8.834230">
        <ele>113.557</ele>
        <time>2018-12-28T16:31:50Z</time>
      </trkpt>
      <trkpt lat="37.227782" lon="-8.834165">
        <ele>113.586</ele>
        <time>2018-12-28T16:31:55Z</time>
      </trkpt>
      <trkpt lat="37.227702" lon="-8.834064">
        <ele>113.060</ele>
        <time>2018-12-28T16:32:05Z</time>
      </trkpt>
      <trkpt lat="37.227670" lon="-8.833985">
        <ele>112.626</ele>
        <time>2018-12-28T16:32:10Z</time>
      </trkpt>
      <trkpt lat="37.227643" lon="-8.833942">
        <ele>112.108</ele>
        <time>2018-12-28T16:32:14Z</time>
      </trkpt>
      <trkpt lat="37.227554" lon="-8.833751">
        <ele>111.141</ele>
        <time>2018-12-28T16:32:27Z</time>
      </trkpt>
      <trkpt lat="37.227496" lon="-8.833688">
        <ele>110.689</ele>
        <time>2018-12-28T16:32:33Z</time>
      </trkpt>
      <trkpt lat="37.227439" lon="-8.833585">
        <ele>111.176</ele>
        <time>2018-12-28T16:32:41Z</time>
      </trkpt>
      <trkpt lat="37.227404" lon="-8.833541">
        <ele>110.211</ele>
        <time>2018-12-28T16:32:45Z</time>
      </trkpt>
      <trkpt lat="37.227371" lon="-8.833500">
        <ele>110.267</ele>
        <time>2018-12-28T16:32:49Z</time>
      </trkpt>
      <trkpt lat="37.227317" lon="-8.833402">
        <ele>110.218</ele>
        <time>2018-12-28T16:32:57Z</time>
      </trkpt>
      <trkpt lat="37.227284" lon="-8.833357">
        <ele>110.216</ele>
        <time>2018-12-28T16:33:01Z</time>
      </trkpt>
      <trkpt lat="37.227272" lon="-8.833285">
        <ele>110.232</ele>
        <time>2018-12-28T16:33:06Z</time>
      </trkpt>
      <trkpt lat="37.227261" lon="-8.833205">
        <ele>110.275</ele>
        <time>2018-12-28T16:33:12Z</time>
      </trkpt>
      <trkpt lat="37.227283" lon="-8.833077">
        <ele>109.728</ele>
        <time>2018-12-28T16:33:21Z</time>
      </trkpt>
      <trkpt lat="37.227349" lon="-8.832924">
        <ele>109.720</ele>
        <time>2018-12-28T16:33:34Z</time>
      </trkpt>
      <trkpt lat="37.227365" lon="-8.832903">
        <ele>109.208</ele>
        <time>2018-12-28T16:33:36Z</time>
      </trkpt>
      <trkpt lat="37.227425" lon="-8.832711">
        <ele>109.710</ele>
        <time>2018-12-28T16:33:51Z</time>
      </trkpt>
      <trkpt lat="37.227431" lon="-8.832688">
        <ele>109.228</ele>
        <time>2018-12-28T16:33:53Z</time>
      </trkpt>
      <trkpt lat="37.227443" lon="-8.832481">
        <ele>109.285</ele>
        <time>2018-12-28T16:34:09Z</time>
      </trkpt>
      <trkpt lat="37.227430" lon="-8.832414">
        <ele>108.780</ele>
        <time>2018-12-28T16:34:14Z</time>
      </trkpt>
      <trkpt lat="37.227426" lon="-8.832377">
        <ele>108.766</ele>
        <time>2018-12-28T16:34:17Z</time>
      </trkpt>
      <trkpt lat="37.227396" lon="-8.832262">
        <ele>108.787</ele>
        <time>2018-12-28T16:34:26Z</time>
      </trkpt>
      <trkpt lat="37.227329" lon="-8.832074">
        <ele>108.285</ele>
        <time>2018-12-28T16:34:40Z</time>
      </trkpt>
      <trkpt lat="37.227288" lon="-8.831987">
        <ele>108.221</ele>
        <time>2018-12-28T16:34:46Z</time>
      </trkpt>
      <trkpt lat="37.227263" lon="-8.831933">
        <ele>108.755</ele>
        <time>2018-12-28T16:34:50Z</time>
      </trkpt>
      <trkpt lat="37.227250" lon="-8.831873">
        <ele>107.807</ele>
        <time>2018-12-28T16:34:54Z</time>
      </trkpt>
      <trkpt lat="37.227378" lon="-8.831754">
        <ele>107.317</ele>
        <time>2018-12-28T16:35:09Z</time>
      </trkpt>
      <trkpt lat="37.227464" lon="-8.831697">
        <ele>106.808</ele>
        <time>2018-12-28T16:35:17Z</time>
      </trkpt>
      <trkpt lat="37.227502" lon="-8.831664">
        <ele>106.348</ele>
        <time>2018-12-28T16:35:21Z</time>
      </trkpt>
      <trkpt lat="37.227629" lon="-8.831590">
        <ele>105.826</ele>
        <time>2018-12-28T16:35:34Z</time>
      </trkpt>
      <trkpt lat="37.227629" lon="-8.831590">
        <ele>106.813</ele>
        <time>2018-12-28T16:35:36Z</time>
      </trkpt>
      <trkpt lat="37.227765" lon="-8.831495">
        <ele>105.498</ele>
        <time>2018-12-28T16:35:47Z</time>
      </trkpt>
      <trkpt lat="37.227906" lon="-8.831399">
        <ele>105.454</ele>
        <time>2018-12-28T16:36:00Z</time>
      </trkpt>
      <trkpt lat="37.228067" lon="-8.831301">
        <ele>104.995</ele>
        <time>2018-12-28T16:36:13Z</time>
      </trkpt>
      <trkpt lat="37.228215" lon="-8.831202">
        <ele>104.933</ele>
        <time>2018-12-28T16:36:26Z</time>
      </trkpt>
      <trkpt lat="37.228367" lon="-8.831118">
        <ele>104.929</ele>
        <time>2018-12-28T16:36:40Z</time>
      </trkpt>
      <trkpt lat="37.228525" lon="-8.831021">
        <ele>104.917</ele>
        <time>2018-12-28T16:36:54Z</time>
      </trkpt>
      <trkpt lat="37.228665" lon="-8.830940">
        <ele>104.987</ele>
        <time>2018-12-28T16:37:06Z</time>
      </trkpt>
      <trkpt lat="37.228822" lon="-8.830852">
        <ele>103.915</ele>
        <time>2018-12-28T16:37:19Z</time>
      </trkpt>
      <trkpt lat="37.228981" lon="-8.830745">
        <ele>104.408</ele>
        <time>2018-12-28T16:37:31Z</time>
      </trkpt>
      <trkpt lat="37.229112" lon="-8.830666">
        <ele>103.944</ele>
        <time>2018-12-28T16:37:43Z</time>
      </trkpt>
      <trkpt lat="37.229287" lon="-8.830551">
        <ele>103.432</ele>
        <time>2018-12-28T16:37:58Z</time>
      </trkpt>
      <trkpt lat="37.229444" lon="-8.830456">
        <ele>103.989</ele>
        <time>2018-12-28T16:38:11Z</time>
      </trkpt>
      <trkpt lat="37.229553" lon="-8.830390">
        <ele>103.424</ele>
        <time>2018-12-28T16:38:27Z</time>
      </trkpt>
      <trkpt lat="37.229594" lon="-8.830364">
        <ele>103.470</ele>
        <time>2018-12-28T16:38:31Z</time>
      </trkpt>
      <trkpt lat="37.229753" lon="-8.830258">
        <ele>103.071</ele>
        <time>2018-12-28T16:38:46Z</time>
      </trkpt>
      <trkpt lat="37.229941" lon="-8.830127">
        <ele>103.079</ele>
        <time>2018-12-28T16:39:02Z</time>
      </trkpt>
      <trkpt lat="37.230103" lon="-8.830042">
        <ele>103.995</ele>
        <time>2018-12-28T16:39:14Z</time>
      </trkpt>
      <trkpt lat="37.230236" lon="-8.829950">
        <ele>103.987</ele>
        <time>2018-12-28T16:39:26Z</time>
      </trkpt>
      <trkpt lat="37.230333" lon="-8.829899">
        <ele>103.942</ele>
        <time>2018-12-28T16:39:34Z</time>
      </trkpt>
      <trkpt lat="37.230513" lon="-8.829773">
        <ele>104.926</ele>
        <time>2018-12-28T16:39:49Z</time>
      </trkpt>
      <trkpt lat="37.230585" lon="-8.829739">
        <ele>105.408</ele>
        <time>2018-12-28T16:39:55Z</time>
      </trkpt>
      <trkpt lat="37.230625" lon="-8.829708">
        <ele>105.871</ele>
        <time>2018-12-28T16:39:59Z</time>
      </trkpt>
      <trkpt lat="37.230796" lon="-8.829612">
        <ele>106.869</ele>
        <time>2018-12-28T16:40:13Z</time>
      </trkpt>
      <trkpt lat="37.231004" lon="-8.829487">
        <ele>107.836</ele>
        <time>2018-12-28T16:40:29Z</time>
      </trkpt>
      <trkpt lat="37.231080" lon="-8.829432">
        <ele>107.831</ele>
        <time>2018-12-28T16:40:36Z</time>
      </trkpt>
      <trkpt lat="37.231186" lon="-8.829378">
        <ele>107.857</ele>
        <time>2018-12-28T16:40:44Z</time>
      </trkpt>
      <trkpt lat="37.231373" lon="-8.829295">
        <ele>107.828</ele>
        <time>2018-12-28T16:40:59Z</time>
      </trkpt>
      <trkpt lat="37.231540" lon="-8.829216">
        <ele>107.316</ele>
        <time>2018-12-28T16:41:12Z</time>
      </trkpt>
      <trkpt lat="37.231698" lon="-8.829160">
        <ele>106.872</ele>
        <time>2018-12-28T16:41:24Z</time>
      </trkpt>
      <trkpt lat="37.231886" lon="-8.829074">
        <ele>106.332</ele>
        <time>2018-12-28T16:41:40Z</time>
      </trkpt>
      <trkpt lat="37.232028" lon="-8.829007">
        <ele>105.492</ele>
        <time>2018-12-28T16:41:51Z</time>
      </trkpt>
      <trkpt lat="37.232095" lon="-8.828990">
        <ele>104.911</ele>
        <time>2018-12-28T16:41:59Z</time>
      </trkpt>
      <trkpt lat="37.232275" lon="-8.828921">
        <ele>104.408</ele>
        <time>2018-12-28T16:42:13Z</time>
      </trkpt>
      <trkpt lat="37.232473" lon="-8.828844">
        <ele>103.496</ele>
        <time>2018-12-28T16:42:27Z</time>
      </trkpt>
      <trkpt lat="37.232627" lon="-8.828750">
        <ele>103.044</ele>
        <time>2018-12-28T16:42:39Z</time>
      </trkpt>
      <trkpt lat="37.232795" lon="-8.828678">
        <ele>102.021</ele>
        <time>2018-12-28T16:42:52Z</time>
      </trkpt>
      <trkpt lat="37.232905" lon="-8.828633">
        <ele>101.576</ele>
        <time>2018-12-28T16:43:01Z</time>
      </trkpt>
      <trkpt lat="37.233021" lon="-8.828570">
        <ele>101.082</ele>
        <time>2018-12-28T16:43:11Z</time>
      </trkpt>
      <trkpt lat="37.233205" lon="-8.828496">
        <ele>100.193</ele>
        <time>2018-12-28T16:43:25Z</time>
      </trkpt>
      <trkpt lat="37.233405" lon="-8.828430">
        <ele>99.651</ele>
        <time>2018-12-28T16:43:39Z</time>
      </trkpt>
      <trkpt lat="37.233438" lon="-8.828410">
        <ele>99.167</ele>
        <time>2018-12-28T16:43:42Z</time>
      </trkpt>
      <trkpt lat="37.233455" lon="-8.828386">
        <ele>99.127</ele>
        <time>2018-12-28T16:43:44Z</time>
      </trkpt>
      <trkpt lat="37.233617" lon="-8.828309">
        <ele>98.668</ele>
        <time>2018-12-28T16:43:56Z</time>
      </trkpt>
      <trkpt lat="37.233785" lon="-8.828234">
        <ele>98.114</ele>
        <time>2018-12-28T16:44:09Z</time>
      </trkpt>
      <trkpt lat="37.233827" lon="-8.828225">
        <ele>98.108</ele>
        <time>2018-12-28T16:44:12Z</time>
      </trkpt>
      <trkpt lat="37.233936" lon="-8.828199">
        <ele>97.275</ele>
        <time>2018-12-28T16:44:20Z</time>
      </trkpt>
      <trkpt lat="37.234121" lon="-8.828095">
        <ele>96.243</ele>
        <time>2018-12-28T16:44:35Z</time>
      </trkpt>
      <trkpt lat="37.234281" lon="-8.828029">
        <ele>97.270</ele>
        <time>2018-12-28T16:44:47Z</time>
      </trkpt>
      <trkpt lat="37.234485" lon="-8.827957">
        <ele>96.235</ele>
        <time>2018-12-28T16:45:02Z</time>
      </trkpt>
      <trkpt lat="37.234539" lon="-8.827936">
        <ele>96.211</ele>
        <time>2018-12-28T16:45:07Z</time>
      </trkpt>
      <trkpt lat="37.234712" lon="-8.827860">
        <ele>96.262</ele>
        <time>2018-12-28T16:45:20Z</time>
      </trkpt>
      <trkpt lat="37.234876" lon="-8.827790">
        <ele>96.280</ele>
        <time>2018-12-28T16:45:34Z</time>
      </trkpt>
      <trkpt lat="37.235075" lon="-8.827688">
        <ele>96.266</ele>
        <time>2018-12-28T16:45:49Z</time>
      </trkpt>
      <trkpt lat="37.235279" lon="-8.827604">
        <ele>96.218</ele>
        <time>2018-12-28T16:46:05Z</time>
      </trkpt>
      <trkpt lat="37.235476" lon="-8.827520">
        <ele>95.798</ele>
        <time>2018-12-28T16:46:20Z</time>
      </trkpt>
      <trkpt lat="37.235668" lon="-8.827442">
        <ele>95.717</ele>
        <time>2018-12-28T16:46:34Z</time>
      </trkpt>
      <trkpt lat="37.235855" lon="-8.827351">
        <ele>95.308</ele>
        <time>2018-12-28T16:46:49Z</time>
      </trkpt>
      <trkpt lat="37.236062" lon="-8.827245">
        <ele>95.314</ele>
        <time>2018-12-28T16:47:04Z</time>
      </trkpt>
      <trkpt lat="37.236223" lon="-8.827190">
        <ele>94.352</ele>
        <time>2018-12-28T16:47:17Z</time>
      </trkpt>
      <trkpt lat="37.236399" lon="-8.827123">
        <ele>94.899</ele>
        <time>2018-12-28T16:47:31Z</time>
      </trkpt>
      <trkpt lat="37.236577" lon="-8.827034">
        <ele>94.844</ele>
        <time>2018-12-28T16:47:44Z</time>
      </trkpt>
      <trkpt lat="37.236748" lon="-8.826963">
        <ele>94.870</ele>
        <time>2018-12-28T16:47:56Z</time>
      </trkpt>
      <trkpt lat="37.236803" lon="-8.826946">
        <ele>94.851</ele>
        <time>2018-12-28T16:48:00Z</time>
      </trkpt>
      <trkpt lat="37.237011" lon="-8.826868">
        <ele>95.359</ele>
        <time>2018-12-28T16:48:15Z</time>
      </trkpt>
      <trkpt lat="37.237070" lon="-8.826834">
        <ele>95.335</ele>
        <time>2018-12-28T16:48:20Z</time>
      </trkpt>
      <trkpt lat="37.237124" lon="-8.826796">
        <ele>94.877</ele>
        <time>2018-12-28T16:48:25Z</time>
      </trkpt>
      <trkpt lat="37.237224" lon="-8.826755">
        <ele>94.361</ele>
        <time>2018-12-28T16:48:32Z</time>
      </trkpt>
      <trkpt lat="37.237411" lon="-8.826665">
        <ele>95.727</ele>
        <time>2018-12-28T16:48:46Z</time>
      </trkpt>
      <trkpt lat="37.237595" lon="-8.826608">
        <ele>95.308</ele>
        <time>2018-12-28T16:48:59Z</time>
      </trkpt>
      <trkpt lat="37.237751" lon="-8.826533">
        <ele>95.780</ele>
        <time>2018-12-28T16:49:12Z</time>
      </trkpt>
      <trkpt lat="37.237765" lon="-8.826534">
        <ele>95.368</ele>
        <time>2018-12-28T16:49:13Z</time>
      </trkpt>
      <trkpt lat="37.237808" lon="-8.826730">
        <ele>96.275</ele>
        <time>2018-12-28T16:49:25Z</time>
      </trkpt>
      <trkpt lat="37.237835" lon="-8.826915">
        <ele>96.270</ele>
        <time>2018-12-28T16:49:36Z</time>
      </trkpt>
      <trkpt lat="37.237841" lon="-8.826952">
        <ele>97.226</ele>
        <time>2018-12-28T16:49:38Z</time>
      </trkpt>
      <trkpt lat="37.237832" lon="-8.827044">
        <ele>96.777</ele>
        <time>2018-12-28T16:49:43Z</time>
      </trkpt>
      <trkpt lat="37.237814" lon="-8.827229">
        <ele>97.725</ele>
        <time>2018-12-28T16:49:54Z</time>
      </trkpt>
      <trkpt lat="37.237788" lon="-8.827303">
        <ele>97.791</ele>
        <time>2018-12-28T16:49:59Z</time>
      </trkpt>
      <trkpt lat="37.237761" lon="-8.827398">
        <ele>97.754</ele>
        <time>2018-12-28T16:50:05Z</time>
      </trkpt>
      <trkpt lat="37.237717" lon="-8.827481">
        <ele>97.756</ele>
        <time>2018-12-28T16:50:10Z</time>
      </trkpt>
      <trkpt lat="37.237625" lon="-8.827664">
        <ele>97.711</ele>
        <time>2018-12-28T16:50:22Z</time>
      </trkpt>
      <trkpt lat="37.237598" lon="-8.827711">
        <ele>98.108</ele>
        <time>2018-12-28T16:50:25Z</time>
      </trkpt>
      <trkpt lat="37.237546" lon="-8.827912">
        <ele>98.188</ele>
        <time>2018-12-28T16:50:38Z</time>
      </trkpt>
      <trkpt lat="37.237543" lon="-8.828067">
        <ele>97.726</ele>
        <time>2018-12-28T16:50:47Z</time>
      </trkpt>
      <trkpt lat="37.237573" lon="-8.828273">
        <ele>98.173</ele>
        <time>2018-12-28T16:51:00Z</time>
      </trkpt>
      <trkpt lat="37.237622" lon="-8.828480">
        <ele>98.618</ele>
        <time>2018-12-28T16:51:12Z</time>
      </trkpt>
      <trkpt lat="37.237682" lon="-8.828685">
        <ele>98.694</ele>
        <time>2018-12-28T16:51:24Z</time>
      </trkpt>
      <trkpt lat="37.237734" lon="-8.828924">
        <ele>98.155</ele>
        <time>2018-12-28T16:51:39Z</time>
      </trkpt>
      <trkpt lat="37.237743" lon="-8.828953">
        <ele>98.153</ele>
        <time>2018-12-28T16:51:41Z</time>
      </trkpt>
      <trkpt lat="37.237790" lon="-8.829226">
        <ele>100.179</ele>
        <time>2018-12-28T16:51:57Z</time>
      </trkpt>
      <trkpt lat="37.237871" lon="-8.829485">
        <ele>100.695</ele>
        <time>2018-12-28T16:52:13Z</time>
      </trkpt>
      <trkpt lat="37.237947" lon="-8.829660">
        <ele>100.149</ele>
        <time>2018-12-28T16:52:24Z</time>
      </trkpt>
      <trkpt lat="37.237961" lon="-8.829687">
        <ele>100.623</ele>
        <time>2018-12-28T16:52:26Z</time>
      </trkpt>
      <trkpt lat="37.238060" lon="-8.829859">
        <ele>101.508</ele>
        <time>2018-12-28T16:52:38Z</time>
      </trkpt>
      <trkpt lat="37.238094" lon="-8.829924">
        <ele>101.082</ele>
        <time>2018-12-28T16:52:42Z</time>
      </trkpt>
      <trkpt lat="37.238119" lon="-8.829994">
        <ele>101.580</ele>
        <time>2018-12-28T16:52:46Z</time>
      </trkpt>
      <trkpt lat="37.238192" lon="-8.830200">
        <ele>102.567</ele>
        <time>2018-12-28T16:52:58Z</time>
      </trkpt>
      <trkpt lat="37.238267" lon="-8.830399">
        <ele>103.012</ele>
        <time>2018-12-28T16:53:10Z</time>
      </trkpt>
      <trkpt lat="37.238312" lon="-8.830531">
        <ele>103.018</ele>
        <time>2018-12-28T16:53:18Z</time>
      </trkpt>
      <trkpt lat="37.238341" lon="-8.830608">
        <ele>103.419</ele>
        <time>2018-12-28T16:53:23Z</time>
      </trkpt>
      <trkpt lat="37.238359" lon="-8.830651">
        <ele>103.417</ele>
        <time>2018-12-28T16:53:26Z</time>
      </trkpt>
      <trkpt lat="37.238401" lon="-8.830711">
        <ele>103.943</ele>
        <time>2018-12-28T16:53:30Z</time>
      </trkpt>
      <trkpt lat="37.238461" lon="-8.830846">
        <ele>104.499</ele>
        <time>2018-12-28T16:53:38Z</time>
      </trkpt>
      <trkpt lat="37.238478" lon="-8.830912">
        <ele>104.907</ele>
        <time>2018-12-28T16:53:42Z</time>
      </trkpt>
      <trkpt lat="37.238528" lon="-8.831047">
        <ele>106.327</ele>
        <time>2018-12-28T16:53:51Z</time>
      </trkpt>
      <trkpt lat="37.238562" lon="-8.831102">
        <ele>106.808</ele>
        <time>2018-12-28T16:53:55Z</time>
      </trkpt>
      <trkpt lat="37.238590" lon="-8.831132">
        <ele>107.852</ele>
        <time>2018-12-28T16:53:58Z</time>
      </trkpt>
      <trkpt lat="37.238724" lon="-8.831287">
        <ele>109.740</ele>
        <time>2018-12-28T16:54:11Z</time>
      </trkpt>
      <trkpt lat="37.238821" lon="-8.831398">
        <ele>111.137</ele>
        <time>2018-12-28T16:54:21Z</time>
      </trkpt>
      <trkpt lat="37.238867" lon="-8.831449">
        <ele>112.612</ele>
        <time>2018-12-28T16:54:26Z</time>
      </trkpt>
      <trkpt lat="37.238922" lon="-8.831513">
        <ele>113.098</ele>
        <time>2018-12-28T16:54:32Z</time>
      </trkpt>
      <trkpt lat="37.238972" lon="-8.831593">
        <ele>114.039</ele>
        <time>2018-12-28T16:54:38Z</time>
      </trkpt>
      <trkpt lat="37.239011" lon="-8.831638">
        <ele>114.587</ele>
        <time>2018-12-28T16:54:42Z</time>
      </trkpt>
      <trkpt lat="37.239063" lon="-8.831737">
        <ele>115.063</ele>
        <time>2018-12-28T16:54:49Z</time>
      </trkpt>
      <trkpt lat="37.239121" lon="-8.831938">
        <ele>115.984</ele>
        <time>2018-12-28T16:55:02Z</time>
      </trkpt>
      <trkpt lat="37.239149" lon="-8.832097">
        <ele>116.907</ele>
        <time>2018-12-28T16:55:11Z</time>
      </trkpt>
      <trkpt lat="37.239165" lon="-8.832209">
        <ele>117.917</ele>
        <time>2018-12-28T16:55:18Z</time>
      </trkpt>
      <trkpt lat="37.239190" lon="-8.832249">
        <ele>118.308</ele>
        <time>2018-12-28T16:55:21Z</time>
      </trkpt>
      <trkpt lat="37.239221" lon="-8.832312">
        <ele>118.341</ele>
        <time>2018-12-28T16:55:25Z</time>
      </trkpt>
      <trkpt lat="37.239245" lon="-8.832400">
        <ele>119.339</ele>
        <time>2018-12-28T16:55:31Z</time>
      </trkpt>
      <trkpt lat="37.239287" lon="-8.832481">
        <ele>119.356</ele>
        <time>2018-12-28T16:55:37Z</time>
      </trkpt>
      <trkpt lat="37.239315" lon="-8.832572">
        <ele>120.761</ele>
        <time>2018-12-28T16:55:43Z</time>
      </trkpt>
      <trkpt lat="37.239378" lon="-8.832727">
        <ele>121.277</ele>
        <time>2018-12-28T16:55:54Z</time>
      </trkpt>
      <trkpt lat="37.239401" lon="-8.832818">
        <ele>121.298</ele>
        <time>2018-12-28T16:56:00Z</time>
      </trkpt>
      <trkpt lat="37.239415" lon="-8.832881">
        <ele>120.736</ele>
        <time>2018-12-28T16:56:04Z</time>
      </trkpt>
      <trkpt lat="37.239465" lon="-8.832966">
        <ele>121.222</ele>
        <time>2018-12-28T16:56:11Z</time>
      </trkpt>
      <trkpt lat="37.239510" lon="-8.833074">
        <ele>120.799</ele>
        <time>2018-12-28T16:56:18Z</time>
      </trkpt>
      <trkpt lat="37.239544" lon="-8.833135">
        <ele>120.707</ele>
        <time>2018-12-28T16:56:22Z</time>
      </trkpt>
      <trkpt lat="37.239594" lon="-8.833201">
        <ele>121.227</ele>
        <time>2018-12-28T16:56:28Z</time>
      </trkpt>
      <trkpt lat="37.239646" lon="-8.833255">
        <ele>121.208</ele>
        <time>2018-12-28T16:56:33Z</time>
      </trkpt>
      <trkpt lat="37.239664" lon="-8.833268">
        <ele>121.252</ele>
        <time>2018-12-28T16:56:35Z</time>
      </trkpt>
      <trkpt lat="37.239804" lon="-8.833395">
        <ele>122.250</ele>
        <time>2018-12-28T16:56:49Z</time>
      </trkpt>
      <trkpt lat="37.239915" lon="-8.833518">
        <ele>122.777</ele>
        <time>2018-12-28T16:57:01Z</time>
      </trkpt>
      <trkpt lat="37.239973" lon="-8.833605">
        <ele>123.662</ele>
        <time>2018-12-28T16:57:08Z</time>
      </trkpt>
      <trkpt lat="37.240000" lon="-8.833690">
        <ele>123.668</ele>
        <time>2018-12-28T16:57:14Z</time>
      </trkpt>
      <trkpt lat="37.240021" lon="-8.833771">
        <ele>123.659</ele>
        <time>2018-12-28T16:57:19Z</time>
      </trkpt>
      <trkpt lat="37.240022" lon="-8.833911">
        <ele>124.147</ele>
        <time>2018-12-28T16:57:27Z</time>
      </trkpt>
      <trkpt lat="37.240030" lon="-8.833955">
        <ele>124.163</ele>
        <time>2018-12-28T16:57:30Z</time>
      </trkpt>
      <trkpt lat="37.240056" lon="-8.834018">
        <ele>124.135</ele>
        <time>2018-12-28T16:57:34Z</time>
      </trkpt>
      <trkpt lat="37.240083" lon="-8.834167">
        <ele>125.186</ele>
        <time>2018-12-28T16:57:43Z</time>
      </trkpt>
      <trkpt lat="37.240161" lon="-8.834318">
        <ele>125.114</ele>
        <time>2018-12-28T16:57:54Z</time>
      </trkpt>
      <trkpt lat="37.240172" lon="-8.834348">
        <ele>124.608</ele>
        <time>2018-12-28T16:57:56Z</time>
      </trkpt>
      <trkpt lat="37.240207" lon="-8.834398">
        <ele>124.676</ele>
        <time>2018-12-28T16:58:00Z</time>
      </trkpt>
      <trkpt lat="37.240269" lon="-8.834490">
        <ele>125.174</ele>
        <time>2018-12-28T16:58:07Z</time>
      </trkpt>
      <trkpt lat="37.240322" lon="-8.834549">
        <ele>125.121</ele>
        <time>2018-12-28T16:58:12Z</time>
      </trkpt>
      <trkpt lat="37.240462" lon="-8.834704">
        <ele>125.166</ele>
        <time>2018-12-28T16:58:26Z</time>
      </trkpt>
      <trkpt lat="37.240510" lon="-8.834755">
        <ele>125.182</ele>
        <time>2018-12-28T16:58:31Z</time>
      </trkpt>
      <trkpt lat="37.240604" lon="-8.834853">
        <ele>125.533</ele>
        <time>2018-12-28T16:58:41Z</time>
      </trkpt>
      <trkpt lat="37.240635" lon="-8.834884">
        <ele>126.031</ele>
        <time>2018-12-28T16:58:44Z</time>
      </trkpt>
      <trkpt lat="37.240687" lon="-8.834904">
        <ele>126.047</ele>
        <time>2018-12-28T16:58:48Z</time>
      </trkpt>
      <trkpt lat="37.240836" lon="-8.834915">
        <ele>126.072</ele>
        <time>2018-12-28T16:59:01Z</time>
      </trkpt>
      <trkpt lat="37.240928" lon="-8.834909">
        <ele>126.013</ele>
        <time>2018-12-28T16:59:09Z</time>
      </trkpt>
      <trkpt lat="37.240958" lon="-8.834892">
        <ele>126.514</ele>
        <time>2018-12-28T16:59:12Z</time>
      </trkpt>
      <trkpt lat="37.241027" lon="-8.834856">
        <ele>127.008</ele>
        <time>2018-12-28T16:59:27Z</time>
      </trkpt>
      <trkpt lat="37.241255" lon="-8.835105">
        <ele>93.365</ele>
        <time>2018-12-29T07:59:54Z</time>
      </trkpt>
      <trkpt lat="37.241307" lon="-8.835065">
        <ele>93.868</ele>
        <time>2018-12-29T08:00:08Z</time>
      </trkpt>
      <trkpt lat="37.241322" lon="-8.834995">
        <ele>92.914</ele>
        <time>2018-12-29T08:00:21Z</time>
      </trkpt>
      <trkpt lat="37.241378" lon="-8.834876">
        <ele>97.208</ele>
        <time>2018-12-29T08:00:32Z</time>
      </trkpt>
      <trkpt lat="37.241379" lon="-8.834855">
        <ele>100.689</ele>
        <time>2018-12-29T08:00:35Z</time>
      </trkpt>
      <trkpt lat="37.241369" lon="-8.834826">
        <ele>103.967</ele>
        <time>2018-12-29T08:00:39Z</time>
      </trkpt>
      <trkpt lat="37.241354" lon="-8.834787">
        <ele>107.324</ele>
        <time>2018-12-29T08:00:44Z</time>
      </trkpt>
      <trkpt lat="37.241341" lon="-8.834773">
        <ele>108.749</ele>
        <time>2018-12-29T08:00:46Z</time>
      </trkpt>
      <trkpt lat="37.241310" lon="-8.834758">
        <ele>112.115</ele>
        <time>2018-12-29T08:00:51Z</time>
      </trkpt>
      <trkpt lat="37.241301" lon="-8.834759">
        <ele>112.610</ele>
        <time>2018-12-29T08:00:52Z</time>
      </trkpt>
      <trkpt lat="37.241273" lon="-8.834759">
        <ele>114.086</ele>
        <time>2018-12-29T08:00:55Z</time>
      </trkpt>
      <trkpt lat="37.241209" lon="-8.834787">
        <ele>117.473</ele>
        <time>2018-12-29T08:01:03Z</time>
      </trkpt>
      <trkpt lat="37.241208" lon="-8.834789">
        <ele>117.446</ele>
        <time>2018-12-29T08:01:04Z</time>
      </trkpt>
      <trkpt lat="37.241208" lon="-8.834780">
        <ele>118.888</ele>
        <time>2018-12-29T08:01:08Z</time>
      </trkpt>
      <trkpt lat="37.241158" lon="-8.834790">
        <ele>122.216</ele>
        <time>2018-12-29T08:01:18Z</time>
      </trkpt>
      <trkpt lat="37.241141" lon="-8.834807">
        <ele>122.708</ele>
        <time>2018-12-29T08:01:21Z</time>
      </trkpt>
      <trkpt lat="37.241116" lon="-8.834820">
        <ele>123.157</ele>
        <time>2018-12-29T08:01:24Z</time>
      </trkpt>
      <trkpt lat="37.240982" lon="-8.834879">
        <ele>125.125</ele>
        <time>2018-12-29T08:01:38Z</time>
      </trkpt>
      <trkpt lat="37.240838" lon="-8.834906">
        <ele>127.082</ele>
        <time>2018-12-29T08:01:52Z</time>
      </trkpt>
      <trkpt lat="37.240747" lon="-8.834900">
        <ele>127.557</ele>
        <time>2018-12-29T08:02:01Z</time>
      </trkpt>
      <trkpt lat="37.240689" lon="-8.834955">
        <ele>127.543</ele>
        <time>2018-12-29T08:02:09Z</time>
      </trkpt>
      <trkpt lat="37.240723" lon="-8.835089">
        <ele>127.988</ele>
        <time>2018-12-29T08:02:20Z</time>
      </trkpt>
      <trkpt lat="37.240745" lon="-8.835188">
        <ele>127.914</ele>
        <time>2018-12-29T08:02:27Z</time>
      </trkpt>
      <trkpt lat="37.240745" lon="-8.835214">
        <ele>127.921</ele>
        <time>2018-12-29T08:02:29Z</time>
      </trkpt>
      <trkpt lat="37.240772" lon="-8.835394">
        <ele>127.969</ele>
        <time>2018-12-29T08:02:42Z</time>
      </trkpt>
      <trkpt lat="37.240781" lon="-8.835550">
        <ele>128.404</ele>
        <time>2018-12-29T08:02:53Z</time>
      </trkpt>
      <trkpt lat="37.240791" lon="-8.835591">
        <ele>128.424</ele>
        <time>2018-12-29T08:02:56Z</time>
      </trkpt>
      <trkpt lat="37.240795" lon="-8.835652">
        <ele>127.908</ele>
        <time>2018-12-29T08:03:00Z</time>
      </trkpt>
      <trkpt lat="37.240803" lon="-8.835787">
        <ele>128.479</ele>
        <time>2018-12-29T08:03:09Z</time>
      </trkpt>
      <trkpt lat="37.240800" lon="-8.835813">
        <ele>128.437</ele>
        <time>2018-12-29T08:03:11Z</time>
      </trkpt>
      <trkpt lat="37.240809" lon="-8.835869">
        <ele>128.434</ele>
        <time>2018-12-29T08:03:15Z</time>
      </trkpt>
      <trkpt lat="37.240823" lon="-8.835987">
        <ele>128.979</ele>
        <time>2018-12-29T08:03:23Z</time>
      </trkpt>
      <trkpt lat="37.240825" lon="-8.836014">
        <ele>128.915</ele>
        <time>2018-12-29T08:03:25Z</time>
      </trkpt>
      <trkpt lat="37.240872" lon="-8.836205">
        <ele>128.960</ele>
        <time>2018-12-29T08:03:38Z</time>
      </trkpt>
      <trkpt lat="37.240911" lon="-8.836420">
        <ele>129.926</ele>
        <time>2018-12-29T08:03:52Z</time>
      </trkpt>
      <trkpt lat="37.240942" lon="-8.836485">
        <ele>130.433</ele>
        <time>2018-12-29T08:03:57Z</time>
      </trkpt>
      <trkpt lat="37.240986" lon="-8.836593">
        <ele>130.457</ele>
        <time>2018-12-29T08:04:05Z</time>
      </trkpt>
      <trkpt lat="37.241022" lon="-8.836678">
        <ele>130.800</ele>
        <time>2018-12-29T08:04:11Z</time>
      </trkpt>
      <trkpt lat="37.241074" lon="-8.836786">
        <ele>131.820</ele>
        <time>2018-12-29T08:04:19Z</time>
      </trkpt>
      <trkpt lat="37.241108" lon="-8.836855">
        <ele>132.308</ele>
        <time>2018-12-29T08:04:24Z</time>
      </trkpt>
      <trkpt lat="37.241130" lon="-8.836911">
        <ele>132.848</ele>
        <time>2018-12-29T08:04:28Z</time>
      </trkpt>
      <trkpt lat="37.241163" lon="-8.836955">
        <ele>132.876</ele>
        <time>2018-12-29T08:04:32Z</time>
      </trkpt>
      <trkpt lat="37.241189" lon="-8.837022">
        <ele>133.223</ele>
        <time>2018-12-29T08:04:37Z</time>
      </trkpt>
      <trkpt lat="37.241215" lon="-8.837075">
        <ele>133.788</ele>
        <time>2018-12-29T08:04:41Z</time>
      </trkpt>
      <trkpt lat="37.241272" lon="-8.837215">
        <ele>134.774</ele>
        <time>2018-12-29T08:04:51Z</time>
      </trkpt>
      <trkpt lat="37.241336" lon="-8.837432">
        <ele>135.679</ele>
        <time>2018-12-29T08:05:05Z</time>
      </trkpt>
      <trkpt lat="37.241376" lon="-8.837593">
        <ele>137.125</ele>
        <time>2018-12-29T08:05:16Z</time>
      </trkpt>
      <trkpt lat="37.241420" lon="-8.837729">
        <ele>138.092</ele>
        <time>2018-12-29T08:05:26Z</time>
      </trkpt>
      <trkpt lat="37.241465" lon="-8.837822">
        <ele>138.576</ele>
        <time>2018-12-29T08:05:32Z</time>
      </trkpt>
      <trkpt lat="37.241518" lon="-8.837884">
        <ele>139.090</ele>
        <time>2018-12-29T08:05:38Z</time>
      </trkpt>
      <trkpt lat="37.241563" lon="-8.837936">
        <ele>140.019</ele>
        <time>2018-12-29T08:05:43Z</time>
      </trkpt>
      <trkpt lat="37.241663" lon="-8.838025">
        <ele>141.408</ele>
        <time>2018-12-29T08:05:53Z</time>
      </trkpt>
      <trkpt lat="37.241770" lon="-8.838099">
        <ele>142.840</ele>
        <time>2018-12-29T08:06:03Z</time>
      </trkpt>
      <trkpt lat="37.241791" lon="-8.838114">
        <ele>143.338</ele>
        <time>2018-12-29T08:06:05Z</time>
      </trkpt>
      <trkpt lat="37.241822" lon="-8.838119">
        <ele>143.385</ele>
        <time>2018-12-29T08:06:07Z</time>
      </trkpt>
      <trkpt lat="37.241876" lon="-8.838130">
        <ele>143.880</ele>
        <time>2018-12-29T08:06:11Z</time>
      </trkpt>
      <trkpt lat="37.242037" lon="-8.838142">
        <ele>144.386</ele>
        <time>2018-12-29T08:06:23Z</time>
      </trkpt>
      <trkpt lat="37.242152" lon="-8.838224">
        <ele>143.811</ele>
        <time>2018-12-29T08:06:35Z</time>
      </trkpt>
      <trkpt lat="37.242171" lon="-8.838244">
        <ele>143.887</ele>
        <time>2018-12-29T08:06:37Z</time>
      </trkpt>
      <trkpt lat="37.242206" lon="-8.838304">
        <ele>143.344</ele>
        <time>2018-12-29T08:06:42Z</time>
      </trkpt>
      <trkpt lat="37.242222" lon="-8.838366">
        <ele>143.381</ele>
        <time>2018-12-29T08:06:46Z</time>
      </trkpt>
      <trkpt lat="37.242250" lon="-8.838485">
        <ele>143.361</ele>
        <time>2018-12-29T08:06:54Z</time>
      </trkpt>
      <trkpt lat="37.242285" lon="-8.838622">
        <ele>143.817</ele>
        <time>2018-12-29T08:07:03Z</time>
      </trkpt>
      <trkpt lat="37.242338" lon="-8.838795">
        <ele>143.808</ele>
        <time>2018-12-29T08:07:14Z</time>
      </trkpt>
      <trkpt lat="37.242402" lon="-8.838888">
        <ele>143.331</ele>
        <time>2018-12-29T08:07:22Z</time>
      </trkpt>
      <trkpt lat="37.242427" lon="-8.838947">
        <ele>143.349</ele>
        <time>2018-12-29T08:07:26Z</time>
      </trkpt>
      <trkpt lat="37.242505" lon="-8.839033">
        <ele>143.336</ele>
        <time>2018-12-29T08:07:34Z</time>
      </trkpt>
      <trkpt lat="37.242610" lon="-8.839150">
        <ele>142.851</ele>
        <time>2018-12-29T08:07:45Z</time>
      </trkpt>
      <trkpt lat="37.242727" lon="-8.839280">
        <ele>142.487</ele>
        <time>2018-12-29T08:07:57Z</time>
      </trkpt>
      <trkpt lat="37.242747" lon="-8.839298">
        <ele>142.472</ele>
        <time>2018-12-29T08:07:59Z</time>
      </trkpt>
      <trkpt lat="37.242829" lon="-8.839371">
        <ele>142.478</ele>
        <time>2018-12-29T08:08:07Z</time>
      </trkpt>
      <trkpt lat="37.242880" lon="-8.839439">
        <ele>142.455</ele>
        <time>2018-12-29T08:08:13Z</time>
      </trkpt>
      <trkpt lat="37.242899" lon="-8.839495">
        <ele>141.958</ele>
        <time>2018-12-29T08:08:17Z</time>
      </trkpt>
      <trkpt lat="37.242912" lon="-8.839642">
        <ele>141.952</ele>
        <time>2018-12-29T08:08:27Z</time>
      </trkpt>
      <trkpt lat="37.242782" lon="-8.839811">
        <ele>142.417</ele>
        <time>2018-12-29T08:08:42Z</time>
      </trkpt>
      <trkpt lat="37.242733" lon="-8.839852">
        <ele>142.408</ele>
        <time>2018-12-29T08:08:47Z</time>
      </trkpt>
      <trkpt lat="37.242585" lon="-8.839962">
        <ele>143.878</ele>
        <time>2018-12-29T08:09:00Z</time>
      </trkpt>
      <trkpt lat="37.242457" lon="-8.840075">
        <ele>144.876</ele>
        <time>2018-12-29T08:09:12Z</time>
      </trkpt>
      <trkpt lat="37.242381" lon="-8.840153">
        <ele>145.323</ele>
        <time>2018-12-29T08:09:21Z</time>
      </trkpt>
      <trkpt lat="37.242369" lon="-8.840193">
        <ele>145.368</ele>
        <time>2018-12-29T08:09:24Z</time>
      </trkpt>
      <trkpt lat="37.242429" lon="-8.840206">
        <ele>145.774</ele>
        <time>2018-12-29T08:09:32Z</time>
      </trkpt>
      <trkpt lat="37.242455" lon="-8.840210">
        <ele>146.289</ele>
        <time>2018-12-29T08:09:43Z</time>
      </trkpt>
      <trkpt lat="37.242475" lon="-8.840207">
        <ele>146.795</ele>
        <time>2018-12-29T08:09:45Z</time>
      </trkpt>
      <trkpt lat="37.242533" lon="-8.840192">
        <ele>146.752</ele>
        <time>2018-12-29T08:09:51Z</time>
      </trkpt>
      <trkpt lat="37.242730" lon="-8.840194">
        <ele>146.711</ele>
        <time>2018-12-29T08:10:07Z</time>
      </trkpt>
      <trkpt lat="37.242904" lon="-8.840190">
        <ele>146.221</ele>
        <time>2018-12-29T08:10:22Z</time>
      </trkpt>
      <trkpt lat="37.243063" lon="-8.840158">
        <ele>146.203</ele>
        <time>2018-12-29T08:10:35Z</time>
      </trkpt>
      <trkpt lat="37.243211" lon="-8.840122">
        <ele>146.208</ele>
        <time>2018-12-29T08:10:47Z</time>
      </trkpt>
      <trkpt lat="37.243388" lon="-8.840069">
        <ele>145.784</ele>
        <time>2018-12-29T08:11:01Z</time>
      </trkpt>
      <trkpt lat="37.243567" lon="-8.840025">
        <ele>145.352</ele>
        <time>2018-12-29T08:11:16Z</time>
      </trkpt>
      <trkpt lat="37.243747" lon="-8.840004">
        <ele>144.359</ele>
        <time>2018-12-29T08:11:32Z</time>
      </trkpt>
      <trkpt lat="37.243879" lon="-8.839951">
        <ele>144.354</ele>
        <time>2018-12-29T08:11:44Z</time>
      </trkpt>
      <trkpt lat="37.244049" lon="-8.839871">
        <ele>144.860</ele>
        <time>2018-12-29T08:11:57Z</time>
      </trkpt>
      <trkpt lat="37.244190" lon="-8.839789">
        <ele>144.375</ele>
        <time>2018-12-29T08:12:10Z</time>
      </trkpt>
      <trkpt lat="37.244245" lon="-8.839743">
        <ele>143.361</ele>
        <time>2018-12-29T08:12:15Z</time>
      </trkpt>
      <trkpt lat="37.244355" lon="-8.839628">
        <ele>142.448</ele>
        <time>2018-12-29T08:12:26Z</time>
      </trkpt>
      <trkpt lat="37.244483" lon="-8.839469">
        <ele>141.993</ele>
        <time>2018-12-29T08:12:40Z</time>
      </trkpt>
      <trkpt lat="37.244596" lon="-8.839326">
        <ele>141.465</ele>
        <time>2018-12-29T08:12:53Z</time>
      </trkpt>
      <trkpt lat="37.244708" lon="-8.839219">
        <ele>141.421</ele>
        <time>2018-12-29T08:13:04Z</time>
      </trkpt>
      <trkpt lat="37.244824" lon="-8.839091">
        <ele>141.908</ele>
        <time>2018-12-29T08:13:17Z</time>
      </trkpt>
      <trkpt lat="37.244951" lon="-8.838945">
        <ele>142.872</ele>
        <time>2018-12-29T08:13:31Z</time>
      </trkpt>
      <trkpt lat="37.245074" lon="-8.838814">
        <ele>143.870</ele>
        <time>2018-12-29T08:13:44Z</time>
      </trkpt>
      <trkpt lat="37.245205" lon="-8.838697">
        <ele>145.337</ele>
        <time>2018-12-29T08:13:57Z</time>
      </trkpt>
      <trkpt lat="37.245323" lon="-8.838565">
        <ele>146.282</ele>
        <time>2018-12-29T08:14:10Z</time>
      </trkpt>
      <trkpt lat="37.245435" lon="-8.838430">
        <ele>146.768</ele>
        <time>2018-12-29T08:14:22Z</time>
      </trkpt>
      <trkpt lat="37.245536" lon="-8.838285">
        <ele>147.723</ele>
        <time>2018-12-29T08:14:34Z</time>
      </trkpt>
      <trkpt lat="37.245597" lon="-8.838102">
        <ele>147.259</ele>
        <time>2018-12-29T08:14:47Z</time>
      </trkpt>
      <trkpt lat="37.245654" lon="-8.837879">
        <ele>146.256</ele>
        <time>2018-12-29T08:15:02Z</time>
      </trkpt>
      <trkpt lat="37.245728" lon="-8.837665">
        <ele>146.233</ele>
        <time>2018-12-29T08:15:16Z</time>
      </trkpt>
      <trkpt lat="37.245768" lon="-8.837446">
        <ele>145.723</ele>
        <time>2018-12-29T08:15:30Z</time>
      </trkpt>
      <trkpt lat="37.245769" lon="-8.837345">
        <ele>145.315</ele>
        <time>2018-12-29T08:15:36Z</time>
      </trkpt>
      <trkpt lat="37.245790" lon="-8.837104">
        <ele>143.308</ele>
        <time>2018-12-29T08:15:51Z</time>
      </trkpt>
      <trkpt lat="37.245794" lon="-8.837025">
        <ele>142.876</ele>
        <time>2018-12-29T08:15:56Z</time>
      </trkpt>
      <trkpt lat="37.245801" lon="-8.836796">
        <ele>141.474</ele>
        <time>2018-12-29T08:16:10Z</time>
      </trkpt>
      <trkpt lat="37.245803" lon="-8.836687">
        <ele>140.961</ele>
        <time>2018-12-29T08:16:17Z</time>
      </trkpt>
      <trkpt lat="37.245813" lon="-8.836641">
        <ele>140.986</ele>
        <time>2018-12-29T08:16:20Z</time>
      </trkpt>
      <trkpt lat="37.245829" lon="-8.836425">
        <ele>140.492</ele>
        <time>2018-12-29T08:16:34Z</time>
      </trkpt>
      <trkpt lat="37.245885" lon="-8.836210">
        <ele>140.027</ele>
        <time>2018-12-29T08:16:49Z</time>
      </trkpt>
      <trkpt lat="37.245979" lon="-8.836075">
        <ele>139.583</ele>
        <time>2018-12-29T08:17:00Z</time>
      </trkpt>
      <trkpt lat="37.246032" lon="-8.836009">
        <ele>139.560</ele>
        <time>2018-12-29T08:17:06Z</time>
      </trkpt>
      <trkpt lat="37.246111" lon="-8.835936">
        <ele>140.064</ele>
        <time>2018-12-29T08:17:14Z</time>
      </trkpt>
      <trkpt lat="37.246167" lon="-8.835886">
        <ele>140.406</ele>
        <time>2018-12-29T08:17:19Z</time>
      </trkpt>
      <trkpt lat="37.246219" lon="-8.835846">
        <ele>140.916</ele>
        <time>2018-12-29T08:17:24Z</time>
      </trkpt>
      <trkpt lat="37.246358" lon="-8.835721">
        <ele>142.408</ele>
        <time>2018-12-29T08:17:38Z</time>
      </trkpt>
      <trkpt lat="37.246456" lon="-8.835580">
        <ele>143.329</ele>
        <time>2018-12-29T08:17:50Z</time>
      </trkpt>
      <trkpt lat="37.246481" lon="-8.835508">
        <ele>142.827</ele>
        <time>2018-12-29T08:17:55Z</time>
      </trkpt>
      <trkpt lat="37.246583" lon="-8.835325">
        <ele>142.814</ele>
        <time>2018-12-29T08:18:09Z</time>
      </trkpt>
      <trkpt lat="37.246710" lon="-8.835195">
        <ele>143.379</ele>
        <time>2018-12-29T08:18:22Z</time>
      </trkpt>
      <trkpt lat="37.246863" lon="-8.835124">
        <ele>143.885</ele>
        <time>2018-12-29T08:18:35Z</time>
      </trkpt>
      <trkpt lat="37.247010" lon="-8.835108">
        <ele>144.850</ele>
        <time>2018-12-29T08:18:47Z</time>
      </trkpt>
      <trkpt lat="37.247056" lon="-8.835122">
        <ele>144.836</ele>
        <time>2018-12-29T08:18:50Z</time>
      </trkpt>
      <trkpt lat="37.247111" lon="-8.835135">
        <ele>145.323</ele>
        <time>2018-12-29T08:18:55Z</time>
      </trkpt>
      <trkpt lat="37.247209" lon="-8.835174">
        <ele>145.762</ele>
        <time>2018-12-29T08:19:03Z</time>
      </trkpt>
      <trkpt lat="37.247247" lon="-8.835180">
        <ele>146.283</ele>
        <time>2018-12-29T08:19:06Z</time>
      </trkpt>
      <trkpt lat="37.247330" lon="-8.835226">
        <ele>146.711</ele>
        <time>2018-12-29T08:19:14Z</time>
      </trkpt>
      <trkpt lat="37.247358" lon="-8.835246">
        <ele>146.708</ele>
        <time>2018-12-29T08:19:17Z</time>
      </trkpt>
      <trkpt lat="37.247395" lon="-8.835263">
        <ele>146.719</ele>
        <time>2018-12-29T08:19:20Z</time>
      </trkpt>
      <trkpt lat="37.247468" lon="-8.835276">
        <ele>146.767</ele>
        <time>2018-12-29T08:19:26Z</time>
      </trkpt>
      <trkpt lat="37.247514" lon="-8.835309">
        <ele>146.754</ele>
        <time>2018-12-29T08:19:31Z</time>
      </trkpt>
      <trkpt lat="37.247610" lon="-8.835337">
        <ele>146.279</ele>
        <time>2018-12-29T08:19:39Z</time>
      </trkpt>
      <trkpt lat="37.247668" lon="-8.835343">
        <ele>146.715</ele>
        <time>2018-12-29T08:19:44Z</time>
      </trkpt>
      <trkpt lat="37.247730" lon="-8.835340">
        <ele>146.250</ele>
        <time>2018-12-29T08:19:49Z</time>
      </trkpt>
      <trkpt lat="37.247901" lon="-8.835310">
        <ele>146.286</ele>
        <time>2018-12-29T08:20:03Z</time>
      </trkpt>
      <trkpt lat="37.248001" lon="-8.835299">
        <ele>146.243</ele>
        <time>2018-12-29T08:20:11Z</time>
      </trkpt>
      <trkpt lat="37.248158" lon="-8.835344">
        <ele>146.273</ele>
        <time>2018-12-29T08:20:24Z</time>
      </trkpt>
      <trkpt lat="37.248327" lon="-8.835378">
        <ele>146.785</ele>
        <time>2018-12-29T08:20:37Z</time>
      </trkpt>
      <trkpt lat="37.248381" lon="-8.835403">
        <ele>146.213</ele>
        <time>2018-12-29T08:20:41Z</time>
      </trkpt>
      <trkpt lat="37.248421" lon="-8.835417">
        <ele>146.208</ele>
        <time>2018-12-29T08:20:44Z</time>
      </trkpt>
      <trkpt lat="37.248479" lon="-8.835419">
        <ele>146.210</ele>
        <time>2018-12-29T08:20:48Z</time>
      </trkpt>
      <trkpt lat="37.248627" lon="-8.835451">
        <ele>146.718</ele>
        <time>2018-12-29T08:20:59Z</time>
      </trkpt>
      <trkpt lat="37.248749" lon="-8.835466">
        <ele>147.275</ele>
        <time>2018-12-29T08:21:08Z</time>
      </trkpt>
      <trkpt lat="37.248912" lon="-8.835498">
        <ele>146.730</ele>
        <time>2018-12-29T08:21:21Z</time>
      </trkpt>
      <trkpt lat="37.248994" lon="-8.835507">
        <ele>147.716</ele>
        <time>2018-12-29T08:21:28Z</time>
      </trkpt>
      <trkpt lat="37.249168" lon="-8.835514">
        <ele>147.231</ele>
        <time>2018-12-29T08:21:41Z</time>
      </trkpt>
      <trkpt lat="37.249319" lon="-8.835509">
        <ele>147.737</ele>
        <time>2018-12-29T08:21:52Z</time>
      </trkpt>
      <trkpt lat="37.249470" lon="-8.835532">
        <ele>148.114</ele>
        <time>2018-12-29T08:22:04Z</time>
      </trkpt>
      <trkpt lat="37.249522" lon="-8.835541">
        <ele>148.123</ele>
        <time>2018-12-29T08:22:08Z</time>
      </trkpt>
      <trkpt lat="37.249701" lon="-8.835543">
        <ele>149.683</ele>
        <time>2018-12-29T08:22:22Z</time>
      </trkpt>
      <trkpt lat="37.249838" lon="-8.835553">
        <ele>150.111</ele>
        <time>2018-12-29T08:22:33Z</time>
      </trkpt>
      <trkpt lat="37.249849" lon="-8.835558">
        <ele>150.508</ele>
        <time>2018-12-29T08:22:34Z</time>
      </trkpt>
      <trkpt lat="37.250048" lon="-8.835590">
        <ele>152.085</ele>
        <time>2018-12-29T08:22:50Z</time>
      </trkpt>
      <trkpt lat="37.250061" lon="-8.835590">
        <ele>152.093</ele>
        <time>2018-12-29T08:22:51Z</time>
      </trkpt>
      <trkpt lat="37.250110" lon="-8.835592">
        <ele>152.050</ele>
        <time>2018-12-29T08:22:55Z</time>
      </trkpt>
      <trkpt lat="37.250249" lon="-8.835605">
        <ele>152.595</ele>
        <time>2018-12-29T08:23:05Z</time>
      </trkpt>
      <trkpt lat="37.250273" lon="-8.835605">
        <ele>152.541</ele>
        <time>2018-12-29T08:23:07Z</time>
      </trkpt>
      <trkpt lat="37.250390" lon="-8.835592">
        <ele>152.956</ele>
        <time>2018-12-29T08:23:16Z</time>
      </trkpt>
      <trkpt lat="37.250579" lon="-8.835570">
        <ele>153.922</ele>
        <time>2018-12-29T08:23:30Z</time>
      </trkpt>
      <trkpt lat="37.250732" lon="-8.835574">
        <ele>154.429</ele>
        <time>2018-12-29T08:23:43Z</time>
      </trkpt>
      <trkpt lat="37.250833" lon="-8.835677">
        <ele>154.963</ele>
        <time>2018-12-29T08:23:53Z</time>
      </trkpt>
      <trkpt lat="37.250894" lon="-8.835748">
        <ele>154.944</ele>
        <time>2018-12-29T08:24:00Z</time>
      </trkpt>
      <trkpt lat="37.250946" lon="-8.835806">
        <ele>154.918</ele>
        <time>2018-12-29T08:24:06Z</time>
      </trkpt>
      <trkpt lat="37.250980" lon="-8.835819">
        <ele>155.308</ele>
        <time>2018-12-29T08:24:09Z</time>
      </trkpt>
      <trkpt lat="37.251057" lon="-8.835873">
        <ele>155.359</ele>
        <time>2018-12-29T08:24:16Z</time>
      </trkpt>
      <trkpt lat="37.251094" lon="-8.835906">
        <ele>155.357</ele>
        <time>2018-12-29T08:24:20Z</time>
      </trkpt>
      <trkpt lat="37.251135" lon="-8.835945">
        <ele>155.334</ele>
        <time>2018-12-29T08:24:24Z</time>
      </trkpt>
      <trkpt lat="37.251172" lon="-8.835967">
        <ele>155.849</ele>
        <time>2018-12-29T08:24:27Z</time>
      </trkpt>
      <trkpt lat="37.251218" lon="-8.836004">
        <ele>155.375</ele>
        <time>2018-12-29T08:24:31Z</time>
      </trkpt>
      <trkpt lat="37.251350" lon="-8.836079">
        <ele>156.350</ele>
        <time>2018-12-29T08:24:42Z</time>
      </trkpt>
      <trkpt lat="37.251394" lon="-8.836095">
        <ele>156.336</ele>
        <time>2018-12-29T08:24:46Z</time>
      </trkpt>
      <trkpt lat="37.251443" lon="-8.836129">
        <ele>156.883</ele>
        <time>2018-12-29T08:24:51Z</time>
      </trkpt>
      <trkpt lat="37.251481" lon="-8.836154">
        <ele>156.361</ele>
        <time>2018-12-29T08:24:55Z</time>
      </trkpt>
      <trkpt lat="37.251597" lon="-8.836226">
        <ele>156.821</ele>
        <time>2018-12-29T08:25:05Z</time>
      </trkpt>
      <trkpt lat="37.251695" lon="-8.836304">
        <ele>156.813</ele>
        <time>2018-12-29T08:25:14Z</time>
      </trkpt>
      <trkpt lat="37.251748" lon="-8.836339">
        <ele>156.808</ele>
        <time>2018-12-29T08:25:19Z</time>
      </trkpt>
      <trkpt lat="37.251788" lon="-8.836363">
        <ele>157.379</ele>
        <time>2018-12-29T08:25:23Z</time>
      </trkpt>
      <trkpt lat="37.251911" lon="-8.836433">
        <ele>157.747</ele>
        <time>2018-12-29T08:25:34Z</time>
      </trkpt>
      <trkpt lat="37.252031" lon="-8.836506">
        <ele>157.794</ele>
        <time>2018-12-29T08:25:45Z</time>
      </trkpt>
      <trkpt lat="37.252068" lon="-8.836528">
        <ele>157.739</ele>
        <time>2018-12-29T08:25:49Z</time>
      </trkpt>
      <trkpt lat="37.252106" lon="-8.836546">
        <ele>157.385</ele>
        <time>2018-12-29T08:25:53Z</time>
      </trkpt>
      <trkpt lat="37.252137" lon="-8.836563">
        <ele>157.750</ele>
        <time>2018-12-29T08:25:56Z</time>
      </trkpt>
      <trkpt lat="37.252205" lon="-8.836588">
        <ele>158.246</ele>
        <time>2018-12-29T08:26:01Z</time>
      </trkpt>
      <trkpt lat="37.252283" lon="-8.836609">
        <ele>157.773</ele>
        <time>2018-12-29T08:26:07Z</time>
      </trkpt>
      <trkpt lat="37.252417" lon="-8.836638">
        <ele>157.763</ele>
        <time>2018-12-29T08:26:16Z</time>
      </trkpt>
      <trkpt lat="37.252437" lon="-8.836622">
        <ele>158.244</ele>
        <time>2018-12-29T08:26:24Z</time>
      </trkpt>
      <trkpt lat="37.252437" lon="-8.836622">
        <ele>157.718</ele>
        <time>2018-12-29T08:26:28Z</time>
      </trkpt>
      <trkpt lat="37.252578" lon="-8.836704">
        <ele>157.708</ele>
        <time>2018-12-29T08:26:39Z</time>
      </trkpt>
      <trkpt lat="37.252659" lon="-8.836729">
        <ele>158.289</ele>
        <time>2018-12-29T08:26:45Z</time>
      </trkpt>
      <trkpt lat="37.252763" lon="-8.836789">
        <ele>158.297</ele>
        <time>2018-12-29T08:26:54Z</time>
      </trkpt>
      <trkpt lat="37.252816" lon="-8.836824">
        <ele>158.764</ele>
        <time>2018-12-29T08:26:58Z</time>
      </trkpt>
      <trkpt lat="37.252928" lon="-8.836874">
        <ele>158.729</ele>
        <time>2018-12-29T08:27:07Z</time>
      </trkpt>
      <trkpt lat="37.252951" lon="-8.836890">
        <ele>158.735</ele>
        <time>2018-12-29T08:27:09Z</time>
      </trkpt>
      <trkpt lat="37.253011" lon="-8.836927">
        <ele>158.210</ele>
        <time>2018-12-29T08:27:14Z</time>
      </trkpt>
      <trkpt lat="37.253040" lon="-8.836929">
        <ele>158.296</ele>
        <time>2018-12-29T08:27:16Z</time>
      </trkpt>
      <trkpt lat="37.253079" lon="-8.836949">
        <ele>158.713</ele>
        <time>2018-12-29T08:27:19Z</time>
      </trkpt>
      <trkpt lat="37.253089" lon="-8.836963">
        <ele>158.788</ele>
        <time>2018-12-29T08:27:20Z</time>
      </trkpt>
      <trkpt lat="37.253161" lon="-8.837009">
        <ele>158.224</ele>
        <time>2018-12-29T08:27:26Z</time>
      </trkpt>
      <trkpt lat="37.253203" lon="-8.837018">
        <ele>158.726</ele>
        <time>2018-12-29T08:27:29Z</time>
      </trkpt>
      <trkpt lat="37.253316" lon="-8.837078">
        <ele>158.708</ele>
        <time>2018-12-29T08:27:38Z</time>
      </trkpt>
      <trkpt lat="37.253380" lon="-8.837107">
        <ele>158.711</ele>
        <time>2018-12-29T08:27:43Z</time>
      </trkpt>
      <trkpt lat="37.253506" lon="-8.837174">
        <ele>158.269</ele>
        <time>2018-12-29T08:27:53Z</time>
      </trkpt>
      <trkpt lat="37.253617" lon="-8.837237">
        <ele>158.266</ele>
        <time>2018-12-29T08:28:02Z</time>
      </trkpt>
      <trkpt lat="37.253736" lon="-8.837299">
        <ele>158.761</ele>
        <time>2018-12-29T08:28:12Z</time>
      </trkpt>
      <trkpt lat="37.253769" lon="-8.837314">
        <ele>158.217</ele>
        <time>2018-12-29T08:28:15Z</time>
      </trkpt>
      <trkpt lat="37.253900" lon="-8.837389">
        <ele>158.712</ele>
        <time>2018-12-29T08:28:26Z</time>
      </trkpt>
      <trkpt lat="37.253990" lon="-8.837456">
        <ele>158.738</ele>
        <time>2018-12-29T08:28:34Z</time>
      </trkpt>
      <trkpt lat="37.254084" lon="-8.837525">
        <ele>158.735</ele>
        <time>2018-12-29T08:28:42Z</time>
      </trkpt>
      <trkpt lat="37.254122" lon="-8.837575">
        <ele>158.771</ele>
        <time>2018-12-29T08:28:47Z</time>
      </trkpt>
      <trkpt lat="37.254208" lon="-8.837648">
        <ele>158.741</ele>
        <time>2018-12-29T08:28:54Z</time>
      </trkpt>
      <trkpt lat="37.254257" lon="-8.837673">
        <ele>159.215</ele>
        <time>2018-12-29T08:28:58Z</time>
      </trkpt>
      <trkpt lat="37.254405" lon="-8.837784">
        <ele>158.708</ele>
        <time>2018-12-29T08:29:11Z</time>
      </trkpt>
      <trkpt lat="37.254481" lon="-8.837809">
        <ele>159.260</ele>
        <time>2018-12-29T08:29:17Z</time>
      </trkpt>
      <trkpt lat="37.254596" lon="-8.837891">
        <ele>159.248</ele>
        <time>2018-12-29T08:29:27Z</time>
      </trkpt>
      <trkpt lat="37.254705" lon="-8.837972">
        <ele>159.225</ele>
        <time>2018-12-29T08:29:36Z</time>
      </trkpt>
      <trkpt lat="37.254837" lon="-8.838072">
        <ele>158.730</ele>
        <time>2018-12-29T08:29:47Z</time>
      </trkpt>
      <trkpt lat="37.254927" lon="-8.838132">
        <ele>158.786</ele>
        <time>2018-12-29T08:29:54Z</time>
      </trkpt>
      <trkpt lat="37.255060" lon="-8.838215">
        <ele>158.761</ele>
        <time>2018-12-29T08:30:05Z</time>
      </trkpt>
      <trkpt lat="37.255179" lon="-8.838295">
        <ele>158.297</ele>
        <time>2018-12-29T08:30:15Z</time>
      </trkpt>
      <trkpt lat="37.255295" lon="-8.838367">
        <ele>157.754</ele>
        <time>2018-12-29T08:30:25Z</time>
      </trkpt>
      <trkpt lat="37.255320" lon="-8.838389">
        <ele>157.777</ele>
        <time>2018-12-29T08:30:27Z</time>
      </trkpt>
      <trkpt lat="37.255361" lon="-8.838438">
        <ele>157.761</ele>
        <time>2018-12-29T08:30:31Z</time>
      </trkpt>
      <trkpt lat="37.255498" lon="-8.838536">
        <ele>157.327</ele>
        <time>2018-12-29T08:30:42Z</time>
      </trkpt>
      <trkpt lat="37.255601" lon="-8.838601">
        <ele>157.308</ele>
        <time>2018-12-29T08:30:51Z</time>
      </trkpt>
      <trkpt lat="37.255623" lon="-8.838625">
        <ele>157.330</ele>
        <time>2018-12-29T08:30:53Z</time>
      </trkpt>
      <trkpt lat="37.255718" lon="-8.838673">
        <ele>156.858</ele>
        <time>2018-12-29T08:31:01Z</time>
      </trkpt>
      <trkpt lat="37.255813" lon="-8.838738">
        <ele>156.865</ele>
        <time>2018-12-29T08:31:09Z</time>
      </trkpt>
      <trkpt lat="37.255880" lon="-8.838796">
        <ele>156.330</ele>
        <time>2018-12-29T08:31:15Z</time>
      </trkpt>
      <trkpt lat="37.255957" lon="-8.838854">
        <ele>155.886</ele>
        <time>2018-12-29T08:31:22Z</time>
      </trkpt>
      <trkpt lat="37.255993" lon="-8.838889">
        <ele>156.391</ele>
        <time>2018-12-29T08:31:26Z</time>
      </trkpt>
      <trkpt lat="37.256054" lon="-8.838912">
        <ele>155.857</ele>
        <time>2018-12-29T08:31:30Z</time>
      </trkpt>
      <trkpt lat="37.256200" lon="-8.839023">
        <ele>155.844</ele>
        <time>2018-12-29T08:31:44Z</time>
      </trkpt>
      <trkpt lat="37.256210" lon="-8.839032">
        <ele>155.334</ele>
        <time>2018-12-29T08:31:45Z</time>
      </trkpt>
      <trkpt lat="37.256263" lon="-8.839082">
        <ele>155.355</ele>
        <time>2018-12-29T08:31:50Z</time>
      </trkpt>
      <trkpt lat="37.256378" lon="-8.839160">
        <ele>155.310</ele>
        <time>2018-12-29T08:32:00Z</time>
      </trkpt>
      <trkpt lat="37.256473" lon="-8.839238">
        <ele>155.308</ele>
        <time>2018-12-29T08:32:08Z</time>
      </trkpt>
      <trkpt lat="37.256580" lon="-8.839302">
        <ele>154.966</ele>
        <time>2018-12-29T08:32:17Z</time>
      </trkpt>
      <trkpt lat="37.256693" lon="-8.839391">
        <ele>154.964</ele>
        <time>2018-12-29T08:32:27Z</time>
      </trkpt>
      <trkpt lat="37.256717" lon="-8.839404">
        <ele>155.371</ele>
        <time>2018-12-29T08:32:29Z</time>
      </trkpt>
      <trkpt lat="37.256762" lon="-8.839454">
        <ele>154.916</ele>
        <time>2018-12-29T08:32:34Z</time>
      </trkpt>
      <trkpt lat="37.256854" lon="-8.839502">
        <ele>154.452</ele>
        <time>2018-12-29T08:32:41Z</time>
      </trkpt>
      <trkpt lat="37.256960" lon="-8.839599">
        <ele>153.947</ele>
        <time>2018-12-29T08:32:51Z</time>
      </trkpt>
      <trkpt lat="37.257006" lon="-8.839625">
        <ele>154.473</ele>
        <time>2018-12-29T08:32:55Z</time>
      </trkpt>
      <trkpt lat="37.257046" lon="-8.839667">
        <ele>153.950</ele>
        <time>2018-12-29T08:32:59Z</time>
      </trkpt>
      <trkpt lat="37.257176" lon="-8.839741">
        <ele>153.441</ele>
        <time>2018-12-29T08:33:10Z</time>
      </trkpt>
      <trkpt lat="37.257296" lon="-8.839819">
        <ele>153.481</ele>
        <time>2018-12-29T08:33:20Z</time>
      </trkpt>
      <trkpt lat="37.257380" lon="-8.839865">
        <ele>152.909</ele>
        <time>2018-12-29T08:33:27Z</time>
      </trkpt>
      <trkpt lat="37.257473" lon="-8.839929">
        <ele>152.508</ele>
        <time>2018-12-29T08:33:35Z</time>
      </trkpt>
      <trkpt lat="37.257540" lon="-8.839980">
        <ele>152.047</ele>
        <time>2018-12-29T08:33:41Z</time>
      </trkpt>
      <trkpt lat="37.257567" lon="-8.839998">
        <ele>152.575</ele>
        <time>2018-12-29T08:33:43Z</time>
      </trkpt>
      <trkpt lat="37.257655" lon="-8.840080">
        <ele>151.572</ele>
        <time>2018-12-29T08:33:51Z</time>
      </trkpt>
      <trkpt lat="37.257685" lon="-8.840108">
        <ele>151.557</ele>
        <time>2018-12-29T08:33:54Z</time>
      </trkpt>
      <trkpt lat="37.257802" lon="-8.840187">
        <ele>151.023</ele>
        <time>2018-12-29T08:34:04Z</time>
      </trkpt>
      <trkpt lat="37.257840" lon="-8.840205">
        <ele>151.018</ele>
        <time>2018-12-29T08:34:07Z</time>
      </trkpt>
      <trkpt lat="37.257914" lon="-8.840276">
        <ele>150.564</ele>
        <time>2018-12-29T08:34:14Z</time>
      </trkpt>
      <trkpt lat="37.258000" lon="-8.840330">
        <ele>150.531</ele>
        <time>2018-12-29T08:34:21Z</time>
      </trkpt>
      <trkpt lat="37.258038" lon="-8.840369">
        <ele>150.521</ele>
        <time>2018-12-29T08:34:25Z</time>
      </trkpt>
      <trkpt lat="37.258110" lon="-8.840424">
        <ele>150.541</ele>
        <time>2018-12-29T08:34:32Z</time>
      </trkpt>
      <trkpt lat="37.258186" lon="-8.840479">
        <ele>149.605</ele>
        <time>2018-12-29T08:34:39Z</time>
      </trkpt>
      <trkpt lat="37.258267" lon="-8.840520">
        <ele>149.608</ele>
        <time>2018-12-29T08:34:46Z</time>
      </trkpt>
      <trkpt lat="37.258322" lon="-8.840572">
        <ele>149.655</ele>
        <time>2018-12-29T08:34:51Z</time>
      </trkpt>
      <trkpt lat="37.258371" lon="-8.840597">
        <ele>149.653</ele>
        <time>2018-12-29T08:34:55Z</time>
      </trkpt>
      <trkpt lat="37.258410" lon="-8.840634">
        <ele>149.110</ele>
        <time>2018-12-29T08:34:59Z</time>
      </trkpt>
      <trkpt lat="37.258466" lon="-8.840669">
        <ele>149.145</ele>
        <time>2018-12-29T08:35:04Z</time>
      </trkpt>
      <trkpt lat="37.258595" lon="-8.840726">
        <ele>148.671</ele>
        <time>2018-12-29T08:35:15Z</time>
      </trkpt>
      <trkpt lat="37.258705" lon="-8.840831">
        <ele>148.146</ele>
        <time>2018-12-29T08:35:25Z</time>
      </trkpt>
      <trkpt lat="37.258714" lon="-8.840840">
        <ele>148.652</ele>
        <time>2018-12-29T08:35:26Z</time>
      </trkpt>
      <trkpt lat="37.258794" lon="-8.840907">
        <ele>148.139</ele>
        <time>2018-12-29T08:35:33Z</time>
      </trkpt>
      <trkpt lat="37.258820" lon="-8.840922">
        <ele>148.139</ele>
        <time>2018-12-29T08:35:35Z</time>
      </trkpt>
      <trkpt lat="37.258864" lon="-8.840953">
        <ele>147.701</ele>
        <time>2018-12-29T08:35:39Z</time>
      </trkpt>
      <trkpt lat="37.258931" lon="-8.840991">
        <ele>148.121</ele>
        <time>2018-12-29T08:35:45Z</time>
      </trkpt>
      <trkpt lat="37.258978" lon="-8.841023">
        <ele>148.108</ele>
        <time>2018-12-29T08:35:49Z</time>
      </trkpt>
      <trkpt lat="37.259087" lon="-8.841070">
        <ele>147.236</ele>
        <time>2018-12-29T08:35:59Z</time>
      </trkpt>
      <trkpt lat="37.259103" lon="-8.841097">
        <ele>147.254</ele>
        <time>2018-12-29T08:36:01Z</time>
      </trkpt>
      <trkpt lat="37.259168" lon="-8.841120">
        <ele>146.731</ele>
        <time>2018-12-29T08:36:06Z</time>
      </trkpt>
      <trkpt lat="37.259194" lon="-8.841138">
        <ele>146.736</ele>
        <time>2018-12-29T08:36:08Z</time>
      </trkpt>
      <trkpt lat="37.259232" lon="-8.841172">
        <ele>146.772</ele>
        <time>2018-12-29T08:36:11Z</time>
      </trkpt>
      <trkpt lat="37.259323" lon="-8.841240">
        <ele>146.227</ele>
        <time>2018-12-29T08:36:19Z</time>
      </trkpt>
      <trkpt lat="37.259340" lon="-8.841266">
        <ele>146.263</ele>
        <time>2018-12-29T08:36:21Z</time>
      </trkpt>
      <trkpt lat="37.259375" lon="-8.841299">
        <ele>146.230</ele>
        <time>2018-12-29T08:36:24Z</time>
      </trkpt>
      <trkpt lat="37.259423" lon="-8.841327">
        <ele>145.791</ele>
        <time>2018-12-29T08:36:28Z</time>
      </trkpt>
      <trkpt lat="37.259453" lon="-8.841343">
        <ele>145.781</ele>
        <time>2018-12-29T08:36:30Z</time>
      </trkpt>
      <trkpt lat="37.259570" lon="-8.841444">
        <ele>145.319</ele>
        <time>2018-12-29T08:36:40Z</time>
      </trkpt>
      <trkpt lat="37.259652" lon="-8.841501">
        <ele>144.808</ele>
        <time>2018-12-29T08:36:47Z</time>
      </trkpt>
      <trkpt lat="37.259775" lon="-8.841587">
        <ele>144.892</ele>
        <time>2018-12-29T08:36:58Z</time>
      </trkpt>
      <trkpt lat="37.259903" lon="-8.841668">
        <ele>144.850</ele>
        <time>2018-12-29T08:37:09Z</time>
      </trkpt>
      <trkpt lat="37.259946" lon="-8.841711">
        <ele>144.367</ele>
        <time>2018-12-29T08:37:13Z</time>
      </trkpt>
      <trkpt lat="37.259970" lon="-8.841722">
        <ele>144.372</ele>
        <time>2018-12-29T08:37:15Z</time>
      </trkpt>
      <trkpt lat="37.260069" lon="-8.841793">
        <ele>144.318</ele>
        <time>2018-12-29T08:37:23Z</time>
      </trkpt>
      <trkpt lat="37.260160" lon="-8.841866">
        <ele>144.343</ele>
        <time>2018-12-29T08:37:31Z</time>
      </trkpt>
      <trkpt lat="37.260288" lon="-8.841955">
        <ele>144.359</ele>
        <time>2018-12-29T08:37:42Z</time>
      </trkpt>
      <trkpt lat="37.260300" lon="-8.841962">
        <ele>144.316</ele>
        <time>2018-12-29T08:37:43Z</time>
      </trkpt>
      <trkpt lat="37.260332" lon="-8.841991">
        <ele>144.847</ele>
        <time>2018-12-29T08:37:46Z</time>
      </trkpt>
      <trkpt lat="37.260446" lon="-8.842075">
        <ele>144.329</ele>
        <time>2018-12-29T08:37:56Z</time>
      </trkpt>
      <trkpt lat="37.260543" lon="-8.842137">
        <ele>143.821</ele>
        <time>2018-12-29T08:38:04Z</time>
      </trkpt>
      <trkpt lat="37.260566" lon="-8.842154">
        <ele>143.808</ele>
        <time>2018-12-29T08:38:06Z</time>
      </trkpt>
      <trkpt lat="37.260603" lon="-8.842191">
        <ele>143.857</ele>
        <time>2018-12-29T08:38:10Z</time>
      </trkpt>
      <trkpt lat="37.260668" lon="-8.842245">
        <ele>143.885</ele>
        <time>2018-12-29T08:38:16Z</time>
      </trkpt>
      <trkpt lat="37.260749" lon="-8.842317">
        <ele>143.372</ele>
        <time>2018-12-29T08:38:23Z</time>
      </trkpt>
      <trkpt lat="37.260854" lon="-8.842412">
        <ele>143.837</ele>
        <time>2018-12-29T08:38:33Z</time>
      </trkpt>
      <trkpt lat="37.260912" lon="-8.842505">
        <ele>143.353</ele>
        <time>2018-12-29T08:38:40Z</time>
      </trkpt>
      <trkpt lat="37.260951" lon="-8.842570">
        <ele>143.328</ele>
        <time>2018-12-29T08:38:45Z</time>
      </trkpt>
      <trkpt lat="37.261020" lon="-8.842705">
        <ele>142.884</ele>
        <time>2018-12-29T08:38:55Z</time>
      </trkpt>
      <trkpt lat="37.261047" lon="-8.842750">
        <ele>142.821</ele>
        <time>2018-12-29T08:38:59Z</time>
      </trkpt>
      <trkpt lat="37.261085" lon="-8.842829">
        <ele>142.852</ele>
        <time>2018-12-29T08:39:05Z</time>
      </trkpt>
      <trkpt lat="37.261095" lon="-8.842859">
        <ele>142.853</ele>
        <time>2018-12-29T08:39:07Z</time>
      </trkpt>
      <trkpt lat="37.261178" lon="-8.843049">
        <ele>142.408</ele>
        <time>2018-12-29T08:39:20Z</time>
      </trkpt>
      <trkpt lat="37.261204" lon="-8.843102">
        <ele>142.408</ele>
        <time>2018-12-29T08:39:24Z</time>
      </trkpt>
      <trkpt lat="37.261254" lon="-8.843215">
        <ele>141.978</ele>
        <time>2018-12-29T08:39:32Z</time>
      </trkpt>
      <trkpt lat="37.261283" lon="-8.843257">
        <ele>141.466</ele>
        <time>2018-12-29T08:39:36Z</time>
      </trkpt>
      <trkpt lat="37.261311" lon="-8.843302">
        <ele>141.443</ele>
        <time>2018-12-29T08:39:40Z</time>
      </trkpt>
      <trkpt lat="37.261341" lon="-8.843392">
        <ele>141.428</ele>
        <time>2018-12-29T08:39:45Z</time>
      </trkpt>
      <trkpt lat="37.261408" lon="-8.843455">
        <ele>140.454</ele>
        <time>2018-12-29T08:39:52Z</time>
      </trkpt>
      <trkpt lat="37.261454" lon="-8.843522">
        <ele>140.949</ele>
        <time>2018-12-29T08:40:03Z</time>
      </trkpt>
      <trkpt lat="37.261454" lon="-8.843522">
        <ele>140.935</ele>
        <time>2018-12-29T08:40:05Z</time>
      </trkpt>
      <trkpt lat="37.261539" lon="-8.843636">
        <ele>140.412</ele>
        <time>2018-12-29T08:40:16Z</time>
      </trkpt>
      <trkpt lat="37.261602" lon="-8.843728">
        <ele>140.097</ele>
        <time>2018-12-29T08:40:24Z</time>
      </trkpt>
      <trkpt lat="37.261678" lon="-8.843828">
        <ele>140.023</ele>
        <time>2018-12-29T08:40:32Z</time>
      </trkpt>
      <trkpt lat="37.261733" lon="-8.843888">
        <ele>139.525</ele>
        <time>2018-12-29T08:40:38Z</time>
      </trkpt>
      <trkpt lat="37.261777" lon="-8.843933">
        <ele>140.008</ele>
        <time>2018-12-29T08:40:42Z</time>
      </trkpt>
      <trkpt lat="37.261804" lon="-8.843972">
        <ele>139.582</ele>
        <time>2018-12-29T08:40:45Z</time>
      </trkpt>
      <trkpt lat="37.261892" lon="-8.844048">
        <ele>139.020</ele>
        <time>2018-12-29T08:40:53Z</time>
      </trkpt>
      <trkpt lat="37.261953" lon="-8.844111">
        <ele>138.017</ele>
        <time>2018-12-29T08:40:59Z</time>
      </trkpt>
      <trkpt lat="37.262054" lon="-8.844220">
        <ele>137.692</ele>
        <time>2018-12-29T08:41:09Z</time>
      </trkpt>
      <trkpt lat="37.262170" lon="-8.844324">
        <ele>137.168</ele>
        <time>2018-12-29T08:41:20Z</time>
      </trkpt>
      <trkpt lat="37.262188" lon="-8.844348">
        <ele>136.673</ele>
        <time>2018-12-29T08:41:22Z</time>
      </trkpt>
      <trkpt lat="37.262207" lon="-8.844387">
        <ele>136.689</ele>
        <time>2018-12-29T08:41:24Z</time>
      </trkpt>
      <trkpt lat="37.262269" lon="-8.844447">
        <ele>136.116</ele>
        <time>2018-12-29T08:41:30Z</time>
      </trkpt>
      <trkpt lat="37.262317" lon="-8.844498">
        <ele>135.212</ele>
        <time>2018-12-29T08:41:35Z</time>
      </trkpt>
      <trkpt lat="37.262412" lon="-8.844585">
        <ele>135.232</ele>
        <time>2018-12-29T08:41:43Z</time>
      </trkpt>
      <trkpt lat="37.262461" lon="-8.844626">
        <ele>134.705</ele>
        <time>2018-12-29T08:41:48Z</time>
      </trkpt>
      <trkpt lat="37.262487" lon="-8.844670">
        <ele>134.208</ele>
        <time>2018-12-29T08:41:51Z</time>
      </trkpt>
      <trkpt lat="37.262498" lon="-8.844701">
        <ele>134.224</ele>
        <time>2018-12-29T08:41:53Z</time>
      </trkpt>
      <trkpt lat="37.262586" lon="-8.844862">
        <ele>133.722</ele>
        <time>2018-12-29T08:42:05Z</time>
      </trkpt>
      <trkpt lat="37.262597" lon="-8.844890">
        <ele>133.229</ele>
        <time>2018-12-29T08:42:07Z</time>
      </trkpt>
      <trkpt lat="37.262632" lon="-8.845072">
        <ele>133.294</ele>
        <time>2018-12-29T08:42:18Z</time>
      </trkpt>
      <trkpt lat="37.262646" lon="-8.845098">
        <ele>132.870</ele>
        <time>2018-12-29T08:42:20Z</time>
      </trkpt>
      <trkpt lat="37.262650" lon="-8.845192">
        <ele>132.875</ele>
        <time>2018-12-29T08:42:25Z</time>
      </trkpt>
      <trkpt lat="37.262674" lon="-8.845352">
        <ele>131.391</ele>
        <time>2018-12-29T08:42:35Z</time>
      </trkpt>
      <trkpt lat="37.262710" lon="-8.845545">
        <ele>130.428</ele>
        <time>2018-12-29T08:42:47Z</time>
      </trkpt>
      <trkpt lat="37.262719" lon="-8.845576">
        <ele>130.417</ele>
        <time>2018-12-29T08:42:49Z</time>
      </trkpt>
      <trkpt lat="37.262757" lon="-8.845821">
        <ele>128.487</ele>
        <time>2018-12-29T08:43:04Z</time>
      </trkpt>
      <trkpt lat="37.262786" lon="-8.846049">
        <ele>127.915</ele>
        <time>2018-12-29T08:43:17Z</time>
      </trkpt>
      <trkpt lat="37.262825" lon="-8.846255">
        <ele>126.008</ele>
        <time>2018-12-29T08:43:31Z</time>
      </trkpt>
      <trkpt lat="37.262826" lon="-8.846313">
        <ele>125.574</ele>
        <time>2018-12-29T08:43:35Z</time>
      </trkpt>
      <trkpt lat="37.262848" lon="-8.846459">
        <ele>124.142</ele>
        <time>2018-12-29T08:43:44Z</time>
      </trkpt>
      <trkpt lat="37.262873" lon="-8.846587">
        <ele>123.629</ele>
        <time>2018-12-29T08:43:52Z</time>
      </trkpt>
      <trkpt lat="37.262895" lon="-8.846667">
        <ele>123.144</ele>
        <time>2018-12-29T08:43:57Z</time>
      </trkpt>
      <trkpt lat="37.262928" lon="-8.846849">
        <ele>122.760</ele>
        <time>2018-12-29T08:44:08Z</time>
      </trkpt>
      <trkpt lat="37.262959" lon="-8.847052">
        <ele>122.235</ele>
        <time>2018-12-29T08:44:20Z</time>
      </trkpt>
      <trkpt lat="37.262972" lon="-8.847138">
        <ele>122.291</ele>
        <time>2018-12-29T08:44:25Z</time>
      </trkpt>
      <trkpt lat="37.262982" lon="-8.847166">
        <ele>122.298</ele>
        <time>2018-12-29T08:44:27Z</time>
      </trkpt>
      <trkpt lat="37.263011" lon="-8.847349">
        <ele>122.277</ele>
        <time>2018-12-29T08:44:38Z</time>
      </trkpt>
      <trkpt lat="37.263032" lon="-8.847443">
        <ele>121.261</ele>
        <time>2018-12-29T08:44:44Z</time>
      </trkpt>
      <trkpt lat="37.263053" lon="-8.847580">
        <ele>121.227</ele>
        <time>2018-12-29T08:44:52Z</time>
      </trkpt>
      <trkpt lat="37.263076" lon="-8.847687">
        <ele>120.308</ele>
        <time>2018-12-29T08:44:59Z</time>
      </trkpt>
      <trkpt lat="37.263116" lon="-8.847801">
        <ele>119.870</ele>
        <time>2018-12-29T08:45:07Z</time>
      </trkpt>
      <trkpt lat="37.263180" lon="-8.847958">
        <ele>118.888</ele>
        <time>2018-12-29T08:45:18Z</time>
      </trkpt>
      <trkpt lat="37.263195" lon="-8.847992">
        <ele>118.895</ele>
        <time>2018-12-29T08:45:20Z</time>
      </trkpt>
      <trkpt lat="37.263234" lon="-8.848060">
        <ele>118.390</ele>
        <time>2018-12-29T08:45:25Z</time>
      </trkpt>
      <trkpt lat="37.263254" lon="-8.848099">
        <ele>117.986</ele>
        <time>2018-12-29T08:45:28Z</time>
      </trkpt>
      <trkpt lat="37.263317" lon="-8.848176">
        <ele>117.461</ele>
        <time>2018-12-29T08:45:34Z</time>
      </trkpt>
      <trkpt lat="37.263363" lon="-8.848224">
        <ele>116.947</ele>
        <time>2018-12-29T08:45:39Z</time>
      </trkpt>
      <trkpt lat="37.263438" lon="-8.848342">
        <ele>115.924</ele>
        <time>2018-12-29T08:45:48Z</time>
      </trkpt>
      <trkpt lat="37.263500" lon="-8.848454">
        <ele>115.086</ele>
        <time>2018-12-29T08:45:56Z</time>
      </trkpt>
      <trkpt lat="37.263596" lon="-8.848588">
        <ele>113.060</ele>
        <time>2018-12-29T08:46:07Z</time>
      </trkpt>
      <trkpt lat="37.263644" lon="-8.848656">
        <ele>113.026</ele>
        <time>2018-12-29T08:46:12Z</time>
      </trkpt>
      <trkpt lat="37.263747" lon="-8.848815">
        <ele>112.108</ele>
        <time>2018-12-29T08:46:24Z</time>
      </trkpt>
      <trkpt lat="37.263784" lon="-8.848866">
        <ele>112.131</ele>
        <time>2018-12-29T08:46:28Z</time>
      </trkpt>
      <trkpt lat="37.263832" lon="-8.848945">
        <ele>112.139</ele>
        <time>2018-12-29T08:46:34Z</time>
      </trkpt>
      <trkpt lat="37.263861" lon="-8.848994">
        <ele>112.626</ele>
        <time>2018-12-29T08:46:38Z</time>
      </trkpt>
      <trkpt lat="37.263873" lon="-8.849027">
        <ele>112.121</ele>
        <time>2018-12-29T08:46:40Z</time>
      </trkpt>
      <trkpt lat="37.263918" lon="-8.849126">
        <ele>113.027</ele>
        <time>2018-12-29T08:46:47Z</time>
      </trkpt>
      <trkpt lat="37.263992" lon="-8.849284">
        <ele>114.572</ele>
        <time>2018-12-29T08:46:59Z</time>
      </trkpt>
      <trkpt lat="37.264066" lon="-8.849438">
        <ele>115.998</ele>
        <time>2018-12-29T08:47:10Z</time>
      </trkpt>
      <trkpt lat="37.264105" lon="-8.849499">
        <ele>116.435</ele>
        <time>2018-12-29T08:47:15Z</time>
      </trkpt>
      <trkpt lat="37.264161" lon="-8.849690">
        <ele>117.451</ele>
        <time>2018-12-29T08:47:28Z</time>
      </trkpt>
      <trkpt lat="37.264176" lon="-8.849905">
        <ele>118.301</ele>
        <time>2018-12-29T08:47:41Z</time>
      </trkpt>
      <trkpt lat="37.264184" lon="-8.850084">
        <ele>118.311</ele>
        <time>2018-12-29T08:47:52Z</time>
      </trkpt>
      <trkpt lat="37.264188" lon="-8.850222">
        <ele>117.908</ele>
        <time>2018-12-29T08:48:01Z</time>
      </trkpt>
      <trkpt lat="37.264192" lon="-8.850279">
        <ele>117.918</ele>
        <time>2018-12-29T08:48:05Z</time>
      </trkpt>
      <trkpt lat="37.264190" lon="-8.850371">
        <ele>117.476</ele>
        <time>2018-12-29T08:48:11Z</time>
      </trkpt>
      <trkpt lat="37.264183" lon="-8.850446">
        <ele>117.493</ele>
        <time>2018-12-29T08:48:16Z</time>
      </trkpt>
      <trkpt lat="37.264170" lon="-8.850580">
        <ele>117.488</ele>
        <time>2018-12-29T08:48:25Z</time>
      </trkpt>
      <trkpt lat="37.264183" lon="-8.850609">
        <ele>117.454</ele>
        <time>2018-12-29T08:48:28Z</time>
      </trkpt>
      <trkpt lat="37.264188" lon="-8.850648">
        <ele>117.449</ele>
        <time>2018-12-29T08:48:32Z</time>
      </trkpt>
      <trkpt lat="37.264194" lon="-8.850674">
        <ele>117.495</ele>
        <time>2018-12-29T08:48:34Z</time>
      </trkpt>
      <trkpt lat="37.264183" lon="-8.850814">
        <ele>117.992</ele>
        <time>2018-12-29T08:48:43Z</time>
      </trkpt>
      <trkpt lat="37.264187" lon="-8.850895">
        <ele>117.461</ele>
        <time>2018-12-29T08:48:48Z</time>
      </trkpt>
      <trkpt lat="37.264195" lon="-8.850988">
        <ele>117.421</ele>
        <time>2018-12-29T08:48:54Z</time>
      </trkpt>
      <trkpt lat="37.264201" lon="-8.851062">
        <ele>117.413</ele>
        <time>2018-12-29T08:48:59Z</time>
      </trkpt>
      <trkpt lat="37.264210" lon="-8.851174">
        <ele>117.908</ele>
        <time>2018-12-29T08:49:06Z</time>
      </trkpt>
      <trkpt lat="37.264216" lon="-8.851206">
        <ele>117.929</ele>
        <time>2018-12-29T08:49:08Z</time>
      </trkpt>
      <trkpt lat="37.264222" lon="-8.851323">
        <ele>117.987</ele>
        <time>2018-12-29T08:49:16Z</time>
      </trkpt>
      <trkpt lat="37.264220" lon="-8.851411">
        <ele>118.814</ele>
        <time>2018-12-29T08:49:22Z</time>
      </trkpt>
      <trkpt lat="37.264239" lon="-8.851555">
        <ele>118.849</ele>
        <time>2018-12-29T08:49:31Z</time>
      </trkpt>
      <trkpt lat="37.264266" lon="-8.851757">
        <ele>119.845</ele>
        <time>2018-12-29T08:49:44Z</time>
      </trkpt>
      <trkpt lat="37.264270" lon="-8.851774">
        <ele>119.810</ele>
        <time>2018-12-29T08:49:45Z</time>
      </trkpt>
      <trkpt lat="37.264282" lon="-8.851975">
        <ele>119.866</ele>
        <time>2018-12-29T08:49:58Z</time>
      </trkpt>
      <trkpt lat="37.264296" lon="-8.852154">
        <ele>118.863</ele>
        <time>2018-12-29T08:50:09Z</time>
      </trkpt>
      <trkpt lat="37.264307" lon="-8.852209">
        <ele>118.879</ele>
        <time>2018-12-29T08:50:21Z</time>
      </trkpt>
      <trkpt lat="37.264302" lon="-8.852285">
        <ele>118.305</ele>
        <time>2018-12-29T08:50:30Z</time>
      </trkpt>
      <trkpt lat="37.264306" lon="-8.852368">
        <ele>117.925</ele>
        <time>2018-12-29T08:50:35Z</time>
      </trkpt>
      <trkpt lat="37.264318" lon="-8.852463">
        <ele>116.908</ele>
        <time>2018-12-29T08:50:41Z</time>
      </trkpt>
      <trkpt lat="37.264317" lon="-8.852639">
        <ele>115.550</ele>
        <time>2018-12-29T08:50:52Z</time>
      </trkpt>
      <trkpt lat="37.264310" lon="-8.852820">
        <ele>113.598</ele>
        <time>2018-12-29T08:51:04Z</time>
      </trkpt>
      <trkpt lat="37.264312" lon="-8.852850">
        <ele>113.515</ele>
        <time>2018-12-29T08:51:06Z</time>
      </trkpt>
      <trkpt lat="37.264331" lon="-8.853036">
        <ele>113.070</ele>
        <time>2018-12-29T08:51:19Z</time>
      </trkpt>
      <trkpt lat="37.264347" lon="-8.853183">
        <ele>113.026</ele>
        <time>2018-12-29T08:51:28Z</time>
      </trkpt>
      <trkpt lat="37.264375" lon="-8.853263">
        <ele>113.091</ele>
        <time>2018-12-29T08:51:33Z</time>
      </trkpt>
      <trkpt lat="37.264410" lon="-8.853348">
        <ele>113.037</ele>
        <time>2018-12-29T08:51:39Z</time>
      </trkpt>
      <trkpt lat="37.264497" lon="-8.853480">
        <ele>113.534</ele>
        <time>2018-12-29T08:51:50Z</time>
      </trkpt>
      <trkpt lat="37.264511" lon="-8.853513">
        <ele>113.029</ele>
        <time>2018-12-29T08:51:52Z</time>
      </trkpt>
      <trkpt lat="37.264555" lon="-8.853589">
        <ele>113.000</ele>
        <time>2018-12-29T08:51:58Z</time>
      </trkpt>
      <trkpt lat="37.264573" lon="-8.853610">
        <ele>113.020</ele>
        <time>2018-12-29T08:52:00Z</time>
      </trkpt>
      <trkpt lat="37.264600" lon="-8.853662">
        <ele>113.508</ele>
        <time>2018-12-29T08:52:04Z</time>
      </trkpt>
      <trkpt lat="37.264672" lon="-8.853838">
        <ele>112.635</ele>
        <time>2018-12-29T08:52:16Z</time>
      </trkpt>
      <trkpt lat="37.264717" lon="-8.853954">
        <ele>112.683</ele>
        <time>2018-12-29T08:52:24Z</time>
      </trkpt>
      <trkpt lat="37.264823" lon="-8.854113">
        <ele>112.130</ele>
        <time>2018-12-29T08:52:37Z</time>
      </trkpt>
      <trkpt lat="37.264895" lon="-8.854250">
        <ele>112.155</ele>
        <time>2018-12-29T08:52:47Z</time>
      </trkpt>
      <trkpt lat="37.264903" lon="-8.854264">
        <ele>111.641</ele>
        <time>2018-12-29T08:52:48Z</time>
      </trkpt>
      <trkpt lat="37.264949" lon="-8.854477">
        <ele>112.676</ele>
        <time>2018-12-29T08:53:01Z</time>
      </trkpt>
      <trkpt lat="37.265012" lon="-8.854652">
        <ele>113.062</ele>
        <time>2018-12-29T08:53:13Z</time>
      </trkpt>
      <trkpt lat="37.265046" lon="-8.854744">
        <ele>113.029</ele>
        <time>2018-12-29T08:53:19Z</time>
      </trkpt>
      <trkpt lat="37.265139" lon="-8.854884">
        <ele>112.642</ele>
        <time>2018-12-29T08:53:31Z</time>
      </trkpt>
      <trkpt lat="37.265173" lon="-8.854929">
        <ele>112.622</ele>
        <time>2018-12-29T08:53:35Z</time>
      </trkpt>
      <trkpt lat="37.265229" lon="-8.855016">
        <ele>111.614</ele>
        <time>2018-12-29T08:53:42Z</time>
      </trkpt>
      <trkpt lat="37.265286" lon="-8.855093">
        <ele>111.108</ele>
        <time>2018-12-29T08:53:49Z</time>
      </trkpt>
      <trkpt lat="37.265357" lon="-8.855179">
        <ele>110.227</ele>
        <time>2018-12-29T08:53:56Z</time>
      </trkpt>
      <trkpt lat="37.265380" lon="-8.855210">
        <ele>110.275</ele>
        <time>2018-12-29T08:53:59Z</time>
      </trkpt>
      <trkpt lat="37.265416" lon="-8.855256">
        <ele>109.732</ele>
        <time>2018-12-29T08:54:03Z</time>
      </trkpt>
      <trkpt lat="37.265430" lon="-8.855278">
        <ele>109.297</ele>
        <time>2018-12-29T08:54:05Z</time>
      </trkpt>
      <trkpt lat="37.265493" lon="-8.855355">
        <ele>109.763</ele>
        <time>2018-12-29T08:54:12Z</time>
      </trkpt>
      <trkpt lat="37.265555" lon="-8.855441">
        <ele>109.278</ele>
        <time>2018-12-29T08:54:19Z</time>
      </trkpt>
      <trkpt lat="37.265588" lon="-8.855531">
        <ele>109.234</ele>
        <time>2018-12-29T08:54:25Z</time>
      </trkpt>
      <trkpt lat="37.265680" lon="-8.855698">
        <ele>108.791</ele>
        <time>2018-12-29T08:54:38Z</time>
      </trkpt>
      <trkpt lat="37.265735" lon="-8.855822">
        <ele>109.237</ele>
        <time>2018-12-29T08:54:47Z</time>
      </trkpt>
      <trkpt lat="37.265802" lon="-8.855988">
        <ele>109.749</ele>
        <time>2018-12-29T08:54:58Z</time>
      </trkpt>
      <trkpt lat="37.265821" lon="-8.856028">
        <ele>110.213</ele>
        <time>2018-12-29T08:55:01Z</time>
      </trkpt>
      <trkpt lat="37.265833" lon="-8.856043">
        <ele>110.608</ele>
        <time>2018-12-29T08:55:03Z</time>
      </trkpt>
      <trkpt lat="37.265849" lon="-8.856069">
        <ele>111.166</ele>
        <time>2018-12-29T08:55:06Z</time>
      </trkpt>
      <trkpt lat="37.265968" lon="-8.856173">
        <ele>111.184</ele>
        <time>2018-12-29T08:55:19Z</time>
      </trkpt>
      <trkpt lat="37.266001" lon="-8.856196">
        <ele>110.681</ele>
        <time>2018-12-29T08:55:22Z</time>
      </trkpt>
      <trkpt lat="37.266052" lon="-8.856232">
        <ele>110.656</ele>
        <time>2018-12-29T08:55:27Z</time>
      </trkpt>
      <trkpt lat="37.266161" lon="-8.856308">
        <ele>108.732</ele>
        <time>2018-12-29T08:55:37Z</time>
      </trkpt>
      <trkpt lat="37.266332" lon="-8.856353">
        <ele>106.337</ele>
        <time>2018-12-29T08:55:50Z</time>
      </trkpt>
      <trkpt lat="37.266531" lon="-8.856332">
        <ele>104.953</ele>
        <time>2018-12-29T08:56:04Z</time>
      </trkpt>
      <trkpt lat="37.266703" lon="-8.856299">
        <ele>101.520</ele>
        <time>2018-12-29T08:56:17Z</time>
      </trkpt>
      <trkpt lat="37.266845" lon="-8.856261">
        <ele>99.635</ele>
        <time>2018-12-29T08:56:28Z</time>
      </trkpt>
      <trkpt lat="37.267035" lon="-8.856219">
        <ele>96.286</ele>
        <time>2018-12-29T08:56:42Z</time>
      </trkpt>
      <trkpt lat="37.267217" lon="-8.856186">
        <ele>94.814</ele>
        <time>2018-12-29T08:56:56Z</time>
      </trkpt>
      <trkpt lat="37.267304" lon="-8.856195">
        <ele>93.808</ele>
        <time>2018-12-29T08:57:03Z</time>
      </trkpt>
      <trkpt lat="37.267360" lon="-8.856196">
        <ele>93.316</ele>
        <time>2018-12-29T08:57:07Z</time>
      </trkpt>
      <trkpt lat="37.267410" lon="-8.856233">
        <ele>92.444</ele>
        <time>2018-12-29T08:57:12Z</time>
      </trkpt>
      <trkpt lat="37.267449" lon="-8.856267">
        <ele>91.451</ele>
        <time>2018-12-29T08:57:16Z</time>
      </trkpt>
      <trkpt lat="37.267503" lon="-8.856336">
        <ele>90.036</ele>
        <time>2018-12-29T08:57:23Z</time>
      </trkpt>
      <trkpt lat="37.267572" lon="-8.856416">
        <ele>89.542</ele>
        <time>2018-12-29T08:57:35Z</time>
      </trkpt>
      <trkpt lat="37.267559" lon="-8.856447">
        <ele>88.537</ele>
        <time>2018-12-29T08:57:53Z</time>
      </trkpt>
      <trkpt lat="37.267555" lon="-8.856449">
        <ele>89.053</ele>
        <time>2018-12-29T08:57:56Z</time>
      </trkpt>
      <trkpt lat="37.267570" lon="-8.856520">
        <ele>88.560</ele>
        <time>2018-12-29T08:58:10Z</time>
      </trkpt>
      <trkpt lat="37.267620" lon="-8.856672">
        <ele>86.625</ele>
        <time>2018-12-29T08:58:21Z</time>
      </trkpt>
      <trkpt lat="37.267639" lon="-8.856715">
        <ele>85.626</ele>
        <time>2018-12-29T08:58:24Z</time>
      </trkpt>
      <trkpt lat="37.267739" lon="-8.856838">
        <ele>83.208</ele>
        <time>2018-12-29T08:58:35Z</time>
      </trkpt>
      <trkpt lat="37.267808" lon="-8.856929">
        <ele>81.308</ele>
        <time>2018-12-29T08:58:44Z</time>
      </trkpt>
      <trkpt lat="37.267880" lon="-8.856980">
        <ele>79.985</ele>
        <time>2018-12-29T08:58:51Z</time>
      </trkpt>
      <trkpt lat="37.267962" lon="-8.857014">
        <ele>78.483</ele>
        <time>2018-12-29T08:58:59Z</time>
      </trkpt>
      <trkpt lat="37.268011" lon="-8.857043">
        <ele>77.520</ele>
        <time>2018-12-29T08:59:04Z</time>
      </trkpt>
      <trkpt lat="37.268059" lon="-8.857072">
        <ele>76.075</ele>
        <time>2018-12-29T08:59:09Z</time>
      </trkpt>
      <trkpt lat="37.268091" lon="-8.857059">
        <ele>76.061</ele>
        <time>2018-12-29T08:59:19Z</time>
      </trkpt>
      <trkpt lat="37.268157" lon="-8.857109">
        <ele>75.136</ele>
        <time>2018-12-29T08:59:25Z</time>
      </trkpt>
      <trkpt lat="37.268212" lon="-8.857147">
        <ele>74.182</ele>
        <time>2018-12-29T08:59:30Z</time>
      </trkpt>
      <trkpt lat="37.268267" lon="-8.857184">
        <ele>73.639</ele>
        <time>2018-12-29T08:59:42Z</time>
      </trkpt>
      <trkpt lat="37.268266" lon="-8.857177">
        <ele>73.631</ele>
        <time>2018-12-29T08:59:52Z</time>
      </trkpt>
      <trkpt lat="37.268290" lon="-8.857184">
        <ele>73.261</ele>
        <time>2018-12-29T09:00:06Z</time>
      </trkpt>
      <trkpt lat="37.268289" lon="-8.857187">
        <ele>73.207</ele>
        <time>2018-12-29T09:00:09Z</time>
      </trkpt>
      <trkpt lat="37.268367" lon="-8.857346">
        <ele>72.208</ele>
        <time>2018-12-29T09:00:23Z</time>
      </trkpt>
      <trkpt lat="37.268405" lon="-8.857460">
        <ele>71.726</ele>
        <time>2018-12-29T09:00:32Z</time>
      </trkpt>
      <trkpt lat="37.268449" lon="-8.857619">
        <ele>71.284</ele>
        <time>2018-12-29T09:00:45Z</time>
      </trkpt>
      <trkpt lat="37.268465" lon="-8.857685">
        <ele>70.321</ele>
        <time>2018-12-29T09:00:50Z</time>
      </trkpt>
      <trkpt lat="37.268494" lon="-8.857728">
        <ele>69.836</ele>
        <time>2018-12-29T09:01:00Z</time>
      </trkpt>
      <trkpt lat="37.268487" lon="-8.857773">
        <ele>69.822</ele>
        <time>2018-12-29T09:01:03Z</time>
      </trkpt>
      <trkpt lat="37.268486" lon="-8.857800">
        <ele>69.867</ele>
        <time>2018-12-29T09:01:05Z</time>
      </trkpt>
      <trkpt lat="37.268562" lon="-8.857921">
        <ele>67.973</ele>
        <time>2018-12-29T09:01:15Z</time>
      </trkpt>
      <trkpt lat="37.268649" lon="-8.857988">
        <ele>65.940</ele>
        <time>2018-12-29T09:01:23Z</time>
      </trkpt>
      <trkpt lat="37.268688" lon="-8.858014">
        <ele>65.548</ele>
        <time>2018-12-29T09:01:26Z</time>
      </trkpt>
      <trkpt lat="37.268722" lon="-8.858028">
        <ele>65.061</ele>
        <time>2018-12-29T09:01:29Z</time>
      </trkpt>
      <trkpt lat="37.268786" lon="-8.858055">
        <ele>63.517</ele>
        <time>2018-12-29T09:01:34Z</time>
      </trkpt>
      <trkpt lat="37.268815" lon="-8.858066">
        <ele>63.508</ele>
        <time>2018-12-29T09:01:36Z</time>
      </trkpt>
      <trkpt lat="37.268904" lon="-8.858114">
        <ele>61.627</ele>
        <time>2018-12-29T09:01:43Z</time>
      </trkpt>
      <trkpt lat="37.268918" lon="-8.858121">
        <ele>61.625</ele>
        <time>2018-12-29T09:01:47Z</time>
      </trkpt>
      <trkpt lat="37.269029" lon="-8.858199">
        <ele>59.212</ele>
        <time>2018-12-29T09:01:57Z</time>
      </trkpt>
      <trkpt lat="37.269084" lon="-8.858255">
        <ele>57.837</ele>
        <time>2018-12-29T09:02:05Z</time>
      </trkpt>
      <trkpt lat="37.269122" lon="-8.858315">
        <ele>57.873</ele>
        <time>2018-12-29T09:02:10Z</time>
      </trkpt>
      <trkpt lat="37.269165" lon="-8.858410">
        <ele>56.348</ele>
        <time>2018-12-29T09:02:18Z</time>
      </trkpt>
      <trkpt lat="37.269218" lon="-8.858509">
        <ele>55.454</ele>
        <time>2018-12-29T09:02:27Z</time>
      </trkpt>
      <trkpt lat="37.269291" lon="-8.858599">
        <ele>53.411</ele>
        <time>2018-12-29T09:02:35Z</time>
      </trkpt>
      <trkpt lat="37.269399" lon="-8.858674">
        <ele>50.655</ele>
        <time>2018-12-29T09:02:45Z</time>
      </trkpt>
      <trkpt lat="37.269466" lon="-8.858722">
        <ele>49.607</ele>
        <time>2018-12-29T09:02:51Z</time>
      </trkpt>
      <trkpt lat="37.269528" lon="-8.858814">
        <ele>48.217</ele>
        <time>2018-12-29T09:03:04Z</time>
      </trkpt>
      <trkpt lat="37.269512" lon="-8.858854">
        <ele>47.208</ele>
        <time>2018-12-29T09:03:22Z</time>
      </trkpt>
      <trkpt lat="37.269512" lon="-8.858854">
        <ele>47.258</ele>
        <time>2018-12-29T09:03:30Z</time>
      </trkpt>
      <trkpt lat="37.269499" lon="-8.858891">
        <ele>46.786</ele>
        <time>2018-12-29T09:03:33Z</time>
      </trkpt>
      <trkpt lat="37.269437" lon="-8.859034">
        <ele>44.333</ele>
        <time>2018-12-29T09:03:46Z</time>
      </trkpt>
      <trkpt lat="37.269407" lon="-8.859098">
        <ele>42.428</ele>
        <time>2018-12-29T09:03:52Z</time>
      </trkpt>
      <trkpt lat="37.269365" lon="-8.859124">
        <ele>41.954</ele>
        <time>2018-12-29T09:03:56Z</time>
      </trkpt>
      <trkpt lat="37.269294" lon="-8.859224">
        <ele>40.989</ele>
        <time>2018-12-29T09:04:06Z</time>
      </trkpt>
      <trkpt lat="37.269305" lon="-8.859327">
        <ele>39.535</ele>
        <time>2018-12-29T09:04:14Z</time>
      </trkpt>
      <trkpt lat="37.269300" lon="-8.859370">
        <ele>39.542</ele>
        <time>2018-12-29T09:04:30Z</time>
      </trkpt>
      <trkpt lat="37.269300" lon="-8.859370">
        <ele>39.583</ele>
        <time>2018-12-29T09:04:56Z</time>
      </trkpt>
      <trkpt lat="37.269299" lon="-8.859371">
        <ele>39.525</ele>
        <time>2018-12-29T09:04:59Z</time>
      </trkpt>
      <trkpt lat="37.269311" lon="-8.859360">
        <ele>39.517</ele>
        <time>2018-12-29T09:05:01Z</time>
      </trkpt>
      <trkpt lat="37.269421" lon="-8.859260">
        <ele>38.508</ele>
        <time>2018-12-29T09:05:14Z</time>
      </trkpt>
      <trkpt lat="37.269472" lon="-8.859254">
        <ele>37.681</ele>
        <time>2018-12-29T09:05:19Z</time>
      </trkpt>
      <trkpt lat="37.269533" lon="-8.859255">
        <ele>35.799</ele>
        <time>2018-12-29T09:05:25Z</time>
      </trkpt>
      <trkpt lat="37.269598" lon="-8.859321">
        <ele>33.716</ele>
        <time>2018-12-29T09:05:34Z</time>
      </trkpt>
      <trkpt lat="37.269639" lon="-8.859433">
        <ele>31.841</ele>
        <time>2018-12-29T09:05:44Z</time>
      </trkpt>
      <trkpt lat="37.269629" lon="-8.859506">
        <ele>29.917</ele>
        <time>2018-12-29T09:05:51Z</time>
      </trkpt>
      <trkpt lat="37.269596" lon="-8.859670">
        <ele>27.092</ele>
        <time>2018-12-29T09:06:04Z</time>
      </trkpt>
      <trkpt lat="37.269623" lon="-8.859794">
        <ele>24.658</ele>
        <time>2018-12-29T09:06:14Z</time>
      </trkpt>
      <trkpt lat="37.269669" lon="-8.859837">
        <ele>23.275</ele>
        <time>2018-12-29T09:06:20Z</time>
      </trkpt>
      <trkpt lat="37.269685" lon="-8.859869">
        <ele>23.226</ele>
        <time>2018-12-29T09:06:23Z</time>
      </trkpt>
      <trkpt lat="37.269722" lon="-8.859897">
        <ele>22.747</ele>
        <time>2018-12-29T09:06:36Z</time>
      </trkpt>
      <trkpt lat="37.269727" lon="-8.859878">
        <ele>22.211</ele>
        <time>2018-12-29T09:06:53Z</time>
      </trkpt>
      <trkpt lat="37.269723" lon="-8.859862">
        <ele>22.208</ele>
        <time>2018-12-29T09:07:08Z</time>
      </trkpt>
      <trkpt lat="37.269713" lon="-8.859861">
        <ele>22.765</ele>
        <time>2018-12-29T09:07:19Z</time>
      </trkpt>
      <trkpt lat="37.269727" lon="-8.859868">
        <ele>22.763</ele>
        <time>2018-12-29T09:07:21Z</time>
      </trkpt>
      <trkpt lat="37.269753" lon="-8.859889">
        <ele>22.290</ele>
        <time>2018-12-29T09:07:36Z</time>
      </trkpt>
      <trkpt lat="37.269753" lon="-8.859867">
        <ele>22.785</ele>
        <time>2018-12-29T09:07:59Z</time>
      </trkpt>
      <trkpt lat="37.269744" lon="-8.859846">
        <ele>22.251</ele>
        <time>2018-12-29T09:08:13Z</time>
      </trkpt>
      <trkpt lat="37.269744" lon="-8.859846">
        <ele>22.226</ele>
        <time>2018-12-29T09:08:33Z</time>
      </trkpt>
      <trkpt lat="37.269741" lon="-8.859841">
        <ele>22.232</ele>
        <time>2018-12-29T09:08:53Z</time>
      </trkpt>
      <trkpt lat="37.269746" lon="-8.859839">
        <ele>22.219</ele>
        <time>2018-12-29T09:09:10Z</time>
      </trkpt>
      <trkpt lat="37.269751" lon="-8.859840">
        <ele>22.236</ele>
        <time>2018-12-29T09:09:24Z</time>
      </trkpt>
      <trkpt lat="37.269771" lon="-8.859828">
        <ele>22.217</ele>
        <time>2018-12-29T09:09:26Z</time>
      </trkpt>
      <trkpt lat="37.269917" lon="-8.859697">
        <ele>18.818</ele>
        <time>2018-12-29T09:09:42Z</time>
      </trkpt>
      <trkpt lat="37.270044" lon="-8.859557">
        <ele>16.008</ele>
        <time>2018-12-29T09:09:57Z</time>
      </trkpt>
      <trkpt lat="37.270167" lon="-8.859420">
        <ele>13.676</ele>
        <time>2018-12-29T09:10:13Z</time>
      </trkpt>
      <trkpt lat="37.270231" lon="-8.859355">
        <ele>11.654</ele>
        <time>2018-12-29T09:10:20Z</time>
      </trkpt>
      <trkpt lat="37.270272" lon="-8.859311">
        <ele>10.721</ele>
        <time>2018-12-29T09:10:25Z</time>
      </trkpt>
      <trkpt lat="37.270427" lon="-8.859260">
        <ele>9.746</ele>
        <time>2018-12-29T09:10:39Z</time>
      </trkpt>
      <trkpt lat="37.270561" lon="-8.859247">
        <ele>9.252</ele>
        <time>2018-12-29T09:10:52Z</time>
      </trkpt>
      <trkpt lat="37.270614" lon="-8.859248">
        <ele>9.237</ele>
        <time>2018-12-29T09:11:04Z</time>
      </trkpt>
      <trkpt lat="37.270610" lon="-8.859230">
        <ele>9.263</ele>
        <time>2018-12-29T09:11:15Z</time>
      </trkpt>
      <trkpt lat="37.270653" lon="-8.859251">
        <ele>9.740</ele>
        <time>2018-12-29T09:11:20Z</time>
      </trkpt>
      <trkpt lat="37.270701" lon="-8.859281">
        <ele>10.213</ele>
        <time>2018-12-29T09:11:26Z</time>
      </trkpt>
      <trkpt lat="37.270733" lon="-8.859318">
        <ele>9.743</ele>
        <time>2018-12-29T09:11:30Z</time>
      </trkpt>
      <trkpt lat="37.270769" lon="-8.859416">
        <ele>9.207</ele>
        <time>2018-12-29T09:11:38Z</time>
      </trkpt>
      <trkpt lat="37.270810" lon="-8.859496">
        <ele>9.208</ele>
        <time>2018-12-29T09:11:45Z</time>
      </trkpt>
      <trkpt lat="37.270820" lon="-8.859532">
        <ele>9.244</ele>
        <time>2018-12-29T09:11:48Z</time>
      </trkpt>
      <trkpt lat="37.270940" lon="-8.859668">
        <ele>8.762</ele>
        <time>2018-12-29T09:12:02Z</time>
      </trkpt>
      <trkpt lat="37.271015" lon="-8.859701">
        <ele>8.749</ele>
        <time>2018-12-29T09:12:09Z</time>
      </trkpt>
      <trkpt lat="37.271098" lon="-8.859700">
        <ele>8.354</ele>
        <time>2018-12-29T09:12:16Z</time>
      </trkpt>
      <trkpt lat="37.271137" lon="-8.859662">
        <ele>8.310</ele>
        <time>2018-12-29T09:12:20Z</time>
      </trkpt>
      <trkpt lat="37.271178" lon="-8.859639">
        <ele>8.325</ele>
        <time>2018-12-29T09:12:24Z</time>
      </trkpt>
      <trkpt lat="37.271267" lon="-8.859621">
        <ele>7.881</ele>
        <time>2018-12-29T09:12:34Z</time>
      </trkpt>
      <trkpt lat="37.271297" lon="-8.859616">
        <ele>7.358</ele>
        <time>2018-12-29T09:12:37Z</time>
      </trkpt>
      <trkpt lat="37.271326" lon="-8.859598">
        <ele>7.396</ele>
        <time>2018-12-29T09:12:40Z</time>
      </trkpt>
      <trkpt lat="37.271441" lon="-8.859640">
        <ele>6.331</ele>
        <time>2018-12-29T09:12:52Z</time>
      </trkpt>
      <trkpt lat="37.271509" lon="-8.859596">
        <ele>7.824</ele>
        <time>2018-12-29T09:13:01Z</time>
      </trkpt>
      <trkpt lat="37.271539" lon="-8.859570">
        <ele>9.208</ele>
        <time>2018-12-29T09:13:05Z</time>
      </trkpt>
      <trkpt lat="37.271550" lon="-8.859544">
        <ele>9.242</ele>
        <time>2018-12-29T09:13:07Z</time>
      </trkpt>
      <trkpt lat="37.271549" lon="-8.859476">
        <ele>9.220</ele>
        <time>2018-12-29T09:13:12Z</time>
      </trkpt>
      <trkpt lat="37.271539" lon="-8.859430">
        <ele>9.267</ele>
        <time>2018-12-29T09:13:15Z</time>
      </trkpt>
      <trkpt lat="37.271586" lon="-8.859275">
        <ele>8.712</ele>
        <time>2018-12-29T09:13:27Z</time>
      </trkpt>
      <trkpt lat="37.271590" lon="-8.859180">
        <ele>8.798</ele>
        <time>2018-12-29T09:13:34Z</time>
      </trkpt>
      <trkpt lat="37.271592" lon="-8.859108">
        <ele>9.253</ele>
        <time>2018-12-29T09:13:39Z</time>
      </trkpt>
      <trkpt lat="37.271658" lon="-8.858943">
        <ele>10.269</ele>
        <time>2018-12-29T09:13:53Z</time>
      </trkpt>
      <trkpt lat="37.271686" lon="-8.858930">
        <ele>10.726</ele>
        <time>2018-12-29T09:13:57Z</time>
      </trkpt>
      <trkpt lat="37.271736" lon="-8.858917">
        <ele>11.657</ele>
        <time>2018-12-29T09:14:03Z</time>
      </trkpt>
      <trkpt lat="37.271789" lon="-8.858938">
        <ele>13.100</ele>
        <time>2018-12-29T09:14:10Z</time>
      </trkpt>
      <trkpt lat="37.271803" lon="-8.858945">
        <ele>13.620</ele>
        <time>2018-12-29T09:14:12Z</time>
      </trkpt>
      <trkpt lat="37.271828" lon="-8.858978">
        <ele>15.008</ele>
        <time>2018-12-29T09:14:17Z</time>
      </trkpt>
      <trkpt lat="37.271832" lon="-8.858994">
        <ele>15.538</ele>
        <time>2018-12-29T09:14:19Z</time>
      </trkpt>
      <trkpt lat="37.271835" lon="-8.859062">
        <ele>16.466</ele>
        <time>2018-12-29T09:14:27Z</time>
      </trkpt>
      <trkpt lat="37.271837" lon="-8.859111">
        <ele>17.953</ele>
        <time>2018-12-29T09:14:32Z</time>
      </trkpt>
      <trkpt lat="37.271843" lon="-8.859172">
        <ele>19.328</ele>
        <time>2018-12-29T09:14:39Z</time>
      </trkpt>
      <trkpt lat="37.271843" lon="-8.859200">
        <ele>19.814</ele>
        <time>2018-12-29T09:14:41Z</time>
      </trkpt>
      <trkpt lat="37.271864" lon="-8.859256">
        <ele>21.269</ele>
        <time>2018-12-29T09:14:47Z</time>
      </trkpt>
      <trkpt lat="37.271870" lon="-8.859283">
        <ele>21.765</ele>
        <time>2018-12-29T09:14:49Z</time>
      </trkpt>
      <trkpt lat="37.271880" lon="-8.859340">
        <ele>22.222</ele>
        <time>2018-12-29T09:15:00Z</time>
      </trkpt>
      <trkpt lat="37.271883" lon="-8.859337">
        <ele>22.255</ele>
        <time>2018-12-29T09:15:17Z</time>
      </trkpt>
      <trkpt lat="37.271889" lon="-8.859338">
        <ele>22.207</ele>
        <time>2018-12-29T09:15:36Z</time>
      </trkpt>
      <trkpt lat="37.271889" lon="-8.859338">
        <ele>22.217</ele>
        <time>2018-12-29T09:15:55Z</time>
      </trkpt>
      <trkpt lat="37.271887" lon="-8.859339">
        <ele>22.208</ele>
        <time>2018-12-29T09:16:15Z</time>
      </trkpt>
      <trkpt lat="37.271887" lon="-8.859339">
        <ele>22.228</ele>
        <time>2018-12-29T09:16:32Z</time>
      </trkpt>
      <trkpt lat="37.271888" lon="-8.859344">
        <ele>22.796</ele>
        <time>2018-12-29T09:16:48Z</time>
      </trkpt>
      <trkpt lat="37.271888" lon="-8.859344">
        <ele>22.713</ele>
        <time>2018-12-29T09:16:52Z</time>
      </trkpt>
      <trkpt lat="37.271902" lon="-8.859401">
        <ele>23.658</ele>
        <time>2018-12-29T09:16:58Z</time>
      </trkpt>
      <trkpt lat="37.271937" lon="-8.859486">
        <ele>25.684</ele>
        <time>2018-12-29T09:17:08Z</time>
      </trkpt>
      <trkpt lat="37.271944" lon="-8.859508">
        <ele>26.099</ele>
        <time>2018-12-29T09:17:11Z</time>
      </trkpt>
      <trkpt lat="37.271976" lon="-8.859558">
        <ele>27.095</ele>
        <time>2018-12-29T09:17:18Z</time>
      </trkpt>
      <trkpt lat="37.272035" lon="-8.859620">
        <ele>28.952</ele>
        <time>2018-12-29T09:17:28Z</time>
      </trkpt>
      <trkpt lat="37.272097" lon="-8.859678">
        <ele>30.473</ele>
        <time>2018-12-29T09:17:39Z</time>
      </trkpt>
      <trkpt lat="37.272143" lon="-8.859741">
        <ele>32.385</ele>
        <time>2018-12-29T09:17:49Z</time>
      </trkpt>
      <trkpt lat="37.272168" lon="-8.859783">
        <ele>32.813</ele>
        <time>2018-12-29T09:17:54Z</time>
      </trkpt>
      <trkpt lat="37.272219" lon="-8.859831">
        <ele>34.708</ele>
        <time>2018-12-29T09:18:02Z</time>
      </trkpt>
      <trkpt lat="37.272292" lon="-8.859893">
        <ele>37.120</ele>
        <time>2018-12-29T09:18:14Z</time>
      </trkpt>
      <trkpt lat="37.272307" lon="-8.859904">
        <ele>37.128</ele>
        <time>2018-12-29T09:18:16Z</time>
      </trkpt>
      <trkpt lat="37.272314" lon="-8.859937">
        <ele>37.615</ele>
        <time>2018-12-29T09:18:20Z</time>
      </trkpt>
      <trkpt lat="37.272317" lon="-8.859961">
        <ele>37.680</ele>
        <time>2018-12-29T09:18:22Z</time>
      </trkpt>
      <trkpt lat="37.272332" lon="-8.860031">
        <ele>39.076</ele>
        <time>2018-12-29T09:18:37Z</time>
      </trkpt>
      <trkpt lat="37.272336" lon="-8.860044">
        <ele>39.091</ele>
        <time>2018-12-29T09:18:50Z</time>
      </trkpt>
      <trkpt lat="37.272336" lon="-8.860044">
        <ele>39.087</ele>
        <time>2018-12-29T09:19:09Z</time>
      </trkpt>
      <trkpt lat="37.272336" lon="-8.860045">
        <ele>39.044</ele>
        <time>2018-12-29T09:19:27Z</time>
      </trkpt>
      <trkpt lat="37.272336" lon="-8.860045">
        <ele>39.091</ele>
        <time>2018-12-29T09:19:50Z</time>
      </trkpt>
      <trkpt lat="37.272336" lon="-8.860045">
        <ele>39.081</ele>
        <time>2018-12-29T09:20:01Z</time>
      </trkpt>
      <trkpt lat="37.272356" lon="-8.860041">
        <ele>38.519</ele>
        <time>2018-12-29T09:20:03Z</time>
      </trkpt>
      <trkpt lat="37.272375" lon="-8.860026">
        <ele>39.008</ele>
        <time>2018-12-29T09:20:05Z</time>
      </trkpt>
      <trkpt lat="37.272394" lon="-8.860024">
        <ele>39.522</ele>
        <time>2018-12-29T09:20:07Z</time>
      </trkpt>
      <trkpt lat="37.272426" lon="-8.860016">
        <ele>40.050</ele>
        <time>2018-12-29T09:20:11Z</time>
      </trkpt>
      <trkpt lat="37.272561" lon="-8.859999">
        <ele>42.497</ele>
        <time>2018-12-29T09:20:25Z</time>
      </trkpt>
      <trkpt lat="37.272577" lon="-8.859992">
        <ele>42.932</ele>
        <time>2018-12-29T09:20:27Z</time>
      </trkpt>
      <trkpt lat="37.272699" lon="-8.859950">
        <ele>44.838</ele>
        <time>2018-12-29T09:20:40Z</time>
      </trkpt>
      <trkpt lat="37.272706" lon="-8.859946">
        <ele>45.323</ele>
        <time>2018-12-29T09:20:41Z</time>
      </trkpt>
      <trkpt lat="37.272788" lon="-8.859861">
        <ele>46.269</ele>
        <time>2018-12-29T09:20:51Z</time>
      </trkpt>
      <trkpt lat="37.272800" lon="-8.859837">
        <ele>46.736</ele>
        <time>2018-12-29T09:20:53Z</time>
      </trkpt>
      <trkpt lat="37.272905" lon="-8.859738">
        <ele>48.247</ele>
        <time>2018-12-29T09:21:05Z</time>
      </trkpt>
      <trkpt lat="37.272942" lon="-8.859709">
        <ele>49.129</ele>
        <time>2018-12-29T09:21:09Z</time>
      </trkpt>
      <trkpt lat="37.273053" lon="-8.859615">
        <ele>50.621</ele>
        <time>2018-12-29T09:21:22Z</time>
      </trkpt>
      <trkpt lat="37.273098" lon="-8.859583">
        <ele>51.008</ele>
        <time>2018-12-29T09:21:27Z</time>
      </trkpt>
      <trkpt lat="37.273195" lon="-8.859447">
        <ele>53.497</ele>
        <time>2018-12-29T09:21:41Z</time>
      </trkpt>
      <trkpt lat="37.273288" lon="-8.859333">
        <ele>56.395</ele>
        <time>2018-12-29T09:21:54Z</time>
      </trkpt>
      <trkpt lat="37.273407" lon="-8.859225">
        <ele>58.322</ele>
        <time>2018-12-29T09:22:08Z</time>
      </trkpt>
      <trkpt lat="37.273449" lon="-8.859194">
        <ele>59.277</ele>
        <time>2018-12-29T09:22:13Z</time>
      </trkpt>
      <trkpt lat="37.273458" lon="-8.859183">
        <ele>59.253</ele>
        <time>2018-12-29T09:22:14Z</time>
      </trkpt>
      <trkpt lat="37.273567" lon="-8.859095">
        <ele>60.758</ele>
        <time>2018-12-29T09:22:26Z</time>
      </trkpt>
      <trkpt lat="37.273643" lon="-8.859043">
        <ele>62.114</ele>
        <time>2018-12-29T09:22:34Z</time>
      </trkpt>
      <trkpt lat="37.273657" lon="-8.859028">
        <ele>62.131</ele>
        <time>2018-12-29T09:22:36Z</time>
      </trkpt>
      <trkpt lat="37.273734" lon="-8.858959">
        <ele>65.023</ele>
        <time>2018-12-29T09:22:47Z</time>
      </trkpt>
      <trkpt lat="37.273787" lon="-8.858904">
        <ele>66.483</ele>
        <time>2018-12-29T09:22:55Z</time>
      </trkpt>
      <trkpt lat="37.273803" lon="-8.858895">
        <ele>66.911</ele>
        <time>2018-12-29T09:22:57Z</time>
      </trkpt>
      <trkpt lat="37.273835" lon="-8.858842">
        <ele>68.308</ele>
        <time>2018-12-29T09:23:03Z</time>
      </trkpt>
      <trkpt lat="37.273891" lon="-8.858816">
        <ele>69.835</ele>
        <time>2018-12-29T09:23:09Z</time>
      </trkpt>
      <trkpt lat="37.273927" lon="-8.858799">
        <ele>70.313</ele>
        <time>2018-12-29T09:23:13Z</time>
      </trkpt>
      <trkpt lat="37.273949" lon="-8.858798">
        <ele>70.750</ele>
        <time>2018-12-29T09:23:15Z</time>
      </trkpt>
      <trkpt lat="37.273968" lon="-8.858799">
        <ele>71.275</ele>
        <time>2018-12-29T09:23:17Z</time>
      </trkpt>
      <trkpt lat="37.274018" lon="-8.858786">
        <ele>72.211</ele>
        <time>2018-12-29T09:23:22Z</time>
      </trkpt>
      <trkpt lat="37.274112" lon="-8.858716">
        <ele>74.696</ele>
        <time>2018-12-29T09:23:34Z</time>
      </trkpt>
      <trkpt lat="37.274197" lon="-8.858648">
        <ele>76.042</ele>
        <time>2018-12-29T09:23:44Z</time>
      </trkpt>
      <trkpt lat="37.274231" lon="-8.858631">
        <ele>77.079</ele>
        <time>2018-12-29T09:23:48Z</time>
      </trkpt>
      <trkpt lat="37.274251" lon="-8.858632">
        <ele>77.571</ele>
        <time>2018-12-29T09:23:50Z</time>
      </trkpt>
      <trkpt lat="37.274266" lon="-8.858623">
        <ele>77.541</ele>
        <time>2018-12-29T09:23:52Z</time>
      </trkpt>
      <trkpt lat="37.274434" lon="-8.858569">
        <ele>78.915</ele>
        <time>2018-12-29T09:24:07Z</time>
      </trkpt>
      <trkpt lat="37.274528" lon="-8.858517">
        <ele>79.408</ele>
        <time>2018-12-29T09:24:16Z</time>
      </trkpt>
      <trkpt lat="37.274607" lon="-8.858445">
        <ele>79.960</ele>
        <time>2018-12-29T09:24:25Z</time>
      </trkpt>
      <trkpt lat="37.274739" lon="-8.858364">
        <ele>81.358</ele>
        <time>2018-12-29T09:24:37Z</time>
      </trkpt>
      <trkpt lat="37.274807" lon="-8.858326">
        <ele>81.395</ele>
        <time>2018-12-29T09:24:43Z</time>
      </trkpt>
      <trkpt lat="37.274882" lon="-8.858264">
        <ele>81.840</ele>
        <time>2018-12-29T09:24:50Z</time>
      </trkpt>
      <trkpt lat="37.275036" lon="-8.858162">
        <ele>81.846</ele>
        <time>2018-12-29T09:25:04Z</time>
      </trkpt>
      <trkpt lat="37.275088" lon="-8.858123">
        <ele>82.351</ele>
        <time>2018-12-29T09:25:09Z</time>
      </trkpt>
      <trkpt lat="37.275136" lon="-8.858090">
        <ele>82.367</ele>
        <time>2018-12-29T09:25:13Z</time>
      </trkpt>
      <trkpt lat="37.275271" lon="-8.857980">
        <ele>82.344</ele>
        <time>2018-12-29T09:25:26Z</time>
      </trkpt>
      <trkpt lat="37.275327" lon="-8.857936">
        <ele>83.241</ele>
        <time>2018-12-29T09:25:31Z</time>
      </trkpt>
      <trkpt lat="37.275452" lon="-8.857817">
        <ele>83.781</ele>
        <time>2018-12-29T09:25:44Z</time>
      </trkpt>
      <trkpt lat="37.275496" lon="-8.857773">
        <ele>84.209</ele>
        <time>2018-12-29T09:25:49Z</time>
      </trkpt>
      <trkpt lat="37.275519" lon="-8.857761">
        <ele>84.208</ele>
        <time>2018-12-29T09:25:51Z</time>
      </trkpt>
      <trkpt lat="37.275622" lon="-8.857656">
        <ele>85.297</ele>
        <time>2018-12-29T09:26:03Z</time>
      </trkpt>
      <trkpt lat="37.275699" lon="-8.857568">
        <ele>86.635</ele>
        <time>2018-12-29T09:26:13Z</time>
      </trkpt>
      <trkpt lat="37.275787" lon="-8.857492">
        <ele>88.152</ele>
        <time>2018-12-29T09:26:22Z</time>
      </trkpt>
      <trkpt lat="37.275827" lon="-8.857454">
        <ele>88.577</ele>
        <time>2018-12-29T09:26:26Z</time>
      </trkpt>
      <trkpt lat="37.275843" lon="-8.857435">
        <ele>88.563</ele>
        <time>2018-12-29T09:26:28Z</time>
      </trkpt>
      <trkpt lat="37.275880" lon="-8.857422">
        <ele>89.038</ele>
        <time>2018-12-29T09:26:31Z</time>
      </trkpt>
      <trkpt lat="37.275945" lon="-8.857359">
        <ele>90.524</ele>
        <time>2018-12-29T09:26:38Z</time>
      </trkpt>
      <trkpt lat="37.275986" lon="-8.857338">
        <ele>91.491</ele>
        <time>2018-12-29T09:26:42Z</time>
      </trkpt>
      <trkpt lat="37.276083" lon="-8.857219">
        <ele>93.327</ele>
        <time>2018-12-29T09:26:54Z</time>
      </trkpt>
      <trkpt lat="37.276128" lon="-8.857192">
        <ele>93.868</ele>
        <time>2018-12-29T09:26:58Z</time>
      </trkpt>
      <trkpt lat="37.276168" lon="-8.857147">
        <ele>94.314</ele>
        <time>2018-12-29T09:27:03Z</time>
      </trkpt>
      <trkpt lat="37.276249" lon="-8.857063">
        <ele>96.208</ele>
        <time>2018-12-29T09:27:12Z</time>
      </trkpt>
      <trkpt lat="37.276342" lon="-8.856996">
        <ele>97.715</ele>
        <time>2018-12-29T09:27:22Z</time>
      </trkpt>
      <trkpt lat="37.276351" lon="-8.856989">
        <ele>97.733</ele>
        <time>2018-12-29T09:27:23Z</time>
      </trkpt>
      <trkpt lat="37.276456" lon="-8.856910">
        <ele>99.620</ele>
        <time>2018-12-29T09:27:34Z</time>
      </trkpt>
      <trkpt lat="37.276477" lon="-8.856897">
        <ele>100.195</ele>
        <time>2018-12-29T09:27:37Z</time>
      </trkpt>
      <trkpt lat="37.276496" lon="-8.856885">
        <ele>100.631</ele>
        <time>2018-12-29T09:27:39Z</time>
      </trkpt>
      <trkpt lat="37.276579" lon="-8.856747">
        <ele>103.026</ele>
        <time>2018-12-29T09:27:51Z</time>
      </trkpt>
      <trkpt lat="37.276645" lon="-8.856679">
        <ele>103.952</ele>
        <time>2018-12-29T09:27:58Z</time>
      </trkpt>
      <trkpt lat="37.276741" lon="-8.856555">
        <ele>104.979</ele>
        <time>2018-12-29T09:28:10Z</time>
      </trkpt>
      <trkpt lat="37.276818" lon="-8.856460">
        <ele>106.394</ele>
        <time>2018-12-29T09:28:19Z</time>
      </trkpt>
      <trkpt lat="37.276902" lon="-8.856403">
        <ele>106.857</ele>
        <time>2018-12-29T09:28:27Z</time>
      </trkpt>
      <trkpt lat="37.277030" lon="-8.856311">
        <ele>105.422</ele>
        <time>2018-12-29T09:28:39Z</time>
      </trkpt>
      <trkpt lat="37.277183" lon="-8.856228">
        <ele>103.408</ele>
        <time>2018-12-29T09:28:52Z</time>
      </trkpt>
      <trkpt lat="37.277377" lon="-8.856128">
        <ele>101.072</ele>
        <time>2018-12-29T09:29:08Z</time>
      </trkpt>
      <trkpt lat="37.277591" lon="-8.856076">
        <ele>98.640</ele>
        <time>2018-12-29T09:29:25Z</time>
      </trkpt>
      <trkpt lat="37.277712" lon="-8.856079">
        <ele>97.737</ele>
        <time>2018-12-29T09:29:35Z</time>
      </trkpt>
      <trkpt lat="37.277804" lon="-8.856070">
        <ele>96.792</ele>
        <time>2018-12-29T09:29:42Z</time>
      </trkpt>
      <trkpt lat="37.277983" lon="-8.856011">
        <ele>96.248</ele>
        <time>2018-12-29T09:29:55Z</time>
      </trkpt>
      <trkpt lat="37.278008" lon="-8.856005">
        <ele>96.223</ele>
        <time>2018-12-29T09:29:57Z</time>
      </trkpt>
      <trkpt lat="37.278181" lon="-8.855969">
        <ele>96.259</ele>
        <time>2018-12-29T09:30:11Z</time>
      </trkpt>
      <trkpt lat="37.278326" lon="-8.855970">
        <ele>95.796</ele>
        <time>2018-12-29T09:30:23Z</time>
      </trkpt>
      <trkpt lat="37.278509" lon="-8.856017">
        <ele>93.377</ele>
        <time>2018-12-29T09:30:38Z</time>
      </trkpt>
      <trkpt lat="37.278665" lon="-8.856055">
        <ele>91.461</ele>
        <time>2018-12-29T09:30:51Z</time>
      </trkpt>
      <trkpt lat="37.278836" lon="-8.856069">
        <ele>89.527</ele>
        <time>2018-12-29T09:31:05Z</time>
      </trkpt>
      <trkpt lat="37.278915" lon="-8.856061">
        <ele>89.008</ele>
        <time>2018-12-29T09:31:11Z</time>
      </trkpt>
      <trkpt lat="37.278965" lon="-8.856061">
        <ele>89.060</ele>
        <time>2018-12-29T09:31:15Z</time>
      </trkpt>
      <trkpt lat="37.279013" lon="-8.856054">
        <ele>89.048</ele>
        <time>2018-12-29T09:31:19Z</time>
      </trkpt>
      <trkpt lat="37.279094" lon="-8.856069">
        <ele>88.535</ele>
        <time>2018-12-29T09:31:25Z</time>
      </trkpt>
      <trkpt lat="37.279158" lon="-8.856061">
        <ele>88.590</ele>
        <time>2018-12-29T09:31:30Z</time>
      </trkpt>
      <trkpt lat="37.279221" lon="-8.856074">
        <ele>88.566</ele>
        <time>2018-12-29T09:31:35Z</time>
      </trkpt>
      <trkpt lat="37.279411" lon="-8.856089">
        <ele>88.531</ele>
        <time>2018-12-29T09:31:50Z</time>
      </trkpt>
      <trkpt lat="37.279589" lon="-8.856090">
        <ele>89.047</ele>
        <time>2018-12-29T09:32:04Z</time>
      </trkpt>
      <trkpt lat="37.279747" lon="-8.856132">
        <ele>89.554</ele>
        <time>2018-12-29T09:32:17Z</time>
      </trkpt>
      <trkpt lat="37.279759" lon="-8.856138">
        <ele>89.545</ele>
        <time>2018-12-29T09:32:18Z</time>
      </trkpt>
      <trkpt lat="37.279831" lon="-8.856187">
        <ele>89.547</ele>
        <time>2018-12-29T09:32:24Z</time>
      </trkpt>
      <trkpt lat="37.279884" lon="-8.856220">
        <ele>90.511</ele>
        <time>2018-12-29T09:32:29Z</time>
      </trkpt>
      <trkpt lat="37.279972" lon="-8.856269">
        <ele>90.508</ele>
        <time>2018-12-29T09:32:37Z</time>
      </trkpt>
      <trkpt lat="37.280088" lon="-8.856389">
        <ele>91.437</ele>
        <time>2018-12-29T09:32:49Z</time>
      </trkpt>
      <trkpt lat="37.280096" lon="-8.856396">
        <ele>91.435</ele>
        <time>2018-12-29T09:32:50Z</time>
      </trkpt>
      <trkpt lat="37.280121" lon="-8.856408">
        <ele>91.472</ele>
        <time>2018-12-29T09:32:52Z</time>
      </trkpt>
      <trkpt lat="37.280188" lon="-8.856447">
        <ele>92.477</ele>
        <time>2018-12-29T09:32:58Z</time>
      </trkpt>
      <trkpt lat="37.280286" lon="-8.856467">
        <ele>92.993</ele>
        <time>2018-12-29T09:33:06Z</time>
      </trkpt>
      <trkpt lat="37.280343" lon="-8.856484">
        <ele>92.998</ele>
        <time>2018-12-29T09:33:11Z</time>
      </trkpt>
      <trkpt lat="37.280508" lon="-8.856525">
        <ele>92.924</ele>
        <time>2018-12-29T09:33:25Z</time>
      </trkpt>
      <trkpt lat="37.280704" lon="-8.856562">
        <ele>91.991</ele>
        <time>2018-12-29T09:33:40Z</time>
      </trkpt>
      <trkpt lat="37.280782" lon="-8.856582">
        <ele>91.985</ele>
        <time>2018-12-29T09:33:46Z</time>
      </trkpt>
      <trkpt lat="37.280834" lon="-8.856578">
        <ele>91.489</ele>
        <time>2018-12-29T09:33:50Z</time>
      </trkpt>
      <trkpt lat="37.280857" lon="-8.856587">
        <ele>91.917</ele>
        <time>2018-12-29T09:33:52Z</time>
      </trkpt>
      <trkpt lat="37.281041" lon="-8.856616">
        <ele>90.908</ele>
        <time>2018-12-29T09:34:06Z</time>
      </trkpt>
      <trkpt lat="37.281067" lon="-8.856625">
        <ele>91.461</ele>
        <time>2018-12-29T09:34:08Z</time>
      </trkpt>
      <trkpt lat="37.281146" lon="-8.856616">
        <ele>90.969</ele>
        <time>2018-12-29T09:34:14Z</time>
      </trkpt>
      <trkpt lat="37.281200" lon="-8.856605">
        <ele>90.966</ele>
        <time>2018-12-29T09:34:18Z</time>
      </trkpt>
      <trkpt lat="37.281251" lon="-8.856593">
        <ele>90.921</ele>
        <time>2018-12-29T09:34:22Z</time>
      </trkpt>
      <trkpt lat="37.281434" lon="-8.856518">
        <ele>91.417</ele>
        <time>2018-12-29T09:34:37Z</time>
      </trkpt>
      <trkpt lat="37.281588" lon="-8.856433">
        <ele>91.952</ele>
        <time>2018-12-29T09:34:50Z</time>
      </trkpt>
      <trkpt lat="37.281676" lon="-8.856384">
        <ele>91.968</ele>
        <time>2018-12-29T09:34:58Z</time>
      </trkpt>
      <trkpt lat="37.281788" lon="-8.856295">
        <ele>92.425</ele>
        <time>2018-12-29T09:35:08Z</time>
      </trkpt>
      <trkpt lat="37.281931" lon="-8.856180">
        <ele>93.384</ele>
        <time>2018-12-29T09:35:22Z</time>
      </trkpt>
      <trkpt lat="37.282076" lon="-8.856080">
        <ele>93.307</ele>
        <time>2018-12-29T09:35:34Z</time>
      </trkpt>
      <trkpt lat="37.282141" lon="-8.856031">
        <ele>94.317</ele>
        <time>2018-12-29T09:35:40Z</time>
      </trkpt>
      <trkpt lat="37.282211" lon="-8.856000">
        <ele>94.308</ele>
        <time>2018-12-29T09:35:46Z</time>
      </trkpt>
      <trkpt lat="37.282242" lon="-8.855973">
        <ele>94.311</ele>
        <time>2018-12-29T09:35:49Z</time>
      </trkpt>
      <trkpt lat="37.282358" lon="-8.855900">
        <ele>95.369</ele>
        <time>2018-12-29T09:35:58Z</time>
      </trkpt>
      <trkpt lat="37.282518" lon="-8.855814">
        <ele>96.796</ele>
        <time>2018-12-29T09:36:11Z</time>
      </trkpt>
      <trkpt lat="37.282605" lon="-8.855737">
        <ele>97.281</ele>
        <time>2018-12-29T09:36:20Z</time>
      </trkpt>
      <trkpt lat="37.282626" lon="-8.855717">
        <ele>97.727</ele>
        <time>2018-12-29T09:36:22Z</time>
      </trkpt>
      <trkpt lat="37.282638" lon="-8.855691">
        <ele>97.272</ele>
        <time>2018-12-29T09:36:24Z</time>
      </trkpt>
      <trkpt lat="37.282655" lon="-8.855668">
        <ele>97.288</ele>
        <time>2018-12-29T09:36:26Z</time>
      </trkpt>
      <trkpt lat="37.282680" lon="-8.855612">
        <ele>98.125</ele>
        <time>2018-12-29T09:36:30Z</time>
      </trkpt>
      <trkpt lat="37.282737" lon="-8.855534">
        <ele>99.176</ele>
        <time>2018-12-29T09:36:36Z</time>
      </trkpt>
      <trkpt lat="37.282752" lon="-8.855519">
        <ele>100.190</ele>
        <time>2018-12-29T09:36:38Z</time>
      </trkpt>
      <trkpt lat="37.282812" lon="-8.855452">
        <ele>101.019</ele>
        <time>2018-12-29T09:36:45Z</time>
      </trkpt>
      <trkpt lat="37.282841" lon="-8.855413">
        <ele>101.508</ele>
        <time>2018-12-29T09:36:48Z</time>
      </trkpt>
      <trkpt lat="37.282881" lon="-8.855405">
        <ele>102.080</ele>
        <time>2018-12-29T09:36:51Z</time>
      </trkpt>
      <trkpt lat="37.282931" lon="-8.855364">
        <ele>102.058</ele>
        <time>2018-12-29T09:36:56Z</time>
      </trkpt>
      <trkpt lat="37.282963" lon="-8.855343">
        <ele>102.565</ele>
        <time>2018-12-29T09:36:59Z</time>
      </trkpt>
      <trkpt lat="37.283053" lon="-8.855267">
        <ele>103.050</ele>
        <time>2018-12-29T09:37:08Z</time>
      </trkpt>
      <trkpt lat="37.283079" lon="-8.855251">
        <ele>103.046</ele>
        <time>2018-12-29T09:37:10Z</time>
      </trkpt>
      <trkpt lat="37.283215" lon="-8.855167">
        <ele>103.921</ele>
        <time>2018-12-29T09:37:22Z</time>
      </trkpt>
      <trkpt lat="37.283311" lon="-8.855077">
        <ele>103.917</ele>
        <time>2018-12-29T09:37:33Z</time>
      </trkpt>
      <trkpt lat="37.283325" lon="-8.855059">
        <ele>103.954</ele>
        <time>2018-12-29T09:37:35Z</time>
      </trkpt>
      <trkpt lat="37.283382" lon="-8.854944">
        <ele>104.442</ele>
        <time>2018-12-29T09:37:43Z</time>
      </trkpt>
      <trkpt lat="37.283398" lon="-8.854922">
        <ele>104.422</ele>
        <time>2018-12-29T09:37:45Z</time>
      </trkpt>
      <trkpt lat="37.283423" lon="-8.854870">
        <ele>104.414</ele>
        <time>2018-12-29T09:37:49Z</time>
      </trkpt>
      <trkpt lat="37.283449" lon="-8.854801">
        <ele>104.908</ele>
        <time>2018-12-29T09:37:54Z</time>
      </trkpt>
      <trkpt lat="37.283468" lon="-8.854760">
        <ele>104.937</ele>
        <time>2018-12-29T09:37:57Z</time>
      </trkpt>
      <trkpt lat="37.283512" lon="-8.854658">
        <ele>105.455</ele>
        <time>2018-12-29T09:38:04Z</time>
      </trkpt>
      <trkpt lat="37.283533" lon="-8.854578">
        <ele>105.832</ele>
        <time>2018-12-29T09:38:10Z</time>
      </trkpt>
      <trkpt lat="37.283549" lon="-8.854549">
        <ele>105.847</ele>
        <time>2018-12-29T09:38:12Z</time>
      </trkpt>
      <trkpt lat="37.283613" lon="-8.854428">
        <ele>106.353</ele>
        <time>2018-12-29T09:38:21Z</time>
      </trkpt>
      <trkpt lat="37.283705" lon="-8.854313">
        <ele>107.338</ele>
        <time>2018-12-29T09:38:31Z</time>
      </trkpt>
      <trkpt lat="37.283759" lon="-8.854249">
        <ele>106.894</ele>
        <time>2018-12-29T09:38:37Z</time>
      </trkpt>
      <trkpt lat="37.283827" lon="-8.854135">
        <ele>107.351</ele>
        <time>2018-12-29T09:38:46Z</time>
      </trkpt>
      <trkpt lat="37.283916" lon="-8.853993">
        <ele>107.867</ele>
        <time>2018-12-29T09:38:57Z</time>
      </trkpt>
      <trkpt lat="37.283957" lon="-8.853914">
        <ele>108.281</ele>
        <time>2018-12-29T09:39:03Z</time>
      </trkpt>
      <trkpt lat="37.283966" lon="-8.853885">
        <ele>108.219</ele>
        <time>2018-12-29T09:39:05Z</time>
      </trkpt>
      <trkpt lat="37.283991" lon="-8.853830">
        <ele>108.208</ele>
        <time>2018-12-29T09:39:09Z</time>
      </trkpt>
      <trkpt lat="37.284020" lon="-8.853788">
        <ele>108.249</ele>
        <time>2018-12-29T09:39:12Z</time>
      </trkpt>
      <trkpt lat="37.284033" lon="-8.853758">
        <ele>108.797</ele>
        <time>2018-12-29T09:39:14Z</time>
      </trkpt>
      <trkpt lat="37.284100" lon="-8.853628">
        <ele>108.274</ele>
        <time>2018-12-29T09:39:23Z</time>
      </trkpt>
      <trkpt lat="37.284111" lon="-8.853599">
        <ele>107.889</ele>
        <time>2018-12-29T09:39:25Z</time>
      </trkpt>
      <trkpt lat="37.284142" lon="-8.853545">
        <ele>107.375</ele>
        <time>2018-12-29T09:39:29Z</time>
      </trkpt>
      <trkpt lat="37.284159" lon="-8.853488">
        <ele>107.320</ele>
        <time>2018-12-29T09:39:33Z</time>
      </trkpt>
      <trkpt lat="37.284218" lon="-8.853379">
        <ele>106.816</ele>
        <time>2018-12-29T09:39:41Z</time>
      </trkpt>
      <trkpt lat="37.284274" lon="-8.853241">
        <ele>106.883</ele>
        <time>2018-12-29T09:39:51Z</time>
      </trkpt>
      <trkpt lat="37.284281" lon="-8.853232">
        <ele>106.833</ele>
        <time>2018-12-29T09:39:52Z</time>
      </trkpt>
      <trkpt lat="37.284339" lon="-8.853068">
        <ele>106.823</ele>
        <time>2018-12-29T09:40:03Z</time>
      </trkpt>
      <trkpt lat="37.284362" lon="-8.852992">
        <ele>106.815</ele>
        <time>2018-12-29T09:40:08Z</time>
      </trkpt>
      <trkpt lat="37.284380" lon="-8.852927">
        <ele>106.808</ele>
        <time>2018-12-29T09:40:12Z</time>
      </trkpt>
      <trkpt lat="37.284387" lon="-8.852866">
        <ele>106.866</ele>
        <time>2018-12-29T09:40:16Z</time>
      </trkpt>
      <trkpt lat="37.284400" lon="-8.852801">
        <ele>107.324</ele>
        <time>2018-12-29T09:40:20Z</time>
      </trkpt>
      <trkpt lat="37.284411" lon="-8.852750">
        <ele>106.851</ele>
        <time>2018-12-29T09:40:23Z</time>
      </trkpt>
      <trkpt lat="37.284438" lon="-8.852573">
        <ele>107.876</ele>
        <time>2018-12-29T09:40:34Z</time>
      </trkpt>
      <trkpt lat="37.284442" lon="-8.852559">
        <ele>108.252</ele>
        <time>2018-12-29T09:40:35Z</time>
      </trkpt>
      <trkpt lat="37.284451" lon="-8.852518">
        <ele>108.277</ele>
        <time>2018-12-29T09:40:38Z</time>
      </trkpt>
      <trkpt lat="37.284463" lon="-8.852442">
        <ele>108.253</ele>
        <time>2018-12-29T09:40:43Z</time>
      </trkpt>
      <trkpt lat="37.284510" lon="-8.852281">
        <ele>109.710</ele>
        <time>2018-12-29T09:40:54Z</time>
      </trkpt>
      <trkpt lat="37.284519" lon="-8.852269">
        <ele>110.263</ele>
        <time>2018-12-29T09:40:55Z</time>
      </trkpt>
      <trkpt lat="37.284544" lon="-8.852216">
        <ele>110.244</ele>
        <time>2018-12-29T09:40:59Z</time>
      </trkpt>
      <trkpt lat="37.284586" lon="-8.852134">
        <ele>111.118</ele>
        <time>2018-12-29T09:41:08Z</time>
      </trkpt>
      <trkpt lat="37.284586" lon="-8.852134">
        <ele>111.108</ele>
        <time>2018-12-29T09:41:19Z</time>
      </trkpt>
      <trkpt lat="37.284591" lon="-8.852104">
        <ele>111.159</ele>
        <time>2018-12-29T09:41:22Z</time>
      </trkpt>
      <trkpt lat="37.284649" lon="-8.851968">
        <ele>111.157</ele>
        <time>2018-12-29T09:41:31Z</time>
      </trkpt>
      <trkpt lat="37.284680" lon="-8.851897">
        <ele>111.634</ele>
        <time>2018-12-29T09:41:36Z</time>
      </trkpt>
      <trkpt lat="37.284707" lon="-8.851778">
        <ele>112.159</ele>
        <time>2018-12-29T09:41:44Z</time>
      </trkpt>
      <trkpt lat="37.284738" lon="-8.851714">
        <ele>112.135</ele>
        <time>2018-12-29T09:41:55Z</time>
      </trkpt>
      <trkpt lat="37.284735" lon="-8.851704">
        <ele>112.190</ele>
        <time>2018-12-29T09:42:05Z</time>
      </trkpt>
      <trkpt lat="37.284738" lon="-8.851681">
        <ele>112.616</ele>
        <time>2018-12-29T09:42:07Z</time>
      </trkpt>
      <trkpt lat="37.284747" lon="-8.851627">
        <ele>112.693</ele>
        <time>2018-12-29T09:42:11Z</time>
      </trkpt>
      <trkpt lat="37.284813" lon="-8.851514">
        <ele>113.029</ele>
        <time>2018-12-29T09:42:21Z</time>
      </trkpt>
      <trkpt lat="37.284870" lon="-8.851435">
        <ele>113.500</ele>
        <time>2018-12-29T09:42:28Z</time>
      </trkpt>
      <trkpt lat="37.284931" lon="-8.851351">
        <ele>113.520</ele>
        <time>2018-12-29T09:42:35Z</time>
      </trkpt>
      <trkpt lat="37.285012" lon="-8.851263">
        <ele>113.508</ele>
        <time>2018-12-29T09:42:44Z</time>
      </trkpt>
      <trkpt lat="37.285033" lon="-8.851244">
        <ele>114.075</ele>
        <time>2018-12-29T09:42:46Z</time>
      </trkpt>
      <trkpt lat="37.285111" lon="-8.851177">
        <ele>115.083</ele>
        <time>2018-12-29T09:42:54Z</time>
      </trkpt>
      <trkpt lat="37.285129" lon="-8.851156">
        <ele>115.090</ele>
        <time>2018-12-29T09:42:56Z</time>
      </trkpt>
      <trkpt lat="37.285258" lon="-8.851083">
        <ele>115.975</ele>
        <time>2018-12-29T09:43:07Z</time>
      </trkpt>
      <trkpt lat="37.285285" lon="-8.851053">
        <ele>115.981</ele>
        <time>2018-12-29T09:43:10Z</time>
      </trkpt>
      <trkpt lat="37.285328" lon="-8.851024">
        <ele>116.476</ele>
        <time>2018-12-29T09:43:14Z</time>
      </trkpt>
      <trkpt lat="37.285371" lon="-8.851000">
        <ele>115.932</ele>
        <time>2018-12-29T09:43:18Z</time>
      </trkpt>
      <trkpt lat="37.285411" lon="-8.850979">
        <ele>116.449</ele>
        <time>2018-12-29T09:43:22Z</time>
      </trkpt>
      <trkpt lat="37.285511" lon="-8.850903">
        <ele>116.482</ele>
        <time>2018-12-29T09:43:31Z</time>
      </trkpt>
      <trkpt lat="37.285666" lon="-8.850812">
        <ele>115.943</ele>
        <time>2018-12-29T09:43:44Z</time>
      </trkpt>
      <trkpt lat="37.285800" lon="-8.850702">
        <ele>115.017</ele>
        <time>2018-12-29T09:43:56Z</time>
      </trkpt>
      <trkpt lat="37.285947" lon="-8.850547">
        <ele>112.608</ele>
        <time>2018-12-29T09:44:11Z</time>
      </trkpt>
      <trkpt lat="37.285983" lon="-8.850499">
        <ele>112.171</ele>
        <time>2018-12-29T09:44:15Z</time>
      </trkpt>
      <trkpt lat="37.286093" lon="-8.850382">
        <ele>112.139</ele>
        <time>2018-12-29T09:44:26Z</time>
      </trkpt>
      <trkpt lat="37.286124" lon="-8.850360">
        <ele>111.686</ele>
        <time>2018-12-29T09:44:29Z</time>
      </trkpt>
      <trkpt lat="37.286307" lon="-8.850388">
        <ele>111.161</ele>
        <time>2018-12-29T09:44:43Z</time>
      </trkpt>
      <trkpt lat="37.286463" lon="-8.850461">
        <ele>110.687</ele>
        <time>2018-12-29T09:44:56Z</time>
      </trkpt>
      <trkpt lat="37.286618" lon="-8.850606">
        <ele>108.732</ele>
        <time>2018-12-29T09:45:11Z</time>
      </trkpt>
      <trkpt lat="37.286662" lon="-8.850637">
        <ele>108.258</ele>
        <time>2018-12-29T09:45:15Z</time>
      </trkpt>
      <trkpt lat="37.286756" lon="-8.850740">
        <ele>105.875</ele>
        <time>2018-12-29T09:45:24Z</time>
      </trkpt>
      <trkpt lat="37.286897" lon="-8.850877">
        <ele>103.494</ele>
        <time>2018-12-29T09:45:38Z</time>
      </trkpt>
      <trkpt lat="37.287029" lon="-8.851077">
        <ele>102.057</ele>
        <time>2018-12-29T09:45:54Z</time>
      </trkpt>
      <trkpt lat="37.287034" lon="-8.851106">
        <ele>101.522</ele>
        <time>2018-12-29T09:45:56Z</time>
      </trkpt>
      <trkpt lat="37.287125" lon="-8.851297">
        <ele>102.008</ele>
        <time>2018-12-29T09:46:10Z</time>
      </trkpt>
      <trkpt lat="37.287182" lon="-8.851460">
        <ele>101.582</ele>
        <time>2018-12-29T09:46:22Z</time>
      </trkpt>
      <trkpt lat="37.287280" lon="-8.851671">
        <ele>102.050</ele>
        <time>2018-12-29T09:46:38Z</time>
      </trkpt>
      <trkpt lat="37.287341" lon="-8.851762">
        <ele>102.067</ele>
        <time>2018-12-29T09:46:46Z</time>
      </trkpt>
      <trkpt lat="37.287445" lon="-8.851910">
        <ele>102.592</ele>
        <time>2018-12-29T09:46:59Z</time>
      </trkpt>
      <trkpt lat="37.287526" lon="-8.852022">
        <ele>102.548</ele>
        <time>2018-12-29T09:47:09Z</time>
      </trkpt>
      <trkpt lat="37.287616" lon="-8.852164">
        <ele>103.423</ele>
        <time>2018-12-29T09:47:21Z</time>
      </trkpt>
      <trkpt lat="37.287711" lon="-8.852315">
        <ele>103.439</ele>
        <time>2018-12-29T09:47:34Z</time>
      </trkpt>
      <trkpt lat="37.287727" lon="-8.852337">
        <ele>103.996</ele>
        <time>2018-12-29T09:47:36Z</time>
      </trkpt>
      <trkpt lat="37.287740" lon="-8.852370">
        <ele>103.451</ele>
        <time>2018-12-29T09:47:38Z</time>
      </trkpt>
      <trkpt lat="37.287794" lon="-8.852453">
        <ele>103.401</ele>
        <time>2018-12-29T09:47:45Z</time>
      </trkpt>
      <trkpt lat="37.287837" lon="-8.852503">
        <ele>103.411</ele>
        <time>2018-12-29T09:47:50Z</time>
      </trkpt>
      <trkpt lat="37.287913" lon="-8.852614">
        <ele>103.408</ele>
        <time>2018-12-29T09:48:00Z</time>
      </trkpt>
      <trkpt lat="37.287917" lon="-8.852646">
        <ele>103.498</ele>
        <time>2018-12-29T09:48:02Z</time>
      </trkpt>
      <trkpt lat="37.287955" lon="-8.852729">
        <ele>103.446</ele>
        <time>2018-12-29T09:48:09Z</time>
      </trkpt>
      <trkpt lat="37.288067" lon="-8.852895">
        <ele>102.093</ele>
        <time>2018-12-29T09:48:24Z</time>
      </trkpt>
      <trkpt lat="37.288187" lon="-8.853012">
        <ele>101.038</ele>
        <time>2018-12-29T09:48:37Z</time>
      </trkpt>
      <trkpt lat="37.288323" lon="-8.853117">
        <ele>101.094</ele>
        <time>2018-12-29T09:48:50Z</time>
      </trkpt>
      <trkpt lat="37.288365" lon="-8.853154">
        <ele>100.629</ele>
        <time>2018-12-29T09:48:54Z</time>
      </trkpt>
      <trkpt lat="37.288455" lon="-8.853195">
        <ele>100.625</ele>
        <time>2018-12-29T09:49:02Z</time>
      </trkpt>
      <trkpt lat="37.288562" lon="-8.853304">
        <ele>100.652</ele>
        <time>2018-12-29T09:49:15Z</time>
      </trkpt>
      <trkpt lat="37.288602" lon="-8.853390">
        <ele>100.629</ele>
        <time>2018-12-29T09:49:22Z</time>
      </trkpt>
      <trkpt lat="37.288642" lon="-8.853488">
        <ele>100.100</ele>
        <time>2018-12-29T09:49:30Z</time>
      </trkpt>
      <trkpt lat="37.288760" lon="-8.853649">
        <ele>99.120</ele>
        <time>2018-12-29T09:49:45Z</time>
      </trkpt>
      <trkpt lat="37.288822" lon="-8.853727">
        <ele>97.708</ele>
        <time>2018-12-29T09:49:52Z</time>
      </trkpt>
      <trkpt lat="37.288929" lon="-8.853812">
        <ele>96.285</ele>
        <time>2018-12-29T09:50:02Z</time>
      </trkpt>
      <trkpt lat="37.289098" lon="-8.853953">
        <ele>94.863</ele>
        <time>2018-12-29T09:50:18Z</time>
      </trkpt>
      <trkpt lat="37.289233" lon="-8.854068">
        <ele>94.390</ele>
        <time>2018-12-29T09:50:31Z</time>
      </trkpt>
      <trkpt lat="37.289399" lon="-8.854163">
        <ele>92.955</ele>
        <time>2018-12-29T09:50:46Z</time>
      </trkpt>
      <trkpt lat="37.289560" lon="-8.854199">
        <ele>90.571</ele>
        <time>2018-12-29T09:51:00Z</time>
      </trkpt>
      <trkpt lat="37.289672" lon="-8.854255">
        <ele>89.046</ele>
        <time>2018-12-29T09:51:09Z</time>
      </trkpt>
      <trkpt lat="37.289810" lon="-8.854362">
        <ele>87.692</ele>
        <time>2018-12-29T09:51:23Z</time>
      </trkpt>
      <trkpt lat="37.289970" lon="-8.854511">
        <ele>86.119</ele>
        <time>2018-12-29T09:51:39Z</time>
      </trkpt>
      <trkpt lat="37.289982" lon="-8.854519">
        <ele>86.195</ele>
        <time>2018-12-29T09:51:40Z</time>
      </trkpt>
      <trkpt lat="37.290007" lon="-8.854523">
        <ele>86.149</ele>
        <time>2018-12-29T09:51:42Z</time>
      </trkpt>
      <trkpt lat="37.290062" lon="-8.854564">
        <ele>86.623</ele>
        <time>2018-12-29T09:51:47Z</time>
      </trkpt>
      <trkpt lat="37.290160" lon="-8.854692">
        <ele>88.108</ele>
        <time>2018-12-29T09:51:59Z</time>
      </trkpt>
      <trkpt lat="37.290181" lon="-8.854747">
        <ele>88.142</ele>
        <time>2018-12-29T09:52:10Z</time>
      </trkpt>
      <trkpt lat="37.290183" lon="-8.854742">
        <ele>88.110</ele>
        <time>2018-12-29T09:52:25Z</time>
      </trkpt>
      <trkpt lat="37.290187" lon="-8.854739">
        <ele>88.157</ele>
        <time>2018-12-29T09:52:43Z</time>
      </trkpt>
      <trkpt lat="37.290193" lon="-8.854738">
        <ele>88.142</ele>
        <time>2018-12-29T09:53:03Z</time>
      </trkpt>
      <trkpt lat="37.290193" lon="-8.854738">
        <ele>88.138</ele>
        <time>2018-12-29T09:53:16Z</time>
      </trkpt>
      <trkpt lat="37.290212" lon="-8.854756">
        <ele>88.593</ele>
        <time>2018-12-29T09:53:19Z</time>
      </trkpt>
      <trkpt lat="37.290312" lon="-8.854899">
        <ele>89.549</ele>
        <time>2018-12-29T09:53:32Z</time>
      </trkpt>
      <trkpt lat="37.290444" lon="-8.855057">
        <ele>91.416</ele>
        <time>2018-12-29T09:53:46Z</time>
      </trkpt>
      <trkpt lat="37.290469" lon="-8.855104">
        <ele>90.994</ele>
        <time>2018-12-29T09:53:50Z</time>
      </trkpt>
      <trkpt lat="37.290507" lon="-8.855154">
        <ele>91.457</ele>
        <time>2018-12-29T09:53:54Z</time>
      </trkpt>
      <trkpt lat="37.290628" lon="-8.855325">
        <ele>93.322</ele>
        <time>2018-12-29T09:54:07Z</time>
      </trkpt>
      <trkpt lat="37.290673" lon="-8.855411">
        <ele>93.308</ele>
        <time>2018-12-29T09:54:13Z</time>
      </trkpt>
      <trkpt lat="37.290806" lon="-8.855583">
        <ele>94.812</ele>
        <time>2018-12-29T09:54:27Z</time>
      </trkpt>
      <trkpt lat="37.290877" lon="-8.855677">
        <ele>96.270</ele>
        <time>2018-12-29T09:54:35Z</time>
      </trkpt>
      <trkpt lat="37.290971" lon="-8.855794">
        <ele>96.737</ele>
        <time>2018-12-29T09:54:45Z</time>
      </trkpt>
      <trkpt lat="37.291089" lon="-8.855972">
        <ele>97.792</ele>
        <time>2018-12-29T09:54:58Z</time>
      </trkpt>
      <trkpt lat="37.291239" lon="-8.856143">
        <ele>99.188</ele>
        <time>2018-12-29T09:55:13Z</time>
      </trkpt>
      <trkpt lat="37.291301" lon="-8.856214">
        <ele>100.143</ele>
        <time>2018-12-29T09:55:19Z</time>
      </trkpt>
      <trkpt lat="37.291375" lon="-8.856266">
        <ele>100.639</ele>
        <time>2018-12-29T09:55:26Z</time>
      </trkpt>
      <trkpt lat="37.291479" lon="-8.856315">
        <ele>101.096</ele>
        <time>2018-12-29T09:55:34Z</time>
      </trkpt>
      <trkpt lat="37.291582" lon="-8.856347">
        <ele>101.516</ele>
        <time>2018-12-29T09:55:42Z</time>
      </trkpt>
      <trkpt lat="37.291727" lon="-8.856338">
        <ele>103.076</ele>
        <time>2018-12-29T09:55:53Z</time>
      </trkpt>
      <trkpt lat="37.291760" lon="-8.856324">
        <ele>103.013</ele>
        <time>2018-12-29T09:55:56Z</time>
      </trkpt>
      <trkpt lat="37.291801" lon="-8.856328">
        <ele>103.008</ele>
        <time>2018-12-29T09:56:02Z</time>
      </trkpt>
      <trkpt lat="37.291968" lon="-8.856313">
        <ele>103.484</ele>
        <time>2018-12-29T09:56:15Z</time>
      </trkpt>
      <trkpt lat="37.292112" lon="-8.856306">
        <ele>103.422</ele>
        <time>2018-12-29T09:56:26Z</time>
      </trkpt>
      <trkpt lat="37.292228" lon="-8.856319">
        <ele>103.459</ele>
        <time>2018-12-29T09:56:35Z</time>
      </trkpt>
      <trkpt lat="37.292308" lon="-8.856360">
        <ele>103.934</ele>
        <time>2018-12-29T09:56:42Z</time>
      </trkpt>
      <trkpt lat="37.292350" lon="-8.856406">
        <ele>103.940</ele>
        <time>2018-12-29T09:56:46Z</time>
      </trkpt>
      <trkpt lat="37.292384" lon="-8.856439">
        <ele>103.925</ele>
        <time>2018-12-29T09:56:49Z</time>
      </trkpt>
      <trkpt lat="37.292428" lon="-8.856521">
        <ele>104.931</ele>
        <time>2018-12-29T09:56:55Z</time>
      </trkpt>
      <trkpt lat="37.292517" lon="-8.856724">
        <ele>105.448</ele>
        <time>2018-12-29T09:57:09Z</time>
      </trkpt>
      <trkpt lat="37.292571" lon="-8.856897">
        <ele>105.876</ele>
        <time>2018-12-29T09:57:21Z</time>
      </trkpt>
      <trkpt lat="37.292599" lon="-8.857019">
        <ele>105.890</ele>
        <time>2018-12-29T09:57:29Z</time>
      </trkpt>
      <trkpt lat="37.292613" lon="-8.857092">
        <ele>105.819</ele>
        <time>2018-12-29T09:57:34Z</time>
      </trkpt>
      <trkpt lat="37.292667" lon="-8.857275">
        <ele>106.308</ele>
        <time>2018-12-29T09:57:47Z</time>
      </trkpt>
      <trkpt lat="37.292704" lon="-8.857485">
        <ele>106.820</ele>
        <time>2018-12-29T09:58:02Z</time>
      </trkpt>
      <trkpt lat="37.292723" lon="-8.857575">
        <ele>106.838</ele>
        <time>2018-12-29T09:58:11Z</time>
      </trkpt>
      <trkpt lat="37.292732" lon="-8.857607">
        <ele>106.865</ele>
        <time>2018-12-29T09:58:15Z</time>
      </trkpt>
      <trkpt lat="37.292762" lon="-8.857840">
        <ele>106.820</ele>
        <time>2018-12-29T09:58:30Z</time>
      </trkpt>
      <trkpt lat="37.292785" lon="-8.858035">
        <ele>106.336</ele>
        <time>2018-12-29T09:58:42Z</time>
      </trkpt>
      <trkpt lat="37.292794" lon="-8.858274">
        <ele>105.411</ele>
        <time>2018-12-29T09:58:57Z</time>
      </trkpt>
      <trkpt lat="37.292773" lon="-8.858495">
        <ele>104.427</ele>
        <time>2018-12-29T09:59:10Z</time>
      </trkpt>
      <trkpt lat="37.292776" lon="-8.858733">
        <ele>103.484</ele>
        <time>2018-12-29T09:59:25Z</time>
      </trkpt>
      <trkpt lat="37.292773" lon="-8.858985">
        <ele>103.046</ele>
        <time>2018-12-29T09:59:41Z</time>
      </trkpt>
      <trkpt lat="37.292769" lon="-8.859034">
        <ele>102.588</ele>
        <time>2018-12-29T09:59:44Z</time>
      </trkpt>
      <trkpt lat="37.292767" lon="-8.859284">
        <ele>102.016</ele>
        <time>2018-12-29T10:00:00Z</time>
      </trkpt>
      <trkpt lat="37.292768" lon="-8.859378">
        <ele>102.508</ele>
        <time>2018-12-29T10:00:06Z</time>
      </trkpt>
      <trkpt lat="37.292827" lon="-8.859606">
        <ele>102.557</ele>
        <time>2018-12-29T10:00:23Z</time>
      </trkpt>
      <trkpt lat="37.292832" lon="-8.859618">
        <ele>102.535</ele>
        <time>2018-12-29T10:00:39Z</time>
      </trkpt>
      <trkpt lat="37.292839" lon="-8.859663">
        <ele>102.562</ele>
        <time>2018-12-29T10:00:42Z</time>
      </trkpt>
      <trkpt lat="37.292875" lon="-8.859764">
        <ele>102.577</ele>
        <time>2018-12-29T10:00:50Z</time>
      </trkpt>
      <trkpt lat="37.292933" lon="-8.860013">
        <ele>102.513</ele>
        <time>2018-12-29T10:01:09Z</time>
      </trkpt>
      <trkpt lat="37.292977" lon="-8.860236">
        <ele>102.568</ele>
        <time>2018-12-29T10:01:24Z</time>
      </trkpt>
      <trkpt lat="37.293032" lon="-8.860474">
        <ele>102.594</ele>
        <time>2018-12-29T10:01:40Z</time>
      </trkpt>
      <trkpt lat="37.293084" lon="-8.860696">
        <ele>102.061</ele>
        <time>2018-12-29T10:01:55Z</time>
      </trkpt>
      <trkpt lat="37.293130" lon="-8.860917">
        <ele>101.559</ele>
        <time>2018-12-29T10:02:10Z</time>
      </trkpt>
      <trkpt lat="37.293163" lon="-8.860991">
        <ele>100.603</ele>
        <time>2018-12-29T10:02:15Z</time>
      </trkpt>
      <trkpt lat="37.293200" lon="-8.861036">
        <ele>100.123</ele>
        <time>2018-12-29T10:02:19Z</time>
      </trkpt>
      <trkpt lat="37.293289" lon="-8.861112">
        <ele>100.108</ele>
        <time>2018-12-29T10:02:29Z</time>
      </trkpt>
      <trkpt lat="37.293444" lon="-8.861278">
        <ele>99.178</ele>
        <time>2018-12-29T10:02:46Z</time>
      </trkpt>
      <trkpt lat="37.293619" lon="-8.861431">
        <ele>97.246</ele>
        <time>2018-12-29T10:03:03Z</time>
      </trkpt>
      <trkpt lat="37.293761" lon="-8.861570">
        <ele>95.353</ele>
        <time>2018-12-29T10:03:18Z</time>
      </trkpt>
      <trkpt lat="37.293943" lon="-8.861722">
        <ele>93.368</ele>
        <time>2018-12-29T10:03:35Z</time>
      </trkpt>
      <trkpt lat="37.294112" lon="-8.861767">
        <ele>92.424</ele>
        <time>2018-12-29T10:03:49Z</time>
      </trkpt>
      <trkpt lat="37.294254" lon="-8.861739">
        <ele>92.419</ele>
        <time>2018-12-29T10:04:00Z</time>
      </trkpt>
      <trkpt lat="37.294321" lon="-8.861691">
        <ele>93.345</ele>
        <time>2018-12-29T10:04:06Z</time>
      </trkpt>
      <trkpt lat="37.294391" lon="-8.861714">
        <ele>92.922</ele>
        <time>2018-12-29T10:04:13Z</time>
      </trkpt>
      <trkpt lat="37.294495" lon="-8.861841">
        <ele>90.954</ele>
        <time>2018-12-29T10:04:23Z</time>
      </trkpt>
      <trkpt lat="37.294648" lon="-8.862009">
        <ele>90.956</ele>
        <time>2018-12-29T10:04:38Z</time>
      </trkpt>
      <trkpt lat="37.294784" lon="-8.862173">
        <ele>90.911</ele>
        <time>2018-12-29T10:04:52Z</time>
      </trkpt>
      <trkpt lat="37.294858" lon="-8.862313">
        <ele>91.408</ele>
        <time>2018-12-29T10:05:03Z</time>
      </trkpt>
      <trkpt lat="37.294891" lon="-8.862341">
        <ele>92.418</ele>
        <time>2018-12-29T10:05:07Z</time>
      </trkpt>
      <trkpt lat="37.294912" lon="-8.862364">
        <ele>92.996</ele>
        <time>2018-12-29T10:05:10Z</time>
      </trkpt>
      <trkpt lat="37.294959" lon="-8.862608">
        <ele>91.423</ele>
        <time>2018-12-29T10:05:26Z</time>
      </trkpt>
      <trkpt lat="37.295006" lon="-8.862725">
        <ele>90.998</ele>
        <time>2018-12-29T10:05:34Z</time>
      </trkpt>
      <trkpt lat="37.295152" lon="-8.862918">
        <ele>89.574</ele>
        <time>2018-12-29T10:05:50Z</time>
      </trkpt>
      <trkpt lat="37.295274" lon="-8.863056">
        <ele>88.169</ele>
        <time>2018-12-29T10:06:03Z</time>
      </trkpt>
      <trkpt lat="37.295370" lon="-8.863207">
        <ele>87.155</ele>
        <time>2018-12-29T10:06:14Z</time>
      </trkpt>
      <trkpt lat="37.295493" lon="-8.863401">
        <ele>85.252</ele>
        <time>2018-12-29T10:06:28Z</time>
      </trkpt>
      <trkpt lat="37.295610" lon="-8.863561">
        <ele>84.711</ele>
        <time>2018-12-29T10:06:41Z</time>
      </trkpt>
      <trkpt lat="37.295713" lon="-8.863765">
        <ele>83.721</ele>
        <time>2018-12-29T10:06:56Z</time>
      </trkpt>
      <trkpt lat="37.295818" lon="-8.863950">
        <ele>81.803</ele>
        <time>2018-12-29T10:07:10Z</time>
      </trkpt>
      <trkpt lat="37.295947" lon="-8.864148">
        <ele>80.408</ele>
        <time>2018-12-29T10:07:26Z</time>
      </trkpt>
      <trkpt lat="37.295994" lon="-8.864358">
        <ele>78.984</ele>
        <time>2018-12-29T10:07:42Z</time>
      </trkpt>
      <trkpt lat="37.295991" lon="-8.864371">
        <ele>79.472</ele>
        <time>2018-12-29T10:07:44Z</time>
      </trkpt>
      <trkpt lat="37.295954" lon="-8.864561">
        <ele>78.479</ele>
        <time>2018-12-29T10:07:57Z</time>
      </trkpt>
      <trkpt lat="37.295921" lon="-8.864778">
        <ele>76.544</ele>
        <time>2018-12-29T10:08:12Z</time>
      </trkpt>
      <trkpt lat="37.295890" lon="-8.865008">
        <ele>75.160</ele>
        <time>2018-12-29T10:08:27Z</time>
      </trkpt>
      <trkpt lat="37.295873" lon="-8.865138">
        <ele>73.215</ele>
        <time>2018-12-29T10:08:36Z</time>
      </trkpt>
      <trkpt lat="37.295832" lon="-8.865289">
        <ele>71.761</ele>
        <time>2018-12-29T10:08:49Z</time>
      </trkpt>
      <trkpt lat="37.295801" lon="-8.865388">
        <ele>70.738</ele>
        <time>2018-12-29T10:08:56Z</time>
      </trkpt>
      <trkpt lat="37.295776" lon="-8.865418">
        <ele>70.789</ele>
        <time>2018-12-29T10:08:59Z</time>
      </trkpt>
      <trkpt lat="37.295633" lon="-8.865553">
        <ele>69.806</ele>
        <time>2018-12-29T10:09:15Z</time>
      </trkpt>
      <trkpt lat="37.295597" lon="-8.865577">
        <ele>69.826</ele>
        <time>2018-12-29T10:09:29Z</time>
      </trkpt>
      <trkpt lat="37.295593" lon="-8.865579">
        <ele>69.808</ele>
        <time>2018-12-29T10:09:52Z</time>
      </trkpt>
      <trkpt lat="37.295593" lon="-8.865579">
        <ele>69.821</ele>
        <time>2018-12-29T10:10:09Z</time>
      </trkpt>
      <trkpt lat="37.295593" lon="-8.865579">
        <ele>69.869</ele>
        <time>2018-12-29T10:10:32Z</time>
      </trkpt>
      <trkpt lat="37.295593" lon="-8.865579">
        <ele>70.336</ele>
        <time>2018-12-29T10:10:57Z</time>
      </trkpt>
      <trkpt lat="37.295595" lon="-8.865581">
        <ele>69.891</ele>
        <time>2018-12-29T10:11:18Z</time>
      </trkpt>
      <trkpt lat="37.295596" lon="-8.865596">
        <ele>70.357</ele>
        <time>2018-12-29T10:11:24Z</time>
      </trkpt>
      <trkpt lat="37.295600" lon="-8.865621">
        <ele>70.372</ele>
        <time>2018-12-29T10:11:26Z</time>
      </trkpt>
      <trkpt lat="37.295610" lon="-8.865726">
        <ele>70.318</ele>
        <time>2018-12-29T10:11:40Z</time>
      </trkpt>
      <trkpt lat="37.295631" lon="-8.865794">
        <ele>71.285</ele>
        <time>2018-12-29T10:11:55Z</time>
      </trkpt>
      <trkpt lat="37.295640" lon="-8.865838">
        <ele>71.234</ele>
        <time>2018-12-29T10:12:10Z</time>
      </trkpt>
      <trkpt lat="37.295640" lon="-8.865838">
        <ele>71.255</ele>
        <time>2018-12-29T10:12:27Z</time>
      </trkpt>
      <trkpt lat="37.295643" lon="-8.865837">
        <ele>71.210</ele>
        <time>2018-12-29T10:12:39Z</time>
      </trkpt>
      <trkpt lat="37.295643" lon="-8.865837">
        <ele>71.208</ele>
        <time>2018-12-29T10:13:06Z</time>
      </trkpt>
      <trkpt lat="37.295647" lon="-8.865839">
        <ele>71.286</ele>
        <time>2018-12-29T10:13:31Z</time>
      </trkpt>
      <trkpt lat="37.295649" lon="-8.865837">
        <ele>71.224</ele>
        <time>2018-12-29T10:13:40Z</time>
      </trkpt>
      <trkpt lat="37.295674" lon="-8.865876">
        <ele>71.261</ele>
        <time>2018-12-29T10:13:44Z</time>
      </trkpt>
      <trkpt lat="37.295737" lon="-8.866032">
        <ele>71.786</ele>
        <time>2018-12-29T10:13:56Z</time>
      </trkpt>
      <trkpt lat="37.295755" lon="-8.866056">
        <ele>71.742</ele>
        <time>2018-12-29T10:13:59Z</time>
      </trkpt>
      <trkpt lat="37.295787" lon="-8.866081">
        <ele>72.217</ele>
        <time>2018-12-29T10:14:04Z</time>
      </trkpt>
      <trkpt lat="37.295800" lon="-8.866096">
        <ele>72.213</ele>
        <time>2018-12-29T10:14:06Z</time>
      </trkpt>
      <trkpt lat="37.295848" lon="-8.866172">
        <ele>73.230</ele>
        <time>2018-12-29T10:14:15Z</time>
      </trkpt>
      <trkpt lat="37.295863" lon="-8.866189">
        <ele>73.295</ele>
        <time>2018-12-29T10:14:18Z</time>
      </trkpt>
      <trkpt lat="37.295913" lon="-8.866221">
        <ele>73.649</ele>
        <time>2018-12-29T10:14:32Z</time>
      </trkpt>
      <trkpt lat="37.295937" lon="-8.866214">
        <ele>73.623</ele>
        <time>2018-12-29T10:14:45Z</time>
      </trkpt>
      <trkpt lat="37.295956" lon="-8.866217">
        <ele>73.608</ele>
        <time>2018-12-29T10:14:47Z</time>
      </trkpt>
      <trkpt lat="37.295976" lon="-8.866205">
        <ele>74.122</ele>
        <time>2018-12-29T10:14:52Z</time>
      </trkpt>
      <trkpt lat="37.295987" lon="-8.866219">
        <ele>73.610</ele>
        <time>2018-12-29T10:14:54Z</time>
      </trkpt>
      <trkpt lat="37.296013" lon="-8.866238">
        <ele>74.167</ele>
        <time>2018-12-29T10:14:57Z</time>
      </trkpt>
      <trkpt lat="37.296130" lon="-8.866356">
        <ele>75.662</ele>
        <time>2018-12-29T10:15:10Z</time>
      </trkpt>
      <trkpt lat="37.296244" lon="-8.866439">
        <ele>77.068</ele>
        <time>2018-12-29T10:15:21Z</time>
      </trkpt>
      <trkpt lat="37.296338" lon="-8.866514">
        <ele>78.453</ele>
        <time>2018-12-29T10:15:31Z</time>
      </trkpt>
      <trkpt lat="37.296425" lon="-8.866602">
        <ele>79.419</ele>
        <time>2018-12-29T10:15:42Z</time>
      </trkpt>
      <trkpt lat="37.296464" lon="-8.866642">
        <ele>80.416</ele>
        <time>2018-12-29T10:15:47Z</time>
      </trkpt>
      <trkpt lat="37.296492" lon="-8.866672">
        <ele>80.455</ele>
        <time>2018-12-29T10:15:51Z</time>
      </trkpt>
      <trkpt lat="37.296540" lon="-8.866717">
        <ele>81.307</ele>
        <time>2018-12-29T10:15:57Z</time>
      </trkpt>
      <trkpt lat="37.296549" lon="-8.866735">
        <ele>81.317</ele>
        <time>2018-12-29T10:15:59Z</time>
      </trkpt>
      <trkpt lat="37.296606" lon="-8.866849">
        <ele>82.308</ele>
        <time>2018-12-29T10:16:08Z</time>
      </trkpt>
      <trkpt lat="37.296616" lon="-8.866907">
        <ele>82.388</ele>
        <time>2018-12-29T10:16:12Z</time>
      </trkpt>
      <trkpt lat="37.296642" lon="-8.867038">
        <ele>82.896</ele>
        <time>2018-12-29T10:16:21Z</time>
      </trkpt>
      <trkpt lat="37.296645" lon="-8.867278">
        <ele>83.243</ele>
        <time>2018-12-29T10:16:37Z</time>
      </trkpt>
      <trkpt lat="37.296649" lon="-8.867302">
        <ele>82.868</ele>
        <time>2018-12-29T10:16:39Z</time>
      </trkpt>
      <trkpt lat="37.296644" lon="-8.867357">
        <ele>82.814</ele>
        <time>2018-12-29T10:16:43Z</time>
      </trkpt>
      <trkpt lat="37.296641" lon="-8.867390">
        <ele>82.879</ele>
        <time>2018-12-29T10:16:45Z</time>
      </trkpt>
      <trkpt lat="37.296585" lon="-8.867593">
        <ele>81.365</ele>
        <time>2018-12-29T10:17:01Z</time>
      </trkpt>
      <trkpt lat="37.296503" lon="-8.867769">
        <ele>79.482</ele>
        <time>2018-12-29T10:17:15Z</time>
      </trkpt>
      <trkpt lat="37.296462" lon="-8.867969">
        <ele>78.427</ele>
        <time>2018-12-29T10:17:30Z</time>
      </trkpt>
      <trkpt lat="37.296468" lon="-8.868034">
        <ele>77.568</ele>
        <time>2018-12-29T10:17:36Z</time>
      </trkpt>
      <trkpt lat="37.296349" lon="-8.868152">
        <ele>77.014</ele>
        <time>2018-12-29T10:17:50Z</time>
      </trkpt>
      <trkpt lat="37.296237" lon="-8.868280">
        <ele>76.508</ele>
        <time>2018-12-29T10:18:04Z</time>
      </trkpt>
      <trkpt lat="37.296199" lon="-8.868336">
        <ele>76.585</ele>
        <time>2018-12-29T10:18:17Z</time>
      </trkpt>
      <trkpt lat="37.296155" lon="-8.868286">
        <ele>76.543</ele>
        <time>2018-12-29T10:18:28Z</time>
      </trkpt>
      <trkpt lat="37.296150" lon="-8.868253">
        <ele>76.010</ele>
        <time>2018-12-29T10:18:41Z</time>
      </trkpt>
      <trkpt lat="37.296150" lon="-8.868253">
        <ele>76.065</ele>
        <time>2018-12-29T10:19:05Z</time>
      </trkpt>
      <trkpt lat="37.296151" lon="-8.868278">
        <ele>76.071</ele>
        <time>2018-12-29T10:19:18Z</time>
      </trkpt>
      <trkpt lat="37.296138" lon="-8.868286">
        <ele>75.646</ele>
        <time>2018-12-29T10:19:31Z</time>
      </trkpt>
      <trkpt lat="37.296139" lon="-8.868296">
        <ele>76.062</ele>
        <time>2018-12-29T10:19:56Z</time>
      </trkpt>
      <trkpt lat="37.296139" lon="-8.868296">
        <ele>76.089</ele>
        <time>2018-12-29T10:20:10Z</time>
      </trkpt>
      <trkpt lat="37.296163" lon="-8.868341">
        <ele>75.627</ele>
        <time>2018-12-29T10:20:14Z</time>
      </trkpt>
      <trkpt lat="37.296198" lon="-8.868408">
        <ele>75.668</ele>
        <time>2018-12-29T10:20:23Z</time>
      </trkpt>
      <trkpt lat="37.296229" lon="-8.868426">
        <ele>75.614</ele>
        <time>2018-12-29T10:20:26Z</time>
      </trkpt>
      <trkpt lat="37.296255" lon="-8.868448">
        <ele>76.008</ele>
        <time>2018-12-29T10:20:29Z</time>
      </trkpt>
      <trkpt lat="37.296310" lon="-8.868461">
        <ele>75.645</ele>
        <time>2018-12-29T10:20:34Z</time>
      </trkpt>
      <trkpt lat="37.296391" lon="-8.868610">
        <ele>74.633</ele>
        <time>2018-12-29T10:20:48Z</time>
      </trkpt>
      <trkpt lat="37.296424" lon="-8.868815">
        <ele>72.220</ele>
        <time>2018-12-29T10:21:02Z</time>
      </trkpt>
      <trkpt lat="37.296429" lon="-8.868897">
        <ele>71.775</ele>
        <time>2018-12-29T10:21:08Z</time>
      </trkpt>
      <trkpt lat="37.296401" lon="-8.869081">
        <ele>72.271</ele>
        <time>2018-12-29T10:21:22Z</time>
      </trkpt>
      <trkpt lat="37.296370" lon="-8.869174">
        <ele>71.246</ele>
        <time>2018-12-29T10:21:36Z</time>
      </trkpt>
      <trkpt lat="37.296370" lon="-8.869174">
        <ele>71.262</ele>
        <time>2018-12-29T10:21:59Z</time>
      </trkpt>
      <trkpt lat="37.296370" lon="-8.869167">
        <ele>71.259</ele>
        <time>2018-12-29T10:22:07Z</time>
      </trkpt>
      <trkpt lat="37.296398" lon="-8.869116">
        <ele>72.247</ele>
        <time>2018-12-29T10:22:12Z</time>
      </trkpt>
      <trkpt lat="37.296495" lon="-8.869057">
        <ele>72.729</ele>
        <time>2018-12-29T10:22:24Z</time>
      </trkpt>
      <trkpt lat="37.296528" lon="-8.869078">
        <ele>73.221</ele>
        <time>2018-12-29T10:22:28Z</time>
      </trkpt>
      <trkpt lat="37.296567" lon="-8.869110">
        <ele>73.608</ele>
        <time>2018-12-29T10:22:33Z</time>
      </trkpt>
      <trkpt lat="37.296621" lon="-8.869177">
        <ele>74.647</ele>
        <time>2018-12-29T10:22:41Z</time>
      </trkpt>
      <trkpt lat="37.296633" lon="-8.869204">
        <ele>74.685</ele>
        <time>2018-12-29T10:22:43Z</time>
      </trkpt>
      <trkpt lat="37.296647" lon="-8.869216">
        <ele>75.662</ele>
        <time>2018-12-29T10:22:45Z</time>
      </trkpt>
      <trkpt lat="37.296704" lon="-8.869322">
        <ele>77.097</ele>
        <time>2018-12-29T10:22:56Z</time>
      </trkpt>
      <trkpt lat="37.296769" lon="-8.869417">
        <ele>77.523</ele>
        <time>2018-12-29T10:23:06Z</time>
      </trkpt>
      <trkpt lat="37.296844" lon="-8.869533">
        <ele>78.488</ele>
        <time>2018-12-29T10:23:16Z</time>
      </trkpt>
      <trkpt lat="37.296875" lon="-8.869640">
        <ele>79.434</ele>
        <time>2018-12-29T10:23:24Z</time>
      </trkpt>
      <trkpt lat="37.296926" lon="-8.869752">
        <ele>79.921</ele>
        <time>2018-12-29T10:23:34Z</time>
      </trkpt>
      <trkpt lat="37.296964" lon="-8.869820">
        <ele>79.921</ele>
        <time>2018-12-29T10:23:40Z</time>
      </trkpt>
      <trkpt lat="37.296983" lon="-8.869841">
        <ele>79.941</ele>
        <time>2018-12-29T10:23:42Z</time>
      </trkpt>
      <trkpt lat="37.297033" lon="-8.869980">
        <ele>79.905</ele>
        <time>2018-12-29T10:23:52Z</time>
      </trkpt>
      <trkpt lat="37.297057" lon="-8.870063">
        <ele>79.908</ele>
        <time>2018-12-29T10:23:58Z</time>
      </trkpt>
      <trkpt lat="37.297074" lon="-8.870236">
        <ele>80.415</ele>
        <time>2018-12-29T10:24:10Z</time>
      </trkpt>
      <trkpt lat="37.297078" lon="-8.870324">
        <ele>80.813</ele>
        <time>2018-12-29T10:24:16Z</time>
      </trkpt>
      <trkpt lat="37.297039" lon="-8.870549">
        <ele>81.360</ele>
        <time>2018-12-29T10:24:32Z</time>
      </trkpt>
      <trkpt lat="37.296996" lon="-8.870755">
        <ele>81.845</ele>
        <time>2018-12-29T10:24:46Z</time>
      </trkpt>
      <trkpt lat="37.296947" lon="-8.870974">
        <ele>81.891</ele>
        <time>2018-12-29T10:25:01Z</time>
      </trkpt>
      <trkpt lat="37.296889" lon="-8.871170">
        <ele>82.356</ele>
        <time>2018-12-29T10:25:15Z</time>
      </trkpt>
      <trkpt lat="37.296835" lon="-8.871381">
        <ele>83.292</ele>
        <time>2018-12-29T10:25:29Z</time>
      </trkpt>
      <trkpt lat="37.296767" lon="-8.871618">
        <ele>83.769</ele>
        <time>2018-12-29T10:25:45Z</time>
      </trkpt>
      <trkpt lat="37.296752" lon="-8.871690">
        <ele>83.755</ele>
        <time>2018-12-29T10:25:50Z</time>
      </trkpt>
      <trkpt lat="37.296677" lon="-8.871959">
        <ele>84.207</ele>
        <time>2018-12-29T10:26:08Z</time>
      </trkpt>
      <trkpt lat="37.296624" lon="-8.872207">
        <ele>84.717</ele>
        <time>2018-12-29T10:26:24Z</time>
      </trkpt>
      <trkpt lat="37.296562" lon="-8.872428">
        <ele>84.208</ele>
        <time>2018-12-29T10:26:39Z</time>
      </trkpt>
      <trkpt lat="37.296501" lon="-8.872637">
        <ele>84.278</ele>
        <time>2018-12-29T10:26:53Z</time>
      </trkpt>
      <trkpt lat="37.296436" lon="-8.872916">
        <ele>83.756</ele>
        <time>2018-12-29T10:27:11Z</time>
      </trkpt>
      <trkpt lat="37.296392" lon="-8.873123">
        <ele>83.263</ele>
        <time>2018-12-29T10:27:25Z</time>
      </trkpt>
      <trkpt lat="37.296393" lon="-8.873140">
        <ele>83.248</ele>
        <time>2018-12-29T10:27:26Z</time>
      </trkpt>
      <trkpt lat="37.296378" lon="-8.873343">
        <ele>83.224</ele>
        <time>2018-12-29T10:27:40Z</time>
      </trkpt>
      <trkpt lat="37.296354" lon="-8.873527">
        <ele>84.259</ele>
        <time>2018-12-29T10:27:53Z</time>
      </trkpt>
      <trkpt lat="37.296345" lon="-8.873584">
        <ele>85.265</ele>
        <time>2018-12-29T10:27:58Z</time>
      </trkpt>
      <trkpt lat="37.296348" lon="-8.873655">
        <ele>86.122</ele>
        <time>2018-12-29T10:28:03Z</time>
      </trkpt>
      <trkpt lat="37.296352" lon="-8.873692">
        <ele>86.661</ele>
        <time>2018-12-29T10:28:10Z</time>
      </trkpt>
      <trkpt lat="37.296356" lon="-8.873738">
        <ele>86.621</ele>
        <time>2018-12-29T10:28:17Z</time>
      </trkpt>
      <trkpt lat="37.296335" lon="-8.873752">
        <ele>86.613</ele>
        <time>2018-12-29T10:28:20Z</time>
      </trkpt>
      <trkpt lat="37.296308" lon="-8.873782">
        <ele>86.608</ele>
        <time>2018-12-29T10:28:25Z</time>
      </trkpt>
      <trkpt lat="37.296322" lon="-8.873862">
        <ele>87.629</ele>
        <time>2018-12-29T10:28:40Z</time>
      </trkpt>
      <trkpt lat="37.296324" lon="-8.873875">
        <ele>87.627</ele>
        <time>2018-12-29T10:28:41Z</time>
      </trkpt>
      <trkpt lat="37.296318" lon="-8.873912">
        <ele>87.664</ele>
        <time>2018-12-29T10:28:44Z</time>
      </trkpt>
      <trkpt lat="37.296317" lon="-8.873966">
        <ele>87.639</ele>
        <time>2018-12-29T10:28:59Z</time>
      </trkpt>
      <trkpt lat="37.296315" lon="-8.873979">
        <ele>88.125</ele>
        <time>2018-12-29T10:29:04Z</time>
      </trkpt>
      <trkpt lat="37.296317" lon="-8.874007">
        <ele>88.150</ele>
        <time>2018-12-29T10:29:06Z</time>
      </trkpt>
      <trkpt lat="37.296317" lon="-8.874054">
        <ele>88.516</ele>
        <time>2018-12-29T10:29:10Z</time>
      </trkpt>
      <trkpt lat="37.296279" lon="-8.874148">
        <ele>88.143</ele>
        <time>2018-12-29T10:29:25Z</time>
      </trkpt>
      <trkpt lat="37.296283" lon="-8.874158">
        <ele>88.118</ele>
        <time>2018-12-29T10:29:46Z</time>
      </trkpt>
      <trkpt lat="37.296292" lon="-8.874175">
        <ele>88.198</ele>
        <time>2018-12-29T10:29:48Z</time>
      </trkpt>
      <trkpt lat="37.296308" lon="-8.874194">
        <ele>88.517</ele>
        <time>2018-12-29T10:30:03Z</time>
      </trkpt>
      <trkpt lat="37.296289" lon="-8.874200">
        <ele>88.108</ele>
        <time>2018-12-29T10:30:13Z</time>
      </trkpt>
      <trkpt lat="37.296289" lon="-8.874200">
        <ele>88.514</ele>
        <time>2018-12-29T10:30:39Z</time>
      </trkpt>
      <trkpt lat="37.296294" lon="-8.874188">
        <ele>88.152</ele>
        <time>2018-12-29T10:30:52Z</time>
      </trkpt>
      <trkpt lat="37.296325" lon="-8.874173">
        <ele>88.139</ele>
        <time>2018-12-29T10:31:06Z</time>
      </trkpt>
      <trkpt lat="37.296332" lon="-8.874166">
        <ele>88.114</ele>
        <time>2018-12-29T10:31:13Z</time>
      </trkpt>
      <trkpt lat="37.296406" lon="-8.874096">
        <ele>88.190</ele>
        <time>2018-12-29T10:31:28Z</time>
      </trkpt>
      <trkpt lat="37.296410" lon="-8.874079">
        <ele>88.575</ele>
        <time>2018-12-29T10:31:39Z</time>
      </trkpt>
      <trkpt lat="37.296410" lon="-8.874079">
        <ele>87.681</ele>
        <time>2018-12-29T10:32:08Z</time>
      </trkpt>
      <trkpt lat="37.296412" lon="-8.874078">
        <ele>88.198</ele>
        <time>2018-12-29T10:32:29Z</time>
      </trkpt>
      <trkpt lat="37.296412" lon="-8.874078">
        <ele>88.155</ele>
        <time>2018-12-29T10:32:49Z</time>
      </trkpt>
      <trkpt lat="37.296415" lon="-8.874047">
        <ele>88.507</ele>
        <time>2018-12-29T10:33:10Z</time>
      </trkpt>
      <trkpt lat="37.296415" lon="-8.874047">
        <ele>88.117</ele>
        <time>2018-12-29T10:33:30Z</time>
      </trkpt>
      <trkpt lat="37.296410" lon="-8.874097">
        <ele>87.608</ele>
        <time>2018-12-29T10:33:47Z</time>
      </trkpt>
      <trkpt lat="37.296356" lon="-8.874109">
        <ele>88.148</ele>
        <time>2018-12-29T10:33:54Z</time>
      </trkpt>
      <trkpt lat="37.296312" lon="-8.874052">
        <ele>88.116</ele>
        <time>2018-12-29T10:34:06Z</time>
      </trkpt>
      <trkpt lat="37.296311" lon="-8.874032">
        <ele>87.693</ele>
        <time>2018-12-29T10:34:20Z</time>
      </trkpt>
      <trkpt lat="37.296314" lon="-8.874027">
        <ele>88.158</ele>
        <time>2018-12-29T10:34:38Z</time>
      </trkpt>
      <trkpt lat="37.296314" lon="-8.874027">
        <ele>87.634</ele>
        <time>2018-12-29T10:34:58Z</time>
      </trkpt>
      <trkpt lat="37.296311" lon="-8.874026">
        <ele>87.119</ele>
        <time>2018-12-29T10:35:28Z</time>
      </trkpt>
      <trkpt lat="37.296334" lon="-8.873918">
        <ele>87.165</ele>
        <time>2018-12-29T10:35:45Z</time>
      </trkpt>
      <trkpt lat="37.296317" lon="-8.873883">
        <ele>87.162</ele>
        <time>2018-12-29T10:35:48Z</time>
      </trkpt>
      <trkpt lat="37.296215" lon="-8.873829">
        <ele>86.199</ele>
        <time>2018-12-29T10:35:58Z</time>
      </trkpt>
      <trkpt lat="37.296101" lon="-8.873705">
        <ele>85.607</ele>
        <time>2018-12-29T10:36:12Z</time>
      </trkpt>
      <trkpt lat="37.296049" lon="-8.873632">
        <ele>85.627</ele>
        <time>2018-12-29T10:36:19Z</time>
      </trkpt>
      <trkpt lat="37.296030" lon="-8.873609">
        <ele>85.608</ele>
        <time>2018-12-29T10:36:22Z</time>
      </trkpt>
      <trkpt lat="37.296019" lon="-8.873585">
        <ele>85.612</ele>
        <time>2018-12-29T10:36:24Z</time>
      </trkpt>
      <trkpt lat="37.296000" lon="-8.873556">
        <ele>85.610</ele>
        <time>2018-12-29T10:36:27Z</time>
      </trkpt>
      <trkpt lat="37.295984" lon="-8.873520">
        <ele>86.197</ele>
        <time>2018-12-29T10:36:31Z</time>
      </trkpt>
      <trkpt lat="37.295970" lon="-8.873478">
        <ele>86.142</ele>
        <time>2018-12-29T10:36:35Z</time>
      </trkpt>
      <trkpt lat="37.295974" lon="-8.873420">
        <ele>86.158</ele>
        <time>2018-12-29T10:36:45Z</time>
      </trkpt>
      <trkpt lat="37.295977" lon="-8.873406">
        <ele>86.193</ele>
        <time>2018-12-29T10:36:47Z</time>
      </trkpt>
      <trkpt lat="37.295985" lon="-8.873326">
        <ele>86.169</ele>
        <time>2018-12-29T10:36:53Z</time>
      </trkpt>
      <trkpt lat="37.295971" lon="-8.873155">
        <ele>86.696</ele>
        <time>2018-12-29T10:37:05Z</time>
      </trkpt>
      <trkpt lat="37.295907" lon="-8.873033">
        <ele>87.698</ele>
        <time>2018-12-29T10:37:16Z</time>
      </trkpt>
      <trkpt lat="37.295869" lon="-8.872980">
        <ele>87.615</ele>
        <time>2018-12-29T10:37:31Z</time>
      </trkpt>
      <trkpt lat="37.295869" lon="-8.872980">
        <ele>87.626</ele>
        <time>2018-12-29T10:37:59Z</time>
      </trkpt>
      <trkpt lat="37.295867" lon="-8.872973">
        <ele>87.608</ele>
        <time>2018-12-29T10:38:23Z</time>
      </trkpt>
      <trkpt lat="37.295876" lon="-8.872989">
        <ele>87.662</ele>
        <time>2018-12-29T10:38:47Z</time>
      </trkpt>
      <trkpt lat="37.295878" lon="-8.872996">
        <ele>88.150</ele>
        <time>2018-12-29T10:39:06Z</time>
      </trkpt>
      <trkpt lat="37.295924" lon="-8.873051">
        <ele>87.147</ele>
        <time>2018-12-29T10:39:21Z</time>
      </trkpt>
      <trkpt lat="37.296021" lon="-8.873172">
        <ele>86.662</ele>
        <time>2018-12-29T10:39:36Z</time>
      </trkpt>
      <trkpt lat="37.296042" lon="-8.873234">
        <ele>87.198</ele>
        <time>2018-12-29T10:39:43Z</time>
      </trkpt>
      <trkpt lat="37.296101" lon="-8.873340">
        <ele>86.183</ele>
        <time>2018-12-29T10:39:57Z</time>
      </trkpt>
      <trkpt lat="37.296114" lon="-8.873353">
        <ele>86.629</ele>
        <time>2018-12-29T10:40:12Z</time>
      </trkpt>
      <trkpt lat="37.296113" lon="-8.873370">
        <ele>86.166</ele>
        <time>2018-12-29T10:40:26Z</time>
      </trkpt>
      <trkpt lat="37.296113" lon="-8.873370">
        <ele>86.115</ele>
        <time>2018-12-29T10:40:49Z</time>
      </trkpt>
      <trkpt lat="37.296229" lon="-8.873386">
        <ele>85.265</ele>
        <time>2018-12-29T10:41:03Z</time>
      </trkpt>
      <trkpt lat="37.296276" lon="-8.873379">
        <ele>83.711</ele>
        <time>2018-12-29T10:41:08Z</time>
      </trkpt>
      <trkpt lat="37.296367" lon="-8.873264">
        <ele>83.708</ele>
        <time>2018-12-29T10:41:20Z</time>
      </trkpt>
      <trkpt lat="37.296366" lon="-8.873213">
        <ele>83.254</ele>
        <time>2018-12-29T10:41:24Z</time>
      </trkpt>
      <trkpt lat="37.296391" lon="-8.873085">
        <ele>83.232</ele>
        <time>2018-12-29T10:41:34Z</time>
      </trkpt>
      <trkpt lat="37.296431" lon="-8.872994">
        <ele>83.749</ele>
        <time>2018-12-29T10:41:41Z</time>
      </trkpt>
      <trkpt lat="37.296454" lon="-8.872889">
        <ele>83.714</ele>
        <time>2018-12-29T10:41:48Z</time>
      </trkpt>
      <trkpt lat="37.296466" lon="-8.872821">
        <ele>83.750</ele>
        <time>2018-12-29T10:41:53Z</time>
      </trkpt>
      <trkpt lat="37.296508" lon="-8.872616">
        <ele>83.715</ele>
        <time>2018-12-29T10:42:07Z</time>
      </trkpt>
      <trkpt lat="37.296539" lon="-8.872525">
        <ele>84.261</ele>
        <time>2018-12-29T10:42:13Z</time>
      </trkpt>
      <trkpt lat="37.296560" lon="-8.872442">
        <ele>84.258</ele>
        <time>2018-12-29T10:42:19Z</time>
      </trkpt>
      <trkpt lat="37.296576" lon="-8.872352">
        <ele>83.723</ele>
        <time>2018-12-29T10:42:25Z</time>
      </trkpt>
      <trkpt lat="37.296635" lon="-8.872160">
        <ele>83.783</ele>
        <time>2018-12-29T10:42:39Z</time>
      </trkpt>
      <trkpt lat="37.296644" lon="-8.872131">
        <ele>83.711</ele>
        <time>2018-12-29T10:42:41Z</time>
      </trkpt>
      <trkpt lat="37.296676" lon="-8.871997">
        <ele>83.708</ele>
        <time>2018-12-29T10:42:50Z</time>
      </trkpt>
      <trkpt lat="37.296721" lon="-8.871820">
        <ele>83.765</ele>
        <time>2018-12-29T10:43:03Z</time>
      </trkpt>
      <trkpt lat="37.296784" lon="-8.871616">
        <ele>83.253</ele>
        <time>2018-12-29T10:43:18Z</time>
      </trkpt>
      <trkpt lat="37.296792" lon="-8.871570">
        <ele>83.280</ele>
        <time>2018-12-29T10:43:21Z</time>
      </trkpt>
      <trkpt lat="37.296810" lon="-8.871530">
        <ele>83.295</ele>
        <time>2018-12-29T10:43:24Z</time>
      </trkpt>
      <trkpt lat="37.296853" lon="-8.871365">
        <ele>83.241</ele>
        <time>2018-12-29T10:43:37Z</time>
      </trkpt>
      <trkpt lat="37.296894" lon="-8.871186">
        <ele>82.376</ele>
        <time>2018-12-29T10:43:50Z</time>
      </trkpt>
      <trkpt lat="37.296909" lon="-8.871142">
        <ele>82.392</ele>
        <time>2018-12-29T10:43:53Z</time>
      </trkpt>
      <trkpt lat="37.296969" lon="-8.870920">
        <ele>81.349</ele>
        <time>2018-12-29T10:44:09Z</time>
      </trkpt>
      <trkpt lat="37.296983" lon="-8.870818">
        <ele>81.341</ele>
        <time>2018-12-29T10:44:16Z</time>
      </trkpt>
      <trkpt lat="37.297004" lon="-8.870747">
        <ele>80.881</ele>
        <time>2018-12-29T10:44:21Z</time>
      </trkpt>
      <trkpt lat="37.297015" lon="-8.870721">
        <ele>81.309</ele>
        <time>2018-12-29T10:44:23Z</time>
      </trkpt>
      <trkpt lat="37.297029" lon="-8.870653">
        <ele>81.308</ele>
        <time>2018-12-29T10:44:28Z</time>
      </trkpt>
      <trkpt lat="37.297060" lon="-8.870466">
        <ele>80.887</ele>
        <time>2018-12-29T10:44:41Z</time>
      </trkpt>
      <trkpt lat="37.297077" lon="-8.870254">
        <ele>79.965</ele>
        <time>2018-12-29T10:44:56Z</time>
      </trkpt>
      <trkpt lat="37.297082" lon="-8.870172">
        <ele>80.422</ele>
        <time>2018-12-29T10:45:01Z</time>
      </trkpt>
      <trkpt lat="37.297063" lon="-8.870106">
        <ele>79.997</ele>
        <time>2018-12-29T10:45:06Z</time>
      </trkpt>
      <trkpt lat="37.297073" lon="-8.870081">
        <ele>79.953</ele>
        <time>2018-12-29T10:45:08Z</time>
      </trkpt>
      <trkpt lat="37.297055" lon="-8.869875">
        <ele>79.938</ele>
        <time>2018-12-29T10:45:21Z</time>
      </trkpt>
      <trkpt lat="37.297032" lon="-8.869709">
        <ele>79.434</ele>
        <time>2018-12-29T10:45:32Z</time>
      </trkpt>
      <trkpt lat="37.296992" lon="-8.869481">
        <ele>78.931</ele>
        <time>2018-12-29T10:45:47Z</time>
      </trkpt>
      <trkpt lat="37.296962" lon="-8.869286">
        <ele>78.483</ele>
        <time>2018-12-29T10:46:00Z</time>
      </trkpt>
      <trkpt lat="37.296932" lon="-8.869085">
        <ele>78.025</ele>
        <time>2018-12-29T10:46:14Z</time>
      </trkpt>
      <trkpt lat="37.296904" lon="-8.868926">
        <ele>78.017</ele>
        <time>2018-12-29T10:46:25Z</time>
      </trkpt>
      <trkpt lat="37.296837" lon="-8.868717">
        <ele>77.508</ele>
        <time>2018-12-29T10:46:40Z</time>
      </trkpt>
      <trkpt lat="37.296831" lon="-8.868706">
        <ele>78.041</ele>
        <time>2018-12-29T10:46:41Z</time>
      </trkpt>
      <trkpt lat="37.296786" lon="-8.868532">
        <ele>77.539</ele>
        <time>2018-12-29T10:46:54Z</time>
      </trkpt>
      <trkpt lat="37.296705" lon="-8.868402">
        <ele>78.096</ele>
        <time>2018-12-29T10:47:04Z</time>
      </trkpt>
      <trkpt lat="37.296651" lon="-8.868316">
        <ele>77.531</ele>
        <time>2018-12-29T10:47:11Z</time>
      </trkpt>
      <trkpt lat="37.296628" lon="-8.868279">
        <ele>77.537</ele>
        <time>2018-12-29T10:47:14Z</time>
      </trkpt>
      <trkpt lat="37.296521" lon="-8.868142">
        <ele>78.082</ele>
        <time>2018-12-29T10:47:27Z</time>
      </trkpt>
      <trkpt lat="37.296473" lon="-8.867999">
        <ele>78.448</ele>
        <time>2018-12-29T10:47:37Z</time>
      </trkpt>
      <trkpt lat="37.296521" lon="-8.867799">
        <ele>79.475</ele>
        <time>2018-12-29T10:47:51Z</time>
      </trkpt>
      <trkpt lat="37.296576" lon="-8.867659">
        <ele>80.847</ele>
        <time>2018-12-29T10:48:02Z</time>
      </trkpt>
      <trkpt lat="37.296646" lon="-8.867513">
        <ele>82.329</ele>
        <time>2018-12-29T10:48:13Z</time>
      </trkpt>
      <trkpt lat="37.296693" lon="-8.867334">
        <ele>83.221</ele>
        <time>2018-12-29T10:48:25Z</time>
      </trkpt>
      <trkpt lat="37.296695" lon="-8.867256">
        <ele>83.208</ele>
        <time>2018-12-29T10:48:30Z</time>
      </trkpt>
      <trkpt lat="37.296697" lon="-8.867073">
        <ele>83.277</ele>
        <time>2018-12-29T10:48:42Z</time>
      </trkpt>
      <trkpt lat="37.296676" lon="-8.866890">
        <ele>83.285</ele>
        <time>2018-12-29T10:48:54Z</time>
      </trkpt>
      <trkpt lat="37.296597" lon="-8.866697">
        <ele>82.322</ele>
        <time>2018-12-29T10:49:10Z</time>
      </trkpt>
      <trkpt lat="37.296497" lon="-8.866582">
        <ele>81.347</ele>
        <time>2018-12-29T10:49:21Z</time>
      </trkpt>
      <trkpt lat="37.296483" lon="-8.866562">
        <ele>80.823</ele>
        <time>2018-12-29T10:49:23Z</time>
      </trkpt>
      <trkpt lat="37.296457" lon="-8.866541">
        <ele>80.448</ele>
        <time>2018-12-29T10:49:26Z</time>
      </trkpt>
      <trkpt lat="37.296316" lon="-8.866410">
        <ele>78.044</ele>
        <time>2018-12-29T10:49:40Z</time>
      </trkpt>
      <trkpt lat="37.296178" lon="-8.866278">
        <ele>76.081</ele>
        <time>2018-12-29T10:49:55Z</time>
      </trkpt>
      <trkpt lat="37.296065" lon="-8.866165">
        <ele>74.167</ele>
        <time>2018-12-29T10:50:07Z</time>
      </trkpt>
      <trkpt lat="37.296025" lon="-8.866125">
        <ele>74.181</ele>
        <time>2018-12-29T10:50:11Z</time>
      </trkpt>
      <trkpt lat="37.295998" lon="-8.866102">
        <ele>73.619</ele>
        <time>2018-12-29T10:50:14Z</time>
      </trkpt>
      <trkpt lat="37.295884" lon="-8.865929">
        <ele>72.208</ele>
        <time>2018-12-29T10:50:28Z</time>
      </trkpt>
      <trkpt lat="37.295818" lon="-8.865772">
        <ele>71.269</ele>
        <time>2018-12-29T10:50:39Z</time>
      </trkpt>
      <trkpt lat="37.295811" lon="-8.865747">
        <ele>70.777</ele>
        <time>2018-12-29T10:50:41Z</time>
      </trkpt>
      <trkpt lat="37.295787" lon="-8.865655">
        <ele>70.724</ele>
        <time>2018-12-29T10:50:47Z</time>
      </trkpt>
      <trkpt lat="37.295791" lon="-8.865512">
        <ele>71.729</ele>
        <time>2018-12-29T10:50:56Z</time>
      </trkpt>
      <trkpt lat="37.295816" lon="-8.865367">
        <ele>72.755</ele>
        <time>2018-12-29T10:51:06Z</time>
      </trkpt>
      <trkpt lat="37.295820" lon="-8.865272">
        <ele>73.240</ele>
        <time>2018-12-29T10:51:12Z</time>
      </trkpt>
      <trkpt lat="37.295836" lon="-8.865181">
        <ele>74.146</ele>
        <time>2018-12-29T10:51:18Z</time>
      </trkpt>
      <trkpt lat="37.295852" lon="-8.865081">
        <ele>75.663</ele>
        <time>2018-12-29T10:51:25Z</time>
      </trkpt>
      <trkpt lat="37.295880" lon="-8.864937">
        <ele>76.552</ele>
        <time>2018-12-29T10:51:35Z</time>
      </trkpt>
      <trkpt lat="37.295879" lon="-8.864887">
        <ele>77.053</ele>
        <time>2018-12-29T10:51:38Z</time>
      </trkpt>
      <trkpt lat="37.295914" lon="-8.864743">
        <ele>78.008</ele>
        <time>2018-12-29T10:51:47Z</time>
      </trkpt>
      <trkpt lat="37.295938" lon="-8.864624">
        <ele>78.908</ele>
        <time>2018-12-29T10:51:55Z</time>
      </trkpt>
      <trkpt lat="37.295951" lon="-8.864567">
        <ele>78.958</ele>
        <time>2018-12-29T10:51:59Z</time>
      </trkpt>
      <trkpt lat="37.295987" lon="-8.864480">
        <ele>79.486</ele>
        <time>2018-12-29T10:52:05Z</time>
      </trkpt>
      <trkpt lat="37.295998" lon="-8.864408">
        <ele>79.933</ele>
        <time>2018-12-29T10:52:10Z</time>
      </trkpt>
      <trkpt lat="37.296006" lon="-8.864347">
        <ele>80.828</ele>
        <time>2018-12-29T10:52:14Z</time>
      </trkpt>
      <trkpt lat="37.296006" lon="-8.864318">
        <ele>80.824</ele>
        <time>2018-12-29T10:52:16Z</time>
      </trkpt>
      <trkpt lat="37.296010" lon="-8.864260">
        <ele>81.359</ele>
        <time>2018-12-29T10:52:20Z</time>
      </trkpt>
      <trkpt lat="37.296086" lon="-8.864148">
        <ele>81.385</ele>
        <time>2018-12-29T10:52:32Z</time>
      </trkpt>
      <trkpt lat="37.296070" lon="-8.864117">
        <ele>82.372</ele>
        <time>2018-12-29T10:52:46Z</time>
      </trkpt>
      <trkpt lat="37.296070" lon="-8.864114">
        <ele>82.359</ele>
        <time>2018-12-29T10:53:01Z</time>
      </trkpt>
      <trkpt lat="37.296054" lon="-8.864099">
        <ele>82.303</ele>
        <time>2018-12-29T10:53:03Z</time>
      </trkpt>
      <trkpt lat="37.296034" lon="-8.864083">
        <ele>82.323</ele>
        <time>2018-12-29T10:53:05Z</time>
      </trkpt>
      <trkpt lat="37.296000" lon="-8.864064">
        <ele>82.808</ele>
        <time>2018-12-29T10:53:08Z</time>
      </trkpt>
      <trkpt lat="37.295878" lon="-8.863909">
        <ele>82.368</ele>
        <time>2018-12-29T10:53:20Z</time>
      </trkpt>
      <trkpt lat="37.295811" lon="-8.863797">
        <ele>84.256</ele>
        <time>2018-12-29T10:53:29Z</time>
      </trkpt>
      <trkpt lat="37.295752" lon="-8.863695">
        <ele>84.723</ele>
        <time>2018-12-29T10:53:37Z</time>
      </trkpt>
      <trkpt lat="37.295693" lon="-8.863600">
        <ele>85.278</ele>
        <time>2018-12-29T10:53:45Z</time>
      </trkpt>
      <trkpt lat="37.295656" lon="-8.863543">
        <ele>86.144</ele>
        <time>2018-12-29T10:53:50Z</time>
      </trkpt>
      <trkpt lat="37.295587" lon="-8.863434">
        <ele>86.629</ele>
        <time>2018-12-29T10:53:58Z</time>
      </trkpt>
      <trkpt lat="37.295530" lon="-8.863314">
        <ele>87.155</ele>
        <time>2018-12-29T10:54:07Z</time>
      </trkpt>
      <trkpt lat="37.295513" lon="-8.863271">
        <ele>87.162</ele>
        <time>2018-12-29T10:54:11Z</time>
      </trkpt>
      <trkpt lat="37.295443" lon="-8.863173">
        <ele>88.534</ele>
        <time>2018-12-29T10:54:19Z</time>
      </trkpt>
      <trkpt lat="37.295386" lon="-8.863088">
        <ele>89.055</ele>
        <time>2018-12-29T10:54:25Z</time>
      </trkpt>
      <trkpt lat="37.295358" lon="-8.863046">
        <ele>89.510</ele>
        <time>2018-12-29T10:54:28Z</time>
      </trkpt>
      <trkpt lat="37.295306" lon="-8.862973">
        <ele>90.008</ele>
        <time>2018-12-29T10:54:36Z</time>
      </trkpt>
      <trkpt lat="37.295274" lon="-8.862940">
        <ele>90.936</ele>
        <time>2018-12-29T10:54:40Z</time>
      </trkpt>
      <trkpt lat="37.295215" lon="-8.862878">
        <ele>91.424</ele>
        <time>2018-12-29T10:54:46Z</time>
      </trkpt>
      <trkpt lat="37.295109" lon="-8.862734">
        <ele>92.491</ele>
        <time>2018-12-29T10:54:58Z</time>
      </trkpt>
      <trkpt lat="37.295060" lon="-8.862669">
        <ele>92.486</ele>
        <time>2018-12-29T10:55:03Z</time>
      </trkpt>
      <trkpt lat="37.295026" lon="-8.862566">
        <ele>93.342</ele>
        <time>2018-12-29T10:55:10Z</time>
      </trkpt>
      <trkpt lat="37.295002" lon="-8.862449">
        <ele>94.377</ele>
        <time>2018-12-29T10:55:18Z</time>
      </trkpt>
      <trkpt lat="37.294993" lon="-8.862299">
        <ele>94.843</ele>
        <time>2018-12-29T10:55:28Z</time>
      </trkpt>
      <trkpt lat="37.294975" lon="-8.862210">
        <ele>95.380</ele>
        <time>2018-12-29T10:55:34Z</time>
      </trkpt>
      <trkpt lat="37.294975" lon="-8.862020">
        <ele>96.757</ele>
        <time>2018-12-29T10:55:46Z</time>
      </trkpt>
      <trkpt lat="37.294977" lon="-8.862003">
        <ele>96.700</ele>
        <time>2018-12-29T10:55:47Z</time>
      </trkpt>
      <trkpt lat="37.294987" lon="-8.861940">
        <ele>97.220</ele>
        <time>2018-12-29T10:55:51Z</time>
      </trkpt>
      <trkpt lat="37.294989" lon="-8.861894">
        <ele>97.708</ele>
        <time>2018-12-29T10:55:54Z</time>
      </trkpt>
      <trkpt lat="37.294981" lon="-8.861685">
        <ele>97.748</ele>
        <time>2018-12-29T10:56:08Z</time>
      </trkpt>
      <trkpt lat="37.294924" lon="-8.861495">
        <ele>98.676</ele>
        <time>2018-12-29T10:56:21Z</time>
      </trkpt>
      <trkpt lat="37.294910" lon="-8.861472">
        <ele>98.653</ele>
        <time>2018-12-29T10:56:23Z</time>
      </trkpt>
      <trkpt lat="37.294833" lon="-8.861336">
        <ele>99.128</ele>
        <time>2018-12-29T10:56:34Z</time>
      </trkpt>
      <trkpt lat="37.294742" lon="-8.861242">
        <ele>100.124</ele>
        <time>2018-12-29T10:56:44Z</time>
      </trkpt>
      <trkpt lat="37.294630" lon="-8.861134">
        <ele>100.649</ele>
        <time>2018-12-29T10:56:56Z</time>
      </trkpt>
      <trkpt lat="37.294596" lon="-8.861103">
        <ele>100.695</ele>
        <time>2018-12-29T10:57:07Z</time>
      </trkpt>
      <trkpt lat="37.294596" lon="-8.861103">
        <ele>101.042</ele>
        <time>2018-12-29T10:57:26Z</time>
      </trkpt>
      <trkpt lat="37.294591" lon="-8.861095">
        <ele>100.625</ele>
        <time>2018-12-29T10:57:37Z</time>
      </trkpt>
      <trkpt lat="37.294492" lon="-8.861010">
        <ele>101.026</ele>
        <time>2018-12-29T10:57:47Z</time>
      </trkpt>
      <trkpt lat="37.294457" lon="-8.860982">
        <ele>101.508</ele>
        <time>2018-12-29T10:57:51Z</time>
      </trkpt>
      <trkpt lat="37.294417" lon="-8.860950">
        <ele>101.508</ele>
        <time>2018-12-29T10:57:55Z</time>
      </trkpt>
      <trkpt lat="37.294382" lon="-8.860930">
        <ele>102.545</ele>
        <time>2018-12-29T10:57:59Z</time>
      </trkpt>
      <trkpt lat="37.294355" lon="-8.860901">
        <ele>102.023</ele>
        <time>2018-12-29T10:58:02Z</time>
      </trkpt>
      <trkpt lat="37.294332" lon="-8.860876">
        <ele>102.090</ele>
        <time>2018-12-29T10:58:04Z</time>
      </trkpt>
      <trkpt lat="37.294217" lon="-8.860789">
        <ele>103.095</ele>
        <time>2018-12-29T10:58:15Z</time>
      </trkpt>
      <trkpt lat="37.294173" lon="-8.860755">
        <ele>103.061</ele>
        <time>2018-12-29T10:58:19Z</time>
      </trkpt>
      <trkpt lat="37.294110" lon="-8.860682">
        <ele>103.066</ele>
        <time>2018-12-29T10:58:25Z</time>
      </trkpt>
      <trkpt lat="37.294049" lon="-8.860629">
        <ele>103.412</ele>
        <time>2018-12-29T10:58:31Z</time>
      </trkpt>
      <trkpt lat="37.294010" lon="-8.860594">
        <ele>103.989</ele>
        <time>2018-12-29T10:58:35Z</time>
      </trkpt>
      <trkpt lat="37.293977" lon="-8.860577">
        <ele>103.956</ele>
        <time>2018-12-29T10:58:38Z</time>
      </trkpt>
      <trkpt lat="37.293872" lon="-8.860479">
        <ele>104.459</ele>
        <time>2018-12-29T10:58:47Z</time>
      </trkpt>
      <trkpt lat="37.293840" lon="-8.860441">
        <ele>104.414</ele>
        <time>2018-12-29T10:58:51Z</time>
      </trkpt>
      <trkpt lat="37.293816" lon="-8.860407">
        <ele>104.408</ele>
        <time>2018-12-29T10:58:54Z</time>
      </trkpt>
      <trkpt lat="37.293797" lon="-8.860385">
        <ele>104.448</ele>
        <time>2018-12-29T10:58:56Z</time>
      </trkpt>
      <trkpt lat="37.293704" lon="-8.860301">
        <ele>104.996</ele>
        <time>2018-12-29T10:59:04Z</time>
      </trkpt>
      <trkpt lat="37.293651" lon="-8.860270">
        <ele>104.913</ele>
        <time>2018-12-29T10:59:09Z</time>
      </trkpt>
      <trkpt lat="37.293635" lon="-8.860255">
        <ele>105.418</ele>
        <time>2018-12-29T10:59:11Z</time>
      </trkpt>
      <trkpt lat="37.293520" lon="-8.860129">
        <ele>105.874</ele>
        <time>2018-12-29T10:59:22Z</time>
      </trkpt>
      <trkpt lat="37.293423" lon="-8.860052">
        <ele>105.879</ele>
        <time>2018-12-29T10:59:32Z</time>
      </trkpt>
      <trkpt lat="37.293391" lon="-8.860025">
        <ele>106.375</ele>
        <time>2018-12-29T10:59:36Z</time>
      </trkpt>
      <trkpt lat="37.293253" lon="-8.859882">
        <ele>105.862</ele>
        <time>2018-12-29T10:59:49Z</time>
      </trkpt>
      <trkpt lat="37.293229" lon="-8.859863">
        <ele>105.871</ele>
        <time>2018-12-29T10:59:52Z</time>
      </trkpt>
      <trkpt lat="37.293208" lon="-8.859844">
        <ele>105.841</ele>
        <time>2018-12-29T10:59:54Z</time>
      </trkpt>
      <trkpt lat="37.293115" lon="-8.859701">
        <ele>104.915</ele>
        <time>2018-12-29T11:00:06Z</time>
      </trkpt>
      <trkpt lat="37.293028" lon="-8.859573">
        <ele>104.908</ele>
        <time>2018-12-29T11:00:18Z</time>
      </trkpt>
      <trkpt lat="37.293023" lon="-8.859560">
        <ele>104.990</ele>
        <time>2018-12-29T11:00:19Z</time>
      </trkpt>
      <trkpt lat="37.292896" lon="-8.859405">
        <ele>104.498</ele>
        <time>2018-12-29T11:00:34Z</time>
      </trkpt>
      <trkpt lat="37.292828" lon="-8.859220">
        <ele>104.415</ele>
        <time>2018-12-29T11:00:48Z</time>
      </trkpt>
      <trkpt lat="37.292823" lon="-8.859100">
        <ele>104.990</ele>
        <time>2018-12-29T11:00:55Z</time>
      </trkpt>
      <trkpt lat="37.292825" lon="-8.859012">
        <ele>104.986</ele>
        <time>2018-12-29T11:01:00Z</time>
      </trkpt>
      <trkpt lat="37.292845" lon="-8.858786">
        <ele>106.361</ele>
        <time>2018-12-29T11:01:14Z</time>
      </trkpt>
      <trkpt lat="37.292847" lon="-8.858590">
        <ele>106.827</ele>
        <time>2018-12-29T11:01:26Z</time>
      </trkpt>
      <trkpt lat="37.292861" lon="-8.858388">
        <ele>108.244</ele>
        <time>2018-12-29T11:01:39Z</time>
      </trkpt>
      <trkpt lat="37.292856" lon="-8.858341">
        <ele>108.225</ele>
        <time>2018-12-29T11:01:42Z</time>
      </trkpt>
      <trkpt lat="37.292866" lon="-8.858139">
        <ele>108.726</ele>
        <time>2018-12-29T11:01:55Z</time>
      </trkpt>
      <trkpt lat="37.292868" lon="-8.858124">
        <ele>109.208</ele>
        <time>2018-12-29T11:01:56Z</time>
      </trkpt>
      <trkpt lat="37.292863" lon="-8.857991">
        <ele>109.708</ele>
        <time>2018-12-29T11:02:05Z</time>
      </trkpt>
      <trkpt lat="37.292856" lon="-8.857939">
        <ele>109.725</ele>
        <time>2018-12-29T11:02:09Z</time>
      </trkpt>
      <trkpt lat="37.292854" lon="-8.857893">
        <ele>109.733</ele>
        <time>2018-12-29T11:02:21Z</time>
      </trkpt>
      <trkpt lat="37.292850" lon="-8.857855">
        <ele>109.790</ele>
        <time>2018-12-29T11:02:24Z</time>
      </trkpt>
      <trkpt lat="37.292849" lon="-8.857808">
        <ele>110.275</ele>
        <time>2018-12-29T11:02:27Z</time>
      </trkpt>
      <trkpt lat="37.292826" lon="-8.857697">
        <ele>110.251</ele>
        <time>2018-12-29T11:02:35Z</time>
      </trkpt>
      <trkpt lat="37.292806" lon="-8.857636">
        <ele>110.266</ele>
        <time>2018-12-29T11:02:39Z</time>
      </trkpt>
      <trkpt lat="37.292744" lon="-8.857448">
        <ele>109.712</ele>
        <time>2018-12-29T11:02:52Z</time>
      </trkpt>
      <trkpt lat="37.292727" lon="-8.857376">
        <ele>109.729</ele>
        <time>2018-12-29T11:02:57Z</time>
      </trkpt>
      <trkpt lat="37.292696" lon="-8.857184">
        <ele>109.737</ele>
        <time>2018-12-29T11:03:11Z</time>
      </trkpt>
      <trkpt lat="37.292698" lon="-8.857169">
        <ele>109.749</ele>
        <time>2018-12-29T11:03:12Z</time>
      </trkpt>
      <trkpt lat="37.292648" lon="-8.856932">
        <ele>109.213</ele>
        <time>2018-12-29T11:03:28Z</time>
      </trkpt>
      <trkpt lat="37.292606" lon="-8.856792">
        <ele>109.208</ele>
        <time>2018-12-29T11:03:38Z</time>
      </trkpt>
      <trkpt lat="37.292582" lon="-8.856728">
        <ele>108.756</ele>
        <time>2018-12-29T11:03:43Z</time>
      </trkpt>
      <trkpt lat="37.292526" lon="-8.856556">
        <ele>108.724</ele>
        <time>2018-12-29T11:03:55Z</time>
      </trkpt>
      <trkpt lat="37.292518" lon="-8.856531">
        <ele>108.271</ele>
        <time>2018-12-29T11:03:57Z</time>
      </trkpt>
      <trkpt lat="37.292423" lon="-8.856376">
        <ele>107.886</ele>
        <time>2018-12-29T11:04:10Z</time>
      </trkpt>
      <trkpt lat="37.292416" lon="-8.856366">
        <ele>107.892</ele>
        <time>2018-12-29T11:04:11Z</time>
      </trkpt>
      <trkpt lat="37.292385" lon="-8.856327">
        <ele>107.877</ele>
        <time>2018-12-29T11:04:15Z</time>
      </trkpt>
      <trkpt lat="37.292249" lon="-8.856245">
        <ele>107.373</ele>
        <time>2018-12-29T11:04:27Z</time>
      </trkpt>
      <trkpt lat="37.292203" lon="-8.856254">
        <ele>107.320</ele>
        <time>2018-12-29T11:04:31Z</time>
      </trkpt>
      <trkpt lat="37.292166" lon="-8.856266">
        <ele>107.353</ele>
        <time>2018-12-29T11:04:34Z</time>
      </trkpt>
      <trkpt lat="37.292012" lon="-8.856301">
        <ele>106.304</ele>
        <time>2018-12-29T11:04:47Z</time>
      </trkpt>
      <trkpt lat="37.291991" lon="-8.856307">
        <ele>106.814</ele>
        <time>2018-12-29T11:04:49Z</time>
      </trkpt>
      <trkpt lat="37.291852" lon="-8.856334">
        <ele>106.308</ele>
        <time>2018-12-29T11:05:02Z</time>
      </trkpt>
      <trkpt lat="37.291778" lon="-8.856345">
        <ele>105.868</ele>
        <time>2018-12-29T11:05:08Z</time>
      </trkpt>
      <trkpt lat="37.291710" lon="-8.856351">
        <ele>105.856</ele>
        <time>2018-12-29T11:05:14Z</time>
      </trkpt>
      <trkpt lat="37.291567" lon="-8.856338">
        <ele>105.423</ele>
        <time>2018-12-29T11:05:26Z</time>
      </trkpt>
      <trkpt lat="37.291508" lon="-8.856316">
        <ele>104.968</ele>
        <time>2018-12-29T11:05:31Z</time>
      </trkpt>
      <trkpt lat="37.291345" lon="-8.856224">
        <ele>103.954</ele>
        <time>2018-12-29T11:05:46Z</time>
      </trkpt>
      <trkpt lat="37.291302" lon="-8.856195">
        <ele>103.499</ele>
        <time>2018-12-29T11:05:51Z</time>
      </trkpt>
      <trkpt lat="37.291272" lon="-8.856155">
        <ele>103.455</ele>
        <time>2018-12-29T11:05:55Z</time>
      </trkpt>
      <trkpt lat="37.291161" lon="-8.856024">
        <ele>102.092</ele>
        <time>2018-12-29T11:06:07Z</time>
      </trkpt>
      <trkpt lat="37.291143" lon="-8.856008">
        <ele>101.597</ele>
        <time>2018-12-29T11:06:09Z</time>
      </trkpt>
      <trkpt lat="37.291038" lon="-8.855863">
        <ele>100.623</ele>
        <time>2018-12-29T11:06:23Z</time>
      </trkpt>
      <trkpt lat="37.290939" lon="-8.855725">
        <ele>99.625</ele>
        <time>2018-12-29T11:06:36Z</time>
      </trkpt>
      <trkpt lat="37.290858" lon="-8.855612">
        <ele>98.608</ele>
        <time>2018-12-29T11:06:47Z</time>
      </trkpt>
      <trkpt lat="37.290810" lon="-8.855543">
        <ele>98.192</ele>
        <time>2018-12-29T11:06:52Z</time>
      </trkpt>
      <trkpt lat="37.290734" lon="-8.855439">
        <ele>97.720</ele>
        <time>2018-12-29T11:07:02Z</time>
      </trkpt>
      <trkpt lat="37.290696" lon="-8.855395">
        <ele>97.277</ele>
        <time>2018-12-29T11:07:07Z</time>
      </trkpt>
      <trkpt lat="37.290668" lon="-8.855359">
        <ele>96.752</ele>
        <time>2018-12-29T11:07:11Z</time>
      </trkpt>
      <trkpt lat="37.290554" lon="-8.855216">
        <ele>95.788</ele>
        <time>2018-12-29T11:07:24Z</time>
      </trkpt>
      <trkpt lat="37.290458" lon="-8.855075">
        <ele>94.823</ele>
        <time>2018-12-29T11:07:36Z</time>
      </trkpt>
      <trkpt lat="37.290363" lon="-8.854942">
        <ele>93.379</ele>
        <time>2018-12-29T11:07:48Z</time>
      </trkpt>
      <trkpt lat="37.290267" lon="-8.854809">
        <ele>92.926</ele>
        <time>2018-12-29T11:07:59Z</time>
      </trkpt>
      <trkpt lat="37.290176" lon="-8.854685">
        <ele>91.427</ele>
        <time>2018-12-29T11:08:11Z</time>
      </trkpt>
      <trkpt lat="37.290067" lon="-8.854596">
        <ele>90.568</ele>
        <time>2018-12-29T11:08:23Z</time>
      </trkpt>
      <trkpt lat="37.290032" lon="-8.854567">
        <ele>90.014</ele>
        <time>2018-12-29T11:08:27Z</time>
      </trkpt>
      <trkpt lat="37.289986" lon="-8.854525">
        <ele>90.008</ele>
        <time>2018-12-29T11:08:32Z</time>
      </trkpt>
      <trkpt lat="37.289970" lon="-8.854510">
        <ele>90.075</ele>
        <time>2018-12-29T11:08:34Z</time>
      </trkpt>
      <trkpt lat="37.289911" lon="-8.854461">
        <ele>90.083</ele>
        <time>2018-12-29T11:08:47Z</time>
      </trkpt>
      <trkpt lat="37.289905" lon="-8.854463">
        <ele>90.050</ele>
        <time>2018-12-29T11:08:56Z</time>
      </trkpt>
      <trkpt lat="37.289888" lon="-8.854450">
        <ele>89.535</ele>
        <time>2018-12-29T11:08:58Z</time>
      </trkpt>
      <trkpt lat="37.289856" lon="-8.854390">
        <ele>90.581</ele>
        <time>2018-12-29T11:09:04Z</time>
      </trkpt>
      <trkpt lat="37.289838" lon="-8.854357">
        <ele>90.986</ele>
        <time>2018-12-29T11:09:07Z</time>
      </trkpt>
      <trkpt lat="37.289785" lon="-8.854311">
        <ele>91.442</ele>
        <time>2018-12-29T11:09:12Z</time>
      </trkpt>
      <trkpt lat="37.289711" lon="-8.854253">
        <ele>92.469</ele>
        <time>2018-12-29T11:09:21Z</time>
      </trkpt>
      <trkpt lat="37.289599" lon="-8.854211">
        <ele>93.886</ele>
        <time>2018-12-29T11:09:32Z</time>
      </trkpt>
      <trkpt lat="37.289550" lon="-8.854205">
        <ele>94.860</ele>
        <time>2018-12-29T11:09:37Z</time>
      </trkpt>
      <trkpt lat="37.289471" lon="-8.854168">
        <ele>95.726</ele>
        <time>2018-12-29T11:09:44Z</time>
      </trkpt>
      <trkpt lat="37.289412" lon="-8.854156">
        <ele>97.208</ele>
        <time>2018-12-29T11:09:50Z</time>
      </trkpt>
      <trkpt lat="37.289319" lon="-8.854093">
        <ele>97.781</ele>
        <time>2018-12-29T11:09:59Z</time>
      </trkpt>
      <trkpt lat="37.289293" lon="-8.854077">
        <ele>97.759</ele>
        <time>2018-12-29T11:10:02Z</time>
      </trkpt>
      <trkpt lat="37.289158" lon="-8.853969">
        <ele>98.646</ele>
        <time>2018-12-29T11:10:16Z</time>
      </trkpt>
      <trkpt lat="37.289135" lon="-8.853953">
        <ele>98.151</ele>
        <time>2018-12-29T11:10:18Z</time>
      </trkpt>
      <trkpt lat="37.289093" lon="-8.853922">
        <ele>98.687</ele>
        <time>2018-12-29T11:10:23Z</time>
      </trkpt>
      <trkpt lat="37.289063" lon="-8.853902">
        <ele>99.142</ele>
        <time>2018-12-29T11:10:26Z</time>
      </trkpt>
      <trkpt lat="37.289020" lon="-8.853856">
        <ele>99.648</ele>
        <time>2018-12-29T11:10:30Z</time>
      </trkpt>
      <trkpt lat="37.288951" lon="-8.853799">
        <ele>100.185</ele>
        <time>2018-12-29T11:10:37Z</time>
      </trkpt>
      <trkpt lat="37.288932" lon="-8.853782">
        <ele>100.615</ele>
        <time>2018-12-29T11:10:39Z</time>
      </trkpt>
      <trkpt lat="37.288914" lon="-8.853777">
        <ele>100.665</ele>
        <time>2018-12-29T11:10:41Z</time>
      </trkpt>
      <trkpt lat="37.288872" lon="-8.853752">
        <ele>101.011</ele>
        <time>2018-12-29T11:10:45Z</time>
      </trkpt>
      <trkpt lat="37.288848" lon="-8.853728">
        <ele>101.008</ele>
        <time>2018-12-29T11:10:47Z</time>
      </trkpt>
      <trkpt lat="37.288817" lon="-8.853680">
        <ele>102.064</ele>
        <time>2018-12-29T11:10:51Z</time>
      </trkpt>
      <trkpt lat="37.288727" lon="-8.853555">
        <ele>103.042</ele>
        <time>2018-12-29T11:11:03Z</time>
      </trkpt>
      <trkpt lat="37.288703" lon="-8.853531">
        <ele>103.499</ele>
        <time>2018-12-29T11:11:06Z</time>
      </trkpt>
      <trkpt lat="37.288666" lon="-8.853465">
        <ele>103.984</ele>
        <time>2018-12-29T11:11:11Z</time>
      </trkpt>
      <trkpt lat="37.288644" lon="-8.853419">
        <ele>104.410</ele>
        <time>2018-12-29T11:11:15Z</time>
      </trkpt>
      <trkpt lat="37.288568" lon="-8.853272">
        <ele>104.925</ele>
        <time>2018-12-29T11:11:27Z</time>
      </trkpt>
      <trkpt lat="37.288476" lon="-8.853188">
        <ele>104.911</ele>
        <time>2018-12-29T11:11:37Z</time>
      </trkpt>
      <trkpt lat="37.288386" lon="-8.853121">
        <ele>104.938</ele>
        <time>2018-12-29T11:11:47Z</time>
      </trkpt>
      <trkpt lat="37.288330" lon="-8.853091">
        <ele>104.954</ele>
        <time>2018-12-29T11:11:52Z</time>
      </trkpt>
      <trkpt lat="37.288264" lon="-8.853040">
        <ele>104.956</ele>
        <time>2018-12-29T11:11:58Z</time>
      </trkpt>
      <trkpt lat="37.288232" lon="-8.853003">
        <ele>104.911</ele>
        <time>2018-12-29T11:12:01Z</time>
      </trkpt>
      <trkpt lat="37.288194" lon="-8.852956">
        <ele>105.408</ele>
        <time>2018-12-29T11:12:05Z</time>
      </trkpt>
      <trkpt lat="37.288164" lon="-8.852913">
        <ele>105.468</ele>
        <time>2018-12-29T11:12:09Z</time>
      </trkpt>
      <trkpt lat="37.288058" lon="-8.852781">
        <ele>106.386</ele>
        <time>2018-12-29T11:12:21Z</time>
      </trkpt>
      <trkpt lat="37.287998" lon="-8.852705">
        <ele>106.333</ele>
        <time>2018-12-29T11:12:28Z</time>
      </trkpt>
      <trkpt lat="37.287951" lon="-8.852624">
        <ele>106.838</ele>
        <time>2018-12-29T11:12:35Z</time>
      </trkpt>
      <trkpt lat="37.287906" lon="-8.852563">
        <ele>107.894</ele>
        <time>2018-12-29T11:12:41Z</time>
      </trkpt>
      <trkpt lat="37.287878" lon="-8.852539">
        <ele>107.839</ele>
        <time>2018-12-29T11:12:44Z</time>
      </trkpt>
      <trkpt lat="37.287781" lon="-8.852407">
        <ele>107.885</ele>
        <time>2018-12-29T11:12:55Z</time>
      </trkpt>
      <trkpt lat="37.287699" lon="-8.852271">
        <ele>107.352</ele>
        <time>2018-12-29T11:13:06Z</time>
      </trkpt>
      <trkpt lat="37.287623" lon="-8.852151">
        <ele>107.385</ele>
        <time>2018-12-29T11:13:16Z</time>
      </trkpt>
      <trkpt lat="37.287596" lon="-8.852080">
        <ele>106.889</ele>
        <time>2018-12-29T11:13:21Z</time>
      </trkpt>
      <trkpt lat="37.287537" lon="-8.851969">
        <ele>107.317</ele>
        <time>2018-12-29T11:13:30Z</time>
      </trkpt>
      <trkpt lat="37.287511" lon="-8.851918">
        <ele>106.808</ele>
        <time>2018-12-29T11:13:34Z</time>
      </trkpt>
      <trkpt lat="37.287427" lon="-8.851802">
        <ele>106.381</ele>
        <time>2018-12-29T11:13:44Z</time>
      </trkpt>
      <trkpt lat="37.287331" lon="-8.851666">
        <ele>105.869</ele>
        <time>2018-12-29T11:13:55Z</time>
      </trkpt>
      <trkpt lat="37.287262" lon="-8.851539">
        <ele>105.826</ele>
        <time>2018-12-29T11:14:05Z</time>
      </trkpt>
      <trkpt lat="37.287226" lon="-8.851438">
        <ele>105.821</ele>
        <time>2018-12-29T11:14:13Z</time>
      </trkpt>
      <trkpt lat="37.287133" lon="-8.851226">
        <ele>106.377</ele>
        <time>2018-12-29T11:14:28Z</time>
      </trkpt>
      <trkpt lat="37.287093" lon="-8.851149">
        <ele>106.342</ele>
        <time>2018-12-29T11:14:34Z</time>
      </trkpt>
      <trkpt lat="37.287059" lon="-8.851080">
        <ele>105.858</ele>
        <time>2018-12-29T11:14:39Z</time>
      </trkpt>
      <trkpt lat="37.287022" lon="-8.851009">
        <ele>106.345</ele>
        <time>2018-12-29T11:14:44Z</time>
      </trkpt>
      <trkpt lat="37.287007" lon="-8.850991">
        <ele>105.853</ele>
        <time>2018-12-29T11:14:46Z</time>
      </trkpt>
      <trkpt lat="37.286975" lon="-8.850924">
        <ele>106.304</ele>
        <time>2018-12-29T11:14:51Z</time>
      </trkpt>
      <trkpt lat="37.286931" lon="-8.850871">
        <ele>107.314</ele>
        <time>2018-12-29T11:14:56Z</time>
      </trkpt>
      <trkpt lat="37.286904" lon="-8.850845">
        <ele>107.308</ele>
        <time>2018-12-29T11:14:59Z</time>
      </trkpt>
      <trkpt lat="37.286874" lon="-8.850802">
        <ele>107.818</ele>
        <time>2018-12-29T11:15:03Z</time>
      </trkpt>
      <trkpt lat="37.286817" lon="-8.850764">
        <ele>108.716</ele>
        <time>2018-12-29T11:15:08Z</time>
      </trkpt>
      <trkpt lat="37.286795" lon="-8.850749">
        <ele>109.213</ele>
        <time>2018-12-29T11:15:11Z</time>
      </trkpt>
      <trkpt lat="37.286744" lon="-8.850696">
        <ele>110.248</ele>
        <time>2018-12-29T11:15:16Z</time>
      </trkpt>
      <trkpt lat="37.286722" lon="-8.850675">
        <ele>111.174</ele>
        <time>2018-12-29T11:15:19Z</time>
      </trkpt>
      <trkpt lat="37.286703" lon="-8.850654">
        <ele>111.639</ele>
        <time>2018-12-29T11:15:22Z</time>
      </trkpt>
      <trkpt lat="37.286686" lon="-8.850625">
        <ele>112.185</ele>
        <time>2018-12-29T11:15:24Z</time>
      </trkpt>
      <trkpt lat="37.286661" lon="-8.850595">
        <ele>112.612</ele>
        <time>2018-12-29T11:15:27Z</time>
      </trkpt>
      <trkpt lat="37.286642" lon="-8.850580">
        <ele>112.679</ele>
        <time>2018-12-29T11:15:29Z</time>
      </trkpt>
      <trkpt lat="37.286585" lon="-8.850534">
        <ele>114.005</ele>
        <time>2018-12-29T11:15:35Z</time>
      </trkpt>
      <trkpt lat="37.286458" lon="-8.850453">
        <ele>115.525</ele>
        <time>2018-12-29T11:15:47Z</time>
      </trkpt>
      <trkpt lat="37.286437" lon="-8.850452">
        <ele>115.008</ele>
        <time>2018-12-29T11:15:49Z</time>
      </trkpt>
      <trkpt lat="37.286388" lon="-8.850422">
        <ele>115.980</ele>
        <time>2018-12-29T11:15:53Z</time>
      </trkpt>
      <trkpt lat="37.286272" lon="-8.850369">
        <ele>115.998</ele>
        <time>2018-12-29T11:16:03Z</time>
      </trkpt>
      <trkpt lat="37.286147" lon="-8.850349">
        <ele>116.415</ele>
        <time>2018-12-29T11:16:13Z</time>
      </trkpt>
      <trkpt lat="37.286081" lon="-8.850372">
        <ele>116.410</ele>
        <time>2018-12-29T11:16:18Z</time>
      </trkpt>
      <trkpt lat="37.285976" lon="-8.850464">
        <ele>116.916</ele>
        <time>2018-12-29T11:16:28Z</time>
      </trkpt>
      <trkpt lat="37.285909" lon="-8.850568">
        <ele>117.421</ele>
        <time>2018-12-29T11:16:36Z</time>
      </trkpt>
      <trkpt lat="37.285890" lon="-8.850591">
        <ele>117.917</ele>
        <time>2018-12-29T11:16:38Z</time>
      </trkpt>
      <trkpt lat="37.285868" lon="-8.850637">
        <ele>117.994</ele>
        <time>2018-12-29T11:16:41Z</time>
      </trkpt>
      <trkpt lat="37.285790" lon="-8.850723">
        <ele>119.316</ele>
        <time>2018-12-29T11:16:50Z</time>
      </trkpt>
      <trkpt lat="37.285733" lon="-8.850772">
        <ele>120.376</ele>
        <time>2018-12-29T11:16:56Z</time>
      </trkpt>
      <trkpt lat="37.285705" lon="-8.850803">
        <ele>120.313</ele>
        <time>2018-12-29T11:16:59Z</time>
      </trkpt>
      <trkpt lat="37.285599" lon="-8.850871">
        <ele>121.208</ele>
        <time>2018-12-29T11:17:09Z</time>
      </trkpt>
      <trkpt lat="37.285582" lon="-8.850894">
        <ele>121.244</ele>
        <time>2018-12-29T11:17:11Z</time>
      </trkpt>
      <trkpt lat="37.285532" lon="-8.850930">
        <ele>121.212</ele>
        <time>2018-12-29T11:17:16Z</time>
      </trkpt>
      <trkpt lat="37.285504" lon="-8.851000">
        <ele>121.269</ele>
        <time>2018-12-29T11:17:21Z</time>
      </trkpt>
      <trkpt lat="37.285444" lon="-8.851022">
        <ele>120.784</ele>
        <time>2018-12-29T11:17:26Z</time>
      </trkpt>
      <trkpt lat="37.285405" lon="-8.851039">
        <ele>120.780</ele>
        <time>2018-12-29T11:17:29Z</time>
      </trkpt>
      <trkpt lat="37.285271" lon="-8.851141">
        <ele>120.315</ele>
        <time>2018-12-29T11:17:41Z</time>
      </trkpt>
      <trkpt lat="37.285189" lon="-8.851212">
        <ele>119.871</ele>
        <time>2018-12-29T11:17:49Z</time>
      </trkpt>
      <trkpt lat="37.285078" lon="-8.851279">
        <ele>118.868</ele>
        <time>2018-12-29T11:17:59Z</time>
      </trkpt>
      <trkpt lat="37.284956" lon="-8.851373">
        <ele>118.825</ele>
        <time>2018-12-29T11:18:10Z</time>
      </trkpt>
      <trkpt lat="37.284863" lon="-8.851501">
        <ele>118.326</ele>
        <time>2018-12-29T11:18:21Z</time>
      </trkpt>
      <trkpt lat="37.284796" lon="-8.851593">
        <ele>117.908</ele>
        <time>2018-12-29T11:18:29Z</time>
      </trkpt>
      <trkpt lat="37.284703" lon="-8.851733">
        <ele>117.408</ele>
        <time>2018-12-29T11:18:41Z</time>
      </trkpt>
      <trkpt lat="37.284682" lon="-8.851745">
        <ele>117.475</ele>
        <time>2018-12-29T11:18:43Z</time>
      </trkpt>
      <trkpt lat="37.284576" lon="-8.851801">
        <ele>117.493</ele>
        <time>2018-12-29T11:18:53Z</time>
      </trkpt>
      <trkpt lat="37.284493" lon="-8.851741">
        <ele>117.990</ele>
        <time>2018-12-29T11:19:01Z</time>
      </trkpt>
      <trkpt lat="37.284465" lon="-8.851690">
        <ele>117.465</ele>
        <time>2018-12-29T11:19:05Z</time>
      </trkpt>
      <trkpt lat="37.284459" lon="-8.851660">
        <ele>117.961</ele>
        <time>2018-12-29T11:19:07Z</time>
      </trkpt>
      <trkpt lat="37.284444" lon="-8.851624">
        <ele>117.956</ele>
        <time>2018-12-29T11:19:10Z</time>
      </trkpt>
      <trkpt lat="37.284430" lon="-8.851550">
        <ele>118.312</ele>
        <time>2018-12-29T11:19:15Z</time>
      </trkpt>
      <trkpt lat="37.284402" lon="-8.851456">
        <ele>118.379</ele>
        <time>2018-12-29T11:19:21Z</time>
      </trkpt>
      <trkpt lat="37.284366" lon="-8.851346">
        <ele>119.845</ele>
        <time>2018-12-29T11:19:29Z</time>
      </trkpt>
      <trkpt lat="37.284340" lon="-8.851278">
        <ele>119.847</ele>
        <time>2018-12-29T11:19:34Z</time>
      </trkpt>
      <trkpt lat="37.284307" lon="-8.851127">
        <ele>120.311</ele>
        <time>2018-12-29T11:19:44Z</time>
      </trkpt>
      <trkpt lat="37.284276" lon="-8.851062">
        <ele>120.308</ele>
        <time>2018-12-29T11:19:49Z</time>
      </trkpt>
      <trkpt lat="37.284276" lon="-8.851029">
        <ele>120.777</ele>
        <time>2018-12-29T11:19:51Z</time>
      </trkpt>
      <trkpt lat="37.284262" lon="-8.850987">
        <ele>120.715</ele>
        <time>2018-12-29T11:19:54Z</time>
      </trkpt>
      <trkpt lat="37.284220" lon="-8.850843">
        <ele>121.242</ele>
        <time>2018-12-29T11:20:04Z</time>
      </trkpt>
      <trkpt lat="37.284201" lon="-8.850782">
        <ele>121.277</ele>
        <time>2018-12-29T11:20:09Z</time>
      </trkpt>
      <trkpt lat="37.284201" lon="-8.850756">
        <ele>121.283</ele>
        <time>2018-12-29T11:20:11Z</time>
      </trkpt>
      <trkpt lat="37.284166" lon="-8.850632">
        <ele>121.718</ele>
        <time>2018-12-29T11:20:20Z</time>
      </trkpt>
      <trkpt lat="37.284158" lon="-8.850593">
        <ele>121.714</ele>
        <time>2018-12-29T11:20:23Z</time>
      </trkpt>
      <trkpt lat="37.284115" lon="-8.850441">
        <ele>122.271</ele>
        <time>2018-12-29T11:20:33Z</time>
      </trkpt>
      <trkpt lat="37.284081" lon="-8.850339">
        <ele>121.787</ele>
        <time>2018-12-29T11:20:40Z</time>
      </trkpt>
      <trkpt lat="37.284060" lon="-8.850277">
        <ele>121.742</ele>
        <time>2018-12-29T11:20:44Z</time>
      </trkpt>
      <trkpt lat="37.284042" lon="-8.850232">
        <ele>121.226</ele>
        <time>2018-12-29T11:20:47Z</time>
      </trkpt>
      <trkpt lat="37.284031" lon="-8.850093">
        <ele>121.208</ele>
        <time>2018-12-29T11:20:56Z</time>
      </trkpt>
      <trkpt lat="37.284031" lon="-8.850049">
        <ele>121.231</ele>
        <time>2018-12-29T11:20:59Z</time>
      </trkpt>
      <trkpt lat="37.284019" lon="-8.849860">
        <ele>121.219</ele>
        <time>2018-12-29T11:21:11Z</time>
      </trkpt>
      <trkpt lat="37.284010" lon="-8.849829">
        <ele>121.256</ele>
        <time>2018-12-29T11:21:13Z</time>
      </trkpt>
      <trkpt lat="37.284011" lon="-8.849765">
        <ele>121.291</ele>
        <time>2018-12-29T11:21:17Z</time>
      </trkpt>
      <trkpt lat="37.284017" lon="-8.849733">
        <ele>121.267</ele>
        <time>2018-12-29T11:21:19Z</time>
      </trkpt>
      <trkpt lat="37.284013" lon="-8.849687">
        <ele>121.252</ele>
        <time>2018-12-29T11:21:22Z</time>
      </trkpt>
      <trkpt lat="37.284015" lon="-8.849610">
        <ele>121.758</ele>
        <time>2018-12-29T11:21:27Z</time>
      </trkpt>
      <trkpt lat="37.284019" lon="-8.849548">
        <ele>121.215</ele>
        <time>2018-12-29T11:21:31Z</time>
      </trkpt>
      <trkpt lat="37.284017" lon="-8.849488">
        <ele>121.284</ele>
        <time>2018-12-29T11:21:35Z</time>
      </trkpt>
      <trkpt lat="37.284012" lon="-8.849443">
        <ele>121.707</ele>
        <time>2018-12-29T11:21:38Z</time>
      </trkpt>
      <trkpt lat="37.284011" lon="-8.849326">
        <ele>121.217</ele>
        <time>2018-12-29T11:21:46Z</time>
      </trkpt>
      <trkpt lat="37.284009" lon="-8.849230">
        <ele>121.208</ele>
        <time>2018-12-29T11:21:52Z</time>
      </trkpt>
      <trkpt lat="37.284010" lon="-8.849182">
        <ele>121.291</ele>
        <time>2018-12-29T11:21:55Z</time>
      </trkpt>
      <trkpt lat="37.283995" lon="-8.848999">
        <ele>120.779</ele>
        <time>2018-12-29T11:22:07Z</time>
      </trkpt>
      <trkpt lat="37.283984" lon="-8.848886">
        <ele>121.296</ele>
        <time>2018-12-29T11:22:14Z</time>
      </trkpt>
      <trkpt lat="37.283974" lon="-8.848812">
        <ele>121.291</ele>
        <time>2018-12-29T11:22:19Z</time>
      </trkpt>
      <trkpt lat="37.283969" lon="-8.848651">
        <ele>120.797</ele>
        <time>2018-12-29T11:22:29Z</time>
      </trkpt>
      <trkpt lat="37.283963" lon="-8.848548">
        <ele>120.782</ele>
        <time>2018-12-29T11:22:36Z</time>
      </trkpt>
      <trkpt lat="37.283958" lon="-8.848502">
        <ele>121.258</ele>
        <time>2018-12-29T11:22:39Z</time>
      </trkpt>
      <trkpt lat="37.283926" lon="-8.848336">
        <ele>120.755</ele>
        <time>2018-12-29T11:22:50Z</time>
      </trkpt>
      <trkpt lat="37.283915" lon="-8.848221">
        <ele>120.378</ele>
        <time>2018-12-29T11:22:57Z</time>
      </trkpt>
      <trkpt lat="37.283904" lon="-8.848179">
        <ele>120.333</ele>
        <time>2018-12-29T11:23:00Z</time>
      </trkpt>
      <trkpt lat="37.283902" lon="-8.848135">
        <ele>119.826</ele>
        <time>2018-12-29T11:23:03Z</time>
      </trkpt>
      <trkpt lat="37.283897" lon="-8.848056">
        <ele>119.808</ele>
        <time>2018-12-29T11:23:08Z</time>
      </trkpt>
      <trkpt lat="37.283894" lon="-8.848016">
        <ele>119.390</ele>
        <time>2018-12-29T11:23:11Z</time>
      </trkpt>
      <trkpt lat="37.283897" lon="-8.847950">
        <ele>119.388</ele>
        <time>2018-12-29T11:23:15Z</time>
      </trkpt>
      <trkpt lat="37.283889" lon="-8.847901">
        <ele>119.885</ele>
        <time>2018-12-29T11:23:18Z</time>
      </trkpt>
      <trkpt lat="37.283880" lon="-8.847842">
        <ele>119.320</ele>
        <time>2018-12-29T11:23:22Z</time>
      </trkpt>
      <trkpt lat="37.283886" lon="-8.847757">
        <ele>119.396</ele>
        <time>2018-12-29T11:23:27Z</time>
      </trkpt>
      <trkpt lat="37.283889" lon="-8.847726">
        <ele>119.351</ele>
        <time>2018-12-29T11:23:29Z</time>
      </trkpt>
      <trkpt lat="37.283903" lon="-8.847539">
        <ele>119.837</ele>
        <time>2018-12-29T11:23:41Z</time>
      </trkpt>
      <trkpt lat="37.283916" lon="-8.847414">
        <ele>119.864</ele>
        <time>2018-12-29T11:23:49Z</time>
      </trkpt>
      <trkpt lat="37.283916" lon="-8.847383">
        <ele>119.898</ele>
        <time>2018-12-29T11:23:51Z</time>
      </trkpt>
      <trkpt lat="37.283918" lon="-8.847274">
        <ele>120.315</ele>
        <time>2018-12-29T11:23:58Z</time>
      </trkpt>
      <trkpt lat="37.283919" lon="-8.847199">
        <ele>120.326</ele>
        <time>2018-12-29T11:24:03Z</time>
      </trkpt>
      <trkpt lat="37.283924" lon="-8.847123">
        <ele>120.708</ele>
        <time>2018-12-29T11:24:08Z</time>
      </trkpt>
      <trkpt lat="37.283934" lon="-8.846988">
        <ele>120.782</ele>
        <time>2018-12-29T11:24:17Z</time>
      </trkpt>
      <trkpt lat="37.283944" lon="-8.846892">
        <ele>120.760</ele>
        <time>2018-12-29T11:24:23Z</time>
      </trkpt>
      <trkpt lat="37.283965" lon="-8.846754">
        <ele>120.327</ele>
        <time>2018-12-29T11:24:32Z</time>
      </trkpt>
      <trkpt lat="37.283970" lon="-8.846726">
        <ele>120.772</ele>
        <time>2018-12-29T11:24:34Z</time>
      </trkpt>
      <trkpt lat="37.283981" lon="-8.846681">
        <ele>120.358</ele>
        <time>2018-12-29T11:24:37Z</time>
      </trkpt>
      <trkpt lat="37.283997" lon="-8.846588">
        <ele>120.343</ele>
        <time>2018-12-29T11:24:43Z</time>
      </trkpt>
      <trkpt lat="37.284045" lon="-8.846409">
        <ele>119.889</ele>
        <time>2018-12-29T11:24:55Z</time>
      </trkpt>
      <trkpt lat="37.284055" lon="-8.846321">
        <ele>119.886</ele>
        <time>2018-12-29T11:25:01Z</time>
      </trkpt>
      <trkpt lat="37.284074" lon="-8.846273">
        <ele>119.398</ele>
        <time>2018-12-29T11:25:04Z</time>
      </trkpt>
      <trkpt lat="37.284099" lon="-8.846171">
        <ele>118.815</ele>
        <time>2018-12-29T11:25:11Z</time>
      </trkpt>
      <trkpt lat="37.284122" lon="-8.846090">
        <ele>119.326</ele>
        <time>2018-12-29T11:25:16Z</time>
      </trkpt>
      <trkpt lat="37.284141" lon="-8.845987">
        <ele>119.308</ele>
        <time>2018-12-29T11:25:23Z</time>
      </trkpt>
      <trkpt lat="37.284155" lon="-8.845925">
        <ele>119.822</ele>
        <time>2018-12-29T11:25:27Z</time>
      </trkpt>
      <trkpt lat="37.284148" lon="-8.845761">
        <ele>118.890</ele>
        <time>2018-12-29T11:25:38Z</time>
      </trkpt>
      <trkpt lat="37.284089" lon="-8.845607">
        <ele>118.887</ele>
        <time>2018-12-29T11:25:49Z</time>
      </trkpt>
      <trkpt lat="37.284067" lon="-8.845548">
        <ele>118.892</ele>
        <time>2018-12-29T11:25:53Z</time>
      </trkpt>
      <trkpt lat="37.284066" lon="-8.845517">
        <ele>118.888</ele>
        <time>2018-12-29T11:25:55Z</time>
      </trkpt>
      <trkpt lat="37.284030" lon="-8.845338">
        <ele>118.833</ele>
        <time>2018-12-29T11:26:07Z</time>
      </trkpt>
      <trkpt lat="37.284035" lon="-8.845260">
        <ele>118.349</ele>
        <time>2018-12-29T11:26:12Z</time>
      </trkpt>
      <trkpt lat="37.284032" lon="-8.845229">
        <ele>118.346</ele>
        <time>2018-12-29T11:26:14Z</time>
      </trkpt>
      <trkpt lat="37.284034" lon="-8.845100">
        <ele>117.931</ele>
        <time>2018-12-29T11:26:22Z</time>
      </trkpt>
      <trkpt lat="37.284028" lon="-8.845021">
        <ele>118.361</ele>
        <time>2018-12-29T11:26:27Z</time>
      </trkpt>
      <trkpt lat="37.283996" lon="-8.844901">
        <ele>117.907</ele>
        <time>2018-12-29T11:26:35Z</time>
      </trkpt>
      <trkpt lat="37.283859" lon="-8.844707">
        <ele>117.408</ele>
        <time>2018-12-29T11:26:51Z</time>
      </trkpt>
      <trkpt lat="37.283824" lon="-8.844668">
        <ele>117.466</ele>
        <time>2018-12-29T11:26:55Z</time>
      </trkpt>
      <trkpt lat="37.283808" lon="-8.844637">
        <ele>116.984</ele>
        <time>2018-12-29T11:26:58Z</time>
      </trkpt>
      <trkpt lat="37.283777" lon="-8.844591">
        <ele>117.481</ele>
        <time>2018-12-29T11:27:02Z</time>
      </trkpt>
      <trkpt lat="37.283735" lon="-8.844533">
        <ele>116.916</ele>
        <time>2018-12-29T11:27:07Z</time>
      </trkpt>
      <trkpt lat="37.283673" lon="-8.844439">
        <ele>117.442</ele>
        <time>2018-12-29T11:27:15Z</time>
      </trkpt>
      <trkpt lat="37.283579" lon="-8.844288">
        <ele>117.997</ele>
        <time>2018-12-29T11:27:27Z</time>
      </trkpt>
      <trkpt lat="37.283513" lon="-8.844162">
        <ele>118.343</ele>
        <time>2018-12-29T11:27:37Z</time>
      </trkpt>
      <trkpt lat="37.283457" lon="-8.844048">
        <ele>118.320</ele>
        <time>2018-12-29T11:27:46Z</time>
      </trkpt>
      <trkpt lat="37.283379" lon="-8.843899">
        <ele>118.314</ele>
        <time>2018-12-29T11:27:58Z</time>
      </trkpt>
      <trkpt lat="37.283297" lon="-8.843811">
        <ele>118.354</ele>
        <time>2018-12-29T11:28:07Z</time>
      </trkpt>
      <trkpt lat="37.283255" lon="-8.843787">
        <ele>118.309</ele>
        <time>2018-12-29T11:28:11Z</time>
      </trkpt>
      <trkpt lat="37.283128" lon="-8.843685">
        <ele>118.808</ele>
        <time>2018-12-29T11:28:22Z</time>
      </trkpt>
      <trkpt lat="37.283012" lon="-8.843579">
        <ele>119.894</ele>
        <time>2018-12-29T11:28:33Z</time>
      </trkpt>
      <trkpt lat="37.282927" lon="-8.843507">
        <ele>120.382</ele>
        <time>2018-12-29T11:28:42Z</time>
      </trkpt>
      <trkpt lat="37.282841" lon="-8.843419">
        <ele>121.259</ele>
        <time>2018-12-29T11:28:51Z</time>
      </trkpt>
      <trkpt lat="37.282770" lon="-8.843361">
        <ele>122.274</ele>
        <time>2018-12-29T11:28:59Z</time>
      </trkpt>
      <trkpt lat="37.282724" lon="-8.843328">
        <ele>122.210</ele>
        <time>2018-12-29T11:29:04Z</time>
      </trkpt>
      <trkpt lat="37.282652" lon="-8.843220">
        <ele>123.155</ele>
        <time>2018-12-29T11:29:13Z</time>
      </trkpt>
      <trkpt lat="37.282558" lon="-8.843103">
        <ele>122.761</ele>
        <time>2018-12-29T11:29:23Z</time>
      </trkpt>
      <trkpt lat="37.282458" lon="-8.842942">
        <ele>123.158</ele>
        <time>2018-12-29T11:29:35Z</time>
      </trkpt>
      <trkpt lat="37.282422" lon="-8.842879">
        <ele>122.747</ele>
        <time>2018-12-29T11:29:41Z</time>
      </trkpt>
      <trkpt lat="37.282343" lon="-8.842778">
        <ele>121.729</ele>
        <time>2018-12-29T11:29:51Z</time>
      </trkpt>
      <trkpt lat="37.282297" lon="-8.842714">
        <ele>120.721</ele>
        <time>2018-12-29T11:29:57Z</time>
      </trkpt>
      <trkpt lat="37.282265" lon="-8.842678">
        <ele>120.708</ele>
        <time>2018-12-29T11:30:01Z</time>
      </trkpt>
      <trkpt lat="37.282229" lon="-8.842640">
        <ele>120.397</ele>
        <time>2018-12-29T11:30:13Z</time>
      </trkpt>
      <trkpt lat="37.282212" lon="-8.842615">
        <ele>119.825</ele>
        <time>2018-12-29T11:30:15Z</time>
      </trkpt>
      <trkpt lat="37.282173" lon="-8.842575">
        <ele>119.332</ele>
        <time>2018-12-29T11:30:19Z</time>
      </trkpt>
      <trkpt lat="37.282068" lon="-8.842429">
        <ele>117.457</ele>
        <time>2018-12-29T11:30:32Z</time>
      </trkpt>
      <trkpt lat="37.281985" lon="-8.842313">
        <ele>116.993</ele>
        <time>2018-12-29T11:30:41Z</time>
      </trkpt>
      <trkpt lat="37.281966" lon="-8.842283">
        <ele>116.958</ele>
        <time>2018-12-29T11:30:44Z</time>
      </trkpt>
      <trkpt lat="37.281907" lon="-8.842200">
        <ele>116.424</ele>
        <time>2018-12-29T11:30:52Z</time>
      </trkpt>
      <trkpt lat="37.281842" lon="-8.842105">
        <ele>116.491</ele>
        <time>2018-12-29T11:31:01Z</time>
      </trkpt>
      <trkpt lat="37.281796" lon="-8.842029">
        <ele>116.467</ele>
        <time>2018-12-29T11:31:08Z</time>
      </trkpt>
      <trkpt lat="37.281762" lon="-8.841984">
        <ele>116.481</ele>
        <time>2018-12-29T11:31:12Z</time>
      </trkpt>
      <trkpt lat="37.281734" lon="-8.841958">
        <ele>116.419</ele>
        <time>2018-12-29T11:31:15Z</time>
      </trkpt>
      <trkpt lat="37.281704" lon="-8.841909">
        <ele>116.408</ele>
        <time>2018-12-29T11:31:19Z</time>
      </trkpt>
      <trkpt lat="37.281624" lon="-8.841814">
        <ele>116.949</ele>
        <time>2018-12-29T11:31:28Z</time>
      </trkpt>
      <trkpt lat="37.281612" lon="-8.841774">
        <ele>116.917</ele>
        <time>2018-12-29T11:31:31Z</time>
      </trkpt>
      <trkpt lat="37.281566" lon="-8.841712">
        <ele>117.484</ele>
        <time>2018-12-29T11:31:37Z</time>
      </trkpt>
      <trkpt lat="37.281535" lon="-8.841663">
        <ele>117.439</ele>
        <time>2018-12-29T11:31:41Z</time>
      </trkpt>
      <trkpt lat="37.281500" lon="-8.841594">
        <ele>117.495</ele>
        <time>2018-12-29T11:31:47Z</time>
      </trkpt>
      <trkpt lat="37.281443" lon="-8.841501">
        <ele>117.480</ele>
        <time>2018-12-29T11:31:55Z</time>
      </trkpt>
      <trkpt lat="37.281382" lon="-8.841383">
        <ele>117.416</ele>
        <time>2018-12-29T11:32:04Z</time>
      </trkpt>
      <trkpt lat="37.281318" lon="-8.841235">
        <ele>117.423</ele>
        <time>2018-12-29T11:32:16Z</time>
      </trkpt>
      <trkpt lat="37.281315" lon="-8.841223">
        <ele>116.941</ele>
        <time>2018-12-29T11:32:17Z</time>
      </trkpt>
      <trkpt lat="37.281317" lon="-8.841134">
        <ele>116.981</ele>
        <time>2018-12-29T11:32:23Z</time>
      </trkpt>
      <trkpt lat="37.281303" lon="-8.841105">
        <ele>117.409</ele>
        <time>2018-12-29T11:32:25Z</time>
      </trkpt>
      <trkpt lat="37.281297" lon="-8.841075">
        <ele>117.408</ele>
        <time>2018-12-29T11:32:27Z</time>
      </trkpt>
      <trkpt lat="37.281292" lon="-8.840992">
        <ele>117.487</ele>
        <time>2018-12-29T11:32:33Z</time>
      </trkpt>
      <trkpt lat="37.281302" lon="-8.840934">
        <ele>117.495</ele>
        <time>2018-12-29T11:32:37Z</time>
      </trkpt>
      <trkpt lat="37.281302" lon="-8.840767">
        <ele>116.982</ele>
        <time>2018-12-29T11:32:48Z</time>
      </trkpt>
      <trkpt lat="37.281300" lon="-8.840754">
        <ele>116.997</ele>
        <time>2018-12-29T11:32:49Z</time>
      </trkpt>
      <trkpt lat="37.281292" lon="-8.840694">
        <ele>116.413</ele>
        <time>2018-12-29T11:32:53Z</time>
      </trkpt>
      <trkpt lat="37.281290" lon="-8.840609">
        <ele>116.498</ele>
        <time>2018-12-29T11:32:59Z</time>
      </trkpt>
      <trkpt lat="37.281251" lon="-8.840496">
        <ele>115.944</ele>
        <time>2018-12-29T11:33:07Z</time>
      </trkpt>
      <trkpt lat="37.281217" lon="-8.840450">
        <ele>115.921</ele>
        <time>2018-12-29T11:33:11Z</time>
      </trkpt>
      <trkpt lat="37.281120" lon="-8.840372">
        <ele>115.537</ele>
        <time>2018-12-29T11:33:25Z</time>
      </trkpt>
      <trkpt lat="37.281051" lon="-8.840296">
        <ele>115.949</ele>
        <time>2018-12-29T11:33:37Z</time>
      </trkpt>
      <trkpt lat="37.280965" lon="-8.840222">
        <ele>116.913</ele>
        <time>2018-12-29T11:33:47Z</time>
      </trkpt>
      <trkpt lat="37.280939" lon="-8.840191">
        <ele>117.408</ele>
        <time>2018-12-29T11:33:51Z</time>
      </trkpt>
      <trkpt lat="37.280905" lon="-8.840167">
        <ele>117.956</ele>
        <time>2018-12-29T11:33:55Z</time>
      </trkpt>
      <trkpt lat="37.280789" lon="-8.840051">
        <ele>118.384</ele>
        <time>2018-12-29T11:34:09Z</time>
      </trkpt>
      <trkpt lat="37.280723" lon="-8.839997">
        <ele>118.891</ele>
        <time>2018-12-29T11:34:21Z</time>
      </trkpt>
      <trkpt lat="37.280681" lon="-8.839972">
        <ele>118.836</ele>
        <time>2018-12-29T11:34:25Z</time>
      </trkpt>
      <trkpt lat="37.280645" lon="-8.839939">
        <ele>119.352</ele>
        <time>2018-12-29T11:34:29Z</time>
      </trkpt>
      <trkpt lat="37.280546" lon="-8.839857">
        <ele>119.337</ele>
        <time>2018-12-29T11:34:39Z</time>
      </trkpt>
      <trkpt lat="37.280513" lon="-8.839820">
        <ele>120.363</ele>
        <time>2018-12-29T11:34:43Z</time>
      </trkpt>
      <trkpt lat="37.280481" lon="-8.839737">
        <ele>120.340</ele>
        <time>2018-12-29T11:34:50Z</time>
      </trkpt>
      <trkpt lat="37.280588" lon="-8.839653">
        <ele>120.344</ele>
        <time>2018-12-29T11:35:02Z</time>
      </trkpt>
      <trkpt lat="37.280756" lon="-8.839605">
        <ele>119.305</ele>
        <time>2018-12-29T11:35:18Z</time>
      </trkpt>
      <trkpt lat="37.280918" lon="-8.839550">
        <ele>117.915</ele>
        <time>2018-12-29T11:35:32Z</time>
      </trkpt>
      <trkpt lat="37.281065" lon="-8.839493">
        <ele>116.408</ele>
        <time>2018-12-29T11:35:45Z</time>
      </trkpt>
      <trkpt lat="37.281219" lon="-8.839419">
        <ele>115.067</ele>
        <time>2018-12-29T11:35:59Z</time>
      </trkpt>
      <trkpt lat="37.281392" lon="-8.839316">
        <ele>113.525</ele>
        <time>2018-12-29T11:36:15Z</time>
      </trkpt>
      <trkpt lat="37.281564" lon="-8.839239">
        <ele>113.062</ele>
        <time>2018-12-29T11:36:30Z</time>
      </trkpt>
      <trkpt lat="37.281629" lon="-8.839220">
        <ele>113.057</ele>
        <time>2018-12-29T11:36:36Z</time>
      </trkpt>
      <trkpt lat="37.281796" lon="-8.839225">
        <ele>113.593</ele>
        <time>2018-12-29T11:36:51Z</time>
      </trkpt>
      <trkpt lat="37.281892" lon="-8.839240">
        <ele>113.598</ele>
        <time>2018-12-29T11:36:59Z</time>
      </trkpt>
      <trkpt lat="37.281973" lon="-8.839249">
        <ele>114.064</ele>
        <time>2018-12-29T11:37:07Z</time>
      </trkpt>
      <trkpt lat="37.282008" lon="-8.839256">
        <ele>114.021</ele>
        <time>2018-12-29T11:37:10Z</time>
      </trkpt>
      <trkpt lat="37.282052" lon="-8.839263">
        <ele>114.055</ele>
        <time>2018-12-29T11:37:14Z</time>
      </trkpt>
      <trkpt lat="37.282086" lon="-8.839271">
        <ele>114.507</ele>
        <time>2018-12-29T11:37:17Z</time>
      </trkpt>
      <trkpt lat="37.282238" lon="-8.839305">
        <ele>115.517</ele>
        <time>2018-12-29T11:37:30Z</time>
      </trkpt>
      <trkpt lat="37.282388" lon="-8.839309">
        <ele>116.408</ele>
        <time>2018-12-29T11:37:43Z</time>
      </trkpt>
      <trkpt lat="37.282519" lon="-8.839305">
        <ele>117.428</ele>
        <time>2018-12-29T11:37:54Z</time>
      </trkpt>
      <trkpt lat="37.282583" lon="-8.839288">
        <ele>117.436</ele>
        <time>2018-12-29T11:38:00Z</time>
      </trkpt>
      <trkpt lat="37.282635" lon="-8.839267">
        <ele>117.943</ele>
        <time>2018-12-29T11:38:05Z</time>
      </trkpt>
      <trkpt lat="37.282788" lon="-8.839189">
        <ele>119.398</ele>
        <time>2018-12-29T11:38:19Z</time>
      </trkpt>
      <trkpt lat="37.282855" lon="-8.839151">
        <ele>119.864</ele>
        <time>2018-12-29T11:38:25Z</time>
      </trkpt>
      <trkpt lat="37.282993" lon="-8.839057">
        <ele>120.729</ele>
        <time>2018-12-29T11:38:38Z</time>
      </trkpt>
      <trkpt lat="37.283120" lon="-8.838968">
        <ele>121.285</ele>
        <time>2018-12-29T11:38:51Z</time>
      </trkpt>
      <trkpt lat="37.283175" lon="-8.838930">
        <ele>122.242</ele>
        <time>2018-12-29T11:38:57Z</time>
      </trkpt>
      <trkpt lat="37.283301" lon="-8.838845">
        <ele>122.722</ele>
        <time>2018-12-29T11:39:09Z</time>
      </trkpt>
      <trkpt lat="37.283434" lon="-8.838714">
        <ele>121.762</ele>
        <time>2018-12-29T11:39:24Z</time>
      </trkpt>
      <trkpt lat="37.283574" lon="-8.838558">
        <ele>118.808</ele>
        <time>2018-12-29T11:39:41Z</time>
      </trkpt>
      <trkpt lat="37.283695" lon="-8.838413">
        <ele>116.908</ele>
        <time>2018-12-29T11:39:56Z</time>
      </trkpt>
      <trkpt lat="37.283839" lon="-8.838266">
        <ele>114.575</ele>
        <time>2018-12-29T11:40:12Z</time>
      </trkpt>
      <trkpt lat="37.283950" lon="-8.838106">
        <ele>112.153</ele>
        <time>2018-12-29T11:40:26Z</time>
      </trkpt>
      <trkpt lat="37.284079" lon="-8.837942">
        <ele>110.240</ele>
        <time>2018-12-29T11:40:42Z</time>
      </trkpt>
      <trkpt lat="37.284200" lon="-8.837774">
        <ele>107.825</ele>
        <time>2018-12-29T11:40:58Z</time>
      </trkpt>
      <trkpt lat="37.284323" lon="-8.837648">
        <ele>106.821</ele>
        <time>2018-12-29T11:41:13Z</time>
      </trkpt>
      <trkpt lat="37.284458" lon="-8.837713">
        <ele>105.896</ele>
        <time>2018-12-29T11:41:26Z</time>
      </trkpt>
      <trkpt lat="37.284553" lon="-8.837859">
        <ele>105.452</ele>
        <time>2018-12-29T11:41:40Z</time>
      </trkpt>
      <trkpt lat="37.284549" lon="-8.837890">
        <ele>105.419</ele>
        <time>2018-12-29T11:41:43Z</time>
      </trkpt>
      <trkpt lat="37.284539" lon="-8.837946">
        <ele>105.828</ele>
        <time>2018-12-29T11:41:49Z</time>
      </trkpt>
      <trkpt lat="37.284578" lon="-8.837860">
        <ele>104.989</ele>
        <time>2018-12-29T11:41:56Z</time>
      </trkpt>
      <trkpt lat="37.284649" lon="-8.837903">
        <ele>106.817</ele>
        <time>2018-12-29T11:42:05Z</time>
      </trkpt>
      <trkpt lat="37.284663" lon="-8.837941">
        <ele>106.808</ele>
        <time>2018-12-29T11:42:08Z</time>
      </trkpt>
      <trkpt lat="37.284655" lon="-8.837994">
        <ele>105.475</ele>
        <time>2018-12-29T11:42:12Z</time>
      </trkpt>
      <trkpt lat="37.284669" lon="-8.838036">
        <ele>105.443</ele>
        <time>2018-12-29T11:42:15Z</time>
      </trkpt>
      <trkpt lat="37.284711" lon="-8.838139">
        <ele>105.850</ele>
        <time>2018-12-29T11:42:23Z</time>
      </trkpt>
      <trkpt lat="37.284802" lon="-8.838248">
        <ele>107.355</ele>
        <time>2018-12-29T11:42:35Z</time>
      </trkpt>
      <trkpt lat="37.284797" lon="-8.838258">
        <ele>106.821</ele>
        <time>2018-12-29T11:42:50Z</time>
      </trkpt>
      <trkpt lat="37.284797" lon="-8.838258">
        <ele>107.346</ele>
        <time>2018-12-29T11:43:15Z</time>
      </trkpt>
      <trkpt lat="37.284797" lon="-8.838256">
        <ele>106.812</ele>
        <time>2018-12-29T11:43:40Z</time>
      </trkpt>
      <trkpt lat="37.284797" lon="-8.838256">
        <ele>106.879</ele>
        <time>2018-12-29T11:44:05Z</time>
      </trkpt>
      <trkpt lat="37.284798" lon="-8.838255">
        <ele>106.314</ele>
        <time>2018-12-29T11:44:33Z</time>
      </trkpt>
      <trkpt lat="37.284799" lon="-8.838258">
        <ele>106.354</ele>
        <time>2018-12-29T11:44:59Z</time>
      </trkpt>
      <trkpt lat="37.284773" lon="-8.838254">
        <ele>106.309</ele>
        <time>2018-12-29T11:45:10Z</time>
      </trkpt>
      <trkpt lat="37.284784" lon="-8.838270">
        <ele>106.308</ele>
        <time>2018-12-29T11:45:34Z</time>
      </trkpt>
      <trkpt lat="37.284821" lon="-8.838295">
        <ele>106.814</ele>
        <time>2018-12-29T11:45:45Z</time>
      </trkpt>
      <trkpt lat="37.284823" lon="-8.838282">
        <ele>106.822</ele>
        <time>2018-12-29T11:45:56Z</time>
      </trkpt>
      <trkpt lat="37.284823" lon="-8.838279">
        <ele>106.359</ele>
        <time>2018-12-29T11:46:13Z</time>
      </trkpt>
      <trkpt lat="37.284820" lon="-8.838279">
        <ele>106.324</ele>
        <time>2018-12-29T11:46:33Z</time>
      </trkpt>
      <trkpt lat="37.284820" lon="-8.838279">
        <ele>105.890</ele>
        <time>2018-12-29T11:47:01Z</time>
      </trkpt>
      <trkpt lat="37.284820" lon="-8.838282">
        <ele>105.835</ele>
        <time>2018-12-29T11:47:28Z</time>
      </trkpt>
      <trkpt lat="37.284821" lon="-8.838284">
        <ele>105.861</ele>
        <time>2018-12-29T11:47:49Z</time>
      </trkpt>
      <trkpt lat="37.284814" lon="-8.838281">
        <ele>105.828</ele>
        <time>2018-12-29T11:48:05Z</time>
      </trkpt>
      <trkpt lat="37.284811" lon="-8.838279">
        <ele>105.475</ele>
        <time>2018-12-29T11:48:31Z</time>
      </trkpt>
      <trkpt lat="37.284798" lon="-8.838271">
        <ele>104.928</ele>
        <time>2018-12-29T11:48:46Z</time>
      </trkpt>
      <trkpt lat="37.284798" lon="-8.838271">
        <ele>104.420</ele>
        <time>2018-12-29T11:49:04Z</time>
      </trkpt>
      <trkpt lat="37.284854" lon="-8.838303">
        <ele>105.408</ele>
        <time>2018-12-29T11:49:10Z</time>
      </trkpt>
      <trkpt lat="37.284870" lon="-8.838314">
        <ele>105.480</ele>
        <time>2018-12-29T11:49:12Z</time>
      </trkpt>
      <trkpt lat="37.284898" lon="-8.838330">
        <ele>105.458</ele>
        <time>2018-12-29T11:49:15Z</time>
      </trkpt>
      <trkpt lat="37.284915" lon="-8.838346">
        <ele>106.395</ele>
        <time>2018-12-29T11:49:17Z</time>
      </trkpt>
      <trkpt lat="37.284987" lon="-8.838361">
        <ele>106.840</ele>
        <time>2018-12-29T11:49:25Z</time>
      </trkpt>
      <trkpt lat="37.285027" lon="-8.838345">
        <ele>106.836</ele>
        <time>2018-12-29T11:49:29Z</time>
      </trkpt>
      <trkpt lat="37.285052" lon="-8.838335">
        <ele>107.391</ele>
        <time>2018-12-29T11:49:32Z</time>
      </trkpt>
      <trkpt lat="37.285074" lon="-8.838312">
        <ele>107.397</ele>
        <time>2018-12-29T11:49:35Z</time>
      </trkpt>
      <trkpt lat="37.285143" lon="-8.838197">
        <ele>108.234</ele>
        <time>2018-12-29T11:49:46Z</time>
      </trkpt>
      <trkpt lat="37.285159" lon="-8.838151">
        <ele>108.256</ele>
        <time>2018-12-29T11:49:49Z</time>
      </trkpt>
      <trkpt lat="37.285182" lon="-8.838008">
        <ele>109.259</ele>
        <time>2018-12-29T11:50:00Z</time>
      </trkpt>
      <trkpt lat="37.285188" lon="-8.837980">
        <ele>109.714</ele>
        <time>2018-12-29T11:50:02Z</time>
      </trkpt>
      <trkpt lat="37.285216" lon="-8.837886">
        <ele>110.608</ele>
        <time>2018-12-29T11:50:10Z</time>
      </trkpt>
      <trkpt lat="37.285258" lon="-8.837716">
        <ele>111.618</ele>
        <time>2018-12-29T11:50:23Z</time>
      </trkpt>
      <trkpt lat="37.285277" lon="-8.837610">
        <ele>112.196</ele>
        <time>2018-12-29T11:50:31Z</time>
      </trkpt>
      <trkpt lat="37.285295" lon="-8.837525">
        <ele>112.113</ele>
        <time>2018-12-29T11:50:37Z</time>
      </trkpt>
      <trkpt lat="37.285287" lon="-8.837471">
        <ele>112.178</ele>
        <time>2018-12-29T11:50:41Z</time>
      </trkpt>
      <trkpt lat="37.285264" lon="-8.837386">
        <ele>112.184</ele>
        <time>2018-12-29T11:50:47Z</time>
      </trkpt>
      <trkpt lat="37.285199" lon="-8.837229">
        <ele>114.089</ele>
        <time>2018-12-29T11:51:01Z</time>
      </trkpt>
      <trkpt lat="37.285197" lon="-8.837218">
        <ele>114.075</ele>
        <time>2018-12-29T11:51:02Z</time>
      </trkpt>
      <trkpt lat="37.285199" lon="-8.837152">
        <ele>114.532</ele>
        <time>2018-12-29T11:51:07Z</time>
      </trkpt>
      <trkpt lat="37.285224" lon="-8.836947">
        <ele>116.987</ele>
        <time>2018-12-29T11:51:21Z</time>
      </trkpt>
      <trkpt lat="37.285249" lon="-8.836835">
        <ele>117.942</ele>
        <time>2018-12-29T11:51:29Z</time>
      </trkpt>
      <trkpt lat="37.285257" lon="-8.836746">
        <ele>118.326</ele>
        <time>2018-12-29T11:51:35Z</time>
      </trkpt>
      <trkpt lat="37.285292" lon="-8.836594">
        <ele>119.808</ele>
        <time>2018-12-29T11:51:46Z</time>
      </trkpt>
      <trkpt lat="37.285324" lon="-8.836433">
        <ele>121.731</ele>
        <time>2018-12-29T11:51:57Z</time>
      </trkpt>
      <trkpt lat="37.285339" lon="-8.836344">
        <ele>121.719</ele>
        <time>2018-12-29T11:52:03Z</time>
      </trkpt>
      <trkpt lat="37.285336" lon="-8.836278">
        <ele>121.786</ele>
        <time>2018-12-29T11:52:07Z</time>
      </trkpt>
      <trkpt lat="37.285354" lon="-8.836182">
        <ele>122.791</ele>
        <time>2018-12-29T11:52:13Z</time>
      </trkpt>
      <trkpt lat="37.285363" lon="-8.836121">
        <ele>122.747</ele>
        <time>2018-12-29T11:52:17Z</time>
      </trkpt>
      <trkpt lat="37.285391" lon="-8.835927">
        <ele>123.162</ele>
        <time>2018-12-29T11:52:29Z</time>
      </trkpt>
      <trkpt lat="37.285425" lon="-8.835743">
        <ele>123.648</ele>
        <time>2018-12-29T11:52:41Z</time>
      </trkpt>
      <trkpt lat="37.285430" lon="-8.835684">
        <ele>124.145</ele>
        <time>2018-12-29T11:52:45Z</time>
      </trkpt>
      <trkpt lat="37.285446" lon="-8.835627">
        <ele>123.662</ele>
        <time>2018-12-29T11:52:49Z</time>
      </trkpt>
      <trkpt lat="37.285451" lon="-8.835583">
        <ele>124.183</ele>
        <time>2018-12-29T11:52:52Z</time>
      </trkpt>
      <trkpt lat="37.285453" lon="-8.835517">
        <ele>124.111</ele>
        <time>2018-12-29T11:52:56Z</time>
      </trkpt>
      <trkpt lat="37.285470" lon="-8.835302">
        <ele>125.108</ele>
        <time>2018-12-29T11:53:09Z</time>
      </trkpt>
      <trkpt lat="37.285450" lon="-8.835122">
        <ele>125.559</ele>
        <time>2018-12-29T11:53:20Z</time>
      </trkpt>
      <trkpt lat="37.285455" lon="-8.835057">
        <ele>125.557</ele>
        <time>2018-12-29T11:53:24Z</time>
      </trkpt>
      <trkpt lat="37.285433" lon="-8.834831">
        <ele>125.554</ele>
        <time>2018-12-29T11:53:38Z</time>
      </trkpt>
      <trkpt lat="37.285399" lon="-8.834661">
        <ele>124.679</ele>
        <time>2018-12-29T11:53:49Z</time>
      </trkpt>
      <trkpt lat="37.285401" lon="-8.834629">
        <ele>124.685</ele>
        <time>2018-12-29T11:53:51Z</time>
      </trkpt>
      <trkpt lat="37.285427" lon="-8.834529">
        <ele>124.110</ele>
        <time>2018-12-29T11:53:57Z</time>
      </trkpt>
      <trkpt lat="37.285441" lon="-8.834503">
        <ele>124.126</ele>
        <time>2018-12-29T11:53:59Z</time>
      </trkpt>
      <trkpt lat="37.285480" lon="-8.834431">
        <ele>123.693</ele>
        <time>2018-12-29T11:54:05Z</time>
      </trkpt>
      <trkpt lat="37.285576" lon="-8.834251">
        <ele>122.762</ele>
        <time>2018-12-29T11:54:19Z</time>
      </trkpt>
      <trkpt lat="37.285591" lon="-8.834211">
        <ele>121.783</ele>
        <time>2018-12-29T11:54:22Z</time>
      </trkpt>
      <trkpt lat="37.285613" lon="-8.834190">
        <ele>122.211</ele>
        <time>2018-12-29T11:54:24Z</time>
      </trkpt>
      <trkpt lat="37.285654" lon="-8.834125">
        <ele>121.708</ele>
        <time>2018-12-29T11:54:29Z</time>
      </trkpt>
      <trkpt lat="37.285697" lon="-8.834026">
        <ele>121.279</ele>
        <time>2018-12-29T11:54:36Z</time>
      </trkpt>
      <trkpt lat="37.285711" lon="-8.833988">
        <ele>121.227</ele>
        <time>2018-12-29T11:54:39Z</time>
      </trkpt>
      <trkpt lat="37.285779" lon="-8.833882">
        <ele>121.234</ele>
        <time>2018-12-29T11:54:47Z</time>
      </trkpt>
      <trkpt lat="37.285869" lon="-8.833763">
        <ele>121.759</ele>
        <time>2018-12-29T11:54:56Z</time>
      </trkpt>
      <trkpt lat="37.285943" lon="-8.833637">
        <ele>122.795</ele>
        <time>2018-12-29T11:55:06Z</time>
      </trkpt>
      <trkpt lat="37.285998" lon="-8.833528">
        <ele>124.110</ele>
        <time>2018-12-29T11:55:14Z</time>
      </trkpt>
      <trkpt lat="37.286076" lon="-8.833367">
        <ele>125.136</ele>
        <time>2018-12-29T11:55:26Z</time>
      </trkpt>
      <trkpt lat="37.286113" lon="-8.833296">
        <ele>125.573</ele>
        <time>2018-12-29T11:55:31Z</time>
      </trkpt>
      <trkpt lat="37.286164" lon="-8.833204">
        <ele>126.048</ele>
        <time>2018-12-29T11:55:38Z</time>
      </trkpt>
      <trkpt lat="37.286195" lon="-8.833163">
        <ele>126.061</ele>
        <time>2018-12-29T11:55:41Z</time>
      </trkpt>
      <trkpt lat="37.286297" lon="-8.832994">
        <ele>127.917</ele>
        <time>2018-12-29T11:55:54Z</time>
      </trkpt>
      <trkpt lat="37.286377" lon="-8.832816">
        <ele>127.908</ele>
        <time>2018-12-29T11:56:07Z</time>
      </trkpt>
      <trkpt lat="37.286451" lon="-8.832667">
        <ele>127.997</ele>
        <time>2018-12-29T11:56:18Z</time>
      </trkpt>
      <trkpt lat="37.286471" lon="-8.832592">
        <ele>128.485</ele>
        <time>2018-12-29T11:56:23Z</time>
      </trkpt>
      <trkpt lat="37.286549" lon="-8.832373">
        <ele>128.462</ele>
        <time>2018-12-29T11:56:37Z</time>
      </trkpt>
      <trkpt lat="37.286605" lon="-8.832191">
        <ele>128.437</ele>
        <time>2018-12-29T11:56:49Z</time>
      </trkpt>
      <trkpt lat="37.286645" lon="-8.832030">
        <ele>129.493</ele>
        <time>2018-12-29T11:57:00Z</time>
      </trkpt>
      <trkpt lat="37.286678" lon="-8.831941">
        <ele>129.938</ele>
        <time>2018-12-29T11:57:06Z</time>
      </trkpt>
      <trkpt lat="37.286748" lon="-8.831746">
        <ele>129.444</ele>
        <time>2018-12-29T11:57:19Z</time>
      </trkpt>
      <trkpt lat="37.286778" lon="-8.831553">
        <ele>128.991</ele>
        <time>2018-12-29T11:57:31Z</time>
      </trkpt>
      <trkpt lat="37.286785" lon="-8.831450">
        <ele>128.484</ele>
        <time>2018-12-29T11:57:37Z</time>
      </trkpt>
      <trkpt lat="37.286811" lon="-8.831283">
        <ele>127.907</ele>
        <time>2018-12-29T11:57:47Z</time>
      </trkpt>
      <trkpt lat="37.286854" lon="-8.831087">
        <ele>127.517</ele>
        <time>2018-12-29T11:58:00Z</time>
      </trkpt>
      <trkpt lat="37.286883" lon="-8.830981">
        <ele>127.508</ele>
        <time>2018-12-29T11:58:06Z</time>
      </trkpt>
      <trkpt lat="37.287004" lon="-8.830738">
        <ele>127.591</ele>
        <time>2018-12-29T11:58:24Z</time>
      </trkpt>
      <trkpt lat="37.287162" lon="-8.830548">
        <ele>128.499</ele>
        <time>2018-12-29T11:58:40Z</time>
      </trkpt>
      <trkpt lat="37.287248" lon="-8.830454">
        <ele>128.976</ele>
        <time>2018-12-29T11:58:49Z</time>
      </trkpt>
      <trkpt lat="37.287372" lon="-8.830332">
        <ele>129.431</ele>
        <time>2018-12-29T11:59:02Z</time>
      </trkpt>
      <trkpt lat="37.287416" lon="-8.830281">
        <ele>129.467</ele>
        <time>2018-12-29T11:59:07Z</time>
      </trkpt>
      <trkpt lat="37.287571" lon="-8.830193">
        <ele>129.932</ele>
        <time>2018-12-29T11:59:21Z</time>
      </trkpt>
      <trkpt lat="37.287716" lon="-8.830062">
        <ele>129.488</ele>
        <time>2018-12-29T11:59:35Z</time>
      </trkpt>
      <trkpt lat="37.287860" lon="-8.829912">
        <ele>127.555</ele>
        <time>2018-12-29T11:59:49Z</time>
      </trkpt>
      <trkpt lat="37.288034" lon="-8.829718">
        <ele>127.594</ele>
        <time>2018-12-29T12:00:06Z</time>
      </trkpt>
      <trkpt lat="37.288146" lon="-8.829590">
        <ele>127.557</ele>
        <time>2018-12-29T12:00:17Z</time>
      </trkpt>
      <trkpt lat="37.288247" lon="-8.829514">
        <ele>127.522</ele>
        <time>2018-12-29T12:00:26Z</time>
      </trkpt>
      <trkpt lat="37.288412" lon="-8.829370">
        <ele>127.008</ele>
        <time>2018-12-29T12:00:42Z</time>
      </trkpt>
      <trkpt lat="37.288588" lon="-8.829238">
        <ele>126.082</ele>
        <time>2018-12-29T12:00:58Z</time>
      </trkpt>
      <trkpt lat="37.288739" lon="-8.829027">
        <ele>124.160</ele>
        <time>2018-12-29T12:01:14Z</time>
      </trkpt>
      <trkpt lat="37.288885" lon="-8.828878">
        <ele>122.717</ele>
        <time>2018-12-29T12:01:29Z</time>
      </trkpt>
      <trkpt lat="37.289020" lon="-8.828749">
        <ele>122.762</ele>
        <time>2018-12-29T12:01:43Z</time>
      </trkpt>
      <trkpt lat="37.289157" lon="-8.828622">
        <ele>122.718</ele>
        <time>2018-12-29T12:01:57Z</time>
      </trkpt>
      <trkpt lat="37.289273" lon="-8.828460">
        <ele>122.723</ele>
        <time>2018-12-29T12:02:10Z</time>
      </trkpt>
      <trkpt lat="37.289309" lon="-8.828247">
        <ele>122.789</ele>
        <time>2018-12-29T12:02:24Z</time>
      </trkpt>
      <trkpt lat="37.289316" lon="-8.828212">
        <ele>122.246</ele>
        <time>2018-12-29T12:02:26Z</time>
      </trkpt>
      <trkpt lat="37.289274" lon="-8.828039">
        <ele>122.232</ele>
        <time>2018-12-29T12:02:37Z</time>
      </trkpt>
      <trkpt lat="37.289272" lon="-8.827843">
        <ele>122.792</ele>
        <time>2018-12-29T12:02:49Z</time>
      </trkpt>
      <trkpt lat="37.289347" lon="-8.827697">
        <ele>122.711</ele>
        <time>2018-12-29T12:03:01Z</time>
      </trkpt>
      <trkpt lat="37.289481" lon="-8.827575">
        <ele>122.208</ele>
        <time>2018-12-29T12:03:15Z</time>
      </trkpt>
      <trkpt lat="37.289647" lon="-8.827432">
        <ele>122.716</ele>
        <time>2018-12-29T12:03:30Z</time>
      </trkpt>
      <trkpt lat="37.289787" lon="-8.827303">
        <ele>123.174</ele>
        <time>2018-12-29T12:03:44Z</time>
      </trkpt>
      <trkpt lat="37.289920" lon="-8.827193">
        <ele>124.121</ele>
        <time>2018-12-29T12:03:56Z</time>
      </trkpt>
      <trkpt lat="37.290091" lon="-8.827084">
        <ele>125.196</ele>
        <time>2018-12-29T12:04:11Z</time>
      </trkpt>
      <trkpt lat="37.290137" lon="-8.827060">
        <ele>125.552</ele>
        <time>2018-12-29T12:04:15Z</time>
      </trkpt>
      <trkpt lat="37.290301" lon="-8.826999">
        <ele>126.517</ele>
        <time>2018-12-29T12:04:28Z</time>
      </trkpt>
      <trkpt lat="37.290460" lon="-8.826989">
        <ele>127.983</ele>
        <time>2018-12-29T12:04:41Z</time>
      </trkpt>
      <trkpt lat="37.290552" lon="-8.827027">
        <ele>127.980</ele>
        <time>2018-12-29T12:04:49Z</time>
      </trkpt>
      <trkpt lat="37.290592" lon="-8.827080">
        <ele>127.594</ele>
        <time>2018-12-29T12:04:53Z</time>
      </trkpt>
      <trkpt lat="37.290635" lon="-8.827139">
        <ele>127.557</ele>
        <time>2018-12-29T12:04:58Z</time>
      </trkpt>
      <trkpt lat="37.290652" lon="-8.827180">
        <ele>127.522</ele>
        <time>2018-12-29T12:05:01Z</time>
      </trkpt>
      <trkpt lat="37.290700" lon="-8.827280">
        <ele>127.508</ele>
        <time>2018-12-29T12:05:08Z</time>
      </trkpt>
      <trkpt lat="37.290753" lon="-8.827416">
        <ele>127.942</ele>
        <time>2018-12-29T12:05:17Z</time>
      </trkpt>
      <trkpt lat="37.290830" lon="-8.827600">
        <ele>128.940</ele>
        <time>2018-12-29T12:05:30Z</time>
      </trkpt>
      <trkpt lat="37.290849" lon="-8.827619">
        <ele>128.937</ele>
        <time>2018-12-29T12:05:32Z</time>
      </trkpt>
      <trkpt lat="37.290897" lon="-8.827668">
        <ele>128.922</ele>
        <time>2018-12-29T12:05:37Z</time>
      </trkpt>
      <trkpt lat="37.290990" lon="-8.827733">
        <ele>128.988</ele>
        <time>2018-12-29T12:05:45Z</time>
      </trkpt>
      <trkpt lat="37.291175" lon="-8.827637">
        <ele>127.913</ele>
        <time>2018-12-29T12:06:00Z</time>
      </trkpt>
      <trkpt lat="37.291328" lon="-8.827531">
        <ele>127.069</ele>
        <time>2018-12-29T12:06:13Z</time>
      </trkpt>
      <trkpt lat="37.291480" lon="-8.827444">
        <ele>125.156</ele>
        <time>2018-12-29T12:06:25Z</time>
      </trkpt>
      <trkpt lat="37.291661" lon="-8.827345">
        <ele>123.667</ele>
        <time>2018-12-29T12:06:39Z</time>
      </trkpt>
      <trkpt lat="37.291838" lon="-8.827239">
        <ele>122.781</ele>
        <time>2018-12-29T12:06:54Z</time>
      </trkpt>
      <trkpt lat="37.291993" lon="-8.827138">
        <ele>121.719</ele>
        <time>2018-12-29T12:07:07Z</time>
      </trkpt>
      <trkpt lat="37.292159" lon="-8.827038">
        <ele>120.708</ele>
        <time>2018-12-29T12:07:21Z</time>
      </trkpt>
      <trkpt lat="37.292295" lon="-8.826972">
        <ele>120.719</ele>
        <time>2018-12-29T12:07:32Z</time>
      </trkpt>
      <trkpt lat="37.292456" lon="-8.826854">
        <ele>121.247</ele>
        <time>2018-12-29T12:07:46Z</time>
      </trkpt>
      <trkpt lat="37.292632" lon="-8.826714">
        <ele>120.374</ele>
        <time>2018-12-29T12:08:01Z</time>
      </trkpt>
      <trkpt lat="37.292807" lon="-8.826590">
        <ele>119.849</ele>
        <time>2018-12-29T12:08:16Z</time>
      </trkpt>
      <trkpt lat="37.292836" lon="-8.826573">
        <ele>119.365</ele>
        <time>2018-12-29T12:08:19Z</time>
      </trkpt>
      <trkpt lat="37.293029" lon="-8.826543">
        <ele>119.390</ele>
        <time>2018-12-29T12:08:35Z</time>
      </trkpt>
      <trkpt lat="37.293152" lon="-8.826548">
        <ele>119.396</ele>
        <time>2018-12-29T12:08:45Z</time>
      </trkpt>
      <trkpt lat="37.293295" lon="-8.826568">
        <ele>120.333</ele>
        <time>2018-12-29T12:08:56Z</time>
      </trkpt>
      <trkpt lat="37.293375" lon="-8.826593">
        <ele>120.778</ele>
        <time>2018-12-29T12:09:03Z</time>
      </trkpt>
      <trkpt lat="37.293503" lon="-8.826615">
        <ele>121.733</ele>
        <time>2018-12-29T12:09:12Z</time>
      </trkpt>
      <trkpt lat="37.293541" lon="-8.826618">
        <ele>122.226</ele>
        <time>2018-12-29T12:09:15Z</time>
      </trkpt>
      <trkpt lat="37.293694" lon="-8.826654">
        <ele>123.608</ele>
        <time>2018-12-29T12:09:27Z</time>
      </trkpt>
      <trkpt lat="37.293842" lon="-8.826708">
        <ele>124.670</ele>
        <time>2018-12-29T12:09:38Z</time>
      </trkpt>
      <trkpt lat="37.293899" lon="-8.826715">
        <ele>125.138</ele>
        <time>2018-12-29T12:09:42Z</time>
      </trkpt>
      <trkpt lat="37.294070" lon="-8.826718">
        <ele>125.515</ele>
        <time>2018-12-29T12:09:55Z</time>
      </trkpt>
      <trkpt lat="37.294207" lon="-8.826693">
        <ele>126.020</ele>
        <time>2018-12-29T12:10:06Z</time>
      </trkpt>
      <trkpt lat="37.294266" lon="-8.826677">
        <ele>126.586</ele>
        <time>2018-12-29T12:10:11Z</time>
      </trkpt>
      <trkpt lat="37.294440" lon="-8.826667">
        <ele>126.531</ele>
        <time>2018-12-29T12:10:24Z</time>
      </trkpt>
      <trkpt lat="37.294612" lon="-8.826694">
        <ele>127.597</ele>
        <time>2018-12-29T12:10:38Z</time>
      </trkpt>
      <trkpt lat="37.294711" lon="-8.826697">
        <ele>127.934</ele>
        <time>2018-12-29T12:10:45Z</time>
      </trkpt>
      <trkpt lat="37.294812" lon="-8.826746">
        <ele>128.429</ele>
        <time>2018-12-29T12:10:54Z</time>
      </trkpt>
      <trkpt lat="37.294937" lon="-8.826854">
        <ele>127.500</ele>
        <time>2018-12-29T12:11:07Z</time>
      </trkpt>
      <trkpt lat="37.294985" lon="-8.826895">
        <ele>127.920</ele>
        <time>2018-12-29T12:11:12Z</time>
      </trkpt>
      <trkpt lat="37.295093" lon="-8.827036">
        <ele>127.908</ele>
        <time>2018-12-29T12:11:25Z</time>
      </trkpt>
      <trkpt lat="37.295130" lon="-8.827084">
        <ele>127.975</ele>
        <time>2018-12-29T12:11:29Z</time>
      </trkpt>
      <trkpt lat="37.295212" lon="-8.827211">
        <ele>127.983</ele>
        <time>2018-12-29T12:11:39Z</time>
      </trkpt>
      <trkpt lat="37.295298" lon="-8.827358">
        <ele>128.490</ele>
        <time>2018-12-29T12:11:50Z</time>
      </trkpt>
      <trkpt lat="37.295317" lon="-8.827370">
        <ele>128.475</ele>
        <time>2018-12-29T12:11:52Z</time>
      </trkpt>
      <trkpt lat="37.295402" lon="-8.827524">
        <ele>128.411</ele>
        <time>2018-12-29T12:12:03Z</time>
      </trkpt>
      <trkpt lat="37.295412" lon="-8.827535">
        <ele>128.496</ele>
        <time>2018-12-29T12:12:04Z</time>
      </trkpt>
      <trkpt lat="37.295490" lon="-8.827666">
        <ele>128.472</ele>
        <time>2018-12-29T12:12:14Z</time>
      </trkpt>
      <trkpt lat="37.295550" lon="-8.827773">
        <ele>128.999</ele>
        <time>2018-12-29T12:12:22Z</time>
      </trkpt>
      <trkpt lat="37.295672" lon="-8.827870">
        <ele>128.929</ele>
        <time>2018-12-29T12:12:33Z</time>
      </trkpt>
      <trkpt lat="37.295750" lon="-8.827982">
        <ele>128.400</ele>
        <time>2018-12-29T12:12:42Z</time>
      </trkpt>
      <trkpt lat="37.295776" lon="-8.828044">
        <ele>128.420</ele>
        <time>2018-12-29T12:12:46Z</time>
      </trkpt>
      <trkpt lat="37.295839" lon="-8.828141">
        <ele>128.908</ele>
        <time>2018-12-29T12:12:54Z</time>
      </trkpt>
      <trkpt lat="37.295890" lon="-8.828226">
        <ele>128.425</ele>
        <time>2018-12-29T12:13:00Z</time>
      </trkpt>
      <trkpt lat="37.295943" lon="-8.828293">
        <ele>128.913</ele>
        <time>2018-12-29T12:13:06Z</time>
      </trkpt>
      <trkpt lat="37.295972" lon="-8.828355">
        <ele>128.470</ele>
        <time>2018-12-29T12:13:10Z</time>
      </trkpt>
      <trkpt lat="37.296067" lon="-8.828529">
        <ele>129.445</ele>
        <time>2018-12-29T12:13:23Z</time>
      </trkpt>
      <trkpt lat="37.296103" lon="-8.828593">
        <ele>129.451</ele>
        <time>2018-12-29T12:13:28Z</time>
      </trkpt>
      <trkpt lat="37.296194" lon="-8.828814">
        <ele>128.926</ele>
        <time>2018-12-29T12:13:44Z</time>
      </trkpt>
      <trkpt lat="37.296232" lon="-8.828869">
        <ele>128.962</ele>
        <time>2018-12-29T12:13:49Z</time>
      </trkpt>
      <trkpt lat="37.296269" lon="-8.828872">
        <ele>128.939</ele>
        <time>2018-12-29T12:13:52Z</time>
      </trkpt>
      <trkpt lat="37.296318" lon="-8.828675">
        <ele>128.491</ele>
        <time>2018-12-29T12:14:07Z</time>
      </trkpt>
      <trkpt lat="37.296339" lon="-8.828585">
        <ele>128.481</ele>
        <time>2018-12-29T12:14:13Z</time>
      </trkpt>
      <trkpt lat="37.296341" lon="-8.828523">
        <ele>128.419</ele>
        <time>2018-12-29T12:14:17Z</time>
      </trkpt>
      <trkpt lat="37.296364" lon="-8.828267">
        <ele>128.908</ele>
        <time>2018-12-29T12:14:34Z</time>
      </trkpt>
      <trkpt lat="37.296401" lon="-8.828069">
        <ele>128.462</ele>
        <time>2018-12-29T12:14:47Z</time>
      </trkpt>
      <trkpt lat="37.296453" lon="-8.827857">
        <ele>128.460</ele>
        <time>2018-12-29T12:15:01Z</time>
      </trkpt>
      <trkpt lat="37.296526" lon="-8.827601">
        <ele>127.567</ele>
        <time>2018-12-29T12:15:18Z</time>
      </trkpt>
      <trkpt lat="37.296583" lon="-8.827398">
        <ele>126.052</ele>
        <time>2018-12-29T12:15:31Z</time>
      </trkpt>
      <trkpt lat="37.296655" lon="-8.827146">
        <ele>124.188</ele>
        <time>2018-12-29T12:15:47Z</time>
      </trkpt>
      <trkpt lat="37.296716" lon="-8.826900">
        <ele>122.243</ele>
        <time>2018-12-29T12:16:03Z</time>
      </trkpt>
      <trkpt lat="37.296786" lon="-8.826643">
        <ele>120.339</ele>
        <time>2018-12-29T12:16:19Z</time>
      </trkpt>
      <trkpt lat="37.296872" lon="-8.826410">
        <ele>119.396</ele>
        <time>2018-12-29T12:16:35Z</time>
      </trkpt>
      <trkpt lat="37.296949" lon="-8.826219">
        <ele>118.398</ele>
        <time>2018-12-29T12:16:48Z</time>
      </trkpt>
      <trkpt lat="37.297044" lon="-8.826051">
        <ele>117.915</ele>
        <time>2018-12-29T12:17:01Z</time>
      </trkpt>
      <trkpt lat="37.297077" lon="-8.825986">
        <ele>117.926</ele>
        <time>2018-12-29T12:17:06Z</time>
      </trkpt>
      <trkpt lat="37.297188" lon="-8.825826">
        <ele>117.408</ele>
        <time>2018-12-29T12:17:19Z</time>
      </trkpt>
      <trkpt lat="37.297317" lon="-8.825688">
        <ele>116.922</ele>
        <time>2018-12-29T12:17:32Z</time>
      </trkpt>
      <trkpt lat="37.297473" lon="-8.825533">
        <ele>116.440</ele>
        <time>2018-12-29T12:17:48Z</time>
      </trkpt>
      <trkpt lat="37.297578" lon="-8.825395">
        <ele>116.467</ele>
        <time>2018-12-29T12:18:00Z</time>
      </trkpt>
      <trkpt lat="37.297620" lon="-8.825282">
        <ele>116.412</ele>
        <time>2018-12-29T12:18:07Z</time>
      </trkpt>
      <trkpt lat="37.297635" lon="-8.825233">
        <ele>116.478</ele>
        <time>2018-12-29T12:18:11Z</time>
      </trkpt>
      <trkpt lat="37.297661" lon="-8.825034">
        <ele>117.483</ele>
        <time>2018-12-29T12:18:24Z</time>
      </trkpt>
      <trkpt lat="37.297737" lon="-8.824802">
        <ele>117.929</ele>
        <time>2018-12-29T12:18:39Z</time>
      </trkpt>
      <trkpt lat="37.297745" lon="-8.824774">
        <ele>117.976</ele>
        <time>2018-12-29T12:18:41Z</time>
      </trkpt>
      <trkpt lat="37.297797" lon="-8.824692">
        <ele>118.356</ele>
        <time>2018-12-29T12:18:47Z</time>
      </trkpt>
      <trkpt lat="37.297821" lon="-8.824599">
        <ele>118.859</ele>
        <time>2018-12-29T12:18:53Z</time>
      </trkpt>
      <trkpt lat="37.297871" lon="-8.824494">
        <ele>119.314</ele>
        <time>2018-12-29T12:19:01Z</time>
      </trkpt>
      <trkpt lat="37.297893" lon="-8.824455">
        <ele>119.308</ele>
        <time>2018-12-29T12:19:04Z</time>
      </trkpt>
      <trkpt lat="37.297964" lon="-8.824285">
        <ele>121.288</ele>
        <time>2018-12-29T12:19:17Z</time>
      </trkpt>
      <trkpt lat="37.297993" lon="-8.824212">
        <ele>122.266</ele>
        <time>2018-12-29T12:19:22Z</time>
      </trkpt>
      <trkpt lat="37.298056" lon="-8.824001">
        <ele>123.663</ele>
        <time>2018-12-29T12:19:37Z</time>
      </trkpt>
      <trkpt lat="37.298069" lon="-8.823943">
        <ele>123.658</ele>
        <time>2018-12-29T12:19:41Z</time>
      </trkpt>
      <trkpt lat="37.298130" lon="-8.823772">
        <ele>123.684</ele>
        <time>2018-12-29T12:19:53Z</time>
      </trkpt>
      <trkpt lat="37.298165" lon="-8.823701">
        <ele>124.159</ele>
        <time>2018-12-29T12:19:58Z</time>
      </trkpt>
      <trkpt lat="37.298212" lon="-8.823591">
        <ele>124.625</ele>
        <time>2018-12-29T12:20:06Z</time>
      </trkpt>
      <trkpt lat="37.298299" lon="-8.823401">
        <ele>126.062</ele>
        <time>2018-12-29T12:20:20Z</time>
      </trkpt>
      <trkpt lat="37.298363" lon="-8.823324">
        <ele>126.537</ele>
        <time>2018-12-29T12:20:28Z</time>
      </trkpt>
      <trkpt lat="37.298484" lon="-8.823409">
        <ele>127.049</ele>
        <time>2018-12-29T12:20:39Z</time>
      </trkpt>
      <trkpt lat="37.298528" lon="-8.823440">
        <ele>126.513</ele>
        <time>2018-12-29T12:20:43Z</time>
      </trkpt>
      <trkpt lat="37.298570" lon="-8.823468">
        <ele>126.508</ele>
        <time>2018-12-29T12:20:47Z</time>
      </trkpt>
      <trkpt lat="37.298644" lon="-8.823511">
        <ele>126.536</ele>
        <time>2018-12-29T12:20:54Z</time>
      </trkpt>
      <trkpt lat="37.298752" lon="-8.823605">
        <ele>126.034</ele>
        <time>2018-12-29T12:21:04Z</time>
      </trkpt>
      <trkpt lat="37.298812" lon="-8.823651">
        <ele>125.591</ele>
        <time>2018-12-29T12:21:09Z</time>
      </trkpt>
      <trkpt lat="37.298896" lon="-8.823690">
        <ele>124.616</ele>
        <time>2018-12-29T12:21:17Z</time>
      </trkpt>
      <trkpt lat="37.298916" lon="-8.823712">
        <ele>124.652</ele>
        <time>2018-12-29T12:21:19Z</time>
      </trkpt>
      <trkpt lat="37.298981" lon="-8.823741">
        <ele>124.157</ele>
        <time>2018-12-29T12:21:26Z</time>
      </trkpt>
      <trkpt lat="37.299011" lon="-8.823763">
        <ele>124.173</ele>
        <time>2018-12-29T12:21:29Z</time>
      </trkpt>
      <trkpt lat="37.299178" lon="-8.823834">
        <ele>123.650</ele>
        <time>2018-12-29T12:21:42Z</time>
      </trkpt>
      <trkpt lat="37.299330" lon="-8.823877">
        <ele>124.113</ele>
        <time>2018-12-29T12:21:54Z</time>
      </trkpt>
      <trkpt lat="37.299448" lon="-8.823944">
        <ele>124.143</ele>
        <time>2018-12-29T12:22:04Z</time>
      </trkpt>
      <trkpt lat="37.299592" lon="-8.823995">
        <ele>124.107</ele>
        <time>2018-12-29T12:22:15Z</time>
      </trkpt>
      <trkpt lat="37.299673" lon="-8.824019">
        <ele>124.108</ele>
        <time>2018-12-29T12:22:22Z</time>
      </trkpt>
      <trkpt lat="37.299776" lon="-8.824069">
        <ele>123.624</ele>
        <time>2018-12-29T12:22:31Z</time>
      </trkpt>
      <trkpt lat="37.299851" lon="-8.824106">
        <ele>123.132</ele>
        <time>2018-12-29T12:22:37Z</time>
      </trkpt>
      <trkpt lat="37.299933" lon="-8.824164">
        <ele>122.799</ele>
        <time>2018-12-29T12:22:44Z</time>
      </trkpt>
      <trkpt lat="37.300041" lon="-8.824235">
        <ele>122.244</ele>
        <time>2018-12-29T12:22:54Z</time>
      </trkpt>
      <trkpt lat="37.300197" lon="-8.824316">
        <ele>122.270</ele>
        <time>2018-12-29T12:23:07Z</time>
      </trkpt>
      <trkpt lat="37.300350" lon="-8.824371">
        <ele>122.725</ele>
        <time>2018-12-29T12:23:19Z</time>
      </trkpt>
      <trkpt lat="37.300413" lon="-8.824398">
        <ele>122.771</ele>
        <time>2018-12-29T12:23:24Z</time>
      </trkpt>
      <trkpt lat="37.300518" lon="-8.824452">
        <ele>122.798</ele>
        <time>2018-12-29T12:23:33Z</time>
      </trkpt>
      <trkpt lat="37.300566" lon="-8.824474">
        <ele>122.735</ele>
        <time>2018-12-29T12:23:37Z</time>
      </trkpt>
      <trkpt lat="37.300611" lon="-8.824498">
        <ele>122.286</ele>
        <time>2018-12-29T12:23:41Z</time>
      </trkpt>
      <trkpt lat="37.300667" lon="-8.824546">
        <ele>122.714</ele>
        <time>2018-12-29T12:23:46Z</time>
      </trkpt>
      <trkpt lat="37.300730" lon="-8.824573">
        <ele>122.708</ele>
        <time>2018-12-29T12:23:51Z</time>
      </trkpt>
      <trkpt lat="37.300799" lon="-8.824608">
        <ele>122.716</ele>
        <time>2018-12-29T12:23:57Z</time>
      </trkpt>
      <trkpt lat="37.300881" lon="-8.824642">
        <ele>122.774</ele>
        <time>2018-12-29T12:24:03Z</time>
      </trkpt>
      <trkpt lat="37.300910" lon="-8.824642">
        <ele>122.791</ele>
        <time>2018-12-29T12:24:05Z</time>
      </trkpt>
      <trkpt lat="37.300953" lon="-8.824667">
        <ele>122.726</ele>
        <time>2018-12-29T12:24:09Z</time>
      </trkpt>
      <trkpt lat="37.301012" lon="-8.824689">
        <ele>122.762</ele>
        <time>2018-12-29T12:24:13Z</time>
      </trkpt>
      <trkpt lat="37.301088" lon="-8.824726">
        <ele>123.117</ele>
        <time>2018-12-29T12:24:19Z</time>
      </trkpt>
      <trkpt lat="37.301155" lon="-8.824765">
        <ele>123.133</ele>
        <time>2018-12-29T12:24:25Z</time>
      </trkpt>
      <trkpt lat="37.301268" lon="-8.824838">
        <ele>123.660</ele>
        <time>2018-12-29T12:24:35Z</time>
      </trkpt>
      <trkpt lat="37.301332" lon="-8.824875">
        <ele>123.174</ele>
        <time>2018-12-29T12:24:40Z</time>
      </trkpt>
      <trkpt lat="37.301381" lon="-8.824913">
        <ele>123.656</ele>
        <time>2018-12-29T12:24:45Z</time>
      </trkpt>
      <trkpt lat="37.301482" lon="-8.825002">
        <ele>123.621</ele>
        <time>2018-12-29T12:24:55Z</time>
      </trkpt>
      <trkpt lat="37.301500" lon="-8.825022">
        <ele>124.108</ele>
        <time>2018-12-29T12:24:57Z</time>
      </trkpt>
      <trkpt lat="37.301554" lon="-8.825082">
        <ele>124.630</ele>
        <time>2018-12-29T12:25:02Z</time>
      </trkpt>
      <trkpt lat="37.301609" lon="-8.825130">
        <ele>124.678</ele>
        <time>2018-12-29T12:25:07Z</time>
      </trkpt>
      <trkpt lat="37.301682" lon="-8.825191">
        <ele>125.195</ele>
        <time>2018-12-29T12:25:14Z</time>
      </trkpt>
      <trkpt lat="37.301817" lon="-8.825310">
        <ele>125.560</ele>
        <time>2018-12-29T12:25:26Z</time>
      </trkpt>
      <trkpt lat="37.301839" lon="-8.825335">
        <ele>125.546</ele>
        <time>2018-12-29T12:25:29Z</time>
      </trkpt>
      <trkpt lat="37.301930" lon="-8.825380">
        <ele>126.551</ele>
        <time>2018-12-29T12:25:37Z</time>
      </trkpt>
      <trkpt lat="37.302008" lon="-8.825455">
        <ele>126.567</ele>
        <time>2018-12-29T12:25:45Z</time>
      </trkpt>
      <trkpt lat="37.302108" lon="-8.825560">
        <ele>126.014</ele>
        <time>2018-12-29T12:25:55Z</time>
      </trkpt>
      <trkpt lat="37.302129" lon="-8.825582">
        <ele>126.574</ele>
        <time>2018-12-29T12:25:57Z</time>
      </trkpt>
      <trkpt lat="37.302260" lon="-8.825696">
        <ele>125.556</ele>
        <time>2018-12-29T12:26:09Z</time>
      </trkpt>
      <trkpt lat="37.302277" lon="-8.825714">
        <ele>126.021</ele>
        <time>2018-12-29T12:26:11Z</time>
      </trkpt>
      <trkpt lat="37.302323" lon="-8.825743">
        <ele>125.508</ele>
        <time>2018-12-29T12:26:15Z</time>
      </trkpt>
      <trkpt lat="37.302383" lon="-8.825792">
        <ele>125.590</ele>
        <time>2018-12-29T12:26:21Z</time>
      </trkpt>
      <trkpt lat="37.302500" lon="-8.825901">
        <ele>125.168</ele>
        <time>2018-12-29T12:26:33Z</time>
      </trkpt>
      <trkpt lat="37.302512" lon="-8.825912">
        <ele>125.175</ele>
        <time>2018-12-29T12:26:34Z</time>
      </trkpt>
      <trkpt lat="37.302533" lon="-8.825926">
        <ele>125.180</ele>
        <time>2018-12-29T12:26:36Z</time>
      </trkpt>
      <trkpt lat="37.302688" lon="-8.826069">
        <ele>125.126</ele>
        <time>2018-12-29T12:26:49Z</time>
      </trkpt>
      <trkpt lat="37.302818" lon="-8.826173">
        <ele>125.191</ele>
        <time>2018-12-29T12:27:01Z</time>
      </trkpt>
      <trkpt lat="37.302868" lon="-8.826208">
        <ele>125.177</ele>
        <time>2018-12-29T12:27:07Z</time>
      </trkpt>
      <trkpt lat="37.302914" lon="-8.826237">
        <ele>125.174</ele>
        <time>2018-12-29T12:27:11Z</time>
      </trkpt>
      <trkpt lat="37.302996" lon="-8.826282">
        <ele>125.144</ele>
        <time>2018-12-29T12:27:18Z</time>
      </trkpt>
      <trkpt lat="37.303033" lon="-8.826306">
        <ele>124.605</ele>
        <time>2018-12-29T12:27:21Z</time>
      </trkpt>
      <trkpt lat="37.303177" lon="-8.826385">
        <ele>124.615</ele>
        <time>2018-12-29T12:27:33Z</time>
      </trkpt>
      <trkpt lat="37.303201" lon="-8.826400">
        <ele>124.608</ele>
        <time>2018-12-29T12:27:35Z</time>
      </trkpt>
      <trkpt lat="37.303287" lon="-8.826425">
        <ele>124.167</ele>
        <time>2018-12-29T12:27:42Z</time>
      </trkpt>
      <trkpt lat="37.303319" lon="-8.826444">
        <ele>124.145</ele>
        <time>2018-12-29T12:27:45Z</time>
      </trkpt>
      <trkpt lat="37.303351" lon="-8.826466">
        <ele>124.652</ele>
        <time>2018-12-29T12:27:48Z</time>
      </trkpt>
      <trkpt lat="37.303406" lon="-8.826483">
        <ele>124.167</ele>
        <time>2018-12-29T12:27:52Z</time>
      </trkpt>
      <trkpt lat="37.303501" lon="-8.826530">
        <ele>124.183</ele>
        <time>2018-12-29T12:27:59Z</time>
      </trkpt>
      <trkpt lat="37.303598" lon="-8.826560">
        <ele>123.688</ele>
        <time>2018-12-29T12:28:07Z</time>
      </trkpt>
      <trkpt lat="37.303594" lon="-8.826514">
        <ele>123.674</ele>
        <time>2018-12-29T12:28:19Z</time>
      </trkpt>
      <trkpt lat="37.303600" lon="-8.826524">
        <ele>123.651</ele>
        <time>2018-12-29T12:28:33Z</time>
      </trkpt>
      <trkpt lat="37.303602" lon="-8.826523">
        <ele>123.638</ele>
        <time>2018-12-29T12:28:39Z</time>
      </trkpt>
      <trkpt lat="37.303632" lon="-8.826545">
        <ele>123.670</ele>
        <time>2018-12-29T12:28:43Z</time>
      </trkpt>
      <trkpt lat="37.303684" lon="-8.826582">
        <ele>123.617</ele>
        <time>2018-12-29T12:28:48Z</time>
      </trkpt>
      <trkpt lat="37.303743" lon="-8.826620">
        <ele>123.608</ele>
        <time>2018-12-29T12:28:53Z</time>
      </trkpt>
      <trkpt lat="37.303761" lon="-8.826637">
        <ele>123.636</ele>
        <time>2018-12-29T12:28:55Z</time>
      </trkpt>
      <trkpt lat="37.303940" lon="-8.826715">
        <ele>123.654</ele>
        <time>2018-12-29T12:29:09Z</time>
      </trkpt>
      <trkpt lat="37.304021" lon="-8.826765">
        <ele>123.631</ele>
        <time>2018-12-29T12:29:17Z</time>
      </trkpt>
      <trkpt lat="37.304153" lon="-8.826826">
        <ele>123.156</ele>
        <time>2018-12-29T12:29:29Z</time>
      </trkpt>
      <trkpt lat="37.304329" lon="-8.826868">
        <ele>122.772</ele>
        <time>2018-12-29T12:29:43Z</time>
      </trkpt>
      <trkpt lat="37.304393" lon="-8.826876">
        <ele>122.767</ele>
        <time>2018-12-29T12:29:49Z</time>
      </trkpt>
      <trkpt lat="37.304471" lon="-8.826892">
        <ele>122.763</ele>
        <time>2018-12-29T12:29:55Z</time>
      </trkpt>
      <trkpt lat="37.304507" lon="-8.826904">
        <ele>122.790</ele>
        <time>2018-12-29T12:29:58Z</time>
      </trkpt>
      <trkpt lat="37.304563" lon="-8.826943">
        <ele>122.234</ele>
        <time>2018-12-29T12:30:03Z</time>
      </trkpt>
      <trkpt lat="37.304638" lon="-8.826977">
        <ele>121.755</ele>
        <time>2018-12-29T12:30:09Z</time>
      </trkpt>
      <trkpt lat="37.304714" lon="-8.827009">
        <ele>122.210</ele>
        <time>2018-12-29T12:30:16Z</time>
      </trkpt>
      <trkpt lat="37.304767" lon="-8.827042">
        <ele>121.708</ele>
        <time>2018-12-29T12:30:21Z</time>
      </trkpt>
      <trkpt lat="37.304895" lon="-8.827110">
        <ele>121.796</ele>
        <time>2018-12-29T12:30:35Z</time>
      </trkpt>
      <trkpt lat="37.304955" lon="-8.827142">
        <ele>121.764</ele>
        <time>2018-12-29T12:30:42Z</time>
      </trkpt>
      <trkpt lat="37.304983" lon="-8.827150">
        <ele>120.781</ele>
        <time>2018-12-29T12:30:45Z</time>
      </trkpt>
      <trkpt lat="37.305144" lon="-8.827185">
        <ele>120.386</ele>
        <time>2018-12-29T12:30:59Z</time>
      </trkpt>
      <trkpt lat="37.305215" lon="-8.827211">
        <ele>120.752</ele>
        <time>2018-12-29T12:31:13Z</time>
      </trkpt>
      <trkpt lat="37.305207" lon="-8.827232">
        <ele>120.717</ele>
        <time>2018-12-29T12:31:28Z</time>
      </trkpt>
      <trkpt lat="37.305207" lon="-8.827232">
        <ele>120.793</ele>
        <time>2018-12-29T12:31:32Z</time>
      </trkpt>
      <trkpt lat="37.305203" lon="-8.827197">
        <ele>121.280</ele>
        <time>2018-12-29T12:31:45Z</time>
      </trkpt>
      <trkpt lat="37.305212" lon="-8.827190">
        <ele>121.267</ele>
        <time>2018-12-29T12:31:53Z</time>
      </trkpt>
      <trkpt lat="37.305237" lon="-8.827168">
        <ele>121.281</ele>
        <time>2018-12-29T12:31:56Z</time>
      </trkpt>
      <trkpt lat="37.305378" lon="-8.827071">
        <ele>120.719</ele>
        <time>2018-12-29T12:32:09Z</time>
      </trkpt>
      <trkpt lat="37.305470" lon="-8.827018">
        <ele>120.308</ele>
        <time>2018-12-29T12:32:17Z</time>
      </trkpt>
      <trkpt lat="37.305624" lon="-8.826912">
        <ele>119.899</ele>
        <time>2018-12-29T12:32:31Z</time>
      </trkpt>
      <trkpt lat="37.305764" lon="-8.826816">
        <ele>119.327</ele>
        <time>2018-12-29T12:32:44Z</time>
      </trkpt>
      <trkpt lat="37.305879" lon="-8.826751">
        <ele>117.924</ele>
        <time>2018-12-29T12:32:54Z</time>
      </trkpt>
      <trkpt lat="37.305928" lon="-8.826717">
        <ele>117.419</ele>
        <time>2018-12-29T12:32:59Z</time>
      </trkpt>
      <trkpt lat="37.306105" lon="-8.826620">
        <ele>114.535</ele>
        <time>2018-12-29T12:33:14Z</time>
      </trkpt>
      <trkpt lat="37.306169" lon="-8.826644">
        <ele>114.560</ele>
        <time>2018-12-29T12:33:20Z</time>
      </trkpt>
      <trkpt lat="37.306286" lon="-8.826734">
        <ele>114.036</ele>
        <time>2018-12-29T12:33:31Z</time>
      </trkpt>
      <trkpt lat="37.306356" lon="-8.826787">
        <ele>114.083</ele>
        <time>2018-12-29T12:33:37Z</time>
      </trkpt>
      <trkpt lat="37.306373" lon="-8.826798">
        <ele>113.587</ele>
        <time>2018-12-29T12:33:39Z</time>
      </trkpt>
      <trkpt lat="37.306391" lon="-8.826814">
        <ele>113.542</ele>
        <time>2018-12-29T12:33:41Z</time>
      </trkpt>
      <trkpt lat="37.306511" lon="-8.826906">
        <ele>113.026</ele>
        <time>2018-12-29T12:33:52Z</time>
      </trkpt>
      <trkpt lat="37.306542" lon="-8.826931">
        <ele>113.008</ele>
        <time>2018-12-29T12:33:55Z</time>
      </trkpt>
      <trkpt lat="37.306595" lon="-8.826978">
        <ele>112.691</ele>
        <time>2018-12-29T12:34:00Z</time>
      </trkpt>
      <trkpt lat="37.306684" lon="-8.827042">
        <ele>111.619</ele>
        <time>2018-12-29T12:34:08Z</time>
      </trkpt>
      <trkpt lat="37.306749" lon="-8.827083">
        <ele>110.616</ele>
        <time>2018-12-29T12:34:13Z</time>
      </trkpt>
      <trkpt lat="37.306808" lon="-8.827121">
        <ele>110.231</ele>
        <time>2018-12-29T12:34:18Z</time>
      </trkpt>
      <trkpt lat="37.306890" lon="-8.827173">
        <ele>110.237</ele>
        <time>2018-12-29T12:34:25Z</time>
      </trkpt>
      <trkpt lat="37.306930" lon="-8.827194">
        <ele>110.262</ele>
        <time>2018-12-29T12:34:29Z</time>
      </trkpt>
      <trkpt lat="37.306972" lon="-8.827229">
        <ele>110.288</ele>
        <time>2018-12-29T12:34:33Z</time>
      </trkpt>
      <trkpt lat="37.306995" lon="-8.827247">
        <ele>110.285</ele>
        <time>2018-12-29T12:34:35Z</time>
      </trkpt>
      <trkpt lat="37.307121" lon="-8.827320">
        <ele>109.211</ele>
        <time>2018-12-29T12:34:46Z</time>
      </trkpt>
      <trkpt lat="37.307169" lon="-8.827332">
        <ele>109.721</ele>
        <time>2018-12-29T12:34:50Z</time>
      </trkpt>
      <trkpt lat="37.307299" lon="-8.827376">
        <ele>109.703</ele>
        <time>2018-12-29T12:35:01Z</time>
      </trkpt>
      <trkpt lat="37.307419" lon="-8.827391">
        <ele>110.208</ele>
        <time>2018-12-29T12:35:10Z</time>
      </trkpt>
      <trkpt lat="37.307617" lon="-8.827382">
        <ele>109.294</ele>
        <time>2018-12-29T12:35:25Z</time>
      </trkpt>
      <trkpt lat="37.307736" lon="-8.827401">
        <ele>108.782</ele>
        <time>2018-12-29T12:35:35Z</time>
      </trkpt>
      <trkpt lat="37.307857" lon="-8.827403">
        <ele>108.219</ele>
        <time>2018-12-29T12:35:45Z</time>
      </trkpt>
      <trkpt lat="37.307929" lon="-8.827398">
        <ele>107.834</ele>
        <time>2018-12-29T12:35:52Z</time>
      </trkpt>
      <trkpt lat="37.308063" lon="-8.827452">
        <ele>106.320</ele>
        <time>2018-12-29T12:36:03Z</time>
      </trkpt>
      <trkpt lat="37.308098" lon="-8.827475">
        <ele>105.825</ele>
        <time>2018-12-29T12:36:06Z</time>
      </trkpt>
      <trkpt lat="37.308146" lon="-8.827462">
        <ele>105.471</ele>
        <time>2018-12-29T12:36:10Z</time>
      </trkpt>
      <trkpt lat="37.308186" lon="-8.827401">
        <ele>104.458</ele>
        <time>2018-12-29T12:36:14Z</time>
      </trkpt>
      <trkpt lat="37.308201" lon="-8.827288">
        <ele>103.411</ele>
        <time>2018-12-29T12:36:21Z</time>
      </trkpt>
      <trkpt lat="37.308274" lon="-8.827094">
        <ele>101.021</ele>
        <time>2018-12-29T12:36:34Z</time>
      </trkpt>
      <trkpt lat="37.308298" lon="-8.827061">
        <ele>100.603</ele>
        <time>2018-12-29T12:36:37Z</time>
      </trkpt>
      <trkpt lat="37.308430" lon="-8.827016">
        <ele>99.108</ele>
        <time>2018-12-29T12:36:48Z</time>
      </trkpt>
      <trkpt lat="37.308480" lon="-8.827036">
        <ele>98.124</ele>
        <time>2018-12-29T12:36:53Z</time>
      </trkpt>
      <trkpt lat="37.308549" lon="-8.827044">
        <ele>97.292</ele>
        <time>2018-12-29T12:36:59Z</time>
      </trkpt>
      <trkpt lat="37.308679" lon="-8.826892">
        <ele>93.859</ele>
        <time>2018-12-29T12:37:13Z</time>
      </trkpt>
      <trkpt lat="37.308703" lon="-8.826827">
        <ele>91.984</ele>
        <time>2018-12-29T12:37:18Z</time>
      </trkpt>
      <trkpt lat="37.308774" lon="-8.826661">
        <ele>89.070</ele>
        <time>2018-12-29T12:37:30Z</time>
      </trkpt>
      <trkpt lat="37.308780" lon="-8.826648">
        <ele>89.065</ele>
        <time>2018-12-29T12:37:31Z</time>
      </trkpt>
      <trkpt lat="37.308785" lon="-8.826620">
        <ele>88.561</ele>
        <time>2018-12-29T12:37:33Z</time>
      </trkpt>
      <trkpt lat="37.308827" lon="-8.826548">
        <ele>86.648</ele>
        <time>2018-12-29T12:37:48Z</time>
      </trkpt>
      <trkpt lat="37.308829" lon="-8.826535">
        <ele>85.678</ele>
        <time>2018-12-29T12:38:09Z</time>
      </trkpt>
      <trkpt lat="37.308857" lon="-8.826437">
        <ele>83.233</ele>
        <time>2018-12-29T12:38:17Z</time>
      </trkpt>
      <trkpt lat="37.308854" lon="-8.826344">
        <ele>81.326</ele>
        <time>2018-12-29T12:38:24Z</time>
      </trkpt>
      <trkpt lat="37.308884" lon="-8.826281">
        <ele>80.408</ele>
        <time>2018-12-29T12:38:37Z</time>
      </trkpt>
      <trkpt lat="37.308888" lon="-8.826273">
        <ele>79.920</ele>
        <time>2018-12-29T12:38:38Z</time>
      </trkpt>
      <trkpt lat="37.308916" lon="-8.826197">
        <ele>78.998</ele>
        <time>2018-12-29T12:38:48Z</time>
      </trkpt>
      <trkpt lat="37.308937" lon="-8.826190">
        <ele>78.415</ele>
        <time>2018-12-29T12:38:50Z</time>
      </trkpt>
      <trkpt lat="37.308978" lon="-8.826163">
        <ele>78.420</ele>
        <time>2018-12-29T12:38:54Z</time>
      </trkpt>
      <trkpt lat="37.308996" lon="-8.826144">
        <ele>78.046</ele>
        <time>2018-12-29T12:38:56Z</time>
      </trkpt>
      <trkpt lat="37.309067" lon="-8.826143">
        <ele>77.541</ele>
        <time>2018-12-29T12:39:02Z</time>
      </trkpt>
      <trkpt lat="37.309178" lon="-8.826181">
        <ele>77.037</ele>
        <time>2018-12-29T12:39:12Z</time>
      </trkpt>
      <trkpt lat="37.309308" lon="-8.826063">
        <ele>74.614</ele>
        <time>2018-12-29T12:39:24Z</time>
      </trkpt>
      <trkpt lat="37.309451" lon="-8.825935">
        <ele>72.716</ele>
        <time>2018-12-29T12:39:39Z</time>
      </trkpt>
      <trkpt lat="37.309497" lon="-8.825879">
        <ele>71.776</ele>
        <time>2018-12-29T12:39:44Z</time>
      </trkpt>
      <trkpt lat="37.309642" lon="-8.825749">
        <ele>70.713</ele>
        <time>2018-12-29T12:39:58Z</time>
      </trkpt>
      <trkpt lat="37.309652" lon="-8.825740">
        <ele>70.708</ele>
        <time>2018-12-29T12:39:59Z</time>
      </trkpt>
      <trkpt lat="37.309667" lon="-8.825708">
        <ele>70.344</ele>
        <time>2018-12-29T12:40:03Z</time>
      </trkpt>
      <trkpt lat="37.309648" lon="-8.825706">
        <ele>70.342</ele>
        <time>2018-12-29T12:40:14Z</time>
      </trkpt>
      <trkpt lat="37.309676" lon="-8.825678">
        <ele>70.359</ele>
        <time>2018-12-29T12:40:17Z</time>
      </trkpt>
      <trkpt lat="37.309703" lon="-8.825638">
        <ele>69.824</ele>
        <time>2018-12-29T12:40:21Z</time>
      </trkpt>
      <trkpt lat="37.309847" lon="-8.825465">
        <ele>66.470</ele>
        <time>2018-12-29T12:40:37Z</time>
      </trkpt>
      <trkpt lat="37.309941" lon="-8.825358">
        <ele>64.525</ele>
        <time>2018-12-29T12:40:48Z</time>
      </trkpt>
      <trkpt lat="37.309956" lon="-8.825330">
        <ele>64.551</ele>
        <time>2018-12-29T12:40:51Z</time>
      </trkpt>
      <trkpt lat="37.310008" lon="-8.825252">
        <ele>63.178</ele>
        <time>2018-12-29T12:40:57Z</time>
      </trkpt>
      <trkpt lat="37.309988" lon="-8.825228">
        <ele>63.174</ele>
        <time>2018-12-29T12:41:08Z</time>
      </trkpt>
      <trkpt lat="37.309995" lon="-8.825220">
        <ele>63.156</ele>
        <time>2018-12-29T12:41:13Z</time>
      </trkpt>
      <trkpt lat="37.310034" lon="-8.825190">
        <ele>61.621</ele>
        <time>2018-12-29T12:41:17Z</time>
      </trkpt>
      <trkpt lat="37.310053" lon="-8.825165">
        <ele>61.608</ele>
        <time>2018-12-29T12:41:19Z</time>
      </trkpt>
      <trkpt lat="37.310096" lon="-8.825154">
        <ele>61.160</ele>
        <time>2018-12-29T12:41:31Z</time>
      </trkpt>
      <trkpt lat="37.310096" lon="-8.825134">
        <ele>60.728</ele>
        <time>2018-12-29T12:41:47Z</time>
      </trkpt>
      <trkpt lat="37.310113" lon="-8.825134">
        <ele>60.715</ele>
        <time>2018-12-29T12:42:02Z</time>
      </trkpt>
      <trkpt lat="37.310114" lon="-8.825129">
        <ele>60.750</ele>
        <time>2018-12-29T12:42:21Z</time>
      </trkpt>
      <trkpt lat="37.310109" lon="-8.825132">
        <ele>60.736</ele>
        <time>2018-12-29T12:42:39Z</time>
      </trkpt>
      <trkpt lat="37.310114" lon="-8.825115">
        <ele>60.781</ele>
        <time>2018-12-29T12:42:42Z</time>
      </trkpt>
      <trkpt lat="37.310169" lon="-8.825049">
        <ele>60.267</ele>
        <time>2018-12-29T12:42:48Z</time>
      </trkpt>
      <trkpt lat="37.310187" lon="-8.824984">
        <ele>60.274</ele>
        <time>2018-12-29T12:43:03Z</time>
      </trkpt>
      <trkpt lat="37.310206" lon="-8.824969">
        <ele>59.752</ele>
        <time>2018-12-29T12:43:17Z</time>
      </trkpt>
      <trkpt lat="37.310223" lon="-8.824966">
        <ele>60.253</ele>
        <time>2018-12-29T12:43:27Z</time>
      </trkpt>
      <trkpt lat="37.310253" lon="-8.824931">
        <ele>59.708</ele>
        <time>2018-12-29T12:43:31Z</time>
      </trkpt>
      <trkpt lat="37.310324" lon="-8.824876">
        <ele>59.708</ele>
        <time>2018-12-29T12:43:39Z</time>
      </trkpt>
      <trkpt lat="37.310338" lon="-8.824853">
        <ele>60.238</ele>
        <time>2018-12-29T12:43:51Z</time>
      </trkpt>
      <trkpt lat="37.310356" lon="-8.824839">
        <ele>60.246</ele>
        <time>2018-12-29T12:43:53Z</time>
      </trkpt>
      <trkpt lat="37.310381" lon="-8.824818">
        <ele>60.283</ele>
        <time>2018-12-29T12:43:56Z</time>
      </trkpt>
      <trkpt lat="37.310440" lon="-8.824762">
        <ele>60.278</ele>
        <time>2018-12-29T12:44:02Z</time>
      </trkpt>
      <trkpt lat="37.310618" lon="-8.824668">
        <ele>58.764</ele>
        <time>2018-12-29T12:44:16Z</time>
      </trkpt>
      <trkpt lat="37.310795" lon="-8.824578">
        <ele>57.859</ele>
        <time>2018-12-29T12:44:30Z</time>
      </trkpt>
      <trkpt lat="37.310837" lon="-8.824545">
        <ele>57.395</ele>
        <time>2018-12-29T12:44:34Z</time>
      </trkpt>
      <trkpt lat="37.310858" lon="-8.824515">
        <ele>57.342</ele>
        <time>2018-12-29T12:44:37Z</time>
      </trkpt>
      <trkpt lat="37.310869" lon="-8.824466">
        <ele>57.328</ele>
        <time>2018-12-29T12:44:41Z</time>
      </trkpt>
      <trkpt lat="37.310887" lon="-8.824385">
        <ele>56.889</ele>
        <time>2018-12-29T12:44:46Z</time>
      </trkpt>
      <trkpt lat="37.310863" lon="-8.824340">
        <ele>56.817</ele>
        <time>2018-12-29T12:44:49Z</time>
      </trkpt>
      <trkpt lat="37.310849" lon="-8.824251">
        <ele>58.708</ele>
        <time>2018-12-29T12:44:55Z</time>
      </trkpt>
      <trkpt lat="37.310797" lon="-8.824093">
        <ele>57.815</ele>
        <time>2018-12-29T12:45:07Z</time>
      </trkpt>
      <trkpt lat="37.310820" lon="-8.824068">
        <ele>57.833</ele>
        <time>2018-12-29T12:45:10Z</time>
      </trkpt>
      <trkpt lat="37.310854" lon="-8.824010">
        <ele>57.870</ele>
        <time>2018-12-29T12:45:15Z</time>
      </trkpt>
      <trkpt lat="37.310840" lon="-8.823933">
        <ele>58.325</ele>
        <time>2018-12-29T12:45:20Z</time>
      </trkpt>
      <trkpt lat="37.310850" lon="-8.823904">
        <ele>58.311</ele>
        <time>2018-12-29T12:45:22Z</time>
      </trkpt>
      <trkpt lat="37.310875" lon="-8.823845">
        <ele>59.266</ele>
        <time>2018-12-29T12:45:26Z</time>
      </trkpt>
      <trkpt lat="37.310943" lon="-8.823791">
        <ele>59.742</ele>
        <time>2018-12-29T12:45:33Z</time>
      </trkpt>
      <trkpt lat="37.310966" lon="-8.823785">
        <ele>59.749</ele>
        <time>2018-12-29T12:45:35Z</time>
      </trkpt>
      <trkpt lat="37.311020" lon="-8.823745">
        <ele>59.215</ele>
        <time>2018-12-29T12:45:41Z</time>
      </trkpt>
      <trkpt lat="37.311053" lon="-8.823754">
        <ele>58.765</ele>
        <time>2018-12-29T12:45:43Z</time>
      </trkpt>
      <trkpt lat="37.311157" lon="-8.823734">
        <ele>57.811</ele>
        <time>2018-12-29T12:45:54Z</time>
      </trkpt>
      <trkpt lat="37.311166" lon="-8.823729">
        <ele>57.808</ele>
        <time>2018-12-29T12:45:55Z</time>
      </trkpt>
      <trkpt lat="37.311186" lon="-8.823718">
        <ele>57.814</ele>
        <time>2018-12-29T12:45:57Z</time>
      </trkpt>
      <trkpt lat="37.311264" lon="-8.823672">
        <ele>58.712</ele>
        <time>2018-12-29T12:46:07Z</time>
      </trkpt>
      <trkpt lat="37.311283" lon="-8.823658">
        <ele>59.259</ele>
        <time>2018-12-29T12:46:09Z</time>
      </trkpt>
      <trkpt lat="37.311340" lon="-8.823631">
        <ele>60.234</ele>
        <time>2018-12-29T12:46:14Z</time>
      </trkpt>
      <trkpt lat="37.311386" lon="-8.823583">
        <ele>61.680</ele>
        <time>2018-12-29T12:46:20Z</time>
      </trkpt>
      <trkpt lat="37.311406" lon="-8.823573">
        <ele>62.145</ele>
        <time>2018-12-29T12:46:23Z</time>
      </trkpt>
      <trkpt lat="37.311431" lon="-8.823558">
        <ele>63.131</ele>
        <time>2018-12-29T12:46:26Z</time>
      </trkpt>
      <trkpt lat="37.311448" lon="-8.823550">
        <ele>63.568</ele>
        <time>2018-12-29T12:46:28Z</time>
      </trkpt>
      <trkpt lat="37.311473" lon="-8.823531">
        <ele>64.078</ele>
        <time>2018-12-29T12:46:31Z</time>
      </trkpt>
      <trkpt lat="37.311587" lon="-8.823497">
        <ele>66.433</ele>
        <time>2018-12-29T12:46:42Z</time>
      </trkpt>
      <trkpt lat="37.311625" lon="-8.823477">
        <ele>67.426</ele>
        <time>2018-12-29T12:46:46Z</time>
      </trkpt>
      <trkpt lat="37.311735" lon="-8.823437">
        <ele>68.808</ele>
        <time>2018-12-29T12:46:58Z</time>
      </trkpt>
      <trkpt lat="37.311755" lon="-8.823443">
        <ele>69.350</ele>
        <time>2018-12-29T12:47:01Z</time>
      </trkpt>
      <trkpt lat="37.311765" lon="-8.823470">
        <ele>69.358</ele>
        <time>2018-12-29T12:47:04Z</time>
      </trkpt>
      <trkpt lat="37.311795" lon="-8.823492">
        <ele>70.785</ele>
        <time>2018-12-29T12:47:07Z</time>
      </trkpt>
      <trkpt lat="37.311818" lon="-8.823494">
        <ele>71.270</ele>
        <time>2018-12-29T12:47:10Z</time>
      </trkpt>
      <trkpt lat="37.311836" lon="-8.823505">
        <ele>71.716</ele>
        <time>2018-12-29T12:47:12Z</time>
      </trkpt>
      <trkpt lat="37.311904" lon="-8.823502">
        <ele>72.761</ele>
        <time>2018-12-29T12:47:18Z</time>
      </trkpt>
      <trkpt lat="37.311929" lon="-8.823493">
        <ele>73.617</ele>
        <time>2018-12-29T12:47:20Z</time>
      </trkpt>
      <trkpt lat="37.312022" lon="-8.823469">
        <ele>75.644</ele>
        <time>2018-12-29T12:47:29Z</time>
      </trkpt>
      <trkpt lat="37.312063" lon="-8.823451">
        <ele>76.557</ele>
        <time>2018-12-29T12:47:33Z</time>
      </trkpt>
      <trkpt lat="37.312115" lon="-8.823441">
        <ele>77.500</ele>
        <time>2018-12-29T12:47:37Z</time>
      </trkpt>
      <trkpt lat="37.312176" lon="-8.823423">
        <ele>79.420</ele>
        <time>2018-12-29T12:47:43Z</time>
      </trkpt>
      <trkpt lat="37.312246" lon="-8.823411">
        <ele>80.408</ele>
        <time>2018-12-29T12:47:49Z</time>
      </trkpt>
      <trkpt lat="37.312277" lon="-8.823391">
        <ele>81.338</ele>
        <time>2018-12-29T12:47:52Z</time>
      </trkpt>
      <trkpt lat="37.312366" lon="-8.823388">
        <ele>83.266</ele>
        <time>2018-12-29T12:47:59Z</time>
      </trkpt>
      <trkpt lat="37.312425" lon="-8.823368">
        <ele>84.293</ele>
        <time>2018-12-29T12:48:04Z</time>
      </trkpt>
      <trkpt lat="37.312462" lon="-8.823372">
        <ele>85.228</ele>
        <time>2018-12-29T12:48:07Z</time>
      </trkpt>
      <trkpt lat="37.312499" lon="-8.823351">
        <ele>85.684</ele>
        <time>2018-12-29T12:48:10Z</time>
      </trkpt>
      <trkpt lat="37.312547" lon="-8.823348">
        <ele>86.679</ele>
        <time>2018-12-29T12:48:15Z</time>
      </trkpt>
      <trkpt lat="37.312596" lon="-8.823388">
        <ele>88.125</ele>
        <time>2018-12-29T12:48:20Z</time>
      </trkpt>
      <trkpt lat="37.312601" lon="-8.823412">
        <ele>88.582</ele>
        <time>2018-12-29T12:48:22Z</time>
      </trkpt>
      <trkpt lat="37.312582" lon="-8.823467">
        <ele>89.097</ele>
        <time>2018-12-29T12:48:26Z</time>
      </trkpt>
      <trkpt lat="37.312625" lon="-8.823597">
        <ele>90.923</ele>
        <time>2018-12-29T12:48:36Z</time>
      </trkpt>
      <trkpt lat="37.312631" lon="-8.823628">
        <ele>91.425</ele>
        <time>2018-12-29T12:48:38Z</time>
      </trkpt>
      <trkpt lat="37.312677" lon="-8.823696">
        <ele>93.308</ele>
        <time>2018-12-29T12:48:44Z</time>
      </trkpt>
      <trkpt lat="37.312765" lon="-8.823721">
        <ele>94.332</ele>
        <time>2018-12-29T12:48:51Z</time>
      </trkpt>
      <trkpt lat="37.312819" lon="-8.823691">
        <ele>96.210</ele>
        <time>2018-12-29T12:48:57Z</time>
      </trkpt>
      <trkpt lat="37.312886" lon="-8.823638">
        <ele>98.167</ele>
        <time>2018-12-29T12:49:04Z</time>
      </trkpt>
      <trkpt lat="37.312960" lon="-8.823573">
        <ele>99.642</ele>
        <time>2018-12-29T12:49:11Z</time>
      </trkpt>
      <trkpt lat="37.312999" lon="-8.823535">
        <ele>100.198</ele>
        <time>2018-12-29T12:49:15Z</time>
      </trkpt>
      <trkpt lat="37.313036" lon="-8.823498">
        <ele>101.083</ele>
        <time>2018-12-29T12:49:19Z</time>
      </trkpt>
      <trkpt lat="37.313066" lon="-8.823467">
        <ele>101.019</ele>
        <time>2018-12-29T12:49:22Z</time>
      </trkpt>
      <trkpt lat="37.313126" lon="-8.823415">
        <ele>102.066</ele>
        <time>2018-12-29T12:49:28Z</time>
      </trkpt>
      <trkpt lat="37.313230" lon="-8.823334">
        <ele>103.481</ele>
        <time>2018-12-29T12:49:37Z</time>
      </trkpt>
      <trkpt lat="37.313253" lon="-8.823303">
        <ele>103.461</ele>
        <time>2018-12-29T12:49:40Z</time>
      </trkpt>
      <trkpt lat="37.313323" lon="-8.823239">
        <ele>104.417</ele>
        <time>2018-12-29T12:49:48Z</time>
      </trkpt>
      <trkpt lat="37.313449" lon="-8.823225">
        <ele>105.808</ele>
        <time>2018-12-29T12:49:58Z</time>
      </trkpt>
      <trkpt lat="37.313476" lon="-8.823232">
        <ele>105.861</ele>
        <time>2018-12-29T12:50:00Z</time>
      </trkpt>
      <trkpt lat="37.313526" lon="-8.823250">
        <ele>106.319</ele>
        <time>2018-12-29T12:50:04Z</time>
      </trkpt>
      <trkpt lat="37.313674" lon="-8.823345">
        <ele>107.366</ele>
        <time>2018-12-29T12:50:16Z</time>
      </trkpt>
      <trkpt lat="37.313703" lon="-8.823376">
        <ele>107.311</ele>
        <time>2018-12-29T12:50:19Z</time>
      </trkpt>
      <trkpt lat="37.313745" lon="-8.823420">
        <ele>107.397</ele>
        <time>2018-12-29T12:50:24Z</time>
      </trkpt>
      <trkpt lat="37.313772" lon="-8.823459">
        <ele>107.862</ele>
        <time>2018-12-29T12:50:27Z</time>
      </trkpt>
      <trkpt lat="37.313889" lon="-8.823569">
        <ele>107.898</ele>
        <time>2018-12-29T12:50:38Z</time>
      </trkpt>
      <trkpt lat="37.314017" lon="-8.823695">
        <ele>107.335</ele>
        <time>2018-12-29T12:50:50Z</time>
      </trkpt>
      <trkpt lat="37.314035" lon="-8.823716">
        <ele>107.396</ele>
        <time>2018-12-29T12:50:52Z</time>
      </trkpt>
      <trkpt lat="37.314069" lon="-8.823772">
        <ele>107.331</ele>
        <time>2018-12-29T12:50:56Z</time>
      </trkpt>
      <trkpt lat="37.314152" lon="-8.823852">
        <ele>107.824</ele>
        <time>2018-12-29T12:51:04Z</time>
      </trkpt>
      <trkpt lat="37.314211" lon="-8.823875">
        <ele>108.208</ele>
        <time>2018-12-29T12:51:09Z</time>
      </trkpt>
      <trkpt lat="37.314251" lon="-8.823875">
        <ele>108.262</ele>
        <time>2018-12-29T12:51:12Z</time>
      </trkpt>
      <trkpt lat="37.314364" lon="-8.823789">
        <ele>110.280</ele>
        <time>2018-12-29T12:51:23Z</time>
      </trkpt>
      <trkpt lat="37.314464" lon="-8.823694">
        <ele>112.147</ele>
        <time>2018-12-29T12:51:34Z</time>
      </trkpt>
      <trkpt lat="37.314500" lon="-8.823680">
        <ele>112.642</ele>
        <time>2018-12-29T12:51:37Z</time>
      </trkpt>
      <trkpt lat="37.314512" lon="-8.823659">
        <ele>113.088</ele>
        <time>2018-12-29T12:51:39Z</time>
      </trkpt>
      <trkpt lat="37.314630" lon="-8.823579">
        <ele>114.523</ele>
        <time>2018-12-29T12:51:50Z</time>
      </trkpt>
      <trkpt lat="37.314634" lon="-8.823571">
        <ele>115.059</ele>
        <time>2018-12-29T12:51:51Z</time>
      </trkpt>
      <trkpt lat="37.314659" lon="-8.823543">
        <ele>115.066</ele>
        <time>2018-12-29T12:51:54Z</time>
      </trkpt>
      <trkpt lat="37.314795" lon="-8.823441">
        <ele>114.029</ele>
        <time>2018-12-29T12:52:07Z</time>
      </trkpt>
      <trkpt lat="37.314805" lon="-8.823430">
        <ele>114.000</ele>
        <time>2018-12-29T12:52:08Z</time>
      </trkpt>
      <trkpt lat="37.314867" lon="-8.823317">
        <ele>113.520</ele>
        <time>2018-12-29T12:52:18Z</time>
      </trkpt>
      <trkpt lat="37.314882" lon="-8.823265">
        <ele>113.008</ele>
        <time>2018-12-29T12:52:23Z</time>
      </trkpt>
      <trkpt lat="37.314886" lon="-8.823080">
        <ele>113.555</ele>
        <time>2018-12-29T12:52:36Z</time>
      </trkpt>
      <trkpt lat="37.314874" lon="-8.822914">
        <ele>113.573</ele>
        <time>2018-12-29T12:52:47Z</time>
      </trkpt>
      <trkpt lat="37.314868" lon="-8.822872">
        <ele>114.020</ele>
        <time>2018-12-29T12:52:52Z</time>
      </trkpt>
      <trkpt lat="37.314869" lon="-8.822767">
        <ele>114.085</ele>
        <time>2018-12-29T12:53:00Z</time>
      </trkpt>
      <trkpt lat="37.314864" lon="-8.822685">
        <ele>114.071</ele>
        <time>2018-12-29T12:53:04Z</time>
      </trkpt>
      <trkpt lat="37.314858" lon="-8.822636">
        <ele>114.536</ele>
        <time>2018-12-29T12:53:07Z</time>
      </trkpt>
      <trkpt lat="37.314823" lon="-8.822454">
        <ele>115.062</ele>
        <time>2018-12-29T12:53:21Z</time>
      </trkpt>
      <trkpt lat="37.314820" lon="-8.822390">
        <ele>115.019</ele>
        <time>2018-12-29T12:53:25Z</time>
      </trkpt>
      <trkpt lat="37.314796" lon="-8.822227">
        <ele>115.518</ele>
        <time>2018-12-29T12:53:35Z</time>
      </trkpt>
      <trkpt lat="37.314810" lon="-8.822174">
        <ele>115.598</ele>
        <time>2018-12-29T12:53:39Z</time>
      </trkpt>
      <trkpt lat="37.314807" lon="-8.821973">
        <ele>115.917</ele>
        <time>2018-12-29T12:53:53Z</time>
      </trkpt>
      <trkpt lat="37.314770" lon="-8.821740">
        <ele>116.408</ele>
        <time>2018-12-29T12:54:06Z</time>
      </trkpt>
      <trkpt lat="37.314761" lon="-8.821693">
        <ele>116.484</ele>
        <time>2018-12-29T12:54:09Z</time>
      </trkpt>
      <trkpt lat="37.314745" lon="-8.821643">
        <ele>116.972</ele>
        <time>2018-12-29T12:54:12Z</time>
      </trkpt>
      <trkpt lat="37.314737" lon="-8.821539">
        <ele>116.479</ele>
        <time>2018-12-29T12:54:19Z</time>
      </trkpt>
      <trkpt lat="37.314706" lon="-8.821444">
        <ele>116.424</ele>
        <time>2018-12-29T12:54:25Z</time>
      </trkpt>
      <trkpt lat="37.314667" lon="-8.821274">
        <ele>116.430</ele>
        <time>2018-12-29T12:54:36Z</time>
      </trkpt>
      <trkpt lat="37.314669" lon="-8.821208">
        <ele>116.925</ele>
        <time>2018-12-29T12:54:40Z</time>
      </trkpt>
      <trkpt lat="37.314631" lon="-8.820980">
        <ele>115.921</ele>
        <time>2018-12-29T12:54:55Z</time>
      </trkpt>
      <trkpt lat="37.314630" lon="-8.820967">
        <ele>115.528</ele>
        <time>2018-12-29T12:54:56Z</time>
      </trkpt>
      <trkpt lat="37.314587" lon="-8.820778">
        <ele>115.555</ele>
        <time>2018-12-29T12:55:08Z</time>
      </trkpt>
      <trkpt lat="37.314568" lon="-8.820683">
        <ele>115.507</ele>
        <time>2018-12-29T12:55:14Z</time>
      </trkpt>
      <trkpt lat="37.314519" lon="-8.820446">
        <ele>115.017</ele>
        <time>2018-12-29T12:55:30Z</time>
      </trkpt>
      <trkpt lat="37.314500" lon="-8.820337">
        <ele>114.508</ele>
        <time>2018-12-29T12:55:37Z</time>
      </trkpt>
      <trkpt lat="37.314463" lon="-8.820198">
        <ele>114.578</ele>
        <time>2018-12-29T12:55:46Z</time>
      </trkpt>
      <trkpt lat="37.314444" lon="-8.820131">
        <ele>114.586</ele>
        <time>2018-12-29T12:55:51Z</time>
      </trkpt>
      <trkpt lat="37.314386" lon="-8.819926">
        <ele>114.073</ele>
        <time>2018-12-29T12:56:05Z</time>
      </trkpt>
      <trkpt lat="37.314376" lon="-8.819886">
        <ele>113.518</ele>
        <time>2018-12-29T12:56:08Z</time>
      </trkpt>
      <trkpt lat="37.314342" lon="-8.819720">
        <ele>114.074</ele>
        <time>2018-12-29T12:56:19Z</time>
      </trkpt>
      <trkpt lat="37.314325" lon="-8.819539">
        <ele>113.589</ele>
        <time>2018-12-29T12:56:31Z</time>
      </trkpt>
      <trkpt lat="37.314312" lon="-8.819501">
        <ele>113.575</ele>
        <time>2018-12-29T12:56:34Z</time>
      </trkpt>
      <trkpt lat="37.314276" lon="-8.819313">
        <ele>113.582</ele>
        <time>2018-12-29T12:56:47Z</time>
      </trkpt>
      <trkpt lat="37.314248" lon="-8.819179">
        <ele>113.545</ele>
        <time>2018-12-29T12:56:56Z</time>
      </trkpt>
      <trkpt lat="37.314237" lon="-8.819137">
        <ele>113.547</ele>
        <time>2018-12-29T12:56:59Z</time>
      </trkpt>
      <trkpt lat="37.314259" lon="-8.818946">
        <ele>113.011</ele>
        <time>2018-12-29T12:57:12Z</time>
      </trkpt>
      <trkpt lat="37.314287" lon="-8.818866">
        <ele>113.008</ele>
        <time>2018-12-29T12:57:18Z</time>
      </trkpt>
      <trkpt lat="37.314324" lon="-8.818706">
        <ele>114.087</ele>
        <time>2018-12-29T12:57:29Z</time>
      </trkpt>
      <trkpt lat="37.314346" lon="-8.818654">
        <ele>114.035</ele>
        <time>2018-12-29T12:57:33Z</time>
      </trkpt>
      <trkpt lat="37.314360" lon="-8.818549">
        <ele>114.572</ele>
        <time>2018-12-29T12:57:40Z</time>
      </trkpt>
      <trkpt lat="37.314352" lon="-8.818405">
        <ele>115.947</ele>
        <time>2018-12-29T12:57:50Z</time>
      </trkpt>
      <trkpt lat="37.314351" lon="-8.818388">
        <ele>116.483</ele>
        <time>2018-12-29T12:57:51Z</time>
      </trkpt>
      <trkpt lat="37.314360" lon="-8.818312">
        <ele>116.938</ele>
        <time>2018-12-29T12:57:56Z</time>
      </trkpt>
      <trkpt lat="37.314393" lon="-8.818212">
        <ele>117.484</ele>
        <time>2018-12-29T12:58:04Z</time>
      </trkpt>
      <trkpt lat="37.314404" lon="-8.818190">
        <ele>117.961</ele>
        <time>2018-12-29T12:58:06Z</time>
      </trkpt>
      <trkpt lat="37.314413" lon="-8.818144">
        <ele>118.818</ele>
        <time>2018-12-29T12:58:09Z</time>
      </trkpt>
      <trkpt lat="37.314427" lon="-8.818100">
        <ele>119.398</ele>
        <time>2018-12-29T12:58:12Z</time>
      </trkpt>
      <trkpt lat="37.314406" lon="-8.817936">
        <ele>120.317</ele>
        <time>2018-12-29T12:58:22Z</time>
      </trkpt>
      <trkpt lat="37.314412" lon="-8.817886">
        <ele>120.708</ele>
        <time>2018-12-29T12:58:25Z</time>
      </trkpt>
      <trkpt lat="37.314413" lon="-8.817787">
        <ele>121.294</ele>
        <time>2018-12-29T12:58:31Z</time>
      </trkpt>
      <trkpt lat="37.314441" lon="-8.817639">
        <ele>122.222</ele>
        <time>2018-12-29T12:58:42Z</time>
      </trkpt>
      <trkpt lat="37.314462" lon="-8.817462">
        <ele>122.279</ele>
        <time>2018-12-29T12:58:53Z</time>
      </trkpt>
      <trkpt lat="37.314464" lon="-8.817430">
        <ele>121.714</ele>
        <time>2018-12-29T12:58:55Z</time>
      </trkpt>
      <trkpt lat="37.314453" lon="-8.817345">
        <ele>121.710</ele>
        <time>2018-12-29T12:59:02Z</time>
      </trkpt>
      <trkpt lat="37.314462" lon="-8.817232">
        <ele>121.755</ele>
        <time>2018-12-29T12:59:10Z</time>
      </trkpt>
      <trkpt lat="37.314466" lon="-8.817187">
        <ele>121.751</ele>
        <time>2018-12-29T12:59:13Z</time>
      </trkpt>
      <trkpt lat="37.314456" lon="-8.816966">
        <ele>122.218</ele>
        <time>2018-12-29T12:59:26Z</time>
      </trkpt>
      <trkpt lat="37.314441" lon="-8.816777">
        <ele>121.747</ele>
        <time>2018-12-29T12:59:38Z</time>
      </trkpt>
      <trkpt lat="37.314442" lon="-8.816760">
        <ele>121.729</ele>
        <time>2018-12-29T12:59:39Z</time>
      </trkpt>
      <trkpt lat="37.314435" lon="-8.816730">
        <ele>121.221</ele>
        <time>2018-12-29T12:59:41Z</time>
      </trkpt>
      <trkpt lat="37.314433" lon="-8.816648">
        <ele>121.208</ele>
        <time>2018-12-29T12:59:46Z</time>
      </trkpt>
      <trkpt lat="37.314391" lon="-8.816512">
        <ele>120.367</ele>
        <time>2018-12-29T12:59:55Z</time>
      </trkpt>
      <trkpt lat="37.314396" lon="-8.816437">
        <ele>120.375</ele>
        <time>2018-12-29T13:00:01Z</time>
      </trkpt>
      <trkpt lat="37.314396" lon="-8.816405">
        <ele>120.352</ele>
        <time>2018-12-29T13:00:03Z</time>
      </trkpt>
      <trkpt lat="37.314411" lon="-8.816315">
        <ele>119.897</ele>
        <time>2018-12-29T13:00:09Z</time>
      </trkpt>
      <trkpt lat="37.314456" lon="-8.816194">
        <ele>119.373</ele>
        <time>2018-12-29T13:00:17Z</time>
      </trkpt>
      <trkpt lat="37.314536" lon="-8.816096">
        <ele>119.368</ele>
        <time>2018-12-29T13:00:26Z</time>
      </trkpt>
      <trkpt lat="37.314586" lon="-8.815995">
        <ele>119.354</ele>
        <time>2018-12-29T13:00:34Z</time>
      </trkpt>
      <trkpt lat="37.314610" lon="-8.815975">
        <ele>118.811</ele>
        <time>2018-12-29T13:00:36Z</time>
      </trkpt>
      <trkpt lat="37.314638" lon="-8.815923">
        <ele>118.315</ele>
        <time>2018-12-29T13:00:40Z</time>
      </trkpt>
      <trkpt lat="37.314678" lon="-8.815842">
        <ele>117.965</ele>
        <time>2018-12-29T13:00:46Z</time>
      </trkpt>
      <trkpt lat="37.314714" lon="-8.815805">
        <ele>117.411</ele>
        <time>2018-12-29T13:00:49Z</time>
      </trkpt>
      <trkpt lat="37.314739" lon="-8.815721">
        <ele>116.408</ele>
        <time>2018-12-29T13:00:55Z</time>
      </trkpt>
      <trkpt lat="37.314833" lon="-8.815633">
        <ele>115.924</ele>
        <time>2018-12-29T13:01:05Z</time>
      </trkpt>
      <trkpt lat="37.314988" lon="-8.815588">
        <ele>116.482</ele>
        <time>2018-12-29T13:01:17Z</time>
      </trkpt>
      <trkpt lat="37.315062" lon="-8.815549">
        <ele>115.599</ele>
        <time>2018-12-29T13:01:25Z</time>
      </trkpt>
      <trkpt lat="37.315173" lon="-8.815549">
        <ele>116.494</ele>
        <time>2018-12-29T13:01:34Z</time>
      </trkpt>
      <trkpt lat="37.315215" lon="-8.815548">
        <ele>115.940</ele>
        <time>2018-12-29T13:01:38Z</time>
      </trkpt>
      <trkpt lat="37.315362" lon="-8.815584">
        <ele>115.535</ele>
        <time>2018-12-29T13:01:50Z</time>
      </trkpt>
      <trkpt lat="37.315534" lon="-8.815677">
        <ele>114.571</ele>
        <time>2018-12-29T13:02:05Z</time>
      </trkpt>
      <trkpt lat="37.315652" lon="-8.815742">
        <ele>111.628</ele>
        <time>2018-12-29T13:02:16Z</time>
      </trkpt>
      <trkpt lat="37.315740" lon="-8.815771">
        <ele>110.685</ele>
        <time>2018-12-29T13:02:23Z</time>
      </trkpt>
      <trkpt lat="37.315774" lon="-8.815717">
        <ele>110.289</ele>
        <time>2018-12-29T13:02:28Z</time>
      </trkpt>
      <trkpt lat="37.315786" lon="-8.815668">
        <ele>109.217</ele>
        <time>2018-12-29T13:02:31Z</time>
      </trkpt>
      <trkpt lat="37.315763" lon="-8.815602">
        <ele>108.208</ele>
        <time>2018-12-29T13:02:35Z</time>
      </trkpt>
      <trkpt lat="37.315734" lon="-8.815457">
        <ele>106.881</ele>
        <time>2018-12-29T13:02:45Z</time>
      </trkpt>
      <trkpt lat="37.315774" lon="-8.815411">
        <ele>106.379</ele>
        <time>2018-12-29T13:02:49Z</time>
      </trkpt>
      <trkpt lat="37.315785" lon="-8.815376">
        <ele>105.816</ele>
        <time>2018-12-29T13:02:52Z</time>
      </trkpt>
      <trkpt lat="37.315911" lon="-8.815341">
        <ele>103.081</ele>
        <time>2018-12-29T13:03:02Z</time>
      </trkpt>
      <trkpt lat="37.316005" lon="-8.815313">
        <ele>102.517</ele>
        <time>2018-12-29T13:03:09Z</time>
      </trkpt>
      <trkpt lat="37.316045" lon="-8.815313">
        <ele>102.082</ele>
        <time>2018-12-29T13:03:12Z</time>
      </trkpt>
      <trkpt lat="37.316108" lon="-8.815299">
        <ele>101.078</ele>
        <time>2018-12-29T13:03:18Z</time>
      </trkpt>
      <trkpt lat="37.316204" lon="-8.815257">
        <ele>99.165</ele>
        <time>2018-12-29T13:03:27Z</time>
      </trkpt>
      <trkpt lat="37.316240" lon="-8.815253">
        <ele>99.138</ele>
        <time>2018-12-29T13:03:34Z</time>
      </trkpt>
      <trkpt lat="37.316257" lon="-8.815242">
        <ele>99.170</ele>
        <time>2018-12-29T13:03:37Z</time>
      </trkpt>
      <trkpt lat="37.316344" lon="-8.815134">
        <ele>96.717</ele>
        <time>2018-12-29T13:03:49Z</time>
      </trkpt>
      <trkpt lat="37.316339" lon="-8.815123">
        <ele>97.208</ele>
        <time>2018-12-29T13:03:50Z</time>
      </trkpt>
      <trkpt lat="37.316334" lon="-8.815074">
        <ele>96.766</ele>
        <time>2018-12-29T13:03:53Z</time>
      </trkpt>
      <trkpt lat="37.316323" lon="-8.815033">
        <ele>95.754</ele>
        <time>2018-12-29T13:03:56Z</time>
      </trkpt>
      <trkpt lat="37.316303" lon="-8.814904">
        <ele>93.851</ele>
        <time>2018-12-29T13:04:05Z</time>
      </trkpt>
      <trkpt lat="37.316331" lon="-8.814768">
        <ele>92.456</ele>
        <time>2018-12-29T13:04:14Z</time>
      </trkpt>
      <trkpt lat="37.316327" lon="-8.814647">
        <ele>90.572</ele>
        <time>2018-12-29T13:04:22Z</time>
      </trkpt>
      <trkpt lat="37.316338" lon="-8.814567">
        <ele>89.577</ele>
        <time>2018-12-29T13:04:27Z</time>
      </trkpt>
      <trkpt lat="37.316351" lon="-8.814539">
        <ele>89.093</ele>
        <time>2018-12-29T13:04:29Z</time>
      </trkpt>
      <trkpt lat="37.316446" lon="-8.814410">
        <ele>85.610</ele>
        <time>2018-12-29T13:04:40Z</time>
      </trkpt>
      <trkpt lat="37.316504" lon="-8.814354">
        <ele>85.237</ele>
        <time>2018-12-29T13:04:46Z</time>
      </trkpt>
      <trkpt lat="37.316548" lon="-8.814321">
        <ele>84.749</ele>
        <time>2018-12-29T13:04:50Z</time>
      </trkpt>
      <trkpt lat="37.316567" lon="-8.814300">
        <ele>84.213</ele>
        <time>2018-12-29T13:04:52Z</time>
      </trkpt>
      <trkpt lat="37.316608" lon="-8.814275">
        <ele>84.208</ele>
        <time>2018-12-29T13:05:04Z</time>
      </trkpt>
      <trkpt lat="37.316608" lon="-8.814275">
        <ele>84.296</ele>
        <time>2018-12-29T13:05:12Z</time>
      </trkpt>
      <trkpt lat="37.316621" lon="-8.814252">
        <ele>83.744</ele>
        <time>2018-12-29T13:05:15Z</time>
      </trkpt>
      <trkpt lat="37.316677" lon="-8.814184">
        <ele>83.281</ele>
        <time>2018-12-29T13:05:22Z</time>
      </trkpt>
      <trkpt lat="37.316706" lon="-8.814172">
        <ele>83.256</ele>
        <time>2018-12-29T13:05:25Z</time>
      </trkpt>
      <trkpt lat="37.316740" lon="-8.814184">
        <ele>83.232</ele>
        <time>2018-12-29T13:05:40Z</time>
      </trkpt>
      <trkpt lat="37.316746" lon="-8.814157">
        <ele>83.257</ele>
        <time>2018-12-29T13:05:43Z</time>
      </trkpt>
      <trkpt lat="37.316771" lon="-8.814108">
        <ele>82.873</ele>
        <time>2018-12-29T13:05:47Z</time>
      </trkpt>
      <trkpt lat="37.316800" lon="-8.814066">
        <ele>82.360</ele>
        <time>2018-12-29T13:05:51Z</time>
      </trkpt>
      <trkpt lat="37.316877" lon="-8.813936">
        <ele>81.397</ele>
        <time>2018-12-29T13:06:01Z</time>
      </trkpt>
      <trkpt lat="37.316903" lon="-8.813903">
        <ele>81.323</ele>
        <time>2018-12-29T13:06:04Z</time>
      </trkpt>
      <trkpt lat="37.316945" lon="-8.813849">
        <ele>81.325</ele>
        <time>2018-12-29T13:06:09Z</time>
      </trkpt>
      <trkpt lat="37.317032" lon="-8.813752">
        <ele>81.308</ele>
        <time>2018-12-29T13:06:21Z</time>
      </trkpt>
      <trkpt lat="37.317112" lon="-8.813692">
        <ele>80.412</ele>
        <time>2018-12-29T13:06:28Z</time>
      </trkpt>
      <trkpt lat="37.317182" lon="-8.813612">
        <ele>78.910</ele>
        <time>2018-12-29T13:06:36Z</time>
      </trkpt>
      <trkpt lat="37.317244" lon="-8.813574">
        <ele>78.057</ele>
        <time>2018-12-29T13:06:41Z</time>
      </trkpt>
      <trkpt lat="37.317249" lon="-8.813535">
        <ele>77.532</ele>
        <time>2018-12-29T13:06:44Z</time>
      </trkpt>
      <trkpt lat="37.317364" lon="-8.813412">
        <ele>75.678</ele>
        <time>2018-12-29T13:06:56Z</time>
      </trkpt>
      <trkpt lat="37.317460" lon="-8.813262">
        <ele>74.113</ele>
        <time>2018-12-29T13:07:08Z</time>
      </trkpt>
      <trkpt lat="37.317518" lon="-8.813173">
        <ele>73.699</ele>
        <time>2018-12-29T13:07:15Z</time>
      </trkpt>
      <trkpt lat="37.317557" lon="-8.813081">
        <ele>72.716</ele>
        <time>2018-12-29T13:07:23Z</time>
      </trkpt>
      <trkpt lat="37.317574" lon="-8.812977">
        <ele>71.219</ele>
        <time>2018-12-29T13:07:36Z</time>
      </trkpt>
      <trkpt lat="37.317579" lon="-8.812975">
        <ele>71.209</ele>
        <time>2018-12-29T13:07:42Z</time>
      </trkpt>
      <trkpt lat="37.317661" lon="-8.812903">
        <ele>69.819</ele>
        <time>2018-12-29T13:07:49Z</time>
      </trkpt>
      <trkpt lat="37.317676" lon="-8.812885">
        <ele>69.808</ele>
        <time>2018-12-29T13:07:51Z</time>
      </trkpt>
      <trkpt lat="37.317715" lon="-8.812845">
        <ele>68.374</ele>
        <time>2018-12-29T13:07:55Z</time>
      </trkpt>
      <trkpt lat="37.317749" lon="-8.812773">
        <ele>66.972</ele>
        <time>2018-12-29T13:08:01Z</time>
      </trkpt>
      <trkpt lat="37.317792" lon="-8.812680">
        <ele>65.929</ele>
        <time>2018-12-29T13:08:09Z</time>
      </trkpt>
      <trkpt lat="37.317909" lon="-8.812596">
        <ele>63.174</ele>
        <time>2018-12-29T13:08:20Z</time>
      </trkpt>
      <trkpt lat="37.317983" lon="-8.812578">
        <ele>61.110</ele>
        <time>2018-12-29T13:08:25Z</time>
      </trkpt>
      <trkpt lat="37.318068" lon="-8.812550">
        <ele>59.765</ele>
        <time>2018-12-29T13:08:32Z</time>
      </trkpt>
      <trkpt lat="37.318105" lon="-8.812537">
        <ele>58.791</ele>
        <time>2018-12-29T13:08:43Z</time>
      </trkpt>
      <trkpt lat="37.318127" lon="-8.812530">
        <ele>58.328</ele>
        <time>2018-12-29T13:08:45Z</time>
      </trkpt>
      <trkpt lat="37.318234" lon="-8.812544">
        <ele>56.373</ele>
        <time>2018-12-29T13:08:54Z</time>
      </trkpt>
      <trkpt lat="37.318337" lon="-8.812638">
        <ele>53.985</ele>
        <time>2018-12-29T13:09:06Z</time>
      </trkpt>
      <trkpt lat="37.318343" lon="-8.812643">
        <ele>53.413</ele>
        <time>2018-12-29T13:09:10Z</time>
      </trkpt>
      <trkpt lat="37.318383" lon="-8.812675">
        <ele>52.508</ele>
        <time>2018-12-29T13:09:14Z</time>
      </trkpt>
      <trkpt lat="37.318453" lon="-8.812727">
        <ele>50.610</ele>
        <time>2018-12-29T13:09:21Z</time>
      </trkpt>
      <trkpt lat="37.318531" lon="-8.812709">
        <ele>48.688</ele>
        <time>2018-12-29T13:09:28Z</time>
      </trkpt>
      <trkpt lat="37.318563" lon="-8.812610">
        <ele>46.735</ele>
        <time>2018-12-29T13:09:35Z</time>
      </trkpt>
      <trkpt lat="37.318522" lon="-8.812421">
        <ele>43.480</ele>
        <time>2018-12-29T13:09:48Z</time>
      </trkpt>
      <trkpt lat="37.318523" lon="-8.812410">
        <ele>43.416</ele>
        <time>2018-12-29T13:09:49Z</time>
      </trkpt>
      <trkpt lat="37.318537" lon="-8.812363">
        <ele>41.921</ele>
        <time>2018-12-29T13:09:53Z</time>
      </trkpt>
      <trkpt lat="37.318571" lon="-8.812344">
        <ele>40.937</ele>
        <time>2018-12-29T13:09:57Z</time>
      </trkpt>
      <trkpt lat="37.318618" lon="-8.812336">
        <ele>39.554</ele>
        <time>2018-12-29T13:10:01Z</time>
      </trkpt>
      <trkpt lat="37.318659" lon="-8.812332">
        <ele>39.042</ele>
        <time>2018-12-29T13:10:04Z</time>
      </trkpt>
      <trkpt lat="37.318681" lon="-8.812334">
        <ele>38.522</ele>
        <time>2018-12-29T13:10:06Z</time>
      </trkpt>
      <trkpt lat="37.318835" lon="-8.812337">
        <ele>35.714</ele>
        <time>2018-12-29T13:10:18Z</time>
      </trkpt>
      <trkpt lat="37.318955" lon="-8.812342">
        <ele>33.708</ele>
        <time>2018-12-29T13:10:29Z</time>
      </trkpt>
      <trkpt lat="37.319006" lon="-8.812338">
        <ele>32.847</ele>
        <time>2018-12-29T13:10:33Z</time>
      </trkpt>
      <trkpt lat="37.319039" lon="-8.812330">
        <ele>32.815</ele>
        <time>2018-12-29T13:10:36Z</time>
      </trkpt>
      <trkpt lat="37.319075" lon="-8.812320">
        <ele>31.822</ele>
        <time>2018-12-29T13:10:40Z</time>
      </trkpt>
      <trkpt lat="37.319110" lon="-8.812304">
        <ele>30.987</ele>
        <time>2018-12-29T13:10:44Z</time>
      </trkpt>
      <trkpt lat="37.319134" lon="-8.812270">
        <ele>30.953</ele>
        <time>2018-12-29T13:10:48Z</time>
      </trkpt>
      <trkpt lat="37.319154" lon="-8.812202">
        <ele>29.978</ele>
        <time>2018-12-29T13:10:55Z</time>
      </trkpt>
      <trkpt lat="37.319104" lon="-8.812166">
        <ele>28.964</ele>
        <time>2018-12-29T13:11:02Z</time>
      </trkpt>
      <trkpt lat="37.318993" lon="-8.812080">
        <ele>26.581</ele>
        <time>2018-12-29T13:11:14Z</time>
      </trkpt>
      <trkpt lat="37.318962" lon="-8.812061">
        <ele>26.593</ele>
        <time>2018-12-29T13:11:17Z</time>
      </trkpt>
      <trkpt lat="37.318875" lon="-8.812001">
        <ele>25.165</ele>
        <time>2018-12-29T13:11:26Z</time>
      </trkpt>
      <trkpt lat="37.318853" lon="-8.811925">
        <ele>25.121</ele>
        <time>2018-12-29T13:11:33Z</time>
      </trkpt>
      <trkpt lat="37.318882" lon="-8.811880">
        <ele>24.608</ele>
        <time>2018-12-29T13:11:43Z</time>
      </trkpt>
      <trkpt lat="37.318889" lon="-8.811840">
        <ele>24.622</ele>
        <time>2018-12-29T13:11:46Z</time>
      </trkpt>
      <trkpt lat="37.318886" lon="-8.811800">
        <ele>24.140</ele>
        <time>2018-12-29T13:11:49Z</time>
      </trkpt>
      <trkpt lat="37.318828" lon="-8.811596">
        <ele>21.257</ele>
        <time>2018-12-29T13:12:03Z</time>
      </trkpt>
      <trkpt lat="37.318752" lon="-8.811388">
        <ele>18.812</ele>
        <time>2018-12-29T13:12:17Z</time>
      </trkpt>
      <trkpt lat="37.318732" lon="-8.811323">
        <ele>17.478</ele>
        <time>2018-12-29T13:12:22Z</time>
      </trkpt>
      <trkpt lat="37.318655" lon="-8.811152">
        <ele>15.023</ele>
        <time>2018-12-29T13:12:36Z</time>
      </trkpt>
      <trkpt lat="37.318615" lon="-8.811033">
        <ele>14.019</ele>
        <time>2018-12-29T13:12:45Z</time>
      </trkpt>
      <trkpt lat="37.318520" lon="-8.810944">
        <ele>13.616</ele>
        <time>2018-12-29T13:12:55Z</time>
      </trkpt>
      <trkpt lat="37.318412" lon="-8.810869">
        <ele>13.656</ele>
        <time>2018-12-29T13:13:06Z</time>
      </trkpt>
      <trkpt lat="37.318404" lon="-8.810842">
        <ele>13.659</ele>
        <time>2018-12-29T13:13:08Z</time>
      </trkpt>
      <trkpt lat="37.318301" lon="-8.810751">
        <ele>14.014</ele>
        <time>2018-12-29T13:13:23Z</time>
      </trkpt>
      <trkpt lat="37.318301" lon="-8.810751">
        <ele>13.608</ele>
        <time>2018-12-29T13:13:44Z</time>
      </trkpt>
      <trkpt lat="37.318218" lon="-8.810666">
        <ele>13.618</ele>
        <time>2018-12-29T13:13:53Z</time>
      </trkpt>
      <trkpt lat="37.318189" lon="-8.810653">
        <ele>14.076</ele>
        <time>2018-12-29T13:13:56Z</time>
      </trkpt>
      <trkpt lat="37.318131" lon="-8.810597">
        <ele>14.063</ele>
        <time>2018-12-29T13:14:02Z</time>
      </trkpt>
      <trkpt lat="37.318021" lon="-8.810522">
        <ele>14.018</ele>
        <time>2018-12-29T13:14:13Z</time>
      </trkpt>
      <trkpt lat="37.317885" lon="-8.810432">
        <ele>13.144</ele>
        <time>2018-12-29T13:14:25Z</time>
      </trkpt>
      <trkpt lat="37.317711" lon="-8.810401">
        <ele>13.619</ele>
        <time>2018-12-29T13:14:38Z</time>
      </trkpt>
      <trkpt lat="37.317544" lon="-8.810389">
        <ele>14.575</ele>
        <time>2018-12-29T13:14:52Z</time>
      </trkpt>
      <trkpt lat="37.317466" lon="-8.810392">
        <ele>15.542</ele>
        <time>2018-12-29T13:14:59Z</time>
      </trkpt>
      <trkpt lat="37.317295" lon="-8.810336">
        <ele>15.514</ele>
        <time>2018-12-29T13:15:13Z</time>
      </trkpt>
      <trkpt lat="37.317269" lon="-8.810320">
        <ele>14.554</ele>
        <time>2018-12-29T13:15:15Z</time>
      </trkpt>
      <trkpt lat="37.317246" lon="-8.810318">
        <ele>15.009</ele>
        <time>2018-12-29T13:15:17Z</time>
      </trkpt>
      <trkpt lat="37.317218" lon="-8.810292">
        <ele>14.508</ele>
        <time>2018-12-29T13:15:20Z</time>
      </trkpt>
      <trkpt lat="37.317180" lon="-8.810278">
        <ele>15.094</ele>
        <time>2018-12-29T13:15:23Z</time>
      </trkpt>
      <trkpt lat="37.317130" lon="-8.810263">
        <ele>15.072</ele>
        <time>2018-12-29T13:15:27Z</time>
      </trkpt>
      <trkpt lat="37.317080" lon="-8.810232">
        <ele>15.589</ele>
        <time>2018-12-29T13:15:32Z</time>
      </trkpt>
      <trkpt lat="37.317040" lon="-8.810205">
        <ele>15.534</ele>
        <time>2018-12-29T13:15:35Z</time>
      </trkpt>
      <trkpt lat="37.316969" lon="-8.810154">
        <ele>16.010</ele>
        <time>2018-12-29T13:15:42Z</time>
      </trkpt>
      <trkpt lat="37.316948" lon="-8.810133">
        <ele>16.015</ele>
        <time>2018-12-29T13:15:44Z</time>
      </trkpt>
      <trkpt lat="37.316913" lon="-8.810119">
        <ele>16.061</ele>
        <time>2018-12-29T13:15:47Z</time>
      </trkpt>
      <trkpt lat="37.316857" lon="-8.810056">
        <ele>16.038</ele>
        <time>2018-12-29T13:15:53Z</time>
      </trkpt>
      <trkpt lat="37.316834" lon="-8.810052">
        <ele>16.044</ele>
        <time>2018-12-29T13:15:55Z</time>
      </trkpt>
      <trkpt lat="37.316771" lon="-8.809976">
        <ele>16.005</ele>
        <time>2018-12-29T13:16:02Z</time>
      </trkpt>
      <trkpt lat="37.316707" lon="-8.809884">
        <ele>16.415</ele>
        <time>2018-12-29T13:16:10Z</time>
      </trkpt>
      <trkpt lat="37.316666" lon="-8.809837">
        <ele>16.908</ele>
        <time>2018-12-29T13:16:15Z</time>
      </trkpt>
      <trkpt lat="37.316640" lon="-8.809745">
        <ele>16.467</ele>
        <time>2018-12-29T13:16:20Z</time>
      </trkpt>
      <trkpt lat="37.316560" lon="-8.809550">
        <ele>16.015</ele>
        <time>2018-12-29T13:16:33Z</time>
      </trkpt>
      <trkpt lat="37.316490" lon="-8.809338">
        <ele>16.032</ele>
        <time>2018-12-29T13:16:47Z</time>
      </trkpt>
      <trkpt lat="37.316457" lon="-8.809217">
        <ele>16.417</ele>
        <time>2018-12-29T13:16:55Z</time>
      </trkpt>
      <trkpt lat="37.316426" lon="-8.809120">
        <ele>16.063</ele>
        <time>2018-12-29T13:17:01Z</time>
      </trkpt>
      <trkpt lat="37.316379" lon="-8.808921">
        <ele>16.078</ele>
        <time>2018-12-29T13:17:14Z</time>
      </trkpt>
      <trkpt lat="37.316325" lon="-8.808705">
        <ele>15.594</ele>
        <time>2018-12-29T13:17:28Z</time>
      </trkpt>
      <trkpt lat="37.316290" lon="-8.808586">
        <ele>15.091</ele>
        <time>2018-12-29T13:17:36Z</time>
      </trkpt>
      <trkpt lat="37.316275" lon="-8.808471">
        <ele>14.575</ele>
        <time>2018-12-29T13:17:43Z</time>
      </trkpt>
      <trkpt lat="37.316267" lon="-8.808341">
        <ele>14.528</ele>
        <time>2018-12-29T13:17:51Z</time>
      </trkpt>
      <trkpt lat="37.316308" lon="-8.808229">
        <ele>14.520</ele>
        <time>2018-12-29T13:17:59Z</time>
      </trkpt>
      <trkpt lat="37.316462" lon="-8.808062">
        <ele>14.008</ele>
        <time>2018-12-29T13:18:15Z</time>
      </trkpt>
      <trkpt lat="37.316485" lon="-8.808046">
        <ele>14.560</ele>
        <time>2018-12-29T13:18:17Z</time>
      </trkpt>
      <trkpt lat="37.316498" lon="-8.807976">
        <ele>14.038</ele>
        <time>2018-12-29T13:18:26Z</time>
      </trkpt>
      <trkpt lat="37.316522" lon="-8.807923">
        <ele>14.585</ele>
        <time>2018-12-29T13:18:30Z</time>
      </trkpt>
      <trkpt lat="37.316557" lon="-8.807831">
        <ele>15.550</ele>
        <time>2018-12-29T13:18:37Z</time>
      </trkpt>
      <trkpt lat="37.316574" lon="-8.807813">
        <ele>15.556</ele>
        <time>2018-12-29T13:18:39Z</time>
      </trkpt>
      <trkpt lat="37.316607" lon="-8.807762">
        <ele>16.071</ele>
        <time>2018-12-29T13:18:44Z</time>
      </trkpt>
      <trkpt lat="37.316652" lon="-8.807727">
        <ele>16.457</ele>
        <time>2018-12-29T13:18:48Z</time>
      </trkpt>
      <trkpt lat="37.316721" lon="-8.807622">
        <ele>15.544</ele>
        <time>2018-12-29T13:18:57Z</time>
      </trkpt>
      <trkpt lat="37.316766" lon="-8.807525">
        <ele>15.025</ele>
        <time>2018-12-29T13:19:04Z</time>
      </trkpt>
      <trkpt lat="37.316858" lon="-8.807426">
        <ele>14.526</ele>
        <time>2018-12-29T13:19:13Z</time>
      </trkpt>
      <trkpt lat="37.316917" lon="-8.807319">
        <ele>14.508</ele>
        <time>2018-12-29T13:19:21Z</time>
      </trkpt>
      <trkpt lat="37.316970" lon="-8.807242">
        <ele>14.008</ele>
        <time>2018-12-29T13:19:27Z</time>
      </trkpt>
      <trkpt lat="37.316982" lon="-8.807216">
        <ele>14.545</ele>
        <time>2018-12-29T13:19:29Z</time>
      </trkpt>
      <trkpt lat="37.317001" lon="-8.807147">
        <ele>14.063</ele>
        <time>2018-12-29T13:19:34Z</time>
      </trkpt>
      <trkpt lat="37.317018" lon="-8.807107">
        <ele>14.090</ele>
        <time>2018-12-29T13:19:37Z</time>
      </trkpt>
      <trkpt lat="37.317053" lon="-8.807050">
        <ele>14.045</ele>
        <time>2018-12-29T13:19:42Z</time>
      </trkpt>
      <trkpt lat="37.317070" lon="-8.807011">
        <ele>14.011</ele>
        <time>2018-12-29T13:19:45Z</time>
      </trkpt>
      <trkpt lat="37.317086" lon="-8.806955">
        <ele>14.536</ele>
        <time>2018-12-29T13:19:49Z</time>
      </trkpt>
      <trkpt lat="37.317113" lon="-8.806906">
        <ele>14.522</ele>
        <time>2018-12-29T13:20:05Z</time>
      </trkpt>
      <trkpt lat="37.317125" lon="-8.806902">
        <ele>14.569</ele>
        <time>2018-12-29T13:20:07Z</time>
      </trkpt>
      <trkpt lat="37.317173" lon="-8.806830">
        <ele>14.018</ele>
        <time>2018-12-29T13:20:13Z</time>
      </trkpt>
      <trkpt lat="37.317180" lon="-8.806802">
        <ele>14.598</ele>
        <time>2018-12-29T13:20:15Z</time>
      </trkpt>
      <trkpt lat="37.317221" lon="-8.806724">
        <ele>14.517</ele>
        <time>2018-12-29T13:20:21Z</time>
      </trkpt>
      <trkpt lat="37.317255" lon="-8.806660">
        <ele>15.008</ele>
        <time>2018-12-29T13:20:26Z</time>
      </trkpt>
      <trkpt lat="37.317325" lon="-8.806528">
        <ele>15.064</ele>
        <time>2018-12-29T13:20:36Z</time>
      </trkpt>
      <trkpt lat="37.317375" lon="-8.806391">
        <ele>15.092</ele>
        <time>2018-12-29T13:20:46Z</time>
      </trkpt>
      <trkpt lat="37.317448" lon="-8.806327">
        <ele>15.569</ele>
        <time>2018-12-29T13:20:52Z</time>
      </trkpt>
      <trkpt lat="37.317518" lon="-8.806168">
        <ele>15.534</ele>
        <time>2018-12-29T13:21:03Z</time>
      </trkpt>
      <trkpt lat="37.317527" lon="-8.806117">
        <ele>16.020</ele>
        <time>2018-12-29T13:21:06Z</time>
      </trkpt>
      <trkpt lat="37.317576" lon="-8.806060">
        <ele>16.035</ele>
        <time>2018-12-29T13:21:11Z</time>
      </trkpt>
      <trkpt lat="37.317574" lon="-8.805974">
        <ele>16.451</ele>
        <time>2018-12-29T13:21:16Z</time>
      </trkpt>
      <trkpt lat="37.317620" lon="-8.805836">
        <ele>16.948</ele>
        <time>2018-12-29T13:21:26Z</time>
      </trkpt>
      <trkpt lat="37.317667" lon="-8.805776">
        <ele>17.492</ele>
        <time>2018-12-29T13:21:31Z</time>
      </trkpt>
      <trkpt lat="37.317689" lon="-8.805721">
        <ele>17.973</ele>
        <time>2018-12-29T13:21:35Z</time>
      </trkpt>
      <trkpt lat="37.317717" lon="-8.805671">
        <ele>18.420</ele>
        <time>2018-12-29T13:21:39Z</time>
      </trkpt>
      <trkpt lat="37.317823" lon="-8.805555">
        <ele>18.808</ele>
        <time>2018-12-29T13:21:49Z</time>
      </trkpt>
      <trkpt lat="37.317890" lon="-8.805494">
        <ele>19.872</ele>
        <time>2018-12-29T13:21:55Z</time>
      </trkpt>
      <trkpt lat="37.318012" lon="-8.805371">
        <ele>20.360</ele>
        <time>2018-12-29T13:22:07Z</time>
      </trkpt>
      <trkpt lat="37.318133" lon="-8.805301">
        <ele>21.247</ele>
        <time>2018-12-29T13:22:16Z</time>
      </trkpt>
      <trkpt lat="37.318140" lon="-8.805293">
        <ele>21.742</ele>
        <time>2018-12-29T13:22:18Z</time>
      </trkpt>
      <trkpt lat="37.318172" lon="-8.805258">
        <ele>22.298</ele>
        <time>2018-12-29T13:22:22Z</time>
      </trkpt>
      <trkpt lat="37.318215" lon="-8.805205">
        <ele>22.213</ele>
        <time>2018-12-29T13:22:27Z</time>
      </trkpt>
      <trkpt lat="37.318340" lon="-8.805107">
        <ele>24.189</ele>
        <time>2018-12-29T13:22:39Z</time>
      </trkpt>
      <trkpt lat="37.318398" lon="-8.805051">
        <ele>24.696</ele>
        <time>2018-12-29T13:22:45Z</time>
      </trkpt>
      <trkpt lat="37.318493" lon="-8.804999">
        <ele>25.122</ele>
        <time>2018-12-29T13:22:53Z</time>
      </trkpt>
      <trkpt lat="37.318589" lon="-8.804904">
        <ele>26.062</ele>
        <time>2018-12-29T13:23:04Z</time>
      </trkpt>
      <trkpt lat="37.318641" lon="-8.804858">
        <ele>27.008</ele>
        <time>2018-12-29T13:23:09Z</time>
      </trkpt>
      <trkpt lat="37.318666" lon="-8.804850">
        <ele>27.508</ele>
        <time>2018-12-29T13:23:11Z</time>
      </trkpt>
      <trkpt lat="37.318730" lon="-8.804802">
        <ele>27.545</ele>
        <time>2018-12-29T13:23:17Z</time>
      </trkpt>
      <trkpt lat="37.318751" lon="-8.804766">
        <ele>28.533</ele>
        <time>2018-12-29T13:23:20Z</time>
      </trkpt>
      <trkpt lat="37.318826" lon="-8.804726">
        <ele>28.920</ele>
        <time>2018-12-29T13:23:27Z</time>
      </trkpt>
      <trkpt lat="37.318895" lon="-8.804692">
        <ele>29.425</ele>
        <time>2018-12-29T13:23:43Z</time>
      </trkpt>
      <trkpt lat="37.318875" lon="-8.804671">
        <ele>29.951</ele>
        <time>2018-12-29T13:24:00Z</time>
      </trkpt>
      <trkpt lat="37.318882" lon="-8.804642">
        <ele>29.936</ele>
        <time>2018-12-29T13:24:03Z</time>
      </trkpt>
      <trkpt lat="37.318932" lon="-8.804613">
        <ele>30.942</ele>
        <time>2018-12-29T13:24:09Z</time>
      </trkpt>
      <trkpt lat="37.318960" lon="-8.804606">
        <ele>31.849</ele>
        <time>2018-12-29T13:24:23Z</time>
      </trkpt>
      <trkpt lat="37.318970" lon="-8.804590">
        <ele>32.393</ele>
        <time>2018-12-29T13:24:37Z</time>
      </trkpt>
      <trkpt lat="37.318980" lon="-8.804584">
        <ele>32.365</ele>
        <time>2018-12-29T13:24:50Z</time>
      </trkpt>
      <trkpt lat="37.319005" lon="-8.804560">
        <ele>33.321</ele>
        <time>2018-12-29T13:25:03Z</time>
      </trkpt>
      <trkpt lat="37.319035" lon="-8.804510">
        <ele>33.308</ele>
        <time>2018-12-29T13:25:09Z</time>
      </trkpt>
      <trkpt lat="37.319077" lon="-8.804429">
        <ele>35.212</ele>
        <time>2018-12-29T13:25:16Z</time>
      </trkpt>
      <trkpt lat="37.319152" lon="-8.804360">
        <ele>35.780</ele>
        <time>2018-12-29T13:25:25Z</time>
      </trkpt>
      <trkpt lat="37.319172" lon="-8.804326">
        <ele>36.137</ele>
        <time>2018-12-29T13:25:28Z</time>
      </trkpt>
      <trkpt lat="37.319242" lon="-8.804239">
        <ele>38.132</ele>
        <time>2018-12-29T13:25:38Z</time>
      </trkpt>
      <trkpt lat="37.319274" lon="-8.804200">
        <ele>38.588</ele>
        <time>2018-12-29T13:25:43Z</time>
      </trkpt>
      <trkpt lat="37.319306" lon="-8.804166">
        <ele>39.013</ele>
        <time>2018-12-29T13:25:47Z</time>
      </trkpt>
      <trkpt lat="37.319317" lon="-8.804142">
        <ele>39.539</ele>
        <time>2018-12-29T13:25:49Z</time>
      </trkpt>
      <trkpt lat="37.319339" lon="-8.804112">
        <ele>40.016</ele>
        <time>2018-12-29T13:25:52Z</time>
      </trkpt>
      <trkpt lat="37.319338" lon="-8.804061">
        <ele>40.513</ele>
        <time>2018-12-29T13:25:56Z</time>
      </trkpt>
      <trkpt lat="37.319361" lon="-8.804020">
        <ele>41.443</ele>
        <time>2018-12-29T13:26:00Z</time>
      </trkpt>
      <trkpt lat="37.319373" lon="-8.803991">
        <ele>42.407</ele>
        <time>2018-12-29T13:26:03Z</time>
      </trkpt>
      <trkpt lat="37.319383" lon="-8.803970">
        <ele>42.908</ele>
        <time>2018-12-29T13:26:05Z</time>
      </trkpt>
      <trkpt lat="37.319368" lon="-8.803856">
        <ele>45.324</ele>
        <time>2018-12-29T13:26:16Z</time>
      </trkpt>
      <trkpt lat="37.319305" lon="-8.803808">
        <ele>44.812</ele>
        <time>2018-12-29T13:26:28Z</time>
      </trkpt>
      <trkpt lat="37.319256" lon="-8.803761">
        <ele>44.389</ele>
        <time>2018-12-29T13:26:43Z</time>
      </trkpt>
      <trkpt lat="37.319208" lon="-8.803817">
        <ele>44.814</ele>
        <time>2018-12-29T13:26:54Z</time>
      </trkpt>
      <trkpt lat="37.319169" lon="-8.803878">
        <ele>46.210</ele>
        <time>2018-12-29T13:27:01Z</time>
      </trkpt>
      <trkpt lat="37.319160" lon="-8.803898">
        <ele>46.285</ele>
        <time>2018-12-29T13:27:03Z</time>
      </trkpt>
      <trkpt lat="37.319140" lon="-8.803944">
        <ele>46.751</ele>
        <time>2018-12-29T13:27:08Z</time>
      </trkpt>
      <trkpt lat="37.319134" lon="-8.803980">
        <ele>46.758</ele>
        <time>2018-12-29T13:27:11Z</time>
      </trkpt>
      <trkpt lat="37.319043" lon="-8.804144">
        <ele>47.217</ele>
        <time>2018-12-29T13:27:25Z</time>
      </trkpt>
      <trkpt lat="37.319043" lon="-8.804144">
        <ele>47.787</ele>
        <time>2018-12-29T13:27:43Z</time>
      </trkpt>
      <trkpt lat="37.319036" lon="-8.804148">
        <ele>47.215</ele>
        <time>2018-12-29T13:27:57Z</time>
      </trkpt>
      <trkpt lat="37.319013" lon="-8.804180">
        <ele>47.708</ele>
        <time>2018-12-29T13:28:00Z</time>
      </trkpt>
      <trkpt lat="37.318872" lon="-8.804268">
        <ele>48.664</ele>
        <time>2018-12-29T13:28:15Z</time>
      </trkpt>
      <trkpt lat="37.318748" lon="-8.804302">
        <ele>50.612</ele>
        <time>2018-12-29T13:28:26Z</time>
      </trkpt>
      <trkpt lat="37.318691" lon="-8.804315">
        <ele>51.039</ele>
        <time>2018-12-29T13:28:31Z</time>
      </trkpt>
      <trkpt lat="37.318577" lon="-8.804367">
        <ele>53.944</ele>
        <time>2018-12-29T13:28:43Z</time>
      </trkpt>
      <trkpt lat="37.318536" lon="-8.804391">
        <ele>54.940</ele>
        <time>2018-12-29T13:28:47Z</time>
      </trkpt>
      <trkpt lat="37.318423" lon="-8.804455">
        <ele>57.345</ele>
        <time>2018-12-29T13:28:59Z</time>
      </trkpt>
      <trkpt lat="37.318396" lon="-8.804457">
        <ele>58.371</ele>
        <time>2018-12-29T13:29:02Z</time>
      </trkpt>
      <trkpt lat="37.318346" lon="-8.804473">
        <ele>58.788</ele>
        <time>2018-12-29T13:29:15Z</time>
      </trkpt>
      <trkpt lat="37.318318" lon="-8.804473">
        <ele>59.299</ele>
        <time>2018-12-29T13:29:17Z</time>
      </trkpt>
      <trkpt lat="37.318288" lon="-8.804467">
        <ele>60.207</ele>
        <time>2018-12-29T13:29:20Z</time>
      </trkpt>
      <trkpt lat="37.318152" lon="-8.804435">
        <ele>62.127</ele>
        <time>2018-12-29T13:29:32Z</time>
      </trkpt>
      <trkpt lat="37.318134" lon="-8.804441">
        <ele>61.608</ele>
        <time>2018-12-29T13:29:34Z</time>
      </trkpt>
      <trkpt lat="37.318105" lon="-8.804438">
        <ele>62.652</ele>
        <time>2018-12-29T13:29:37Z</time>
      </trkpt>
      <trkpt lat="37.317987" lon="-8.804499">
        <ele>64.040</ele>
        <time>2018-12-29T13:29:49Z</time>
      </trkpt>
      <trkpt lat="37.317854" lon="-8.804510">
        <ele>65.947</ele>
        <time>2018-12-29T13:30:02Z</time>
      </trkpt>
      <trkpt lat="37.317824" lon="-8.804509">
        <ele>66.942</ele>
        <time>2018-12-29T13:30:05Z</time>
      </trkpt>
      <trkpt lat="37.317741" lon="-8.804503">
        <ele>68.348</ele>
        <time>2018-12-29T13:30:16Z</time>
      </trkpt>
      <trkpt lat="37.317709" lon="-8.804505">
        <ele>69.323</ele>
        <time>2018-12-29T13:30:21Z</time>
      </trkpt>
      <trkpt lat="37.317678" lon="-8.804498">
        <ele>69.349</ele>
        <time>2018-12-29T13:30:25Z</time>
      </trkpt>
      <trkpt lat="37.317628" lon="-8.804506">
        <ele>69.886</ele>
        <time>2018-12-29T13:30:30Z</time>
      </trkpt>
      <trkpt lat="37.317599" lon="-8.804534">
        <ele>70.776</ele>
        <time>2018-12-29T13:30:34Z</time>
      </trkpt>
      <trkpt lat="37.317572" lon="-8.804572">
        <ele>71.290</ele>
        <time>2018-12-29T13:30:38Z</time>
      </trkpt>
      <trkpt lat="37.317536" lon="-8.804596">
        <ele>71.719</ele>
        <time>2018-12-29T13:30:53Z</time>
      </trkpt>
      <trkpt lat="37.317504" lon="-8.804604">
        <ele>71.708</ele>
        <time>2018-12-29T13:30:56Z</time>
      </trkpt>
      <trkpt lat="37.317458" lon="-8.804618">
        <ele>72.710</ele>
        <time>2018-12-29T13:31:00Z</time>
      </trkpt>
      <trkpt lat="37.317409" lon="-8.804656">
        <ele>73.258</ele>
        <time>2018-12-29T13:31:06Z</time>
      </trkpt>
      <trkpt lat="37.317395" lon="-8.804676">
        <ele>74.185</ele>
        <time>2018-12-29T13:31:08Z</time>
      </trkpt>
      <trkpt lat="37.317358" lon="-8.804711">
        <ele>74.130</ele>
        <time>2018-12-29T13:31:12Z</time>
      </trkpt>
      <trkpt lat="37.317323" lon="-8.804744">
        <ele>75.176</ele>
        <time>2018-12-29T13:31:16Z</time>
      </trkpt>
      <trkpt lat="37.317248" lon="-8.804814">
        <ele>76.541</ele>
        <time>2018-12-29T13:31:24Z</time>
      </trkpt>
      <trkpt lat="37.317205" lon="-8.804862">
        <ele>76.517</ele>
        <time>2018-12-29T13:31:29Z</time>
      </trkpt>
      <trkpt lat="37.317121" lon="-8.804910">
        <ele>77.044</ele>
        <time>2018-12-29T13:31:37Z</time>
      </trkpt>
      <trkpt lat="37.316983" lon="-8.805002">
        <ele>79.458</ele>
        <time>2018-12-29T13:31:50Z</time>
      </trkpt>
      <trkpt lat="37.316939" lon="-8.805019">
        <ele>79.952</ele>
        <time>2018-12-29T13:31:59Z</time>
      </trkpt>
      <trkpt lat="37.316902" lon="-8.805034">
        <ele>80.417</ele>
        <time>2018-12-29T13:32:02Z</time>
      </trkpt>
      <trkpt lat="37.316860" lon="-8.805028">
        <ele>80.808</ele>
        <time>2018-12-29T13:32:06Z</time>
      </trkpt>
      <trkpt lat="37.316775" lon="-8.805050">
        <ele>82.878</ele>
        <time>2018-12-29T13:32:15Z</time>
      </trkpt>
      <trkpt lat="37.316754" lon="-8.805058">
        <ele>83.256</ele>
        <time>2018-12-29T13:32:17Z</time>
      </trkpt>
      <trkpt lat="37.316687" lon="-8.805084">
        <ele>84.753</ele>
        <time>2018-12-29T13:32:29Z</time>
      </trkpt>
      <trkpt lat="37.316687" lon="-8.805084">
        <ele>84.288</ele>
        <time>2018-12-29T13:32:55Z</time>
      </trkpt>
      <trkpt lat="37.316668" lon="-8.805044">
        <ele>84.744</ele>
        <time>2018-12-29T13:33:11Z</time>
      </trkpt>
      <trkpt lat="37.316646" lon="-8.805023">
        <ele>85.289</ele>
        <time>2018-12-29T13:33:18Z</time>
      </trkpt>
      <trkpt lat="37.316593" lon="-8.804981">
        <ele>86.685</ele>
        <time>2018-12-29T13:33:24Z</time>
      </trkpt>
      <trkpt lat="37.316580" lon="-8.804956">
        <ele>87.192</ele>
        <time>2018-12-29T13:33:27Z</time>
      </trkpt>
      <trkpt lat="37.316568" lon="-8.804944">
        <ele>88.162</ele>
        <time>2018-12-29T13:33:40Z</time>
      </trkpt>
      <trkpt lat="37.316555" lon="-8.804934">
        <ele>88.183</ele>
        <time>2018-12-29T13:33:54Z</time>
      </trkpt>
      <trkpt lat="37.316479" lon="-8.804913">
        <ele>89.011</ele>
        <time>2018-12-29T13:34:04Z</time>
      </trkpt>
      <trkpt lat="37.316476" lon="-8.804916">
        <ele>89.008</ele>
        <time>2018-12-29T13:34:19Z</time>
      </trkpt>
      <trkpt lat="37.316471" lon="-8.804925">
        <ele>89.079</ele>
        <time>2018-12-29T13:34:20Z</time>
      </trkpt>
      <trkpt lat="37.316426" lon="-8.804961">
        <ele>89.537</ele>
        <time>2018-12-29T13:34:34Z</time>
      </trkpt>
      <trkpt lat="37.316416" lon="-8.804967">
        <ele>89.524</ele>
        <time>2018-12-29T13:34:35Z</time>
      </trkpt>
      <trkpt lat="37.316401" lon="-8.804972">
        <ele>90.049</ele>
        <time>2018-12-29T13:34:37Z</time>
      </trkpt>
      <trkpt lat="37.316377" lon="-8.804980">
        <ele>90.595</ele>
        <time>2018-12-29T13:34:40Z</time>
      </trkpt>
      <trkpt lat="37.316343" lon="-8.804973">
        <ele>91.420</ele>
        <time>2018-12-29T13:34:43Z</time>
      </trkpt>
      <trkpt lat="37.316268" lon="-8.804985">
        <ele>91.426</ele>
        <time>2018-12-29T13:34:51Z</time>
      </trkpt>
      <trkpt lat="37.316148" lon="-8.805096">
        <ele>91.983</ele>
        <time>2018-12-29T13:35:05Z</time>
      </trkpt>
      <trkpt lat="37.316132" lon="-8.805126">
        <ele>91.441</ele>
        <time>2018-12-29T13:35:08Z</time>
      </trkpt>
      <trkpt lat="37.316072" lon="-8.805231">
        <ele>91.481</ele>
        <time>2018-12-29T13:35:22Z</time>
      </trkpt>
      <trkpt lat="37.316088" lon="-8.805238">
        <ele>91.409</ele>
        <time>2018-12-29T13:35:38Z</time>
      </trkpt>
      <trkpt lat="37.316154" lon="-8.805268">
        <ele>91.908</ele>
        <time>2018-12-29T13:35:49Z</time>
      </trkpt>
      <trkpt lat="37.316151" lon="-8.805300">
        <ele>91.987</ele>
        <time>2018-12-29T13:35:59Z</time>
      </trkpt>
      <trkpt lat="37.316151" lon="-8.805306">
        <ele>91.945</ele>
        <time>2018-12-29T13:36:15Z</time>
      </trkpt>
      <trkpt lat="37.316151" lon="-8.805284">
        <ele>92.442</ele>
        <time>2018-12-29T13:36:33Z</time>
      </trkpt>
      <trkpt lat="37.316120" lon="-8.805217">
        <ele>91.467</ele>
        <time>2018-12-29T13:36:46Z</time>
      </trkpt>
      <trkpt lat="37.316128" lon="-8.805199">
        <ele>91.913</ele>
        <time>2018-12-29T13:36:48Z</time>
      </trkpt>
      <trkpt lat="37.316149" lon="-8.805168">
        <ele>91.918</ele>
        <time>2018-12-29T13:36:52Z</time>
      </trkpt>
      <trkpt lat="37.316165" lon="-8.805152">
        <ele>91.914</ele>
        <time>2018-12-29T13:36:54Z</time>
      </trkpt>
      <trkpt lat="37.316225" lon="-8.805099">
        <ele>91.981</ele>
        <time>2018-12-29T13:37:01Z</time>
      </trkpt>
      <trkpt lat="37.316282" lon="-8.805142">
        <ele>93.849</ele>
        <time>2018-12-29T13:37:12Z</time>
      </trkpt>
      <trkpt lat="37.316347" lon="-8.805191">
        <ele>94.802</ele>
        <time>2018-12-29T13:37:25Z</time>
      </trkpt>
      <trkpt lat="37.316381" lon="-8.805240">
        <ele>92.922</ele>
        <time>2018-12-29T13:37:38Z</time>
      </trkpt>
      <trkpt lat="37.316387" lon="-8.805277">
        <ele>91.908</ele>
        <time>2018-12-29T13:37:40Z</time>
      </trkpt>
      <trkpt lat="37.316469" lon="-8.805245">
        <ele>91.477</ele>
        <time>2018-12-29T13:37:49Z</time>
      </trkpt>
      <trkpt lat="37.316495" lon="-8.805263">
        <ele>90.995</ele>
        <time>2018-12-29T13:38:01Z</time>
      </trkpt>
      <trkpt lat="37.316489" lon="-8.805251">
        <ele>90.952</ele>
        <time>2018-12-29T13:38:16Z</time>
      </trkpt>
      <trkpt lat="37.316478" lon="-8.805125">
        <ele>91.437</ele>
        <time>2018-12-29T13:38:28Z</time>
      </trkpt>
      <trkpt lat="37.316473" lon="-8.805094">
        <ele>90.963</ele>
        <time>2018-12-29T13:38:31Z</time>
      </trkpt>
      <trkpt lat="37.316431" lon="-8.805047">
        <ele>90.568</ele>
        <time>2018-12-29T13:38:38Z</time>
      </trkpt>
      <trkpt lat="37.316403" lon="-8.805040">
        <ele>90.574</ele>
        <time>2018-12-29T13:38:51Z</time>
      </trkpt>
      <trkpt lat="37.316403" lon="-8.805040">
        <ele>90.551</ele>
        <time>2018-12-29T13:39:19Z</time>
      </trkpt>
      <trkpt lat="37.316421" lon="-8.804982">
        <ele>89.519</ele>
        <time>2018-12-29T13:39:32Z</time>
      </trkpt>
      <trkpt lat="37.316434" lon="-8.804974">
        <ele>89.009</ele>
        <time>2018-12-29T13:39:48Z</time>
      </trkpt>
      <trkpt lat="37.316453" lon="-8.804942">
        <ele>88.519</ele>
        <time>2018-12-29T13:40:02Z</time>
      </trkpt>
      <trkpt lat="37.316466" lon="-8.804910">
        <ele>88.508</ele>
        <time>2018-12-29T13:40:15Z</time>
      </trkpt>
      <trkpt lat="37.316466" lon="-8.804910">
        <ele>88.194</ele>
        <time>2018-12-29T13:40:44Z</time>
      </trkpt>
      <trkpt lat="37.316489" lon="-8.804932">
        <ele>87.652</ele>
        <time>2018-12-29T13:41:03Z</time>
      </trkpt>
      <trkpt lat="37.316505" lon="-8.804958">
        <ele>87.129</ele>
        <time>2018-12-29T13:41:16Z</time>
      </trkpt>
      <trkpt lat="37.316526" lon="-8.804969">
        <ele>87.684</ele>
        <time>2018-12-29T13:41:18Z</time>
      </trkpt>
      <trkpt lat="37.316583" lon="-8.805010">
        <ele>86.180</ele>
        <time>2018-12-29T13:41:25Z</time>
      </trkpt>
      <trkpt lat="37.316678" lon="-8.805055">
        <ele>84.765</ele>
        <time>2018-12-29T13:41:35Z</time>
      </trkpt>
      <trkpt lat="37.316749" lon="-8.805057">
        <ele>82.811</ele>
        <time>2018-12-29T13:41:45Z</time>
      </trkpt>
      <trkpt lat="37.316766" lon="-8.805045">
        <ele>83.268</ele>
        <time>2018-12-29T13:41:47Z</time>
      </trkpt>
      <trkpt lat="37.316885" lon="-8.805005">
        <ele>80.875</ele>
        <time>2018-12-29T13:41:59Z</time>
      </trkpt>
      <trkpt lat="37.317010" lon="-8.804961">
        <ele>78.428</ele>
        <time>2018-12-29T13:42:12Z</time>
      </trkpt>
      <trkpt lat="37.317130" lon="-8.804919">
        <ele>76.520</ele>
        <time>2018-12-29T13:42:25Z</time>
      </trkpt>
      <trkpt lat="37.317212" lon="-8.804853">
        <ele>75.608</ele>
        <time>2018-12-29T13:42:35Z</time>
      </trkpt>
      <trkpt lat="37.317292" lon="-8.804764">
        <ele>75.140</ele>
        <time>2018-12-29T13:42:45Z</time>
      </trkpt>
      <trkpt lat="37.317325" lon="-8.804746">
        <ele>75.198</ele>
        <time>2018-12-29T13:42:48Z</time>
      </trkpt>
      <trkpt lat="37.317361" lon="-8.804716">
        <ele>74.125</ele>
        <time>2018-12-29T13:42:52Z</time>
      </trkpt>
      <trkpt lat="37.317503" lon="-8.804592">
        <ele>71.720</ele>
        <time>2018-12-29T13:43:09Z</time>
      </trkpt>
      <trkpt lat="37.317598" lon="-8.804520">
        <ele>69.876</ele>
        <time>2018-12-29T13:43:21Z</time>
      </trkpt>
      <trkpt lat="37.317682" lon="-8.804512">
        <ele>68.371</ele>
        <time>2018-12-29T13:43:30Z</time>
      </trkpt>
      <trkpt lat="37.317783" lon="-8.804509">
        <ele>67.477</ele>
        <time>2018-12-29T13:43:40Z</time>
      </trkpt>
      <trkpt lat="37.317806" lon="-8.804506">
        <ele>66.994</ele>
        <time>2018-12-29T13:43:42Z</time>
      </trkpt>
      <trkpt lat="37.317863" lon="-8.804515">
        <ele>65.597</ele>
        <time>2018-12-29T13:43:47Z</time>
      </trkpt>
      <trkpt lat="37.317882" lon="-8.804528">
        <ele>64.523</ele>
        <time>2018-12-29T13:43:51Z</time>
      </trkpt>
      <trkpt lat="37.317931" lon="-8.804498">
        <ele>64.525</ele>
        <time>2018-12-29T13:43:55Z</time>
      </trkpt>
      <trkpt lat="37.317986" lon="-8.804478">
        <ele>63.508</ele>
        <time>2018-12-29T13:43:59Z</time>
      </trkpt>
      <trkpt lat="37.318072" lon="-8.804403">
        <ele>62.612</ele>
        <time>2018-12-29T13:44:07Z</time>
      </trkpt>
      <trkpt lat="37.318118" lon="-8.804364">
        <ele>61.620</ele>
        <time>2018-12-29T13:44:13Z</time>
      </trkpt>
      <trkpt lat="37.318146" lon="-8.804334">
        <ele>61.187</ele>
        <time>2018-12-29T13:44:19Z</time>
      </trkpt>
      <trkpt lat="37.318172" lon="-8.804222">
        <ele>60.742</ele>
        <time>2018-12-29T13:44:28Z</time>
      </trkpt>
      <trkpt lat="37.318211" lon="-8.804141">
        <ele>60.758</ele>
        <time>2018-12-29T13:44:35Z</time>
      </trkpt>
      <trkpt lat="37.318239" lon="-8.804078">
        <ele>60.733</ele>
        <time>2018-12-29T13:44:40Z</time>
      </trkpt>
      <trkpt lat="37.318308" lon="-8.804016">
        <ele>60.229</ele>
        <time>2018-12-29T13:44:53Z</time>
      </trkpt>
      <trkpt lat="37.318319" lon="-8.804001">
        <ele>60.226</ele>
        <time>2018-12-29T13:45:07Z</time>
      </trkpt>
      <trkpt lat="37.318265" lon="-8.804037">
        <ele>60.781</ele>
        <time>2018-12-29T13:45:12Z</time>
      </trkpt>
      <trkpt lat="37.318232" lon="-8.804097">
        <ele>61.161</ele>
        <time>2018-12-29T13:45:18Z</time>
      </trkpt>
      <trkpt lat="37.318204" lon="-8.804119">
        <ele>60.717</ele>
        <time>2018-12-29T13:45:22Z</time>
      </trkpt>
      <trkpt lat="37.318149" lon="-8.804193">
        <ele>59.208</ele>
        <time>2018-12-29T13:45:32Z</time>
      </trkpt>
      <trkpt lat="37.318049" lon="-8.804174">
        <ele>56.831</ele>
        <time>2018-12-29T13:45:40Z</time>
      </trkpt>
      <trkpt lat="37.317993" lon="-8.804145">
        <ele>54.969</ele>
        <time>2018-12-29T13:45:47Z</time>
      </trkpt>
      <trkpt lat="37.317960" lon="-8.804137">
        <ele>53.476</ele>
        <time>2018-12-29T13:45:53Z</time>
      </trkpt>
      <trkpt lat="37.317975" lon="-8.804111">
        <ele>53.041</ele>
        <time>2018-12-29T13:46:04Z</time>
      </trkpt>
      <trkpt lat="37.318076" lon="-8.803970">
        <ele>51.587</ele>
        <time>2018-12-29T13:46:18Z</time>
      </trkpt>
      <trkpt lat="37.318076" lon="-8.803970">
        <ele>51.592</ele>
        <time>2018-12-29T13:46:19Z</time>
      </trkpt>
      <trkpt lat="37.318100" lon="-8.803965">
        <ele>51.088</ele>
        <time>2018-12-29T13:46:21Z</time>
      </trkpt>
      <trkpt lat="37.318126" lon="-8.803927">
        <ele>51.045</ele>
        <time>2018-12-29T13:46:24Z</time>
      </trkpt>
      <trkpt lat="37.318154" lon="-8.803881">
        <ele>50.635</ele>
        <time>2018-12-29T13:46:28Z</time>
      </trkpt>
      <trkpt lat="37.318182" lon="-8.803894">
        <ele>50.686</ele>
        <time>2018-12-29T13:46:31Z</time>
      </trkpt>
      <trkpt lat="37.318237" lon="-8.803873">
        <ele>49.614</ele>
        <time>2018-12-29T13:46:34Z</time>
      </trkpt>
      <trkpt lat="37.318283" lon="-8.803822">
        <ele>48.608</ele>
        <time>2018-12-29T13:46:39Z</time>
      </trkpt>
      <trkpt lat="37.318285" lon="-8.803826">
        <ele>48.266</ele>
        <time>2018-12-29T13:46:41Z</time>
      </trkpt>
      <trkpt lat="37.318366" lon="-8.803788">
        <ele>46.764</ele>
        <time>2018-12-29T13:46:50Z</time>
      </trkpt>
      <trkpt lat="37.318432" lon="-8.803784">
        <ele>46.251</ele>
        <time>2018-12-29T13:46:56Z</time>
      </trkpt>
      <trkpt lat="37.318449" lon="-8.803804">
        <ele>45.826</ele>
        <time>2018-12-29T13:47:00Z</time>
      </trkpt>
      <trkpt lat="37.318489" lon="-8.803799">
        <ele>45.342</ele>
        <time>2018-12-29T13:47:05Z</time>
      </trkpt>
      <trkpt lat="37.318565" lon="-8.803804">
        <ele>43.857</ele>
        <time>2018-12-29T13:47:19Z</time>
      </trkpt>
      <trkpt lat="37.318643" lon="-8.803799">
        <ele>44.343</ele>
        <time>2018-12-29T13:47:28Z</time>
      </trkpt>
      <trkpt lat="37.318743" lon="-8.803766">
        <ele>44.360</ele>
        <time>2018-12-29T13:47:36Z</time>
      </trkpt>
      <trkpt lat="37.318798" lon="-8.803755">
        <ele>44.385</ele>
        <time>2018-12-29T13:47:39Z</time>
      </trkpt>
      <trkpt lat="37.318997" lon="-8.803621">
        <ele>43.489</ele>
        <time>2018-12-29T13:47:52Z</time>
      </trkpt>
      <trkpt lat="37.319059" lon="-8.803619">
        <ele>42.417</ele>
        <time>2018-12-29T13:47:56Z</time>
      </trkpt>
      <trkpt lat="37.319184" lon="-8.803673">
        <ele>41.408</ele>
        <time>2018-12-29T13:48:08Z</time>
      </trkpt>
      <trkpt lat="37.319246" lon="-8.803608">
        <ele>40.571</ele>
        <time>2018-12-29T13:48:22Z</time>
      </trkpt>
      <trkpt lat="37.319246" lon="-8.803592">
        <ele>40.089</ele>
        <time>2018-12-29T13:48:30Z</time>
      </trkpt>
      <trkpt lat="37.319252" lon="-8.803402">
        <ele>36.696</ele>
        <time>2018-12-29T13:48:43Z</time>
      </trkpt>
      <trkpt lat="37.319255" lon="-8.803369">
        <ele>35.751</ele>
        <time>2018-12-29T13:48:46Z</time>
      </trkpt>
      <trkpt lat="37.319270" lon="-8.803269">
        <ele>34.257</ele>
        <time>2018-12-29T13:48:59Z</time>
      </trkpt>
      <trkpt lat="37.319255" lon="-8.803237">
        <ele>34.262</ele>
        <time>2018-12-29T13:49:12Z</time>
      </trkpt>
      <trkpt lat="37.319224" lon="-8.803228">
        <ele>33.728</ele>
        <time>2018-12-29T13:49:17Z</time>
      </trkpt>
      <trkpt lat="37.319074" lon="-8.803233">
        <ele>33.365</ele>
        <time>2018-12-29T13:49:31Z</time>
      </trkpt>
      <trkpt lat="37.319004" lon="-8.803226">
        <ele>32.342</ele>
        <time>2018-12-29T13:49:38Z</time>
      </trkpt>
      <trkpt lat="37.318945" lon="-8.803205">
        <ele>31.322</ele>
        <time>2018-12-29T13:49:44Z</time>
      </trkpt>
      <trkpt lat="37.318880" lon="-8.803199">
        <ele>30.414</ele>
        <time>2018-12-29T13:49:51Z</time>
      </trkpt>
      <trkpt lat="37.318839" lon="-8.803206">
        <ele>29.408</ele>
        <time>2018-12-29T13:49:55Z</time>
      </trkpt>
      <trkpt lat="37.318800" lon="-8.803225">
        <ele>28.937</ele>
        <time>2018-12-29T13:50:00Z</time>
      </trkpt>
      <trkpt lat="37.318762" lon="-8.803237">
        <ele>28.065</ele>
        <time>2018-12-29T13:50:04Z</time>
      </trkpt>
      <trkpt lat="37.318563" lon="-8.803239">
        <ele>25.142</ele>
        <time>2018-12-29T13:50:23Z</time>
      </trkpt>
      <trkpt lat="37.318545" lon="-8.803242">
        <ele>24.677</ele>
        <time>2018-12-29T13:50:25Z</time>
      </trkpt>
      <trkpt lat="37.318371" lon="-8.803251">
        <ele>23.283</ele>
        <time>2018-12-29T13:50:38Z</time>
      </trkpt>
      <trkpt lat="37.318240" lon="-8.803253">
        <ele>21.758</ele>
        <time>2018-12-29T13:50:48Z</time>
      </trkpt>
      <trkpt lat="37.318161" lon="-8.803247">
        <ele>21.234</ele>
        <time>2018-12-29T13:50:53Z</time>
      </trkpt>
      <trkpt lat="37.317980" lon="-8.803293">
        <ele>18.811</ele>
        <time>2018-12-29T13:51:09Z</time>
      </trkpt>
      <trkpt lat="37.317790" lon="-8.803319">
        <ele>17.926</ele>
        <time>2018-12-29T13:51:24Z</time>
      </trkpt>
      <trkpt lat="37.317753" lon="-8.803333">
        <ele>17.447</ele>
        <time>2018-12-29T13:51:28Z</time>
      </trkpt>
      <trkpt lat="37.317666" lon="-8.803373">
        <ele>17.911</ele>
        <time>2018-12-29T13:51:35Z</time>
      </trkpt>
      <trkpt lat="37.317522" lon="-8.803403">
        <ele>18.808</ele>
        <time>2018-12-29T13:51:47Z</time>
      </trkpt>
      <trkpt lat="37.317411" lon="-8.803438">
        <ele>19.835</ele>
        <time>2018-12-29T13:51:57Z</time>
      </trkpt>
      <trkpt lat="37.317369" lon="-8.803469">
        <ele>20.353</ele>
        <time>2018-12-29T13:52:01Z</time>
      </trkpt>
      <trkpt lat="37.317326" lon="-8.803540">
        <ele>20.350</ele>
        <time>2018-12-29T13:52:07Z</time>
      </trkpt>
      <trkpt lat="37.317288" lon="-8.803552">
        <ele>19.865</ele>
        <time>2018-12-29T13:52:10Z</time>
      </trkpt>
      <trkpt lat="37.317149" lon="-8.803535">
        <ele>19.851</ele>
        <time>2018-12-29T13:52:21Z</time>
      </trkpt>
      <trkpt lat="37.317134" lon="-8.803510">
        <ele>19.896</ele>
        <time>2018-12-29T13:52:25Z</time>
      </trkpt>
      <trkpt lat="37.317124" lon="-8.803483">
        <ele>19.342</ele>
        <time>2018-12-29T13:52:28Z</time>
      </trkpt>
      <trkpt lat="37.317098" lon="-8.803404">
        <ele>19.329</ele>
        <time>2018-12-29T13:52:40Z</time>
      </trkpt>
      <trkpt lat="37.317130" lon="-8.803388">
        <ele>19.357</ele>
        <time>2018-12-29T13:52:47Z</time>
      </trkpt>
      <trkpt lat="37.317142" lon="-8.803336">
        <ele>19.800</ele>
        <time>2018-12-29T13:52:58Z</time>
      </trkpt>
      <trkpt lat="37.317137" lon="-8.803326">
        <ele>20.320</ele>
        <time>2018-12-29T13:53:11Z</time>
      </trkpt>
      <trkpt lat="37.317132" lon="-8.803290">
        <ele>20.308</ele>
        <time>2018-12-29T13:53:14Z</time>
      </trkpt>
      <trkpt lat="37.317111" lon="-8.803152">
        <ele>19.838</ele>
        <time>2018-12-29T13:53:28Z</time>
      </trkpt>
      <trkpt lat="37.317104" lon="-8.803143">
        <ele>19.846</ele>
        <time>2018-12-29T13:53:40Z</time>
      </trkpt>
      <trkpt lat="37.317100" lon="-8.803157">
        <ele>20.373</ele>
        <time>2018-12-29T13:53:50Z</time>
      </trkpt>
      <trkpt lat="37.317099" lon="-8.803095">
        <ele>19.848</ele>
        <time>2018-12-29T13:53:57Z</time>
      </trkpt>
      <trkpt lat="37.317095" lon="-8.803053">
        <ele>19.824</ele>
        <time>2018-12-29T13:54:02Z</time>
      </trkpt>
      <trkpt lat="37.317081" lon="-8.802952">
        <ele>19.849</ele>
        <time>2018-12-29T13:54:15Z</time>
      </trkpt>
      <trkpt lat="37.317081" lon="-8.802952">
        <ele>19.825</ele>
        <time>2018-12-29T13:54:36Z</time>
      </trkpt>
      <trkpt lat="37.317096" lon="-8.802944">
        <ele>19.372</ele>
        <time>2018-12-29T13:54:44Z</time>
      </trkpt>
      <trkpt lat="37.317171" lon="-8.802926">
        <ele>19.826</ele>
        <time>2018-12-29T13:54:57Z</time>
      </trkpt>
      <trkpt lat="37.317171" lon="-8.802926">
        <ele>19.347</ele>
        <time>2018-12-29T13:54:58Z</time>
      </trkpt>
      <trkpt lat="37.317146" lon="-8.802925">
        <ele>19.811</ele>
        <time>2018-12-29T13:55:08Z</time>
      </trkpt>
      <trkpt lat="37.317138" lon="-8.802927">
        <ele>19.808</ele>
        <time>2018-12-29T13:55:10Z</time>
      </trkpt>
      <trkpt lat="37.317110" lon="-8.802927">
        <ele>19.815</ele>
        <time>2018-12-29T13:55:13Z</time>
      </trkpt>
      <trkpt lat="37.317064" lon="-8.802896">
        <ele>19.823</ele>
        <time>2018-12-29T13:55:17Z</time>
      </trkpt>
      <trkpt lat="37.316993" lon="-8.802830">
        <ele>19.390</ele>
        <time>2018-12-29T13:55:24Z</time>
      </trkpt>
      <trkpt lat="37.316957" lon="-8.802806">
        <ele>19.335</ele>
        <time>2018-12-29T13:55:27Z</time>
      </trkpt>
      <trkpt lat="37.316862" lon="-8.802715">
        <ele>19.311</ele>
        <time>2018-12-29T13:55:37Z</time>
      </trkpt>
      <trkpt lat="37.316797" lon="-8.802740">
        <ele>19.376</ele>
        <time>2018-12-29T13:55:42Z</time>
      </trkpt>
      <trkpt lat="37.316762" lon="-8.802748">
        <ele>19.332</ele>
        <time>2018-12-29T13:55:45Z</time>
      </trkpt>
      <trkpt lat="37.316700" lon="-8.802742">
        <ele>19.879</ele>
        <time>2018-12-29T13:55:59Z</time>
      </trkpt>
      <trkpt lat="37.316700" lon="-8.802742">
        <ele>19.813</ele>
        <time>2018-12-29T13:56:22Z</time>
      </trkpt>
      <trkpt lat="37.316701" lon="-8.802739">
        <ele>19.343</ele>
        <time>2018-12-29T13:56:49Z</time>
      </trkpt>
      <trkpt lat="37.316698" lon="-8.802732">
        <ele>19.307</ele>
        <time>2018-12-29T13:57:04Z</time>
      </trkpt>
      <trkpt lat="37.316699" lon="-8.802713">
        <ele>19.308</ele>
        <time>2018-12-29T13:57:18Z</time>
      </trkpt>
      <trkpt lat="37.316696" lon="-8.802703">
        <ele>18.874</ele>
        <time>2018-12-29T13:57:36Z</time>
      </trkpt>
      <trkpt lat="37.316696" lon="-8.802703">
        <ele>19.372</ele>
        <time>2018-12-29T13:57:58Z</time>
      </trkpt>
      <trkpt lat="37.316697" lon="-8.802704">
        <ele>18.849</ele>
        <time>2018-12-29T13:58:12Z</time>
      </trkpt>
      <trkpt lat="37.316717" lon="-8.802640">
        <ele>18.864</ele>
        <time>2018-12-29T13:58:16Z</time>
      </trkpt>
      <trkpt lat="37.316748" lon="-8.802448">
        <ele>18.890</ele>
        <time>2018-12-29T13:58:29Z</time>
      </trkpt>
      <trkpt lat="37.316745" lon="-8.802433">
        <ele>18.885</ele>
        <time>2018-12-29T13:58:32Z</time>
      </trkpt>
      <trkpt lat="37.316754" lon="-8.802395">
        <ele>18.841</ele>
        <time>2018-12-29T13:58:37Z</time>
      </trkpt>
      <trkpt lat="37.316754" lon="-8.802369">
        <ele>18.838</ele>
        <time>2018-12-29T13:58:39Z</time>
      </trkpt>
      <trkpt lat="37.316815" lon="-8.802324">
        <ele>18.892</ele>
        <time>2018-12-29T13:58:52Z</time>
      </trkpt>
      <trkpt lat="37.316815" lon="-8.802324">
        <ele>18.873</ele>
        <time>2018-12-29T13:58:54Z</time>
      </trkpt>
      <trkpt lat="37.316807" lon="-8.802170">
        <ele>18.820</ele>
        <time>2018-12-29T13:59:08Z</time>
      </trkpt>
      <trkpt lat="37.316758" lon="-8.801994">
        <ele>18.808</ele>
        <time>2018-12-29T13:59:21Z</time>
      </trkpt>
      <trkpt lat="37.316724" lon="-8.801800">
        <ele>18.462</ele>
        <time>2018-12-29T13:59:33Z</time>
      </trkpt>
      <trkpt lat="37.316713" lon="-8.801670">
        <ele>18.850</ele>
        <time>2018-12-29T13:59:44Z</time>
      </trkpt>
      <trkpt lat="37.316709" lon="-8.801656">
        <ele>18.827</ele>
        <time>2018-12-29T13:59:46Z</time>
      </trkpt>
      <trkpt lat="37.316710" lon="-8.801629">
        <ele>18.452</ele>
        <time>2018-12-29T13:59:48Z</time>
      </trkpt>
      <trkpt lat="37.316700" lon="-8.801535">
        <ele>18.468</ele>
        <time>2018-12-29T13:59:54Z</time>
      </trkpt>
      <trkpt lat="37.316700" lon="-8.801463">
        <ele>18.453</ele>
        <time>2018-12-29T13:59:59Z</time>
      </trkpt>
      <trkpt lat="37.316680" lon="-8.801365">
        <ele>18.429</ele>
        <time>2018-12-29T14:00:06Z</time>
      </trkpt>
      <trkpt lat="37.316669" lon="-8.801146">
        <ele>18.476</ele>
        <time>2018-12-29T14:00:20Z</time>
      </trkpt>
      <trkpt lat="37.316656" lon="-8.800947">
        <ele>18.454</ele>
        <time>2018-12-29T14:00:33Z</time>
      </trkpt>
      <trkpt lat="37.316656" lon="-8.800912">
        <ele>18.456</ele>
        <time>2018-12-29T14:00:35Z</time>
      </trkpt>
      <trkpt lat="37.316651" lon="-8.800849">
        <ele>17.911</ele>
        <time>2018-12-29T14:00:39Z</time>
      </trkpt>
      <trkpt lat="37.316651" lon="-8.800754">
        <ele>17.908</ele>
        <time>2018-12-29T14:00:45Z</time>
      </trkpt>
      <trkpt lat="37.316645" lon="-8.800644">
        <ele>17.928</ele>
        <time>2018-12-29T14:00:52Z</time>
      </trkpt>
      <trkpt lat="37.316641" lon="-8.800584">
        <ele>17.996</ele>
        <time>2018-12-29T14:00:56Z</time>
      </trkpt>
      <trkpt lat="37.316634" lon="-8.800458">
        <ele>17.973</ele>
        <time>2018-12-29T14:01:04Z</time>
      </trkpt>
      <trkpt lat="37.316603" lon="-8.800268">
        <ele>17.428</ele>
        <time>2018-12-29T14:01:16Z</time>
      </trkpt>
      <trkpt lat="37.316598" lon="-8.800214">
        <ele>17.994</ele>
        <time>2018-12-29T14:01:20Z</time>
      </trkpt>
      <trkpt lat="37.316550" lon="-8.800031">
        <ele>17.959</ele>
        <time>2018-12-29T14:01:33Z</time>
      </trkpt>
      <trkpt lat="37.316525" lon="-8.799877">
        <ele>17.445</ele>
        <time>2018-12-29T14:01:43Z</time>
      </trkpt>
      <trkpt lat="37.316497" lon="-8.799728">
        <ele>17.922</ele>
        <time>2018-12-29T14:01:53Z</time>
      </trkpt>
      <trkpt lat="37.316481" lon="-8.799611">
        <ele>17.995</ele>
        <time>2018-12-29T14:02:01Z</time>
      </trkpt>
      <trkpt lat="37.316460" lon="-8.799496">
        <ele>17.949</ele>
        <time>2018-12-29T14:02:09Z</time>
      </trkpt>
      <trkpt lat="37.316453" lon="-8.799444">
        <ele>17.923</ele>
        <time>2018-12-29T14:02:13Z</time>
      </trkpt>
      <trkpt lat="37.316439" lon="-8.799376">
        <ele>18.408</ele>
        <time>2018-12-29T14:02:18Z</time>
      </trkpt>
      <trkpt lat="37.316438" lon="-8.799335">
        <ele>17.992</ele>
        <time>2018-12-29T14:02:21Z</time>
      </trkpt>
      <trkpt lat="37.316362" lon="-8.799235">
        <ele>18.440</ele>
        <time>2018-12-29T14:02:32Z</time>
      </trkpt>
      <trkpt lat="37.316362" lon="-8.799235">
        <ele>18.427</ele>
        <time>2018-12-29T14:02:39Z</time>
      </trkpt>
      <trkpt lat="37.316363" lon="-8.799166">
        <ele>18.442</ele>
        <time>2018-12-29T14:02:54Z</time>
      </trkpt>
      <trkpt lat="37.316363" lon="-8.799166">
        <ele>18.488</ele>
        <time>2018-12-29T14:03:19Z</time>
      </trkpt>
      <trkpt lat="37.316362" lon="-8.799144">
        <ele>18.453</ele>
        <time>2018-12-29T14:03:41Z</time>
      </trkpt>
      <trkpt lat="37.316367" lon="-8.798917">
        <ele>18.469</ele>
        <time>2018-12-29T14:03:55Z</time>
      </trkpt>
      <trkpt lat="37.316374" lon="-8.798851">
        <ele>18.426</ele>
        <time>2018-12-29T14:03:59Z</time>
      </trkpt>
      <trkpt lat="37.316407" lon="-8.798774">
        <ele>18.813</ele>
        <time>2018-12-29T14:04:04Z</time>
      </trkpt>
      <trkpt lat="37.316394" lon="-8.798580">
        <ele>18.843</ele>
        <time>2018-12-29T14:04:17Z</time>
      </trkpt>
      <trkpt lat="37.316391" lon="-8.798551">
        <ele>19.307</ele>
        <time>2018-12-29T14:04:19Z</time>
      </trkpt>
      <trkpt lat="37.316381" lon="-8.798381">
        <ele>19.808</ele>
        <time>2018-12-29T14:04:30Z</time>
      </trkpt>
      <trkpt lat="37.316378" lon="-8.798353">
        <ele>19.864</ele>
        <time>2018-12-29T14:04:32Z</time>
      </trkpt>
      <trkpt lat="37.316384" lon="-8.798327">
        <ele>19.812</ele>
        <time>2018-12-29T14:04:34Z</time>
      </trkpt>
      <trkpt lat="37.316385" lon="-8.798166">
        <ele>20.389</ele>
        <time>2018-12-29T14:04:44Z</time>
      </trkpt>
      <trkpt lat="37.316369" lon="-8.798024">
        <ele>20.854</ele>
        <time>2018-12-29T14:04:53Z</time>
      </trkpt>
      <trkpt lat="37.316367" lon="-8.797879">
        <ele>22.250</ele>
        <time>2018-12-29T14:05:02Z</time>
      </trkpt>
      <trkpt lat="37.316365" lon="-8.797795">
        <ele>22.225</ele>
        <time>2018-12-29T14:05:08Z</time>
      </trkpt>
      <trkpt lat="37.316360" lon="-8.797758">
        <ele>22.771</ele>
        <time>2018-12-29T14:05:11Z</time>
      </trkpt>
      <trkpt lat="37.316372" lon="-8.797694">
        <ele>23.278</ele>
        <time>2018-12-29T14:05:16Z</time>
      </trkpt>
      <trkpt lat="37.316361" lon="-8.797651">
        <ele>23.678</ele>
        <time>2018-12-29T14:05:19Z</time>
      </trkpt>
      <trkpt lat="37.316364" lon="-8.797579">
        <ele>23.633</ele>
        <time>2018-12-29T14:05:24Z</time>
      </trkpt>
      <trkpt lat="37.316363" lon="-8.797494">
        <ele>24.126</ele>
        <time>2018-12-29T14:05:30Z</time>
      </trkpt>
      <trkpt lat="37.316366" lon="-8.797449">
        <ele>25.108</ele>
        <time>2018-12-29T14:05:33Z</time>
      </trkpt>
      <trkpt lat="37.316341" lon="-8.797320">
        <ele>26.510</ele>
        <time>2018-12-29T14:05:43Z</time>
      </trkpt>
      <trkpt lat="37.316339" lon="-8.797192">
        <ele>27.068</ele>
        <time>2018-12-29T14:05:52Z</time>
      </trkpt>
      <trkpt lat="37.316341" lon="-8.797186">
        <ele>27.555</ele>
        <time>2018-12-29T14:06:03Z</time>
      </trkpt>
      <trkpt lat="37.316348" lon="-8.797150">
        <ele>27.060</ele>
        <time>2018-12-29T14:06:06Z</time>
      </trkpt>
      <trkpt lat="37.316342" lon="-8.797030">
        <ele>28.036</ele>
        <time>2018-12-29T14:06:14Z</time>
      </trkpt>
      <trkpt lat="37.316342" lon="-8.796918">
        <ele>29.411</ele>
        <time>2018-12-29T14:06:23Z</time>
      </trkpt>
      <trkpt lat="37.316336" lon="-8.796860">
        <ele>29.457</ele>
        <time>2018-12-29T14:06:35Z</time>
      </trkpt>
      <trkpt lat="37.316346" lon="-8.796748">
        <ele>30.944</ele>
        <time>2018-12-29T14:06:44Z</time>
      </trkpt>
      <trkpt lat="37.316329" lon="-8.796637">
        <ele>31.837</ele>
        <time>2018-12-29T14:06:51Z</time>
      </trkpt>
      <trkpt lat="37.316331" lon="-8.796588">
        <ele>32.349</ele>
        <time>2018-12-29T14:06:55Z</time>
      </trkpt>
      <trkpt lat="37.316327" lon="-8.796457">
        <ele>33.713</ele>
        <time>2018-12-29T14:07:05Z</time>
      </trkpt>
      <trkpt lat="37.316341" lon="-8.796383">
        <ele>34.708</ele>
        <time>2018-12-29T14:07:10Z</time>
      </trkpt>
      <trkpt lat="37.316348" lon="-8.796286">
        <ele>35.796</ele>
        <time>2018-12-29T14:07:17Z</time>
      </trkpt>
      <trkpt lat="37.316353" lon="-8.796207">
        <ele>36.674</ele>
        <time>2018-12-29T14:07:23Z</time>
      </trkpt>
      <trkpt lat="37.316342" lon="-8.796108">
        <ele>38.551</ele>
        <time>2018-12-29T14:07:30Z</time>
      </trkpt>
      <trkpt lat="37.316324" lon="-8.796010">
        <ele>39.066</ele>
        <time>2018-12-29T14:07:37Z</time>
      </trkpt>
      <trkpt lat="37.316303" lon="-8.795958">
        <ele>40.042</ele>
        <time>2018-12-29T14:07:41Z</time>
      </trkpt>
      <trkpt lat="37.316275" lon="-8.795864">
        <ele>41.467</ele>
        <time>2018-12-29T14:07:48Z</time>
      </trkpt>
      <trkpt lat="37.316261" lon="-8.795812">
        <ele>40.973</ele>
        <time>2018-12-29T14:07:52Z</time>
      </trkpt>
      <trkpt lat="37.316249" lon="-8.795768">
        <ele>41.970</ele>
        <time>2018-12-29T14:07:55Z</time>
      </trkpt>
      <trkpt lat="37.316178" lon="-8.795679">
        <ele>42.917</ele>
        <time>2018-12-29T14:08:05Z</time>
      </trkpt>
      <trkpt lat="37.316165" lon="-8.795601">
        <ele>43.487</ele>
        <time>2018-12-29T14:08:12Z</time>
      </trkpt>
      <trkpt lat="37.316190" lon="-8.795452">
        <ele>43.415</ele>
        <time>2018-12-29T14:08:26Z</time>
      </trkpt>
      <trkpt lat="37.316195" lon="-8.795394">
        <ele>43.808</ele>
        <time>2018-12-29T14:08:31Z</time>
      </trkpt>
      <trkpt lat="37.316178" lon="-8.795298">
        <ele>43.824</ele>
        <time>2018-12-29T14:08:42Z</time>
      </trkpt>
      <trkpt lat="37.316172" lon="-8.795267">
        <ele>44.322</ele>
        <time>2018-12-29T14:09:01Z</time>
      </trkpt>
      <trkpt lat="37.316157" lon="-8.795146">
        <ele>43.499</ele>
        <time>2018-12-29T14:09:12Z</time>
      </trkpt>
      <trkpt lat="37.316157" lon="-8.795017">
        <ele>43.484</ele>
        <time>2018-12-29T14:09:25Z</time>
      </trkpt>
      <trkpt lat="37.316160" lon="-8.794958">
        <ele>43.450</ele>
        <time>2018-12-29T14:09:29Z</time>
      </trkpt>
      <trkpt lat="37.316171" lon="-8.794882">
        <ele>43.465</ele>
        <time>2018-12-29T14:09:34Z</time>
      </trkpt>
      <trkpt lat="37.316137" lon="-8.794829">
        <ele>42.911</ele>
        <time>2018-12-29T14:09:38Z</time>
      </trkpt>
      <trkpt lat="37.316146" lon="-8.794744">
        <ele>42.928</ele>
        <time>2018-12-29T14:09:48Z</time>
      </trkpt>
      <trkpt lat="37.316135" lon="-8.794705">
        <ele>42.934</ele>
        <time>2018-12-29T14:09:51Z</time>
      </trkpt>
      <trkpt lat="37.316135" lon="-8.794529">
        <ele>42.455</ele>
        <time>2018-12-29T14:10:06Z</time>
      </trkpt>
      <trkpt lat="37.316124" lon="-8.794375">
        <ele>41.910</ele>
        <time>2018-12-29T14:10:19Z</time>
      </trkpt>
      <trkpt lat="37.316094" lon="-8.794293">
        <ele>42.408</ele>
        <time>2018-12-29T14:10:32Z</time>
      </trkpt>
      <trkpt lat="37.316113" lon="-8.794260">
        <ele>42.426</ele>
        <time>2018-12-29T14:10:50Z</time>
      </trkpt>
      <trkpt lat="37.316122" lon="-8.794225">
        <ele>42.434</ele>
        <time>2018-12-29T14:11:05Z</time>
      </trkpt>
      <trkpt lat="37.316124" lon="-8.794217">
        <ele>41.421</ele>
        <time>2018-12-29T14:11:29Z</time>
      </trkpt>
      <trkpt lat="37.316124" lon="-8.794217">
        <ele>41.476</ele>
        <time>2018-12-29T14:12:03Z</time>
      </trkpt>
      <trkpt lat="37.316122" lon="-8.794215">
        <ele>41.422</ele>
        <time>2018-12-29T14:12:29Z</time>
      </trkpt>
      <trkpt lat="37.316120" lon="-8.794232">
        <ele>41.467</ele>
        <time>2018-12-29T14:12:53Z</time>
      </trkpt>
      <trkpt lat="37.316126" lon="-8.794340">
        <ele>41.423</ele>
        <time>2018-12-29T14:13:06Z</time>
      </trkpt>
      <trkpt lat="37.316142" lon="-8.794429">
        <ele>40.970</ele>
        <time>2018-12-29T14:13:15Z</time>
      </trkpt>
      <trkpt lat="37.316167" lon="-8.794554">
        <ele>41.968</ele>
        <time>2018-12-29T14:13:30Z</time>
      </trkpt>
      <trkpt lat="37.316154" lon="-8.794597">
        <ele>41.942</ele>
        <time>2018-12-29T14:13:33Z</time>
      </trkpt>
      <trkpt lat="37.316148" lon="-8.794838">
        <ele>41.926</ele>
        <time>2018-12-29T14:13:50Z</time>
      </trkpt>
      <trkpt lat="37.316150" lon="-8.794925">
        <ele>42.408</ele>
        <time>2018-12-29T14:13:56Z</time>
      </trkpt>
      <trkpt lat="37.316154" lon="-8.795072">
        <ele>42.979</ele>
        <time>2018-12-29T14:14:09Z</time>
      </trkpt>
      <trkpt lat="37.316168" lon="-8.795178">
        <ele>42.997</ele>
        <time>2018-12-29T14:14:26Z</time>
      </trkpt>
      <trkpt lat="37.316153" lon="-8.795193">
        <ele>43.424</ele>
        <time>2018-12-29T14:14:47Z</time>
      </trkpt>
      <trkpt lat="37.316148" lon="-8.795241">
        <ele>42.989</ele>
        <time>2018-12-29T14:14:59Z</time>
      </trkpt>
      <trkpt lat="37.316158" lon="-8.795251">
        <ele>42.495</ele>
        <time>2018-12-29T14:15:11Z</time>
      </trkpt>
      <trkpt lat="37.316190" lon="-8.796805">
        <ele>-14.385</ele>
        <time>2018-12-30T06:37:50Z</time>
      </trkpt>
      <trkpt lat="37.316304" lon="-8.796865">
        <ele>-12.989</ele>
        <time>2018-12-30T06:38:02Z</time>
      </trkpt>
      <trkpt lat="37.316308" lon="-8.796872">
        <ele>-12.917</ele>
        <time>2018-12-30T06:38:03Z</time>
      </trkpt>
      <trkpt lat="37.316324" lon="-8.796901">
        <ele>-9.008</ele>
        <time>2018-12-30T06:38:06Z</time>
      </trkpt>
      <trkpt lat="37.316336" lon="-8.796919">
        <ele>-4.771</ele>
        <time>2018-12-30T06:38:09Z</time>
      </trkpt>
      <trkpt lat="37.316341" lon="-8.796958">
        <ele>-0.969</ele>
        <time>2018-12-30T06:38:13Z</time>
      </trkpt>
      <trkpt lat="37.316347" lon="-8.796990">
        <ele>2.056</ele>
        <time>2018-12-30T06:38:16Z</time>
      </trkpt>
      <trkpt lat="37.316349" lon="-8.797030">
        <ele>5.461</ele>
        <time>2018-12-30T06:38:20Z</time>
      </trkpt>
      <trkpt lat="37.316345" lon="-8.797068">
        <ele>8.347</ele>
        <time>2018-12-30T06:38:24Z</time>
      </trkpt>
      <trkpt lat="37.316346" lon="-8.797133">
        <ele>11.654</ele>
        <time>2018-12-30T06:38:30Z</time>
      </trkpt>
      <trkpt lat="37.316354" lon="-8.797227">
        <ele>15.529</ele>
        <time>2018-12-30T06:38:39Z</time>
      </trkpt>
      <trkpt lat="37.316365" lon="-8.797283">
        <ele>16.990</ele>
        <time>2018-12-30T06:38:45Z</time>
      </trkpt>
      <trkpt lat="37.316356" lon="-8.797438">
        <ele>20.342</ele>
        <time>2018-12-30T06:39:00Z</time>
      </trkpt>
      <trkpt lat="37.316340" lon="-8.797481">
        <ele>20.822</ele>
        <time>2018-12-30T06:39:03Z</time>
      </trkpt>
      <trkpt lat="37.316347" lon="-8.797585">
        <ele>20.814</ele>
        <time>2018-12-30T06:39:12Z</time>
      </trkpt>
      <trkpt lat="37.316361" lon="-8.797716">
        <ele>20.308</ele>
        <time>2018-12-30T06:39:25Z</time>
      </trkpt>
      <trkpt lat="37.316365" lon="-8.797730">
        <ele>20.337</ele>
        <time>2018-12-30T06:39:27Z</time>
      </trkpt>
      <trkpt lat="37.316382" lon="-8.797887">
        <ele>18.485</ele>
        <time>2018-12-30T06:39:42Z</time>
      </trkpt>
      <trkpt lat="37.316383" lon="-8.797999">
        <ele>17.932</ele>
        <time>2018-12-30T06:39:55Z</time>
      </trkpt>
      <trkpt lat="37.316388" lon="-8.798040">
        <ele>17.947</ele>
        <time>2018-12-30T06:40:00Z</time>
      </trkpt>
      <trkpt lat="37.316389" lon="-8.798124">
        <ele>17.433</ele>
        <time>2018-12-30T06:40:07Z</time>
      </trkpt>
      <trkpt lat="37.316389" lon="-8.798181">
        <ele>16.930</ele>
        <time>2018-12-30T06:40:12Z</time>
      </trkpt>
      <trkpt lat="37.316401" lon="-8.798320">
        <ele>16.435</ele>
        <time>2018-12-30T06:40:23Z</time>
      </trkpt>
      <trkpt lat="37.316403" lon="-8.798528">
        <ele>15.566</ele>
        <time>2018-12-30T06:40:39Z</time>
      </trkpt>
      <trkpt lat="37.316404" lon="-8.798696">
        <ele>15.076</ele>
        <time>2018-12-30T06:40:52Z</time>
      </trkpt>
      <trkpt lat="37.316408" lon="-8.798842">
        <ele>14.590</ele>
        <time>2018-12-30T06:41:04Z</time>
      </trkpt>
      <trkpt lat="37.316398" lon="-8.798893">
        <ele>14.519</ele>
        <time>2018-12-30T06:41:09Z</time>
      </trkpt>
      <trkpt lat="37.316395" lon="-8.798993">
        <ele>14.508</ele>
        <time>2018-12-30T06:41:20Z</time>
      </trkpt>
      <trkpt lat="37.316408" lon="-8.799126">
        <ele>14.560</ele>
        <time>2018-12-30T06:41:31Z</time>
      </trkpt>
      <trkpt lat="37.316407" lon="-8.799190">
        <ele>14.588</ele>
        <time>2018-12-30T06:41:44Z</time>
      </trkpt>
      <trkpt lat="37.316408" lon="-8.799198">
        <ele>14.025</ele>
        <time>2018-12-30T06:41:59Z</time>
      </trkpt>
      <trkpt lat="37.316421" lon="-8.799273">
        <ele>14.040</ele>
        <time>2018-12-30T06:42:16Z</time>
      </trkpt>
      <trkpt lat="37.316425" lon="-8.799327">
        <ele>14.026</ele>
        <time>2018-12-30T06:42:19Z</time>
      </trkpt>
      <trkpt lat="37.316452" lon="-8.799527">
        <ele>14.063</ele>
        <time>2018-12-30T06:42:33Z</time>
      </trkpt>
      <trkpt lat="37.316477" lon="-8.799699">
        <ele>13.648</ele>
        <time>2018-12-30T06:42:46Z</time>
      </trkpt>
      <trkpt lat="37.316498" lon="-8.799790">
        <ele>13.619</ele>
        <time>2018-12-30T06:42:54Z</time>
      </trkpt>
      <trkpt lat="37.316519" lon="-8.799862">
        <ele>14.066</ele>
        <time>2018-12-30T06:43:03Z</time>
      </trkpt>
      <trkpt lat="37.316524" lon="-8.799901">
        <ele>13.629</ele>
        <time>2018-12-30T06:43:06Z</time>
      </trkpt>
      <trkpt lat="37.316533" lon="-8.799941">
        <ele>14.021</ele>
        <time>2018-12-30T06:43:09Z</time>
      </trkpt>
      <trkpt lat="37.316561" lon="-8.800108">
        <ele>13.608</ele>
        <time>2018-12-30T06:43:20Z</time>
      </trkpt>
      <trkpt lat="37.316569" lon="-8.800193">
        <ele>14.019</ele>
        <time>2018-12-30T06:43:26Z</time>
      </trkpt>
      <trkpt lat="37.316582" lon="-8.800252">
        <ele>13.157</ele>
        <time>2018-12-30T06:43:31Z</time>
      </trkpt>
      <trkpt lat="37.316593" lon="-8.800270">
        <ele>13.634</ele>
        <time>2018-12-30T06:43:33Z</time>
      </trkpt>
      <trkpt lat="37.316625" lon="-8.800315">
        <ele>13.699</ele>
        <time>2018-12-30T06:43:37Z</time>
      </trkpt>
      <trkpt lat="37.316628" lon="-8.800347">
        <ele>13.615</ele>
        <time>2018-12-30T06:43:40Z</time>
      </trkpt>
      <trkpt lat="37.316608" lon="-8.800496">
        <ele>13.672</ele>
        <time>2018-12-30T06:43:53Z</time>
      </trkpt>
      <trkpt lat="37.316625" lon="-8.800683">
        <ele>13.647</ele>
        <time>2018-12-30T06:44:06Z</time>
      </trkpt>
      <trkpt lat="37.316625" lon="-8.800755">
        <ele>13.628</ele>
        <time>2018-12-30T06:44:11Z</time>
      </trkpt>
      <trkpt lat="37.316673" lon="-8.800810">
        <ele>14.095</ele>
        <time>2018-12-30T06:44:23Z</time>
      </trkpt>
      <trkpt lat="37.316673" lon="-8.800810">
        <ele>13.649</ele>
        <time>2018-12-30T06:44:26Z</time>
      </trkpt>
      <trkpt lat="37.316678" lon="-8.800824">
        <ele>13.623</ele>
        <time>2018-12-30T06:44:33Z</time>
      </trkpt>
      <trkpt lat="37.316684" lon="-8.800859">
        <ele>13.108</ele>
        <time>2018-12-30T06:44:35Z</time>
      </trkpt>
      <trkpt lat="37.316718" lon="-8.801001">
        <ele>14.092</ele>
        <time>2018-12-30T06:44:48Z</time>
      </trkpt>
      <trkpt lat="37.316718" lon="-8.801014">
        <ele>13.680</ele>
        <time>2018-12-30T06:44:53Z</time>
      </trkpt>
      <trkpt lat="37.316731" lon="-8.801176">
        <ele>14.037</ele>
        <time>2018-12-30T06:45:09Z</time>
      </trkpt>
      <trkpt lat="37.316731" lon="-8.801176">
        <ele>14.042</ele>
        <time>2018-12-30T06:45:12Z</time>
      </trkpt>
      <trkpt lat="37.316714" lon="-8.801226">
        <ele>13.648</ele>
        <time>2018-12-30T06:45:16Z</time>
      </trkpt>
      <trkpt lat="37.316659" lon="-8.801319">
        <ele>14.525</ele>
        <time>2018-12-30T06:45:23Z</time>
      </trkpt>
      <trkpt lat="37.316669" lon="-8.801403">
        <ele>14.030</ele>
        <time>2018-12-30T06:45:28Z</time>
      </trkpt>
      <trkpt lat="37.316683" lon="-8.801627">
        <ele>14.591</ele>
        <time>2018-12-30T06:45:43Z</time>
      </trkpt>
      <trkpt lat="37.316698" lon="-8.801834">
        <ele>14.544</ele>
        <time>2018-12-30T06:45:57Z</time>
      </trkpt>
      <trkpt lat="37.316712" lon="-8.801920">
        <ele>14.005</ele>
        <time>2018-12-30T06:46:03Z</time>
      </trkpt>
      <trkpt lat="37.316721" lon="-8.802121">
        <ele>14.515</ele>
        <time>2018-12-30T06:46:16Z</time>
      </trkpt>
      <trkpt lat="37.316729" lon="-8.802351">
        <ele>14.508</ele>
        <time>2018-12-30T06:46:31Z</time>
      </trkpt>
      <trkpt lat="37.316725" lon="-8.802403">
        <ele>14.597</ele>
        <time>2018-12-30T06:46:35Z</time>
      </trkpt>
      <trkpt lat="37.316733" lon="-8.802496">
        <ele>14.545</ele>
        <time>2018-12-30T06:46:41Z</time>
      </trkpt>
      <trkpt lat="37.316706" lon="-8.802679">
        <ele>14.512</ele>
        <time>2018-12-30T06:46:54Z</time>
      </trkpt>
      <trkpt lat="37.316678" lon="-8.802741">
        <ele>14.577</ele>
        <time>2018-12-30T06:47:05Z</time>
      </trkpt>
      <trkpt lat="37.316726" lon="-8.802804">
        <ele>14.573</ele>
        <time>2018-12-30T06:47:11Z</time>
      </trkpt>
      <trkpt lat="37.316709" lon="-8.803000">
        <ele>14.520</ele>
        <time>2018-12-30T06:47:25Z</time>
      </trkpt>
      <trkpt lat="37.316707" lon="-8.803037">
        <ele>14.575</ele>
        <time>2018-12-30T06:47:28Z</time>
      </trkpt>
      <trkpt lat="37.316698" lon="-8.803070">
        <ele>15.096</ele>
        <time>2018-12-30T06:47:31Z</time>
      </trkpt>
      <trkpt lat="37.316681" lon="-8.803162">
        <ele>14.545</ele>
        <time>2018-12-30T06:47:37Z</time>
      </trkpt>
      <trkpt lat="37.316634" lon="-8.803364">
        <ele>14.547</ele>
        <time>2018-12-30T06:47:52Z</time>
      </trkpt>
      <trkpt lat="37.316651" lon="-8.803518">
        <ele>13.611</ele>
        <time>2018-12-30T06:48:06Z</time>
      </trkpt>
      <trkpt lat="37.316658" lon="-8.803525">
        <ele>13.608</ele>
        <time>2018-12-30T06:48:07Z</time>
      </trkpt>
      <trkpt lat="37.316681" lon="-8.803531">
        <ele>13.137</ele>
        <time>2018-12-30T06:48:11Z</time>
      </trkpt>
      <trkpt lat="37.316702" lon="-8.803536">
        <ele>13.175</ele>
        <time>2018-12-30T06:48:13Z</time>
      </trkpt>
      <trkpt lat="37.316807" lon="-8.803549">
        <ele>13.182</ele>
        <time>2018-12-30T06:48:23Z</time>
      </trkpt>
      <trkpt lat="37.316881" lon="-8.803547">
        <ele>13.677</ele>
        <time>2018-12-30T06:48:31Z</time>
      </trkpt>
      <trkpt lat="37.316996" lon="-8.803546">
        <ele>14.023</ele>
        <time>2018-12-30T06:48:42Z</time>
      </trkpt>
      <trkpt lat="37.317017" lon="-8.803546">
        <ele>14.090</ele>
        <time>2018-12-30T06:48:52Z</time>
      </trkpt>
      <trkpt lat="37.317051" lon="-8.803553">
        <ele>13.635</ele>
        <time>2018-12-30T06:48:55Z</time>
      </trkpt>
      <trkpt lat="37.317080" lon="-8.803562">
        <ele>14.026</ele>
        <time>2018-12-30T06:48:57Z</time>
      </trkpt>
      <trkpt lat="37.317114" lon="-8.803571">
        <ele>14.012</ele>
        <time>2018-12-30T06:49:00Z</time>
      </trkpt>
      <trkpt lat="37.317191" lon="-8.803551">
        <ele>14.532</ele>
        <time>2018-12-30T06:49:12Z</time>
      </trkpt>
      <trkpt lat="37.317243" lon="-8.803535">
        <ele>14.005</ele>
        <time>2018-12-30T06:49:18Z</time>
      </trkpt>
      <trkpt lat="37.317354" lon="-8.803469">
        <ele>14.508</ele>
        <time>2018-12-30T06:49:27Z</time>
      </trkpt>
      <trkpt lat="37.317400" lon="-8.803443">
        <ele>14.554</ele>
        <time>2018-12-30T06:49:32Z</time>
      </trkpt>
      <trkpt lat="37.317515" lon="-8.803418">
        <ele>14.012</ele>
        <time>2018-12-30T06:49:41Z</time>
      </trkpt>
      <trkpt lat="37.317590" lon="-8.803383">
        <ele>13.649</ele>
        <time>2018-12-30T06:49:48Z</time>
      </trkpt>
      <trkpt lat="37.317663" lon="-8.803355">
        <ele>13.154</ele>
        <time>2018-12-30T06:49:54Z</time>
      </trkpt>
      <trkpt lat="37.317689" lon="-8.803347">
        <ele>12.650</ele>
        <time>2018-12-30T06:49:58Z</time>
      </trkpt>
      <trkpt lat="37.317750" lon="-8.803345">
        <ele>12.687</ele>
        <time>2018-12-30T06:50:05Z</time>
      </trkpt>
      <trkpt lat="37.317779" lon="-8.803349">
        <ele>12.632</ele>
        <time>2018-12-30T06:50:08Z</time>
      </trkpt>
      <trkpt lat="37.317823" lon="-8.803348">
        <ele>13.173</ele>
        <time>2018-12-30T06:50:12Z</time>
      </trkpt>
      <trkpt lat="37.317863" lon="-8.803355">
        <ele>13.614</ele>
        <time>2018-12-30T06:50:16Z</time>
      </trkpt>
      <trkpt lat="37.317893" lon="-8.803336">
        <ele>13.654</ele>
        <time>2018-12-30T06:50:19Z</time>
      </trkpt>
      <trkpt lat="37.317925" lon="-8.803331">
        <ele>14.009</ele>
        <time>2018-12-30T06:50:22Z</time>
      </trkpt>
      <trkpt lat="37.317969" lon="-8.803317">
        <ele>14.008</ele>
        <time>2018-12-30T06:50:26Z</time>
      </trkpt>
      <trkpt lat="37.318019" lon="-8.803296">
        <ele>14.544</ele>
        <time>2018-12-30T06:50:31Z</time>
      </trkpt>
      <trkpt lat="37.318074" lon="-8.803290">
        <ele>15.552</ele>
        <time>2018-12-30T06:50:36Z</time>
      </trkpt>
      <trkpt lat="37.318120" lon="-8.803282">
        <ele>16.039</ele>
        <time>2018-12-30T06:50:40Z</time>
      </trkpt>
      <trkpt lat="37.318183" lon="-8.803284">
        <ele>16.484</ele>
        <time>2018-12-30T06:50:46Z</time>
      </trkpt>
      <trkpt lat="37.318344" lon="-8.803271">
        <ele>18.410</ele>
        <time>2018-12-30T06:50:59Z</time>
      </trkpt>
      <trkpt lat="37.318404" lon="-8.803268">
        <ele>19.367</ele>
        <time>2018-12-30T06:51:06Z</time>
      </trkpt>
      <trkpt lat="37.318439" lon="-8.803260">
        <ele>19.832</ele>
        <time>2018-12-30T06:51:09Z</time>
      </trkpt>
      <trkpt lat="37.318464" lon="-8.803260">
        <ele>20.373</ele>
        <time>2018-12-30T06:51:11Z</time>
      </trkpt>
      <trkpt lat="37.318602" lon="-8.803245">
        <ele>22.237</ele>
        <time>2018-12-30T06:51:24Z</time>
      </trkpt>
      <trkpt lat="37.318653" lon="-8.803216">
        <ele>22.749</ele>
        <time>2018-12-30T06:51:29Z</time>
      </trkpt>
      <trkpt lat="37.318671" lon="-8.803220">
        <ele>22.713</ele>
        <time>2018-12-30T06:51:39Z</time>
      </trkpt>
      <trkpt lat="37.318707" lon="-8.803205">
        <ele>23.608</ele>
        <time>2018-12-30T06:51:42Z</time>
      </trkpt>
      <trkpt lat="37.318809" lon="-8.803202">
        <ele>25.126</ele>
        <time>2018-12-30T06:51:52Z</time>
      </trkpt>
      <trkpt lat="37.318920" lon="-8.803217">
        <ele>27.024</ele>
        <time>2018-12-30T06:52:03Z</time>
      </trkpt>
      <trkpt lat="37.318950" lon="-8.803228">
        <ele>27.561</ele>
        <time>2018-12-30T06:52:06Z</time>
      </trkpt>
      <trkpt lat="37.318967" lon="-8.803231">
        <ele>27.556</ele>
        <time>2018-12-30T06:52:08Z</time>
      </trkpt>
      <trkpt lat="37.319002" lon="-8.803232">
        <ele>28.562</ele>
        <time>2018-12-30T06:52:26Z</time>
      </trkpt>
      <trkpt lat="37.319035" lon="-8.803232">
        <ele>29.499</ele>
        <time>2018-12-30T06:52:31Z</time>
      </trkpt>
      <trkpt lat="37.319169" lon="-8.803245">
        <ele>29.914</ele>
        <time>2018-12-30T06:52:43Z</time>
      </trkpt>
      <trkpt lat="37.319274" lon="-8.803223">
        <ele>30.455</ele>
        <time>2018-12-30T06:52:54Z</time>
      </trkpt>
      <trkpt lat="37.319282" lon="-8.803238">
        <ele>29.959</ele>
        <time>2018-12-30T06:53:04Z</time>
      </trkpt>
      <trkpt lat="37.319293" lon="-8.803199">
        <ele>29.403</ele>
        <time>2018-12-30T06:53:10Z</time>
      </trkpt>
      <trkpt lat="37.319323" lon="-8.803124">
        <ele>28.523</ele>
        <time>2018-12-30T06:53:16Z</time>
      </trkpt>
      <trkpt lat="37.319351" lon="-8.803087">
        <ele>28.008</ele>
        <time>2018-12-30T06:53:19Z</time>
      </trkpt>
      <trkpt lat="37.319361" lon="-8.803062">
        <ele>28.058</ele>
        <time>2018-12-30T06:53:22Z</time>
      </trkpt>
      <trkpt lat="37.319387" lon="-8.803034">
        <ele>27.086</ele>
        <time>2018-12-30T06:53:25Z</time>
      </trkpt>
      <trkpt lat="37.319400" lon="-8.802963">
        <ele>26.583</ele>
        <time>2018-12-30T06:53:32Z</time>
      </trkpt>
      <trkpt lat="37.319426" lon="-8.802882">
        <ele>26.038</ele>
        <time>2018-12-30T06:53:40Z</time>
      </trkpt>
      <trkpt lat="37.319463" lon="-8.802804">
        <ele>25.144</ele>
        <time>2018-12-30T06:53:50Z</time>
      </trkpt>
      <trkpt lat="37.319479" lon="-8.802791">
        <ele>24.651</ele>
        <time>2018-12-30T06:53:51Z</time>
      </trkpt>
      <trkpt lat="37.319511" lon="-8.802763">
        <ele>25.146</ele>
        <time>2018-12-30T06:54:06Z</time>
      </trkpt>
      <trkpt lat="37.319539" lon="-8.802746">
        <ele>24.637</ele>
        <time>2018-12-30T06:54:10Z</time>
      </trkpt>
      <trkpt lat="37.319578" lon="-8.802709">
        <ele>24.152</ele>
        <time>2018-12-30T06:54:14Z</time>
      </trkpt>
      <trkpt lat="37.319601" lon="-8.802673">
        <ele>24.153</ele>
        <time>2018-12-30T06:54:17Z</time>
      </trkpt>
      <trkpt lat="37.319692" lon="-8.802605">
        <ele>23.608</ele>
        <time>2018-12-30T06:54:27Z</time>
      </trkpt>
      <trkpt lat="37.319791" lon="-8.802551">
        <ele>22.708</ele>
        <time>2018-12-30T06:54:34Z</time>
      </trkpt>
      <trkpt lat="37.319822" lon="-8.802533">
        <ele>22.748</ele>
        <time>2018-12-30T06:54:38Z</time>
      </trkpt>
      <trkpt lat="37.319863" lon="-8.802498">
        <ele>21.716</ele>
        <time>2018-12-30T06:54:44Z</time>
      </trkpt>
      <trkpt lat="37.319935" lon="-8.802466">
        <ele>21.233</ele>
        <time>2018-12-30T06:54:52Z</time>
      </trkpt>
      <trkpt lat="37.319952" lon="-8.802467">
        <ele>20.848</ele>
        <time>2018-12-30T06:54:54Z</time>
      </trkpt>
      <trkpt lat="37.320008" lon="-8.802459">
        <ele>20.824</ele>
        <time>2018-12-30T06:55:07Z</time>
      </trkpt>
      <trkpt lat="37.320009" lon="-8.802457">
        <ele>20.341</ele>
        <time>2018-12-30T06:55:12Z</time>
      </trkpt>
      <trkpt lat="37.320025" lon="-8.802444">
        <ele>19.856</ele>
        <time>2018-12-30T06:55:14Z</time>
      </trkpt>
      <trkpt lat="37.320113" lon="-8.802419">
        <ele>18.827</ele>
        <time>2018-12-30T06:55:23Z</time>
      </trkpt>
      <trkpt lat="37.320163" lon="-8.802406">
        <ele>18.857</ele>
        <time>2018-12-30T06:55:36Z</time>
      </trkpt>
      <trkpt lat="37.320149" lon="-8.802394">
        <ele>18.800</ele>
        <time>2018-12-30T06:55:46Z</time>
      </trkpt>
      <trkpt lat="37.320153" lon="-8.802395">
        <ele>18.820</ele>
        <time>2018-12-30T06:55:49Z</time>
      </trkpt>
      <trkpt lat="37.320194" lon="-8.802398">
        <ele>18.408</ele>
        <time>2018-12-30T06:55:53Z</time>
      </trkpt>
      <trkpt lat="37.320217" lon="-8.802399">
        <ele>18.478</ele>
        <time>2018-12-30T06:55:55Z</time>
      </trkpt>
      <trkpt lat="37.320257" lon="-8.802394">
        <ele>17.976</ele>
        <time>2018-12-30T06:55:59Z</time>
      </trkpt>
      <trkpt lat="37.320381" lon="-8.802360">
        <ele>16.973</ele>
        <time>2018-12-30T06:56:10Z</time>
      </trkpt>
      <trkpt lat="37.320407" lon="-8.802343">
        <ele>16.998</ele>
        <time>2018-12-30T06:56:13Z</time>
      </trkpt>
      <trkpt lat="37.320450" lon="-8.802330">
        <ele>16.944</ele>
        <time>2018-12-30T06:56:17Z</time>
      </trkpt>
      <trkpt lat="37.320491" lon="-8.802324">
        <ele>16.421</ele>
        <time>2018-12-30T06:56:21Z</time>
      </trkpt>
      <trkpt lat="37.320569" lon="-8.802287">
        <ele>16.016</ele>
        <time>2018-12-30T06:56:29Z</time>
      </trkpt>
      <trkpt lat="37.320582" lon="-8.802281">
        <ele>16.037</ele>
        <time>2018-12-30T06:56:31Z</time>
      </trkpt>
      <trkpt lat="37.320621" lon="-8.802265">
        <ele>16.059</ele>
        <time>2018-12-30T06:56:35Z</time>
      </trkpt>
      <trkpt lat="37.320754" lon="-8.802206">
        <ele>15.003</ele>
        <time>2018-12-30T06:56:47Z</time>
      </trkpt>
      <trkpt lat="37.320798" lon="-8.802186">
        <ele>15.023</ele>
        <time>2018-12-30T06:56:51Z</time>
      </trkpt>
      <trkpt lat="37.320845" lon="-8.802171">
        <ele>15.008</ele>
        <time>2018-12-30T06:56:55Z</time>
      </trkpt>
      <trkpt lat="37.320970" lon="-8.802155">
        <ele>14.578</ele>
        <time>2018-12-30T06:57:06Z</time>
      </trkpt>
      <trkpt lat="37.321004" lon="-8.802162">
        <ele>14.526</ele>
        <time>2018-12-30T06:57:09Z</time>
      </trkpt>
      <trkpt lat="37.321047" lon="-8.802162">
        <ele>14.533</ele>
        <time>2018-12-30T06:57:13Z</time>
      </trkpt>
      <trkpt lat="37.321112" lon="-8.802173">
        <ele>14.538</ele>
        <time>2018-12-30T06:57:19Z</time>
      </trkpt>
      <trkpt lat="37.321138" lon="-8.802181">
        <ele>14.534</ele>
        <time>2018-12-30T06:57:21Z</time>
      </trkpt>
      <trkpt lat="37.321203" lon="-8.802172">
        <ele>14.591</ele>
        <time>2018-12-30T06:57:27Z</time>
      </trkpt>
      <trkpt lat="37.321268" lon="-8.802175">
        <ele>14.576</ele>
        <time>2018-12-30T06:57:33Z</time>
      </trkpt>
      <trkpt lat="37.321291" lon="-8.802179">
        <ele>14.577</ele>
        <time>2018-12-30T06:57:35Z</time>
      </trkpt>
      <trkpt lat="37.321347" lon="-8.802175">
        <ele>14.525</ele>
        <time>2018-12-30T06:57:40Z</time>
      </trkpt>
      <trkpt lat="37.321456" lon="-8.802207">
        <ele>15.026</ele>
        <time>2018-12-30T06:57:51Z</time>
      </trkpt>
      <trkpt lat="37.321500" lon="-8.802209">
        <ele>15.008</ele>
        <time>2018-12-30T06:57:55Z</time>
      </trkpt>
      <trkpt lat="37.321565" lon="-8.802210">
        <ele>15.508</ele>
        <time>2018-12-30T06:58:01Z</time>
      </trkpt>
      <trkpt lat="37.321594" lon="-8.802216">
        <ele>15.055</ele>
        <time>2018-12-30T06:58:04Z</time>
      </trkpt>
      <trkpt lat="37.321707" lon="-8.802229">
        <ele>15.023</ele>
        <time>2018-12-30T06:58:15Z</time>
      </trkpt>
      <trkpt lat="37.321716" lon="-8.802233">
        <ele>15.050</ele>
        <time>2018-12-30T06:58:16Z</time>
      </trkpt>
      <trkpt lat="37.321793" lon="-8.802235">
        <ele>15.545</ele>
        <time>2018-12-30T06:58:23Z</time>
      </trkpt>
      <trkpt lat="37.321905" lon="-8.802241">
        <ele>15.081</ele>
        <time>2018-12-30T06:58:33Z</time>
      </trkpt>
      <trkpt lat="37.321927" lon="-8.802235">
        <ele>15.058</ele>
        <time>2018-12-30T06:58:35Z</time>
      </trkpt>
      <trkpt lat="37.322025" lon="-8.802225">
        <ele>14.593</ele>
        <time>2018-12-30T06:58:44Z</time>
      </trkpt>
      <trkpt lat="37.322058" lon="-8.802223">
        <ele>15.064</ele>
        <time>2018-12-30T06:58:47Z</time>
      </trkpt>
      <trkpt lat="37.322112" lon="-8.802233">
        <ele>15.084</ele>
        <time>2018-12-30T06:58:51Z</time>
      </trkpt>
      <trkpt lat="37.322165" lon="-8.802234">
        <ele>15.007</ele>
        <time>2018-12-30T06:58:56Z</time>
      </trkpt>
      <trkpt lat="37.322200" lon="-8.802235">
        <ele>15.017</ele>
        <time>2018-12-30T06:58:59Z</time>
      </trkpt>
      <trkpt lat="37.322317" lon="-8.802252">
        <ele>14.508</ele>
        <time>2018-12-30T06:59:09Z</time>
      </trkpt>
      <trkpt lat="37.322386" lon="-8.802297">
        <ele>14.521</ele>
        <time>2018-12-30T06:59:16Z</time>
      </trkpt>
      <trkpt lat="37.322429" lon="-8.802337">
        <ele>14.519</ele>
        <time>2018-12-30T06:59:20Z</time>
      </trkpt>
      <trkpt lat="37.322517" lon="-8.802437">
        <ele>14.596</ele>
        <time>2018-12-30T06:59:31Z</time>
      </trkpt>
      <trkpt lat="37.322538" lon="-8.802458">
        <ele>14.561</ele>
        <time>2018-12-30T06:59:34Z</time>
      </trkpt>
      <trkpt lat="37.322576" lon="-8.802486">
        <ele>14.547</ele>
        <time>2018-12-30T06:59:38Z</time>
      </trkpt>
      <trkpt lat="37.322597" lon="-8.802498">
        <ele>14.054</ele>
        <time>2018-12-30T06:59:40Z</time>
      </trkpt>
      <trkpt lat="37.322659" lon="-8.802537">
        <ele>14.529</ele>
        <time>2018-12-30T06:59:45Z</time>
      </trkpt>
      <trkpt lat="37.322692" lon="-8.802585">
        <ele>14.030</ele>
        <time>2018-12-30T06:59:50Z</time>
      </trkpt>
      <trkpt lat="37.322706" lon="-8.802632">
        <ele>14.052</ele>
        <time>2018-12-30T06:59:53Z</time>
      </trkpt>
      <trkpt lat="37.322797" lon="-8.802751">
        <ele>14.053</ele>
        <time>2018-12-30T07:00:04Z</time>
      </trkpt>
      <trkpt lat="37.322815" lon="-8.802789">
        <ele>13.608</ele>
        <time>2018-12-30T07:00:07Z</time>
      </trkpt>
      <trkpt lat="37.322912" lon="-8.802850">
        <ele>13.608</ele>
        <time>2018-12-30T07:00:17Z</time>
      </trkpt>
      <trkpt lat="37.322922" lon="-8.802859">
        <ele>13.648</ele>
        <time>2018-12-30T07:00:18Z</time>
      </trkpt>
      <trkpt lat="37.323017" lon="-8.802900">
        <ele>12.696</ele>
        <time>2018-12-30T07:00:27Z</time>
      </trkpt>
      <trkpt lat="37.323059" lon="-8.802912">
        <ele>13.153</ele>
        <time>2018-12-30T07:00:30Z</time>
      </trkpt>
      <trkpt lat="37.323102" lon="-8.802917">
        <ele>12.698</ele>
        <time>2018-12-30T07:00:34Z</time>
      </trkpt>
      <trkpt lat="37.323163" lon="-8.802923">
        <ele>12.634</ele>
        <time>2018-12-30T07:00:44Z</time>
      </trkpt>
      <trkpt lat="37.323159" lon="-8.802935">
        <ele>13.621</ele>
        <time>2018-12-30T07:00:53Z</time>
      </trkpt>
      <trkpt lat="37.323123" lon="-8.802942">
        <ele>13.676</ele>
        <time>2018-12-30T07:00:56Z</time>
      </trkpt>
      <trkpt lat="37.323055" lon="-8.802928">
        <ele>13.167</ele>
        <time>2018-12-30T07:01:02Z</time>
      </trkpt>
      <trkpt lat="37.323057" lon="-8.802949">
        <ele>14.086</ele>
        <time>2018-12-30T07:01:10Z</time>
      </trkpt>
      <trkpt lat="37.323160" lon="-8.802892">
        <ele>12.660</ele>
        <time>2018-12-30T07:01:20Z</time>
      </trkpt>
      <trkpt lat="37.323171" lon="-8.802886">
        <ele>12.626</ele>
        <time>2018-12-30T07:01:21Z</time>
      </trkpt>
      <trkpt lat="37.323246" lon="-8.802868">
        <ele>12.108</ele>
        <time>2018-12-30T07:01:27Z</time>
      </trkpt>
      <trkpt lat="37.323310" lon="-8.802879">
        <ele>11.611</ele>
        <time>2018-12-30T07:01:33Z</time>
      </trkpt>
      <trkpt lat="37.323432" lon="-8.802856">
        <ele>11.629</ele>
        <time>2018-12-30T07:01:41Z</time>
      </trkpt>
      <trkpt lat="37.323444" lon="-8.802870">
        <ele>12.116</ele>
        <time>2018-12-30T07:01:44Z</time>
      </trkpt>
      <trkpt lat="37.323470" lon="-8.802871">
        <ele>12.171</ele>
        <time>2018-12-30T07:01:46Z</time>
      </trkpt>
      <trkpt lat="37.323579" lon="-8.802863">
        <ele>11.667</ele>
        <time>2018-12-30T07:01:55Z</time>
      </trkpt>
      <trkpt lat="37.323625" lon="-8.802879">
        <ele>11.664</ele>
        <time>2018-12-30T07:01:59Z</time>
      </trkpt>
      <trkpt lat="37.323660" lon="-8.802884">
        <ele>11.619</ele>
        <time>2018-12-30T07:02:02Z</time>
      </trkpt>
      <trkpt lat="37.323684" lon="-8.802895">
        <ele>11.670</ele>
        <time>2018-12-30T07:02:04Z</time>
      </trkpt>
      <trkpt lat="37.323776" lon="-8.802900">
        <ele>11.634</ele>
        <time>2018-12-30T07:02:11Z</time>
      </trkpt>
      <trkpt lat="37.323896" lon="-8.802932">
        <ele>11.155</ele>
        <time>2018-12-30T07:02:21Z</time>
      </trkpt>
      <trkpt lat="37.323989" lon="-8.802990">
        <ele>11.610</ele>
        <time>2018-12-30T07:02:30Z</time>
      </trkpt>
      <trkpt lat="37.324096" lon="-8.803068">
        <ele>11.608</ele>
        <time>2018-12-30T07:02:40Z</time>
      </trkpt>
      <trkpt lat="37.324107" lon="-8.803077">
        <ele>11.196</ele>
        <time>2018-12-30T07:02:41Z</time>
      </trkpt>
      <trkpt lat="37.324155" lon="-8.803096">
        <ele>11.654</ele>
        <time>2018-12-30T07:02:45Z</time>
      </trkpt>
      <trkpt lat="37.324289" lon="-8.803189">
        <ele>11.661</ele>
        <time>2018-12-30T07:02:57Z</time>
      </trkpt>
      <trkpt lat="37.324335" lon="-8.803227">
        <ele>11.626</ele>
        <time>2018-12-30T07:03:02Z</time>
      </trkpt>
      <trkpt lat="37.324421" lon="-8.803287">
        <ele>11.612</ele>
        <time>2018-12-30T07:03:10Z</time>
      </trkpt>
      <trkpt lat="37.324469" lon="-8.803332">
        <ele>11.199</ele>
        <time>2018-12-30T07:03:15Z</time>
      </trkpt>
      <trkpt lat="37.324566" lon="-8.803398">
        <ele>11.174</ele>
        <time>2018-12-30T07:03:24Z</time>
      </trkpt>
      <trkpt lat="37.324585" lon="-8.803422">
        <ele>11.635</ele>
        <time>2018-12-30T07:03:26Z</time>
      </trkpt>
      <trkpt lat="37.324644" lon="-8.803471">
        <ele>11.149</ele>
        <time>2018-12-30T07:03:32Z</time>
      </trkpt>
      <trkpt lat="37.324770" lon="-8.803485">
        <ele>13.102</ele>
        <time>2018-12-30T07:03:43Z</time>
      </trkpt>
      <trkpt lat="37.324856" lon="-8.803433">
        <ele>13.122</ele>
        <time>2018-12-30T07:03:55Z</time>
      </trkpt>
      <trkpt lat="37.324903" lon="-8.803418">
        <ele>13.108</ele>
        <time>2018-12-30T07:03:59Z</time>
      </trkpt>
      <trkpt lat="37.324950" lon="-8.803398">
        <ele>12.697</ele>
        <time>2018-12-30T07:04:03Z</time>
      </trkpt>
      <trkpt lat="37.324986" lon="-8.803344">
        <ele>13.175</ele>
        <time>2018-12-30T07:04:09Z</time>
      </trkpt>
      <trkpt lat="37.325008" lon="-8.803327">
        <ele>12.642</ele>
        <time>2018-12-30T07:04:11Z</time>
      </trkpt>
      <trkpt lat="37.325035" lon="-8.803311">
        <ele>13.137</ele>
        <time>2018-12-30T07:04:18Z</time>
      </trkpt>
      <trkpt lat="37.325054" lon="-8.803345">
        <ele>12.623</ele>
        <time>2018-12-30T07:04:23Z</time>
      </trkpt>
      <trkpt lat="37.325117" lon="-8.803379">
        <ele>13.140</ele>
        <time>2018-12-30T07:04:36Z</time>
      </trkpt>
      <trkpt lat="37.325122" lon="-8.803373">
        <ele>12.635</ele>
        <time>2018-12-30T07:04:51Z</time>
      </trkpt>
      <trkpt lat="37.325152" lon="-8.803389">
        <ele>12.676</ele>
        <time>2018-12-30T07:05:00Z</time>
      </trkpt>
      <trkpt lat="37.325196" lon="-8.803437">
        <ele>12.614</ele>
        <time>2018-12-30T07:05:06Z</time>
      </trkpt>
      <trkpt lat="37.325212" lon="-8.803451">
        <ele>13.154</ele>
        <time>2018-12-30T07:05:08Z</time>
      </trkpt>
      <trkpt lat="37.325246" lon="-8.803485">
        <ele>13.109</ele>
        <time>2018-12-30T07:05:12Z</time>
      </trkpt>
      <trkpt lat="37.325273" lon="-8.803537">
        <ele>13.108</ele>
        <time>2018-12-30T07:05:17Z</time>
      </trkpt>
      <trkpt lat="37.325280" lon="-8.803575">
        <ele>13.634</ele>
        <time>2018-12-30T07:05:20Z</time>
      </trkpt>
      <trkpt lat="37.325304" lon="-8.803619">
        <ele>13.662</ele>
        <time>2018-12-30T07:05:24Z</time>
      </trkpt>
      <trkpt lat="37.325361" lon="-8.803695">
        <ele>13.649</ele>
        <time>2018-12-30T07:05:32Z</time>
      </trkpt>
      <trkpt lat="37.325397" lon="-8.803723">
        <ele>13.614</ele>
        <time>2018-12-30T07:05:36Z</time>
      </trkpt>
      <trkpt lat="37.325426" lon="-8.803791">
        <ele>14.090</ele>
        <time>2018-12-30T07:05:42Z</time>
      </trkpt>
      <trkpt lat="37.325502" lon="-8.803881">
        <ele>14.077</ele>
        <time>2018-12-30T07:05:51Z</time>
      </trkpt>
      <trkpt lat="37.325573" lon="-8.803956">
        <ele>15.012</ele>
        <time>2018-12-30T07:06:00Z</time>
      </trkpt>
      <trkpt lat="37.325666" lon="-8.804125">
        <ele>15.533</ele>
        <time>2018-12-30T07:06:15Z</time>
      </trkpt>
      <trkpt lat="37.325678" lon="-8.804148">
        <ele>15.559</ele>
        <time>2018-12-30T07:06:17Z</time>
      </trkpt>
      <trkpt lat="37.325725" lon="-8.804285">
        <ele>16.903</ele>
        <time>2018-12-30T07:06:29Z</time>
      </trkpt>
      <trkpt lat="37.325751" lon="-8.804311">
        <ele>17.423</ele>
        <time>2018-12-30T07:06:39Z</time>
      </trkpt>
      <trkpt lat="37.325801" lon="-8.804368">
        <ele>18.408</ele>
        <time>2018-12-30T07:06:46Z</time>
      </trkpt>
      <trkpt lat="37.325822" lon="-8.804386">
        <ele>18.888</ele>
        <time>2018-12-30T07:06:49Z</time>
      </trkpt>
      <trkpt lat="37.325847" lon="-8.804405">
        <ele>19.366</ele>
        <time>2018-12-30T07:06:52Z</time>
      </trkpt>
      <trkpt lat="37.325861" lon="-8.804425">
        <ele>19.373</ele>
        <time>2018-12-30T07:06:54Z</time>
      </trkpt>
      <trkpt lat="37.325941" lon="-8.804529">
        <ele>20.828</ele>
        <time>2018-12-30T07:07:05Z</time>
      </trkpt>
      <trkpt lat="37.325958" lon="-8.804540">
        <ele>20.824</ele>
        <time>2018-12-30T07:07:07Z</time>
      </trkpt>
      <trkpt lat="37.325970" lon="-8.804564">
        <ele>21.281</ele>
        <time>2018-12-30T07:07:09Z</time>
      </trkpt>
      <trkpt lat="37.325995" lon="-8.804601">
        <ele>21.256</ele>
        <time>2018-12-30T07:07:13Z</time>
      </trkpt>
      <trkpt lat="37.326031" lon="-8.804659">
        <ele>22.267</ele>
        <time>2018-12-30T07:07:19Z</time>
      </trkpt>
      <trkpt lat="37.326132" lon="-8.804769">
        <ele>23.638</ele>
        <time>2018-12-30T07:07:32Z</time>
      </trkpt>
      <trkpt lat="37.326191" lon="-8.804814">
        <ele>24.170</ele>
        <time>2018-12-30T07:07:39Z</time>
      </trkpt>
      <trkpt lat="37.326209" lon="-8.804824">
        <ele>24.117</ele>
        <time>2018-12-30T07:07:41Z</time>
      </trkpt>
      <trkpt lat="37.326219" lon="-8.804842">
        <ele>24.608</ele>
        <time>2018-12-30T07:07:43Z</time>
      </trkpt>
      <trkpt lat="37.326248" lon="-8.804881">
        <ele>25.166</ele>
        <time>2018-12-30T07:07:56Z</time>
      </trkpt>
      <trkpt lat="37.326321" lon="-8.804928">
        <ele>25.684</ele>
        <time>2018-12-30T07:08:05Z</time>
      </trkpt>
      <trkpt lat="37.326335" lon="-8.804942">
        <ele>25.621</ele>
        <time>2018-12-30T07:08:07Z</time>
      </trkpt>
      <trkpt lat="37.326360" lon="-8.804952">
        <ele>26.056</ele>
        <time>2018-12-30T07:08:11Z</time>
      </trkpt>
      <trkpt lat="37.326380" lon="-8.804961">
        <ele>26.092</ele>
        <time>2018-12-30T07:08:13Z</time>
      </trkpt>
      <trkpt lat="37.326450" lon="-8.804997">
        <ele>26.529</ele>
        <time>2018-12-30T07:08:20Z</time>
      </trkpt>
      <trkpt lat="37.326492" lon="-8.805013">
        <ele>26.554</ele>
        <time>2018-12-30T07:08:24Z</time>
      </trkpt>
      <trkpt lat="37.326613" lon="-8.805065">
        <ele>28.075</ele>
        <time>2018-12-30T07:08:36Z</time>
      </trkpt>
      <trkpt lat="37.326764" lon="-8.805141">
        <ele>28.527</ele>
        <time>2018-12-30T07:08:50Z</time>
      </trkpt>
      <trkpt lat="37.326779" lon="-8.805154">
        <ele>28.568</ele>
        <time>2018-12-30T07:08:52Z</time>
      </trkpt>
      <trkpt lat="37.326823" lon="-8.805173">
        <ele>29.414</ele>
        <time>2018-12-30T07:08:56Z</time>
      </trkpt>
      <trkpt lat="37.326856" lon="-8.805191">
        <ele>29.408</ele>
        <time>2018-12-30T07:08:59Z</time>
      </trkpt>
      <trkpt lat="37.326873" lon="-8.805215">
        <ele>29.465</ele>
        <time>2018-12-30T07:09:01Z</time>
      </trkpt>
      <trkpt lat="37.326969" lon="-8.805241">
        <ele>30.423</ele>
        <time>2018-12-30T07:09:10Z</time>
      </trkpt>
      <trkpt lat="37.327012" lon="-8.805242">
        <ele>30.960</ele>
        <time>2018-12-30T07:09:14Z</time>
      </trkpt>
      <trkpt lat="37.327051" lon="-8.805259">
        <ele>31.395</ele>
        <time>2018-12-30T07:09:19Z</time>
      </trkpt>
      <trkpt lat="37.327108" lon="-8.805261">
        <ele>32.331</ele>
        <time>2018-12-30T07:09:24Z</time>
      </trkpt>
      <trkpt lat="37.327138" lon="-8.805272">
        <ele>32.838</ele>
        <time>2018-12-30T07:09:27Z</time>
      </trkpt>
      <trkpt lat="37.327222" lon="-8.805263">
        <ele>33.383</ele>
        <time>2018-12-30T07:09:34Z</time>
      </trkpt>
      <trkpt lat="37.327245" lon="-8.805270">
        <ele>33.744</ele>
        <time>2018-12-30T07:09:36Z</time>
      </trkpt>
      <trkpt lat="37.327289" lon="-8.805274">
        <ele>34.255</ele>
        <time>2018-12-30T07:09:40Z</time>
      </trkpt>
      <trkpt lat="37.327370" lon="-8.805301">
        <ele>35.707</ele>
        <time>2018-12-30T07:09:48Z</time>
      </trkpt>
      <trkpt lat="37.327392" lon="-8.805305">
        <ele>35.717</ele>
        <time>2018-12-30T07:09:50Z</time>
      </trkpt>
      <trkpt lat="37.327437" lon="-8.805314">
        <ele>36.608</ele>
        <time>2018-12-30T07:09:54Z</time>
      </trkpt>
      <trkpt lat="37.327469" lon="-8.805319">
        <ele>37.178</ele>
        <time>2018-12-30T07:09:57Z</time>
      </trkpt>
      <trkpt lat="37.327512" lon="-8.805333">
        <ele>38.176</ele>
        <time>2018-12-30T07:10:02Z</time>
      </trkpt>
      <trkpt lat="37.327581" lon="-8.805394">
        <ele>38.593</ele>
        <time>2018-12-30T07:10:09Z</time>
      </trkpt>
      <trkpt lat="37.327612" lon="-8.805410">
        <ele>39.018</ele>
        <time>2018-12-30T07:10:12Z</time>
      </trkpt>
      <trkpt lat="37.327662" lon="-8.805435">
        <ele>40.064</ele>
        <time>2018-12-30T07:10:17Z</time>
      </trkpt>
      <trkpt lat="37.327685" lon="-8.805445">
        <ele>40.541</ele>
        <time>2018-12-30T07:10:19Z</time>
      </trkpt>
      <trkpt lat="37.327769" lon="-8.805480">
        <ele>41.996</ele>
        <time>2018-12-30T07:10:27Z</time>
      </trkpt>
      <trkpt lat="37.327894" lon="-8.805527">
        <ele>43.467</ele>
        <time>2018-12-30T07:10:38Z</time>
      </trkpt>
      <trkpt lat="37.327922" lon="-8.805546">
        <ele>43.465</ele>
        <time>2018-12-30T07:10:41Z</time>
      </trkpt>
      <trkpt lat="37.327950" lon="-8.805564">
        <ele>43.868</ele>
        <time>2018-12-30T07:10:44Z</time>
      </trkpt>
      <trkpt lat="37.328009" lon="-8.805608">
        <ele>44.314</ele>
        <time>2018-12-30T07:10:50Z</time>
      </trkpt>
      <trkpt lat="37.328082" lon="-8.805631">
        <ele>45.808</ele>
        <time>2018-12-30T07:10:57Z</time>
      </trkpt>
      <trkpt lat="37.328134" lon="-8.805638">
        <ele>46.239</ele>
        <time>2018-12-30T07:11:02Z</time>
      </trkpt>
      <trkpt lat="37.328175" lon="-8.805650">
        <ele>46.797</ele>
        <time>2018-12-30T07:11:06Z</time>
      </trkpt>
      <trkpt lat="37.328322" lon="-8.805618">
        <ele>48.654</ele>
        <time>2018-12-30T07:11:19Z</time>
      </trkpt>
      <trkpt lat="37.328467" lon="-8.805588">
        <ele>51.099</ele>
        <time>2018-12-30T07:11:32Z</time>
      </trkpt>
      <trkpt lat="37.328573" lon="-8.805557">
        <ele>52.525</ele>
        <time>2018-12-30T07:11:42Z</time>
      </trkpt>
      <trkpt lat="37.328699" lon="-8.805527">
        <ele>53.972</ele>
        <time>2018-12-30T07:11:54Z</time>
      </trkpt>
      <trkpt lat="37.328768" lon="-8.805533">
        <ele>54.467</ele>
        <time>2018-12-30T07:12:00Z</time>
      </trkpt>
      <trkpt lat="37.328842" lon="-8.805516">
        <ele>54.968</ele>
        <time>2018-12-30T07:12:07Z</time>
      </trkpt>
      <trkpt lat="37.328887" lon="-8.805498">
        <ele>55.488</ele>
        <time>2018-12-30T07:12:11Z</time>
      </trkpt>
      <trkpt lat="37.328972" lon="-8.805479">
        <ele>57.324</ele>
        <time>2018-12-30T07:12:24Z</time>
      </trkpt>
      <trkpt lat="37.328992" lon="-8.805472">
        <ele>57.326</ele>
        <time>2018-12-30T07:12:27Z</time>
      </trkpt>
      <trkpt lat="37.329063" lon="-8.805438">
        <ele>58.708</ele>
        <time>2018-12-30T07:12:33Z</time>
      </trkpt>
      <trkpt lat="37.329175" lon="-8.805376">
        <ele>60.771</ele>
        <time>2018-12-30T07:12:44Z</time>
      </trkpt>
      <trkpt lat="37.329239" lon="-8.805402">
        <ele>61.629</ele>
        <time>2018-12-30T07:12:51Z</time>
      </trkpt>
      <trkpt lat="37.329272" lon="-8.805431">
        <ele>62.666</ele>
        <time>2018-12-30T07:12:56Z</time>
      </trkpt>
      <trkpt lat="37.329318" lon="-8.805494">
        <ele>64.541</ele>
        <time>2018-12-30T07:13:02Z</time>
      </trkpt>
      <trkpt lat="37.329377" lon="-8.805587">
        <ele>65.967</ele>
        <time>2018-12-30T07:13:11Z</time>
      </trkpt>
      <trkpt lat="37.329424" lon="-8.805629">
        <ele>66.944</ele>
        <time>2018-12-30T07:13:17Z</time>
      </trkpt>
      <trkpt lat="37.329456" lon="-8.805653">
        <ele>67.939</ele>
        <time>2018-12-30T07:13:21Z</time>
      </trkpt>
      <trkpt lat="37.329484" lon="-8.805672">
        <ele>68.820</ele>
        <time>2018-12-30T07:13:24Z</time>
      </trkpt>
      <trkpt lat="37.329546" lon="-8.805718">
        <ele>70.362</ele>
        <time>2018-12-30T07:13:31Z</time>
      </trkpt>
      <trkpt lat="37.329585" lon="-8.805766">
        <ele>71.283</ele>
        <time>2018-12-30T07:13:36Z</time>
      </trkpt>
      <trkpt lat="37.329615" lon="-8.805794">
        <ele>71.711</ele>
        <time>2018-12-30T07:13:40Z</time>
      </trkpt>
      <trkpt lat="37.329638" lon="-8.805814">
        <ele>72.208</ele>
        <time>2018-12-30T07:13:43Z</time>
      </trkpt>
      <trkpt lat="37.329652" lon="-8.805834">
        <ele>72.729</ele>
        <time>2018-12-30T07:13:45Z</time>
      </trkpt>
      <trkpt lat="37.329718" lon="-8.805854">
        <ele>74.167</ele>
        <time>2018-12-30T07:13:51Z</time>
      </trkpt>
      <trkpt lat="37.329743" lon="-8.805889">
        <ele>75.194</ele>
        <time>2018-12-30T07:13:55Z</time>
      </trkpt>
      <trkpt lat="37.329842" lon="-8.805961">
        <ele>77.579</ele>
        <time>2018-12-30T07:14:06Z</time>
      </trkpt>
      <trkpt lat="37.329869" lon="-8.805971">
        <ele>77.555</ele>
        <time>2018-12-30T07:14:09Z</time>
      </trkpt>
      <trkpt lat="37.329957" lon="-8.806050">
        <ele>80.432</ele>
        <time>2018-12-30T07:14:20Z</time>
      </trkpt>
      <trkpt lat="37.329992" lon="-8.806071">
        <ele>80.837</ele>
        <time>2018-12-30T07:14:24Z</time>
      </trkpt>
      <trkpt lat="37.330028" lon="-8.806111">
        <ele>82.338</ele>
        <time>2018-12-30T07:14:29Z</time>
      </trkpt>
      <trkpt lat="37.330120" lon="-8.806203">
        <ele>84.735</ele>
        <time>2018-12-30T07:14:41Z</time>
      </trkpt>
      <trkpt lat="37.330182" lon="-8.806296">
        <ele>86.186</ele>
        <time>2018-12-30T07:14:50Z</time>
      </trkpt>
      <trkpt lat="37.330195" lon="-8.806311">
        <ele>86.114</ele>
        <time>2018-12-30T07:14:52Z</time>
      </trkpt>
      <trkpt lat="37.330230" lon="-8.806344">
        <ele>86.608</ele>
        <time>2018-12-30T07:14:56Z</time>
      </trkpt>
      <trkpt lat="37.330282" lon="-8.806395">
        <ele>88.196</ele>
        <time>2018-12-30T07:15:02Z</time>
      </trkpt>
      <trkpt lat="37.330299" lon="-8.806411">
        <ele>88.154</ele>
        <time>2018-12-30T07:15:04Z</time>
      </trkpt>
      <trkpt lat="37.330336" lon="-8.806432">
        <ele>89.561</ele>
        <time>2018-12-30T07:15:08Z</time>
      </trkpt>
      <trkpt lat="37.330438" lon="-8.806490">
        <ele>91.496</ele>
        <time>2018-12-30T07:15:19Z</time>
      </trkpt>
      <trkpt lat="37.330447" lon="-8.806493">
        <ele>91.482</ele>
        <time>2018-12-30T07:15:20Z</time>
      </trkpt>
      <trkpt lat="37.330494" lon="-8.806519">
        <ele>92.479</ele>
        <time>2018-12-30T07:15:25Z</time>
      </trkpt>
      <trkpt lat="37.330526" lon="-8.806533">
        <ele>92.984</ele>
        <time>2018-12-30T07:15:28Z</time>
      </trkpt>
      <trkpt lat="37.330609" lon="-8.806608">
        <ele>95.335</ele>
        <time>2018-12-30T07:15:38Z</time>
      </trkpt>
      <trkpt lat="37.330623" lon="-8.806625">
        <ele>96.268</ele>
        <time>2018-12-30T07:15:40Z</time>
      </trkpt>
      <trkpt lat="37.330733" lon="-8.806686">
        <ele>98.642</ele>
        <time>2018-12-30T07:15:52Z</time>
      </trkpt>
      <trkpt lat="37.330785" lon="-8.806732">
        <ele>100.126</ele>
        <time>2018-12-30T07:16:00Z</time>
      </trkpt>
      <trkpt lat="37.330844" lon="-8.806764">
        <ele>101.008</ele>
        <time>2018-12-30T07:16:05Z</time>
      </trkpt>
      <trkpt lat="37.330882" lon="-8.806820">
        <ele>102.069</ele>
        <time>2018-12-30T07:16:10Z</time>
      </trkpt>
      <trkpt lat="37.330914" lon="-8.806840">
        <ele>102.557</ele>
        <time>2018-12-30T07:16:13Z</time>
      </trkpt>
      <trkpt lat="37.330928" lon="-8.806858">
        <ele>103.044</ele>
        <time>2018-12-30T07:16:15Z</time>
      </trkpt>
      <trkpt lat="37.330964" lon="-8.806894">
        <ele>103.449</ele>
        <time>2018-12-30T07:16:20Z</time>
      </trkpt>
      <trkpt lat="37.330992" lon="-8.806945">
        <ele>104.925</ele>
        <time>2018-12-30T07:16:25Z</time>
      </trkpt>
      <trkpt lat="37.331067" lon="-8.807026">
        <ele>107.382</ele>
        <time>2018-12-30T07:16:35Z</time>
      </trkpt>
      <trkpt lat="37.331162" lon="-8.807114">
        <ele>110.217</ele>
        <time>2018-12-30T07:16:47Z</time>
      </trkpt>
      <trkpt lat="37.331179" lon="-8.807132">
        <ele>110.278</ele>
        <time>2018-12-30T07:16:49Z</time>
      </trkpt>
      <trkpt lat="37.331219" lon="-8.807157">
        <ele>111.132</ele>
        <time>2018-12-30T07:16:53Z</time>
      </trkpt>
      <trkpt lat="37.331259" lon="-8.807184">
        <ele>112.692</ele>
        <time>2018-12-30T07:16:58Z</time>
      </trkpt>
      <trkpt lat="37.331355" lon="-8.807252">
        <ele>114.511</ele>
        <time>2018-12-30T07:17:08Z</time>
      </trkpt>
      <trkpt lat="37.331410" lon="-8.807309">
        <ele>115.908</ele>
        <time>2018-12-30T07:17:14Z</time>
      </trkpt>
      <trkpt lat="37.331433" lon="-8.807315">
        <ele>115.926</ele>
        <time>2018-12-30T07:17:16Z</time>
      </trkpt>
      <trkpt lat="37.331470" lon="-8.807344">
        <ele>116.434</ele>
        <time>2018-12-30T07:17:20Z</time>
      </trkpt>
      <trkpt lat="37.331499" lon="-8.807366">
        <ele>115.931</ele>
        <time>2018-12-30T07:17:23Z</time>
      </trkpt>
      <trkpt lat="37.331585" lon="-8.807456">
        <ele>116.936</ele>
        <time>2018-12-30T07:17:34Z</time>
      </trkpt>
      <trkpt lat="37.331613" lon="-8.807484">
        <ele>116.432</ele>
        <time>2018-12-30T07:17:37Z</time>
      </trkpt>
      <trkpt lat="37.331656" lon="-8.807526">
        <ele>116.429</ele>
        <time>2018-12-30T07:17:42Z</time>
      </trkpt>
      <trkpt lat="37.331700" lon="-8.807573">
        <ele>116.974</ele>
        <time>2018-12-30T07:17:47Z</time>
      </trkpt>
      <trkpt lat="37.331817" lon="-8.807673">
        <ele>116.465</ele>
        <time>2018-12-30T07:17:58Z</time>
      </trkpt>
      <trkpt lat="37.331880" lon="-8.807713">
        <ele>116.962</ele>
        <time>2018-12-30T07:18:04Z</time>
      </trkpt>
      <trkpt lat="37.331960" lon="-8.807767">
        <ele>116.983</ele>
        <time>2018-12-30T07:18:11Z</time>
      </trkpt>
      <trkpt lat="37.332001" lon="-8.807799">
        <ele>116.911</ele>
        <time>2018-12-30T07:18:15Z</time>
      </trkpt>
      <trkpt lat="37.332100" lon="-8.807852">
        <ele>116.908</ele>
        <time>2018-12-30T07:18:23Z</time>
      </trkpt>
      <trkpt lat="37.332114" lon="-8.807876">
        <ele>117.479</ele>
        <time>2018-12-30T07:18:25Z</time>
      </trkpt>
      <trkpt lat="37.332255" lon="-8.807996">
        <ele>116.937</ele>
        <time>2018-12-30T07:18:38Z</time>
      </trkpt>
      <trkpt lat="37.332270" lon="-8.808005">
        <ele>116.994</ele>
        <time>2018-12-30T07:18:39Z</time>
      </trkpt>
      <trkpt lat="37.332331" lon="-8.808037">
        <ele>116.939</ele>
        <time>2018-12-30T07:18:44Z</time>
      </trkpt>
      <trkpt lat="37.332355" lon="-8.808064">
        <ele>116.495</ele>
        <time>2018-12-30T07:18:47Z</time>
      </trkpt>
      <trkpt lat="37.332496" lon="-8.808157">
        <ele>115.932</ele>
        <time>2018-12-30T07:18:59Z</time>
      </trkpt>
      <trkpt lat="37.332596" lon="-8.808209">
        <ele>115.057</ele>
        <time>2018-12-30T07:19:07Z</time>
      </trkpt>
      <trkpt lat="37.332623" lon="-8.808225">
        <ele>115.078</ele>
        <time>2018-12-30T07:19:09Z</time>
      </trkpt>
      <trkpt lat="37.332674" lon="-8.808257">
        <ele>114.533</ele>
        <time>2018-12-30T07:19:13Z</time>
      </trkpt>
      <trkpt lat="37.332744" lon="-8.808297">
        <ele>114.523</ele>
        <time>2018-12-30T07:19:20Z</time>
      </trkpt>
      <trkpt lat="37.332883" lon="-8.808347">
        <ele>114.015</ele>
        <time>2018-12-30T07:19:32Z</time>
      </trkpt>
      <trkpt lat="37.333054" lon="-8.808376">
        <ele>115.008</ele>
        <time>2018-12-30T07:19:45Z</time>
      </trkpt>
      <trkpt lat="37.333070" lon="-8.808378">
        <ele>114.526</ele>
        <time>2018-12-30T07:19:46Z</time>
      </trkpt>
      <trkpt lat="37.333169" lon="-8.808390">
        <ele>115.044</ele>
        <time>2018-12-30T07:19:52Z</time>
      </trkpt>
      <trkpt lat="37.333298" lon="-8.808420">
        <ele>115.051</ele>
        <time>2018-12-30T07:20:01Z</time>
      </trkpt>
      <trkpt lat="37.333433" lon="-8.808422">
        <ele>115.076</ele>
        <time>2018-12-30T07:20:11Z</time>
      </trkpt>
      <trkpt lat="37.333467" lon="-8.808443">
        <ele>115.052</ele>
        <time>2018-12-30T07:20:14Z</time>
      </trkpt>
      <trkpt lat="37.333621" lon="-8.808479">
        <ele>114.529</ele>
        <time>2018-12-30T07:20:26Z</time>
      </trkpt>
      <trkpt lat="37.333681" lon="-8.808472">
        <ele>114.514</ele>
        <time>2018-12-30T07:20:31Z</time>
      </trkpt>
      <trkpt lat="37.333844" lon="-8.808550">
        <ele>114.525</ele>
        <time>2018-12-30T07:20:44Z</time>
      </trkpt>
      <trkpt lat="37.333864" lon="-8.808561">
        <ele>114.568</ele>
        <time>2018-12-30T07:20:46Z</time>
      </trkpt>
      <trkpt lat="37.333929" lon="-8.808634">
        <ele>115.042</ele>
        <time>2018-12-30T07:20:53Z</time>
      </trkpt>
      <trkpt lat="37.334106" lon="-8.808686">
        <ele>115.026</ele>
        <time>2018-12-30T07:21:07Z</time>
      </trkpt>
      <trkpt lat="37.334210" lon="-8.808719">
        <ele>115.008</ele>
        <time>2018-12-30T07:21:16Z</time>
      </trkpt>
      <trkpt lat="37.334394" lon="-8.808766">
        <ele>113.579</ele>
        <time>2018-12-30T07:21:30Z</time>
      </trkpt>
      <trkpt lat="37.334560" lon="-8.808753">
        <ele>113.027</ele>
        <time>2018-12-30T07:21:43Z</time>
      </trkpt>
      <trkpt lat="37.334587" lon="-8.808747">
        <ele>112.644</ele>
        <time>2018-12-30T07:21:45Z</time>
      </trkpt>
      <trkpt lat="37.334654" lon="-8.808728">
        <ele>112.169</ele>
        <time>2018-12-30T07:21:50Z</time>
      </trkpt>
      <trkpt lat="37.334801" lon="-8.808698">
        <ele>112.125</ele>
        <time>2018-12-30T07:22:01Z</time>
      </trkpt>
      <trkpt lat="37.334882" lon="-8.808677">
        <ele>112.632</ele>
        <time>2018-12-30T07:22:07Z</time>
      </trkpt>
      <trkpt lat="37.334979" lon="-8.808680">
        <ele>111.687</ele>
        <time>2018-12-30T07:22:14Z</time>
      </trkpt>
      <trkpt lat="37.335162" lon="-8.808686">
        <ele>112.138</ele>
        <time>2018-12-30T07:22:28Z</time>
      </trkpt>
      <trkpt lat="37.335218" lon="-8.808676">
        <ele>111.113</ele>
        <time>2018-12-30T07:22:32Z</time>
      </trkpt>
      <trkpt lat="37.335395" lon="-8.808673">
        <ele>111.643</ele>
        <time>2018-12-30T07:22:45Z</time>
      </trkpt>
      <trkpt lat="37.335552" lon="-8.808674">
        <ele>111.107</ele>
        <time>2018-12-30T07:22:56Z</time>
      </trkpt>
      <trkpt lat="37.335671" lon="-8.808678">
        <ele>111.108</ele>
        <time>2018-12-30T07:23:05Z</time>
      </trkpt>
      <trkpt lat="37.335838" lon="-8.808673">
        <ele>111.144</ele>
        <time>2018-12-30T07:23:18Z</time>
      </trkpt>
      <trkpt lat="37.336011" lon="-8.808774">
        <ele>111.182</ele>
        <time>2018-12-30T07:23:32Z</time>
      </trkpt>
      <trkpt lat="37.336144" lon="-8.808884">
        <ele>111.199</ele>
        <time>2018-12-30T07:23:44Z</time>
      </trkpt>
      <trkpt lat="37.336276" lon="-8.809016">
        <ele>111.134</ele>
        <time>2018-12-30T07:23:57Z</time>
      </trkpt>
      <trkpt lat="37.336398" lon="-8.809123">
        <ele>111.630</ele>
        <time>2018-12-30T07:24:09Z</time>
      </trkpt>
      <trkpt lat="37.336567" lon="-8.809205">
        <ele>111.157</ele>
        <time>2018-12-30T07:24:22Z</time>
      </trkpt>
      <trkpt lat="37.336641" lon="-8.809241">
        <ele>111.662</ele>
        <time>2018-12-30T07:24:28Z</time>
      </trkpt>
      <trkpt lat="37.336696" lon="-8.809257">
        <ele>111.643</ele>
        <time>2018-12-30T07:24:32Z</time>
      </trkpt>
      <trkpt lat="37.336786" lon="-8.809307">
        <ele>112.139</ele>
        <time>2018-12-30T07:24:40Z</time>
      </trkpt>
      <trkpt lat="37.336844" lon="-8.809320">
        <ele>112.101</ele>
        <time>2018-12-30T07:24:44Z</time>
      </trkpt>
      <trkpt lat="37.337011" lon="-8.809388">
        <ele>112.621</ele>
        <time>2018-12-30T07:24:58Z</time>
      </trkpt>
      <trkpt lat="37.337063" lon="-8.809400">
        <ele>112.108</ele>
        <time>2018-12-30T07:25:02Z</time>
      </trkpt>
      <trkpt lat="37.337179" lon="-8.809456">
        <ele>112.676</ele>
        <time>2018-12-30T07:25:11Z</time>
      </trkpt>
      <trkpt lat="37.337272" lon="-8.809499">
        <ele>112.124</ele>
        <time>2018-12-30T07:25:19Z</time>
      </trkpt>
      <trkpt lat="37.337428" lon="-8.809588">
        <ele>112.171</ele>
        <time>2018-12-30T07:25:32Z</time>
      </trkpt>
      <trkpt lat="37.337570" lon="-8.809655">
        <ele>112.166</ele>
        <time>2018-12-30T07:25:43Z</time>
      </trkpt>
      <trkpt lat="37.337702" lon="-8.809703">
        <ele>111.642</ele>
        <time>2018-12-30T07:25:53Z</time>
      </trkpt>
      <trkpt lat="37.337753" lon="-8.809719">
        <ele>111.699</ele>
        <time>2018-12-30T07:25:57Z</time>
      </trkpt>
      <trkpt lat="37.337948" lon="-8.809751">
        <ele>111.694</ele>
        <time>2018-12-30T07:26:11Z</time>
      </trkpt>
      <trkpt lat="37.338048" lon="-8.809793">
        <ele>111.135</ele>
        <time>2018-12-30T07:26:19Z</time>
      </trkpt>
      <trkpt lat="37.338183" lon="-8.809848">
        <ele>109.266</ele>
        <time>2018-12-30T07:26:29Z</time>
      </trkpt>
      <trkpt lat="37.338272" lon="-8.809910">
        <ele>108.729</ele>
        <time>2018-12-30T07:26:37Z</time>
      </trkpt>
      <trkpt lat="37.338426" lon="-8.810014">
        <ele>107.821</ele>
        <time>2018-12-30T07:26:50Z</time>
      </trkpt>
      <trkpt lat="37.338470" lon="-8.810038">
        <ele>108.208</ele>
        <time>2018-12-30T07:26:54Z</time>
      </trkpt>
      <trkpt lat="37.338508" lon="-8.810094">
        <ele>108.289</ele>
        <time>2018-12-30T07:26:58Z</time>
      </trkpt>
      <trkpt lat="37.338618" lon="-8.810236">
        <ele>108.237</ele>
        <time>2018-12-30T07:27:10Z</time>
      </trkpt>
      <trkpt lat="37.338686" lon="-8.810392">
        <ele>108.264</ele>
        <time>2018-12-30T07:27:21Z</time>
      </trkpt>
      <trkpt lat="37.338705" lon="-8.810476">
        <ele>108.289</ele>
        <time>2018-12-30T07:27:27Z</time>
      </trkpt>
      <trkpt lat="37.338718" lon="-8.810553">
        <ele>108.735</ele>
        <time>2018-12-30T07:27:32Z</time>
      </trkpt>
      <trkpt lat="37.338717" lon="-8.810592">
        <ele>109.212</ele>
        <time>2018-12-30T07:27:47Z</time>
      </trkpt>
      <trkpt lat="37.338728" lon="-8.810602">
        <ele>109.217</ele>
        <time>2018-12-30T07:28:03Z</time>
      </trkpt>
      <trkpt lat="37.338731" lon="-8.810602">
        <ele>109.268</ele>
        <time>2018-12-30T07:28:25Z</time>
      </trkpt>
      <trkpt lat="37.338731" lon="-8.810602">
        <ele>109.268</ele>
        <time>2018-12-30T07:28:29Z</time>
      </trkpt>
      <trkpt lat="37.338732" lon="-8.810630">
        <ele>109.242</ele>
        <time>2018-12-30T07:28:31Z</time>
      </trkpt>
      <trkpt lat="37.338741" lon="-8.810680">
        <ele>109.226</ele>
        <time>2018-12-30T07:28:34Z</time>
      </trkpt>
      <trkpt lat="37.338798" lon="-8.810866">
        <ele>110.608</ele>
        <time>2018-12-30T07:28:46Z</time>
      </trkpt>
      <trkpt lat="37.338921" lon="-8.811041">
        <ele>111.139</ele>
        <time>2018-12-30T07:28:59Z</time>
      </trkpt>
      <trkpt lat="37.339027" lon="-8.811272">
        <ele>112.117</ele>
        <time>2018-12-30T07:29:15Z</time>
      </trkpt>
      <trkpt lat="37.339051" lon="-8.811330">
        <ele>111.694</ele>
        <time>2018-12-30T07:29:18Z</time>
      </trkpt>
      <trkpt lat="37.339072" lon="-8.811400">
        <ele>111.629</ele>
        <time>2018-12-30T07:29:22Z</time>
      </trkpt>
      <trkpt lat="37.339116" lon="-8.811554">
        <ele>110.685</ele>
        <time>2018-12-30T07:29:32Z</time>
      </trkpt>
      <trkpt lat="37.339153" lon="-8.811741">
        <ele>110.612</ele>
        <time>2018-12-30T07:29:43Z</time>
      </trkpt>
      <trkpt lat="37.339208" lon="-8.811895">
        <ele>110.697</ele>
        <time>2018-12-30T07:29:54Z</time>
      </trkpt>
      <trkpt lat="37.339221" lon="-8.811972">
        <ele>110.618</ele>
        <time>2018-12-30T07:29:58Z</time>
      </trkpt>
      <trkpt lat="37.339258" lon="-8.812206">
        <ele>109.716</ele>
        <time>2018-12-30T07:30:12Z</time>
      </trkpt>
      <trkpt lat="37.339261" lon="-8.812236">
        <ele>110.276</ele>
        <time>2018-12-30T07:30:14Z</time>
      </trkpt>
      <trkpt lat="37.339282" lon="-8.812287">
        <ele>110.213</ele>
        <time>2018-12-30T07:30:24Z</time>
      </trkpt>
      <trkpt lat="37.339283" lon="-8.812327">
        <ele>109.708</ele>
        <time>2018-12-30T07:30:26Z</time>
      </trkpt>
      <trkpt lat="37.339293" lon="-8.812474">
        <ele>109.764</ele>
        <time>2018-12-30T07:30:34Z</time>
      </trkpt>
      <trkpt lat="37.339349" lon="-8.812699">
        <ele>108.732</ele>
        <time>2018-12-30T07:30:49Z</time>
      </trkpt>
      <trkpt lat="37.339350" lon="-8.812758">
        <ele>108.789</ele>
        <time>2018-12-30T07:30:53Z</time>
      </trkpt>
      <trkpt lat="37.339359" lon="-8.812819">
        <ele>108.784</ele>
        <time>2018-12-30T07:30:57Z</time>
      </trkpt>
      <trkpt lat="37.339386" lon="-8.813025">
        <ele>108.270</ele>
        <time>2018-12-30T07:31:11Z</time>
      </trkpt>
      <trkpt lat="37.339443" lon="-8.813252">
        <ele>107.357</ele>
        <time>2018-12-30T07:31:25Z</time>
      </trkpt>
      <trkpt lat="37.339447" lon="-8.813281">
        <ele>107.352</ele>
        <time>2018-12-30T07:31:27Z</time>
      </trkpt>
      <trkpt lat="37.339483" lon="-8.813395">
        <ele>107.373</ele>
        <time>2018-12-30T07:31:34Z</time>
      </trkpt>
      <trkpt lat="37.339563" lon="-8.813628">
        <ele>106.364</ele>
        <time>2018-12-30T07:31:48Z</time>
      </trkpt>
      <trkpt lat="37.339569" lon="-8.813641">
        <ele>106.306</ele>
        <time>2018-12-30T07:31:49Z</time>
      </trkpt>
      <trkpt lat="37.339579" lon="-8.813692">
        <ele>106.316</ele>
        <time>2018-12-30T07:31:53Z</time>
      </trkpt>
      <trkpt lat="37.339615" lon="-8.813795">
        <ele>106.808</ele>
        <time>2018-12-30T07:31:59Z</time>
      </trkpt>
      <trkpt lat="37.339691" lon="-8.814052">
        <ele>105.819</ele>
        <time>2018-12-30T07:32:16Z</time>
      </trkpt>
      <trkpt lat="37.339746" lon="-8.814235">
        <ele>106.357</ele>
        <time>2018-12-30T07:32:27Z</time>
      </trkpt>
      <trkpt lat="37.339820" lon="-8.814412">
        <ele>105.894</ele>
        <time>2018-12-30T07:32:39Z</time>
      </trkpt>
      <trkpt lat="37.339846" lon="-8.814494">
        <ele>105.879</ele>
        <time>2018-12-30T07:32:44Z</time>
      </trkpt>
      <trkpt lat="37.339927" lon="-8.814724">
        <ele>105.455</ele>
        <time>2018-12-30T07:32:59Z</time>
      </trkpt>
      <trkpt lat="37.340026" lon="-8.814945">
        <ele>105.492</ele>
        <time>2018-12-30T07:33:14Z</time>
      </trkpt>
      <trkpt lat="37.340137" lon="-8.815215">
        <ele>104.457</ele>
        <time>2018-12-30T07:33:31Z</time>
      </trkpt>
      <trkpt lat="37.340222" lon="-8.815419">
        <ele>103.948</ele>
        <time>2018-12-30T07:33:45Z</time>
      </trkpt>
      <trkpt lat="37.340330" lon="-8.815632">
        <ele>104.456</ele>
        <time>2018-12-30T07:33:59Z</time>
      </trkpt>
      <trkpt lat="37.340420" lon="-8.815833">
        <ele>103.459</ele>
        <time>2018-12-30T07:34:13Z</time>
      </trkpt>
      <trkpt lat="37.340521" lon="-8.816068">
        <ele>102.514</ele>
        <time>2018-12-30T07:34:29Z</time>
      </trkpt>
      <trkpt lat="37.340614" lon="-8.816290">
        <ele>102.508</ele>
        <time>2018-12-30T07:34:44Z</time>
      </trkpt>
      <trkpt lat="37.340701" lon="-8.816500">
        <ele>102.078</ele>
        <time>2018-12-30T07:34:58Z</time>
      </trkpt>
      <trkpt lat="37.340822" lon="-8.816763">
        <ele>101.576</ele>
        <time>2018-12-30T07:35:15Z</time>
      </trkpt>
      <trkpt lat="37.340895" lon="-8.817002">
        <ele>101.593</ele>
        <time>2018-12-30T07:35:31Z</time>
      </trkpt>
      <trkpt lat="37.340903" lon="-8.817021">
        <ele>102.068</ele>
        <time>2018-12-30T07:35:39Z</time>
      </trkpt>
      <trkpt lat="37.340941" lon="-8.817054">
        <ele>101.074</ele>
        <time>2018-12-30T07:35:43Z</time>
      </trkpt>
      <trkpt lat="37.340996" lon="-8.817167">
        <ele>101.591</ele>
        <time>2018-12-30T07:35:52Z</time>
      </trkpt>
      <trkpt lat="37.341008" lon="-8.817194">
        <ele>101.586</ele>
        <time>2018-12-30T07:35:55Z</time>
      </trkpt>
      <trkpt lat="37.341120" lon="-8.817423">
        <ele>101.017</ele>
        <time>2018-12-30T07:36:10Z</time>
      </trkpt>
      <trkpt lat="37.341182" lon="-8.817546">
        <ele>100.642</ele>
        <time>2018-12-30T07:36:19Z</time>
      </trkpt>
      <trkpt lat="37.341254" lon="-8.817658">
        <ele>100.622</ele>
        <time>2018-12-30T07:36:29Z</time>
      </trkpt>
      <trkpt lat="37.341320" lon="-8.817780">
        <ele>100.614</ele>
        <time>2018-12-30T07:36:37Z</time>
      </trkpt>
      <trkpt lat="37.341452" lon="-8.817987">
        <ele>99.608</ele>
        <time>2018-12-30T07:36:51Z</time>
      </trkpt>
      <trkpt lat="37.341605" lon="-8.818206">
        <ele>99.667</ele>
        <time>2018-12-30T07:37:07Z</time>
      </trkpt>
      <trkpt lat="37.341719" lon="-8.818373">
        <ele>98.655</ele>
        <time>2018-12-30T07:37:21Z</time>
      </trkpt>
      <trkpt lat="37.341829" lon="-8.818586">
        <ele>98.112</ele>
        <time>2018-12-30T07:37:35Z</time>
      </trkpt>
      <trkpt lat="37.341919" lon="-8.818835">
        <ele>98.157</ele>
        <time>2018-12-30T07:37:50Z</time>
      </trkpt>
      <trkpt lat="37.341990" lon="-8.819019">
        <ele>97.753</ele>
        <time>2018-12-30T07:38:02Z</time>
      </trkpt>
      <trkpt lat="37.342068" lon="-8.819218">
        <ele>97.210</ele>
        <time>2018-12-30T07:38:15Z</time>
      </trkpt>
      <trkpt lat="37.342166" lon="-8.819399">
        <ele>96.765</ele>
        <time>2018-12-30T07:38:28Z</time>
      </trkpt>
      <trkpt lat="37.342288" lon="-8.819626">
        <ele>96.296</ele>
        <time>2018-12-30T07:38:43Z</time>
      </trkpt>
      <trkpt lat="37.342401" lon="-8.819767">
        <ele>95.752</ele>
        <time>2018-12-30T07:38:55Z</time>
      </trkpt>
      <trkpt lat="37.342549" lon="-8.819986">
        <ele>95.753</ele>
        <time>2018-12-30T07:39:11Z</time>
      </trkpt>
      <trkpt lat="37.342657" lon="-8.820119">
        <ele>95.708</ele>
        <time>2018-12-30T07:39:22Z</time>
      </trkpt>
      <trkpt lat="37.342667" lon="-8.820132">
        <ele>95.308</ele>
        <time>2018-12-30T07:39:23Z</time>
      </trkpt>
      <trkpt lat="37.342699" lon="-8.820189">
        <ele>95.348</ele>
        <time>2018-12-30T07:39:27Z</time>
      </trkpt>
      <trkpt lat="37.342782" lon="-8.820347">
        <ele>94.896</ele>
        <time>2018-12-30T07:39:38Z</time>
      </trkpt>
      <trkpt lat="37.342827" lon="-8.820443">
        <ele>94.823</ele>
        <time>2018-12-30T07:39:45Z</time>
      </trkpt>
      <trkpt lat="37.342919" lon="-8.820577">
        <ele>94.868</ele>
        <time>2018-12-30T07:39:55Z</time>
      </trkpt>
      <trkpt lat="37.343051" lon="-8.820752">
        <ele>93.844</ele>
        <time>2018-12-30T07:40:08Z</time>
      </trkpt>
      <trkpt lat="37.343160" lon="-8.820890">
        <ele>93.881</ele>
        <time>2018-12-30T07:40:19Z</time>
      </trkpt>
      <trkpt lat="37.343213" lon="-8.820961">
        <ele>93.336</ele>
        <time>2018-12-30T07:40:25Z</time>
      </trkpt>
      <trkpt lat="37.343294" lon="-8.821066">
        <ele>92.927</ele>
        <time>2018-12-30T07:40:33Z</time>
      </trkpt>
      <trkpt lat="37.343327" lon="-8.821093">
        <ele>93.399</ele>
        <time>2018-12-30T07:40:36Z</time>
      </trkpt>
      <trkpt lat="37.343396" lon="-8.821152">
        <ele>93.307</ele>
        <time>2018-12-30T07:40:42Z</time>
      </trkpt>
      <trkpt lat="37.343415" lon="-8.821174">
        <ele>93.327</ele>
        <time>2018-12-30T07:40:44Z</time>
      </trkpt>
      <trkpt lat="37.343453" lon="-8.821218">
        <ele>93.308</ele>
        <time>2018-12-30T07:40:48Z</time>
      </trkpt>
      <trkpt lat="37.343602" lon="-8.821373">
        <ele>93.362</ele>
        <time>2018-12-30T07:41:02Z</time>
      </trkpt>
      <trkpt lat="37.343670" lon="-8.821418">
        <ele>92.990</ele>
        <time>2018-12-30T07:41:07Z</time>
      </trkpt>
      <trkpt lat="37.343755" lon="-8.821508">
        <ele>93.357</ele>
        <time>2018-12-30T07:41:15Z</time>
      </trkpt>
      <trkpt lat="37.343909" lon="-8.821665">
        <ele>92.922</ele>
        <time>2018-12-30T07:41:29Z</time>
      </trkpt>
      <trkpt lat="37.344021" lon="-8.821773">
        <ele>92.458</ele>
        <time>2018-12-30T07:41:39Z</time>
      </trkpt>
      <trkpt lat="37.344093" lon="-8.821846">
        <ele>92.425</ele>
        <time>2018-12-30T07:41:46Z</time>
      </trkpt>
      <trkpt lat="37.344152" lon="-8.821894">
        <ele>92.420</ele>
        <time>2018-12-30T07:41:51Z</time>
      </trkpt>
      <trkpt lat="37.344209" lon="-8.821963">
        <ele>91.981</ele>
        <time>2018-12-30T07:41:57Z</time>
      </trkpt>
      <trkpt lat="37.344349" lon="-8.822147">
        <ele>91.461</ele>
        <time>2018-12-30T07:42:12Z</time>
      </trkpt>
      <trkpt lat="37.344447" lon="-8.822326">
        <ele>91.921</ele>
        <time>2018-12-30T07:42:25Z</time>
      </trkpt>
      <trkpt lat="37.344564" lon="-8.822525">
        <ele>91.413</ele>
        <time>2018-12-30T07:42:40Z</time>
      </trkpt>
      <trkpt lat="37.344672" lon="-8.822689">
        <ele>91.408</ele>
        <time>2018-12-30T07:42:53Z</time>
      </trkpt>
      <trkpt lat="37.344695" lon="-8.822710">
        <ele>90.959</ele>
        <time>2018-12-30T07:42:55Z</time>
      </trkpt>
      <trkpt lat="37.344818" lon="-8.822864">
        <ele>90.977</ele>
        <time>2018-12-30T07:43:07Z</time>
      </trkpt>
      <trkpt lat="37.344977" lon="-8.823051">
        <ele>90.034</ele>
        <time>2018-12-30T07:43:23Z</time>
      </trkpt>
      <trkpt lat="37.345121" lon="-8.823208">
        <ele>89.559</ele>
        <time>2018-12-30T07:43:37Z</time>
      </trkpt>
      <trkpt lat="37.345237" lon="-8.823381">
        <ele>89.025</ele>
        <time>2018-12-30T07:43:50Z</time>
      </trkpt>
      <trkpt lat="37.345244" lon="-8.823392">
        <ele>89.022</ele>
        <time>2018-12-30T07:43:51Z</time>
      </trkpt>
      <trkpt lat="37.345287" lon="-8.823422">
        <ele>89.037</ele>
        <time>2018-12-30T07:43:55Z</time>
      </trkpt>
      <trkpt lat="37.345432" lon="-8.823603">
        <ele>88.588</ele>
        <time>2018-12-30T07:44:10Z</time>
      </trkpt>
      <trkpt lat="37.345525" lon="-8.823692">
        <ele>88.571</ele>
        <time>2018-12-30T07:44:19Z</time>
      </trkpt>
      <trkpt lat="37.345574" lon="-8.823754">
        <ele>88.541</ele>
        <time>2018-12-30T07:44:24Z</time>
      </trkpt>
      <trkpt lat="37.345683" lon="-8.823721">
        <ele>89.515</ele>
        <time>2018-12-30T07:44:35Z</time>
      </trkpt>
      <trkpt lat="37.345683" lon="-8.823721">
        <ele>89.508</ele>
        <time>2018-12-30T07:44:44Z</time>
      </trkpt>
      <trkpt lat="37.345729" lon="-8.823625">
        <ele>89.520</ele>
        <time>2018-12-30T07:44:55Z</time>
      </trkpt>
      <trkpt lat="37.345751" lon="-8.823588">
        <ele>88.518</ele>
        <time>2018-12-30T07:44:59Z</time>
      </trkpt>
      <trkpt lat="37.345778" lon="-8.823530">
        <ele>88.135</ele>
        <time>2018-12-30T07:45:03Z</time>
      </trkpt>
      <trkpt lat="37.345860" lon="-8.823454">
        <ele>88.530</ele>
        <time>2018-12-30T07:45:10Z</time>
      </trkpt>
      <trkpt lat="37.345991" lon="-8.823332">
        <ele>88.556</ele>
        <time>2018-12-30T07:45:22Z</time>
      </trkpt>
      <trkpt lat="37.346119" lon="-8.823262">
        <ele>88.163</ele>
        <time>2018-12-30T07:45:32Z</time>
      </trkpt>
      <trkpt lat="37.346259" lon="-8.823146">
        <ele>88.528</ele>
        <time>2018-12-30T07:45:45Z</time>
      </trkpt>
      <trkpt lat="37.346399" lon="-8.823046">
        <ele>88.159</ele>
        <time>2018-12-30T07:45:57Z</time>
      </trkpt>
      <trkpt lat="37.346521" lon="-8.822953">
        <ele>88.139</ele>
        <time>2018-12-30T07:46:08Z</time>
      </trkpt>
      <trkpt lat="37.346637" lon="-8.822848">
        <ele>87.601</ele>
        <time>2018-12-30T07:46:18Z</time>
      </trkpt>
      <trkpt lat="37.346767" lon="-8.822759">
        <ele>88.121</ele>
        <time>2018-12-30T07:46:29Z</time>
      </trkpt>
      <trkpt lat="37.346943" lon="-8.822657">
        <ele>88.508</ele>
        <time>2018-12-30T07:46:43Z</time>
      </trkpt>
      <trkpt lat="37.347091" lon="-8.822573">
        <ele>89.036</ele>
        <time>2018-12-30T07:46:55Z</time>
      </trkpt>
      <trkpt lat="37.347227" lon="-8.822495">
        <ele>89.044</ele>
        <time>2018-12-30T07:47:07Z</time>
      </trkpt>
      <trkpt lat="37.347371" lon="-8.822374">
        <ele>89.051</ele>
        <time>2018-12-30T07:47:20Z</time>
      </trkpt>
      <trkpt lat="37.347532" lon="-8.822268">
        <ele>88.576</ele>
        <time>2018-12-30T07:47:34Z</time>
      </trkpt>
      <trkpt lat="37.347683" lon="-8.822167">
        <ele>88.562</ele>
        <time>2018-12-30T07:47:47Z</time>
      </trkpt>
      <trkpt lat="37.347841" lon="-8.822058">
        <ele>87.199</ele>
        <time>2018-12-30T07:48:00Z</time>
      </trkpt>
      <trkpt lat="37.347996" lon="-8.821962">
        <ele>88.574</ele>
        <time>2018-12-30T07:48:13Z</time>
      </trkpt>
      <trkpt lat="37.348032" lon="-8.821942">
        <ele>87.645</ele>
        <time>2018-12-30T07:48:16Z</time>
      </trkpt>
      <trkpt lat="37.348134" lon="-8.821878">
        <ele>87.666</ele>
        <time>2018-12-30T07:48:24Z</time>
      </trkpt>
      <trkpt lat="37.348280" lon="-8.821801">
        <ele>87.629</ele>
        <time>2018-12-30T07:48:36Z</time>
      </trkpt>
      <trkpt lat="37.348421" lon="-8.821709">
        <ele>87.121</ele>
        <time>2018-12-30T07:48:48Z</time>
      </trkpt>
      <trkpt lat="37.348562" lon="-8.821595">
        <ele>87.608</ele>
        <time>2018-12-30T07:49:01Z</time>
      </trkpt>
      <trkpt lat="37.348732" lon="-8.821484">
        <ele>88.159</ele>
        <time>2018-12-30T07:49:15Z</time>
      </trkpt>
      <trkpt lat="37.348771" lon="-8.821456">
        <ele>88.187</ele>
        <time>2018-12-30T07:49:19Z</time>
      </trkpt>
      <trkpt lat="37.348871" lon="-8.821390">
        <ele>89.054</ele>
        <time>2018-12-30T07:49:28Z</time>
      </trkpt>
      <trkpt lat="37.348922" lon="-8.821356">
        <ele>88.589</ele>
        <time>2018-12-30T07:49:41Z</time>
      </trkpt>
      <trkpt lat="37.348922" lon="-8.821356">
        <ele>88.555</ele>
        <time>2018-12-30T07:49:48Z</time>
      </trkpt>
      <trkpt lat="37.349069" lon="-8.821246">
        <ele>88.122</ele>
        <time>2018-12-30T07:50:01Z</time>
      </trkpt>
      <trkpt lat="37.349082" lon="-8.821236">
        <ele>88.137</ele>
        <time>2018-12-30T07:50:02Z</time>
      </trkpt>
      <trkpt lat="37.349233" lon="-8.821103">
        <ele>87.618</ele>
        <time>2018-12-30T07:50:16Z</time>
      </trkpt>
      <trkpt lat="37.349381" lon="-8.821002">
        <ele>88.195</ele>
        <time>2018-12-30T07:50:29Z</time>
      </trkpt>
      <trkpt lat="37.349527" lon="-8.820907">
        <ele>88.549</ele>
        <time>2018-12-30T07:50:41Z</time>
      </trkpt>
      <trkpt lat="37.349611" lon="-8.820852">
        <ele>89.023</ele>
        <time>2018-12-30T07:50:48Z</time>
      </trkpt>
      <trkpt lat="37.349761" lon="-8.820774">
        <ele>89.508</ele>
        <time>2018-12-30T07:51:00Z</time>
      </trkpt>
      <trkpt lat="37.349924" lon="-8.820673">
        <ele>89.542</ele>
        <time>2018-12-30T07:51:13Z</time>
      </trkpt>
      <trkpt lat="37.350106" lon="-8.820553">
        <ele>90.550</ele>
        <time>2018-12-30T07:51:28Z</time>
      </trkpt>
      <trkpt lat="37.350246" lon="-8.820448">
        <ele>90.597</ele>
        <time>2018-12-30T07:51:40Z</time>
      </trkpt>
      <trkpt lat="37.350399" lon="-8.820336">
        <ele>90.572</ele>
        <time>2018-12-30T07:51:53Z</time>
      </trkpt>
      <trkpt lat="37.350544" lon="-8.820246">
        <ele>90.548</ele>
        <time>2018-12-30T07:52:06Z</time>
      </trkpt>
      <trkpt lat="37.350686" lon="-8.820151">
        <ele>90.965</ele>
        <time>2018-12-30T07:52:18Z</time>
      </trkpt>
      <trkpt lat="37.350811" lon="-8.820026">
        <ele>91.480</ele>
        <time>2018-12-30T07:52:30Z</time>
      </trkpt>
      <trkpt lat="37.350904" lon="-8.819887">
        <ele>91.911</ele>
        <time>2018-12-30T07:52:41Z</time>
      </trkpt>
      <trkpt lat="37.350910" lon="-8.819856">
        <ele>91.442</ele>
        <time>2018-12-30T07:52:43Z</time>
      </trkpt>
      <trkpt lat="37.350934" lon="-8.819612">
        <ele>91.922</ele>
        <time>2018-12-30T07:52:58Z</time>
      </trkpt>
      <trkpt lat="37.350934" lon="-8.819373">
        <ele>91.414</ele>
        <time>2018-12-30T07:53:12Z</time>
      </trkpt>
      <trkpt lat="37.350960" lon="-8.819258">
        <ele>91.908</ele>
        <time>2018-12-30T07:53:20Z</time>
      </trkpt>
      <trkpt lat="37.351035" lon="-8.819153">
        <ele>92.487</ele>
        <time>2018-12-30T07:53:33Z</time>
      </trkpt>
      <trkpt lat="37.351035" lon="-8.819153">
        <ele>92.495</ele>
        <time>2018-12-30T07:53:52Z</time>
      </trkpt>
      <trkpt lat="37.351147" lon="-8.819096">
        <ele>91.962</ele>
        <time>2018-12-30T07:54:01Z</time>
      </trkpt>
      <trkpt lat="37.351341" lon="-8.819023">
        <ele>92.497</ele>
        <time>2018-12-30T07:54:15Z</time>
      </trkpt>
      <trkpt lat="37.351549" lon="-8.818940">
        <ele>91.963</ele>
        <time>2018-12-30T07:54:30Z</time>
      </trkpt>
      <trkpt lat="37.351697" lon="-8.818850">
        <ele>90.990</ele>
        <time>2018-12-30T07:54:41Z</time>
      </trkpt>
      <trkpt lat="37.351882" lon="-8.818697">
        <ele>90.015</ele>
        <time>2018-12-30T07:54:56Z</time>
      </trkpt>
      <trkpt lat="37.352014" lon="-8.818596">
        <ele>89.536</ele>
        <time>2018-12-30T07:55:07Z</time>
      </trkpt>
      <trkpt lat="37.352166" lon="-8.818467">
        <ele>89.582</ele>
        <time>2018-12-30T07:55:19Z</time>
      </trkpt>
      <trkpt lat="37.352288" lon="-8.818302">
        <ele>89.543</ele>
        <time>2018-12-30T07:55:32Z</time>
      </trkpt>
      <trkpt lat="37.352444" lon="-8.818166">
        <ele>91.417</ele>
        <time>2018-12-30T07:55:46Z</time>
      </trkpt>
      <trkpt lat="37.352602" lon="-8.818062">
        <ele>92.408</ele>
        <time>2018-12-30T07:55:59Z</time>
      </trkpt>
      <trkpt lat="37.352789" lon="-8.817950">
        <ele>91.981</ele>
        <time>2018-12-30T07:56:14Z</time>
      </trkpt>
      <trkpt lat="37.353006" lon="-8.817933">
        <ele>91.499</ele>
        <time>2018-12-30T07:56:30Z</time>
      </trkpt>
      <trkpt lat="37.353170" lon="-8.817990">
        <ele>90.966</ele>
        <time>2018-12-30T07:56:43Z</time>
      </trkpt>
      <trkpt lat="37.353206" lon="-8.818019">
        <ele>90.561</ele>
        <time>2018-12-30T07:56:46Z</time>
      </trkpt>
      <trkpt lat="37.353294" lon="-8.818070">
        <ele>90.577</ele>
        <time>2018-12-30T07:56:54Z</time>
      </trkpt>
      <trkpt lat="37.353345" lon="-8.818120">
        <ele>90.094</ele>
        <time>2018-12-30T07:56:59Z</time>
      </trkpt>
      <trkpt lat="37.353407" lon="-8.818153">
        <ele>90.549</ele>
        <time>2018-12-30T07:57:04Z</time>
      </trkpt>
      <trkpt lat="37.353598" lon="-8.818155">
        <ele>90.020</ele>
        <time>2018-12-30T07:57:17Z</time>
      </trkpt>
      <trkpt lat="37.353744" lon="-8.818085">
        <ele>90.084</ele>
        <time>2018-12-30T07:57:28Z</time>
      </trkpt>
      <trkpt lat="37.353894" lon="-8.817962">
        <ele>89.007</ele>
        <time>2018-12-30T07:57:41Z</time>
      </trkpt>
      <trkpt lat="37.354008" lon="-8.817835">
        <ele>89.517</ele>
        <time>2018-12-30T07:57:52Z</time>
      </trkpt>
      <trkpt lat="37.354039" lon="-8.817784">
        <ele>88.508</ele>
        <time>2018-12-30T07:57:56Z</time>
      </trkpt>
      <trkpt lat="37.354148" lon="-8.817536">
        <ele>88.131</ele>
        <time>2018-12-30T07:58:12Z</time>
      </trkpt>
      <trkpt lat="37.354272" lon="-8.817394">
        <ele>88.569</ele>
        <time>2018-12-30T07:58:25Z</time>
      </trkpt>
      <trkpt lat="37.354415" lon="-8.817335">
        <ele>90.056</ele>
        <time>2018-12-30T07:58:37Z</time>
      </trkpt>
      <trkpt lat="37.354562" lon="-8.817330">
        <ele>90.041</ele>
        <time>2018-12-30T07:58:49Z</time>
      </trkpt>
      <trkpt lat="37.354726" lon="-8.817357">
        <ele>90.097</ele>
        <time>2018-12-30T07:59:02Z</time>
      </trkpt>
      <trkpt lat="37.354776" lon="-8.817384">
        <ele>90.044</ele>
        <time>2018-12-30T07:59:07Z</time>
      </trkpt>
      <trkpt lat="37.354865" lon="-8.817405">
        <ele>89.589</ele>
        <time>2018-12-30T07:59:21Z</time>
      </trkpt>
      <trkpt lat="37.354873" lon="-8.817407">
        <ele>89.090</ele>
        <time>2018-12-30T07:59:27Z</time>
      </trkpt>
      <trkpt lat="37.355068" lon="-8.817466">
        <ele>88.594</ele>
        <time>2018-12-30T07:59:42Z</time>
      </trkpt>
      <trkpt lat="37.355241" lon="-8.817433">
        <ele>87.657</ele>
        <time>2018-12-30T07:59:55Z</time>
      </trkpt>
      <trkpt lat="37.355351" lon="-8.817271">
        <ele>88.122</ele>
        <time>2018-12-30T08:00:08Z</time>
      </trkpt>
      <trkpt lat="37.355440" lon="-8.817134">
        <ele>87.108</ele>
        <time>2018-12-30T08:00:21Z</time>
      </trkpt>
      <trkpt lat="37.355532" lon="-8.816970">
        <ele>87.152</ele>
        <time>2018-12-30T08:00:34Z</time>
      </trkpt>
      <trkpt lat="37.355623" lon="-8.816820">
        <ele>88.520</ele>
        <time>2018-12-30T08:00:46Z</time>
      </trkpt>
      <trkpt lat="37.355710" lon="-8.816648">
        <ele>88.587</ele>
        <time>2018-12-30T08:00:59Z</time>
      </trkpt>
      <trkpt lat="37.355812" lon="-8.816489">
        <ele>89.032</ele>
        <time>2018-12-30T08:01:14Z</time>
      </trkpt>
      <trkpt lat="37.355812" lon="-8.816489">
        <ele>90.548</ele>
        <time>2018-12-30T08:01:16Z</time>
      </trkpt>
      <trkpt lat="37.355857" lon="-8.816404">
        <ele>89.525</ele>
        <time>2018-12-30T08:01:36Z</time>
      </trkpt>
      <trkpt lat="37.355964" lon="-8.816216">
        <ele>90.060</ele>
        <time>2018-12-30T08:01:50Z</time>
      </trkpt>
      <trkpt lat="37.356000" lon="-8.816132">
        <ele>89.561</ele>
        <time>2018-12-30T08:01:57Z</time>
      </trkpt>
      <trkpt lat="37.356009" lon="-8.816078">
        <ele>90.065</ele>
        <time>2018-12-30T08:02:10Z</time>
      </trkpt>
      <trkpt lat="37.356085" lon="-8.815940">
        <ele>90.568</ele>
        <time>2018-12-30T08:02:25Z</time>
      </trkpt>
      <trkpt lat="37.356092" lon="-8.815926">
        <ele>90.014</ele>
        <time>2018-12-30T08:02:35Z</time>
      </trkpt>
      <trkpt lat="37.356225" lon="-8.815715">
        <ele>90.008</ele>
        <time>2018-12-30T08:02:51Z</time>
      </trkpt>
      <trkpt lat="37.356256" lon="-8.815689">
        <ele>90.579</ele>
        <time>2018-12-30T08:03:04Z</time>
      </trkpt>
      <trkpt lat="37.356265" lon="-8.815662">
        <ele>90.067</ele>
        <time>2018-12-30T08:03:09Z</time>
      </trkpt>
      <trkpt lat="37.356272" lon="-8.815641">
        <ele>90.024</ele>
        <time>2018-12-30T08:03:11Z</time>
      </trkpt>
      <trkpt lat="37.356298" lon="-8.815570">
        <ele>90.049</ele>
        <time>2018-12-30T08:03:22Z</time>
      </trkpt>
      <trkpt lat="37.356408" lon="-8.815393">
        <ele>90.075</ele>
        <time>2018-12-30T08:03:37Z</time>
      </trkpt>
      <trkpt lat="37.356533" lon="-8.815193">
        <ele>90.542</ele>
        <time>2018-12-30T08:03:52Z</time>
      </trkpt>
      <trkpt lat="37.356640" lon="-8.815031">
        <ele>90.537</ele>
        <time>2018-12-30T08:04:05Z</time>
      </trkpt>
      <trkpt lat="37.356775" lon="-8.814883">
        <ele>90.068</ele>
        <time>2018-12-30T08:04:19Z</time>
      </trkpt>
      <trkpt lat="37.356909" lon="-8.814736">
        <ele>88.551</ele>
        <time>2018-12-30T08:04:32Z</time>
      </trkpt>
      <trkpt lat="37.356957" lon="-8.814681">
        <ele>87.601</ele>
        <time>2018-12-30T08:04:37Z</time>
      </trkpt>
      <trkpt lat="37.356991" lon="-8.814632">
        <ele>87.111</ele>
        <time>2018-12-30T08:04:41Z</time>
      </trkpt>
      <trkpt lat="37.357169" lon="-8.814459">
        <ele>84.708</ele>
        <time>2018-12-30T08:05:00Z</time>
      </trkpt>
      <trkpt lat="37.357338" lon="-8.814303">
        <ele>86.178</ele>
        <time>2018-12-30T08:05:18Z</time>
      </trkpt>
      <trkpt lat="37.357463" lon="-8.814154">
        <ele>86.666</ele>
        <time>2018-12-30T08:05:31Z</time>
      </trkpt>
      <trkpt lat="37.357521" lon="-8.814109">
        <ele>87.653</ele>
        <time>2018-12-30T08:05:36Z</time>
      </trkpt>
      <trkpt lat="37.357625" lon="-8.813996">
        <ele>88.548</ele>
        <time>2018-12-30T08:05:48Z</time>
      </trkpt>
      <trkpt lat="37.357754" lon="-8.813878">
        <ele>89.594</ele>
        <time>2018-12-30T08:06:01Z</time>
      </trkpt>
      <trkpt lat="37.357898" lon="-8.813740">
        <ele>90.041</ele>
        <time>2018-12-30T08:06:15Z</time>
      </trkpt>
      <trkpt lat="37.358039" lon="-8.813613">
        <ele>90.036</ele>
        <time>2018-12-30T08:06:28Z</time>
      </trkpt>
      <trkpt lat="37.358196" lon="-8.813461">
        <ele>90.097</ele>
        <time>2018-12-30T08:06:43Z</time>
      </trkpt>
      <trkpt lat="37.358225" lon="-8.813430">
        <ele>91.469</ele>
        <time>2018-12-30T08:06:51Z</time>
      </trkpt>
      <trkpt lat="37.358242" lon="-8.813416">
        <ele>90.504</ele>
        <time>2018-12-30T08:06:53Z</time>
      </trkpt>
      <trkpt lat="37.358404" lon="-8.813253">
        <ele>91.924</ele>
        <time>2018-12-30T08:07:09Z</time>
      </trkpt>
      <trkpt lat="37.358483" lon="-8.813176">
        <ele>91.408</ele>
        <time>2018-12-30T08:07:17Z</time>
      </trkpt>
      <trkpt lat="37.358642" lon="-8.812969">
        <ele>91.459</ele>
        <time>2018-12-30T08:07:35Z</time>
      </trkpt>
      <trkpt lat="37.358773" lon="-8.812846">
        <ele>92.417</ele>
        <time>2018-12-30T08:07:49Z</time>
      </trkpt>
      <trkpt lat="37.358923" lon="-8.812699">
        <ele>92.454</ele>
        <time>2018-12-30T08:08:04Z</time>
      </trkpt>
      <trkpt lat="37.359039" lon="-8.812576">
        <ele>92.439</ele>
        <time>2018-12-30T08:08:16Z</time>
      </trkpt>
      <trkpt lat="37.359118" lon="-8.812513">
        <ele>92.435</ele>
        <time>2018-12-30T08:08:22Z</time>
      </trkpt>
      <trkpt lat="37.359262" lon="-8.812366">
        <ele>92.422</ele>
        <time>2018-12-30T08:08:36Z</time>
      </trkpt>
      <trkpt lat="37.359406" lon="-8.812225">
        <ele>92.467</ele>
        <time>2018-12-30T08:08:50Z</time>
      </trkpt>
      <trkpt lat="37.359533" lon="-8.812093">
        <ele>92.998</ele>
        <time>2018-12-30T08:09:03Z</time>
      </trkpt>
      <trkpt lat="37.359661" lon="-8.811967">
        <ele>92.997</ele>
        <time>2018-12-30T08:09:16Z</time>
      </trkpt>
      <trkpt lat="37.359822" lon="-8.811798">
        <ele>93.323</ele>
        <time>2018-12-30T08:09:32Z</time>
      </trkpt>
      <trkpt lat="37.359970" lon="-8.811658">
        <ele>92.925</ele>
        <time>2018-12-30T08:09:46Z</time>
      </trkpt>
      <trkpt lat="37.360047" lon="-8.811570">
        <ele>93.308</ele>
        <time>2018-12-30T08:09:54Z</time>
      </trkpt>
      <trkpt lat="37.360089" lon="-8.811526">
        <ele>93.332</ele>
        <time>2018-12-30T08:09:58Z</time>
      </trkpt>
      <trkpt lat="37.360242" lon="-8.811378">
        <ele>93.380</ele>
        <time>2018-12-30T08:10:13Z</time>
      </trkpt>
      <trkpt lat="37.360393" lon="-8.811231">
        <ele>93.867</ele>
        <time>2018-12-30T08:10:28Z</time>
      </trkpt>
      <trkpt lat="37.360542" lon="-8.811084">
        <ele>93.312</ele>
        <time>2018-12-30T08:10:42Z</time>
      </trkpt>
      <trkpt lat="37.360693" lon="-8.810932">
        <ele>93.318</ele>
        <time>2018-12-30T08:10:57Z</time>
      </trkpt>
      <trkpt lat="37.360862" lon="-8.810756">
        <ele>92.445</ele>
        <time>2018-12-30T08:11:14Z</time>
      </trkpt>
      <trkpt lat="37.361026" lon="-8.810605">
        <ele>91.910</ele>
        <time>2018-12-30T08:11:29Z</time>
      </trkpt>
      <trkpt lat="37.361177" lon="-8.810449">
        <ele>92.451</ele>
        <time>2018-12-30T08:11:44Z</time>
      </trkpt>
      <trkpt lat="37.361324" lon="-8.810277">
        <ele>92.499</ele>
        <time>2018-12-30T08:12:00Z</time>
      </trkpt>
      <trkpt lat="37.361464" lon="-8.810135">
        <ele>92.407</ele>
        <time>2018-12-30T08:12:14Z</time>
      </trkpt>
      <trkpt lat="37.361600" lon="-8.809986">
        <ele>93.327</ele>
        <time>2018-12-30T08:12:29Z</time>
      </trkpt>
      <trkpt lat="37.361757" lon="-8.809826">
        <ele>93.308</ele>
        <time>2018-12-30T08:12:45Z</time>
      </trkpt>
      <trkpt lat="37.361914" lon="-8.809669">
        <ele>93.372</ele>
        <time>2018-12-30T08:13:01Z</time>
      </trkpt>
      <trkpt lat="37.362065" lon="-8.809521">
        <ele>93.390</ele>
        <time>2018-12-30T08:13:16Z</time>
      </trkpt>
      <trkpt lat="37.362135" lon="-8.809442">
        <ele>93.377</ele>
        <time>2018-12-30T08:13:24Z</time>
      </trkpt>
      <trkpt lat="37.362184" lon="-8.809405">
        <ele>93.392</ele>
        <time>2018-12-30T08:13:28Z</time>
      </trkpt>
      <trkpt lat="37.362340" lon="-8.809233">
        <ele>93.338</ele>
        <time>2018-12-30T08:13:44Z</time>
      </trkpt>
      <trkpt lat="37.362501" lon="-8.809089">
        <ele>93.395</ele>
        <time>2018-12-30T08:14:00Z</time>
      </trkpt>
      <trkpt lat="37.362676" lon="-8.808904">
        <ele>92.980</ele>
        <time>2018-12-30T08:14:18Z</time>
      </trkpt>
      <trkpt lat="37.362818" lon="-8.808754">
        <ele>93.311</ele>
        <time>2018-12-30T08:14:33Z</time>
      </trkpt>
      <trkpt lat="37.362974" lon="-8.808586">
        <ele>92.479</ele>
        <time>2018-12-30T08:14:49Z</time>
      </trkpt>
      <trkpt lat="37.363132" lon="-8.808436">
        <ele>92.905</ele>
        <time>2018-12-30T08:15:04Z</time>
      </trkpt>
      <trkpt lat="37.363271" lon="-8.808286">
        <ele>92.925</ele>
        <time>2018-12-30T08:15:18Z</time>
      </trkpt>
      <trkpt lat="37.363420" lon="-8.808143">
        <ele>92.408</ele>
        <time>2018-12-30T08:15:33Z</time>
      </trkpt>
      <trkpt lat="37.363594" lon="-8.807980">
        <ele>91.490</ele>
        <time>2018-12-30T08:15:49Z</time>
      </trkpt>
      <trkpt lat="37.363644" lon="-8.807926">
        <ele>91.998</ele>
        <time>2018-12-30T08:15:54Z</time>
      </trkpt>
      <trkpt lat="37.363738" lon="-8.807831">
        <ele>91.925</ele>
        <time>2018-12-30T08:16:03Z</time>
      </trkpt>
      <trkpt lat="37.363879" lon="-8.807693">
        <ele>92.460</ele>
        <time>2018-12-30T08:16:17Z</time>
      </trkpt>
      <trkpt lat="37.364015" lon="-8.807551">
        <ele>93.376</ele>
        <time>2018-12-30T08:16:31Z</time>
      </trkpt>
      <trkpt lat="37.364042" lon="-8.807521">
        <ele>93.313</ele>
        <time>2018-12-30T08:16:34Z</time>
      </trkpt>
      <trkpt lat="37.364111" lon="-8.807464">
        <ele>93.368</ele>
        <time>2018-12-30T08:16:40Z</time>
      </trkpt>
      <trkpt lat="37.364269" lon="-8.807289">
        <ele>93.359</ele>
        <time>2018-12-30T08:16:56Z</time>
      </trkpt>
      <trkpt lat="37.364455" lon="-8.807098">
        <ele>93.366</ele>
        <time>2018-12-30T08:17:14Z</time>
      </trkpt>
      <trkpt lat="37.364608" lon="-8.806930">
        <ele>93.329</ele>
        <time>2018-12-30T08:17:30Z</time>
      </trkpt>
      <trkpt lat="37.364768" lon="-8.806787">
        <ele>94.321</ele>
        <time>2018-12-30T08:17:45Z</time>
      </trkpt>
      <trkpt lat="37.364928" lon="-8.806632">
        <ele>94.308</ele>
        <time>2018-12-30T08:18:00Z</time>
      </trkpt>
      <trkpt lat="37.365086" lon="-8.806477">
        <ele>94.899</ele>
        <time>2018-12-30T08:18:15Z</time>
      </trkpt>
      <trkpt lat="37.365149" lon="-8.806406">
        <ele>93.827</ele>
        <time>2018-12-30T08:18:22Z</time>
      </trkpt>
      <trkpt lat="37.365194" lon="-8.806375">
        <ele>94.854</ele>
        <time>2018-12-30T08:18:26Z</time>
      </trkpt>
      <trkpt lat="37.365377" lon="-8.806194">
        <ele>94.819</ele>
        <time>2018-12-30T08:18:43Z</time>
      </trkpt>
      <trkpt lat="37.365545" lon="-8.806019">
        <ele>94.875</ele>
        <time>2018-12-30T08:19:00Z</time>
      </trkpt>
      <trkpt lat="37.365700" lon="-8.805863">
        <ele>93.842</ele>
        <time>2018-12-30T08:19:15Z</time>
      </trkpt>
      <trkpt lat="37.365860" lon="-8.805686">
        <ele>94.327</ele>
        <time>2018-12-30T08:19:31Z</time>
      </trkpt>
      <trkpt lat="37.366011" lon="-8.805532">
        <ele>95.388</ele>
        <time>2018-12-30T08:19:46Z</time>
      </trkpt>
      <trkpt lat="37.366162" lon="-8.805374">
        <ele>95.716</ele>
        <time>2018-12-30T08:20:01Z</time>
      </trkpt>
      <trkpt lat="37.366251" lon="-8.805285">
        <ele>95.776</ele>
        <time>2018-12-30T08:20:10Z</time>
      </trkpt>
      <trkpt lat="37.366289" lon="-8.805243">
        <ele>95.713</ele>
        <time>2018-12-30T08:20:14Z</time>
      </trkpt>
      <trkpt lat="37.366459" lon="-8.805083">
        <ele>96.208</ele>
        <time>2018-12-30T08:20:30Z</time>
      </trkpt>
      <trkpt lat="37.366636" lon="-8.804906">
        <ele>96.234</ele>
        <time>2018-12-30T08:20:47Z</time>
      </trkpt>
      <trkpt lat="37.366786" lon="-8.804758">
        <ele>96.732</ele>
        <time>2018-12-30T08:21:02Z</time>
      </trkpt>
      <trkpt lat="37.366883" lon="-8.804662">
        <ele>96.779</ele>
        <time>2018-12-30T08:21:11Z</time>
      </trkpt>
      <trkpt lat="37.367022" lon="-8.804514">
        <ele>96.294</ele>
        <time>2018-12-30T08:21:25Z</time>
      </trkpt>
      <trkpt lat="37.367184" lon="-8.804362">
        <ele>95.780</ele>
        <time>2018-12-30T08:21:40Z</time>
      </trkpt>
      <trkpt lat="37.367359" lon="-8.804187">
        <ele>96.277</ele>
        <time>2018-12-30T08:21:57Z</time>
      </trkpt>
      <trkpt lat="37.367529" lon="-8.804008">
        <ele>95.392</ele>
        <time>2018-12-30T08:22:13Z</time>
      </trkpt>
      <trkpt lat="37.367685" lon="-8.803846">
        <ele>95.353</ele>
        <time>2018-12-30T08:22:28Z</time>
      </trkpt>
      <trkpt lat="37.367821" lon="-8.803700">
        <ele>95.795</ele>
        <time>2018-12-30T08:22:42Z</time>
      </trkpt>
      <trkpt lat="37.367978" lon="-8.803546">
        <ele>94.349</ele>
        <time>2018-12-30T08:22:57Z</time>
      </trkpt>
      <trkpt lat="37.368147" lon="-8.803383">
        <ele>95.323</ele>
        <time>2018-12-30T08:23:13Z</time>
      </trkpt>
      <trkpt lat="37.368316" lon="-8.803211">
        <ele>95.308</ele>
        <time>2018-12-30T08:23:29Z</time>
      </trkpt>
      <trkpt lat="37.368463" lon="-8.803084">
        <ele>94.862</ele>
        <time>2018-12-30T08:23:42Z</time>
      </trkpt>
      <trkpt lat="37.368525" lon="-8.803015">
        <ele>94.390</ele>
        <time>2018-12-30T08:23:48Z</time>
      </trkpt>
      <trkpt lat="37.368678" lon="-8.802845">
        <ele>94.867</ele>
        <time>2018-12-30T08:24:03Z</time>
      </trkpt>
      <trkpt lat="37.368747" lon="-8.802758">
        <ele>94.392</ele>
        <time>2018-12-30T08:24:10Z</time>
      </trkpt>
      <trkpt lat="37.368927" lon="-8.802575">
        <ele>95.388</ele>
        <time>2018-12-30T08:24:28Z</time>
      </trkpt>
      <trkpt lat="37.369100" lon="-8.802412">
        <ele>94.385</ele>
        <time>2018-12-30T08:24:44Z</time>
      </trkpt>
      <trkpt lat="37.369238" lon="-8.802272">
        <ele>94.820</ele>
        <time>2018-12-30T08:24:58Z</time>
      </trkpt>
      <trkpt lat="37.369248" lon="-8.802262">
        <ele>94.861</ele>
        <time>2018-12-30T08:24:59Z</time>
      </trkpt>
      <trkpt lat="37.369394" lon="-8.802108">
        <ele>94.891</ele>
        <time>2018-12-30T08:25:14Z</time>
      </trkpt>
      <trkpt lat="37.369417" lon="-8.802002">
        <ele>94.381</ele>
        <time>2018-12-30T08:25:21Z</time>
      </trkpt>
      <trkpt lat="37.369419" lon="-8.801848">
        <ele>95.319</ele>
        <time>2018-12-30T08:25:31Z</time>
      </trkpt>
      <trkpt lat="37.369414" lon="-8.801761">
        <ele>95.708</ele>
        <time>2018-12-30T08:25:36Z</time>
      </trkpt>
      <trkpt lat="37.369430" lon="-8.801565">
        <ele>95.342</ele>
        <time>2018-12-30T08:25:48Z</time>
      </trkpt>
      <trkpt lat="37.369436" lon="-8.801357">
        <ele>93.810</ele>
        <time>2018-12-30T08:26:01Z</time>
      </trkpt>
      <trkpt lat="37.369434" lon="-8.801322">
        <ele>94.337</ele>
        <time>2018-12-30T08:26:03Z</time>
      </trkpt>
      <trkpt lat="37.369450" lon="-8.801162">
        <ele>93.832</ele>
        <time>2018-12-30T08:26:13Z</time>
      </trkpt>
      <trkpt lat="37.369451" lon="-8.801062">
        <ele>94.848</ele>
        <time>2018-12-30T08:26:19Z</time>
      </trkpt>
      <trkpt lat="37.369456" lon="-8.801026">
        <ele>95.725</ele>
        <time>2018-12-30T08:26:21Z</time>
      </trkpt>
      <trkpt lat="37.369432" lon="-8.800944">
        <ele>95.320</ele>
        <time>2018-12-30T08:26:27Z</time>
      </trkpt>
      <trkpt lat="37.369432" lon="-8.800921">
        <ele>95.311</ele>
        <time>2018-12-30T08:26:29Z</time>
      </trkpt>
      <trkpt lat="37.369422" lon="-8.800894">
        <ele>94.357</ele>
        <time>2018-12-30T08:26:31Z</time>
      </trkpt>
      <trkpt lat="37.369420" lon="-8.800827">
        <ele>94.800</ele>
        <time>2018-12-30T08:26:36Z</time>
      </trkpt>
      <trkpt lat="37.369434" lon="-8.800736">
        <ele>95.720</ele>
        <time>2018-12-30T08:26:43Z</time>
      </trkpt>
      <trkpt lat="37.369393" lon="-8.800759">
        <ele>95.308</ele>
        <time>2018-12-30T08:26:47Z</time>
      </trkpt>
      <trkpt lat="37.369376" lon="-8.800776">
        <ele>95.768</ele>
        <time>2018-12-30T08:26:59Z</time>
      </trkpt>
      <trkpt lat="37.369376" lon="-8.800776">
        <ele>96.766</ele>
        <time>2018-12-30T08:27:02Z</time>
      </trkpt>
      <trkpt lat="37.369350" lon="-8.800636">
        <ele>95.783</ele>
        <time>2018-12-30T08:27:15Z</time>
      </trkpt>
      <trkpt lat="37.369350" lon="-8.800636">
        <ele>96.248</ele>
        <time>2018-12-30T08:27:34Z</time>
      </trkpt>
      <trkpt lat="37.369351" lon="-8.800635">
        <ele>95.754</ele>
        <time>2018-12-30T08:27:54Z</time>
      </trkpt>
      <trkpt lat="37.369372" lon="-8.800630">
        <ele>95.731</ele>
        <time>2018-12-30T08:27:56Z</time>
      </trkpt>
      <trkpt lat="37.369394" lon="-8.800621">
        <ele>95.396</ele>
        <time>2018-12-30T08:27:58Z</time>
      </trkpt>
      <trkpt lat="37.369415" lon="-8.800418">
        <ele>95.357</ele>
        <time>2018-12-30T08:28:11Z</time>
      </trkpt>
      <trkpt lat="37.369411" lon="-8.800389">
        <ele>94.842</ele>
        <time>2018-12-30T08:28:13Z</time>
      </trkpt>
      <trkpt lat="37.369403" lon="-8.800291">
        <ele>95.322</ele>
        <time>2018-12-30T08:28:28Z</time>
      </trkpt>
      <trkpt lat="37.369403" lon="-8.800291">
        <ele>95.314</ele>
        <time>2018-12-30T08:28:30Z</time>
      </trkpt>
      <trkpt lat="37.369445" lon="-8.800206">
        <ele>94.808</ele>
        <time>2018-12-30T08:28:36Z</time>
      </trkpt>
      <trkpt lat="37.369473" lon="-8.800182">
        <ele>95.377</ele>
        <time>2018-12-30T08:28:39Z</time>
      </trkpt>
      <trkpt lat="37.369496" lon="-8.800171">
        <ele>95.725</ele>
        <time>2018-12-30T08:28:46Z</time>
      </trkpt>
      <trkpt lat="37.369545" lon="-8.800159">
        <ele>96.282</ele>
        <time>2018-12-30T08:28:50Z</time>
      </trkpt>
      <trkpt lat="37.369586" lon="-8.800148">
        <ele>95.727</ele>
        <time>2018-12-30T08:28:53Z</time>
      </trkpt>
      <trkpt lat="37.369688" lon="-8.800114">
        <ele>95.723</ele>
        <time>2018-12-30T08:29:01Z</time>
      </trkpt>
      <trkpt lat="37.369724" lon="-8.800121">
        <ele>96.260</ele>
        <time>2018-12-30T08:29:04Z</time>
      </trkpt>
      <trkpt lat="37.369750" lon="-8.800127">
        <ele>95.315</ele>
        <time>2018-12-30T08:29:09Z</time>
      </trkpt>
      <trkpt lat="37.369773" lon="-8.800136">
        <ele>95.786</ele>
        <time>2018-12-30T08:29:12Z</time>
      </trkpt>
      <trkpt lat="37.369907" lon="-8.800092">
        <ele>95.773</ele>
        <time>2018-12-30T08:29:23Z</time>
      </trkpt>
      <trkpt lat="37.369951" lon="-8.800089">
        <ele>95.785</ele>
        <time>2018-12-30T08:29:27Z</time>
      </trkpt>
      <trkpt lat="37.370018" lon="-8.800083">
        <ele>95.713</ele>
        <time>2018-12-30T08:29:33Z</time>
      </trkpt>
      <trkpt lat="37.370171" lon="-8.800045">
        <ele>95.708</ele>
        <time>2018-12-30T08:29:47Z</time>
      </trkpt>
      <trkpt lat="37.370181" lon="-8.800041">
        <ele>95.390</ele>
        <time>2018-12-30T08:29:48Z</time>
      </trkpt>
      <trkpt lat="37.370201" lon="-8.800044">
        <ele>94.828</ele>
        <time>2018-12-30T08:29:50Z</time>
      </trkpt>
      <trkpt lat="37.370281" lon="-8.800019">
        <ele>94.835</ele>
        <time>2018-12-30T08:29:58Z</time>
      </trkpt>
      <trkpt lat="37.370262" lon="-8.799969">
        <ele>95.780</ele>
        <time>2018-12-30T08:30:07Z</time>
      </trkpt>
      <trkpt lat="37.370288" lon="-8.799934">
        <ele>95.316</ele>
        <time>2018-12-30T08:30:21Z</time>
      </trkpt>
      <trkpt lat="37.370311" lon="-8.799933">
        <ele>95.373</ele>
        <time>2018-12-30T08:30:41Z</time>
      </trkpt>
      <trkpt lat="37.370302" lon="-8.799823">
        <ele>95.788</ele>
        <time>2018-12-30T08:30:56Z</time>
      </trkpt>
      <trkpt lat="37.370507" lon="-8.799866">
        <ele>95.719</ele>
        <time>2018-12-30T08:31:30Z</time>
      </trkpt>
      <trkpt lat="37.370255" lon="-8.799990">
        <ele>94.891</ele>
        <time>2018-12-30T08:31:49Z</time>
      </trkpt>
      <trkpt lat="37.370255" lon="-8.799990">
        <ele>94.881</ele>
        <time>2018-12-30T08:31:50Z</time>
      </trkpt>
      <trkpt lat="37.370265" lon="-8.799982">
        <ele>95.319</ele>
        <time>2018-12-30T08:32:00Z</time>
      </trkpt>
      <trkpt lat="37.370249" lon="-8.799940">
        <ele>95.308</ele>
        <time>2018-12-30T08:32:21Z</time>
      </trkpt>
      <trkpt lat="37.370273" lon="-8.799932">
        <ele>95.772</ele>
        <time>2018-12-30T08:32:41Z</time>
      </trkpt>
      <trkpt lat="37.370296" lon="-8.799931">
        <ele>95.310</ele>
        <time>2018-12-30T08:33:04Z</time>
      </trkpt>
      <trkpt lat="37.370287" lon="-8.799914">
        <ele>94.857</ele>
        <time>2018-12-30T08:33:36Z</time>
      </trkpt>
      <trkpt lat="37.370270" lon="-8.799919">
        <ele>95.332</ele>
        <time>2018-12-30T08:34:01Z</time>
      </trkpt>
      <trkpt lat="37.370275" lon="-8.799946">
        <ele>96.238</ele>
        <time>2018-12-30T08:34:26Z</time>
      </trkpt>
      <trkpt lat="37.370280" lon="-8.799950">
        <ele>96.285</ele>
        <time>2018-12-30T08:34:50Z</time>
      </trkpt>
      <trkpt lat="37.370304" lon="-8.799907">
        <ele>95.730</ele>
        <time>2018-12-30T08:35:09Z</time>
      </trkpt>
      <trkpt lat="37.370347" lon="-8.799913">
        <ele>95.761</ele>
        <time>2018-12-30T08:35:32Z</time>
      </trkpt>
      <trkpt lat="37.370352" lon="-8.799913">
        <ele>95.729</ele>
        <time>2018-12-30T08:35:59Z</time>
      </trkpt>
      <trkpt lat="37.370375" lon="-8.799907">
        <ele>95.700</ele>
        <time>2018-12-30T08:36:19Z</time>
      </trkpt>
      <trkpt lat="37.370355" lon="-8.799917">
        <ele>96.220</ele>
        <time>2018-12-30T08:36:21Z</time>
      </trkpt>
      <trkpt lat="37.370216" lon="-8.799926">
        <ele>95.708</ele>
        <time>2018-12-30T08:36:47Z</time>
      </trkpt>
      <trkpt lat="37.370211" lon="-8.799930">
        <ele>96.215</ele>
        <time>2018-12-30T08:37:14Z</time>
      </trkpt>
      <trkpt lat="37.370329" lon="-8.799818">
        <ele>95.753</ele>
        <time>2018-12-30T08:37:37Z</time>
      </trkpt>
      <trkpt lat="37.370485" lon="-8.799765">
        <ele>95.770</ele>
        <time>2018-12-30T08:37:58Z</time>
      </trkpt>
      <trkpt lat="37.370458" lon="-8.799812">
        <ele>96.225</ele>
        <time>2018-12-30T08:38:16Z</time>
      </trkpt>
      <trkpt lat="37.370421" lon="-8.799826">
        <ele>96.211</ele>
        <time>2018-12-30T08:38:31Z</time>
      </trkpt>
      <trkpt lat="37.370332" lon="-8.799851">
        <ele>96.238</ele>
        <time>2018-12-30T08:38:49Z</time>
      </trkpt>
      <trkpt lat="37.370099" lon="-8.799919">
        <ele>96.233</ele>
        <time>2018-12-30T08:39:15Z</time>
      </trkpt>
      <trkpt lat="37.370129" lon="-8.800000">
        <ele>95.754</ele>
        <time>2018-12-30T08:39:39Z</time>
      </trkpt>
      <trkpt lat="37.370192" lon="-8.799961">
        <ele>96.259</ele>
        <time>2018-12-30T08:40:01Z</time>
      </trkpt>
      <trkpt lat="37.370263" lon="-8.799975">
        <ele>96.703</ele>
        <time>2018-12-30T08:40:21Z</time>
      </trkpt>
      <trkpt lat="37.370303" lon="-8.799982">
        <ele>96.223</ele>
        <time>2018-12-30T08:40:35Z</time>
      </trkpt>
      <trkpt lat="37.370321" lon="-8.799961">
        <ele>96.208</ele>
        <time>2018-12-30T08:40:51Z</time>
      </trkpt>
      <trkpt lat="37.370306" lon="-8.799955">
        <ele>96.228</ele>
        <time>2018-12-30T08:41:00Z</time>
      </trkpt>
      <trkpt lat="37.370324" lon="-8.799955">
        <ele>95.766</ele>
        <time>2018-12-30T08:41:03Z</time>
      </trkpt>
      <trkpt lat="37.370342" lon="-8.799959">
        <ele>96.233</ele>
        <time>2018-12-30T08:41:05Z</time>
      </trkpt>
      <trkpt lat="37.370372" lon="-8.799952">
        <ele>95.378</ele>
        <time>2018-12-30T08:41:09Z</time>
      </trkpt>
      <trkpt lat="37.370428" lon="-8.799932">
        <ele>96.274</ele>
        <time>2018-12-30T08:41:15Z</time>
      </trkpt>
      <trkpt lat="37.370506" lon="-8.799916">
        <ele>95.781</ele>
        <time>2018-12-30T08:41:23Z</time>
      </trkpt>
      <trkpt lat="37.370551" lon="-8.799923">
        <ele>95.756</ele>
        <time>2018-12-30T08:41:27Z</time>
      </trkpt>
      <trkpt lat="37.370625" lon="-8.799921">
        <ele>96.297</ele>
        <time>2018-12-30T08:41:33Z</time>
      </trkpt>
      <trkpt lat="37.370715" lon="-8.799927">
        <ele>95.715</ele>
        <time>2018-12-30T08:41:39Z</time>
      </trkpt>
      <trkpt lat="37.370765" lon="-8.799937">
        <ele>95.765</ele>
        <time>2018-12-30T08:41:43Z</time>
      </trkpt>
      <trkpt lat="37.370887" lon="-8.799901">
        <ele>95.711</ele>
        <time>2018-12-30T08:41:53Z</time>
      </trkpt>
      <trkpt lat="37.370908" lon="-8.799889">
        <ele>96.208</ele>
        <time>2018-12-30T08:41:55Z</time>
      </trkpt>
      <trkpt lat="37.370946" lon="-8.799884">
        <ele>96.284</ele>
        <time>2018-12-30T08:41:59Z</time>
      </trkpt>
      <trkpt lat="37.371091" lon="-8.799859">
        <ele>95.362</ele>
        <time>2018-12-30T08:42:11Z</time>
      </trkpt>
      <trkpt lat="37.371106" lon="-8.799860">
        <ele>95.739</ele>
        <time>2018-12-30T08:42:12Z</time>
      </trkpt>
      <trkpt lat="37.371135" lon="-8.799852">
        <ele>95.394</ele>
        <time>2018-12-30T08:42:14Z</time>
      </trkpt>
      <trkpt lat="37.371220" lon="-8.799838">
        <ele>95.370</ele>
        <time>2018-12-30T08:42:21Z</time>
      </trkpt>
      <trkpt lat="37.371387" lon="-8.799825">
        <ele>95.777</ele>
        <time>2018-12-30T08:42:34Z</time>
      </trkpt>
      <trkpt lat="37.371546" lon="-8.799806">
        <ele>95.732</ele>
        <time>2018-12-30T08:42:46Z</time>
      </trkpt>
      <trkpt lat="37.371710" lon="-8.799782">
        <ele>95.733</ele>
        <time>2018-12-30T08:42:59Z</time>
      </trkpt>
      <trkpt lat="37.371903" lon="-8.799766">
        <ele>95.766</ele>
        <time>2018-12-30T08:43:14Z</time>
      </trkpt>
      <trkpt lat="37.372068" lon="-8.799720">
        <ele>95.329</ele>
        <time>2018-12-30T08:43:27Z</time>
      </trkpt>
      <trkpt lat="37.372264" lon="-8.799669">
        <ele>94.821</ele>
        <time>2018-12-30T08:43:42Z</time>
      </trkpt>
      <trkpt lat="37.372414" lon="-8.799648">
        <ele>94.808</ele>
        <time>2018-12-30T08:43:53Z</time>
      </trkpt>
      <trkpt lat="37.372584" lon="-8.799636">
        <ele>94.399</ele>
        <time>2018-12-30T08:44:06Z</time>
      </trkpt>
      <trkpt lat="37.372748" lon="-8.799560">
        <ele>94.387</ele>
        <time>2018-12-30T08:44:19Z</time>
      </trkpt>
      <trkpt lat="37.372802" lon="-8.799533">
        <ele>93.834</ele>
        <time>2018-12-30T08:44:24Z</time>
      </trkpt>
      <trkpt lat="37.373016" lon="-8.799540">
        <ele>93.389</ele>
        <time>2018-12-30T08:44:40Z</time>
      </trkpt>
      <trkpt lat="37.373172" lon="-8.799528">
        <ele>93.835</ele>
        <time>2018-12-30T08:44:52Z</time>
      </trkpt>
      <trkpt lat="37.373361" lon="-8.799486">
        <ele>94.342</ele>
        <time>2018-12-30T08:45:06Z</time>
      </trkpt>
      <trkpt lat="37.373562" lon="-8.799440">
        <ele>94.397</ele>
        <time>2018-12-30T08:45:20Z</time>
      </trkpt>
      <trkpt lat="37.373742" lon="-8.799393">
        <ele>93.888</ele>
        <time>2018-12-30T08:45:34Z</time>
      </trkpt>
      <trkpt lat="37.373904" lon="-8.799320">
        <ele>92.914</ele>
        <time>2018-12-30T08:45:48Z</time>
      </trkpt>
      <trkpt lat="37.373913" lon="-8.799311">
        <ele>92.954</ele>
        <time>2018-12-30T08:45:49Z</time>
      </trkpt>
      <trkpt lat="37.373980" lon="-8.799305">
        <ele>92.909</ele>
        <time>2018-12-30T08:45:55Z</time>
      </trkpt>
      <trkpt lat="37.374170" lon="-8.799267">
        <ele>92.908</ele>
        <time>2018-12-30T08:46:10Z</time>
      </trkpt>
      <trkpt lat="37.374365" lon="-8.799241">
        <ele>92.914</ele>
        <time>2018-12-30T08:46:24Z</time>
      </trkpt>
      <trkpt lat="37.374420" lon="-8.799235">
        <ele>93.812</ele>
        <time>2018-12-30T08:46:38Z</time>
      </trkpt>
      <trkpt lat="37.374435" lon="-8.799237">
        <ele>94.359</ele>
        <time>2018-12-30T08:46:51Z</time>
      </trkpt>
      <trkpt lat="37.374435" lon="-8.799237">
        <ele>94.364</ele>
        <time>2018-12-30T08:46:52Z</time>
      </trkpt>
      <trkpt lat="37.374461" lon="-8.799232">
        <ele>93.330</ele>
        <time>2018-12-30T08:46:55Z</time>
      </trkpt>
      <trkpt lat="37.374613" lon="-8.799201">
        <ele>93.827</ele>
        <time>2018-12-30T08:47:05Z</time>
      </trkpt>
      <trkpt lat="37.374826" lon="-8.799178">
        <ele>93.352</ele>
        <time>2018-12-30T08:47:21Z</time>
      </trkpt>
      <trkpt lat="37.374951" lon="-8.799173">
        <ele>93.853</ele>
        <time>2018-12-30T08:47:31Z</time>
      </trkpt>
      <trkpt lat="37.375084" lon="-8.799125">
        <ele>93.391</ele>
        <time>2018-12-30T08:47:43Z</time>
      </trkpt>
      <trkpt lat="37.375092" lon="-8.799128">
        <ele>93.381</ele>
        <time>2018-12-30T08:47:50Z</time>
      </trkpt>
      <trkpt lat="37.375255" lon="-8.799105">
        <ele>94.319</ele>
        <time>2018-12-30T08:48:03Z</time>
      </trkpt>
      <trkpt lat="37.375447" lon="-8.799093">
        <ele>93.808</ele>
        <time>2018-12-30T08:48:18Z</time>
      </trkpt>
      <trkpt lat="37.375500" lon="-8.799101">
        <ele>94.312</ele>
        <time>2018-12-30T08:48:26Z</time>
      </trkpt>
      <trkpt lat="37.375628" lon="-8.799077">
        <ele>93.350</ele>
        <time>2018-12-30T08:48:36Z</time>
      </trkpt>
      <trkpt lat="37.375803" lon="-8.798968">
        <ele>94.397</ele>
        <time>2018-12-30T08:48:50Z</time>
      </trkpt>
      <trkpt lat="37.375891" lon="-8.798887">
        <ele>90.912</ele>
        <time>2018-12-30T08:48:58Z</time>
      </trkpt>
      <trkpt lat="37.376081" lon="-8.798774">
        <ele>92.478</ele>
        <time>2018-12-30T08:49:13Z</time>
      </trkpt>
      <trkpt lat="37.376258" lon="-8.798662">
        <ele>93.875</ele>
        <time>2018-12-30T08:49:28Z</time>
      </trkpt>
      <trkpt lat="37.376441" lon="-8.798527">
        <ele>93.320</ele>
        <time>2018-12-30T08:49:44Z</time>
      </trkpt>
      <trkpt lat="37.376626" lon="-8.798363">
        <ele>93.321</ele>
        <time>2018-12-30T08:50:00Z</time>
      </trkpt>
      <trkpt lat="37.376824" lon="-8.798373">
        <ele>93.881</ele>
        <time>2018-12-30T08:50:16Z</time>
      </trkpt>
      <trkpt lat="37.376835" lon="-8.798375">
        <ele>93.861</ele>
        <time>2018-12-30T08:50:17Z</time>
      </trkpt>
      <trkpt lat="37.376872" lon="-8.798369">
        <ele>92.917</ele>
        <time>2018-12-30T08:50:21Z</time>
      </trkpt>
      <trkpt lat="37.376911" lon="-8.798383">
        <ele>93.808</ele>
        <time>2018-12-30T08:50:36Z</time>
      </trkpt>
      <trkpt lat="37.376937" lon="-8.798369">
        <ele>93.811</ele>
        <time>2018-12-30T08:50:49Z</time>
      </trkpt>
      <trkpt lat="37.376937" lon="-8.798369">
        <ele>94.379</ele>
        <time>2018-12-30T08:50:55Z</time>
      </trkpt>
      <trkpt lat="37.376952" lon="-8.798338">
        <ele>93.376</ele>
        <time>2018-12-30T08:50:58Z</time>
      </trkpt>
      <trkpt lat="37.377094" lon="-8.798152">
        <ele>93.361</ele>
        <time>2018-12-30T08:51:13Z</time>
      </trkpt>
      <trkpt lat="37.377208" lon="-8.798054">
        <ele>92.997</ele>
        <time>2018-12-30T08:51:22Z</time>
      </trkpt>
      <trkpt lat="37.377466" lon="-8.797902">
        <ele>93.374</ele>
        <time>2018-12-30T08:51:40Z</time>
      </trkpt>
      <trkpt lat="37.377651" lon="-8.797739">
        <ele>93.869</ele>
        <time>2018-12-30T08:51:57Z</time>
      </trkpt>
      <trkpt lat="37.377877" lon="-8.797555">
        <ele>93.360</ele>
        <time>2018-12-30T08:52:15Z</time>
      </trkpt>
      <trkpt lat="37.378050" lon="-8.797415">
        <ele>93.379</ele>
        <time>2018-12-30T08:52:30Z</time>
      </trkpt>
      <trkpt lat="37.378196" lon="-8.797205">
        <ele>92.905</ele>
        <time>2018-12-30T08:52:46Z</time>
      </trkpt>
      <trkpt lat="37.378226" lon="-8.797058">
        <ele>92.925</ele>
        <time>2018-12-30T08:52:55Z</time>
      </trkpt>
      <trkpt lat="37.378381" lon="-8.796805">
        <ele>93.308</ele>
        <time>2018-12-30T08:53:13Z</time>
      </trkpt>
      <trkpt lat="37.378510" lon="-8.796627">
        <ele>92.940</ele>
        <time>2018-12-30T08:53:27Z</time>
      </trkpt>
      <trkpt lat="37.378642" lon="-8.796430">
        <ele>92.928</ele>
        <time>2018-12-30T08:53:42Z</time>
      </trkpt>
      <trkpt lat="37.378676" lon="-8.796379">
        <ele>94.375</ele>
        <time>2018-12-30T08:53:46Z</time>
      </trkpt>
      <trkpt lat="37.378839" lon="-8.796226">
        <ele>94.880</ele>
        <time>2018-12-30T08:54:01Z</time>
      </trkpt>
      <trkpt lat="37.378988" lon="-8.796082">
        <ele>94.886</ele>
        <time>2018-12-30T08:54:15Z</time>
      </trkpt>
      <trkpt lat="37.379121" lon="-8.795936">
        <ele>95.343</ele>
        <time>2018-12-30T08:54:28Z</time>
      </trkpt>
      <trkpt lat="37.379275" lon="-8.795778">
        <ele>93.858</ele>
        <time>2018-12-30T08:54:43Z</time>
      </trkpt>
      <trkpt lat="37.379448" lon="-8.795638">
        <ele>94.899</ele>
        <time>2018-12-30T08:54:58Z</time>
      </trkpt>
      <trkpt lat="37.379620" lon="-8.795498">
        <ele>94.347</ele>
        <time>2018-12-30T08:55:13Z</time>
      </trkpt>
      <trkpt lat="37.379753" lon="-8.795287">
        <ele>94.829</ele>
        <time>2018-12-30T08:55:28Z</time>
      </trkpt>
      <trkpt lat="37.379763" lon="-8.795260">
        <ele>93.821</ele>
        <time>2018-12-30T08:55:30Z</time>
      </trkpt>
      <trkpt lat="37.379788" lon="-8.795200">
        <ele>94.308</ele>
        <time>2018-12-30T08:55:34Z</time>
      </trkpt>
      <trkpt lat="37.379825" lon="-8.795085">
        <ele>95.787</ele>
        <time>2018-12-30T08:55:41Z</time>
      </trkpt>
      <trkpt lat="37.379943" lon="-8.794860">
        <ele>95.375</ele>
        <time>2018-12-30T08:55:57Z</time>
      </trkpt>
      <trkpt lat="37.379966" lon="-8.794836">
        <ele>95.312</ele>
        <time>2018-12-30T08:55:59Z</time>
      </trkpt>
      <trkpt lat="37.379991" lon="-8.794801">
        <ele>95.327</ele>
        <time>2018-12-30T08:56:02Z</time>
      </trkpt>
      <trkpt lat="37.380029" lon="-8.794721">
        <ele>95.743</ele>
        <time>2018-12-30T08:56:08Z</time>
      </trkpt>
      <trkpt lat="37.380060" lon="-8.794636">
        <ele>94.850</ele>
        <time>2018-12-30T08:56:14Z</time>
      </trkpt>
      <trkpt lat="37.380084" lon="-8.794567">
        <ele>93.865</ele>
        <time>2018-12-30T08:56:18Z</time>
      </trkpt>
      <trkpt lat="37.380118" lon="-8.794508">
        <ele>93.856</ele>
        <time>2018-12-30T08:56:22Z</time>
      </trkpt>
      <trkpt lat="37.380182" lon="-8.794438">
        <ele>92.922</ele>
        <time>2018-12-30T08:56:28Z</time>
      </trkpt>
      <trkpt lat="37.380245" lon="-8.794376">
        <ele>92.462</ele>
        <time>2018-12-30T08:56:34Z</time>
      </trkpt>
      <trkpt lat="37.380389" lon="-8.794268">
        <ele>92.908</ele>
        <time>2018-12-30T08:56:46Z</time>
      </trkpt>
      <trkpt lat="37.380567" lon="-8.794189">
        <ele>93.808</ele>
        <time>2018-12-30T08:57:00Z</time>
      </trkpt>
      <trkpt lat="37.380592" lon="-8.794178">
        <ele>92.995</ele>
        <time>2018-12-30T08:57:02Z</time>
      </trkpt>
      <trkpt lat="37.380802" lon="-8.794119">
        <ele>92.493</ele>
        <time>2018-12-30T08:57:19Z</time>
      </trkpt>
      <trkpt lat="37.380813" lon="-8.794112">
        <ele>91.990</ele>
        <time>2018-12-30T08:57:20Z</time>
      </trkpt>
      <trkpt lat="37.380774" lon="-8.793981">
        <ele>91.475</ele>
        <time>2018-12-30T08:57:31Z</time>
      </trkpt>
      <trkpt lat="37.380674" lon="-8.793808">
        <ele>88.111</ele>
        <time>2018-12-30T08:57:44Z</time>
      </trkpt>
      <trkpt lat="37.380671" lon="-8.793796">
        <ele>88.198</ele>
        <time>2018-12-30T08:57:45Z</time>
      </trkpt>
      <trkpt lat="37.380670" lon="-8.793753">
        <ele>87.633</ele>
        <time>2018-12-30T08:57:48Z</time>
      </trkpt>
      <trkpt lat="37.380632" lon="-8.793615">
        <ele>87.144</ele>
        <time>2018-12-30T08:57:55Z</time>
      </trkpt>
      <trkpt lat="37.380590" lon="-8.793493">
        <ele>86.165</ele>
        <time>2018-12-30T08:58:03Z</time>
      </trkpt>
      <trkpt lat="37.380527" lon="-8.793249">
        <ele>85.268</ele>
        <time>2018-12-30T08:58:19Z</time>
      </trkpt>
      <trkpt lat="37.380497" lon="-8.793019">
        <ele>83.714</ele>
        <time>2018-12-30T08:58:34Z</time>
      </trkpt>
      <trkpt lat="37.380486" lon="-8.792769">
        <ele>82.308</ele>
        <time>2018-12-30T08:58:49Z</time>
      </trkpt>
      <trkpt lat="37.380488" lon="-8.792740">
        <ele>82.399</ele>
        <time>2018-12-30T08:58:51Z</time>
      </trkpt>
      <trkpt lat="37.380480" lon="-8.792625">
        <ele>81.837</ele>
        <time>2018-12-30T08:58:58Z</time>
      </trkpt>
      <trkpt lat="37.380484" lon="-8.792496">
        <ele>81.334</ele>
        <time>2018-12-30T08:59:06Z</time>
      </trkpt>
      <trkpt lat="37.380484" lon="-8.792431">
        <ele>80.889</ele>
        <time>2018-12-30T08:59:10Z</time>
      </trkpt>
      <trkpt lat="37.380483" lon="-8.792244">
        <ele>80.485</ele>
        <time>2018-12-30T08:59:21Z</time>
      </trkpt>
      <trkpt lat="37.380468" lon="-8.792135">
        <ele>79.982</ele>
        <time>2018-12-30T08:59:28Z</time>
      </trkpt>
      <trkpt lat="37.380390" lon="-8.791908">
        <ele>79.477</ele>
        <time>2018-12-30T08:59:43Z</time>
      </trkpt>
      <trkpt lat="37.380298" lon="-8.791714">
        <ele>79.498</ele>
        <time>2018-12-30T08:59:57Z</time>
      </trkpt>
      <trkpt lat="37.380278" lon="-8.791686">
        <ele>79.474</ele>
        <time>2018-12-30T08:59:59Z</time>
      </trkpt>
      <trkpt lat="37.380166" lon="-8.791508">
        <ele>78.956</ele>
        <time>2018-12-30T09:00:13Z</time>
      </trkpt>
      <trkpt lat="37.380113" lon="-8.791439">
        <ele>78.921</ele>
        <time>2018-12-30T09:00:18Z</time>
      </trkpt>
      <trkpt lat="37.379982" lon="-8.791243">
        <ele>78.908</ele>
        <time>2018-12-30T09:00:33Z</time>
      </trkpt>
      <trkpt lat="37.379950" lon="-8.791177">
        <ele>78.440</ele>
        <time>2018-12-30T09:00:38Z</time>
      </trkpt>
      <trkpt lat="37.379880" lon="-8.791070">
        <ele>78.948</ele>
        <time>2018-12-30T09:00:49Z</time>
      </trkpt>
      <trkpt lat="37.379724" lon="-8.790915">
        <ele>78.465</ele>
        <time>2018-12-30T09:01:04Z</time>
      </trkpt>
      <trkpt lat="37.379672" lon="-8.790909">
        <ele>78.450</ele>
        <time>2018-12-30T09:01:08Z</time>
      </trkpt>
      <trkpt lat="37.379522" lon="-8.790869">
        <ele>77.526</ele>
        <time>2018-12-30T09:01:21Z</time>
      </trkpt>
      <trkpt lat="37.379444" lon="-8.790852">
        <ele>77.513</ele>
        <time>2018-12-30T09:01:26Z</time>
      </trkpt>
      <trkpt lat="37.379224" lon="-8.790812">
        <ele>77.028</ele>
        <time>2018-12-30T09:01:41Z</time>
      </trkpt>
      <trkpt lat="37.379031" lon="-8.790721">
        <ele>76.549</ele>
        <time>2018-12-30T09:01:56Z</time>
      </trkpt>
      <trkpt lat="37.378859" lon="-8.790633">
        <ele>76.082</ele>
        <time>2018-12-30T09:02:10Z</time>
      </trkpt>
      <trkpt lat="37.378710" lon="-8.790531">
        <ele>76.043</ele>
        <time>2018-12-30T09:02:22Z</time>
      </trkpt>
      <trkpt lat="37.378539" lon="-8.790396">
        <ele>75.617</ele>
        <time>2018-12-30T09:02:37Z</time>
      </trkpt>
      <trkpt lat="37.378395" lon="-8.790270">
        <ele>76.008</ele>
        <time>2018-12-30T09:02:51Z</time>
      </trkpt>
      <trkpt lat="37.378280" lon="-8.790132">
        <ele>75.661</ele>
        <time>2018-12-30T09:03:03Z</time>
      </trkpt>
      <trkpt lat="37.378247" lon="-8.790020">
        <ele>75.639</ele>
        <time>2018-12-30T09:03:12Z</time>
      </trkpt>
      <trkpt lat="37.378371" lon="-8.789869">
        <ele>76.566</ele>
        <time>2018-12-30T09:03:27Z</time>
      </trkpt>
      <trkpt lat="37.378402" lon="-8.789837">
        <ele>76.061</ele>
        <time>2018-12-30T09:03:30Z</time>
      </trkpt>
      <trkpt lat="37.378457" lon="-8.789794">
        <ele>76.027</ele>
        <time>2018-12-30T09:03:35Z</time>
      </trkpt>
      <trkpt lat="37.378479" lon="-8.789754">
        <ele>77.054</ele>
        <time>2018-12-30T09:03:38Z</time>
      </trkpt>
      <trkpt lat="37.378568" lon="-8.789568">
        <ele>77.529</ele>
        <time>2018-12-30T09:03:51Z</time>
      </trkpt>
      <trkpt lat="37.378574" lon="-8.789551">
        <ele>77.060</ele>
        <time>2018-12-30T09:03:52Z</time>
      </trkpt>
      <trkpt lat="37.378632" lon="-8.789334">
        <ele>78.437</ele>
        <time>2018-12-30T09:04:06Z</time>
      </trkpt>
      <trkpt lat="37.378686" lon="-8.789172">
        <ele>78.049</ele>
        <time>2018-12-30T09:04:17Z</time>
      </trkpt>
      <trkpt lat="37.378743" lon="-8.789048">
        <ele>78.413</ele>
        <time>2018-12-30T09:04:26Z</time>
      </trkpt>
      <trkpt lat="37.378758" lon="-8.789005">
        <ele>78.408</ele>
        <time>2018-12-30T09:04:30Z</time>
      </trkpt>
      <trkpt lat="37.378811" lon="-8.788809">
        <ele>79.426</ele>
        <time>2018-12-30T09:04:44Z</time>
      </trkpt>
      <trkpt lat="37.378824" lon="-8.788751">
        <ele>79.434</ele>
        <time>2018-12-30T09:04:48Z</time>
      </trkpt>
      <trkpt lat="37.378818" lon="-8.788705">
        <ele>79.941</ele>
        <time>2018-12-30T09:04:51Z</time>
      </trkpt>
      <trkpt lat="37.378859" lon="-8.788449">
        <ele>79.936</ele>
        <time>2018-12-30T09:05:06Z</time>
      </trkpt>
      <trkpt lat="37.378870" lon="-8.788210">
        <ele>78.412</ele>
        <time>2018-12-30T09:05:21Z</time>
      </trkpt>
      <trkpt lat="37.378876" lon="-8.788123">
        <ele>79.999</ele>
        <time>2018-12-30T09:05:27Z</time>
      </trkpt>
      <trkpt lat="37.378881" lon="-8.788051">
        <ele>77.584</ele>
        <time>2018-12-30T09:05:31Z</time>
      </trkpt>
      <trkpt lat="37.378888" lon="-8.787972">
        <ele>78.985</ele>
        <time>2018-12-30T09:05:36Z</time>
      </trkpt>
      <trkpt lat="37.378883" lon="-8.787759">
        <ele>79.423</ele>
        <time>2018-12-30T09:05:49Z</time>
      </trkpt>
      <trkpt lat="37.378888" lon="-8.787558">
        <ele>80.483</ele>
        <time>2018-12-30T09:06:03Z</time>
      </trkpt>
      <trkpt lat="37.378911" lon="-8.787327">
        <ele>79.911</ele>
        <time>2018-12-30T09:06:19Z</time>
      </trkpt>
      <trkpt lat="37.378975" lon="-8.787136">
        <ele>81.308</ele>
        <time>2018-12-30T09:06:34Z</time>
      </trkpt>
      <trkpt lat="37.379024" lon="-8.786943">
        <ele>82.385</ele>
        <time>2018-12-30T09:06:48Z</time>
      </trkpt>
      <trkpt lat="37.379044" lon="-8.786699">
        <ele>82.353</ele>
        <time>2018-12-30T09:07:05Z</time>
      </trkpt>
      <trkpt lat="37.379056" lon="-8.786600">
        <ele>82.850</ele>
        <time>2018-12-30T09:07:12Z</time>
      </trkpt>
      <trkpt lat="37.379040" lon="-8.786545">
        <ele>82.385</ele>
        <time>2018-12-30T09:07:16Z</time>
      </trkpt>
      <trkpt lat="37.378979" lon="-8.786346">
        <ele>81.341</ele>
        <time>2018-12-30T09:07:31Z</time>
      </trkpt>
      <trkpt lat="37.378945" lon="-8.786276">
        <ele>80.848</ele>
        <time>2018-12-30T09:07:36Z</time>
      </trkpt>
      <trkpt lat="37.378865" lon="-8.786117">
        <ele>79.973</ele>
        <time>2018-12-30T09:07:49Z</time>
      </trkpt>
      <trkpt lat="37.378754" lon="-8.785938">
        <ele>81.344</ele>
        <time>2018-12-30T09:08:04Z</time>
      </trkpt>
      <trkpt lat="37.378670" lon="-8.785768">
        <ele>79.931</ele>
        <time>2018-12-30T09:08:17Z</time>
      </trkpt>
      <trkpt lat="37.378622" lon="-8.785661">
        <ele>80.461</ele>
        <time>2018-12-30T09:08:25Z</time>
      </trkpt>
      <trkpt lat="37.378604" lon="-8.785628">
        <ele>79.907</ele>
        <time>2018-12-30T09:08:28Z</time>
      </trkpt>
      <trkpt lat="37.378548" lon="-8.785431">
        <ele>79.408</ele>
        <time>2018-12-30T09:08:42Z</time>
      </trkpt>
      <trkpt lat="37.378534" lon="-8.785358">
        <ele>79.426</ele>
        <time>2018-12-30T09:08:47Z</time>
      </trkpt>
      <trkpt lat="37.378466" lon="-8.785182">
        <ele>79.424</ele>
        <time>2018-12-30T09:09:00Z</time>
      </trkpt>
      <trkpt lat="37.378381" lon="-8.785030">
        <ele>79.921</ele>
        <time>2018-12-30T09:09:12Z</time>
      </trkpt>
      <trkpt lat="37.378360" lon="-8.784963">
        <ele>79.926</ele>
        <time>2018-12-30T09:09:17Z</time>
      </trkpt>
      <trkpt lat="37.378288" lon="-8.784779">
        <ele>80.862</ele>
        <time>2018-12-30T09:09:31Z</time>
      </trkpt>
      <trkpt lat="37.378284" lon="-8.784767">
        <ele>80.879</ele>
        <time>2018-12-30T09:09:32Z</time>
      </trkpt>
      <trkpt lat="37.378245" lon="-8.784612">
        <ele>81.364</ele>
        <time>2018-12-30T09:09:43Z</time>
      </trkpt>
      <trkpt lat="37.378198" lon="-8.784461">
        <ele>81.885</ele>
        <time>2018-12-30T09:09:54Z</time>
      </trkpt>
      <trkpt lat="37.378190" lon="-8.784449">
        <ele>81.859</ele>
        <time>2018-12-30T09:09:55Z</time>
      </trkpt>
      <trkpt lat="37.378176" lon="-8.784403">
        <ele>81.303</ele>
        <time>2018-12-30T09:09:58Z</time>
      </trkpt>
      <trkpt lat="37.378148" lon="-8.784256">
        <ele>81.823</ele>
        <time>2018-12-30T09:10:08Z</time>
      </trkpt>
      <trkpt lat="37.378101" lon="-8.784173">
        <ele>82.308</ele>
        <time>2018-12-30T09:10:14Z</time>
      </trkpt>
      <trkpt lat="37.378052" lon="-8.784058">
        <ele>82.858</ele>
        <time>2018-12-30T09:10:22Z</time>
      </trkpt>
      <trkpt lat="37.377993" lon="-8.783900">
        <ele>82.886</ele>
        <time>2018-12-30T09:10:34Z</time>
      </trkpt>
      <trkpt lat="37.377927" lon="-8.783848">
        <ele>84.253</ele>
        <time>2018-12-30T09:10:47Z</time>
      </trkpt>
      <trkpt lat="37.377928" lon="-8.783816">
        <ele>83.748</ele>
        <time>2018-12-30T09:10:57Z</time>
      </trkpt>
      <trkpt lat="37.377860" lon="-8.783711">
        <ele>84.244</ele>
        <time>2018-12-30T09:11:07Z</time>
      </trkpt>
      <trkpt lat="37.377844" lon="-8.783703">
        <ele>84.261</ele>
        <time>2018-12-30T09:11:09Z</time>
      </trkpt>
      <trkpt lat="37.377665" lon="-8.783694">
        <ele>84.776</ele>
        <time>2018-12-30T09:11:22Z</time>
      </trkpt>
      <trkpt lat="37.377506" lon="-8.783729">
        <ele>83.747</ele>
        <time>2018-12-30T09:11:35Z</time>
      </trkpt>
      <trkpt lat="37.377337" lon="-8.783833">
        <ele>83.261</ele>
        <time>2018-12-30T09:11:50Z</time>
      </trkpt>
      <trkpt lat="37.377179" lon="-8.783857">
        <ele>82.821</ele>
        <time>2018-12-30T09:12:04Z</time>
      </trkpt>
      <trkpt lat="37.377146" lon="-8.783825">
        <ele>82.313</ele>
        <time>2018-12-30T09:12:08Z</time>
      </trkpt>
      <trkpt lat="37.377123" lon="-8.783727">
        <ele>82.308</ele>
        <time>2018-12-30T09:12:17Z</time>
      </trkpt>
      <trkpt lat="37.377081" lon="-8.783614">
        <ele>82.359</ele>
        <time>2018-12-30T09:12:24Z</time>
      </trkpt>
      <trkpt lat="37.377057" lon="-8.783590">
        <ele>82.387</ele>
        <time>2018-12-30T09:12:26Z</time>
      </trkpt>
      <trkpt lat="37.377007" lon="-8.783509">
        <ele>82.364</ele>
        <time>2018-12-30T09:12:32Z</time>
      </trkpt>
      <trkpt lat="37.376990" lon="-8.783431">
        <ele>81.869</ele>
        <time>2018-12-30T09:12:38Z</time>
      </trkpt>
      <trkpt lat="37.376979" lon="-8.783391">
        <ele>81.875</ele>
        <time>2018-12-30T09:12:41Z</time>
      </trkpt>
      <trkpt lat="37.376929" lon="-8.783257">
        <ele>82.812</ele>
        <time>2018-12-30T09:12:50Z</time>
      </trkpt>
      <trkpt lat="37.376852" lon="-8.783109">
        <ele>82.327</ele>
        <time>2018-12-30T09:13:01Z</time>
      </trkpt>
      <trkpt lat="37.376824" lon="-8.783032">
        <ele>82.368</ele>
        <time>2018-12-30T09:13:06Z</time>
      </trkpt>
      <trkpt lat="37.376771" lon="-8.782856">
        <ele>82.323</ele>
        <time>2018-12-30T09:13:17Z</time>
      </trkpt>
      <trkpt lat="37.376704" lon="-8.782688">
        <ele>81.883</ele>
        <time>2018-12-30T09:13:28Z</time>
      </trkpt>
      <trkpt lat="37.376632" lon="-8.782507">
        <ele>82.811</ele>
        <time>2018-12-30T09:13:40Z</time>
      </trkpt>
      <trkpt lat="37.376569" lon="-8.782314">
        <ele>83.208</ele>
        <time>2018-12-30T09:13:53Z</time>
      </trkpt>
      <trkpt lat="37.376551" lon="-8.782267">
        <ele>83.245</ele>
        <time>2018-12-30T09:13:56Z</time>
      </trkpt>
      <trkpt lat="37.376462" lon="-8.782074">
        <ele>83.213</ele>
        <time>2018-12-30T09:14:11Z</time>
      </trkpt>
      <trkpt lat="37.376381" lon="-8.781861">
        <ele>83.290</ele>
        <time>2018-12-30T09:14:26Z</time>
      </trkpt>
      <trkpt lat="37.376326" lon="-8.781685">
        <ele>84.245</ele>
        <time>2018-12-30T09:14:39Z</time>
      </trkpt>
      <trkpt lat="37.376324" lon="-8.781670">
        <ele>84.271</ele>
        <time>2018-12-30T09:14:40Z</time>
      </trkpt>
      <trkpt lat="37.376313" lon="-8.781623">
        <ele>83.218</ele>
        <time>2018-12-30T09:14:43Z</time>
      </trkpt>
      <trkpt lat="37.376271" lon="-8.781450">
        <ele>83.213</ele>
        <time>2018-12-30T09:14:55Z</time>
      </trkpt>
      <trkpt lat="37.376208" lon="-8.781281">
        <ele>84.254</ele>
        <time>2018-12-30T09:15:06Z</time>
      </trkpt>
      <trkpt lat="37.376206" lon="-8.781252">
        <ele>84.296</ele>
        <time>2018-12-30T09:15:08Z</time>
      </trkpt>
      <trkpt lat="37.376103" lon="-8.781028">
        <ele>84.731</ele>
        <time>2018-12-30T09:15:24Z</time>
      </trkpt>
      <trkpt lat="37.376059" lon="-8.780923">
        <ele>84.224</ele>
        <time>2018-12-30T09:15:31Z</time>
      </trkpt>
      <trkpt lat="37.376037" lon="-8.780880">
        <ele>84.708</ele>
        <time>2018-12-30T09:15:34Z</time>
      </trkpt>
      <trkpt lat="37.376013" lon="-8.780791">
        <ele>84.782</ele>
        <time>2018-12-30T09:15:42Z</time>
      </trkpt>
      <trkpt lat="37.375931" lon="-8.780572">
        <ele>85.690</ele>
        <time>2018-12-30T09:15:58Z</time>
      </trkpt>
      <trkpt lat="37.375852" lon="-8.780354">
        <ele>85.247</ele>
        <time>2018-12-30T09:16:12Z</time>
      </trkpt>
      <trkpt lat="37.375845" lon="-8.780138">
        <ele>84.782</ele>
        <time>2018-12-30T09:16:25Z</time>
      </trkpt>
      <trkpt lat="37.375909" lon="-8.779937">
        <ele>85.658</ele>
        <time>2018-12-30T09:16:39Z</time>
      </trkpt>
      <trkpt lat="37.375979" lon="-8.779737">
        <ele>85.615</ele>
        <time>2018-12-30T09:16:52Z</time>
      </trkpt>
      <trkpt lat="37.376051" lon="-8.779572">
        <ele>87.180</ele>
        <time>2018-12-30T09:17:04Z</time>
      </trkpt>
      <trkpt lat="37.376120" lon="-8.779417">
        <ele>88.511</ele>
        <time>2018-12-30T09:17:15Z</time>
      </trkpt>
      <trkpt lat="37.376153" lon="-8.779393">
        <ele>89.068</ele>
        <time>2018-12-30T09:17:18Z</time>
      </trkpt>
      <trkpt lat="37.376224" lon="-8.779416">
        <ele>89.042</ele>
        <time>2018-12-30T09:17:24Z</time>
      </trkpt>
      <trkpt lat="37.376376" lon="-8.779485">
        <ele>89.526</ele>
        <time>2018-12-30T09:17:37Z</time>
      </trkpt>
      <trkpt lat="37.376471" lon="-8.779526">
        <ele>89.508</ele>
        <time>2018-12-30T09:17:45Z</time>
      </trkpt>
      <trkpt lat="37.376595" lon="-8.779572">
        <ele>89.529</ele>
        <time>2018-12-30T09:17:58Z</time>
      </trkpt>
      <trkpt lat="37.376590" lon="-8.779571">
        <ele>88.557</ele>
        <time>2018-12-30T09:18:11Z</time>
      </trkpt>
      <trkpt lat="37.376590" lon="-8.779571">
        <ele>89.084</ele>
        <time>2018-12-30T09:18:14Z</time>
      </trkpt>
      <trkpt lat="37.376668" lon="-8.779552">
        <ele>90.049</ele>
        <time>2018-12-30T09:18:20Z</time>
      </trkpt>
      <trkpt lat="37.376693" lon="-8.779525">
        <ele>90.545</ele>
        <time>2018-12-30T09:18:23Z</time>
      </trkpt>
      <trkpt lat="37.376756" lon="-8.779326">
        <ele>90.542</ele>
        <time>2018-12-30T09:18:36Z</time>
      </trkpt>
      <trkpt lat="37.376816" lon="-8.779121">
        <ele>89.527</ele>
        <time>2018-12-30T09:18:49Z</time>
      </trkpt>
      <trkpt lat="37.376826" lon="-8.779098">
        <ele>87.658</ele>
        <time>2018-12-30T09:18:51Z</time>
      </trkpt>
      <trkpt lat="37.376841" lon="-8.779040">
        <ele>89.047</ele>
        <time>2018-12-30T09:18:55Z</time>
      </trkpt>
      <trkpt lat="37.376898" lon="-8.778899">
        <ele>88.129</ele>
        <time>2018-12-30T09:19:05Z</time>
      </trkpt>
      <trkpt lat="37.376949" lon="-8.778719">
        <ele>86.621</ele>
        <time>2018-12-30T09:19:17Z</time>
      </trkpt>
      <trkpt lat="37.376981" lon="-8.778620">
        <ele>87.108</ele>
        <time>2018-12-30T09:19:23Z</time>
      </trkpt>
      <trkpt lat="37.376995" lon="-8.778561">
        <ele>86.627</ele>
        <time>2018-12-30T09:19:27Z</time>
      </trkpt>
      <trkpt lat="37.377079" lon="-8.778254">
        <ele>86.695</ele>
        <time>2018-12-30T09:19:45Z</time>
      </trkpt>
      <trkpt lat="37.377162" lon="-8.778033">
        <ele>87.162</ele>
        <time>2018-12-30T09:20:00Z</time>
      </trkpt>
      <trkpt lat="37.377245" lon="-8.777833">
        <ele>87.637</ele>
        <time>2018-12-30T09:20:13Z</time>
      </trkpt>
      <trkpt lat="37.377329" lon="-8.777670">
        <ele>89.023</ele>
        <time>2018-12-30T09:20:25Z</time>
      </trkpt>
      <trkpt lat="37.377412" lon="-8.777474">
        <ele>89.570</ele>
        <time>2018-12-30T09:20:39Z</time>
      </trkpt>
      <trkpt lat="37.377465" lon="-8.777260">
        <ele>90.025</ele>
        <time>2018-12-30T09:20:52Z</time>
      </trkpt>
      <trkpt lat="37.377501" lon="-8.777051">
        <ele>89.576</ele>
        <time>2018-12-30T09:21:05Z</time>
      </trkpt>
      <trkpt lat="37.377569" lon="-8.776807">
        <ele>88.559</ele>
        <time>2018-12-30T09:21:20Z</time>
      </trkpt>
      <trkpt lat="37.377636" lon="-8.776646">
        <ele>89.003</ele>
        <time>2018-12-30T09:21:31Z</time>
      </trkpt>
      <trkpt lat="37.377707" lon="-8.776482">
        <ele>86.623</ele>
        <time>2018-12-30T09:21:42Z</time>
      </trkpt>
      <trkpt lat="37.377734" lon="-8.776424">
        <ele>86.608</ele>
        <time>2018-12-30T09:21:46Z</time>
      </trkpt>
      <trkpt lat="37.377747" lon="-8.776379">
        <ele>85.268</ele>
        <time>2018-12-30T09:21:49Z</time>
      </trkpt>
      <trkpt lat="37.377804" lon="-8.776174">
        <ele>82.396</ele>
        <time>2018-12-30T09:22:01Z</time>
      </trkpt>
      <trkpt lat="37.377826" lon="-8.776104">
        <ele>82.343</ele>
        <time>2018-12-30T09:22:06Z</time>
      </trkpt>
      <trkpt lat="37.377853" lon="-8.776003">
        <ele>82.338</ele>
        <time>2018-12-30T09:22:12Z</time>
      </trkpt>
      <trkpt lat="37.377863" lon="-8.775966">
        <ele>81.314</ele>
        <time>2018-12-30T09:22:14Z</time>
      </trkpt>
      <trkpt lat="37.377919" lon="-8.775839">
        <ele>81.311</ele>
        <time>2018-12-30T09:22:22Z</time>
      </trkpt>
      <trkpt lat="37.377961" lon="-8.775729">
        <ele>80.886</ele>
        <time>2018-12-30T09:22:29Z</time>
      </trkpt>
      <trkpt lat="37.378010" lon="-8.775627">
        <ele>81.387</ele>
        <time>2018-12-30T09:22:36Z</time>
      </trkpt>
      <trkpt lat="37.378023" lon="-8.775599">
        <ele>81.397</ele>
        <time>2018-12-30T09:22:38Z</time>
      </trkpt>
      <trkpt lat="37.378041" lon="-8.775540">
        <ele>81.323</ele>
        <time>2018-12-30T09:22:42Z</time>
      </trkpt>
      <trkpt lat="37.378170" lon="-8.775422">
        <ele>81.825</ele>
        <time>2018-12-30T09:22:54Z</time>
      </trkpt>
      <trkpt lat="37.378211" lon="-8.775420">
        <ele>81.808</ele>
        <time>2018-12-30T09:22:57Z</time>
      </trkpt>
      <trkpt lat="37.378358" lon="-8.775429">
        <ele>82.822</ele>
        <time>2018-12-30T09:23:10Z</time>
      </trkpt>
      <trkpt lat="37.378424" lon="-8.775418">
        <ele>83.780</ele>
        <time>2018-12-30T09:23:16Z</time>
      </trkpt>
      <trkpt lat="37.378482" lon="-8.775409">
        <ele>84.757</ele>
        <time>2018-12-30T09:23:20Z</time>
      </trkpt>
      <trkpt lat="37.378500" lon="-8.775398">
        <ele>85.212</ele>
        <time>2018-12-30T09:23:22Z</time>
      </trkpt>
      <trkpt lat="37.378597" lon="-8.775316">
        <ele>87.168</ele>
        <time>2018-12-30T09:23:34Z</time>
      </trkpt>
      <trkpt lat="37.378690" lon="-8.775181">
        <ele>87.665</ele>
        <time>2018-12-30T09:23:46Z</time>
      </trkpt>
      <trkpt lat="37.378737" lon="-8.775099">
        <ele>88.160</ele>
        <time>2018-12-30T09:23:52Z</time>
      </trkpt>
      <trkpt lat="37.378774" lon="-8.775052">
        <ele>88.151</ele>
        <time>2018-12-30T09:23:56Z</time>
      </trkpt>
      <trkpt lat="37.378796" lon="-8.775014">
        <ele>89.054</ele>
        <time>2018-12-30T09:23:59Z</time>
      </trkpt>
      <trkpt lat="37.378885" lon="-8.774946">
        <ele>90.056</ele>
        <time>2018-12-30T09:24:07Z</time>
      </trkpt>
      <trkpt lat="37.378949" lon="-8.774930">
        <ele>90.011</ele>
        <time>2018-12-30T09:24:12Z</time>
      </trkpt>
      <trkpt lat="37.378997" lon="-8.774911">
        <ele>90.508</ele>
        <time>2018-12-30T09:24:16Z</time>
      </trkpt>
      <trkpt lat="37.379074" lon="-8.774901">
        <ele>90.948</ele>
        <time>2018-12-30T09:24:22Z</time>
      </trkpt>
      <trkpt lat="37.379122" lon="-8.774896">
        <ele>91.426</ele>
        <time>2018-12-30T09:24:26Z</time>
      </trkpt>
      <trkpt lat="37.379157" lon="-8.774891">
        <ele>91.933</ele>
        <time>2018-12-30T09:24:29Z</time>
      </trkpt>
      <trkpt lat="37.379232" lon="-8.774845">
        <ele>91.988</ele>
        <time>2018-12-30T09:24:35Z</time>
      </trkpt>
      <trkpt lat="37.379268" lon="-8.774819">
        <ele>92.474</ele>
        <time>2018-12-30T09:24:38Z</time>
      </trkpt>
      <trkpt lat="37.379325" lon="-8.774759">
        <ele>92.411</ele>
        <time>2018-12-30T09:24:44Z</time>
      </trkpt>
      <trkpt lat="37.379428" lon="-8.774667">
        <ele>92.446</ele>
        <time>2018-12-30T09:24:54Z</time>
      </trkpt>
      <trkpt lat="37.379459" lon="-8.774640">
        <ele>92.917</ele>
        <time>2018-12-30T09:24:57Z</time>
      </trkpt>
      <trkpt lat="37.379547" lon="-8.774523">
        <ele>93.377</ele>
        <time>2018-12-30T09:25:07Z</time>
      </trkpt>
      <trkpt lat="37.379616" lon="-8.774465">
        <ele>93.361</ele>
        <time>2018-12-30T09:25:13Z</time>
      </trkpt>
      <trkpt lat="37.379638" lon="-8.774450">
        <ele>93.327</ele>
        <time>2018-12-30T09:25:15Z</time>
      </trkpt>
      <trkpt lat="37.379772" lon="-8.774321">
        <ele>93.808</ele>
        <time>2018-12-30T09:25:28Z</time>
      </trkpt>
      <trkpt lat="37.379803" lon="-8.774291">
        <ele>93.850</ele>
        <time>2018-12-30T09:25:31Z</time>
      </trkpt>
      <trkpt lat="37.379831" lon="-8.774272">
        <ele>94.398</ele>
        <time>2018-12-30T09:25:34Z</time>
      </trkpt>
      <trkpt lat="37.379908" lon="-8.774223">
        <ele>94.335</ele>
        <time>2018-12-30T09:25:42Z</time>
      </trkpt>
      <trkpt lat="37.379957" lon="-8.774235">
        <ele>95.330</ele>
        <time>2018-12-30T09:25:55Z</time>
      </trkpt>
      <trkpt lat="37.379957" lon="-8.774235">
        <ele>94.856</ele>
        <time>2018-12-30T09:26:21Z</time>
      </trkpt>
      <trkpt lat="37.379955" lon="-8.774234">
        <ele>94.393</ele>
        <time>2018-12-30T09:26:39Z</time>
      </trkpt>
      <trkpt lat="37.379955" lon="-8.774234">
        <ele>94.318</ele>
        <time>2018-12-30T09:27:00Z</time>
      </trkpt>
      <trkpt lat="37.379962" lon="-8.774223">
        <ele>93.859</ele>
        <time>2018-12-30T09:27:16Z</time>
      </trkpt>
      <trkpt lat="37.379980" lon="-8.774191">
        <ele>93.333</ele>
        <time>2018-12-30T09:27:18Z</time>
      </trkpt>
      <trkpt lat="37.380069" lon="-8.774124">
        <ele>94.323</ele>
        <time>2018-12-30T09:27:26Z</time>
      </trkpt>
      <trkpt lat="37.380168" lon="-8.774078">
        <ele>94.315</ele>
        <time>2018-12-30T09:27:33Z</time>
      </trkpt>
      <trkpt lat="37.380330" lon="-8.773984">
        <ele>95.308</ele>
        <time>2018-12-30T09:27:47Z</time>
      </trkpt>
      <trkpt lat="37.380363" lon="-8.773973">
        <ele>94.886</ele>
        <time>2018-12-30T09:27:49Z</time>
      </trkpt>
      <trkpt lat="37.380420" lon="-8.773976">
        <ele>95.354</ele>
        <time>2018-12-30T09:27:55Z</time>
      </trkpt>
      <trkpt lat="37.380583" lon="-8.773911">
        <ele>96.261</ele>
        <time>2018-12-30T09:28:07Z</time>
      </trkpt>
      <trkpt lat="37.380795" lon="-8.773882">
        <ele>95.386</ele>
        <time>2018-12-30T09:28:22Z</time>
      </trkpt>
      <trkpt lat="37.380904" lon="-8.773880">
        <ele>95.322</ele>
        <time>2018-12-30T09:28:30Z</time>
      </trkpt>
      <trkpt lat="37.380998" lon="-8.773866">
        <ele>95.789</ele>
        <time>2018-12-30T09:28:37Z</time>
      </trkpt>
      <trkpt lat="37.381120" lon="-8.773853">
        <ele>95.374</ele>
        <time>2018-12-30T09:28:46Z</time>
      </trkpt>
      <trkpt lat="37.381185" lon="-8.773835">
        <ele>95.785</ele>
        <time>2018-12-30T09:28:51Z</time>
      </trkpt>
      <trkpt lat="37.381352" lon="-8.773805">
        <ele>95.768</ele>
        <time>2018-12-30T09:29:03Z</time>
      </trkpt>
      <trkpt lat="37.381553" lon="-8.773720">
        <ele>96.242</ele>
        <time>2018-12-30T09:29:18Z</time>
      </trkpt>
      <trkpt lat="37.381568" lon="-8.773715">
        <ele>96.226</ele>
        <time>2018-12-30T09:29:19Z</time>
      </trkpt>
      <trkpt lat="37.381688" lon="-8.773643">
        <ele>96.708</ele>
        <time>2018-12-30T09:29:29Z</time>
      </trkpt>
      <trkpt lat="37.381752" lon="-8.773608">
        <ele>96.749</ele>
        <time>2018-12-30T09:29:34Z</time>
      </trkpt>
      <trkpt lat="37.381832" lon="-8.773534">
        <ele>96.717</ele>
        <time>2018-12-30T09:29:41Z</time>
      </trkpt>
      <trkpt lat="37.381888" lon="-8.773492">
        <ele>96.724</ele>
        <time>2018-12-30T09:29:46Z</time>
      </trkpt>
      <trkpt lat="37.382007" lon="-8.773313">
        <ele>97.739</ele>
        <time>2018-12-30T09:29:59Z</time>
      </trkpt>
      <trkpt lat="37.382061" lon="-8.773209">
        <ele>97.255</ele>
        <time>2018-12-30T09:30:06Z</time>
      </trkpt>
      <trkpt lat="37.382106" lon="-8.773144">
        <ele>97.712</ele>
        <time>2018-12-30T09:30:11Z</time>
      </trkpt>
      <trkpt lat="37.382250" lon="-8.772979">
        <ele>98.657</ele>
        <time>2018-12-30T09:30:25Z</time>
      </trkpt>
      <trkpt lat="37.382414" lon="-8.772840">
        <ele>99.688</ele>
        <time>2018-12-30T09:30:39Z</time>
      </trkpt>
      <trkpt lat="37.382465" lon="-8.772782">
        <ele>99.635</ele>
        <time>2018-12-30T09:30:44Z</time>
      </trkpt>
      <trkpt lat="37.382593" lon="-8.772703">
        <ele>100.186</ele>
        <time>2018-12-30T09:30:54Z</time>
      </trkpt>
      <trkpt lat="37.382747" lon="-8.772624">
        <ele>100.114</ele>
        <time>2018-12-30T09:31:07Z</time>
      </trkpt>
      <trkpt lat="37.382920" lon="-8.772551">
        <ele>101.008</ele>
        <time>2018-12-30T09:31:20Z</time>
      </trkpt>
      <trkpt lat="37.383084" lon="-8.772493">
        <ele>102.526</ele>
        <time>2018-12-30T09:31:32Z</time>
      </trkpt>
      <trkpt lat="37.383227" lon="-8.772413">
        <ele>103.034</ele>
        <time>2018-12-30T09:31:44Z</time>
      </trkpt>
      <trkpt lat="37.383329" lon="-8.772369">
        <ele>103.471</ele>
        <time>2018-12-30T09:31:52Z</time>
      </trkpt>
      <trkpt lat="37.383400" lon="-8.772357">
        <ele>103.426</ele>
        <time>2018-12-30T09:31:57Z</time>
      </trkpt>
      <trkpt lat="37.383519" lon="-8.772310">
        <ele>103.492</ele>
        <time>2018-12-30T09:32:06Z</time>
      </trkpt>
      <trkpt lat="37.383618" lon="-8.772304">
        <ele>103.999</ele>
        <time>2018-12-30T09:32:13Z</time>
      </trkpt>
      <trkpt lat="37.383783" lon="-8.772335">
        <ele>104.954</ele>
        <time>2018-12-30T09:32:25Z</time>
      </trkpt>
      <trkpt lat="37.383933" lon="-8.772320">
        <ele>105.465</ele>
        <time>2018-12-30T09:32:36Z</time>
      </trkpt>
      <trkpt lat="37.384010" lon="-8.772310">
        <ele>106.378</ele>
        <time>2018-12-30T09:32:42Z</time>
      </trkpt>
      <trkpt lat="37.384049" lon="-8.772316">
        <ele>106.333</ele>
        <time>2018-12-30T09:32:46Z</time>
      </trkpt>
      <trkpt lat="37.384073" lon="-8.772319">
        <ele>106.826</ele>
        <time>2018-12-30T09:32:48Z</time>
      </trkpt>
      <trkpt lat="37.384240" lon="-8.772331">
        <ele>105.408</ele>
        <time>2018-12-30T09:33:02Z</time>
      </trkpt>
      <trkpt lat="37.384354" lon="-8.772335">
        <ele>104.420</ele>
        <time>2018-12-30T09:33:12Z</time>
      </trkpt>
      <trkpt lat="37.384497" lon="-8.772363">
        <ele>104.428</ele>
        <time>2018-12-30T09:33:20Z</time>
      </trkpt>
      <trkpt lat="37.384535" lon="-8.772397">
        <ele>104.465</ele>
        <time>2018-12-30T09:33:23Z</time>
      </trkpt>
      <trkpt lat="37.384751" lon="-8.772394">
        <ele>104.410</ele>
        <time>2018-12-30T09:33:37Z</time>
      </trkpt>
      <trkpt lat="37.384915" lon="-8.772373">
        <ele>104.946</ele>
        <time>2018-12-30T09:33:49Z</time>
      </trkpt>
      <trkpt lat="37.384997" lon="-8.772368">
        <ele>104.953</ele>
        <time>2018-12-30T09:33:55Z</time>
      </trkpt>
      <trkpt lat="37.385063" lon="-8.772341">
        <ele>104.468</ele>
        <time>2018-12-30T09:34:00Z</time>
      </trkpt>
      <trkpt lat="37.385179" lon="-8.772342">
        <ele>105.499</ele>
        <time>2018-12-30T09:34:09Z</time>
      </trkpt>
      <trkpt lat="37.385361" lon="-8.772303">
        <ele>105.899</ele>
        <time>2018-12-30T09:34:22Z</time>
      </trkpt>
      <trkpt lat="37.385520" lon="-8.772256">
        <ele>106.307</ele>
        <time>2018-12-30T09:34:34Z</time>
      </trkpt>
      <trkpt lat="37.385677" lon="-8.772223">
        <ele>106.827</ele>
        <time>2018-12-30T09:34:46Z</time>
      </trkpt>
      <trkpt lat="37.385734" lon="-8.772225">
        <ele>106.808</ele>
        <time>2018-12-30T09:34:50Z</time>
      </trkpt>
      <trkpt lat="37.385779" lon="-8.772201">
        <ele>107.352</ele>
        <time>2018-12-30T09:34:54Z</time>
      </trkpt>
      <trkpt lat="37.385832" lon="-8.772184">
        <ele>107.330</ele>
        <time>2018-12-30T09:34:58Z</time>
      </trkpt>
      <trkpt lat="37.385888" lon="-8.772169">
        <ele>107.347</ele>
        <time>2018-12-30T09:35:02Z</time>
      </trkpt>
      <trkpt lat="37.385965" lon="-8.772008">
        <ele>108.782</ele>
        <time>2018-12-30T09:35:14Z</time>
      </trkpt>
      <trkpt lat="37.385956" lon="-8.771888">
        <ele>108.798</ele>
        <time>2018-12-30T09:35:22Z</time>
      </trkpt>
      <trkpt lat="37.385936" lon="-8.771729">
        <ele>108.795</ele>
        <time>2018-12-30T09:35:32Z</time>
      </trkpt>
      <trkpt lat="37.385929" lon="-8.771694">
        <ele>108.770</ele>
        <time>2018-12-30T09:35:34Z</time>
      </trkpt>
      <trkpt lat="37.385919" lon="-8.771666">
        <ele>109.231</ele>
        <time>2018-12-30T09:35:36Z</time>
      </trkpt>
      <trkpt lat="37.385913" lon="-8.771574">
        <ele>109.259</ele>
        <time>2018-12-30T09:35:42Z</time>
      </trkpt>
      <trkpt lat="37.385905" lon="-8.771499">
        <ele>108.703</ele>
        <time>2018-12-30T09:35:46Z</time>
      </trkpt>
      <trkpt lat="37.385897" lon="-8.771391">
        <ele>108.723</ele>
        <time>2018-12-30T09:35:52Z</time>
      </trkpt>
      <trkpt lat="37.385899" lon="-8.771337">
        <ele>108.708</ele>
        <time>2018-12-30T09:35:55Z</time>
      </trkpt>
      <trkpt lat="37.385908" lon="-8.771240">
        <ele>108.218</ele>
        <time>2018-12-30T09:35:59Z</time>
      </trkpt>
      <trkpt lat="37.385899" lon="-8.771128">
        <ele>109.226</ele>
        <time>2018-12-30T09:36:06Z</time>
      </trkpt>
      <trkpt lat="37.385899" lon="-8.771022">
        <ele>108.713</ele>
        <time>2018-12-30T09:36:13Z</time>
      </trkpt>
      <trkpt lat="37.385916" lon="-8.770908">
        <ele>109.738</ele>
        <time>2018-12-30T09:36:20Z</time>
      </trkpt>
      <trkpt lat="37.385913" lon="-8.770850">
        <ele>109.224</ele>
        <time>2018-12-30T09:36:24Z</time>
      </trkpt>
      <trkpt lat="37.385927" lon="-8.770748">
        <ele>109.741</ele>
        <time>2018-12-30T09:36:30Z</time>
      </trkpt>
      <trkpt lat="37.385909" lon="-8.770459">
        <ele>110.666</ele>
        <time>2018-12-30T09:36:47Z</time>
      </trkpt>
      <trkpt lat="37.385877" lon="-8.770355">
        <ele>110.677</ele>
        <time>2018-12-30T09:36:53Z</time>
      </trkpt>
      <trkpt lat="37.385827" lon="-8.770202">
        <ele>110.639</ele>
        <time>2018-12-30T09:37:02Z</time>
      </trkpt>
      <trkpt lat="37.385797" lon="-8.770082">
        <ele>110.601</ele>
        <time>2018-12-30T09:37:10Z</time>
      </trkpt>
      <trkpt lat="37.385715" lon="-8.769892">
        <ele>110.621</ele>
        <time>2018-12-30T09:37:23Z</time>
      </trkpt>
      <trkpt lat="37.385625" lon="-8.769665">
        <ele>111.608</ele>
        <time>2018-12-30T09:37:39Z</time>
      </trkpt>
      <trkpt lat="37.385606" lon="-8.769623">
        <ele>111.146</ele>
        <time>2018-12-30T09:37:42Z</time>
      </trkpt>
      <trkpt lat="37.385537" lon="-8.769408">
        <ele>110.614</ele>
        <time>2018-12-30T09:37:56Z</time>
      </trkpt>
      <trkpt lat="37.385481" lon="-8.769233">
        <ele>110.691</ele>
        <time>2018-12-30T09:38:08Z</time>
      </trkpt>
      <trkpt lat="37.385424" lon="-8.769050">
        <ele>110.696</ele>
        <time>2018-12-30T09:38:20Z</time>
      </trkpt>
      <trkpt lat="37.385454" lon="-8.768889">
        <ele>111.182</ele>
        <time>2018-12-30T09:38:30Z</time>
      </trkpt>
      <trkpt lat="37.385514" lon="-8.768702">
        <ele>111.179</ele>
        <time>2018-12-30T09:38:42Z</time>
      </trkpt>
      <trkpt lat="37.385518" lon="-8.768654">
        <ele>111.664</ele>
        <time>2018-12-30T09:38:45Z</time>
      </trkpt>
      <trkpt lat="37.385529" lon="-8.768612">
        <ele>111.615</ele>
        <time>2018-12-30T09:38:48Z</time>
      </trkpt>
      <trkpt lat="37.385545" lon="-8.768530">
        <ele>112.182</ele>
        <time>2018-12-30T09:38:53Z</time>
      </trkpt>
      <trkpt lat="37.385618" lon="-8.768342">
        <ele>112.643</ele>
        <time>2018-12-30T09:39:05Z</time>
      </trkpt>
      <trkpt lat="37.385660" lon="-8.768291">
        <ele>112.617</ele>
        <time>2018-12-30T09:39:10Z</time>
      </trkpt>
      <trkpt lat="37.385687" lon="-8.768234">
        <ele>113.508</ele>
        <time>2018-12-30T09:39:14Z</time>
      </trkpt>
      <trkpt lat="37.385762" lon="-8.768141">
        <ele>113.581</ele>
        <time>2018-12-30T09:39:22Z</time>
      </trkpt>
      <trkpt lat="37.385861" lon="-8.767913">
        <ele>114.559</ele>
        <time>2018-12-30T09:39:37Z</time>
      </trkpt>
      <trkpt lat="37.385880" lon="-8.767854">
        <ele>114.546</ele>
        <time>2018-12-30T09:39:41Z</time>
      </trkpt>
      <trkpt lat="37.385902" lon="-8.767730">
        <ele>114.531</ele>
        <time>2018-12-30T09:39:48Z</time>
      </trkpt>
      <trkpt lat="37.385975" lon="-8.767486">
        <ele>115.097</ele>
        <time>2018-12-30T09:40:03Z</time>
      </trkpt>
      <trkpt lat="37.386019" lon="-8.767356">
        <ele>115.034</ele>
        <time>2018-12-30T09:40:11Z</time>
      </trkpt>
      <trkpt lat="37.386037" lon="-8.767295">
        <ele>115.029</ele>
        <time>2018-12-30T09:40:15Z</time>
      </trkpt>
      <trkpt lat="37.386091" lon="-8.767026">
        <ele>116.420</ele>
        <time>2018-12-30T09:40:31Z</time>
      </trkpt>
      <trkpt lat="37.386138" lon="-8.766860">
        <ele>116.967</ele>
        <time>2018-12-30T09:40:41Z</time>
      </trkpt>
      <trkpt lat="37.386156" lon="-8.766764">
        <ele>116.481</ele>
        <time>2018-12-30T09:40:47Z</time>
      </trkpt>
      <trkpt lat="37.386273" lon="-8.766619">
        <ele>116.419</ele>
        <time>2018-12-30T09:40:59Z</time>
      </trkpt>
      <trkpt lat="37.386403" lon="-8.766500">
        <ele>115.908</ele>
        <time>2018-12-30T09:41:10Z</time>
      </trkpt>
      <trkpt lat="37.386572" lon="-8.766372">
        <ele>117.439</ele>
        <time>2018-12-30T09:41:24Z</time>
      </trkpt>
      <trkpt lat="37.386669" lon="-8.766213">
        <ele>117.497</ele>
        <time>2018-12-30T09:41:35Z</time>
      </trkpt>
      <trkpt lat="37.386735" lon="-8.766077">
        <ele>118.874</ele>
        <time>2018-12-30T09:41:44Z</time>
      </trkpt>
      <trkpt lat="37.386805" lon="-8.765978">
        <ele>119.399</ele>
        <time>2018-12-30T09:41:51Z</time>
      </trkpt>
      <trkpt lat="37.386839" lon="-8.765904">
        <ele>119.395</ele>
        <time>2018-12-30T09:41:56Z</time>
      </trkpt>
      <trkpt lat="37.386905" lon="-8.765773">
        <ele>117.952</ele>
        <time>2018-12-30T09:42:05Z</time>
      </trkpt>
      <trkpt lat="37.387002" lon="-8.765613">
        <ele>119.397</ele>
        <time>2018-12-30T09:42:16Z</time>
      </trkpt>
      <trkpt lat="37.387072" lon="-8.765433">
        <ele>119.328</ele>
        <time>2018-12-30T09:42:27Z</time>
      </trkpt>
      <trkpt lat="37.387090" lon="-8.765409">
        <ele>119.874</ele>
        <time>2018-12-30T09:42:29Z</time>
      </trkpt>
      <trkpt lat="37.387176" lon="-8.765222">
        <ele>120.756</ele>
        <time>2018-12-30T09:42:42Z</time>
      </trkpt>
      <trkpt lat="37.387215" lon="-8.765094">
        <ele>120.721</ele>
        <time>2018-12-30T09:42:49Z</time>
      </trkpt>
      <trkpt lat="37.387273" lon="-8.764939">
        <ele>120.308</ele>
        <time>2018-12-30T09:42:59Z</time>
      </trkpt>
      <trkpt lat="37.387342" lon="-8.764825">
        <ele>121.740</ele>
        <time>2018-12-30T09:43:07Z</time>
      </trkpt>
      <trkpt lat="37.387410" lon="-8.764593">
        <ele>122.748</ele>
        <time>2018-12-30T09:43:21Z</time>
      </trkpt>
      <trkpt lat="37.387444" lon="-8.764503">
        <ele>122.235</ele>
        <time>2018-12-30T09:43:27Z</time>
      </trkpt>
      <trkpt lat="37.387462" lon="-8.764475">
        <ele>122.730</ele>
        <time>2018-12-30T09:43:29Z</time>
      </trkpt>
      <trkpt lat="37.387499" lon="-8.764370">
        <ele>122.746</ele>
        <time>2018-12-30T09:43:35Z</time>
      </trkpt>
      <trkpt lat="37.387580" lon="-8.764219">
        <ele>122.763</ele>
        <time>2018-12-30T09:43:45Z</time>
      </trkpt>
      <trkpt lat="37.387624" lon="-8.764171">
        <ele>123.118</ele>
        <time>2018-12-30T09:43:50Z</time>
      </trkpt>
      <trkpt lat="37.387651" lon="-8.764127">
        <ele>122.719</ele>
        <time>2018-12-30T09:43:53Z</time>
      </trkpt>
      <trkpt lat="37.387678" lon="-8.764109">
        <ele>122.796</ele>
        <time>2018-12-30T09:43:55Z</time>
      </trkpt>
      <trkpt lat="37.387707" lon="-8.764078">
        <ele>122.231</ele>
        <time>2018-12-30T09:43:58Z</time>
      </trkpt>
      <trkpt lat="37.387833" lon="-8.763951">
        <ele>122.224</ele>
        <time>2018-12-30T09:44:09Z</time>
      </trkpt>
      <trkpt lat="37.387869" lon="-8.763876">
        <ele>122.708</ele>
        <time>2018-12-30T09:44:14Z</time>
      </trkpt>
      <trkpt lat="37.387934" lon="-8.763732">
        <ele>120.722</ele>
        <time>2018-12-30T09:44:23Z</time>
      </trkpt>
      <trkpt lat="37.387966" lon="-8.763669">
        <ele>119.850</ele>
        <time>2018-12-30T09:44:27Z</time>
      </trkpt>
      <trkpt lat="37.388016" lon="-8.763604">
        <ele>119.897</ele>
        <time>2018-12-30T09:44:32Z</time>
      </trkpt>
      <trkpt lat="37.388041" lon="-8.763582">
        <ele>118.842</ele>
        <time>2018-12-30T09:44:34Z</time>
      </trkpt>
      <trkpt lat="37.388090" lon="-8.763566">
        <ele>118.838</ele>
        <time>2018-12-30T09:44:38Z</time>
      </trkpt>
      <trkpt lat="37.388132" lon="-8.763548">
        <ele>119.355</ele>
        <time>2018-12-30T09:44:41Z</time>
      </trkpt>
      <trkpt lat="37.388196" lon="-8.763531">
        <ele>119.320</ele>
        <time>2018-12-30T09:44:46Z</time>
      </trkpt>
      <trkpt lat="37.388236" lon="-8.763506">
        <ele>119.841</ele>
        <time>2018-12-30T09:44:49Z</time>
      </trkpt>
      <trkpt lat="37.388283" lon="-8.763473">
        <ele>118.882</ele>
        <time>2018-12-30T09:44:53Z</time>
      </trkpt>
      <trkpt lat="37.388423" lon="-8.763390">
        <ele>119.843</ele>
        <time>2018-12-30T09:45:04Z</time>
      </trkpt>
      <trkpt lat="37.388505" lon="-8.763338">
        <ele>119.817</ele>
        <time>2018-12-30T09:45:11Z</time>
      </trkpt>
      <trkpt lat="37.388528" lon="-8.763328">
        <ele>119.808</ele>
        <time>2018-12-30T09:45:13Z</time>
      </trkpt>
      <trkpt lat="37.388587" lon="-8.763294">
        <ele>120.341</ele>
        <time>2018-12-30T09:45:18Z</time>
      </trkpt>
      <trkpt lat="37.388729" lon="-8.763195">
        <ele>120.759</ele>
        <time>2018-12-30T09:45:30Z</time>
      </trkpt>
      <trkpt lat="37.388778" lon="-8.763166">
        <ele>120.726</ele>
        <time>2018-12-30T09:45:34Z</time>
      </trkpt>
      <trkpt lat="37.388874" lon="-8.763104">
        <ele>120.741</ele>
        <time>2018-12-30T09:45:43Z</time>
      </trkpt>
      <trkpt lat="37.388932" lon="-8.763063">
        <ele>121.237</ele>
        <time>2018-12-30T09:45:48Z</time>
      </trkpt>
      <trkpt lat="37.389021" lon="-8.763024">
        <ele>122.744</ele>
        <time>2018-12-30T09:45:55Z</time>
      </trkpt>
      <trkpt lat="37.389097" lon="-8.762970">
        <ele>123.119</ele>
        <time>2018-12-30T09:46:01Z</time>
      </trkpt>
      <trkpt lat="37.389135" lon="-8.762942">
        <ele>123.640</ele>
        <time>2018-12-30T09:46:04Z</time>
      </trkpt>
      <trkpt lat="37.389197" lon="-8.762915">
        <ele>124.161</ele>
        <time>2018-12-30T09:46:08Z</time>
      </trkpt>
      <trkpt lat="37.389299" lon="-8.762820">
        <ele>124.121</ele>
        <time>2018-12-30T09:46:18Z</time>
      </trkpt>
      <trkpt lat="37.389372" lon="-8.762744">
        <ele>124.613</ele>
        <time>2018-12-30T09:46:24Z</time>
      </trkpt>
      <trkpt lat="37.389421" lon="-8.762670">
        <ele>125.108</ele>
        <time>2018-12-30T09:46:31Z</time>
      </trkpt>
      <trkpt lat="37.389436" lon="-8.762653">
        <ele>125.589</ele>
        <time>2018-12-30T09:46:33Z</time>
      </trkpt>
      <trkpt lat="37.389453" lon="-8.762631">
        <ele>125.147</ele>
        <time>2018-12-30T09:46:35Z</time>
      </trkpt>
      <trkpt lat="37.389531" lon="-8.762563">
        <ele>126.594</ele>
        <time>2018-12-30T09:46:42Z</time>
      </trkpt>
      <trkpt lat="37.389552" lon="-8.762548">
        <ele>127.049</ele>
        <time>2018-12-30T09:46:44Z</time>
      </trkpt>
      <trkpt lat="37.389673" lon="-8.762439">
        <ele>127.095</ele>
        <time>2018-12-30T09:46:55Z</time>
      </trkpt>
      <trkpt lat="37.389698" lon="-8.762416">
        <ele>127.552</ele>
        <time>2018-12-30T09:46:57Z</time>
      </trkpt>
      <trkpt lat="37.389793" lon="-8.762249">
        <ele>127.597</ele>
        <time>2018-12-30T09:47:08Z</time>
      </trkpt>
      <trkpt lat="37.389832" lon="-8.762171">
        <ele>127.538</ele>
        <time>2018-12-30T09:47:13Z</time>
      </trkpt>
      <trkpt lat="37.389853" lon="-8.762103">
        <ele>127.518</ele>
        <time>2018-12-30T09:47:17Z</time>
      </trkpt>
      <trkpt lat="37.389891" lon="-8.762022">
        <ele>127.098</ele>
        <time>2018-12-30T09:47:23Z</time>
      </trkpt>
      <trkpt lat="37.389941" lon="-8.761940">
        <ele>127.517</ele>
        <time>2018-12-30T09:47:29Z</time>
      </trkpt>
      <trkpt lat="37.389998" lon="-8.761830">
        <ele>127.908</ele>
        <time>2018-12-30T09:47:37Z</time>
      </trkpt>
      <trkpt lat="37.390067" lon="-8.761645">
        <ele>127.564</ele>
        <time>2018-12-30T09:47:49Z</time>
      </trkpt>
      <trkpt lat="37.389991" lon="-8.761442">
        <ele>127.572</ele>
        <time>2018-12-30T09:48:02Z</time>
      </trkpt>
      <trkpt lat="37.389974" lon="-8.761397">
        <ele>127.589</ele>
        <time>2018-12-30T09:48:06Z</time>
      </trkpt>
      <trkpt lat="37.389965" lon="-8.761360">
        <ele>127.534</ele>
        <time>2018-12-30T09:48:09Z</time>
      </trkpt>
      <trkpt lat="37.389929" lon="-8.761283">
        <ele>127.530</ele>
        <time>2018-12-30T09:48:17Z</time>
      </trkpt>
      <trkpt lat="37.389833" lon="-8.761053">
        <ele>126.557</ele>
        <time>2018-12-30T09:48:30Z</time>
      </trkpt>
      <trkpt lat="37.389810" lon="-8.761002">
        <ele>127.012</ele>
        <time>2018-12-30T09:48:34Z</time>
      </trkpt>
      <trkpt lat="37.389799" lon="-8.760941">
        <ele>127.053</ele>
        <time>2018-12-30T09:48:37Z</time>
      </trkpt>
      <trkpt lat="37.389790" lon="-8.760912">
        <ele>127.031</ele>
        <time>2018-12-30T09:48:39Z</time>
      </trkpt>
      <trkpt lat="37.389772" lon="-8.760695">
        <ele>126.561</ele>
        <time>2018-12-30T09:48:51Z</time>
      </trkpt>
      <trkpt lat="37.389778" lon="-8.760633">
        <ele>126.507</ele>
        <time>2018-12-30T09:48:55Z</time>
      </trkpt>
      <trkpt lat="37.389773" lon="-8.760406">
        <ele>126.508</ele>
        <time>2018-12-30T09:49:08Z</time>
      </trkpt>
      <trkpt lat="37.389769" lon="-8.760375">
        <ele>126.586</ele>
        <time>2018-12-30T09:49:10Z</time>
      </trkpt>
      <trkpt lat="37.389773" lon="-8.760358">
        <ele>126.524</ele>
        <time>2018-12-30T09:49:11Z</time>
      </trkpt>
      <trkpt lat="37.389747" lon="-8.760152">
        <ele>126.021</ele>
        <time>2018-12-30T09:49:22Z</time>
      </trkpt>
      <trkpt lat="37.389748" lon="-8.760098">
        <ele>126.066</ele>
        <time>2018-12-30T09:49:25Z</time>
      </trkpt>
      <trkpt lat="37.389743" lon="-8.760022">
        <ele>126.012</ele>
        <time>2018-12-30T09:49:30Z</time>
      </trkpt>
      <trkpt lat="37.389709" lon="-8.759781">
        <ele>125.149</ele>
        <time>2018-12-30T09:49:44Z</time>
      </trkpt>
      <trkpt lat="37.389710" lon="-8.759671">
        <ele>125.574</ele>
        <time>2018-12-30T09:49:51Z</time>
      </trkpt>
      <trkpt lat="37.389731" lon="-8.759622">
        <ele>126.035</ele>
        <time>2018-12-30T09:49:54Z</time>
      </trkpt>
      <trkpt lat="37.389772" lon="-8.759598">
        <ele>126.567</ele>
        <time>2018-12-30T09:49:58Z</time>
      </trkpt>
      <trkpt lat="37.389929" lon="-8.759695">
        <ele>127.081</ele>
        <time>2018-12-30T09:50:14Z</time>
      </trkpt>
      <trkpt lat="37.389986" lon="-8.759724">
        <ele>126.519</ele>
        <time>2018-12-30T09:50:19Z</time>
      </trkpt>
      <trkpt lat="37.390012" lon="-8.759728">
        <ele>126.508</ele>
        <time>2018-12-30T09:50:21Z</time>
      </trkpt>
      <trkpt lat="37.390067" lon="-8.759751">
        <ele>126.529</ele>
        <time>2018-12-30T09:50:26Z</time>
      </trkpt>
      <trkpt lat="37.390230" lon="-8.759778">
        <ele>127.027</ele>
        <time>2018-12-30T09:50:38Z</time>
      </trkpt>
      <trkpt lat="37.390327" lon="-8.759817">
        <ele>127.014</ele>
        <time>2018-12-30T09:50:46Z</time>
      </trkpt>
      <trkpt lat="37.390434" lon="-8.759847">
        <ele>127.539</ele>
        <time>2018-12-30T09:50:54Z</time>
      </trkpt>
      <trkpt lat="37.390479" lon="-8.759859">
        <ele>127.095</ele>
        <time>2018-12-30T09:50:57Z</time>
      </trkpt>
      <trkpt lat="37.390558" lon="-8.759881">
        <ele>127.072</ele>
        <time>2018-12-30T09:51:04Z</time>
      </trkpt>
      <trkpt lat="37.390583" lon="-8.759889">
        <ele>127.057</ele>
        <time>2018-12-30T09:51:06Z</time>
      </trkpt>
      <trkpt lat="37.390756" lon="-8.759911">
        <ele>127.028</ele>
        <time>2018-12-30T09:51:18Z</time>
      </trkpt>
      <trkpt lat="37.390812" lon="-8.759932">
        <ele>127.054</ele>
        <time>2018-12-30T09:51:22Z</time>
      </trkpt>
      <trkpt lat="37.390893" lon="-8.759975">
        <ele>127.056</ele>
        <time>2018-12-30T09:51:29Z</time>
      </trkpt>
      <trkpt lat="37.391003" lon="-8.760016">
        <ele>127.511</ele>
        <time>2018-12-30T09:51:38Z</time>
      </trkpt>
      <trkpt lat="37.391059" lon="-8.760034">
        <ele>127.908</ele>
        <time>2018-12-30T09:51:42Z</time>
      </trkpt>
      <trkpt lat="37.391080" lon="-8.760029">
        <ele>127.528</ele>
        <time>2018-12-30T09:51:44Z</time>
      </trkpt>
      <trkpt lat="37.391111" lon="-8.760040">
        <ele>127.566</ele>
        <time>2018-12-30T09:51:47Z</time>
      </trkpt>
      <trkpt lat="37.391177" lon="-8.760067">
        <ele>127.523</ele>
        <time>2018-12-30T09:51:52Z</time>
      </trkpt>
      <trkpt lat="37.391249" lon="-8.760105">
        <ele>127.558</ele>
        <time>2018-12-30T09:51:57Z</time>
      </trkpt>
      <trkpt lat="37.391313" lon="-8.760124">
        <ele>127.934</ele>
        <time>2018-12-30T09:52:02Z</time>
      </trkpt>
      <trkpt lat="37.391384" lon="-8.760166">
        <ele>127.511</ele>
        <time>2018-12-30T09:52:08Z</time>
      </trkpt>
      <trkpt lat="37.391507" lon="-8.760189">
        <ele>127.976</ele>
        <time>2018-12-30T09:52:17Z</time>
      </trkpt>
      <trkpt lat="37.391558" lon="-8.760200">
        <ele>127.917</ele>
        <time>2018-12-30T09:52:21Z</time>
      </trkpt>
      <trkpt lat="37.391722" lon="-8.760221">
        <ele>128.421</ele>
        <time>2018-12-30T09:52:32Z</time>
      </trkpt>
      <trkpt lat="37.391891" lon="-8.760273">
        <ele>128.941</ele>
        <time>2018-12-30T09:52:45Z</time>
      </trkpt>
      <trkpt lat="37.392040" lon="-8.760301">
        <ele>129.405</ele>
        <time>2018-12-30T09:52:57Z</time>
      </trkpt>
      <trkpt lat="37.392096" lon="-8.760334">
        <ele>129.408</ele>
        <time>2018-12-30T09:53:02Z</time>
      </trkpt>
      <trkpt lat="37.392181" lon="-8.760345">
        <ele>129.445</ele>
        <time>2018-12-30T09:53:08Z</time>
      </trkpt>
      <trkpt lat="37.392351" lon="-8.760426">
        <ele>129.453</ele>
        <time>2018-12-30T09:53:22Z</time>
      </trkpt>
      <trkpt lat="37.392448" lon="-8.760452">
        <ele>129.930</ele>
        <time>2018-12-30T09:53:31Z</time>
      </trkpt>
      <trkpt lat="37.392586" lon="-8.760470">
        <ele>129.985</ele>
        <time>2018-12-30T09:53:42Z</time>
      </trkpt>
      <trkpt lat="37.392632" lon="-8.760498">
        <ele>129.941</ele>
        <time>2018-12-30T09:53:46Z</time>
      </trkpt>
      <trkpt lat="37.392828" lon="-8.760549">
        <ele>129.428</ele>
        <time>2018-12-30T09:54:01Z</time>
      </trkpt>
      <trkpt lat="37.392889" lon="-8.760578">
        <ele>130.483</ele>
        <time>2018-12-30T09:54:06Z</time>
      </trkpt>
      <trkpt lat="37.393047" lon="-8.760668">
        <ele>129.944</ele>
        <time>2018-12-30T09:54:20Z</time>
      </trkpt>
      <trkpt lat="37.393192" lon="-8.760774">
        <ele>129.953</ele>
        <time>2018-12-30T09:54:33Z</time>
      </trkpt>
      <trkpt lat="37.393368" lon="-8.760884">
        <ele>129.904</ele>
        <time>2018-12-30T09:54:47Z</time>
      </trkpt>
      <trkpt lat="37.393525" lon="-8.760992">
        <ele>129.414</ele>
        <time>2018-12-30T09:54:59Z</time>
      </trkpt>
      <trkpt lat="37.393686" lon="-8.761118">
        <ele>130.408</ele>
        <time>2018-12-30T09:55:13Z</time>
      </trkpt>
      <trkpt lat="37.393819" lon="-8.761246">
        <ele>130.468</ele>
        <time>2018-12-30T09:55:25Z</time>
      </trkpt>
      <trkpt lat="37.394004" lon="-8.761385">
        <ele>130.426</ele>
        <time>2018-12-30T09:55:41Z</time>
      </trkpt>
      <trkpt lat="37.394174" lon="-8.761507">
        <ele>130.413</ele>
        <time>2018-12-30T09:55:55Z</time>
      </trkpt>
      <trkpt lat="37.394199" lon="-8.761522">
        <ele>130.878</ele>
        <time>2018-12-30T09:55:57Z</time>
      </trkpt>
      <trkpt lat="37.394365" lon="-8.761636">
        <ele>130.424</ele>
        <time>2018-12-30T09:56:11Z</time>
      </trkpt>
      <trkpt lat="37.394375" lon="-8.761645">
        <ele>130.831</ele>
        <time>2018-12-30T09:56:12Z</time>
      </trkpt>
      <trkpt lat="37.394492" lon="-8.761723">
        <ele>130.886</ele>
        <time>2018-12-30T09:56:22Z</time>
      </trkpt>
      <trkpt lat="37.394661" lon="-8.761854">
        <ele>130.857</ele>
        <time>2018-12-30T09:56:37Z</time>
      </trkpt>
      <trkpt lat="37.394793" lon="-8.761999">
        <ele>132.366</ele>
        <time>2018-12-30T09:56:50Z</time>
      </trkpt>
      <trkpt lat="37.394929" lon="-8.762088">
        <ele>130.829</ele>
        <time>2018-12-30T09:57:01Z</time>
      </trkpt>
      <trkpt lat="37.394944" lon="-8.762090">
        <ele>130.421</ele>
        <time>2018-12-30T09:57:02Z</time>
      </trkpt>
      <trkpt lat="37.394989" lon="-8.762119">
        <ele>130.808</ele>
        <time>2018-12-30T09:57:06Z</time>
      </trkpt>
      <trkpt lat="37.395094" lon="-8.762138">
        <ele>130.819</ele>
        <time>2018-12-30T09:57:14Z</time>
      </trkpt>
      <trkpt lat="37.395199" lon="-8.762127">
        <ele>131.387</ele>
        <time>2018-12-30T09:57:22Z</time>
      </trkpt>
      <trkpt lat="37.395309" lon="-8.762127">
        <ele>131.344</ele>
        <time>2018-12-30T09:57:31Z</time>
      </trkpt>
      <trkpt lat="37.395417" lon="-8.762137">
        <ele>131.399</ele>
        <time>2018-12-30T09:57:39Z</time>
      </trkpt>
      <trkpt lat="37.395472" lon="-8.762163">
        <ele>131.315</ele>
        <time>2018-12-30T09:57:44Z</time>
      </trkpt>
      <trkpt lat="37.395632" lon="-8.762164">
        <ele>131.342</ele>
        <time>2018-12-30T09:57:56Z</time>
      </trkpt>
      <trkpt lat="37.395677" lon="-8.762179">
        <ele>131.327</ele>
        <time>2018-12-30T09:58:01Z</time>
      </trkpt>
      <trkpt lat="37.395755" lon="-8.762207">
        <ele>131.378</ele>
        <time>2018-12-30T09:58:07Z</time>
      </trkpt>
      <trkpt lat="37.395810" lon="-8.762219">
        <ele>131.816</ele>
        <time>2018-12-30T09:58:11Z</time>
      </trkpt>
      <trkpt lat="37.395951" lon="-8.762221">
        <ele>131.876</ele>
        <time>2018-12-30T09:58:20Z</time>
      </trkpt>
      <trkpt lat="37.396087" lon="-8.762253">
        <ele>131.813</ele>
        <time>2018-12-30T09:58:30Z</time>
      </trkpt>
      <trkpt lat="37.396127" lon="-8.762254">
        <ele>131.808</ele>
        <time>2018-12-30T09:58:33Z</time>
      </trkpt>
      <trkpt lat="37.396220" lon="-8.762276">
        <ele>131.874</ele>
        <time>2018-12-30T09:58:39Z</time>
      </trkpt>
      <trkpt lat="37.396364" lon="-8.762334">
        <ele>132.822</ele>
        <time>2018-12-30T09:58:50Z</time>
      </trkpt>
      <trkpt lat="37.396493" lon="-8.762375">
        <ele>133.239</ele>
        <time>2018-12-30T09:59:01Z</time>
      </trkpt>
      <trkpt lat="37.396522" lon="-8.762388">
        <ele>132.864</ele>
        <time>2018-12-30T09:59:03Z</time>
      </trkpt>
      <trkpt lat="37.396657" lon="-8.762414">
        <ele>132.830</ele>
        <time>2018-12-30T09:59:13Z</time>
      </trkpt>
      <trkpt lat="37.396738" lon="-8.762415">
        <ele>133.297</ele>
        <time>2018-12-30T09:59:20Z</time>
      </trkpt>
      <trkpt lat="37.396884" lon="-8.762458">
        <ele>134.782</ele>
        <time>2018-12-30T09:59:30Z</time>
      </trkpt>
      <trkpt lat="37.396984" lon="-8.762485">
        <ele>134.263</ele>
        <time>2018-12-30T09:59:38Z</time>
      </trkpt>
      <trkpt lat="37.397098" lon="-8.762495">
        <ele>135.267</ele>
        <time>2018-12-30T09:59:46Z</time>
      </trkpt>
      <trkpt lat="37.397136" lon="-8.762475">
        <ele>135.281</ele>
        <time>2018-12-30T09:59:49Z</time>
      </trkpt>
      <trkpt lat="37.397198" lon="-8.762466">
        <ele>135.219</ele>
        <time>2018-12-30T09:59:53Z</time>
      </trkpt>
      <trkpt lat="37.397276" lon="-8.762455">
        <ele>135.608</ele>
        <time>2018-12-30T09:59:59Z</time>
      </trkpt>
      <trkpt lat="37.397309" lon="-8.762449">
        <ele>135.679</ele>
        <time>2018-12-30T10:00:02Z</time>
      </trkpt>
      <trkpt lat="37.397440" lon="-8.762410">
        <ele>136.127</ele>
        <time>2018-12-30T10:00:13Z</time>
      </trkpt>
      <trkpt lat="37.397536" lon="-8.762329">
        <ele>136.184</ele>
        <time>2018-12-30T10:00:21Z</time>
      </trkpt>
      <trkpt lat="37.397622" lon="-8.762295">
        <ele>136.199</ele>
        <time>2018-12-30T10:00:28Z</time>
      </trkpt>
      <trkpt lat="37.397698" lon="-8.762271">
        <ele>136.185</ele>
        <time>2018-12-30T10:00:34Z</time>
      </trkpt>
      <trkpt lat="37.397767" lon="-8.762270">
        <ele>136.122</ele>
        <time>2018-12-30T10:00:39Z</time>
      </trkpt>
      <trkpt lat="37.397949" lon="-8.762196">
        <ele>136.177</ele>
        <time>2018-12-30T10:00:53Z</time>
      </trkpt>
      <trkpt lat="37.398029" lon="-8.762144">
        <ele>136.128</ele>
        <time>2018-12-30T10:00:59Z</time>
      </trkpt>
      <trkpt lat="37.398095" lon="-8.762105">
        <ele>135.674</ele>
        <time>2018-12-30T10:01:05Z</time>
      </trkpt>
      <trkpt lat="37.398164" lon="-8.762102">
        <ele>135.656</ele>
        <time>2018-12-30T10:01:10Z</time>
      </trkpt>
      <trkpt lat="37.398234" lon="-8.762061">
        <ele>135.621</ele>
        <time>2018-12-30T10:01:15Z</time>
      </trkpt>
      <trkpt lat="37.398271" lon="-8.762064">
        <ele>135.208</ele>
        <time>2018-12-30T10:01:18Z</time>
      </trkpt>
      <trkpt lat="37.398466" lon="-8.761979">
        <ele>134.790</ele>
        <time>2018-12-30T10:01:33Z</time>
      </trkpt>
      <trkpt lat="37.398593" lon="-8.761919">
        <ele>133.718</ele>
        <time>2018-12-30T10:01:44Z</time>
      </trkpt>
      <trkpt lat="37.398700" lon="-8.761866">
        <ele>133.795</ele>
        <time>2018-12-30T10:01:55Z</time>
      </trkpt>
      <trkpt lat="37.398774" lon="-8.761831">
        <ele>133.280</ele>
        <time>2018-12-30T10:02:02Z</time>
      </trkpt>
      <trkpt lat="37.398858" lon="-8.761794">
        <ele>133.226</ele>
        <time>2018-12-30T10:02:09Z</time>
      </trkpt>
      <trkpt lat="37.398948" lon="-8.761751">
        <ele>133.283</ele>
        <time>2018-12-30T10:02:16Z</time>
      </trkpt>
      <trkpt lat="37.398983" lon="-8.761744">
        <ele>133.728</ele>
        <time>2018-12-30T10:02:20Z</time>
      </trkpt>
      <trkpt lat="37.399001" lon="-8.761731">
        <ele>134.219</ele>
        <time>2018-12-30T10:02:22Z</time>
      </trkpt>
      <trkpt lat="37.399143" lon="-8.761666">
        <ele>135.238</ele>
        <time>2018-12-30T10:02:34Z</time>
      </trkpt>
      <trkpt lat="37.399281" lon="-8.761616">
        <ele>135.670</ele>
        <time>2018-12-30T10:02:44Z</time>
      </trkpt>
      <trkpt lat="37.399357" lon="-8.761592">
        <ele>135.217</ele>
        <time>2018-12-30T10:02:50Z</time>
      </trkpt>
      <trkpt lat="37.399531" lon="-8.761518">
        <ele>135.208</ele>
        <time>2018-12-30T10:03:04Z</time>
      </trkpt>
      <trkpt lat="37.399556" lon="-8.761511">
        <ele>134.796</ele>
        <time>2018-12-30T10:03:06Z</time>
      </trkpt>
      <trkpt lat="37.399706" lon="-8.761429">
        <ele>134.294</ele>
        <time>2018-12-30T10:03:18Z</time>
      </trkpt>
      <trkpt lat="37.399820" lon="-8.761359">
        <ele>133.771</ele>
        <time>2018-12-30T10:03:28Z</time>
      </trkpt>
      <trkpt lat="37.399884" lon="-8.761343">
        <ele>134.226</ele>
        <time>2018-12-30T10:03:33Z</time>
      </trkpt>
      <trkpt lat="37.399942" lon="-8.761338">
        <ele>134.222</ele>
        <time>2018-12-30T10:03:37Z</time>
      </trkpt>
      <trkpt lat="37.400076" lon="-8.761279">
        <ele>133.789</ele>
        <time>2018-12-30T10:03:49Z</time>
      </trkpt>
      <trkpt lat="37.400199" lon="-8.761234">
        <ele>134.254</ele>
        <time>2018-12-30T10:03:58Z</time>
      </trkpt>
      <trkpt lat="37.400324" lon="-8.761208">
        <ele>134.785</ele>
        <time>2018-12-30T10:04:08Z</time>
      </trkpt>
      <trkpt lat="37.400500" lon="-8.761129">
        <ele>135.236</ele>
        <time>2018-12-30T10:04:22Z</time>
      </trkpt>
      <trkpt lat="37.400550" lon="-8.761101">
        <ele>134.717</ele>
        <time>2018-12-30T10:04:26Z</time>
      </trkpt>
      <trkpt lat="37.400594" lon="-8.761103">
        <ele>135.218</ele>
        <time>2018-12-30T10:04:29Z</time>
      </trkpt>
      <trkpt lat="37.400685" lon="-8.761042">
        <ele>135.608</ele>
        <time>2018-12-30T10:04:38Z</time>
      </trkpt>
      <trkpt lat="37.400820" lon="-8.760996">
        <ele>135.696</ele>
        <time>2018-12-30T10:04:48Z</time>
      </trkpt>
      <trkpt lat="37.400891" lon="-8.760957">
        <ele>135.624</ele>
        <time>2018-12-30T10:04:56Z</time>
      </trkpt>
      <trkpt lat="37.400912" lon="-8.760945">
        <ele>136.111</ele>
        <time>2018-12-30T10:04:58Z</time>
      </trkpt>
      <trkpt lat="37.400947" lon="-8.760922">
        <ele>136.116</ele>
        <time>2018-12-30T10:05:01Z</time>
      </trkpt>
      <trkpt lat="37.401000" lon="-8.760896">
        <ele>135.672</ele>
        <time>2018-12-30T10:05:05Z</time>
      </trkpt>
      <trkpt lat="37.401050" lon="-8.760890">
        <ele>135.619</ele>
        <time>2018-12-30T10:05:09Z</time>
      </trkpt>
      <trkpt lat="37.401163" lon="-8.760883">
        <ele>136.184</ele>
        <time>2018-12-30T10:05:18Z</time>
      </trkpt>
      <trkpt lat="37.401238" lon="-8.760909">
        <ele>135.655</ele>
        <time>2018-12-30T10:05:24Z</time>
      </trkpt>
      <trkpt lat="37.401285" lon="-8.760950">
        <ele>135.617</ele>
        <time>2018-12-30T10:05:29Z</time>
      </trkpt>
      <trkpt lat="37.401384" lon="-8.761099">
        <ele>136.187</ele>
        <time>2018-12-30T10:05:42Z</time>
      </trkpt>
      <trkpt lat="37.401435" lon="-8.761210">
        <ele>136.115</ele>
        <time>2018-12-30T10:05:49Z</time>
      </trkpt>
      <trkpt lat="37.401478" lon="-8.761292">
        <ele>136.108</ele>
        <time>2018-12-30T10:05:55Z</time>
      </trkpt>
      <trkpt lat="37.401563" lon="-8.761480">
        <ele>135.654</ele>
        <time>2018-12-30T10:06:08Z</time>
      </trkpt>
      <trkpt lat="37.401588" lon="-8.761515">
        <ele>135.642</ele>
        <time>2018-12-30T10:06:11Z</time>
      </trkpt>
      <trkpt lat="37.401670" lon="-8.761584">
        <ele>135.299</ele>
        <time>2018-12-30T10:06:18Z</time>
      </trkpt>
      <trkpt lat="37.401887" lon="-8.761627">
        <ele>133.794</ele>
        <time>2018-12-30T10:06:34Z</time>
      </trkpt>
      <trkpt lat="37.401968" lon="-8.761626">
        <ele>133.720</ele>
        <time>2018-12-30T10:06:40Z</time>
      </trkpt>
      <trkpt lat="37.401992" lon="-8.761633">
        <ele>133.797</ele>
        <time>2018-12-30T10:06:42Z</time>
      </trkpt>
      <trkpt lat="37.402149" lon="-8.761641">
        <ele>133.232</ele>
        <time>2018-12-30T10:06:55Z</time>
      </trkpt>
      <trkpt lat="37.402185" lon="-8.761643">
        <ele>133.753</ele>
        <time>2018-12-30T10:06:58Z</time>
      </trkpt>
      <trkpt lat="37.402326" lon="-8.761631">
        <ele>132.313</ele>
        <time>2018-12-30T10:07:09Z</time>
      </trkpt>
      <trkpt lat="37.402367" lon="-8.761623">
        <ele>132.843</ele>
        <time>2018-12-30T10:07:12Z</time>
      </trkpt>
      <trkpt lat="37.402395" lon="-8.761612">
        <ele>133.207</ele>
        <time>2018-12-30T10:07:15Z</time>
      </trkpt>
      <trkpt lat="37.402514" lon="-8.761573">
        <ele>133.208</ele>
        <time>2018-12-30T10:07:24Z</time>
      </trkpt>
      <trkpt lat="37.402686" lon="-8.761590">
        <ele>133.244</ele>
        <time>2018-12-30T10:07:36Z</time>
      </trkpt>
      <trkpt lat="37.402800" lon="-8.761624">
        <ele>133.212</ele>
        <time>2018-12-30T10:07:45Z</time>
      </trkpt>
      <trkpt lat="37.402843" lon="-8.761641">
        <ele>133.269</ele>
        <time>2018-12-30T10:07:48Z</time>
      </trkpt>
      <trkpt lat="37.402921" lon="-8.761670">
        <ele>133.734</ele>
        <time>2018-12-30T10:07:54Z</time>
      </trkpt>
      <trkpt lat="37.402996" lon="-8.761688">
        <ele>133.230</ele>
        <time>2018-12-30T10:08:00Z</time>
      </trkpt>
      <trkpt lat="37.403082" lon="-8.761739">
        <ele>133.237</ele>
        <time>2018-12-30T10:08:07Z</time>
      </trkpt>
      <trkpt lat="37.403260" lon="-8.761786">
        <ele>133.742</ele>
        <time>2018-12-30T10:08:21Z</time>
      </trkpt>
      <trkpt lat="37.403377" lon="-8.761791">
        <ele>133.753</ele>
        <time>2018-12-30T10:08:30Z</time>
      </trkpt>
      <trkpt lat="37.403532" lon="-8.761796">
        <ele>133.292</ele>
        <time>2018-12-30T10:08:42Z</time>
      </trkpt>
      <trkpt lat="37.403690" lon="-8.761772">
        <ele>132.873</ele>
        <time>2018-12-30T10:08:53Z</time>
      </trkpt>
      <trkpt lat="37.403881" lon="-8.761721">
        <ele>133.220</ele>
        <time>2018-12-30T10:09:07Z</time>
      </trkpt>
      <trkpt lat="37.403919" lon="-8.761723">
        <ele>132.308</ele>
        <time>2018-12-30T10:09:10Z</time>
      </trkpt>
      <trkpt lat="37.404085" lon="-8.761732">
        <ele>133.292</ele>
        <time>2018-12-30T10:09:23Z</time>
      </trkpt>
      <trkpt lat="37.404273" lon="-8.761752">
        <ele>132.810</ele>
        <time>2018-12-30T10:09:37Z</time>
      </trkpt>
      <trkpt lat="37.404432" lon="-8.761806">
        <ele>132.877</ele>
        <time>2018-12-30T10:09:49Z</time>
      </trkpt>
      <trkpt lat="37.404508" lon="-8.761833">
        <ele>132.392</ele>
        <time>2018-12-30T10:09:55Z</time>
      </trkpt>
      <trkpt lat="37.404657" lon="-8.761906">
        <ele>132.378</ele>
        <time>2018-12-30T10:10:07Z</time>
      </trkpt>
      <trkpt lat="37.404730" lon="-8.761895">
        <ele>132.875</ele>
        <time>2018-12-30T10:10:12Z</time>
      </trkpt>
      <trkpt lat="37.404752" lon="-8.761895">
        <ele>132.870</ele>
        <time>2018-12-30T10:10:14Z</time>
      </trkpt>
      <trkpt lat="37.404822" lon="-8.761892">
        <ele>132.871</ele>
        <time>2018-12-30T10:10:19Z</time>
      </trkpt>
      <trkpt lat="37.404917" lon="-8.761879">
        <ele>132.833</ele>
        <time>2018-12-30T10:10:26Z</time>
      </trkpt>
      <trkpt lat="37.404974" lon="-8.761861">
        <ele>132.823</ele>
        <time>2018-12-30T10:10:31Z</time>
      </trkpt>
      <trkpt lat="37.405053" lon="-8.761831">
        <ele>132.815</ele>
        <time>2018-12-30T10:10:37Z</time>
      </trkpt>
      <trkpt lat="37.405173" lon="-8.761824">
        <ele>132.308</ele>
        <time>2018-12-30T10:10:46Z</time>
      </trkpt>
      <trkpt lat="37.405343" lon="-8.761810">
        <ele>132.826</ele>
        <time>2018-12-30T10:10:59Z</time>
      </trkpt>
      <trkpt lat="37.405471" lon="-8.761838">
        <ele>131.894</ele>
        <time>2018-12-30T10:11:09Z</time>
      </trkpt>
      <trkpt lat="37.405628" lon="-8.761906">
        <ele>132.371</ele>
        <time>2018-12-30T10:11:22Z</time>
      </trkpt>
      <trkpt lat="37.405692" lon="-8.761924">
        <ele>132.346</ele>
        <time>2018-12-30T10:11:27Z</time>
      </trkpt>
      <trkpt lat="37.405753" lon="-8.761968">
        <ele>131.852</ele>
        <time>2018-12-30T10:11:32Z</time>
      </trkpt>
      <trkpt lat="37.405816" lon="-8.761991">
        <ele>132.349</ele>
        <time>2018-12-30T10:11:37Z</time>
      </trkpt>
      <trkpt lat="37.405961" lon="-8.762084">
        <ele>132.884</ele>
        <time>2018-12-30T10:11:49Z</time>
      </trkpt>
      <trkpt lat="37.406104" lon="-8.762168">
        <ele>132.335</ele>
        <time>2018-12-30T10:12:01Z</time>
      </trkpt>
      <trkpt lat="37.406278" lon="-8.762275">
        <ele>131.855</ele>
        <time>2018-12-30T10:12:16Z</time>
      </trkpt>
      <trkpt lat="37.406455" lon="-8.762383">
        <ele>131.807</ele>
        <time>2018-12-30T10:12:30Z</time>
      </trkpt>
      <trkpt lat="37.406605" lon="-8.762482">
        <ele>130.817</ele>
        <time>2018-12-30T10:12:43Z</time>
      </trkpt>
      <trkpt lat="37.406670" lon="-8.762522">
        <ele>131.308</ele>
        <time>2018-12-30T10:12:48Z</time>
      </trkpt>
      <trkpt lat="37.406771" lon="-8.762577">
        <ele>131.398</ele>
        <time>2018-12-30T10:12:56Z</time>
      </trkpt>
      <trkpt lat="37.406947" lon="-8.762676">
        <ele>130.436</ele>
        <time>2018-12-30T10:13:09Z</time>
      </trkpt>
      <trkpt lat="37.407125" lon="-8.762793">
        <ele>130.453</ele>
        <time>2018-12-30T10:13:23Z</time>
      </trkpt>
      <trkpt lat="37.407184" lon="-8.762827">
        <ele>130.418</ele>
        <time>2018-12-30T10:13:28Z</time>
      </trkpt>
      <trkpt lat="37.407220" lon="-8.762873">
        <ele>130.424</ele>
        <time>2018-12-30T10:13:32Z</time>
      </trkpt>
      <trkpt lat="37.407240" lon="-8.762892">
        <ele>129.911</ele>
        <time>2018-12-30T10:13:34Z</time>
      </trkpt>
      <trkpt lat="37.407276" lon="-8.762933">
        <ele>130.416</ele>
        <time>2018-12-30T10:13:38Z</time>
      </trkpt>
      <trkpt lat="37.407360" lon="-8.762996">
        <ele>129.487</ele>
        <time>2018-12-30T10:13:45Z</time>
      </trkpt>
      <trkpt lat="37.407403" lon="-8.763023">
        <ele>129.917</ele>
        <time>2018-12-30T10:13:49Z</time>
      </trkpt>
      <trkpt lat="37.407460" lon="-8.763077">
        <ele>129.487</ele>
        <time>2018-12-30T10:13:54Z</time>
      </trkpt>
      <trkpt lat="37.407640" lon="-8.763228">
        <ele>129.415</ele>
        <time>2018-12-30T10:14:10Z</time>
      </trkpt>
      <trkpt lat="37.407816" lon="-8.763312">
        <ele>129.408</ele>
        <time>2018-12-30T10:14:24Z</time>
      </trkpt>
      <trkpt lat="37.407988" lon="-8.763403">
        <ele>128.414</ele>
        <time>2018-12-30T10:14:38Z</time>
      </trkpt>
      <trkpt lat="37.408101" lon="-8.763441">
        <ele>128.982</ele>
        <time>2018-12-30T10:14:47Z</time>
      </trkpt>
      <trkpt lat="37.408282" lon="-8.763534">
        <ele>128.449</ele>
        <time>2018-12-30T10:15:02Z</time>
      </trkpt>
      <trkpt lat="37.408364" lon="-8.763571">
        <ele>128.434</ele>
        <time>2018-12-30T10:15:08Z</time>
      </trkpt>
      <trkpt lat="37.408437" lon="-8.763598">
        <ele>128.460</ele>
        <time>2018-12-30T10:15:14Z</time>
      </trkpt>
      <trkpt lat="37.408583" lon="-8.763679">
        <ele>127.967</ele>
        <time>2018-12-30T10:15:26Z</time>
      </trkpt>
      <trkpt lat="37.408642" lon="-8.763691">
        <ele>127.932</ele>
        <time>2018-12-30T10:15:30Z</time>
      </trkpt>
      <trkpt lat="37.408667" lon="-8.763707">
        <ele>127.933</ele>
        <time>2018-12-30T10:15:32Z</time>
      </trkpt>
      <trkpt lat="37.408766" lon="-8.763763">
        <ele>128.477</ele>
        <time>2018-12-30T10:15:40Z</time>
      </trkpt>
      <trkpt lat="37.408817" lon="-8.763776">
        <ele>127.961</ele>
        <time>2018-12-30T10:15:44Z</time>
      </trkpt>
      <trkpt lat="37.408865" lon="-8.763814">
        <ele>127.927</ele>
        <time>2018-12-30T10:15:48Z</time>
      </trkpt>
      <trkpt lat="37.409009" lon="-8.763877">
        <ele>127.908</ele>
        <time>2018-12-30T10:16:00Z</time>
      </trkpt>
      <trkpt lat="37.409178" lon="-8.763922">
        <ele>127.540</ele>
        <time>2018-12-30T10:16:13Z</time>
      </trkpt>
      <trkpt lat="37.409194" lon="-8.763926">
        <ele>127.518</ele>
        <time>2018-12-30T10:16:14Z</time>
      </trkpt>
      <trkpt lat="37.409377" lon="-8.763988">
        <ele>127.995</ele>
        <time>2018-12-30T10:16:28Z</time>
      </trkpt>
      <trkpt lat="37.409523" lon="-8.764041">
        <ele>127.990</ele>
        <time>2018-12-30T10:16:39Z</time>
      </trkpt>
      <trkpt lat="37.409615" lon="-8.764079">
        <ele>127.936</ele>
        <time>2018-12-30T10:16:46Z</time>
      </trkpt>
      <trkpt lat="37.409695" lon="-8.764110">
        <ele>127.993</ele>
        <time>2018-12-30T10:16:52Z</time>
      </trkpt>
      <trkpt lat="37.409797" lon="-8.764177">
        <ele>127.988</ele>
        <time>2018-12-30T10:17:00Z</time>
      </trkpt>
      <trkpt lat="37.409981" lon="-8.764270">
        <ele>127.059</ele>
        <time>2018-12-30T10:17:14Z</time>
      </trkpt>
      <trkpt lat="37.410037" lon="-8.764293">
        <ele>127.095</ele>
        <time>2018-12-30T10:17:18Z</time>
      </trkpt>
      <trkpt lat="37.410219" lon="-8.764454">
        <ele>127.049</ele>
        <time>2018-12-30T10:17:35Z</time>
      </trkpt>
      <trkpt lat="37.410227" lon="-8.764467">
        <ele>126.523</ele>
        <time>2018-12-30T10:17:36Z</time>
      </trkpt>
      <trkpt lat="37.410444" lon="-8.764548">
        <ele>126.008</ele>
        <time>2018-12-30T10:17:52Z</time>
      </trkpt>
      <trkpt lat="37.410500" lon="-8.764576">
        <ele>126.042</ele>
        <time>2018-12-30T10:17:56Z</time>
      </trkpt>
      <trkpt lat="37.410621" lon="-8.764632">
        <ele>125.550</ele>
        <time>2018-12-30T10:18:05Z</time>
      </trkpt>
      <trkpt lat="37.410795" lon="-8.764690">
        <ele>125.147</ele>
        <time>2018-12-30T10:18:18Z</time>
      </trkpt>
      <trkpt lat="37.410965" lon="-8.764806">
        <ele>124.652</ele>
        <time>2018-12-30T10:18:32Z</time>
      </trkpt>
      <trkpt lat="37.411141" lon="-8.764945">
        <ele>124.198</ele>
        <time>2018-12-30T10:18:47Z</time>
      </trkpt>
      <trkpt lat="37.411208" lon="-8.764983">
        <ele>123.675</ele>
        <time>2018-12-30T10:18:53Z</time>
      </trkpt>
      <trkpt lat="37.411422" lon="-8.765070">
        <ele>123.170</ele>
        <time>2018-12-30T10:19:10Z</time>
      </trkpt>
      <trkpt lat="37.411594" lon="-8.765136">
        <ele>123.681</ele>
        <time>2018-12-30T10:19:24Z</time>
      </trkpt>
      <trkpt lat="37.411766" lon="-8.765187">
        <ele>122.768</ele>
        <time>2018-12-30T10:19:37Z</time>
      </trkpt>
      <trkpt lat="37.411958" lon="-8.765199">
        <ele>122.742</ele>
        <time>2018-12-30T10:19:51Z</time>
      </trkpt>
      <trkpt lat="37.412100" lon="-8.765205">
        <ele>122.226</ele>
        <time>2018-12-30T10:20:01Z</time>
      </trkpt>
      <trkpt lat="37.412204" lon="-8.765205">
        <ele>122.708</ele>
        <time>2018-12-30T10:20:09Z</time>
      </trkpt>
      <trkpt lat="37.412383" lon="-8.765222">
        <ele>122.729</ele>
        <time>2018-12-30T10:20:22Z</time>
      </trkpt>
      <trkpt lat="37.412550" lon="-8.765238">
        <ele>122.757</ele>
        <time>2018-12-30T10:20:34Z</time>
      </trkpt>
      <trkpt lat="37.412750" lon="-8.765262">
        <ele>122.714</ele>
        <time>2018-12-30T10:20:49Z</time>
      </trkpt>
      <trkpt lat="37.412917" lon="-8.765315">
        <ele>122.769</ele>
        <time>2018-12-30T10:21:02Z</time>
      </trkpt>
      <trkpt lat="37.413085" lon="-8.765492">
        <ele>122.735</ele>
        <time>2018-12-30T10:21:18Z</time>
      </trkpt>
      <trkpt lat="37.413237" lon="-8.765640">
        <ele>122.212</ele>
        <time>2018-12-30T10:21:32Z</time>
      </trkpt>
      <trkpt lat="37.413391" lon="-8.765777">
        <ele>122.247</ele>
        <time>2018-12-30T10:21:46Z</time>
      </trkpt>
      <trkpt lat="37.413529" lon="-8.765921">
        <ele>122.288</ele>
        <time>2018-12-30T10:21:59Z</time>
      </trkpt>
      <trkpt lat="37.413686" lon="-8.766045">
        <ele>122.234</ele>
        <time>2018-12-30T10:22:12Z</time>
      </trkpt>
      <trkpt lat="37.413880" lon="-8.766087">
        <ele>122.255</ele>
        <time>2018-12-30T10:22:26Z</time>
      </trkpt>
      <trkpt lat="37.414038" lon="-8.766117">
        <ele>122.710</ele>
        <time>2018-12-30T10:22:38Z</time>
      </trkpt>
      <trkpt lat="37.414246" lon="-8.766111">
        <ele>122.208</ele>
        <time>2018-12-30T10:22:53Z</time>
      </trkpt>
      <trkpt lat="37.414392" lon="-8.766107">
        <ele>120.796</ele>
        <time>2018-12-30T10:23:05Z</time>
      </trkpt>
      <trkpt lat="37.414600" lon="-8.766109">
        <ele>120.394</ele>
        <time>2018-12-30T10:23:20Z</time>
      </trkpt>
      <trkpt lat="37.414800" lon="-8.766128">
        <ele>120.361</ele>
        <time>2018-12-30T10:23:35Z</time>
      </trkpt>
      <trkpt lat="37.414988" lon="-8.766191">
        <ele>120.376</ele>
        <time>2018-12-30T10:23:49Z</time>
      </trkpt>
      <trkpt lat="37.415160" lon="-8.766253">
        <ele>120.372</ele>
        <time>2018-12-30T10:24:02Z</time>
      </trkpt>
      <trkpt lat="37.415210" lon="-8.766273">
        <ele>119.839</ele>
        <time>2018-12-30T10:24:06Z</time>
      </trkpt>
      <trkpt lat="37.415266" lon="-8.766309">
        <ele>121.274</ele>
        <time>2018-12-30T10:24:11Z</time>
      </trkpt>
      <trkpt lat="37.415423" lon="-8.766340">
        <ele>119.845</ele>
        <time>2018-12-30T10:24:23Z</time>
      </trkpt>
      <trkpt lat="37.415470" lon="-8.766344">
        <ele>120.319</ele>
        <time>2018-12-30T10:24:26Z</time>
      </trkpt>
      <trkpt lat="37.415512" lon="-8.766368">
        <ele>119.809</ele>
        <time>2018-12-30T10:24:30Z</time>
      </trkpt>
      <trkpt lat="37.415635" lon="-8.766397">
        <ele>119.819</ele>
        <time>2018-12-30T10:24:39Z</time>
      </trkpt>
      <trkpt lat="37.415719" lon="-8.766407">
        <ele>119.808</ele>
        <time>2018-12-30T10:24:45Z</time>
      </trkpt>
      <trkpt lat="37.415816" lon="-8.766419">
        <ele>119.814</ele>
        <time>2018-12-30T10:24:52Z</time>
      </trkpt>
      <trkpt lat="37.415860" lon="-8.766445">
        <ele>119.372</ele>
        <time>2018-12-30T10:24:56Z</time>
      </trkpt>
      <trkpt lat="37.416036" lon="-8.766514">
        <ele>118.889</ele>
        <time>2018-12-30T10:25:09Z</time>
      </trkpt>
      <trkpt lat="37.416080" lon="-8.766527">
        <ele>119.344</ele>
        <time>2018-12-30T10:25:12Z</time>
      </trkpt>
      <trkpt lat="37.416244" lon="-8.766608">
        <ele>118.840</ele>
        <time>2018-12-30T10:25:25Z</time>
      </trkpt>
      <trkpt lat="37.416439" lon="-8.766663">
        <ele>118.367</ele>
        <time>2018-12-30T10:25:40Z</time>
      </trkpt>
      <trkpt lat="37.416614" lon="-8.766711">
        <ele>117.942</ele>
        <time>2018-12-30T10:25:53Z</time>
      </trkpt>
      <trkpt lat="37.416741" lon="-8.766777">
        <ele>117.943</ele>
        <time>2018-12-30T10:26:03Z</time>
      </trkpt>
      <trkpt lat="37.416764" lon="-8.766790">
        <ele>117.945</ele>
        <time>2018-12-30T10:26:05Z</time>
      </trkpt>
      <trkpt lat="37.416874" lon="-8.766933">
        <ele>117.447</ele>
        <time>2018-12-30T10:26:17Z</time>
      </trkpt>
      <trkpt lat="37.417052" lon="-8.766948">
        <ele>116.411</ele>
        <time>2018-12-30T10:26:30Z</time>
      </trkpt>
      <trkpt lat="37.417077" lon="-8.766938">
        <ele>116.908</ele>
        <time>2018-12-30T10:26:32Z</time>
      </trkpt>
      <trkpt lat="37.417141" lon="-8.766926">
        <ele>116.917</ele>
        <time>2018-12-30T10:26:37Z</time>
      </trkpt>
      <trkpt lat="37.417318" lon="-8.766875">
        <ele>115.965</ele>
        <time>2018-12-30T10:26:51Z</time>
      </trkpt>
      <trkpt lat="37.417442" lon="-8.766873">
        <ele>115.982</ele>
        <time>2018-12-30T10:27:00Z</time>
      </trkpt>
      <trkpt lat="37.417664" lon="-8.766866">
        <ele>115.537</ele>
        <time>2018-12-30T10:27:15Z</time>
      </trkpt>
      <trkpt lat="37.417850" lon="-8.766932">
        <ele>115.063</ele>
        <time>2018-12-30T10:27:29Z</time>
      </trkpt>
      <trkpt lat="37.418026" lon="-8.767046">
        <ele>114.560</ele>
        <time>2018-12-30T10:27:44Z</time>
      </trkpt>
      <trkpt lat="37.418191" lon="-8.767054">
        <ele>114.535</ele>
        <time>2018-12-30T10:27:59Z</time>
      </trkpt>
      <trkpt lat="37.418265" lon="-8.767057">
        <ele>114.586</ele>
        <time>2018-12-30T10:28:06Z</time>
      </trkpt>
      <trkpt lat="37.418300" lon="-8.767055">
        <ele>114.549</ele>
        <time>2018-12-30T10:28:09Z</time>
      </trkpt>
      <trkpt lat="37.418364" lon="-8.767056">
        <ele>114.502</ele>
        <time>2018-12-30T10:28:14Z</time>
      </trkpt>
      <trkpt lat="37.418412" lon="-8.767064">
        <ele>114.022</ele>
        <time>2018-12-30T10:28:18Z</time>
      </trkpt>
      <trkpt lat="37.418503" lon="-8.767071">
        <ele>113.508</ele>
        <time>2018-12-30T10:28:26Z</time>
      </trkpt>
      <trkpt lat="37.418580" lon="-8.767085">
        <ele>113.567</ele>
        <time>2018-12-30T10:28:32Z</time>
      </trkpt>
      <trkpt lat="37.418646" lon="-8.767106">
        <ele>113.575</ele>
        <time>2018-12-30T10:28:38Z</time>
      </trkpt>
      <trkpt lat="37.418828" lon="-8.767133">
        <ele>113.072</ele>
        <time>2018-12-30T10:28:54Z</time>
      </trkpt>
      <trkpt lat="37.418861" lon="-8.767144">
        <ele>113.567</ele>
        <time>2018-12-30T10:28:57Z</time>
      </trkpt>
      <trkpt lat="37.418910" lon="-8.767169">
        <ele>113.043</ele>
        <time>2018-12-30T10:29:02Z</time>
      </trkpt>
      <trkpt lat="37.418952" lon="-8.767171">
        <ele>113.540</ele>
        <time>2018-12-30T10:29:06Z</time>
      </trkpt>
      <trkpt lat="37.418971" lon="-8.767183">
        <ele>113.535</ele>
        <time>2018-12-30T10:29:08Z</time>
      </trkpt>
      <trkpt lat="37.419055" lon="-8.767210">
        <ele>113.056</ele>
        <time>2018-12-30T10:29:15Z</time>
      </trkpt>
      <trkpt lat="37.419151" lon="-8.767257">
        <ele>113.578</ele>
        <time>2018-12-30T10:29:24Z</time>
      </trkpt>
      <trkpt lat="37.419168" lon="-8.767278">
        <ele>113.533</ele>
        <time>2018-12-30T10:29:26Z</time>
      </trkpt>
      <trkpt lat="37.419321" lon="-8.767313">
        <ele>113.026</ele>
        <time>2018-12-30T10:29:39Z</time>
      </trkpt>
      <trkpt lat="37.419480" lon="-8.767372">
        <ele>112.608</ele>
        <time>2018-12-30T10:29:52Z</time>
      </trkpt>
      <trkpt lat="37.419536" lon="-8.767386">
        <ele>112.190</ele>
        <time>2018-12-30T10:29:57Z</time>
      </trkpt>
      <trkpt lat="37.419757" lon="-8.767423">
        <ele>112.188</ele>
        <time>2018-12-30T10:30:15Z</time>
      </trkpt>
      <trkpt lat="37.419889" lon="-8.767442">
        <ele>111.655</ele>
        <time>2018-12-30T10:30:25Z</time>
      </trkpt>
      <trkpt lat="37.420040" lon="-8.767498">
        <ele>111.150</ele>
        <time>2018-12-30T10:30:38Z</time>
      </trkpt>
      <trkpt lat="37.420127" lon="-8.767515">
        <ele>111.166</ele>
        <time>2018-12-30T10:30:46Z</time>
      </trkpt>
      <trkpt lat="37.420176" lon="-8.767533">
        <ele>111.163</ele>
        <time>2018-12-30T10:30:50Z</time>
      </trkpt>
      <trkpt lat="37.420250" lon="-8.767560">
        <ele>111.118</ele>
        <time>2018-12-30T10:30:56Z</time>
      </trkpt>
      <trkpt lat="37.420319" lon="-8.767584">
        <ele>111.659</ele>
        <time>2018-12-30T10:31:02Z</time>
      </trkpt>
      <trkpt lat="37.420397" lon="-8.767612">
        <ele>111.199</ele>
        <time>2018-12-30T10:31:08Z</time>
      </trkpt>
      <trkpt lat="37.420479" lon="-8.767637">
        <ele>110.607</ele>
        <time>2018-12-30T10:31:15Z</time>
      </trkpt>
      <trkpt lat="37.420541" lon="-8.767646">
        <ele>109.727</ele>
        <time>2018-12-30T10:31:20Z</time>
      </trkpt>
      <trkpt lat="37.420564" lon="-8.767656">
        <ele>109.708</ele>
        <time>2018-12-30T10:31:22Z</time>
      </trkpt>
      <trkpt lat="37.420771" lon="-8.767697">
        <ele>108.272</ele>
        <time>2018-12-30T10:31:38Z</time>
      </trkpt>
      <trkpt lat="37.420950" lon="-8.767764">
        <ele>109.280</ele>
        <time>2018-12-30T10:31:53Z</time>
      </trkpt>
      <trkpt lat="37.421004" lon="-8.767788">
        <ele>109.277</ele>
        <time>2018-12-30T10:31:58Z</time>
      </trkpt>
      <trkpt lat="37.421170" lon="-8.767867">
        <ele>108.772</ele>
        <time>2018-12-30T10:32:12Z</time>
      </trkpt>
      <trkpt lat="37.421236" lon="-8.767892">
        <ele>108.758</ele>
        <time>2018-12-30T10:32:17Z</time>
      </trkpt>
      <trkpt lat="37.421285" lon="-8.767928">
        <ele>108.785</ele>
        <time>2018-12-30T10:32:22Z</time>
      </trkpt>
      <trkpt lat="37.421361" lon="-8.767951">
        <ele>108.230</ele>
        <time>2018-12-30T10:32:28Z</time>
      </trkpt>
      <trkpt lat="37.421389" lon="-8.767958">
        <ele>107.851</ele>
        <time>2018-12-30T10:32:30Z</time>
      </trkpt>
      <trkpt lat="37.421511" lon="-8.768033">
        <ele>107.371</ele>
        <time>2018-12-30T10:32:41Z</time>
      </trkpt>
      <trkpt lat="37.421682" lon="-8.768057">
        <ele>107.341</ele>
        <time>2018-12-30T10:32:56Z</time>
      </trkpt>
      <trkpt lat="37.421704" lon="-8.768056">
        <ele>107.315</ele>
        <time>2018-12-30T10:32:58Z</time>
      </trkpt>
      <trkpt lat="37.421751" lon="-8.768060">
        <ele>107.308</ele>
        <time>2018-12-30T10:33:02Z</time>
      </trkpt>
      <trkpt lat="37.421803" lon="-8.768080">
        <ele>106.890</ele>
        <time>2018-12-30T10:33:06Z</time>
      </trkpt>
      <trkpt lat="37.421859" lon="-8.768080">
        <ele>106.888</ele>
        <time>2018-12-30T10:33:10Z</time>
      </trkpt>
      <trkpt lat="37.421966" lon="-8.768094">
        <ele>106.835</ele>
        <time>2018-12-30T10:33:18Z</time>
      </trkpt>
      <trkpt lat="37.422119" lon="-8.768125">
        <ele>106.350</ele>
        <time>2018-12-30T10:33:31Z</time>
      </trkpt>
      <trkpt lat="37.422216" lon="-8.768136">
        <ele>106.326</ele>
        <time>2018-12-30T10:33:39Z</time>
      </trkpt>
      <trkpt lat="37.422365" lon="-8.768162">
        <ele>106.343</ele>
        <time>2018-12-30T10:33:51Z</time>
      </trkpt>
      <trkpt lat="37.422375" lon="-8.768166">
        <ele>106.318</ele>
        <time>2018-12-30T10:33:52Z</time>
      </trkpt>
      <trkpt lat="37.422492" lon="-8.768219">
        <ele>106.869</ele>
        <time>2018-12-30T10:34:03Z</time>
      </trkpt>
      <trkpt lat="37.422462" lon="-8.768422">
        <ele>106.867</ele>
        <time>2018-12-30T10:34:18Z</time>
      </trkpt>
      <trkpt lat="37.422404" lon="-8.768592">
        <ele>106.381</ele>
        <time>2018-12-30T10:34:32Z</time>
      </trkpt>
      <trkpt lat="37.422404" lon="-8.768591">
        <ele>107.319</ele>
        <time>2018-12-30T10:34:36Z</time>
      </trkpt>
      <trkpt lat="37.422387" lon="-8.768636">
        <ele>106.808</ele>
        <time>2018-12-30T10:34:41Z</time>
      </trkpt>
      <trkpt lat="37.422304" lon="-8.768844">
        <ele>107.339</ele>
        <time>2018-12-30T10:34:57Z</time>
      </trkpt>
      <trkpt lat="37.422228" lon="-8.769049">
        <ele>107.897</ele>
        <time>2018-12-30T10:35:11Z</time>
      </trkpt>
      <trkpt lat="37.422152" lon="-8.769252">
        <ele>107.824</ele>
        <time>2018-12-30T10:35:25Z</time>
      </trkpt>
      <trkpt lat="37.422096" lon="-8.769475">
        <ele>108.799</ele>
        <time>2018-12-30T10:35:40Z</time>
      </trkpt>
      <trkpt lat="37.422045" lon="-8.769672">
        <ele>109.215</ele>
        <time>2018-12-30T10:35:53Z</time>
      </trkpt>
      <trkpt lat="37.421986" lon="-8.769937">
        <ele>109.272</ele>
        <time>2018-12-30T10:36:09Z</time>
      </trkpt>
      <trkpt lat="37.421933" lon="-8.770167">
        <ele>109.217</ele>
        <time>2018-12-30T10:36:24Z</time>
      </trkpt>
      <trkpt lat="37.421864" lon="-8.770393">
        <ele>108.728</ele>
        <time>2018-12-30T10:36:39Z</time>
      </trkpt>
      <trkpt lat="37.421786" lon="-8.770604">
        <ele>109.225</ele>
        <time>2018-12-30T10:36:53Z</time>
      </trkpt>
      <trkpt lat="37.421685" lon="-8.770846">
        <ele>109.226</ele>
        <time>2018-12-30T10:37:09Z</time>
      </trkpt>
      <trkpt lat="37.421592" lon="-8.771042">
        <ele>108.708</ele>
        <time>2018-12-30T10:37:24Z</time>
      </trkpt>
      <trkpt lat="37.421428" lon="-8.771213">
        <ele>108.208</ele>
        <time>2018-12-30T10:37:40Z</time>
      </trkpt>
      <trkpt lat="37.421228" lon="-8.771351">
        <ele>107.865</ele>
        <time>2018-12-30T10:37:57Z</time>
      </trkpt>
      <trkpt lat="37.421051" lon="-8.771442">
        <ele>108.213</ele>
        <time>2018-12-30T10:38:12Z</time>
      </trkpt>
      <trkpt lat="37.420884" lon="-8.771584">
        <ele>108.730</ele>
        <time>2018-12-30T10:38:28Z</time>
      </trkpt>
      <trkpt lat="37.420773" lon="-8.771755">
        <ele>109.275</ele>
        <time>2018-12-30T10:38:42Z</time>
      </trkpt>
      <trkpt lat="37.420746" lon="-8.771829">
        <ele>109.741</ele>
        <time>2018-12-30T10:38:47Z</time>
      </trkpt>
      <trkpt lat="37.420717" lon="-8.772029">
        <ele>109.798</ele>
        <time>2018-12-30T10:38:59Z</time>
      </trkpt>
      <trkpt lat="37.420701" lon="-8.772114">
        <ele>109.743</ele>
        <time>2018-12-30T10:39:11Z</time>
      </trkpt>
      <trkpt lat="37.420701" lon="-8.772117">
        <ele>109.784</ele>
        <time>2018-12-30T10:39:30Z</time>
      </trkpt>
      <trkpt lat="37.420704" lon="-8.772134">
        <ele>110.277</ele>
        <time>2018-12-30T10:39:47Z</time>
      </trkpt>
      <trkpt lat="37.420683" lon="-8.772437">
        <ele>109.261</ele>
        <time>2018-12-30T10:40:05Z</time>
      </trkpt>
      <trkpt lat="37.420672" lon="-8.772643">
        <ele>109.227</ele>
        <time>2018-12-30T10:40:17Z</time>
      </trkpt>
      <trkpt lat="37.420640" lon="-8.772931">
        <ele>109.208</ele>
        <time>2018-12-30T10:40:34Z</time>
      </trkpt>
      <trkpt lat="37.420651" lon="-8.773156">
        <ele>108.220</ele>
        <time>2018-12-30T10:40:48Z</time>
      </trkpt>
      <trkpt lat="37.420658" lon="-8.773161">
        <ele>108.228</ele>
        <time>2018-12-30T10:40:49Z</time>
      </trkpt>
      <trkpt lat="37.420680" lon="-8.773172">
        <ele>108.235</ele>
        <time>2018-12-30T10:40:52Z</time>
      </trkpt>
      <trkpt lat="37.420709" lon="-8.773172">
        <ele>107.890</ele>
        <time>2018-12-30T10:40:54Z</time>
      </trkpt>
      <trkpt lat="37.420763" lon="-8.773180">
        <ele>108.216</ele>
        <time>2018-12-30T10:40:58Z</time>
      </trkpt>
      <trkpt lat="37.420996" lon="-8.773218">
        <ele>107.883</ele>
        <time>2018-12-30T10:41:16Z</time>
      </trkpt>
      <trkpt lat="37.421109" lon="-8.773243">
        <ele>107.898</ele>
        <time>2018-12-30T10:41:25Z</time>
      </trkpt>
      <trkpt lat="37.421178" lon="-8.773261">
        <ele>108.229</ele>
        <time>2018-12-30T10:41:30Z</time>
      </trkpt>
      <trkpt lat="37.421430" lon="-8.773270">
        <ele>107.349</ele>
        <time>2018-12-30T10:41:50Z</time>
      </trkpt>
      <trkpt lat="37.421443" lon="-8.773268">
        <ele>107.302</ele>
        <time>2018-12-30T10:41:52Z</time>
      </trkpt>
      <trkpt lat="37.421512" lon="-8.773258">
        <ele>106.822</ele>
        <time>2018-12-30T10:41:59Z</time>
      </trkpt>
      <trkpt lat="37.421498" lon="-8.773226">
        <ele>106.308</ele>
        <time>2018-12-30T10:42:03Z</time>
      </trkpt>
      <trkpt lat="37.421494" lon="-8.773185">
        <ele>106.377</ele>
        <time>2018-12-30T10:42:12Z</time>
      </trkpt>
      <trkpt lat="37.421526" lon="-8.773264">
        <ele>107.385</ele>
        <time>2018-12-30T10:42:18Z</time>
      </trkpt>
      <trkpt lat="37.421721" lon="-8.773250">
        <ele>105.882</ele>
        <time>2018-12-30T10:42:34Z</time>
      </trkpt>
      <trkpt lat="37.421929" lon="-8.773235">
        <ele>105.457</ele>
        <time>2018-12-30T10:42:49Z</time>
      </trkpt>
      <trkpt lat="37.422184" lon="-8.773214">
        <ele>104.443</ele>
        <time>2018-12-30T10:43:06Z</time>
      </trkpt>
      <trkpt lat="37.422415" lon="-8.773177">
        <ele>104.470</ele>
        <time>2018-12-30T10:43:22Z</time>
      </trkpt>
      <trkpt lat="37.422604" lon="-8.773148">
        <ele>104.465</ele>
        <time>2018-12-30T10:43:37Z</time>
      </trkpt>
      <trkpt lat="37.422827" lon="-8.773103">
        <ele>103.466</ele>
        <time>2018-12-30T10:43:52Z</time>
      </trkpt>
      <trkpt lat="37.423014" lon="-8.773088">
        <ele>103.932</ele>
        <time>2018-12-30T10:44:06Z</time>
      </trkpt>
      <trkpt lat="37.423204" lon="-8.773085">
        <ele>104.492</ele>
        <time>2018-12-30T10:44:20Z</time>
      </trkpt>
      <trkpt lat="37.423239" lon="-8.773075">
        <ele>103.911</ele>
        <time>2018-12-30T10:44:23Z</time>
      </trkpt>
      <trkpt lat="37.423504" lon="-8.773033">
        <ele>104.408</ele>
        <time>2018-12-30T10:44:42Z</time>
      </trkpt>
      <trkpt lat="37.423638" lon="-8.773021">
        <ele>104.446</ele>
        <time>2018-12-30T10:44:51Z</time>
      </trkpt>
      <trkpt lat="37.423758" lon="-8.773001">
        <ele>104.434</ele>
        <time>2018-12-30T10:45:01Z</time>
      </trkpt>
      <trkpt lat="37.423859" lon="-8.772977">
        <ele>103.971</ele>
        <time>2018-12-30T10:45:08Z</time>
      </trkpt>
      <trkpt lat="37.424029" lon="-8.772956">
        <ele>103.416</ele>
        <time>2018-12-30T10:45:21Z</time>
      </trkpt>
      <trkpt lat="37.424193" lon="-8.772920">
        <ele>103.442</ele>
        <time>2018-12-30T10:45:33Z</time>
      </trkpt>
      <trkpt lat="37.424389" lon="-8.772889">
        <ele>103.019</ele>
        <time>2018-12-30T10:45:47Z</time>
      </trkpt>
      <trkpt lat="37.424596" lon="-8.772848">
        <ele>102.584</ele>
        <time>2018-12-30T10:46:02Z</time>
      </trkpt>
      <trkpt lat="37.424801" lon="-8.772827">
        <ele>102.595</ele>
        <time>2018-12-30T10:46:17Z</time>
      </trkpt>
      <trkpt lat="37.424966" lon="-8.772796">
        <ele>102.051</ele>
        <time>2018-12-30T10:46:30Z</time>
      </trkpt>
      <trkpt lat="37.425195" lon="-8.772788">
        <ele>101.501</ele>
        <time>2018-12-30T10:46:47Z</time>
      </trkpt>
      <trkpt lat="37.425423" lon="-8.772744">
        <ele>101.511</ele>
        <time>2018-12-30T10:47:04Z</time>
      </trkpt>
      <trkpt lat="37.425617" lon="-8.772733">
        <ele>100.608</ele>
        <time>2018-12-30T10:47:19Z</time>
      </trkpt>
      <trkpt lat="37.425796" lon="-8.772712">
        <ele>100.698</ele>
        <time>2018-12-30T10:47:30Z</time>
      </trkpt>
      <trkpt lat="37.425799" lon="-8.772714">
        <ele>100.196</ele>
        <time>2018-12-30T10:47:31Z</time>
      </trkpt>
      <trkpt lat="37.425976" lon="-8.772675">
        <ele>100.183</ele>
        <time>2018-12-30T10:47:46Z</time>
      </trkpt>
      <trkpt lat="37.426186" lon="-8.772676">
        <ele>100.188</ele>
        <time>2018-12-30T10:48:02Z</time>
      </trkpt>
      <trkpt lat="37.426403" lon="-8.772742">
        <ele>99.654</ele>
        <time>2018-12-30T10:48:19Z</time>
      </trkpt>
      <trkpt lat="37.426595" lon="-8.772796">
        <ele>99.651</ele>
        <time>2018-12-30T10:48:34Z</time>
      </trkpt>
      <trkpt lat="37.426812" lon="-8.772872">
        <ele>98.676</ele>
        <time>2018-12-30T10:48:51Z</time>
      </trkpt>
      <trkpt lat="37.427007" lon="-8.772940">
        <ele>98.167</ele>
        <time>2018-12-30T10:49:06Z</time>
      </trkpt>
      <trkpt lat="37.427192" lon="-8.773019">
        <ele>97.777</ele>
        <time>2018-12-30T10:49:21Z</time>
      </trkpt>
      <trkpt lat="37.427347" lon="-8.773084">
        <ele>97.261</ele>
        <time>2018-12-30T10:49:33Z</time>
      </trkpt>
      <trkpt lat="37.427422" lon="-8.773126">
        <ele>96.727</ele>
        <time>2018-12-30T10:49:39Z</time>
      </trkpt>
      <trkpt lat="37.427454" lon="-8.773148">
        <ele>96.208</ele>
        <time>2018-12-30T10:49:42Z</time>
      </trkpt>
      <trkpt lat="37.427584" lon="-8.773174">
        <ele>95.730</ele>
        <time>2018-12-30T10:49:52Z</time>
      </trkpt>
      <trkpt lat="37.427706" lon="-8.773190">
        <ele>95.388</ele>
        <time>2018-12-30T10:50:02Z</time>
      </trkpt>
      <trkpt lat="37.427720" lon="-8.773188">
        <ele>95.395</ele>
        <time>2018-12-30T10:50:03Z</time>
      </trkpt>
      <trkpt lat="37.427943" lon="-8.773182">
        <ele>94.890</ele>
        <time>2018-12-30T10:50:19Z</time>
      </trkpt>
      <trkpt lat="37.428118" lon="-8.773190">
        <ele>93.836</ele>
        <time>2018-12-30T10:50:34Z</time>
      </trkpt>
      <trkpt lat="37.428203" lon="-8.773189">
        <ele>93.353</ele>
        <time>2018-12-30T10:50:41Z</time>
      </trkpt>
      <trkpt lat="37.428412" lon="-8.773178">
        <ele>93.348</ele>
        <time>2018-12-30T10:50:57Z</time>
      </trkpt>
      <trkpt lat="37.428614" lon="-8.773188">
        <ele>92.969</ele>
        <time>2018-12-30T10:51:14Z</time>
      </trkpt>
      <trkpt lat="37.428804" lon="-8.773158">
        <ele>92.462</ele>
        <time>2018-12-30T10:51:29Z</time>
      </trkpt>
      <trkpt lat="37.428963" lon="-8.773120">
        <ele>92.483</ele>
        <time>2018-12-30T10:51:43Z</time>
      </trkpt>
      <trkpt lat="37.429152" lon="-8.773062">
        <ele>91.911</ele>
        <time>2018-12-30T10:51:58Z</time>
      </trkpt>
      <trkpt lat="37.429305" lon="-8.773011">
        <ele>91.408</ele>
        <time>2018-12-30T10:52:11Z</time>
      </trkpt>
      <trkpt lat="37.429440" lon="-8.772935">
        <ele>90.559</ele>
        <time>2018-12-30T10:52:25Z</time>
      </trkpt>
      <trkpt lat="37.429458" lon="-8.772929">
        <ele>90.087</ele>
        <time>2018-12-30T10:52:32Z</time>
      </trkpt>
      <trkpt lat="37.429627" lon="-8.772834">
        <ele>87.164</ele>
        <time>2018-12-30T10:52:48Z</time>
      </trkpt>
      <trkpt lat="37.429727" lon="-8.772789">
        <ele>86.169</ele>
        <time>2018-12-30T10:52:57Z</time>
      </trkpt>
      <trkpt lat="37.429745" lon="-8.772782">
        <ele>86.125</ele>
        <time>2018-12-30T10:52:59Z</time>
      </trkpt>
      <trkpt lat="37.429871" lon="-8.772721">
        <ele>83.742</ele>
        <time>2018-12-30T10:53:11Z</time>
      </trkpt>
      <trkpt lat="37.429893" lon="-8.772708">
        <ele>83.277</ele>
        <time>2018-12-30T10:53:13Z</time>
      </trkpt>
      <trkpt lat="37.429906" lon="-8.772688">
        <ele>83.238</ele>
        <time>2018-12-30T10:53:15Z</time>
      </trkpt>
      <trkpt lat="37.429919" lon="-8.772668">
        <ele>82.872</ele>
        <time>2018-12-30T10:53:28Z</time>
      </trkpt>
      <trkpt lat="37.429922" lon="-8.772668">
        <ele>83.213</ele>
        <time>2018-12-30T10:53:43Z</time>
      </trkpt>
      <trkpt lat="37.429922" lon="-8.772668">
        <ele>82.314</ele>
        <time>2018-12-30T10:53:52Z</time>
      </trkpt>
      <trkpt lat="37.429947" lon="-8.772657">
        <ele>81.808</ele>
        <time>2018-12-30T10:53:55Z</time>
      </trkpt>
      <trkpt lat="37.430073" lon="-8.772567">
        <ele>80.470</ele>
        <time>2018-12-30T10:54:08Z</time>
      </trkpt>
      <trkpt lat="37.430122" lon="-8.772542">
        <ele>79.998</ele>
        <time>2018-12-30T10:54:12Z</time>
      </trkpt>
      <trkpt lat="37.430136" lon="-8.772523">
        <ele>79.455</ele>
        <time>2018-12-30T10:54:14Z</time>
      </trkpt>
      <trkpt lat="37.430182" lon="-8.772511">
        <ele>78.480</ele>
        <time>2018-12-30T10:54:27Z</time>
      </trkpt>
      <trkpt lat="37.430182" lon="-8.772511">
        <ele>78.946</ele>
        <time>2018-12-30T10:54:30Z</time>
      </trkpt>
      <trkpt lat="37.430212" lon="-8.772476">
        <ele>78.483</ele>
        <time>2018-12-30T10:54:34Z</time>
      </trkpt>
      <trkpt lat="37.430294" lon="-8.772394">
        <ele>76.048</ele>
        <time>2018-12-30T10:54:46Z</time>
      </trkpt>
      <trkpt lat="37.430301" lon="-8.772393">
        <ele>76.559</ele>
        <time>2018-12-30T10:55:07Z</time>
      </trkpt>
      <trkpt lat="37.430334" lon="-8.772384">
        <ele>76.081</ele>
        <time>2018-12-30T10:55:10Z</time>
      </trkpt>
      <trkpt lat="37.430389" lon="-8.772336">
        <ele>74.661</ele>
        <time>2018-12-30T10:55:16Z</time>
      </trkpt>
      <trkpt lat="37.430448" lon="-8.772294">
        <ele>73.217</ele>
        <time>2018-12-30T10:55:22Z</time>
      </trkpt>
      <trkpt lat="37.430475" lon="-8.772272">
        <ele>72.708</ele>
        <time>2018-12-30T10:55:25Z</time>
      </trkpt>
      <trkpt lat="37.430509" lon="-8.772250">
        <ele>71.771</ele>
        <time>2018-12-30T10:55:28Z</time>
      </trkpt>
      <trkpt lat="37.430623" lon="-8.772147">
        <ele>70.779</ele>
        <time>2018-12-30T10:55:42Z</time>
      </trkpt>
      <trkpt lat="37.430683" lon="-8.772086">
        <ele>68.886</ele>
        <time>2018-12-30T10:55:53Z</time>
      </trkpt>
      <trkpt lat="37.430700" lon="-8.772071">
        <ele>68.891</ele>
        <time>2018-12-30T10:55:55Z</time>
      </trkpt>
      <trkpt lat="37.430720" lon="-8.772064">
        <ele>68.857</ele>
        <time>2018-12-30T10:55:57Z</time>
      </trkpt>
      <trkpt lat="37.430743" lon="-8.772058">
        <ele>68.894</ele>
        <time>2018-12-30T10:55:59Z</time>
      </trkpt>
      <trkpt lat="37.430800" lon="-8.771991">
        <ele>67.939</ele>
        <time>2018-12-30T10:56:06Z</time>
      </trkpt>
      <trkpt lat="37.430858" lon="-8.771929">
        <ele>66.420</ele>
        <time>2018-12-30T10:56:14Z</time>
      </trkpt>
      <trkpt lat="37.430937" lon="-8.771906">
        <ele>66.961</ele>
        <time>2018-12-30T10:56:28Z</time>
      </trkpt>
      <trkpt lat="37.430951" lon="-8.771900">
        <ele>66.921</ele>
        <time>2018-12-30T10:56:40Z</time>
      </trkpt>
      <trkpt lat="37.430933" lon="-8.771902">
        <ele>67.413</ele>
        <time>2018-12-30T10:56:54Z</time>
      </trkpt>
      <trkpt lat="37.430933" lon="-8.771902">
        <ele>66.908</ele>
        <time>2018-12-30T10:57:01Z</time>
      </trkpt>
      <trkpt lat="37.430978" lon="-8.771893">
        <ele>67.979</ele>
        <time>2018-12-30T10:57:12Z</time>
      </trkpt>
      <trkpt lat="37.430981" lon="-8.771898">
        <ele>67.927</ele>
        <time>2018-12-30T10:57:18Z</time>
      </trkpt>
      <trkpt lat="37.431011" lon="-8.771877">
        <ele>67.964</ele>
        <time>2018-12-30T10:57:32Z</time>
      </trkpt>
      <trkpt lat="37.431024" lon="-8.771860">
        <ele>68.359</ele>
        <time>2018-12-30T10:57:34Z</time>
      </trkpt>
      <trkpt lat="37.431041" lon="-8.771847">
        <ele>68.845</ele>
        <time>2018-12-30T10:57:36Z</time>
      </trkpt>
      <trkpt lat="37.431095" lon="-8.771797">
        <ele>71.752</ele>
        <time>2018-12-30T10:57:48Z</time>
      </trkpt>
      <trkpt lat="37.431095" lon="-8.771797">
        <ele>72.297</ele>
        <time>2018-12-30T10:57:52Z</time>
      </trkpt>
      <trkpt lat="37.431117" lon="-8.771802">
        <ele>71.748</ele>
        <time>2018-12-30T10:57:54Z</time>
      </trkpt>
      <trkpt lat="37.431164" lon="-8.771814">
        <ele>71.731</ele>
        <time>2018-12-30T10:57:59Z</time>
      </trkpt>
      <trkpt lat="37.431189" lon="-8.771812">
        <ele>71.761</ele>
        <time>2018-12-30T10:58:02Z</time>
      </trkpt>
      <trkpt lat="37.431217" lon="-8.771778">
        <ele>71.707</ele>
        <time>2018-12-30T10:58:06Z</time>
      </trkpt>
      <trkpt lat="37.431228" lon="-8.771745">
        <ele>71.208</ele>
        <time>2018-12-30T10:58:08Z</time>
      </trkpt>
      <trkpt lat="37.431227" lon="-8.771688">
        <ele>72.796</ele>
        <time>2018-12-30T10:58:16Z</time>
      </trkpt>
      <trkpt lat="37.431257" lon="-8.771701">
        <ele>72.214</ele>
        <time>2018-12-30T10:58:20Z</time>
      </trkpt>
      <trkpt lat="37.431303" lon="-8.771824">
        <ele>69.391</ele>
        <time>2018-12-30T10:58:32Z</time>
      </trkpt>
      <trkpt lat="37.431318" lon="-8.771850">
        <ele>68.366</ele>
        <time>2018-12-30T10:58:36Z</time>
      </trkpt>
      <trkpt lat="37.431358" lon="-8.771817">
        <ele>67.982</ele>
        <time>2018-12-30T10:58:45Z</time>
      </trkpt>
      <trkpt lat="37.431383" lon="-8.771790">
        <ele>67.979</ele>
        <time>2018-12-30T10:58:48Z</time>
      </trkpt>
      <trkpt lat="37.431431" lon="-8.771776">
        <ele>68.314</ele>
        <time>2018-12-30T10:59:01Z</time>
      </trkpt>
      <trkpt lat="37.431435" lon="-8.771770">
        <ele>67.495</ele>
        <time>2018-12-30T10:59:13Z</time>
      </trkpt>
      <trkpt lat="37.431435" lon="-8.771773">
        <ele>66.969</ele>
        <time>2018-12-30T10:59:33Z</time>
      </trkpt>
      <trkpt lat="37.431435" lon="-8.771773">
        <ele>66.904</ele>
        <time>2018-12-30T11:00:03Z</time>
      </trkpt>
      <trkpt lat="37.431435" lon="-8.771773">
        <ele>66.924</ele>
        <time>2018-12-30T11:00:28Z</time>
      </trkpt>
      <trkpt lat="37.431435" lon="-8.771774">
        <ele>67.408</ele>
        <time>2018-12-30T11:01:03Z</time>
      </trkpt>
      <trkpt lat="37.431434" lon="-8.771774">
        <ele>67.419</ele>
        <time>2018-12-30T11:01:36Z</time>
      </trkpt>
      <trkpt lat="37.431434" lon="-8.771774">
        <ele>66.937</ele>
        <time>2018-12-30T11:02:10Z</time>
      </trkpt>
      <trkpt lat="37.431434" lon="-8.771773">
        <ele>66.994</ele>
        <time>2018-12-30T11:02:40Z</time>
      </trkpt>
      <trkpt lat="37.431434" lon="-8.771773">
        <ele>66.919</ele>
        <time>2018-12-30T11:03:07Z</time>
      </trkpt>
      <trkpt lat="37.431433" lon="-8.771772">
        <ele>67.475</ele>
        <time>2018-12-30T11:03:32Z</time>
      </trkpt>
      <trkpt lat="37.431435" lon="-8.771775">
        <ele>67.922</ele>
        <time>2018-12-30T11:03:58Z</time>
      </trkpt>
      <trkpt lat="37.431435" lon="-8.771775">
        <ele>67.487</ele>
        <time>2018-12-30T11:04:25Z</time>
      </trkpt>
      <trkpt lat="37.431436" lon="-8.771777">
        <ele>67.428</ele>
        <time>2018-12-30T11:04:51Z</time>
      </trkpt>
      <trkpt lat="37.431435" lon="-8.771779">
        <ele>67.966</ele>
        <time>2018-12-30T11:05:14Z</time>
      </trkpt>
      <trkpt lat="37.431435" lon="-8.771779">
        <ele>67.929</ele>
        <time>2018-12-30T11:05:44Z</time>
      </trkpt>
      <trkpt lat="37.431429" lon="-8.771758">
        <ele>67.921</ele>
        <time>2018-12-30T11:06:18Z</time>
      </trkpt>
      <trkpt lat="37.431433" lon="-8.771762">
        <ele>67.908</ele>
        <time>2018-12-30T11:06:54Z</time>
      </trkpt>
      <trkpt lat="37.431435" lon="-8.771766">
        <ele>67.429</ele>
        <time>2018-12-30T11:07:29Z</time>
      </trkpt>
      <trkpt lat="37.431433" lon="-8.771769">
        <ele>68.387</ele>
        <time>2018-12-30T11:08:09Z</time>
      </trkpt>
      <trkpt lat="37.431432" lon="-8.771768">
        <ele>67.954</ele>
        <time>2018-12-30T11:08:47Z</time>
      </trkpt>
      <trkpt lat="37.431429" lon="-8.771766">
        <ele>68.399</ele>
        <time>2018-12-30T11:09:19Z</time>
      </trkpt>
      <trkpt lat="37.431449" lon="-8.771794">
        <ele>68.315</ele>
        <time>2018-12-30T11:09:35Z</time>
      </trkpt>
      <trkpt lat="37.431499" lon="-8.771782">
        <ele>66.472</ele>
        <time>2018-12-30T11:09:47Z</time>
      </trkpt>
      <trkpt lat="37.431539" lon="-8.771804">
        <ele>65.017</ele>
        <time>2018-12-30T11:09:58Z</time>
      </trkpt>
      <trkpt lat="37.431579" lon="-8.771867">
        <ele>63.158</ele>
        <time>2018-12-30T11:10:10Z</time>
      </trkpt>
      <trkpt lat="37.431600" lon="-8.771919">
        <ele>62.166</ele>
        <time>2018-12-30T11:10:22Z</time>
      </trkpt>
      <trkpt lat="37.431637" lon="-8.771972">
        <ele>60.729</ele>
        <time>2018-12-30T11:10:33Z</time>
      </trkpt>
      <trkpt lat="37.431671" lon="-8.772045">
        <ele>57.821</ele>
        <time>2018-12-30T11:10:42Z</time>
      </trkpt>
      <trkpt lat="37.431708" lon="-8.772069">
        <ele>57.308</ele>
        <time>2018-12-30T11:10:46Z</time>
      </trkpt>
      <trkpt lat="37.431869" lon="-8.772040">
        <ele>53.439</ele>
        <time>2018-12-30T11:11:00Z</time>
      </trkpt>
      <trkpt lat="37.431961" lon="-8.771991">
        <ele>51.567</ele>
        <time>2018-12-30T11:11:10Z</time>
      </trkpt>
      <trkpt lat="37.432044" lon="-8.771950">
        <ele>50.644</ele>
        <time>2018-12-30T11:11:18Z</time>
      </trkpt>
      <trkpt lat="37.432074" lon="-8.771936">
        <ele>50.139</ele>
        <time>2018-12-30T11:11:21Z</time>
      </trkpt>
      <trkpt lat="37.432124" lon="-8.771918">
        <ele>48.635</ele>
        <time>2018-12-30T11:11:27Z</time>
      </trkpt>
      <trkpt lat="37.432143" lon="-8.771879">
        <ele>48.222</ele>
        <time>2018-12-30T11:11:31Z</time>
      </trkpt>
      <trkpt lat="37.432089" lon="-8.771722">
        <ele>46.217</ele>
        <time>2018-12-30T11:11:44Z</time>
      </trkpt>
      <trkpt lat="37.432098" lon="-8.771692">
        <ele>45.348</ele>
        <time>2018-12-30T11:11:50Z</time>
      </trkpt>
      <trkpt lat="37.432083" lon="-8.771670">
        <ele>45.399</ele>
        <time>2018-12-30T11:11:52Z</time>
      </trkpt>
      <trkpt lat="37.432066" lon="-8.771644">
        <ele>45.807</ele>
        <time>2018-12-30T11:11:55Z</time>
      </trkpt>
      <trkpt lat="37.432037" lon="-8.771614">
        <ele>46.227</ele>
        <time>2018-12-30T11:11:58Z</time>
      </trkpt>
      <trkpt lat="37.431947" lon="-8.771516">
        <ele>48.608</ele>
        <time>2018-12-30T11:12:09Z</time>
      </trkpt>
      <trkpt lat="37.431911" lon="-8.771469">
        <ele>49.612</ele>
        <time>2018-12-30T11:12:15Z</time>
      </trkpt>
      <trkpt lat="37.431862" lon="-8.771404">
        <ele>49.640</ele>
        <time>2018-12-30T11:12:26Z</time>
      </trkpt>
      <trkpt lat="37.431866" lon="-8.771378">
        <ele>48.287</ele>
        <time>2018-12-30T11:12:30Z</time>
      </trkpt>
      <trkpt lat="37.431925" lon="-8.771417">
        <ele>46.782</ele>
        <time>2018-12-30T11:12:37Z</time>
      </trkpt>
      <trkpt lat="37.431963" lon="-8.771374">
        <ele>46.218</ele>
        <time>2018-12-30T11:12:42Z</time>
      </trkpt>
      <trkpt lat="37.432012" lon="-8.771365">
        <ele>44.365</ele>
        <time>2018-12-30T11:12:47Z</time>
      </trkpt>
      <trkpt lat="37.432029" lon="-8.771351">
        <ele>43.850</ele>
        <time>2018-12-30T11:12:49Z</time>
      </trkpt>
      <trkpt lat="37.432034" lon="-8.771343">
        <ele>43.411</ele>
        <time>2018-12-30T11:12:50Z</time>
      </trkpt>
      <trkpt lat="37.432059" lon="-8.771331">
        <ele>42.946</ele>
        <time>2018-12-30T11:12:53Z</time>
      </trkpt>
      <trkpt lat="37.432109" lon="-8.771289">
        <ele>41.988</ele>
        <time>2018-12-30T11:13:08Z</time>
      </trkpt>
      <trkpt lat="37.432141" lon="-8.771261">
        <ele>40.016</ele>
        <time>2018-12-30T11:13:13Z</time>
      </trkpt>
      <trkpt lat="37.432177" lon="-8.771245">
        <ele>38.508</ele>
        <time>2018-12-30T11:13:17Z</time>
      </trkpt>
      <trkpt lat="37.432223" lon="-8.771220">
        <ele>37.197</ele>
        <time>2018-12-30T11:13:27Z</time>
      </trkpt>
      <trkpt lat="37.432259" lon="-8.771213">
        <ele>36.125</ele>
        <time>2018-12-30T11:13:31Z</time>
      </trkpt>
      <trkpt lat="37.432316" lon="-8.771199">
        <ele>35.252</ele>
        <time>2018-12-30T11:13:40Z</time>
      </trkpt>
      <trkpt lat="37.432350" lon="-8.771220">
        <ele>32.857</ele>
        <time>2018-12-30T11:13:45Z</time>
      </trkpt>
      <trkpt lat="37.432377" lon="-8.771203">
        <ele>31.863</ele>
        <time>2018-12-30T11:13:49Z</time>
      </trkpt>
      <trkpt lat="37.432393" lon="-8.771163">
        <ele>31.860</ele>
        <time>2018-12-30T11:13:52Z</time>
      </trkpt>
      <trkpt lat="37.432396" lon="-8.771116">
        <ele>31.315</ele>
        <time>2018-12-30T11:13:55Z</time>
      </trkpt>
      <trkpt lat="37.432403" lon="-8.771062">
        <ele>31.396</ele>
        <time>2018-12-30T11:13:59Z</time>
      </trkpt>
      <trkpt lat="37.432411" lon="-8.771034">
        <ele>31.313</ele>
        <time>2018-12-30T11:14:01Z</time>
      </trkpt>
      <trkpt lat="37.432405" lon="-8.771003">
        <ele>31.343</ele>
        <time>2018-12-30T11:14:03Z</time>
      </trkpt>
      <trkpt lat="37.432385" lon="-8.770829">
        <ele>31.307</ele>
        <time>2018-12-30T11:14:15Z</time>
      </trkpt>
      <trkpt lat="37.432371" lon="-8.770784">
        <ele>31.308</ele>
        <time>2018-12-30T11:14:18Z</time>
      </trkpt>
      <trkpt lat="37.432367" lon="-8.770757">
        <ele>31.374</ele>
        <time>2018-12-30T11:14:20Z</time>
      </trkpt>
      <trkpt lat="37.432359" lon="-8.770734">
        <ele>31.372</ele>
        <time>2018-12-30T11:14:22Z</time>
      </trkpt>
      <trkpt lat="37.432329" lon="-8.770624">
        <ele>28.039</ele>
        <time>2018-12-30T11:14:34Z</time>
      </trkpt>
      <trkpt lat="37.432346" lon="-8.770611">
        <ele>27.034</ele>
        <time>2018-12-30T11:14:36Z</time>
      </trkpt>
      <trkpt lat="37.432365" lon="-8.770583">
        <ele>26.550</ele>
        <time>2018-12-30T11:14:39Z</time>
      </trkpt>
      <trkpt lat="37.432379" lon="-8.770564">
        <ele>25.157</ele>
        <time>2018-12-30T11:14:41Z</time>
      </trkpt>
      <trkpt lat="37.432415" lon="-8.770523">
        <ele>24.642</ele>
        <time>2018-12-30T11:14:49Z</time>
      </trkpt>
      <trkpt lat="37.432424" lon="-8.770496">
        <ele>24.153</ele>
        <time>2018-12-30T11:14:51Z</time>
      </trkpt>
      <trkpt lat="37.432451" lon="-8.770474">
        <ele>23.698</ele>
        <time>2018-12-30T11:14:54Z</time>
      </trkpt>
      <trkpt lat="37.432471" lon="-8.770469">
        <ele>23.615</ele>
        <time>2018-12-30T11:14:56Z</time>
      </trkpt>
      <trkpt lat="37.432561" lon="-8.770421">
        <ele>21.726</ele>
        <time>2018-12-30T11:15:06Z</time>
      </trkpt>
      <trkpt lat="37.432712" lon="-8.770373">
        <ele>18.408</ele>
        <time>2018-12-30T11:15:18Z</time>
      </trkpt>
      <trkpt lat="37.432927" lon="-8.770313">
        <ele>16.932</ele>
        <time>2018-12-30T11:15:34Z</time>
      </trkpt>
      <trkpt lat="37.433084" lon="-8.770284">
        <ele>16.090</ele>
        <time>2018-12-30T11:15:47Z</time>
      </trkpt>
      <trkpt lat="37.433102" lon="-8.770289">
        <ele>16.067</ele>
        <time>2018-12-30T11:15:49Z</time>
      </trkpt>
      <trkpt lat="37.433113" lon="-8.770292">
        <ele>15.582</ele>
        <time>2018-12-30T11:15:51Z</time>
      </trkpt>
      <trkpt lat="37.433125" lon="-8.770307">
        <ele>15.538</ele>
        <time>2018-12-30T11:15:53Z</time>
      </trkpt>
      <trkpt lat="37.433214" lon="-8.770256">
        <ele>15.525</ele>
        <time>2018-12-30T11:16:06Z</time>
      </trkpt>
      <trkpt lat="37.433225" lon="-8.770247">
        <ele>15.530</ele>
        <time>2018-12-30T11:16:17Z</time>
      </trkpt>
      <trkpt lat="37.433241" lon="-8.770227">
        <ele>15.581</ele>
        <time>2018-12-30T11:16:30Z</time>
      </trkpt>
      <trkpt lat="37.433265" lon="-8.770211">
        <ele>15.031</ele>
        <time>2018-12-30T11:16:33Z</time>
      </trkpt>
      <trkpt lat="37.433298" lon="-8.770199">
        <ele>15.061</ele>
        <time>2018-12-30T11:16:36Z</time>
      </trkpt>
      <trkpt lat="37.433326" lon="-8.770169">
        <ele>15.007</ele>
        <time>2018-12-30T11:16:40Z</time>
      </trkpt>
      <trkpt lat="37.433358" lon="-8.770124">
        <ele>14.508</ele>
        <time>2018-12-30T11:16:45Z</time>
      </trkpt>
      <trkpt lat="37.433407" lon="-8.770050">
        <ele>15.016</ele>
        <time>2018-12-30T11:17:00Z</time>
      </trkpt>
      <trkpt lat="37.433409" lon="-8.770047">
        <ele>15.044</ele>
        <time>2018-12-30T11:17:05Z</time>
      </trkpt>
      <trkpt lat="37.433444" lon="-8.770004">
        <ele>15.061</ele>
        <time>2018-12-30T11:17:09Z</time>
      </trkpt>
      <trkpt lat="37.433474" lon="-8.769960">
        <ele>15.066</ele>
        <time>2018-12-30T11:17:13Z</time>
      </trkpt>
      <trkpt lat="37.433499" lon="-8.769934">
        <ele>15.072</ele>
        <time>2018-12-30T11:17:16Z</time>
      </trkpt>
      <trkpt lat="37.433581" lon="-8.769788">
        <ele>14.099</ele>
        <time>2018-12-30T11:17:27Z</time>
      </trkpt>
      <trkpt lat="37.433631" lon="-8.769677">
        <ele>14.534</ele>
        <time>2018-12-30T11:17:39Z</time>
      </trkpt>
      <trkpt lat="37.433631" lon="-8.769677">
        <ele>14.595</ele>
        <time>2018-12-30T11:17:41Z</time>
      </trkpt>
      <trkpt lat="37.433637" lon="-8.769647">
        <ele>13.623</ele>
        <time>2018-12-30T11:17:43Z</time>
      </trkpt>
      <trkpt lat="37.433657" lon="-8.769624">
        <ele>13.683</ele>
        <time>2018-12-30T11:17:46Z</time>
      </trkpt>
      <trkpt lat="37.433707" lon="-8.769558">
        <ele>14.011</ele>
        <time>2018-12-30T11:17:58Z</time>
      </trkpt>
      <trkpt lat="37.433730" lon="-8.769559">
        <ele>13.108</ele>
        <time>2018-12-30T11:18:04Z</time>
      </trkpt>
      <trkpt lat="37.433818" lon="-8.769529">
        <ele>12.635</ele>
        <time>2018-12-30T11:18:10Z</time>
      </trkpt>
      <trkpt lat="37.434023" lon="-8.769483">
        <ele>11.183</ele>
        <time>2018-12-30T11:18:25Z</time>
      </trkpt>
      <trkpt lat="37.434198" lon="-8.769453">
        <ele>12.120</ele>
        <time>2018-12-30T11:18:39Z</time>
      </trkpt>
      <trkpt lat="37.434220" lon="-8.769455">
        <ele>12.125</ele>
        <time>2018-12-30T11:18:51Z</time>
      </trkpt>
      <trkpt lat="37.434215" lon="-8.769468">
        <ele>11.661</ele>
        <time>2018-12-30T11:19:03Z</time>
      </trkpt>
      <trkpt lat="37.434216" lon="-8.769480">
        <ele>12.698</ele>
        <time>2018-12-30T11:19:17Z</time>
      </trkpt>
      <trkpt lat="37.434238" lon="-8.769430">
        <ele>11.183</ele>
        <time>2018-12-30T11:19:31Z</time>
      </trkpt>
      <trkpt lat="37.434243" lon="-8.769406">
        <ele>10.764</ele>
        <time>2018-12-30T11:19:40Z</time>
      </trkpt>
      <trkpt lat="37.434238" lon="-8.769452">
        <ele>12.193</ele>
        <time>2018-12-30T11:19:53Z</time>
      </trkpt>
      <trkpt lat="37.434239" lon="-8.769440">
        <ele>11.665</ele>
        <time>2018-12-30T11:19:57Z</time>
      </trkpt>
      <trkpt lat="37.434217" lon="-8.769312">
        <ele>11.621</ele>
        <time>2018-12-30T11:20:06Z</time>
      </trkpt>
      <trkpt lat="37.434212" lon="-8.769285">
        <ele>12.108</ele>
        <time>2018-12-30T11:20:08Z</time>
      </trkpt>
      <trkpt lat="37.434226" lon="-8.769214">
        <ele>12.142</ele>
        <time>2018-12-30T11:20:13Z</time>
      </trkpt>
      <trkpt lat="37.434212" lon="-8.769148">
        <ele>12.650</ele>
        <time>2018-12-30T11:20:18Z</time>
      </trkpt>
      <trkpt lat="37.434214" lon="-8.769117">
        <ele>13.137</ele>
        <time>2018-12-30T11:20:20Z</time>
      </trkpt>
      <trkpt lat="37.434220" lon="-8.769026">
        <ele>13.182</ele>
        <time>2018-12-30T11:20:26Z</time>
      </trkpt>
      <trkpt lat="37.434196" lon="-8.768901">
        <ele>14.598</ele>
        <time>2018-12-30T11:20:34Z</time>
      </trkpt>
      <trkpt lat="37.434208" lon="-8.768842">
        <ele>15.065</ele>
        <time>2018-12-30T11:20:38Z</time>
      </trkpt>
      <trkpt lat="37.434212" lon="-8.768792">
        <ele>15.560</ele>
        <time>2018-12-30T11:20:41Z</time>
      </trkpt>
      <trkpt lat="37.434246" lon="-8.768617">
        <ele>16.091</ele>
        <time>2018-12-30T11:20:51Z</time>
      </trkpt>
      <trkpt lat="37.434265" lon="-8.768466">
        <ele>14.581</ele>
        <time>2018-12-30T11:21:00Z</time>
      </trkpt>
      <trkpt lat="37.434251" lon="-8.768371">
        <ele>15.561</ele>
        <time>2018-12-30T11:21:06Z</time>
      </trkpt>
      <trkpt lat="37.434249" lon="-8.768321">
        <ele>16.017</ele>
        <time>2018-12-30T11:21:09Z</time>
      </trkpt>
      <trkpt lat="37.434248" lon="-8.768159">
        <ele>16.008</ele>
        <time>2018-12-30T11:21:19Z</time>
      </trkpt>
      <trkpt lat="37.434251" lon="-8.768045">
        <ele>15.591</ele>
        <time>2018-12-30T11:21:26Z</time>
      </trkpt>
      <trkpt lat="37.434238" lon="-8.767897">
        <ele>14.549</ele>
        <time>2018-12-30T11:21:35Z</time>
      </trkpt>
      <trkpt lat="37.434205" lon="-8.767750">
        <ele>16.076</ele>
        <time>2018-12-30T11:21:44Z</time>
      </trkpt>
      <trkpt lat="37.434146" lon="-8.767539">
        <ele>16.051</ele>
        <time>2018-12-30T11:21:58Z</time>
      </trkpt>
      <trkpt lat="37.434072" lon="-8.767368">
        <ele>15.017</ele>
        <time>2018-12-30T11:22:10Z</time>
      </trkpt>
      <trkpt lat="37.434057" lon="-8.767342">
        <ele>14.524</ele>
        <time>2018-12-30T11:22:12Z</time>
      </trkpt>
      <trkpt lat="37.434038" lon="-8.767312">
        <ele>15.079</ele>
        <time>2018-12-30T11:22:14Z</time>
      </trkpt>
      <trkpt lat="37.433971" lon="-8.767210">
        <ele>14.580</ele>
        <time>2018-12-30T11:22:22Z</time>
      </trkpt>
      <trkpt lat="37.433915" lon="-8.767110">
        <ele>14.513</ele>
        <time>2018-12-30T11:22:29Z</time>
      </trkpt>
      <trkpt lat="37.433873" lon="-8.767036">
        <ele>14.543</ele>
        <time>2018-12-30T11:22:35Z</time>
      </trkpt>
      <trkpt lat="37.433851" lon="-8.766977">
        <ele>15.007</ele>
        <time>2018-12-30T11:22:39Z</time>
      </trkpt>
      <trkpt lat="37.433771" lon="-8.766828">
        <ele>16.408</ele>
        <time>2018-12-30T11:22:50Z</time>
      </trkpt>
      <trkpt lat="37.433748" lon="-8.766765">
        <ele>16.474</ele>
        <time>2018-12-30T11:22:55Z</time>
      </trkpt>
      <trkpt lat="37.433709" lon="-8.766707">
        <ele>16.462</ele>
        <time>2018-12-30T11:23:00Z</time>
      </trkpt>
      <trkpt lat="37.433675" lon="-8.766619">
        <ele>15.599</ele>
        <time>2018-12-30T11:23:06Z</time>
      </trkpt>
      <trkpt lat="37.433669" lon="-8.766606">
        <ele>15.524</ele>
        <time>2018-12-30T11:23:07Z</time>
      </trkpt>
      <trkpt lat="37.433676" lon="-8.766405">
        <ele>16.450</ele>
        <time>2018-12-30T11:23:20Z</time>
      </trkpt>
      <trkpt lat="37.433695" lon="-8.766367">
        <ele>16.947</ele>
        <time>2018-12-30T11:23:32Z</time>
      </trkpt>
      <trkpt lat="37.433696" lon="-8.766364">
        <ele>16.472</ele>
        <time>2018-12-30T11:23:42Z</time>
      </trkpt>
      <trkpt lat="37.433677" lon="-8.766322">
        <ele>16.063</ele>
        <time>2018-12-30T11:23:45Z</time>
      </trkpt>
      <trkpt lat="37.433622" lon="-8.766247">
        <ele>15.584</ele>
        <time>2018-12-30T11:23:51Z</time>
      </trkpt>
      <trkpt lat="37.433572" lon="-8.766200">
        <ele>15.507</ele>
        <time>2018-12-30T11:23:55Z</time>
      </trkpt>
      <trkpt lat="37.433502" lon="-8.766087">
        <ele>15.517</ele>
        <time>2018-12-30T11:24:04Z</time>
      </trkpt>
      <trkpt lat="37.433476" lon="-8.766055">
        <ele>15.008</ele>
        <time>2018-12-30T11:24:07Z</time>
      </trkpt>
      <trkpt lat="37.433443" lon="-8.765997">
        <ele>15.011</ele>
        <time>2018-12-30T11:24:12Z</time>
      </trkpt>
      <trkpt lat="37.433410" lon="-8.765920">
        <ele>14.559</ele>
        <time>2018-12-30T11:24:18Z</time>
      </trkpt>
      <trkpt lat="37.433338" lon="-8.765773">
        <ele>14.046</ele>
        <time>2018-12-30T11:24:29Z</time>
      </trkpt>
      <trkpt lat="37.433297" lon="-8.765641">
        <ele>12.631</ele>
        <time>2018-12-30T11:24:38Z</time>
      </trkpt>
      <trkpt lat="37.433266" lon="-8.765582">
        <ele>12.697</ele>
        <time>2018-12-30T11:24:42Z</time>
      </trkpt>
      <trkpt lat="37.433195" lon="-8.765406">
        <ele>11.654</ele>
        <time>2018-12-30T11:24:55Z</time>
      </trkpt>
      <trkpt lat="37.433183" lon="-8.765368">
        <ele>10.719</ele>
        <time>2018-12-30T11:24:58Z</time>
      </trkpt>
      <trkpt lat="37.433128" lon="-8.765245">
        <ele>10.280</ele>
        <time>2018-12-30T11:25:07Z</time>
      </trkpt>
      <trkpt lat="37.433068" lon="-8.765078">
        <ele>10.722</ele>
        <time>2018-12-30T11:25:18Z</time>
      </trkpt>
      <trkpt lat="37.433013" lon="-8.764947">
        <ele>11.162</ele>
        <time>2018-12-30T11:25:27Z</time>
      </trkpt>
      <trkpt lat="37.432940" lon="-8.764825">
        <ele>11.108</ele>
        <time>2018-12-30T11:25:36Z</time>
      </trkpt>
      <trkpt lat="37.432925" lon="-8.764785">
        <ele>10.708</ele>
        <time>2018-12-30T11:25:39Z</time>
      </trkpt>
      <trkpt lat="37.432831" lon="-8.764625">
        <ele>11.635</ele>
        <time>2018-12-30T11:25:51Z</time>
      </trkpt>
      <trkpt lat="37.432815" lon="-8.764598">
        <ele>11.643</ele>
        <time>2018-12-30T11:25:53Z</time>
      </trkpt>
      <trkpt lat="37.432787" lon="-8.764525">
        <ele>11.630</ele>
        <time>2018-12-30T11:25:58Z</time>
      </trkpt>
      <trkpt lat="37.432747" lon="-8.764452">
        <ele>11.685</ele>
        <time>2018-12-30T11:26:03Z</time>
      </trkpt>
      <trkpt lat="37.432738" lon="-8.764405">
        <ele>11.611</ele>
        <time>2018-12-30T11:26:06Z</time>
      </trkpt>
      <trkpt lat="37.432714" lon="-8.764262">
        <ele>11.188</ele>
        <time>2018-12-30T11:26:15Z</time>
      </trkpt>
      <trkpt lat="37.432704" lon="-8.764175">
        <ele>11.183</ele>
        <time>2018-12-30T11:26:21Z</time>
      </trkpt>
      <trkpt lat="37.432695" lon="-8.764140">
        <ele>10.754</ele>
        <time>2018-12-30T11:26:23Z</time>
      </trkpt>
      <trkpt lat="37.432694" lon="-8.764074">
        <ele>10.746</ele>
        <time>2018-12-30T11:26:27Z</time>
      </trkpt>
      <trkpt lat="37.432683" lon="-8.764046">
        <ele>11.188</ele>
        <time>2018-12-30T11:26:29Z</time>
      </trkpt>
      <trkpt lat="37.432671" lon="-8.763990">
        <ele>9.716</ele>
        <time>2018-12-30T11:26:33Z</time>
      </trkpt>
      <trkpt lat="37.432666" lon="-8.763942">
        <ele>11.108</ele>
        <time>2018-12-30T11:26:36Z</time>
      </trkpt>
      <trkpt lat="37.432665" lon="-8.763895">
        <ele>11.647</ele>
        <time>2018-12-30T11:26:39Z</time>
      </trkpt>
      <trkpt lat="37.432639" lon="-8.763847">
        <ele>12.115</ele>
        <time>2018-12-30T11:26:48Z</time>
      </trkpt>
      <trkpt lat="37.432585" lon="-8.763696">
        <ele>11.632</ele>
        <time>2018-12-30T11:26:59Z</time>
      </trkpt>
      <trkpt lat="37.432551" lon="-8.763650">
        <ele>11.687</ele>
        <time>2018-12-30T11:27:03Z</time>
      </trkpt>
      <trkpt lat="37.432527" lon="-8.763610">
        <ele>11.653</ele>
        <time>2018-12-30T11:27:06Z</time>
      </trkpt>
      <trkpt lat="37.432450" lon="-8.763502">
        <ele>11.660</ele>
        <time>2018-12-30T11:27:15Z</time>
      </trkpt>
      <trkpt lat="37.432324" lon="-8.763392">
        <ele>12.195</ele>
        <time>2018-12-30T11:27:28Z</time>
      </trkpt>
      <trkpt lat="37.432149" lon="-8.763331">
        <ele>12.676</ele>
        <time>2018-12-30T11:27:42Z</time>
      </trkpt>
      <trkpt lat="37.432126" lon="-8.763329">
        <ele>12.662</ele>
        <time>2018-12-30T11:27:44Z</time>
      </trkpt>
      <trkpt lat="37.432065" lon="-8.763321">
        <ele>12.683</ele>
        <time>2018-12-30T11:27:48Z</time>
      </trkpt>
      <trkpt lat="37.431990" lon="-8.763336">
        <ele>12.611</ele>
        <time>2018-12-30T11:27:55Z</time>
      </trkpt>
      <trkpt lat="37.431841" lon="-8.763265">
        <ele>13.108</ele>
        <time>2018-12-30T11:28:07Z</time>
      </trkpt>
      <trkpt lat="37.431821" lon="-8.763236">
        <ele>13.149</ele>
        <time>2018-12-30T11:28:10Z</time>
      </trkpt>
      <trkpt lat="37.431765" lon="-8.763083">
        <ele>13.187</ele>
        <time>2018-12-30T11:28:20Z</time>
      </trkpt>
      <trkpt lat="37.431774" lon="-8.763004">
        <ele>14.054</ele>
        <time>2018-12-30T11:28:25Z</time>
      </trkpt>
      <trkpt lat="37.431783" lon="-8.762974">
        <ele>14.089</ele>
        <time>2018-12-30T11:28:27Z</time>
      </trkpt>
      <trkpt lat="37.431791" lon="-8.762924">
        <ele>14.065</ele>
        <time>2018-12-30T11:28:31Z</time>
      </trkpt>
      <trkpt lat="37.431790" lon="-8.762895">
        <ele>14.512</ele>
        <time>2018-12-30T11:28:33Z</time>
      </trkpt>
      <trkpt lat="37.431798" lon="-8.762849">
        <ele>14.547</ele>
        <time>2018-12-30T11:28:36Z</time>
      </trkpt>
      <trkpt lat="37.431809" lon="-8.762709">
        <ele>13.638</ele>
        <time>2018-12-30T11:28:45Z</time>
      </trkpt>
      <trkpt lat="37.431788" lon="-8.762559">
        <ele>14.018</ele>
        <time>2018-12-30T11:28:55Z</time>
      </trkpt>
      <trkpt lat="37.431764" lon="-8.762486">
        <ele>14.098</ele>
        <time>2018-12-30T11:29:00Z</time>
      </trkpt>
      <trkpt lat="37.431697" lon="-8.762330">
        <ele>13.617</ele>
        <time>2018-12-30T11:29:11Z</time>
      </trkpt>
      <trkpt lat="37.431601" lon="-8.762219">
        <ele>14.008</ele>
        <time>2018-12-30T11:29:21Z</time>
      </trkpt>
      <trkpt lat="37.431441" lon="-8.762122">
        <ele>12.694</ele>
        <time>2018-12-30T11:29:35Z</time>
      </trkpt>
      <trkpt lat="37.431240" lon="-8.762103">
        <ele>12.142</ele>
        <time>2018-12-30T11:29:50Z</time>
      </trkpt>
      <trkpt lat="37.431074" lon="-8.762104">
        <ele>12.189</ele>
        <time>2018-12-30T11:30:04Z</time>
      </trkpt>
      <trkpt lat="37.430969" lon="-8.762089">
        <ele>11.184</ele>
        <time>2018-12-30T11:30:12Z</time>
      </trkpt>
      <trkpt lat="37.430926" lon="-8.762082">
        <ele>11.130</ele>
        <time>2018-12-30T11:30:15Z</time>
      </trkpt>
      <trkpt lat="37.430779" lon="-8.762047">
        <ele>11.667</ele>
        <time>2018-12-30T11:30:26Z</time>
      </trkpt>
      <trkpt lat="37.430621" lon="-8.761978">
        <ele>11.192</ele>
        <time>2018-12-30T11:30:39Z</time>
      </trkpt>
      <trkpt lat="37.430475" lon="-8.761869">
        <ele>10.753</ele>
        <time>2018-12-30T11:30:52Z</time>
      </trkpt>
      <trkpt lat="37.430390" lon="-8.761749">
        <ele>11.119</ele>
        <time>2018-12-30T11:31:03Z</time>
      </trkpt>
      <trkpt lat="37.430382" lon="-8.761734">
        <ele>11.109</ele>
        <time>2018-12-30T11:31:04Z</time>
      </trkpt>
      <trkpt lat="37.430368" lon="-8.761684">
        <ele>11.119</ele>
        <time>2018-12-30T11:31:08Z</time>
      </trkpt>
      <trkpt lat="37.430334" lon="-8.761617">
        <ele>11.108</ele>
        <time>2018-12-30T11:31:13Z</time>
      </trkpt>
      <trkpt lat="37.430283" lon="-8.761443">
        <ele>11.134</ele>
        <time>2018-12-30T11:31:25Z</time>
      </trkpt>
      <trkpt lat="37.430277" lon="-8.761390">
        <ele>11.192</ele>
        <time>2018-12-30T11:31:28Z</time>
      </trkpt>
      <trkpt lat="37.430251" lon="-8.761237">
        <ele>11.659</ele>
        <time>2018-12-30T11:31:38Z</time>
      </trkpt>
      <trkpt lat="37.430242" lon="-8.761194">
        <ele>10.214</ele>
        <time>2018-12-30T11:31:41Z</time>
      </trkpt>
      <trkpt lat="37.430227" lon="-8.761087">
        <ele>10.730</ele>
        <time>2018-12-30T11:31:48Z</time>
      </trkpt>
      <trkpt lat="37.430221" lon="-8.761054">
        <ele>10.717</ele>
        <time>2018-12-30T11:31:50Z</time>
      </trkpt>
      <trkpt lat="37.430199" lon="-8.760925">
        <ele>12.112</ele>
        <time>2018-12-30T11:31:59Z</time>
      </trkpt>
      <trkpt lat="37.430185" lon="-8.760854">
        <ele>11.143</ele>
        <time>2018-12-30T11:32:04Z</time>
      </trkpt>
      <trkpt lat="37.430165" lon="-8.760807">
        <ele>11.664</ele>
        <time>2018-12-30T11:32:07Z</time>
      </trkpt>
      <trkpt lat="37.430163" lon="-8.760775">
        <ele>10.706</ele>
        <time>2018-12-30T11:32:09Z</time>
      </trkpt>
      <trkpt lat="37.430142" lon="-8.760690">
        <ele>11.116</ele>
        <time>2018-12-30T11:32:15Z</time>
      </trkpt>
      <trkpt lat="37.430094" lon="-8.760536">
        <ele>11.608</ele>
        <time>2018-12-30T11:32:25Z</time>
      </trkpt>
      <trkpt lat="37.430092" lon="-8.760504">
        <ele>10.789</ele>
        <time>2018-12-30T11:32:27Z</time>
      </trkpt>
      <trkpt lat="37.430052" lon="-8.760386">
        <ele>10.247</ele>
        <time>2018-12-30T11:32:35Z</time>
      </trkpt>
      <trkpt lat="37.430031" lon="-8.760293">
        <ele>11.144</ele>
        <time>2018-12-30T11:32:41Z</time>
      </trkpt>
      <trkpt lat="37.430002" lon="-8.760207">
        <ele>12.119</ele>
        <time>2018-12-30T11:32:47Z</time>
      </trkpt>
      <trkpt lat="37.429986" lon="-8.760141">
        <ele>11.695</ele>
        <time>2018-12-30T11:32:51Z</time>
      </trkpt>
      <trkpt lat="37.429964" lon="-8.760103">
        <ele>13.132</ele>
        <time>2018-12-30T11:32:54Z</time>
      </trkpt>
      <trkpt lat="37.429946" lon="-8.760075">
        <ele>12.637</ele>
        <time>2018-12-30T11:32:56Z</time>
      </trkpt>
      <trkpt lat="37.429875" lon="-8.759949">
        <ele>13.178</ele>
        <time>2018-12-30T11:33:06Z</time>
      </trkpt>
      <trkpt lat="37.429853" lon="-8.759907">
        <ele>12.667</ele>
        <time>2018-12-30T11:33:09Z</time>
      </trkpt>
      <trkpt lat="37.429804" lon="-8.759822">
        <ele>14.581</ele>
        <time>2018-12-30T11:33:15Z</time>
      </trkpt>
      <trkpt lat="37.429785" lon="-8.759781">
        <ele>12.619</ele>
        <time>2018-12-30T11:33:18Z</time>
      </trkpt>
      <trkpt lat="37.429744" lon="-8.759728">
        <ele>12.608</ele>
        <time>2018-12-30T11:33:23Z</time>
      </trkpt>
      <trkpt lat="37.429663" lon="-8.759579">
        <ele>12.659</ele>
        <time>2018-12-30T11:33:34Z</time>
      </trkpt>
      <trkpt lat="37.429545" lon="-8.759397">
        <ele>13.127</ele>
        <time>2018-12-30T11:33:48Z</time>
      </trkpt>
      <trkpt lat="37.429497" lon="-8.759332">
        <ele>12.644</ele>
        <time>2018-12-30T11:33:53Z</time>
      </trkpt>
      <trkpt lat="37.429415" lon="-8.759191">
        <ele>13.129</ele>
        <time>2018-12-30T11:34:04Z</time>
      </trkpt>
      <trkpt lat="37.429399" lon="-8.759162">
        <ele>13.155</ele>
        <time>2018-12-30T11:34:06Z</time>
      </trkpt>
      <trkpt lat="37.429368" lon="-8.759112">
        <ele>13.142</ele>
        <time>2018-12-30T11:34:10Z</time>
      </trkpt>
      <trkpt lat="37.429286" lon="-8.758955">
        <ele>13.117</ele>
        <time>2018-12-30T11:34:22Z</time>
      </trkpt>
      <trkpt lat="37.429221" lon="-8.758832">
        <ele>13.118</ele>
        <time>2018-12-30T11:34:31Z</time>
      </trkpt>
      <trkpt lat="37.429199" lon="-8.758780">
        <ele>13.121</ele>
        <time>2018-12-30T11:34:35Z</time>
      </trkpt>
      <trkpt lat="37.429164" lon="-8.758720">
        <ele>13.141</ele>
        <time>2018-12-30T11:34:39Z</time>
      </trkpt>
      <trkpt lat="37.429092" lon="-8.758567">
        <ele>12.605</ele>
        <time>2018-12-30T11:34:50Z</time>
      </trkpt>
      <trkpt lat="37.429029" lon="-8.758438">
        <ele>13.108</ele>
        <time>2018-12-30T11:34:59Z</time>
      </trkpt>
      <trkpt lat="37.428997" lon="-8.758364">
        <ele>12.625</ele>
        <time>2018-12-30T11:35:04Z</time>
      </trkpt>
      <trkpt lat="37.428970" lon="-8.758253">
        <ele>13.163</ele>
        <time>2018-12-30T11:35:11Z</time>
      </trkpt>
      <trkpt lat="37.428941" lon="-8.758162">
        <ele>13.130</ele>
        <time>2018-12-30T11:35:17Z</time>
      </trkpt>
      <trkpt lat="37.428924" lon="-8.757955">
        <ele>13.145</ele>
        <time>2018-12-30T11:35:30Z</time>
      </trkpt>
      <trkpt lat="37.428928" lon="-8.757896">
        <ele>12.671</ele>
        <time>2018-12-30T11:35:34Z</time>
      </trkpt>
      <trkpt lat="37.428928" lon="-8.757781">
        <ele>13.138</ele>
        <time>2018-12-30T11:35:41Z</time>
      </trkpt>
      <trkpt lat="37.428959" lon="-8.757619">
        <ele>12.193</ele>
        <time>2018-12-30T11:35:51Z</time>
      </trkpt>
      <trkpt lat="37.428971" lon="-8.757593">
        <ele>12.184</ele>
        <time>2018-12-30T11:35:53Z</time>
      </trkpt>
      <trkpt lat="37.429017" lon="-8.757474">
        <ele>12.187</ele>
        <time>2018-12-30T11:36:01Z</time>
      </trkpt>
      <trkpt lat="37.429084" lon="-8.757322">
        <ele>11.642</ele>
        <time>2018-12-30T11:36:12Z</time>
      </trkpt>
      <trkpt lat="37.429104" lon="-8.757263">
        <ele>11.626</ele>
        <time>2018-12-30T11:36:16Z</time>
      </trkpt>
      <trkpt lat="37.429197" lon="-8.757095">
        <ele>11.108</ele>
        <time>2018-12-30T11:36:29Z</time>
      </trkpt>
      <trkpt lat="37.429298" lon="-8.756889">
        <ele>11.661</ele>
        <time>2018-12-30T11:36:44Z</time>
      </trkpt>
      <trkpt lat="37.429301" lon="-8.756875">
        <ele>11.659</ele>
        <time>2018-12-30T11:36:45Z</time>
      </trkpt>
      <trkpt lat="37.429322" lon="-8.756823">
        <ele>11.676</ele>
        <time>2018-12-30T11:36:48Z</time>
      </trkpt>
      <trkpt lat="37.429367" lon="-8.756664">
        <ele>11.131</ele>
        <time>2018-12-30T11:36:59Z</time>
      </trkpt>
      <trkpt lat="37.429406" lon="-8.756472">
        <ele>11.627</ele>
        <time>2018-12-30T11:37:11Z</time>
      </trkpt>
      <trkpt lat="37.429408" lon="-8.756457">
        <ele>11.194</ele>
        <time>2018-12-30T11:37:12Z</time>
      </trkpt>
      <trkpt lat="37.429423" lon="-8.756315">
        <ele>11.669</ele>
        <time>2018-12-30T11:37:21Z</time>
      </trkpt>
      <trkpt lat="37.429379" lon="-8.756209">
        <ele>11.620</ele>
        <time>2018-12-30T11:37:30Z</time>
      </trkpt>
      <trkpt lat="37.429363" lon="-8.756183">
        <ele>11.644</ele>
        <time>2018-12-30T11:37:32Z</time>
      </trkpt>
      <trkpt lat="37.429293" lon="-8.756089">
        <ele>11.605</ele>
        <time>2018-12-30T11:37:39Z</time>
      </trkpt>
      <trkpt lat="37.429273" lon="-8.756063">
        <ele>11.115</ele>
        <time>2018-12-30T11:37:41Z</time>
      </trkpt>
      <trkpt lat="37.429172" lon="-8.755924">
        <ele>11.608</ele>
        <time>2018-12-30T11:37:53Z</time>
      </trkpt>
      <trkpt lat="37.429105" lon="-8.755739">
        <ele>12.117</ele>
        <time>2018-12-30T11:38:05Z</time>
      </trkpt>
      <trkpt lat="37.429092" lon="-8.755715">
        <ele>12.185</ele>
        <time>2018-12-30T11:38:07Z</time>
      </trkpt>
      <trkpt lat="37.429103" lon="-8.755618">
        <ele>12.182</ele>
        <time>2018-12-30T11:38:13Z</time>
      </trkpt>
      <trkpt lat="37.429113" lon="-8.755586">
        <ele>12.697</ele>
        <time>2018-12-30T11:38:15Z</time>
      </trkpt>
      <trkpt lat="37.429106" lon="-8.755556">
        <ele>12.683</ele>
        <time>2018-12-30T11:38:17Z</time>
      </trkpt>
      <trkpt lat="37.429103" lon="-8.755371">
        <ele>12.640</ele>
        <time>2018-12-30T11:38:29Z</time>
      </trkpt>
      <trkpt lat="37.429113" lon="-8.755326">
        <ele>13.145</ele>
        <time>2018-12-30T11:38:32Z</time>
      </trkpt>
      <trkpt lat="37.429202" lon="-8.755151">
        <ele>13.646</ele>
        <time>2018-12-30T11:38:45Z</time>
      </trkpt>
      <trkpt lat="37.429374" lon="-8.755089">
        <ele>13.149</ele>
        <time>2018-12-30T11:39:00Z</time>
      </trkpt>
      <trkpt lat="37.429507" lon="-8.755150">
        <ele>13.102</ele>
        <time>2018-12-30T11:39:12Z</time>
      </trkpt>
      <trkpt lat="37.429561" lon="-8.755197">
        <ele>13.122</ele>
        <time>2018-12-30T11:39:17Z</time>
      </trkpt>
      <trkpt lat="37.429710" lon="-8.755261">
        <ele>13.108</ele>
        <time>2018-12-30T11:39:30Z</time>
      </trkpt>
      <trkpt lat="37.429843" lon="-8.755234">
        <ele>13.637</ele>
        <time>2018-12-30T11:39:42Z</time>
      </trkpt>
      <trkpt lat="37.429944" lon="-8.755068">
        <ele>13.155</ele>
        <time>2018-12-30T11:39:55Z</time>
      </trkpt>
      <trkpt lat="37.429991" lon="-8.754949">
        <ele>13.652</ele>
        <time>2018-12-30T11:40:03Z</time>
      </trkpt>
      <trkpt lat="37.430011" lon="-8.754875">
        <ele>14.077</ele>
        <time>2018-12-30T11:40:08Z</time>
      </trkpt>
      <trkpt lat="37.430043" lon="-8.754689">
        <ele>13.123</ele>
        <time>2018-12-30T11:40:20Z</time>
      </trkpt>
      <trkpt lat="37.430072" lon="-8.754533">
        <ele>12.620</ele>
        <time>2018-12-30T11:40:30Z</time>
      </trkpt>
      <trkpt lat="37.430081" lon="-8.754487">
        <ele>12.185</ele>
        <time>2018-12-30T11:40:33Z</time>
      </trkpt>
      <trkpt lat="37.430084" lon="-8.754419">
        <ele>12.186</ele>
        <time>2018-12-30T11:40:37Z</time>
      </trkpt>
      <trkpt lat="37.430138" lon="-8.754239">
        <ele>12.166</ele>
        <time>2018-12-30T11:40:49Z</time>
      </trkpt>
      <trkpt lat="37.430174" lon="-8.754051">
        <ele>12.129</ele>
        <time>2018-12-30T11:41:01Z</time>
      </trkpt>
      <trkpt lat="37.430182" lon="-8.754019">
        <ele>12.621</ele>
        <time>2018-12-30T11:41:03Z</time>
      </trkpt>
      <trkpt lat="37.430202" lon="-8.753946">
        <ele>12.108</ele>
        <time>2018-12-30T11:41:09Z</time>
      </trkpt>
      <trkpt lat="37.430221" lon="-8.753769">
        <ele>12.199</ele>
        <time>2018-12-30T11:41:20Z</time>
      </trkpt>
      <trkpt lat="37.430225" lon="-8.753655">
        <ele>12.157</ele>
        <time>2018-12-30T11:41:27Z</time>
      </trkpt>
      <trkpt lat="37.430253" lon="-8.753513">
        <ele>12.674</ele>
        <time>2018-12-30T11:41:37Z</time>
      </trkpt>
      <trkpt lat="37.430272" lon="-8.753355">
        <ele>12.179</ele>
        <time>2018-12-30T11:41:47Z</time>
      </trkpt>
      <trkpt lat="37.430261" lon="-8.753161">
        <ele>13.695</ele>
        <time>2018-12-30T11:41:58Z</time>
      </trkpt>
      <trkpt lat="37.430261" lon="-8.753101">
        <ele>13.142</ele>
        <time>2018-12-30T11:42:02Z</time>
      </trkpt>
      <trkpt lat="37.430247" lon="-8.752928">
        <ele>13.697</ele>
        <time>2018-12-30T11:42:15Z</time>
      </trkpt>
      <trkpt lat="37.430243" lon="-8.752857">
        <ele>14.048</ele>
        <time>2018-12-30T11:42:19Z</time>
      </trkpt>
      <trkpt lat="37.430227" lon="-8.752703">
        <ele>13.178</ele>
        <time>2018-12-30T11:42:29Z</time>
      </trkpt>
      <trkpt lat="37.430246" lon="-8.752660">
        <ele>13.133</ele>
        <time>2018-12-30T11:42:32Z</time>
      </trkpt>
      <trkpt lat="37.430255" lon="-8.752500">
        <ele>13.126</ele>
        <time>2018-12-30T11:42:41Z</time>
      </trkpt>
      <trkpt lat="37.430301" lon="-8.752294">
        <ele>13.108</ele>
        <time>2018-12-30T11:42:54Z</time>
      </trkpt>
      <trkpt lat="37.430322" lon="-8.752169">
        <ele>13.140</ele>
        <time>2018-12-30T11:43:03Z</time>
      </trkpt>
      <trkpt lat="37.430323" lon="-8.752140">
        <ele>12.638</ele>
        <time>2018-12-30T11:43:05Z</time>
      </trkpt>
      <trkpt lat="37.430306" lon="-8.752074">
        <ele>12.185</ele>
        <time>2018-12-30T11:43:09Z</time>
      </trkpt>
      <trkpt lat="37.430302" lon="-8.752004">
        <ele>12.680</ele>
        <time>2018-12-30T11:43:13Z</time>
      </trkpt>
      <trkpt lat="37.430300" lon="-8.751953">
        <ele>12.146</ele>
        <time>2018-12-30T11:43:16Z</time>
      </trkpt>
      <trkpt lat="37.430280" lon="-8.751805">
        <ele>12.683</ele>
        <time>2018-12-30T11:43:25Z</time>
      </trkpt>
      <trkpt lat="37.430268" lon="-8.751749">
        <ele>12.638</ele>
        <time>2018-12-30T11:43:29Z</time>
      </trkpt>
      <trkpt lat="37.430257" lon="-8.751607">
        <ele>12.129</ele>
        <time>2018-12-30T11:43:38Z</time>
      </trkpt>
      <trkpt lat="37.430262" lon="-8.751512">
        <ele>12.119</ele>
        <time>2018-12-30T11:43:45Z</time>
      </trkpt>
      <trkpt lat="37.430252" lon="-8.751465">
        <ele>12.609</ele>
        <time>2018-12-30T11:43:48Z</time>
      </trkpt>
      <trkpt lat="37.430284" lon="-8.751333">
        <ele>12.619</ele>
        <time>2018-12-30T11:43:57Z</time>
      </trkpt>
      <trkpt lat="37.430292" lon="-8.751265">
        <ele>12.608</ele>
        <time>2018-12-30T11:44:01Z</time>
      </trkpt>
      <trkpt lat="37.430289" lon="-8.751108">
        <ele>13.154</ele>
        <time>2018-12-30T11:44:10Z</time>
      </trkpt>
      <trkpt lat="37.430298" lon="-8.751007">
        <ele>14.052</ele>
        <time>2018-12-30T11:44:17Z</time>
      </trkpt>
      <trkpt lat="37.430286" lon="-8.750908">
        <ele>14.519</ele>
        <time>2018-12-30T11:44:23Z</time>
      </trkpt>
      <trkpt lat="37.430269" lon="-8.750776">
        <ele>15.044</ele>
        <time>2018-12-30T11:44:33Z</time>
      </trkpt>
      <trkpt lat="37.430261" lon="-8.750748">
        <ele>15.030</ele>
        <time>2018-12-30T11:44:35Z</time>
      </trkpt>
      <trkpt lat="37.430248" lon="-8.750688">
        <ele>15.077</ele>
        <time>2018-12-30T11:44:39Z</time>
      </trkpt>
      <trkpt lat="37.430229" lon="-8.750647">
        <ele>15.542</ele>
        <time>2018-12-30T11:44:42Z</time>
      </trkpt>
      <trkpt lat="37.430196" lon="-8.750468">
        <ele>16.063</ele>
        <time>2018-12-30T11:44:53Z</time>
      </trkpt>
      <trkpt lat="37.430209" lon="-8.750318">
        <ele>16.998</ele>
        <time>2018-12-30T11:45:03Z</time>
      </trkpt>
      <trkpt lat="37.430201" lon="-8.750235">
        <ele>16.915</ele>
        <time>2018-12-30T11:45:09Z</time>
      </trkpt>
      <trkpt lat="37.430229" lon="-8.750061">
        <ele>17.926</ele>
        <time>2018-12-30T11:45:20Z</time>
      </trkpt>
      <trkpt lat="37.430181" lon="-8.749877">
        <ele>18.408</ele>
        <time>2018-12-30T11:45:32Z</time>
      </trkpt>
      <trkpt lat="37.430094" lon="-8.749727">
        <ele>18.882</ele>
        <time>2018-12-30T11:45:43Z</time>
      </trkpt>
      <trkpt lat="37.430029" lon="-8.749649">
        <ele>19.840</ele>
        <time>2018-12-30T11:45:50Z</time>
      </trkpt>
      <trkpt lat="37.430023" lon="-8.749614">
        <ele>19.337</ele>
        <time>2018-12-30T11:45:53Z</time>
      </trkpt>
      <trkpt lat="37.430040" lon="-8.749560">
        <ele>18.892</ele>
        <time>2018-12-30T11:45:57Z</time>
      </trkpt>
      <trkpt lat="37.430050" lon="-8.749498">
        <ele>17.958</ele>
        <time>2018-12-30T11:46:01Z</time>
      </trkpt>
      <trkpt lat="37.430088" lon="-8.749370">
        <ele>16.485</ele>
        <time>2018-12-30T11:46:11Z</time>
      </trkpt>
      <trkpt lat="37.430128" lon="-8.749307">
        <ele>15.010</ele>
        <time>2018-12-30T11:46:17Z</time>
      </trkpt>
      <trkpt lat="37.430131" lon="-8.749116">
        <ele>11.131</ele>
        <time>2018-12-30T11:46:30Z</time>
      </trkpt>
      <trkpt lat="37.430132" lon="-8.748990">
        <ele>10.214</ele>
        <time>2018-12-30T11:46:39Z</time>
      </trkpt>
      <trkpt lat="37.430152" lon="-8.748931">
        <ele>10.754</ele>
        <time>2018-12-30T11:46:52Z</time>
      </trkpt>
      <trkpt lat="37.430186" lon="-8.748849">
        <ele>10.709</ele>
        <time>2018-12-30T11:47:03Z</time>
      </trkpt>
      <trkpt lat="37.430190" lon="-8.748795">
        <ele>11.108</ele>
        <time>2018-12-30T11:47:08Z</time>
      </trkpt>
      <trkpt lat="37.430220" lon="-8.748715">
        <ele>10.724</ele>
        <time>2018-12-30T11:47:14Z</time>
      </trkpt>
      <trkpt lat="37.430254" lon="-8.748697">
        <ele>10.212</ele>
        <time>2018-12-30T11:47:18Z</time>
      </trkpt>
      <trkpt lat="37.430298" lon="-8.748687">
        <ele>10.249</ele>
        <time>2018-12-30T11:47:23Z</time>
      </trkpt>
      <trkpt lat="37.430330" lon="-8.748653">
        <ele>10.224</ele>
        <time>2018-12-30T11:47:27Z</time>
      </trkpt>
      <trkpt lat="37.430411" lon="-8.748576">
        <ele>10.230</ele>
        <time>2018-12-30T11:47:35Z</time>
      </trkpt>
      <trkpt lat="37.430620" lon="-8.748610">
        <ele>9.787</ele>
        <time>2018-12-30T11:47:52Z</time>
      </trkpt>
      <trkpt lat="37.430769" lon="-8.748681">
        <ele>10.242</ele>
        <time>2018-12-30T11:48:07Z</time>
      </trkpt>
      <trkpt lat="37.430835" lon="-8.748737">
        <ele>10.233</ele>
        <time>2018-12-30T11:48:13Z</time>
      </trkpt>
      <trkpt lat="37.430963" lon="-8.748875">
        <ele>9.729</ele>
        <time>2018-12-30T11:48:28Z</time>
      </trkpt>
      <trkpt lat="37.430981" lon="-8.748891">
        <ele>9.700</ele>
        <time>2018-12-30T11:48:32Z</time>
      </trkpt>
      <trkpt lat="37.431003" lon="-8.748899">
        <ele>9.720</ele>
        <time>2018-12-30T11:48:34Z</time>
      </trkpt>
      <trkpt lat="37.431182" lon="-8.749024">
        <ele>10.208</ele>
        <time>2018-12-30T11:48:51Z</time>
      </trkpt>
      <trkpt lat="37.431224" lon="-8.749039">
        <ele>11.115</ele>
        <time>2018-12-30T11:48:55Z</time>
      </trkpt>
      <trkpt lat="37.431396" lon="-8.749098">
        <ele>10.733</ele>
        <time>2018-12-30T11:49:09Z</time>
      </trkpt>
      <trkpt lat="37.431577" lon="-8.749128">
        <ele>10.710</ele>
        <time>2018-12-30T11:49:24Z</time>
      </trkpt>
      <trkpt lat="37.431656" lon="-8.749126">
        <ele>11.145</ele>
        <time>2018-12-30T11:49:31Z</time>
      </trkpt>
      <trkpt lat="37.431806" lon="-8.749117">
        <ele>10.771</ele>
        <time>2018-12-30T11:49:44Z</time>
      </trkpt>
      <trkpt lat="37.431851" lon="-8.749138">
        <ele>10.718</ele>
        <time>2018-12-30T11:49:48Z</time>
      </trkpt>
      <trkpt lat="37.431899" lon="-8.749158">
        <ele>11.123</ele>
        <time>2018-12-30T11:49:52Z</time>
      </trkpt>
      <trkpt lat="37.431996" lon="-8.749171">
        <ele>11.674</ele>
        <time>2018-12-30T11:50:00Z</time>
      </trkpt>
      <trkpt lat="37.432026" lon="-8.749159">
        <ele>11.614</ele>
        <time>2018-12-30T11:50:03Z</time>
      </trkpt>
      <trkpt lat="37.432133" lon="-8.749144">
        <ele>12.654</ele>
        <time>2018-12-30T11:50:12Z</time>
      </trkpt>
      <trkpt lat="37.432225" lon="-8.749106">
        <ele>13.609</ele>
        <time>2018-12-30T11:50:20Z</time>
      </trkpt>
      <trkpt lat="37.432253" lon="-8.749102">
        <ele>14.008</ele>
        <time>2018-12-30T11:50:23Z</time>
      </trkpt>
      <trkpt lat="37.432304" lon="-8.749097">
        <ele>14.094</ele>
        <time>2018-12-30T11:50:27Z</time>
      </trkpt>
      <trkpt lat="37.432457" lon="-8.749107">
        <ele>13.622</ele>
        <time>2018-12-30T11:50:39Z</time>
      </trkpt>
      <trkpt lat="37.432653" lon="-8.749122">
        <ele>11.689</ele>
        <time>2018-12-30T11:50:54Z</time>
      </trkpt>
      <trkpt lat="37.432721" lon="-8.749165">
        <ele>11.654</ele>
        <time>2018-12-30T11:51:00Z</time>
      </trkpt>
      <trkpt lat="37.432772" lon="-8.749348">
        <ele>11.190</ele>
        <time>2018-12-30T11:51:12Z</time>
      </trkpt>
      <trkpt lat="37.432823" lon="-8.749527">
        <ele>11.647</ele>
        <time>2018-12-30T11:51:24Z</time>
      </trkpt>
      <trkpt lat="37.432827" lon="-8.749542">
        <ele>11.642</ele>
        <time>2018-12-30T11:51:25Z</time>
      </trkpt>
      <trkpt lat="37.432842" lon="-8.749624">
        <ele>11.663</ele>
        <time>2018-12-30T11:51:30Z</time>
      </trkpt>
      <trkpt lat="37.432868" lon="-8.749713">
        <ele>11.163</ele>
        <time>2018-12-30T11:51:36Z</time>
      </trkpt>
      <trkpt lat="37.432892" lon="-8.749824">
        <ele>11.644</ele>
        <time>2018-12-30T11:51:43Z</time>
      </trkpt>
      <trkpt lat="37.432942" lon="-8.750004">
        <ele>10.718</ele>
        <time>2018-12-30T11:51:55Z</time>
      </trkpt>
      <trkpt lat="37.432972" lon="-8.750102">
        <ele>11.108</ele>
        <time>2018-12-30T11:52:02Z</time>
      </trkpt>
      <trkpt lat="37.433027" lon="-8.750293">
        <ele>10.749</ele>
        <time>2018-12-30T11:52:15Z</time>
      </trkpt>
      <trkpt lat="37.433043" lon="-8.750372">
        <ele>10.767</ele>
        <time>2018-12-30T11:52:20Z</time>
      </trkpt>
      <trkpt lat="37.433060" lon="-8.750455">
        <ele>11.114</ele>
        <time>2018-12-30T11:52:25Z</time>
      </trkpt>
      <trkpt lat="37.433066" lon="-8.750600">
        <ele>11.199</ele>
        <time>2018-12-30T11:52:35Z</time>
      </trkpt>
      <trkpt lat="37.433054" lon="-8.750721">
        <ele>11.155</ele>
        <time>2018-12-30T11:52:44Z</time>
      </trkpt>
      <trkpt lat="37.433021" lon="-8.750769">
        <ele>11.182</ele>
        <time>2018-12-30T11:52:48Z</time>
      </trkpt>
      <trkpt lat="37.432994" lon="-8.750805">
        <ele>11.177</ele>
        <time>2018-12-30T11:52:51Z</time>
      </trkpt>
      <trkpt lat="37.432864" lon="-8.750879">
        <ele>11.618</ele>
        <time>2018-12-30T11:53:02Z</time>
      </trkpt>
      <trkpt lat="37.432776" lon="-8.750983">
        <ele>11.135</ele>
        <time>2018-12-30T11:53:11Z</time>
      </trkpt>
      <trkpt lat="37.432747" lon="-8.751143">
        <ele>12.186</ele>
        <time>2018-12-30T11:53:20Z</time>
      </trkpt>
      <trkpt lat="37.432746" lon="-8.751181">
        <ele>12.114</ele>
        <time>2018-12-30T11:53:22Z</time>
      </trkpt>
      <trkpt lat="37.432812" lon="-8.751262">
        <ele>13.108</ele>
        <time>2018-12-30T11:53:29Z</time>
      </trkpt>
      <trkpt lat="37.432943" lon="-8.751184">
        <ele>15.546</ele>
        <time>2018-12-30T11:53:40Z</time>
      </trkpt>
      <trkpt lat="37.433076" lon="-8.751161">
        <ele>17.454</ele>
        <time>2018-12-30T11:53:51Z</time>
      </trkpt>
      <trkpt lat="37.433178" lon="-8.751215">
        <ele>18.881</ele>
        <time>2018-12-30T11:54:00Z</time>
      </trkpt>
      <trkpt lat="37.433261" lon="-8.751288">
        <ele>19.876</ele>
        <time>2018-12-30T11:54:08Z</time>
      </trkpt>
      <trkpt lat="37.433318" lon="-8.751373">
        <ele>19.822</ele>
        <time>2018-12-30T11:54:15Z</time>
      </trkpt>
      <trkpt lat="37.433372" lon="-8.751502">
        <ele>21.219</ele>
        <time>2018-12-30T11:54:24Z</time>
      </trkpt>
      <trkpt lat="37.433388" lon="-8.751657">
        <ele>22.714</ele>
        <time>2018-12-30T11:54:34Z</time>
      </trkpt>
      <trkpt lat="37.433363" lon="-8.751747">
        <ele>23.285</ele>
        <time>2018-12-30T11:54:39Z</time>
      </trkpt>
      <trkpt lat="37.433313" lon="-8.751858">
        <ele>24.187</ele>
        <time>2018-12-30T11:54:48Z</time>
      </trkpt>
      <trkpt lat="37.433280" lon="-8.751909">
        <ele>25.142</ele>
        <time>2018-12-30T11:54:53Z</time>
      </trkpt>
      <trkpt lat="37.433209" lon="-8.752041">
        <ele>27.026</ele>
        <time>2018-12-30T11:55:05Z</time>
      </trkpt>
      <trkpt lat="37.433192" lon="-8.752103">
        <ele>28.008</ele>
        <time>2018-12-30T11:55:10Z</time>
      </trkpt>
      <trkpt lat="37.433193" lon="-8.752134">
        <ele>28.551</ele>
        <time>2018-12-30T11:55:12Z</time>
      </trkpt>
      <trkpt lat="37.433188" lon="-8.752174">
        <ele>29.419</ele>
        <time>2018-12-30T11:55:17Z</time>
      </trkpt>
      <trkpt lat="37.433218" lon="-8.752163">
        <ele>28.936</ele>
        <time>2018-12-30T11:55:20Z</time>
      </trkpt>
      <trkpt lat="37.433368" lon="-8.752068">
        <ele>29.471</ele>
        <time>2018-12-30T11:55:34Z</time>
      </trkpt>
      <trkpt lat="37.433403" lon="-8.752045">
        <ele>29.487</ele>
        <time>2018-12-30T11:55:37Z</time>
      </trkpt>
      <trkpt lat="37.433576" lon="-8.751969">
        <ele>29.994</ele>
        <time>2018-12-30T11:55:52Z</time>
      </trkpt>
      <trkpt lat="37.433757" lon="-8.751881">
        <ele>30.469</ele>
        <time>2018-12-30T11:56:07Z</time>
      </trkpt>
      <trkpt lat="37.433918" lon="-8.751803">
        <ele>29.910</ele>
        <time>2018-12-30T11:56:20Z</time>
      </trkpt>
      <trkpt lat="37.434048" lon="-8.751739">
        <ele>30.431</ele>
        <time>2018-12-30T11:56:31Z</time>
      </trkpt>
      <trkpt lat="37.434203" lon="-8.751676">
        <ele>31.361</ele>
        <time>2018-12-30T11:56:44Z</time>
      </trkpt>
      <trkpt lat="37.434394" lon="-8.751570">
        <ele>32.307</ele>
        <time>2018-12-30T11:57:00Z</time>
      </trkpt>
      <trkpt lat="37.434550" lon="-8.751492">
        <ele>33.308</ele>
        <time>2018-12-30T11:57:13Z</time>
      </trkpt>
      <trkpt lat="37.434623" lon="-8.751466">
        <ele>33.396</ele>
        <time>2018-12-30T11:57:19Z</time>
      </trkpt>
      <trkpt lat="37.434643" lon="-8.751459">
        <ele>33.334</ele>
        <time>2018-12-30T11:57:29Z</time>
      </trkpt>
      <trkpt lat="37.434643" lon="-8.751459">
        <ele>33.741</ele>
        <time>2018-12-30T11:57:30Z</time>
      </trkpt>
      <trkpt lat="37.434820" lon="-8.751392">
        <ele>33.746</ele>
        <time>2018-12-30T11:57:44Z</time>
      </trkpt>
      <trkpt lat="37.434996" lon="-8.751353">
        <ele>33.742</ele>
        <time>2018-12-30T11:57:58Z</time>
      </trkpt>
      <trkpt lat="37.435009" lon="-8.751351">
        <ele>33.789</ele>
        <time>2018-12-30T11:57:59Z</time>
      </trkpt>
      <trkpt lat="37.435049" lon="-8.751339">
        <ele>34.284</ele>
        <time>2018-12-30T11:58:09Z</time>
      </trkpt>
      <trkpt lat="37.435049" lon="-8.751339">
        <ele>34.755</ele>
        <time>2018-12-30T11:58:16Z</time>
      </trkpt>
      <trkpt lat="37.435077" lon="-8.751331">
        <ele>34.223</ele>
        <time>2018-12-30T11:58:18Z</time>
      </trkpt>
      <trkpt lat="37.435162" lon="-8.751303">
        <ele>34.283</ele>
        <time>2018-12-30T11:58:30Z</time>
      </trkpt>
      <trkpt lat="37.435166" lon="-8.751303">
        <ele>34.211</ele>
        <time>2018-12-30T11:58:51Z</time>
      </trkpt>
      <trkpt lat="37.435169" lon="-8.751305">
        <ele>34.708</ele>
        <time>2018-12-30T11:59:07Z</time>
      </trkpt>
      <trkpt lat="37.435169" lon="-8.751305">
        <ele>34.245</ele>
        <time>2018-12-30T11:59:29Z</time>
      </trkpt>
      <trkpt lat="37.435173" lon="-8.751295">
        <ele>34.283</ele>
        <time>2018-12-30T11:59:50Z</time>
      </trkpt>
      <trkpt lat="37.435169" lon="-8.751301">
        <ele>34.230</ele>
        <time>2018-12-30T12:00:03Z</time>
      </trkpt>
      <trkpt lat="37.435182" lon="-8.751317">
        <ele>34.795</ele>
        <time>2018-12-30T12:00:05Z</time>
      </trkpt>
      <trkpt lat="37.435374" lon="-8.751296">
        <ele>35.221</ele>
        <time>2018-12-30T12:00:19Z</time>
      </trkpt>
      <trkpt lat="37.435582" lon="-8.751258">
        <ele>34.778</ele>
        <time>2018-12-30T12:00:36Z</time>
      </trkpt>
      <trkpt lat="37.435664" lon="-8.751249">
        <ele>34.763</ele>
        <time>2018-12-30T12:00:43Z</time>
      </trkpt>
      <trkpt lat="37.435799" lon="-8.751239">
        <ele>35.234</ele>
        <time>2018-12-30T12:00:54Z</time>
      </trkpt>
      <trkpt lat="37.435946" lon="-8.751226">
        <ele>35.279</ele>
        <time>2018-12-30T12:01:06Z</time>
      </trkpt>
      <trkpt lat="37.436112" lon="-8.751193">
        <ele>34.705</ele>
        <time>2018-12-30T12:01:19Z</time>
      </trkpt>
      <trkpt lat="37.436124" lon="-8.751189">
        <ele>35.225</ele>
        <time>2018-12-30T12:01:20Z</time>
      </trkpt>
      <trkpt lat="37.436202" lon="-8.751195">
        <ele>35.208</ele>
        <time>2018-12-30T12:01:27Z</time>
      </trkpt>
      <trkpt lat="37.436239" lon="-8.751224">
        <ele>34.210</ele>
        <time>2018-12-30T12:01:39Z</time>
      </trkpt>
      <trkpt lat="37.436448" lon="-8.751164">
        <ele>34.718</ele>
        <time>2018-12-30T12:01:55Z</time>
      </trkpt>
      <trkpt lat="37.436601" lon="-8.751130">
        <ele>34.785</ele>
        <time>2018-12-30T12:02:07Z</time>
      </trkpt>
      <trkpt lat="37.436626" lon="-8.751115">
        <ele>34.210</ele>
        <time>2018-12-30T12:02:09Z</time>
      </trkpt>
      <trkpt lat="37.436852" lon="-8.751057">
        <ele>33.766</ele>
        <time>2018-12-30T12:02:25Z</time>
      </trkpt>
      <trkpt lat="37.437004" lon="-8.751024">
        <ele>32.853</ele>
        <time>2018-12-30T12:02:37Z</time>
      </trkpt>
      <trkpt lat="37.437173" lon="-8.750968">
        <ele>31.318</ele>
        <time>2018-12-30T12:02:49Z</time>
      </trkpt>
      <trkpt lat="37.437222" lon="-8.750971">
        <ele>32.369</ele>
        <time>2018-12-30T12:02:53Z</time>
      </trkpt>
      <trkpt lat="37.437459" lon="-8.750895">
        <ele>29.968</ele>
        <time>2018-12-30T12:03:10Z</time>
      </trkpt>
      <trkpt lat="37.437650" lon="-8.750801">
        <ele>28.542</ele>
        <time>2018-12-30T12:03:25Z</time>
      </trkpt>
      <trkpt lat="37.437848" lon="-8.750697">
        <ele>26.026</ele>
        <time>2018-12-30T12:03:40Z</time>
      </trkpt>
      <trkpt lat="37.437864" lon="-8.750692">
        <ele>25.608</ele>
        <time>2018-12-30T12:03:41Z</time>
      </trkpt>
      <trkpt lat="37.437925" lon="-8.750645">
        <ele>24.639</ele>
        <time>2018-12-30T12:03:46Z</time>
      </trkpt>
      <trkpt lat="37.438107" lon="-8.750526">
        <ele>24.137</ele>
        <time>2018-12-30T12:04:03Z</time>
      </trkpt>
      <trkpt lat="37.438232" lon="-8.750452">
        <ele>23.254</ele>
        <time>2018-12-30T12:04:14Z</time>
      </trkpt>
      <trkpt lat="37.438417" lon="-8.750375">
        <ele>20.819</ele>
        <time>2018-12-30T12:04:29Z</time>
      </trkpt>
      <trkpt lat="37.438584" lon="-8.750348">
        <ele>19.375</ele>
        <time>2018-12-30T12:04:42Z</time>
      </trkpt>
      <trkpt lat="37.438755" lon="-8.750346">
        <ele>18.482</ele>
        <time>2018-12-30T12:04:55Z</time>
      </trkpt>
      <trkpt lat="37.438927" lon="-8.750340">
        <ele>17.977</ele>
        <time>2018-12-30T12:05:08Z</time>
      </trkpt>
      <trkpt lat="37.439106" lon="-8.750326">
        <ele>16.978</ele>
        <time>2018-12-30T12:05:22Z</time>
      </trkpt>
      <trkpt lat="37.439300" lon="-8.750303">
        <ele>16.963</ele>
        <time>2018-12-30T12:05:37Z</time>
      </trkpt>
      <trkpt lat="37.439462" lon="-8.750301">
        <ele>16.944</ele>
        <time>2018-12-30T12:05:50Z</time>
      </trkpt>
      <trkpt lat="37.439537" lon="-8.750298">
        <ele>16.918</ele>
        <time>2018-12-30T12:05:56Z</time>
      </trkpt>
      <trkpt lat="37.439659" lon="-8.750277">
        <ele>17.408</ele>
        <time>2018-12-30T12:06:04Z</time>
      </trkpt>
      <trkpt lat="37.439855" lon="-8.750254">
        <ele>17.439</ele>
        <time>2018-12-30T12:06:19Z</time>
      </trkpt>
      <trkpt lat="37.440027" lon="-8.750168">
        <ele>17.477</ele>
        <time>2018-12-30T12:06:33Z</time>
      </trkpt>
      <trkpt lat="37.440133" lon="-8.750062">
        <ele>18.464</ele>
        <time>2018-12-30T12:06:43Z</time>
      </trkpt>
      <trkpt lat="37.440246" lon="-8.749806">
        <ele>18.889</ele>
        <time>2018-12-30T12:07:00Z</time>
      </trkpt>
      <trkpt lat="37.440323" lon="-8.749589">
        <ele>19.365</ele>
        <time>2018-12-30T12:07:14Z</time>
      </trkpt>
      <trkpt lat="37.440398" lon="-8.749319">
        <ele>19.382</ele>
        <time>2018-12-30T12:07:31Z</time>
      </trkpt>
      <trkpt lat="37.440457" lon="-8.749131">
        <ele>20.387</ele>
        <time>2018-12-30T12:07:43Z</time>
      </trkpt>
      <trkpt lat="37.440463" lon="-8.749114">
        <ele>20.378</ele>
        <time>2018-12-30T12:07:44Z</time>
      </trkpt>
      <trkpt lat="37.440488" lon="-8.748945">
        <ele>20.875</ele>
        <time>2018-12-30T12:07:54Z</time>
      </trkpt>
      <trkpt lat="37.440545" lon="-8.748690">
        <ele>21.228</ele>
        <time>2018-12-30T12:08:10Z</time>
      </trkpt>
      <trkpt lat="37.440578" lon="-8.748570">
        <ele>21.220</ele>
        <time>2018-12-30T12:08:26Z</time>
      </trkpt>
      <trkpt lat="37.440576" lon="-8.748559">
        <ele>20.808</ele>
        <time>2018-12-30T12:08:27Z</time>
      </trkpt>
      <trkpt lat="37.440579" lon="-8.748515">
        <ele>21.270</ele>
        <time>2018-12-30T12:08:30Z</time>
      </trkpt>
      <trkpt lat="37.440591" lon="-8.748263">
        <ele>21.228</ele>
        <time>2018-12-30T12:08:45Z</time>
      </trkpt>
      <trkpt lat="37.440598" lon="-8.748000">
        <ele>22.265</ele>
        <time>2018-12-30T12:09:01Z</time>
      </trkpt>
      <trkpt lat="37.440610" lon="-8.747804">
        <ele>22.760</ele>
        <time>2018-12-30T12:09:15Z</time>
      </trkpt>
      <trkpt lat="37.440628" lon="-8.747772">
        <ele>22.776</ele>
        <time>2018-12-30T12:09:27Z</time>
      </trkpt>
      <trkpt lat="37.440622" lon="-8.747777">
        <ele>22.783</ele>
        <time>2018-12-30T12:09:33Z</time>
      </trkpt>
      <trkpt lat="37.440633" lon="-8.747571">
        <ele>23.258</ele>
        <time>2018-12-30T12:09:46Z</time>
      </trkpt>
      <trkpt lat="37.440652" lon="-8.747547">
        <ele>23.669</ele>
        <time>2018-12-30T12:09:58Z</time>
      </trkpt>
      <trkpt lat="37.440642" lon="-8.747525">
        <ele>23.267</ele>
        <time>2018-12-30T12:10:02Z</time>
      </trkpt>
      <trkpt lat="37.440640" lon="-8.747381">
        <ele>23.681</ele>
        <time>2018-12-30T12:10:11Z</time>
      </trkpt>
      <trkpt lat="37.440639" lon="-8.747246">
        <ele>24.119</ele>
        <time>2018-12-30T12:10:19Z</time>
      </trkpt>
      <trkpt lat="37.440640" lon="-8.747188">
        <ele>24.108</ele>
        <time>2018-12-30T12:10:23Z</time>
      </trkpt>
      <trkpt lat="37.440643" lon="-8.746920">
        <ele>26.099</ele>
        <time>2018-12-30T12:10:39Z</time>
      </trkpt>
      <trkpt lat="37.440652" lon="-8.746876">
        <ele>26.027</ele>
        <time>2018-12-30T12:10:42Z</time>
      </trkpt>
      <trkpt lat="37.440691" lon="-8.746685">
        <ele>27.024</ele>
        <time>2018-12-30T12:10:54Z</time>
      </trkpt>
      <trkpt lat="37.440706" lon="-8.746557">
        <ele>27.559</ele>
        <time>2018-12-30T12:11:02Z</time>
      </trkpt>
      <trkpt lat="37.440800" lon="-8.746371">
        <ele>27.575</ele>
        <time>2018-12-30T12:11:15Z</time>
      </trkpt>
      <trkpt lat="37.440919" lon="-8.746175">
        <ele>28.012</ele>
        <time>2018-12-30T12:11:30Z</time>
      </trkpt>
      <trkpt lat="37.440959" lon="-8.746134">
        <ele>28.017</ele>
        <time>2018-12-30T12:11:34Z</time>
      </trkpt>
      <trkpt lat="37.441067" lon="-8.746036">
        <ele>27.578</ele>
        <time>2018-12-30T12:11:44Z</time>
      </trkpt>
      <trkpt lat="37.441248" lon="-8.745913">
        <ele>26.582</ele>
        <time>2018-12-30T12:12:00Z</time>
      </trkpt>
      <trkpt lat="37.441345" lon="-8.745854">
        <ele>26.043</ele>
        <time>2018-12-30T12:12:08Z</time>
      </trkpt>
      <trkpt lat="37.441501" lon="-8.745801">
        <ele>24.117</ele>
        <time>2018-12-30T12:12:20Z</time>
      </trkpt>
      <trkpt lat="37.441680" lon="-8.745708">
        <ele>23.208</ele>
        <time>2018-12-30T12:12:34Z</time>
      </trkpt>
      <trkpt lat="37.441838" lon="-8.745621">
        <ele>22.761</ele>
        <time>2018-12-30T12:12:47Z</time>
      </trkpt>
      <trkpt lat="37.442051" lon="-8.745489">
        <ele>21.739</ele>
        <time>2018-12-30T12:13:03Z</time>
      </trkpt>
      <trkpt lat="37.442150" lon="-8.745392">
        <ele>20.816</ele>
        <time>2018-12-30T12:13:13Z</time>
      </trkpt>
      <trkpt lat="37.442332" lon="-8.745260">
        <ele>19.331</ele>
        <time>2018-12-30T12:13:29Z</time>
      </trkpt>
      <trkpt lat="37.442475" lon="-8.745092">
        <ele>19.367</ele>
        <time>2018-12-30T12:13:44Z</time>
      </trkpt>
      <trkpt lat="37.442597" lon="-8.744919">
        <ele>18.814</ele>
        <time>2018-12-30T12:13:57Z</time>
      </trkpt>
      <trkpt lat="37.442603" lon="-8.744901">
        <ele>18.869</ele>
        <time>2018-12-30T12:13:58Z</time>
      </trkpt>
      <trkpt lat="37.442738" lon="-8.744736">
        <ele>19.360</ele>
        <time>2018-12-30T12:14:12Z</time>
      </trkpt>
      <trkpt lat="37.442813" lon="-8.744620">
        <ele>19.379</ele>
        <time>2018-12-30T12:14:21Z</time>
      </trkpt>
      <trkpt lat="37.442855" lon="-8.744583">
        <ele>18.405</ele>
        <time>2018-12-30T12:14:25Z</time>
      </trkpt>
      <trkpt lat="37.442906" lon="-8.744524">
        <ele>18.825</ele>
        <time>2018-12-30T12:14:30Z</time>
      </trkpt>
      <trkpt lat="37.442988" lon="-8.744392">
        <ele>18.808</ele>
        <time>2018-12-30T12:14:40Z</time>
      </trkpt>
      <trkpt lat="37.443060" lon="-8.744281">
        <ele>19.380</ele>
        <time>2018-12-30T12:14:49Z</time>
      </trkpt>
      <trkpt lat="37.443120" lon="-8.744203">
        <ele>19.368</ele>
        <time>2018-12-30T12:14:55Z</time>
      </trkpt>
      <trkpt lat="37.443248" lon="-8.744035">
        <ele>18.835</ele>
        <time>2018-12-30T12:15:09Z</time>
      </trkpt>
      <trkpt lat="37.443358" lon="-8.743888">
        <ele>19.360</ele>
        <time>2018-12-30T12:15:22Z</time>
      </trkpt>
      <trkpt lat="37.443488" lon="-8.743704">
        <ele>18.866</ele>
        <time>2018-12-30T12:15:37Z</time>
      </trkpt>
      <trkpt lat="37.443630" lon="-8.743517">
        <ele>18.863</ele>
        <time>2018-12-30T12:15:52Z</time>
      </trkpt>
      <trkpt lat="37.443639" lon="-8.743504">
        <ele>19.338</ele>
        <time>2018-12-30T12:15:53Z</time>
      </trkpt>
      <trkpt lat="37.443685" lon="-8.743457">
        <ele>19.339</ele>
        <time>2018-12-30T12:15:58Z</time>
      </trkpt>
      <trkpt lat="37.443839" lon="-8.743229">
        <ele>19.844</ele>
        <time>2018-12-30T12:16:15Z</time>
      </trkpt>
      <trkpt lat="37.443856" lon="-8.743209">
        <ele>19.805</ele>
        <time>2018-12-30T12:16:17Z</time>
      </trkpt>
      <trkpt lat="37.443970" lon="-8.743086">
        <ele>20.815</ele>
        <time>2018-12-30T12:16:28Z</time>
      </trkpt>
      <trkpt lat="37.444054" lon="-8.742826">
        <ele>19.808</ele>
        <time>2018-12-30T12:16:44Z</time>
      </trkpt>
      <trkpt lat="37.444016" lon="-8.742572">
        <ele>19.867</ele>
        <time>2018-12-30T12:17:00Z</time>
      </trkpt>
      <trkpt lat="37.443896" lon="-8.742361">
        <ele>19.385</ele>
        <time>2018-12-30T12:17:15Z</time>
      </trkpt>
      <trkpt lat="37.443787" lon="-8.742221">
        <ele>20.362</ele>
        <time>2018-12-30T12:17:27Z</time>
      </trkpt>
      <trkpt lat="37.443647" lon="-8.742016">
        <ele>20.837</ele>
        <time>2018-12-30T12:17:43Z</time>
      </trkpt>
      <trkpt lat="37.443570" lon="-8.741812">
        <ele>20.393</ele>
        <time>2018-12-30T12:17:57Z</time>
      </trkpt>
      <trkpt lat="37.443557" lon="-8.741759">
        <ele>20.810</ele>
        <time>2018-12-30T12:18:00Z</time>
      </trkpt>
      <trkpt lat="37.443549" lon="-8.741512">
        <ele>20.825</ele>
        <time>2018-12-30T12:18:15Z</time>
      </trkpt>
      <trkpt lat="37.443590" lon="-8.741255">
        <ele>20.366</ele>
        <time>2018-12-30T12:18:31Z</time>
      </trkpt>
      <trkpt lat="37.443693" lon="-8.741019">
        <ele>21.255</ele>
        <time>2018-12-30T12:18:46Z</time>
      </trkpt>
      <trkpt lat="37.443785" lon="-8.740819">
        <ele>21.207</ele>
        <time>2018-12-30T12:19:00Z</time>
      </trkpt>
      <trkpt lat="37.443865" lon="-8.740621">
        <ele>20.317</ele>
        <time>2018-12-30T12:19:13Z</time>
      </trkpt>
      <trkpt lat="37.443978" lon="-8.740373">
        <ele>21.208</ele>
        <time>2018-12-30T12:19:30Z</time>
      </trkpt>
      <trkpt lat="37.444082" lon="-8.740173">
        <ele>21.248</ele>
        <time>2018-12-30T12:19:44Z</time>
      </trkpt>
      <trkpt lat="37.444162" lon="-8.739985">
        <ele>20.846</ele>
        <time>2018-12-30T12:19:57Z</time>
      </trkpt>
      <trkpt lat="37.444258" lon="-8.739819">
        <ele>21.283</ele>
        <time>2018-12-30T12:20:09Z</time>
      </trkpt>
      <trkpt lat="37.444325" lon="-8.739706">
        <ele>20.818</ele>
        <time>2018-12-30T12:20:17Z</time>
      </trkpt>
      <trkpt lat="37.444351" lon="-8.739640">
        <ele>20.334</ele>
        <time>2018-12-30T12:20:21Z</time>
      </trkpt>
      <trkpt lat="37.444392" lon="-8.739600">
        <ele>21.721</ele>
        <time>2018-12-30T12:20:25Z</time>
      </trkpt>
      <trkpt lat="37.444515" lon="-8.739375">
        <ele>21.746</ele>
        <time>2018-12-30T12:20:40Z</time>
      </trkpt>
      <trkpt lat="37.444645" lon="-8.739146">
        <ele>22.247</ele>
        <time>2018-12-30T12:20:56Z</time>
      </trkpt>
      <trkpt lat="37.444699" lon="-8.739018">
        <ele>21.771</ele>
        <time>2018-12-30T12:21:05Z</time>
      </trkpt>
      <trkpt lat="37.444794" lon="-8.738835">
        <ele>21.741</ele>
        <time>2018-12-30T12:21:18Z</time>
      </trkpt>
      <trkpt lat="37.444873" lon="-8.738623">
        <ele>21.215</ele>
        <time>2018-12-30T12:21:32Z</time>
      </trkpt>
      <trkpt lat="37.444933" lon="-8.738423">
        <ele>20.308</ele>
        <time>2018-12-30T12:21:46Z</time>
      </trkpt>
      <trkpt lat="37.444943" lon="-8.738392">
        <ele>21.290</ele>
        <time>2018-12-30T12:21:48Z</time>
      </trkpt>
      <trkpt lat="37.445005" lon="-8.738155">
        <ele>21.798</ele>
        <time>2018-12-30T12:22:03Z</time>
      </trkpt>
      <trkpt lat="37.445038" lon="-8.738026">
        <ele>21.775</ele>
        <time>2018-12-30T12:22:11Z</time>
      </trkpt>
      <trkpt lat="37.445074" lon="-8.737893">
        <ele>21.760</ele>
        <time>2018-12-30T12:22:20Z</time>
      </trkpt>
      <trkpt lat="37.445160" lon="-8.737658">
        <ele>21.256</ele>
        <time>2018-12-30T12:22:35Z</time>
      </trkpt>
      <trkpt lat="37.445165" lon="-8.737641">
        <ele>21.273</ele>
        <time>2018-12-30T12:22:36Z</time>
      </trkpt>
      <trkpt lat="37.445233" lon="-8.737536">
        <ele>20.868</ele>
        <time>2018-12-30T12:22:44Z</time>
      </trkpt>
      <trkpt lat="37.445249" lon="-8.737494">
        <ele>22.269</ele>
        <time>2018-12-30T12:22:47Z</time>
      </trkpt>
      <trkpt lat="37.445349" lon="-8.737323">
        <ele>22.246</ele>
        <time>2018-12-30T12:23:00Z</time>
      </trkpt>
      <trkpt lat="37.445438" lon="-8.737207">
        <ele>22.288</ele>
        <time>2018-12-30T12:23:09Z</time>
      </trkpt>
      <trkpt lat="37.445574" lon="-8.737049">
        <ele>21.216</ele>
        <time>2018-12-30T12:23:23Z</time>
      </trkpt>
      <trkpt lat="37.445711" lon="-8.736915">
        <ele>23.208</ele>
        <time>2018-12-30T12:23:35Z</time>
      </trkpt>
      <trkpt lat="37.445882" lon="-8.736793">
        <ele>22.767</ele>
        <time>2018-12-30T12:23:50Z</time>
      </trkpt>
      <trkpt lat="37.446027" lon="-8.736686">
        <ele>22.715</ele>
        <time>2018-12-30T12:24:03Z</time>
      </trkpt>
      <trkpt lat="37.446140" lon="-8.736607">
        <ele>22.772</ele>
        <time>2018-12-30T12:24:13Z</time>
      </trkpt>
      <trkpt lat="37.446282" lon="-8.736522">
        <ele>22.217</ele>
        <time>2018-12-30T12:24:25Z</time>
      </trkpt>
      <trkpt lat="37.446323" lon="-8.736496">
        <ele>22.763</ele>
        <time>2018-12-30T12:24:28Z</time>
      </trkpt>
      <trkpt lat="37.446428" lon="-8.736409">
        <ele>22.280</ele>
        <time>2018-12-30T12:24:37Z</time>
      </trkpt>
      <trkpt lat="37.446561" lon="-8.736312">
        <ele>22.235</ele>
        <time>2018-12-30T12:24:49Z</time>
      </trkpt>
      <trkpt lat="37.446774" lon="-8.736184">
        <ele>23.296</ele>
        <time>2018-12-30T12:25:07Z</time>
      </trkpt>
      <trkpt lat="37.446909" lon="-8.736125">
        <ele>22.262</ele>
        <time>2018-12-30T12:25:18Z</time>
      </trkpt>
      <trkpt lat="37.447078" lon="-8.736052">
        <ele>22.283</ele>
        <time>2018-12-30T12:25:32Z</time>
      </trkpt>
      <trkpt lat="37.447209" lon="-8.735998">
        <ele>22.711</ele>
        <time>2018-12-30T12:25:43Z</time>
      </trkpt>
      <trkpt lat="37.447287" lon="-8.735956">
        <ele>22.208</ele>
        <time>2018-12-30T12:25:49Z</time>
      </trkpt>
      <trkpt lat="37.447485" lon="-8.735875">
        <ele>23.219</ele>
        <time>2018-12-30T12:26:04Z</time>
      </trkpt>
      <trkpt lat="37.447655" lon="-8.735775">
        <ele>23.257</ele>
        <time>2018-12-30T12:26:17Z</time>
      </trkpt>
      <trkpt lat="37.447810" lon="-8.735684">
        <ele>23.624</ele>
        <time>2018-12-30T12:26:30Z</time>
      </trkpt>
      <trkpt lat="37.447956" lon="-8.735568">
        <ele>23.669</ele>
        <time>2018-12-30T12:26:43Z</time>
      </trkpt>
      <trkpt lat="37.448070" lon="-8.735469">
        <ele>22.745</ele>
        <time>2018-12-30T12:26:53Z</time>
      </trkpt>
      <trkpt lat="37.448231" lon="-8.735337">
        <ele>23.672</ele>
        <time>2018-12-30T12:27:07Z</time>
      </trkpt>
      <trkpt lat="37.448418" lon="-8.735164">
        <ele>22.737</ele>
        <time>2018-12-30T12:27:24Z</time>
      </trkpt>
      <trkpt lat="37.448429" lon="-8.735157">
        <ele>22.758</ele>
        <time>2018-12-30T12:27:25Z</time>
      </trkpt>
      <trkpt lat="37.448611" lon="-8.735004">
        <ele>23.647</ele>
        <time>2018-12-30T12:27:41Z</time>
      </trkpt>
      <trkpt lat="37.448691" lon="-8.734969">
        <ele>24.129</ele>
        <time>2018-12-30T12:27:47Z</time>
      </trkpt>
      <trkpt lat="37.448857" lon="-8.734850">
        <ele>23.621</ele>
        <time>2018-12-30T12:28:02Z</time>
      </trkpt>
      <trkpt lat="37.448953" lon="-8.734760">
        <ele>23.608</ele>
        <time>2018-12-30T12:28:11Z</time>
      </trkpt>
      <trkpt lat="37.449030" lon="-8.734687">
        <ele>24.127</ele>
        <time>2018-12-30T12:28:18Z</time>
      </trkpt>
      <trkpt lat="37.449135" lon="-8.734477">
        <ele>24.115</ele>
        <time>2018-12-30T12:28:33Z</time>
      </trkpt>
      <trkpt lat="37.449141" lon="-8.734349">
        <ele>23.612</ele>
        <time>2018-12-30T12:28:44Z</time>
      </trkpt>
      <trkpt lat="37.449172" lon="-8.734158">
        <ele>24.137</ele>
        <time>2018-12-30T12:28:57Z</time>
      </trkpt>
      <trkpt lat="37.449186" lon="-8.734138">
        <ele>24.123</ele>
        <time>2018-12-30T12:28:59Z</time>
      </trkpt>
      <trkpt lat="37.449202" lon="-8.734125">
        <ele>22.770</ele>
        <time>2018-12-30T12:29:01Z</time>
      </trkpt>
      <trkpt lat="37.449334" lon="-8.734103">
        <ele>22.735</ele>
        <time>2018-12-30T12:29:11Z</time>
      </trkpt>
      <trkpt lat="37.449390" lon="-8.734111">
        <ele>22.766</ele>
        <time>2018-12-30T12:29:16Z</time>
      </trkpt>
      <trkpt lat="37.449446" lon="-8.734100">
        <ele>22.772</ele>
        <time>2018-12-30T12:29:21Z</time>
      </trkpt>
      <trkpt lat="37.449586" lon="-8.734187">
        <ele>22.713</ele>
        <time>2018-12-30T12:29:34Z</time>
      </trkpt>
      <trkpt lat="37.449607" lon="-8.734204">
        <ele>22.214</ele>
        <time>2018-12-30T12:29:36Z</time>
      </trkpt>
      <trkpt lat="37.449715" lon="-8.734269">
        <ele>21.708</ele>
        <time>2018-12-30T12:29:45Z</time>
      </trkpt>
      <trkpt lat="37.449792" lon="-8.734302">
        <ele>22.780</ele>
        <time>2018-12-30T12:29:52Z</time>
      </trkpt>
      <trkpt lat="37.449834" lon="-8.734315">
        <ele>22.748</ele>
        <time>2018-12-30T12:29:56Z</time>
      </trkpt>
      <trkpt lat="37.449941" lon="-8.734353">
        <ele>23.295</ele>
        <time>2018-12-30T12:30:05Z</time>
      </trkpt>
      <trkpt lat="37.449991" lon="-8.734374">
        <ele>22.720</ele>
        <time>2018-12-30T12:30:09Z</time>
      </trkpt>
      <trkpt lat="37.450151" lon="-8.734468">
        <ele>22.246</ele>
        <time>2018-12-30T12:30:24Z</time>
      </trkpt>
      <trkpt lat="37.450264" lon="-8.734567">
        <ele>23.243</ele>
        <time>2018-12-30T12:30:35Z</time>
      </trkpt>
      <trkpt lat="37.450350" lon="-8.734667">
        <ele>22.728</ele>
        <time>2018-12-30T12:30:45Z</time>
      </trkpt>
      <trkpt lat="37.450395" lon="-8.734724">
        <ele>23.239</ele>
        <time>2018-12-30T12:30:49Z</time>
      </trkpt>
      <trkpt lat="37.450443" lon="-8.734762">
        <ele>23.288</ele>
        <time>2018-12-30T12:30:53Z</time>
      </trkpt>
      <trkpt lat="37.450583" lon="-8.734858">
        <ele>23.224</ele>
        <time>2018-12-30T12:31:06Z</time>
      </trkpt>
      <trkpt lat="37.450714" lon="-8.734929">
        <ele>22.726</ele>
        <time>2018-12-30T12:31:17Z</time>
      </trkpt>
      <trkpt lat="37.450859" lon="-8.734981">
        <ele>22.708</ele>
        <time>2018-12-30T12:31:29Z</time>
      </trkpt>
      <trkpt lat="37.450951" lon="-8.735003">
        <ele>23.251</ele>
        <time>2018-12-30T12:31:37Z</time>
      </trkpt>
      <trkpt lat="37.450989" lon="-8.735019">
        <ele>22.759</ele>
        <time>2018-12-30T12:31:40Z</time>
      </trkpt>
      <trkpt lat="37.451139" lon="-8.735016">
        <ele>21.776</ele>
        <time>2018-12-30T12:31:53Z</time>
      </trkpt>
      <trkpt lat="37.451155" lon="-8.735017">
        <ele>22.251</ele>
        <time>2018-12-30T12:31:54Z</time>
      </trkpt>
      <trkpt lat="37.451316" lon="-8.735004">
        <ele>21.717</ele>
        <time>2018-12-30T12:32:06Z</time>
      </trkpt>
      <trkpt lat="37.451369" lon="-8.734995">
        <ele>22.774</ele>
        <time>2018-12-30T12:32:12Z</time>
      </trkpt>
      <trkpt lat="37.451401" lon="-8.734987">
        <ele>23.219</ele>
        <time>2018-12-30T12:32:14Z</time>
      </trkpt>
      <trkpt lat="37.451467" lon="-8.734978">
        <ele>23.280</ele>
        <time>2018-12-30T12:32:19Z</time>
      </trkpt>
      <trkpt lat="37.451611" lon="-8.734914">
        <ele>23.232</ele>
        <time>2018-12-30T12:32:30Z</time>
      </trkpt>
      <trkpt lat="37.451782" lon="-8.734836">
        <ele>24.192</ele>
        <time>2018-12-30T12:32:44Z</time>
      </trkpt>
      <trkpt lat="37.451788" lon="-8.734830">
        <ele>23.611</ele>
        <time>2018-12-30T12:32:45Z</time>
      </trkpt>
      <trkpt lat="37.451810" lon="-8.734815">
        <ele>23.208</ele>
        <time>2018-12-30T12:32:47Z</time>
      </trkpt>
      <trkpt lat="37.451833" lon="-8.734802">
        <ele>23.636</ele>
        <time>2018-12-30T12:32:49Z</time>
      </trkpt>
      <trkpt lat="37.451877" lon="-8.734795">
        <ele>24.174</ele>
        <time>2018-12-30T12:32:52Z</time>
      </trkpt>
      <trkpt lat="37.451938" lon="-8.734748">
        <ele>23.211</ele>
        <time>2018-12-30T12:32:57Z</time>
      </trkpt>
      <trkpt lat="37.452012" lon="-8.734716">
        <ele>23.686</ele>
        <time>2018-12-30T12:33:03Z</time>
      </trkpt>
      <trkpt lat="37.452056" lon="-8.734683">
        <ele>24.132</ele>
        <time>2018-12-30T12:33:07Z</time>
      </trkpt>
      <trkpt lat="37.452193" lon="-8.734623">
        <ele>24.149</ele>
        <time>2018-12-30T12:33:19Z</time>
      </trkpt>
      <trkpt lat="37.452279" lon="-8.734565">
        <ele>24.144</ele>
        <time>2018-12-30T12:33:26Z</time>
      </trkpt>
      <trkpt lat="37.452333" lon="-8.734499">
        <ele>24.175</ele>
        <time>2018-12-30T12:33:32Z</time>
      </trkpt>
      <trkpt lat="37.452368" lon="-8.734416">
        <ele>24.155</ele>
        <time>2018-12-30T12:33:38Z</time>
      </trkpt>
      <trkpt lat="37.452425" lon="-8.734222">
        <ele>24.107</ele>
        <time>2018-12-30T12:33:52Z</time>
      </trkpt>
      <trkpt lat="37.452469" lon="-8.734120">
        <ele>24.617</ele>
        <time>2018-12-30T12:33:59Z</time>
      </trkpt>
      <trkpt lat="37.452510" lon="-8.734004">
        <ele>24.608</ele>
        <time>2018-12-30T12:34:07Z</time>
      </trkpt>
      <trkpt lat="37.452521" lon="-8.733950">
        <ele>24.138</ele>
        <time>2018-12-30T12:34:11Z</time>
      </trkpt>
      <trkpt lat="37.452551" lon="-8.733815">
        <ele>24.176</ele>
        <time>2018-12-30T12:34:22Z</time>
      </trkpt>
      <trkpt lat="37.452577" lon="-8.733805">
        <ele>24.183</ele>
        <time>2018-12-30T12:34:24Z</time>
      </trkpt>
      <trkpt lat="37.452658" lon="-8.733727">
        <ele>24.158</ele>
        <time>2018-12-30T12:34:31Z</time>
      </trkpt>
      <trkpt lat="37.452673" lon="-8.733704">
        <ele>23.614</ele>
        <time>2018-12-30T12:34:33Z</time>
      </trkpt>
      <trkpt lat="37.452705" lon="-8.733669">
        <ele>23.651</ele>
        <time>2018-12-30T12:34:37Z</time>
      </trkpt>
      <trkpt lat="37.452796" lon="-8.733543">
        <ele>23.656</ele>
        <time>2018-12-30T12:34:47Z</time>
      </trkpt>
      <trkpt lat="37.452876" lon="-8.733384">
        <ele>24.187</ele>
        <time>2018-12-30T12:35:01Z</time>
      </trkpt>
      <trkpt lat="37.452909" lon="-8.733335">
        <ele>24.168</ele>
        <time>2018-12-30T12:35:05Z</time>
      </trkpt>
      <trkpt lat="37.452951" lon="-8.733228">
        <ele>23.642</ele>
        <time>2018-12-30T12:35:14Z</time>
      </trkpt>
      <trkpt lat="37.453062" lon="-8.733058">
        <ele>24.126</ele>
        <time>2018-12-30T12:35:28Z</time>
      </trkpt>
      <trkpt lat="37.453107" lon="-8.732998">
        <ele>24.108</ele>
        <time>2018-12-30T12:35:33Z</time>
      </trkpt>
      <trkpt lat="37.453179" lon="-8.732899">
        <ele>24.679</ele>
        <time>2018-12-30T12:35:41Z</time>
      </trkpt>
      <trkpt lat="37.453344" lon="-8.732770">
        <ele>24.647</ele>
        <time>2018-12-30T12:35:56Z</time>
      </trkpt>
      <trkpt lat="37.453433" lon="-8.732700">
        <ele>24.654</ele>
        <time>2018-12-30T12:36:07Z</time>
      </trkpt>
      <trkpt lat="37.453439" lon="-8.732690">
        <ele>24.669</ele>
        <time>2018-12-30T12:36:08Z</time>
      </trkpt>
      <trkpt lat="37.453536" lon="-8.732569">
        <ele>24.615</ele>
        <time>2018-12-30T12:36:21Z</time>
      </trkpt>
      <trkpt lat="37.453647" lon="-8.732438">
        <ele>24.642</ele>
        <time>2018-12-30T12:36:34Z</time>
      </trkpt>
      <trkpt lat="37.453665" lon="-8.732395">
        <ele>25.187</ele>
        <time>2018-12-30T12:36:37Z</time>
      </trkpt>
      <trkpt lat="37.453684" lon="-8.732281">
        <ele>25.648</ele>
        <time>2018-12-30T12:36:44Z</time>
      </trkpt>
      <trkpt lat="37.453645" lon="-8.732172">
        <ele>25.165</ele>
        <time>2018-12-30T12:36:52Z</time>
      </trkpt>
      <trkpt lat="37.453553" lon="-8.732045">
        <ele>24.668</ele>
        <time>2018-12-30T12:37:03Z</time>
      </trkpt>
      <trkpt lat="37.453552" lon="-8.732015">
        <ele>25.114</ele>
        <time>2018-12-30T12:37:05Z</time>
      </trkpt>
      <trkpt lat="37.453520" lon="-8.731860">
        <ele>25.108</ele>
        <time>2018-12-30T12:37:15Z</time>
      </trkpt>
      <trkpt lat="37.453535" lon="-8.731788">
        <ele>25.199</ele>
        <time>2018-12-30T12:37:20Z</time>
      </trkpt>
      <trkpt lat="37.453551" lon="-8.731747">
        <ele>25.157</ele>
        <time>2018-12-30T12:37:23Z</time>
      </trkpt>
      <trkpt lat="37.453568" lon="-8.731674">
        <ele>25.174</ele>
        <time>2018-12-30T12:37:28Z</time>
      </trkpt>
      <trkpt lat="37.453569" lon="-8.731603">
        <ele>25.139</ele>
        <time>2018-12-30T12:37:33Z</time>
      </trkpt>
      <trkpt lat="37.453528" lon="-8.731425">
        <ele>24.625</ele>
        <time>2018-12-30T12:37:46Z</time>
      </trkpt>
      <trkpt lat="37.453528" lon="-8.731397">
        <ele>24.672</ele>
        <time>2018-12-30T12:37:48Z</time>
      </trkpt>
      <trkpt lat="37.453526" lon="-8.731356">
        <ele>25.127</ele>
        <time>2018-12-30T12:37:51Z</time>
      </trkpt>
      <trkpt lat="37.453520" lon="-8.731284">
        <ele>25.678</ele>
        <time>2018-12-30T12:37:56Z</time>
      </trkpt>
      <trkpt lat="37.453524" lon="-8.731231">
        <ele>25.148</ele>
        <time>2018-12-30T12:37:59Z</time>
      </trkpt>
      <trkpt lat="37.453514" lon="-8.731125">
        <ele>25.661</ele>
        <time>2018-12-30T12:38:06Z</time>
      </trkpt>
      <trkpt lat="37.453509" lon="-8.731075">
        <ele>26.017</ele>
        <time>2018-12-30T12:38:09Z</time>
      </trkpt>
      <trkpt lat="37.453499" lon="-8.731046">
        <ele>25.608</ele>
        <time>2018-12-30T12:38:11Z</time>
      </trkpt>
      <trkpt lat="37.453491" lon="-8.730887">
        <ele>25.637</ele>
        <time>2018-12-30T12:38:21Z</time>
      </trkpt>
      <trkpt lat="37.453471" lon="-8.730772">
        <ele>25.645</ele>
        <time>2018-12-30T12:38:28Z</time>
      </trkpt>
      <trkpt lat="37.453474" lon="-8.730750">
        <ele>26.522</ele>
        <time>2018-12-30T12:38:35Z</time>
      </trkpt>
      <trkpt lat="37.453476" lon="-8.730696">
        <ele>26.537</ele>
        <time>2018-12-30T12:38:39Z</time>
      </trkpt>
      <trkpt lat="37.453449" lon="-8.730627">
        <ele>26.523</ele>
        <time>2018-12-30T12:38:47Z</time>
      </trkpt>
      <trkpt lat="37.453437" lon="-8.730599">
        <ele>27.090</ele>
        <time>2018-12-30T12:38:49Z</time>
      </trkpt>
      <trkpt lat="37.453441" lon="-8.730572">
        <ele>26.585</ele>
        <time>2018-12-30T12:38:54Z</time>
      </trkpt>
      <trkpt lat="37.453407" lon="-8.730401">
        <ele>26.546</ele>
        <time>2018-12-30T12:39:06Z</time>
      </trkpt>
      <trkpt lat="37.453396" lon="-8.730355">
        <ele>26.581</ele>
        <time>2018-12-30T12:39:09Z</time>
      </trkpt>
      <trkpt lat="37.453382" lon="-8.730286">
        <ele>26.061</ele>
        <time>2018-12-30T12:39:13Z</time>
      </trkpt>
      <trkpt lat="37.453372" lon="-8.730229">
        <ele>26.017</ele>
        <time>2018-12-30T12:39:17Z</time>
      </trkpt>
      <trkpt lat="37.453364" lon="-8.730156">
        <ele>25.608</ele>
        <time>2018-12-30T12:39:22Z</time>
      </trkpt>
      <trkpt lat="37.453354" lon="-8.730129">
        <ele>26.031</ele>
        <time>2018-12-30T12:39:24Z</time>
      </trkpt>
      <trkpt lat="37.453365" lon="-8.730026">
        <ele>26.029</ele>
        <time>2018-12-30T12:39:32Z</time>
      </trkpt>
      <trkpt lat="37.453381" lon="-8.729869">
        <ele>26.056</ele>
        <time>2018-12-30T12:39:44Z</time>
      </trkpt>
      <trkpt lat="37.453377" lon="-8.729829">
        <ele>26.061</ele>
        <time>2018-12-30T12:39:48Z</time>
      </trkpt>
      <trkpt lat="37.453372" lon="-8.729795">
        <ele>26.057</ele>
        <time>2018-12-30T12:39:51Z</time>
      </trkpt>
      <trkpt lat="37.453372" lon="-8.729705">
        <ele>26.054</ele>
        <time>2018-12-30T12:39:57Z</time>
      </trkpt>
      <trkpt lat="37.453377" lon="-8.729660">
        <ele>26.089</ele>
        <time>2018-12-30T12:40:01Z</time>
      </trkpt>
      <trkpt lat="37.453383" lon="-8.729592">
        <ele>26.030</ele>
        <time>2018-12-30T12:40:06Z</time>
      </trkpt>
      <trkpt lat="37.453408" lon="-8.729565">
        <ele>26.047</ele>
        <time>2018-12-30T12:40:08Z</time>
      </trkpt>
      <trkpt lat="37.453462" lon="-8.729419">
        <ele>26.529</ele>
        <time>2018-12-30T12:40:19Z</time>
      </trkpt>
      <trkpt lat="37.453550" lon="-8.729322">
        <ele>26.521</ele>
        <time>2018-12-30T12:40:27Z</time>
      </trkpt>
      <trkpt lat="37.453588" lon="-8.729270">
        <ele>27.008</ele>
        <time>2018-12-30T12:40:31Z</time>
      </trkpt>
      <trkpt lat="37.453620" lon="-8.729247">
        <ele>27.047</ele>
        <time>2018-12-30T12:40:34Z</time>
      </trkpt>
      <trkpt lat="37.453766" lon="-8.729139">
        <ele>27.565</ele>
        <time>2018-12-30T12:40:48Z</time>
      </trkpt>
      <trkpt lat="37.453776" lon="-8.729133">
        <ele>27.522</ele>
        <time>2018-12-30T12:40:49Z</time>
      </trkpt>
      <trkpt lat="37.453809" lon="-8.729118">
        <ele>27.527</ele>
        <time>2018-12-30T12:41:02Z</time>
      </trkpt>
      <trkpt lat="37.453830" lon="-8.729121">
        <ele>27.023</ele>
        <time>2018-12-30T12:41:04Z</time>
      </trkpt>
      <trkpt lat="37.453921" lon="-8.729067">
        <ele>27.550</ele>
        <time>2018-12-30T12:41:13Z</time>
      </trkpt>
      <trkpt lat="37.453942" lon="-8.729049">
        <ele>27.545</ele>
        <time>2018-12-30T12:41:15Z</time>
      </trkpt>
      <trkpt lat="37.454000" lon="-8.729023">
        <ele>27.566</ele>
        <time>2018-12-30T12:41:19Z</time>
      </trkpt>
      <trkpt lat="37.454098" lon="-8.728961">
        <ele>27.541</ele>
        <time>2018-12-30T12:41:29Z</time>
      </trkpt>
      <trkpt lat="37.454119" lon="-8.728961">
        <ele>27.081</ele>
        <time>2018-12-30T12:41:31Z</time>
      </trkpt>
      <trkpt lat="37.454167" lon="-8.728956">
        <ele>27.509</ele>
        <time>2018-12-30T12:41:42Z</time>
      </trkpt>
      <trkpt lat="37.454172" lon="-8.728963">
        <ele>27.508</ele>
        <time>2018-12-30T12:41:45Z</time>
      </trkpt>
      <trkpt lat="37.454261" lon="-8.728963">
        <ele>27.527</ele>
        <time>2018-12-30T12:41:58Z</time>
      </trkpt>
      <trkpt lat="37.454290" lon="-8.728959">
        <ele>27.565</ele>
        <time>2018-12-30T12:42:12Z</time>
      </trkpt>
      <trkpt lat="37.454368" lon="-8.728961">
        <ele>28.012</ele>
        <time>2018-12-30T12:42:23Z</time>
      </trkpt>
      <trkpt lat="37.454447" lon="-8.728954">
        <ele>28.057</ele>
        <time>2018-12-30T12:42:34Z</time>
      </trkpt>
      <trkpt lat="37.454491" lon="-8.728966">
        <ele>28.083</ele>
        <time>2018-12-30T12:42:37Z</time>
      </trkpt>
      <trkpt lat="37.454535" lon="-8.728968">
        <ele>28.020</ele>
        <time>2018-12-30T12:42:40Z</time>
      </trkpt>
      <trkpt lat="37.454683" lon="-8.729012">
        <ele>28.565</ele>
        <time>2018-12-30T12:42:50Z</time>
      </trkpt>
      <trkpt lat="37.454782" lon="-8.729060">
        <ele>27.596</ele>
        <time>2018-12-30T12:42:57Z</time>
      </trkpt>
      <trkpt lat="37.454837" lon="-8.729050">
        <ele>28.073</ele>
        <time>2018-12-30T12:43:02Z</time>
      </trkpt>
      <trkpt lat="37.454918" lon="-8.729071">
        <ele>27.585</ele>
        <time>2018-12-30T12:43:09Z</time>
      </trkpt>
      <trkpt lat="37.455106" lon="-8.729043">
        <ele>28.013</ele>
        <time>2018-12-30T12:43:24Z</time>
      </trkpt>
      <trkpt lat="37.455209" lon="-8.729060">
        <ele>28.508</ele>
        <time>2018-12-30T12:43:33Z</time>
      </trkpt>
      <trkpt lat="37.455299" lon="-8.729095">
        <ele>28.530</ele>
        <time>2018-12-30T12:43:41Z</time>
      </trkpt>
      <trkpt lat="37.455322" lon="-8.729098">
        <ele>28.058</ele>
        <time>2018-12-30T12:43:43Z</time>
      </trkpt>
      <trkpt lat="37.455354" lon="-8.729098">
        <ele>28.985</ele>
        <time>2018-12-30T12:43:52Z</time>
      </trkpt>
      <trkpt lat="37.455413" lon="-8.729116">
        <ele>28.940</ele>
        <time>2018-12-30T12:44:00Z</time>
      </trkpt>
      <trkpt lat="37.455457" lon="-8.729137">
        <ele>28.516</ele>
        <time>2018-12-30T12:44:04Z</time>
      </trkpt>
      <trkpt lat="37.455494" lon="-8.729143">
        <ele>28.533</ele>
        <time>2018-12-30T12:44:11Z</time>
      </trkpt>
      <trkpt lat="37.455513" lon="-8.729155">
        <ele>28.548</ele>
        <time>2018-12-30T12:44:14Z</time>
      </trkpt>
      <trkpt lat="37.455636" lon="-8.729203">
        <ele>28.599</ele>
        <time>2018-12-30T12:44:26Z</time>
      </trkpt>
      <trkpt lat="37.455677" lon="-8.729209">
        <ele>28.539</ele>
        <time>2018-12-30T12:44:30Z</time>
      </trkpt>
      <trkpt lat="37.455740" lon="-8.729231">
        <ele>28.901</ele>
        <time>2018-12-30T12:44:36Z</time>
      </trkpt>
      <trkpt lat="37.455762" lon="-8.729267">
        <ele>28.921</ele>
        <time>2018-12-30T12:44:48Z</time>
      </trkpt>
      <trkpt lat="37.455762" lon="-8.729267">
        <ele>29.408</ele>
        <time>2018-12-30T12:44:54Z</time>
      </trkpt>
      <trkpt lat="37.455822" lon="-8.729205">
        <ele>29.486</ele>
        <time>2018-12-30T12:45:01Z</time>
      </trkpt>
      <trkpt lat="37.455889" lon="-8.729193">
        <ele>29.484</ele>
        <time>2018-12-30T12:45:06Z</time>
      </trkpt>
      <trkpt lat="37.455916" lon="-8.729188">
        <ele>28.971</ele>
        <time>2018-12-30T12:45:08Z</time>
      </trkpt>
      <trkpt lat="37.455998" lon="-8.729174">
        <ele>29.486</ele>
        <time>2018-12-30T12:45:16Z</time>
      </trkpt>
      <trkpt lat="37.456058" lon="-8.729144">
        <ele>29.412</ele>
        <time>2018-12-30T12:45:21Z</time>
      </trkpt>
      <trkpt lat="37.456186" lon="-8.729057">
        <ele>29.419</ele>
        <time>2018-12-30T12:45:32Z</time>
      </trkpt>
      <trkpt lat="37.456250" lon="-8.729033">
        <ele>29.414</ele>
        <time>2018-12-30T12:45:37Z</time>
      </trkpt>
      <trkpt lat="37.456309" lon="-8.729006">
        <ele>29.935</ele>
        <time>2018-12-30T12:45:42Z</time>
      </trkpt>
      <trkpt lat="37.456331" lon="-8.728991">
        <ele>29.924</ele>
        <time>2018-12-30T12:45:44Z</time>
      </trkpt>
      <trkpt lat="37.456458" lon="-8.728926">
        <ele>29.404</ele>
        <time>2018-12-30T12:45:56Z</time>
      </trkpt>
      <trkpt lat="37.456512" lon="-8.728910">
        <ele>29.414</ele>
        <time>2018-12-30T12:46:00Z</time>
      </trkpt>
      <trkpt lat="37.456634" lon="-8.728891">
        <ele>29.408</ele>
        <time>2018-12-30T12:46:10Z</time>
      </trkpt>
      <trkpt lat="37.456650" lon="-8.728888">
        <ele>29.975</ele>
        <time>2018-12-30T12:46:11Z</time>
      </trkpt>
      <trkpt lat="37.456713" lon="-8.728878">
        <ele>30.423</ele>
        <time>2018-12-30T12:46:23Z</time>
      </trkpt>
      <trkpt lat="37.456758" lon="-8.728880">
        <ele>30.460</ele>
        <time>2018-12-30T12:46:27Z</time>
      </trkpt>
      <trkpt lat="37.456878" lon="-8.728895">
        <ele>30.425</ele>
        <time>2018-12-30T12:46:39Z</time>
      </trkpt>
      <trkpt lat="37.456910" lon="-8.728896">
        <ele>30.411</ele>
        <time>2018-12-30T12:46:42Z</time>
      </trkpt>
      <trkpt lat="37.457027" lon="-8.728919">
        <ele>30.958</ele>
        <time>2018-12-30T12:46:52Z</time>
      </trkpt>
      <trkpt lat="37.457181" lon="-8.728934">
        <ele>31.373</ele>
        <time>2018-12-30T12:47:04Z</time>
      </trkpt>
      <trkpt lat="37.457275" lon="-8.728954">
        <ele>30.974</ele>
        <time>2018-12-30T12:47:16Z</time>
      </trkpt>
      <trkpt lat="37.457293" lon="-8.728957">
        <ele>30.996</ele>
        <time>2018-12-30T12:47:19Z</time>
      </trkpt>
      <trkpt lat="37.457395" lon="-8.728988">
        <ele>31.331</ele>
        <time>2018-12-30T12:47:29Z</time>
      </trkpt>
      <trkpt lat="37.457480" lon="-8.729001">
        <ele>31.824</ele>
        <time>2018-12-30T12:47:37Z</time>
      </trkpt>
      <trkpt lat="37.457550" lon="-8.728979">
        <ele>31.808</ele>
        <time>2018-12-30T12:47:42Z</time>
      </trkpt>
      <trkpt lat="37.457575" lon="-8.728915">
        <ele>31.822</ele>
        <time>2018-12-30T12:47:47Z</time>
      </trkpt>
      <trkpt lat="37.457566" lon="-8.728871">
        <ele>32.850</ele>
        <time>2018-12-30T12:47:50Z</time>
      </trkpt>
      <trkpt lat="37.457560" lon="-8.728801">
        <ele>33.717</ele>
        <time>2018-12-30T12:47:55Z</time>
      </trkpt>
      <trkpt lat="37.457560" lon="-8.728687">
        <ele>35.242</ele>
        <time>2018-12-30T12:48:04Z</time>
      </trkpt>
      <trkpt lat="37.457574" lon="-8.728670">
        <ele>35.768</ele>
        <time>2018-12-30T12:48:06Z</time>
      </trkpt>
      <trkpt lat="37.457581" lon="-8.728652">
        <ele>35.795</ele>
        <time>2018-12-30T12:48:08Z</time>
      </trkpt>
      <trkpt lat="37.457604" lon="-8.728618">
        <ele>36.150</ele>
        <time>2018-12-30T12:48:11Z</time>
      </trkpt>
      <trkpt lat="37.457611" lon="-8.728592">
        <ele>36.181</ele>
        <time>2018-12-30T12:48:13Z</time>
      </trkpt>
      <trkpt lat="37.457627" lon="-8.728575">
        <ele>36.654</ele>
        <time>2018-12-30T12:48:15Z</time>
      </trkpt>
      <trkpt lat="37.457643" lon="-8.728559">
        <ele>37.156</ele>
        <time>2018-12-30T12:48:17Z</time>
      </trkpt>
      <trkpt lat="37.457670" lon="-8.728550">
        <ele>37.611</ele>
        <time>2018-12-30T12:48:19Z</time>
      </trkpt>
      <trkpt lat="37.457688" lon="-8.728531">
        <ele>38.108</ele>
        <time>2018-12-30T12:48:21Z</time>
      </trkpt>
      <trkpt lat="37.457727" lon="-8.728468">
        <ele>39.548</ele>
        <time>2018-12-30T12:48:28Z</time>
      </trkpt>
      <trkpt lat="37.457753" lon="-8.728411">
        <ele>40.536</ele>
        <time>2018-12-30T12:48:33Z</time>
      </trkpt>
      <trkpt lat="37.457769" lon="-8.728359">
        <ele>40.983</ele>
        <time>2018-12-30T12:48:38Z</time>
      </trkpt>
      <trkpt lat="37.457765" lon="-8.728333">
        <ele>41.958</ele>
        <time>2018-12-30T12:48:41Z</time>
      </trkpt>
      <trkpt lat="37.457729" lon="-8.728233">
        <ele>44.844</ele>
        <time>2018-12-30T12:48:52Z</time>
      </trkpt>
      <trkpt lat="37.457719" lon="-8.728156">
        <ele>47.231</ele>
        <time>2018-12-30T12:48:59Z</time>
      </trkpt>
      <trkpt lat="37.457711" lon="-8.728109">
        <ele>47.776</ele>
        <time>2018-12-30T12:49:03Z</time>
      </trkpt>
      <trkpt lat="37.457667" lon="-8.728013">
        <ele>50.617</ele>
        <time>2018-12-30T12:49:12Z</time>
      </trkpt>
      <trkpt lat="37.457605" lon="-8.727910">
        <ele>53.989</ele>
        <time>2018-12-30T12:49:25Z</time>
      </trkpt>
      <trkpt lat="37.457600" lon="-8.727898">
        <ele>54.406</ele>
        <time>2018-12-30T12:49:26Z</time>
      </trkpt>
      <trkpt lat="37.457554" lon="-8.727798">
        <ele>56.326</ele>
        <time>2018-12-30T12:49:37Z</time>
      </trkpt>
      <trkpt lat="37.457548" lon="-8.727792">
        <ele>56.808</ele>
        <time>2018-12-30T12:49:38Z</time>
      </trkpt>
      <trkpt lat="37.457509" lon="-8.727765">
        <ele>57.321</ele>
        <time>2018-12-30T12:49:42Z</time>
      </trkpt>
      <trkpt lat="37.457385" lon="-8.727764">
        <ele>59.719</ele>
        <time>2018-12-30T12:49:53Z</time>
      </trkpt>
      <trkpt lat="37.457273" lon="-8.727704">
        <ele>62.686</ele>
        <time>2018-12-30T12:50:06Z</time>
      </trkpt>
      <trkpt lat="37.457277" lon="-8.727624">
        <ele>64.581</ele>
        <time>2018-12-30T12:50:13Z</time>
      </trkpt>
      <trkpt lat="37.457287" lon="-8.727599">
        <ele>65.567</ele>
        <time>2018-12-30T12:50:15Z</time>
      </trkpt>
      <trkpt lat="37.457331" lon="-8.727529">
        <ele>66.984</ele>
        <time>2018-12-30T12:50:22Z</time>
      </trkpt>
      <trkpt lat="37.457358" lon="-8.727494">
        <ele>67.929</ele>
        <time>2018-12-30T12:50:26Z</time>
      </trkpt>
      <trkpt lat="37.457368" lon="-8.727478">
        <ele>68.870</ele>
        <time>2018-12-30T12:50:28Z</time>
      </trkpt>
      <trkpt lat="37.457397" lon="-8.727430">
        <ele>69.814</ele>
        <time>2018-12-30T12:50:33Z</time>
      </trkpt>
      <trkpt lat="37.457437" lon="-8.727345">
        <ele>71.254</ele>
        <time>2018-12-30T12:50:40Z</time>
      </trkpt>
      <trkpt lat="37.457462" lon="-8.727309">
        <ele>72.209</ele>
        <time>2018-12-30T12:50:44Z</time>
      </trkpt>
      <trkpt lat="37.457479" lon="-8.727279">
        <ele>73.208</ele>
        <time>2018-12-30T12:50:47Z</time>
      </trkpt>
      <trkpt lat="37.457518" lon="-8.727242">
        <ele>73.654</ele>
        <time>2018-12-30T12:50:51Z</time>
      </trkpt>
      <trkpt lat="37.457538" lon="-8.727189">
        <ele>74.672</ele>
        <time>2018-12-30T12:50:56Z</time>
      </trkpt>
      <trkpt lat="37.457554" lon="-8.727157">
        <ele>75.619</ele>
        <time>2018-12-30T12:50:59Z</time>
      </trkpt>
      <trkpt lat="37.457582" lon="-8.727116">
        <ele>77.044</ele>
        <time>2018-12-30T12:51:04Z</time>
      </trkpt>
      <trkpt lat="37.457584" lon="-8.727092">
        <ele>77.510</ele>
        <time>2018-12-30T12:51:06Z</time>
      </trkpt>
      <trkpt lat="37.457594" lon="-8.727060">
        <ele>78.457</ele>
        <time>2018-12-30T12:51:09Z</time>
      </trkpt>
      <trkpt lat="37.457614" lon="-8.727043">
        <ele>78.962</ele>
        <time>2018-12-30T12:51:11Z</time>
      </trkpt>
      <trkpt lat="37.457632" lon="-8.727015">
        <ele>79.983</ele>
        <time>2018-12-30T12:51:14Z</time>
      </trkpt>
      <trkpt lat="37.457635" lon="-8.727005">
        <ele>79.931</ele>
        <time>2018-12-30T12:51:15Z</time>
      </trkpt>
      <trkpt lat="37.457658" lon="-8.726915">
        <ele>81.361</ele>
        <time>2018-12-30T12:51:22Z</time>
      </trkpt>
      <trkpt lat="37.457683" lon="-8.726863">
        <ele>82.307</ele>
        <time>2018-12-30T12:51:27Z</time>
      </trkpt>
      <trkpt lat="37.457704" lon="-8.726845">
        <ele>82.308</ele>
        <time>2018-12-30T12:51:29Z</time>
      </trkpt>
      <trkpt lat="37.457748" lon="-8.726797">
        <ele>83.776</ele>
        <time>2018-12-30T12:51:33Z</time>
      </trkpt>
      <trkpt lat="37.457770" lon="-8.726779">
        <ele>83.764</ele>
        <time>2018-12-30T12:51:35Z</time>
      </trkpt>
      <trkpt lat="37.457793" lon="-8.726748">
        <ele>83.721</ele>
        <time>2018-12-30T12:51:38Z</time>
      </trkpt>
      <trkpt lat="37.457826" lon="-8.726663">
        <ele>84.726</ele>
        <time>2018-12-30T12:51:44Z</time>
      </trkpt>
      <trkpt lat="37.457845" lon="-8.726620">
        <ele>84.292</ele>
        <time>2018-12-30T12:51:48Z</time>
      </trkpt>
      <trkpt lat="37.457852" lon="-8.726488">
        <ele>85.269</ele>
        <time>2018-12-30T12:51:57Z</time>
      </trkpt>
      <trkpt lat="37.457843" lon="-8.726463">
        <ele>85.634</ele>
        <time>2018-12-30T12:51:59Z</time>
      </trkpt>
      <trkpt lat="37.457835" lon="-8.726402">
        <ele>86.185</ele>
        <time>2018-12-30T12:52:05Z</time>
      </trkpt>
      <trkpt lat="37.457867" lon="-8.726368">
        <ele>85.616</ele>
        <time>2018-12-30T12:52:09Z</time>
      </trkpt>
      <trkpt lat="37.457923" lon="-8.726383">
        <ele>85.676</ele>
        <time>2018-12-30T12:52:21Z</time>
      </trkpt>
      <trkpt lat="37.457923" lon="-8.726383">
        <ele>86.113</ele>
        <time>2018-12-30T12:52:42Z</time>
      </trkpt>
      <trkpt lat="37.457922" lon="-8.726378">
        <ele>85.608</ele>
        <time>2018-12-30T12:53:02Z</time>
      </trkpt>
      <trkpt lat="37.457913" lon="-8.726369">
        <ele>85.694</ele>
        <time>2018-12-30T12:53:19Z</time>
      </trkpt>
      <trkpt lat="37.457902" lon="-8.726363">
        <ele>85.622</ele>
        <time>2018-12-30T12:53:39Z</time>
      </trkpt>
      <trkpt lat="37.457893" lon="-8.726357">
        <ele>85.619</ele>
        <time>2018-12-30T12:53:51Z</time>
      </trkpt>
      <trkpt lat="37.457849" lon="-8.726375">
        <ele>85.624</ele>
        <time>2018-12-30T12:53:56Z</time>
      </trkpt>
      <trkpt lat="37.457805" lon="-8.726350">
        <ele>87.120</ele>
        <time>2018-12-30T12:54:01Z</time>
      </trkpt>
      <trkpt lat="37.457778" lon="-8.726323">
        <ele>88.157</ele>
        <time>2018-12-30T12:54:05Z</time>
      </trkpt>
      <trkpt lat="37.457748" lon="-8.726299">
        <ele>89.042</ele>
        <time>2018-12-30T12:54:09Z</time>
      </trkpt>
      <trkpt lat="37.457726" lon="-8.726307">
        <ele>90.043</ele>
        <time>2018-12-30T12:54:15Z</time>
      </trkpt>
      <trkpt lat="37.457690" lon="-8.726277">
        <ele>90.581</ele>
        <time>2018-12-30T12:54:20Z</time>
      </trkpt>
      <trkpt lat="37.457658" lon="-8.726246">
        <ele>90.961</ele>
        <time>2018-12-30T12:54:23Z</time>
      </trkpt>
      <trkpt lat="37.457597" lon="-8.726219">
        <ele>91.917</ele>
        <time>2018-12-30T12:54:29Z</time>
      </trkpt>
      <trkpt lat="37.457555" lon="-8.726197">
        <ele>92.908</ele>
        <time>2018-12-30T12:54:33Z</time>
      </trkpt>
      <trkpt lat="37.457462" lon="-8.726120">
        <ele>94.391</ele>
        <time>2018-12-30T12:54:42Z</time>
      </trkpt>
      <trkpt lat="37.457435" lon="-8.726104">
        <ele>95.329</ele>
        <time>2018-12-30T12:54:45Z</time>
      </trkpt>
      <trkpt lat="37.457340" lon="-8.726052">
        <ele>96.736</ele>
        <time>2018-12-30T12:54:55Z</time>
      </trkpt>
      <trkpt lat="37.457330" lon="-8.726047">
        <ele>97.211</ele>
        <time>2018-12-30T12:54:56Z</time>
      </trkpt>
      <trkpt lat="37.457305" lon="-8.726040">
        <ele>97.767</ele>
        <time>2018-12-30T12:54:58Z</time>
      </trkpt>
      <trkpt lat="37.457282" lon="-8.726017">
        <ele>99.164</ele>
        <time>2018-12-30T12:55:00Z</time>
      </trkpt>
      <trkpt lat="37.457244" lon="-8.725996">
        <ele>100.629</ele>
        <time>2018-12-30T12:55:05Z</time>
      </trkpt>
      <trkpt lat="37.457197" lon="-8.725955">
        <ele>102.020</ele>
        <time>2018-12-30T12:55:12Z</time>
      </trkpt>
      <trkpt lat="37.457182" lon="-8.725940">
        <ele>102.552</ele>
        <time>2018-12-30T12:55:14Z</time>
      </trkpt>
      <trkpt lat="37.457174" lon="-8.725908">
        <ele>103.453</ele>
        <time>2018-12-30T12:55:16Z</time>
      </trkpt>
      <trkpt lat="37.457149" lon="-8.725849">
        <ele>103.908</ele>
        <time>2018-12-30T12:55:20Z</time>
      </trkpt>
      <trkpt lat="37.457136" lon="-8.725811">
        <ele>104.408</ele>
        <time>2018-12-30T12:55:23Z</time>
      </trkpt>
      <trkpt lat="37.457126" lon="-8.725770">
        <ele>104.988</ele>
        <time>2018-12-30T12:55:26Z</time>
      </trkpt>
      <trkpt lat="37.457130" lon="-8.725739">
        <ele>105.876</ele>
        <time>2018-12-30T12:55:28Z</time>
      </trkpt>
      <trkpt lat="37.457124" lon="-8.725583">
        <ele>108.273</ele>
        <time>2018-12-30T12:55:39Z</time>
      </trkpt>
      <trkpt lat="37.457134" lon="-8.725528">
        <ele>109.248</ele>
        <time>2018-12-30T12:55:43Z</time>
      </trkpt>
      <trkpt lat="37.457161" lon="-8.725451">
        <ele>110.624</ele>
        <time>2018-12-30T12:55:48Z</time>
      </trkpt>
      <trkpt lat="37.457161" lon="-8.725422">
        <ele>111.121</ele>
        <time>2018-12-30T12:55:50Z</time>
      </trkpt>
      <trkpt lat="37.457132" lon="-8.725336">
        <ele>112.676</ele>
        <time>2018-12-30T12:56:00Z</time>
      </trkpt>
      <trkpt lat="37.457131" lon="-8.725331">
        <ele>113.547</ele>
        <time>2018-12-30T12:56:11Z</time>
      </trkpt>
      <trkpt lat="37.457120" lon="-8.725306">
        <ele>113.558</ele>
        <time>2018-12-30T12:56:14Z</time>
      </trkpt>
      <trkpt lat="37.457108" lon="-8.725273">
        <ele>114.052</ele>
        <time>2018-12-30T12:56:16Z</time>
      </trkpt>
      <trkpt lat="37.457096" lon="-8.725187">
        <ele>114.017</ele>
        <time>2018-12-30T12:56:21Z</time>
      </trkpt>
      <trkpt lat="37.457087" lon="-8.725128">
        <ele>115.508</ele>
        <time>2018-12-30T12:56:25Z</time>
      </trkpt>
      <trkpt lat="37.457066" lon="-8.724993">
        <ele>117.988</ele>
        <time>2018-12-30T12:56:35Z</time>
      </trkpt>
      <trkpt lat="37.457057" lon="-8.724953">
        <ele>118.816</ele>
        <time>2018-12-30T12:56:38Z</time>
      </trkpt>
      <trkpt lat="37.456971" lon="-8.724812">
        <ele>121.783</ele>
        <time>2018-12-30T12:56:49Z</time>
      </trkpt>
      <trkpt lat="37.456967" lon="-8.724807">
        <ele>122.228</ele>
        <time>2018-12-30T12:56:50Z</time>
      </trkpt>
      <trkpt lat="37.456947" lon="-8.724796">
        <ele>122.714</ele>
        <time>2018-12-30T12:56:53Z</time>
      </trkpt>
      <trkpt lat="37.456930" lon="-8.724774">
        <ele>122.211</ele>
        <time>2018-12-30T12:56:55Z</time>
      </trkpt>
      <trkpt lat="37.456900" lon="-8.724717">
        <ele>123.646</ele>
        <time>2018-12-30T12:56:59Z</time>
      </trkpt>
      <trkpt lat="37.456882" lon="-8.724688">
        <ele>124.137</ele>
        <time>2018-12-30T12:57:02Z</time>
      </trkpt>
      <trkpt lat="37.456821" lon="-8.724569">
        <ele>126.039</ele>
        <time>2018-12-30T12:57:11Z</time>
      </trkpt>
      <trkpt lat="37.456803" lon="-8.724521">
        <ele>127.501</ele>
        <time>2018-12-30T12:57:17Z</time>
      </trkpt>
      <trkpt lat="37.456785" lon="-8.724468">
        <ele>128.421</ele>
        <time>2018-12-30T12:57:21Z</time>
      </trkpt>
      <trkpt lat="37.456745" lon="-8.724373">
        <ele>130.408</ele>
        <time>2018-12-30T12:57:29Z</time>
      </trkpt>
      <trkpt lat="37.456729" lon="-8.724352">
        <ele>130.826</ele>
        <time>2018-12-30T12:57:31Z</time>
      </trkpt>
      <trkpt lat="37.456701" lon="-8.724334">
        <ele>132.394</ele>
        <time>2018-12-30T12:57:34Z</time>
      </trkpt>
      <trkpt lat="37.456691" lon="-8.724326">
        <ele>132.381</ele>
        <time>2018-12-30T12:57:35Z</time>
      </trkpt>
      <trkpt lat="37.456672" lon="-8.724310">
        <ele>132.326</ele>
        <time>2018-12-30T12:57:37Z</time>
      </trkpt>
      <trkpt lat="37.456627" lon="-8.724303">
        <ele>133.272</ele>
        <time>2018-12-30T12:57:41Z</time>
      </trkpt>
      <trkpt lat="37.456604" lon="-8.724291">
        <ele>133.229</ele>
        <time>2018-12-30T12:57:43Z</time>
      </trkpt>
      <trkpt lat="37.456567" lon="-8.724285">
        <ele>134.244</ele>
        <time>2018-12-30T12:57:47Z</time>
      </trkpt>
      <trkpt lat="37.456530" lon="-8.724243">
        <ele>134.725</ele>
        <time>2018-12-30T12:57:51Z</time>
      </trkpt>
      <trkpt lat="37.456510" lon="-8.724229">
        <ele>135.243</ele>
        <time>2018-12-30T12:57:53Z</time>
      </trkpt>
      <trkpt lat="37.456473" lon="-8.724197">
        <ele>135.264</ele>
        <time>2018-12-30T12:57:57Z</time>
      </trkpt>
      <trkpt lat="37.456432" lon="-8.724150">
        <ele>135.210</ele>
        <time>2018-12-30T12:58:01Z</time>
      </trkpt>
      <trkpt lat="37.456369" lon="-8.724056">
        <ele>136.108</ele>
        <time>2018-12-30T12:58:09Z</time>
      </trkpt>
      <trkpt lat="37.456360" lon="-8.724014">
        <ele>137.117</ele>
        <time>2018-12-30T12:58:12Z</time>
      </trkpt>
      <trkpt lat="37.456349" lon="-8.723958">
        <ele>137.135</ele>
        <time>2018-12-30T12:58:16Z</time>
      </trkpt>
      <trkpt lat="37.456345" lon="-8.723921">
        <ele>137.682</ele>
        <time>2018-12-30T12:58:18Z</time>
      </trkpt>
      <trkpt lat="37.456338" lon="-8.723899">
        <ele>138.087</ele>
        <time>2018-12-30T12:58:20Z</time>
      </trkpt>
      <trkpt lat="37.456310" lon="-8.723811">
        <ele>139.053</ele>
        <time>2018-12-30T12:58:26Z</time>
      </trkpt>
      <trkpt lat="37.456293" lon="-8.723760">
        <ele>139.520</ele>
        <time>2018-12-30T12:58:30Z</time>
      </trkpt>
      <trkpt lat="37.456283" lon="-8.723711">
        <ele>140.045</ele>
        <time>2018-12-30T12:58:33Z</time>
      </trkpt>
      <trkpt lat="37.456265" lon="-8.723644">
        <ele>140.446</ele>
        <time>2018-12-30T12:58:38Z</time>
      </trkpt>
      <trkpt lat="37.456260" lon="-8.723622">
        <ele>140.946</ele>
        <time>2018-12-30T12:58:40Z</time>
      </trkpt>
      <trkpt lat="37.456239" lon="-8.723557">
        <ele>141.988</ele>
        <time>2018-12-30T12:58:45Z</time>
      </trkpt>
      <trkpt lat="37.456224" lon="-8.723515">
        <ele>142.816</ele>
        <time>2018-12-30T12:58:48Z</time>
      </trkpt>
      <trkpt lat="37.456193" lon="-8.723370">
        <ele>143.808</ele>
        <time>2018-12-30T12:58:58Z</time>
      </trkpt>
      <trkpt lat="37.456180" lon="-8.723312">
        <ele>143.887</ele>
        <time>2018-12-30T12:59:02Z</time>
      </trkpt>
      <trkpt lat="37.456175" lon="-8.723284">
        <ele>145.385</ele>
        <time>2018-12-30T12:59:07Z</time>
      </trkpt>
      <trkpt lat="37.456175" lon="-8.723275">
        <ele>143.862</ele>
        <time>2018-12-30T12:59:15Z</time>
      </trkpt>
      <trkpt lat="37.456153" lon="-8.723227">
        <ele>144.887</ele>
        <time>2018-12-30T12:59:26Z</time>
      </trkpt>
      <trkpt lat="37.456144" lon="-8.723144">
        <ele>145.723</ele>
        <time>2018-12-30T12:59:31Z</time>
      </trkpt>
      <trkpt lat="37.456114" lon="-8.722987">
        <ele>145.780</ele>
        <time>2018-12-30T12:59:42Z</time>
      </trkpt>
      <trkpt lat="37.456080" lon="-8.722820">
        <ele>145.765</ele>
        <time>2018-12-30T12:59:53Z</time>
      </trkpt>
      <trkpt lat="37.456008" lon="-8.722631">
        <ele>145.386</ele>
        <time>2018-12-30T13:00:07Z</time>
      </trkpt>
      <trkpt lat="37.456000" lon="-8.722595">
        <ele>144.813</ele>
        <time>2018-12-30T13:00:10Z</time>
      </trkpt>
      <trkpt lat="37.455958" lon="-8.722411">
        <ele>145.343</ele>
        <time>2018-12-30T13:00:22Z</time>
      </trkpt>
      <trkpt lat="37.455908" lon="-8.722281">
        <ele>147.207</ele>
        <time>2018-12-30T13:00:34Z</time>
      </trkpt>
      <trkpt lat="37.455879" lon="-8.722137">
        <ele>150.108</ele>
        <time>2018-12-30T13:00:46Z</time>
      </trkpt>
      <trkpt lat="37.455842" lon="-8.722036">
        <ele>151.554</ele>
        <time>2018-12-30T13:00:54Z</time>
      </trkpt>
      <trkpt lat="37.455826" lon="-8.721886">
        <ele>152.082</ele>
        <time>2018-12-30T13:01:02Z</time>
      </trkpt>
      <trkpt lat="37.455779" lon="-8.721750">
        <ele>153.469</ele>
        <time>2018-12-30T13:01:12Z</time>
      </trkpt>
      <trkpt lat="37.455755" lon="-8.721665">
        <ele>154.474</ele>
        <time>2018-12-30T13:01:18Z</time>
      </trkpt>
      <trkpt lat="37.455753" lon="-8.721585">
        <ele>154.990</ele>
        <time>2018-12-30T13:01:24Z</time>
      </trkpt>
      <trkpt lat="37.455761" lon="-8.721545">
        <ele>155.387</ele>
        <time>2018-12-30T13:01:27Z</time>
      </trkpt>
      <trkpt lat="37.455797" lon="-8.721411">
        <ele>153.932</ele>
        <time>2018-12-30T13:01:36Z</time>
      </trkpt>
      <trkpt lat="37.455819" lon="-8.721320">
        <ele>153.453</ele>
        <time>2018-12-30T13:01:42Z</time>
      </trkpt>
      <trkpt lat="37.455846" lon="-8.721179">
        <ele>153.452</ele>
        <time>2018-12-30T13:01:51Z</time>
      </trkpt>
      <trkpt lat="37.455863" lon="-8.721147">
        <ele>153.453</ele>
        <time>2018-12-30T13:01:53Z</time>
      </trkpt>
      <trkpt lat="37.455876" lon="-8.720994">
        <ele>153.908</ele>
        <time>2018-12-30T13:02:03Z</time>
      </trkpt>
      <trkpt lat="37.455885" lon="-8.720907">
        <ele>153.908</ele>
        <time>2018-12-30T13:02:09Z</time>
      </trkpt>
      <trkpt lat="37.455894" lon="-8.720764">
        <ele>153.958</ele>
        <time>2018-12-30T13:02:18Z</time>
      </trkpt>
      <trkpt lat="37.455894" lon="-8.720665">
        <ele>153.976</ele>
        <time>2018-12-30T13:02:24Z</time>
      </trkpt>
      <trkpt lat="37.455878" lon="-8.720548">
        <ele>155.353</ele>
        <time>2018-12-30T13:02:32Z</time>
      </trkpt>
      <trkpt lat="37.455879" lon="-8.720489">
        <ele>155.398</ele>
        <time>2018-12-30T13:02:36Z</time>
      </trkpt>
      <trkpt lat="37.455866" lon="-8.720428">
        <ele>155.854</ele>
        <time>2018-12-30T13:02:40Z</time>
      </trkpt>
      <trkpt lat="37.455866" lon="-8.720398">
        <ele>156.851</ele>
        <time>2018-12-30T13:02:42Z</time>
      </trkpt>
      <trkpt lat="37.455863" lon="-8.720231">
        <ele>157.366</ele>
        <time>2018-12-30T13:02:53Z</time>
      </trkpt>
      <trkpt lat="37.455861" lon="-8.720202">
        <ele>157.797</ele>
        <time>2018-12-30T13:02:55Z</time>
      </trkpt>
      <trkpt lat="37.455834" lon="-8.720049">
        <ele>158.225</ele>
        <time>2018-12-30T13:03:05Z</time>
      </trkpt>
      <trkpt lat="37.455827" lon="-8.720022">
        <ele>158.726</ele>
        <time>2018-12-30T13:03:07Z</time>
      </trkpt>
      <trkpt lat="37.455826" lon="-8.719945">
        <ele>159.208</ele>
        <time>2018-12-30T13:03:12Z</time>
      </trkpt>
      <trkpt lat="37.455812" lon="-8.719837">
        <ele>160.608</ele>
        <time>2018-12-30T13:03:19Z</time>
      </trkpt>
      <trkpt lat="37.455820" lon="-8.719782">
        <ele>161.175</ele>
        <time>2018-12-30T13:03:23Z</time>
      </trkpt>
      <trkpt lat="37.455824" lon="-8.719727">
        <ele>161.623</ele>
        <time>2018-12-30T13:03:27Z</time>
      </trkpt>
      <trkpt lat="37.455814" lon="-8.719624">
        <ele>163.060</ele>
        <time>2018-12-30T13:03:35Z</time>
      </trkpt>
      <trkpt lat="37.455822" lon="-8.719567">
        <ele>163.535</ele>
        <time>2018-12-30T13:03:39Z</time>
      </trkpt>
      <trkpt lat="37.455829" lon="-8.719478">
        <ele>165.031</ele>
        <time>2018-12-30T13:03:45Z</time>
      </trkpt>
      <trkpt lat="37.455820" lon="-8.719442">
        <ele>165.098</ele>
        <time>2018-12-30T13:03:47Z</time>
      </trkpt>
      <trkpt lat="37.455872" lon="-8.719292">
        <ele>165.483</ele>
        <time>2018-12-30T13:03:58Z</time>
      </trkpt>
      <trkpt lat="37.455876" lon="-8.719277">
        <ele>165.494</ele>
        <time>2018-12-30T13:03:59Z</time>
      </trkpt>
      <trkpt lat="37.455891" lon="-8.719254">
        <ele>165.431</ele>
        <time>2018-12-30T13:04:01Z</time>
      </trkpt>
      <trkpt lat="37.455918" lon="-8.719193">
        <ele>165.961</ele>
        <time>2018-12-30T13:04:06Z</time>
      </trkpt>
      <trkpt lat="37.455973" lon="-8.719121">
        <ele>166.407</ele>
        <time>2018-12-30T13:04:12Z</time>
      </trkpt>
      <trkpt lat="37.455978" lon="-8.719086">
        <ele>166.408</ele>
        <time>2018-12-30T13:04:15Z</time>
      </trkpt>
      <trkpt lat="37.456004" lon="-8.719021">
        <ele>166.416</ele>
        <time>2018-12-30T13:04:20Z</time>
      </trkpt>
      <trkpt lat="37.456023" lon="-8.718981">
        <ele>166.424</ele>
        <time>2018-12-30T13:04:23Z</time>
      </trkpt>
      <trkpt lat="37.456069" lon="-8.718884">
        <ele>167.431</ele>
        <time>2018-12-30T13:04:30Z</time>
      </trkpt>
      <trkpt lat="37.456136" lon="-8.718748">
        <ele>167.476</ele>
        <time>2018-12-30T13:04:40Z</time>
      </trkpt>
      <trkpt lat="37.456182" lon="-8.718632">
        <ele>167.482</ele>
        <time>2018-12-30T13:04:48Z</time>
      </trkpt>
      <trkpt lat="37.456220" lon="-8.718538">
        <ele>167.899</ele>
        <time>2018-12-30T13:04:55Z</time>
      </trkpt>
      <trkpt lat="37.456230" lon="-8.718515">
        <ele>168.344</ele>
        <time>2018-12-30T13:04:57Z</time>
      </trkpt>
      <trkpt lat="37.456240" lon="-8.718412">
        <ele>169.375</ele>
        <time>2018-12-30T13:05:04Z</time>
      </trkpt>
      <trkpt lat="37.456240" lon="-8.718379">
        <ele>169.864</ele>
        <time>2018-12-30T13:05:07Z</time>
      </trkpt>
      <trkpt lat="37.456264" lon="-8.718277">
        <ele>170.206</ele>
        <time>2018-12-30T13:05:14Z</time>
      </trkpt>
      <trkpt lat="37.456285" lon="-8.718250">
        <ele>169.816</ele>
        <time>2018-12-30T13:05:16Z</time>
      </trkpt>
      <trkpt lat="37.456302" lon="-8.718214">
        <ele>170.208</ele>
        <time>2018-12-30T13:05:19Z</time>
      </trkpt>
      <trkpt lat="37.456309" lon="-8.718129">
        <ele>170.299</ele>
        <time>2018-12-30T13:05:24Z</time>
      </trkpt>
      <trkpt lat="37.456325" lon="-8.718101">
        <ele>170.777</ele>
        <time>2018-12-30T13:05:26Z</time>
      </trkpt>
      <trkpt lat="37.456341" lon="-8.718077">
        <ele>170.734</ele>
        <time>2018-12-30T13:05:28Z</time>
      </trkpt>
      <trkpt lat="37.456368" lon="-8.718007">
        <ele>171.779</ele>
        <time>2018-12-30T13:05:34Z</time>
      </trkpt>
      <trkpt lat="37.456385" lon="-8.717880">
        <ele>172.695</ele>
        <time>2018-12-30T13:05:42Z</time>
      </trkpt>
      <trkpt lat="37.456389" lon="-8.717763">
        <ele>173.682</ele>
        <time>2018-12-30T13:05:50Z</time>
      </trkpt>
      <trkpt lat="37.456362" lon="-8.717665">
        <ele>175.537</ele>
        <time>2018-12-30T13:05:59Z</time>
      </trkpt>
      <trkpt lat="37.456328" lon="-8.717585">
        <ele>176.538</ele>
        <time>2018-12-30T13:06:06Z</time>
      </trkpt>
      <trkpt lat="37.456316" lon="-8.717546">
        <ele>177.047</ele>
        <time>2018-12-30T13:06:09Z</time>
      </trkpt>
      <trkpt lat="37.456302" lon="-8.717521">
        <ele>177.529</ele>
        <time>2018-12-30T13:06:11Z</time>
      </trkpt>
      <trkpt lat="37.456279" lon="-8.717503">
        <ele>177.921</ele>
        <time>2018-12-30T13:06:14Z</time>
      </trkpt>
      <trkpt lat="37.456262" lon="-8.717477">
        <ele>178.408</ele>
        <time>2018-12-30T13:06:17Z</time>
      </trkpt>
      <trkpt lat="37.456241" lon="-8.717449">
        <ele>178.467</ele>
        <time>2018-12-30T13:06:20Z</time>
      </trkpt>
      <trkpt lat="37.456205" lon="-8.717412">
        <ele>178.985</ele>
        <time>2018-12-30T13:06:24Z</time>
      </trkpt>
      <trkpt lat="37.456190" lon="-8.717392">
        <ele>179.492</ele>
        <time>2018-12-30T13:06:26Z</time>
      </trkpt>
      <trkpt lat="37.456176" lon="-8.717375">
        <ele>179.427</ele>
        <time>2018-12-30T13:06:28Z</time>
      </trkpt>
      <trkpt lat="37.456165" lon="-8.717337">
        <ele>179.473</ele>
        <time>2018-12-30T13:06:31Z</time>
      </trkpt>
      <trkpt lat="37.456154" lon="-8.717286">
        <ele>179.990</ele>
        <time>2018-12-30T13:06:35Z</time>
      </trkpt>
      <trkpt lat="37.456168" lon="-8.717226">
        <ele>180.875</ele>
        <time>2018-12-30T13:06:39Z</time>
      </trkpt>
      <trkpt lat="37.456177" lon="-8.717189">
        <ele>181.846</ele>
        <time>2018-12-30T13:06:42Z</time>
      </trkpt>
      <trkpt lat="37.456212" lon="-8.717122">
        <ele>181.365</ele>
        <time>2018-12-30T13:06:47Z</time>
      </trkpt>
      <trkpt lat="37.456281" lon="-8.717040">
        <ele>183.268</ele>
        <time>2018-12-30T13:06:55Z</time>
      </trkpt>
      <trkpt lat="37.456322" lon="-8.716969">
        <ele>183.714</ele>
        <time>2018-12-30T13:07:01Z</time>
      </trkpt>
      <trkpt lat="37.456349" lon="-8.716944">
        <ele>184.708</ele>
        <time>2018-12-30T13:07:04Z</time>
      </trkpt>
      <trkpt lat="37.456370" lon="-8.716929">
        <ele>185.119</ele>
        <time>2018-12-30T13:07:06Z</time>
      </trkpt>
      <trkpt lat="37.456394" lon="-8.716897">
        <ele>185.627</ele>
        <time>2018-12-30T13:07:09Z</time>
      </trkpt>
      <trkpt lat="37.456452" lon="-8.716795">
        <ele>186.664</ele>
        <time>2018-12-30T13:07:18Z</time>
      </trkpt>
      <trkpt lat="37.456472" lon="-8.716774">
        <ele>187.189</ele>
        <time>2018-12-30T13:07:20Z</time>
      </trkpt>
      <trkpt lat="37.456483" lon="-8.716730">
        <ele>186.695</ele>
        <time>2018-12-30T13:07:23Z</time>
      </trkpt>
      <trkpt lat="37.456515" lon="-8.716641">
        <ele>188.012</ele>
        <time>2018-12-30T13:07:30Z</time>
      </trkpt>
      <trkpt lat="37.456555" lon="-8.716538">
        <ele>190.027</ele>
        <time>2018-12-30T13:07:38Z</time>
      </trkpt>
      <trkpt lat="37.456583" lon="-8.716463">
        <ele>190.418</ele>
        <time>2018-12-30T13:07:44Z</time>
      </trkpt>
      <trkpt lat="37.456611" lon="-8.716404">
        <ele>190.956</ele>
        <time>2018-12-30T13:07:49Z</time>
      </trkpt>
      <trkpt lat="37.456638" lon="-8.716346">
        <ele>192.459</ele>
        <time>2018-12-30T13:07:54Z</time>
      </trkpt>
      <trkpt lat="37.456646" lon="-8.716306">
        <ele>192.414</ele>
        <time>2018-12-30T13:07:57Z</time>
      </trkpt>
      <trkpt lat="37.456661" lon="-8.716203">
        <ele>191.908</ele>
        <time>2018-12-30T13:08:04Z</time>
      </trkpt>
      <trkpt lat="37.456615" lon="-8.716022">
        <ele>191.488</ele>
        <time>2018-12-30T13:08:17Z</time>
      </trkpt>
      <trkpt lat="37.456604" lon="-8.715999">
        <ele>191.986</ele>
        <time>2018-12-30T13:08:19Z</time>
      </trkpt>
      <trkpt lat="37.456585" lon="-8.715928">
        <ele>191.453</ele>
        <time>2018-12-30T13:08:24Z</time>
      </trkpt>
      <trkpt lat="37.456571" lon="-8.715878">
        <ele>190.918</ele>
        <time>2018-12-30T13:08:28Z</time>
      </trkpt>
      <trkpt lat="37.456576" lon="-8.715825">
        <ele>190.974</ele>
        <time>2018-12-30T13:08:32Z</time>
      </trkpt>
      <trkpt lat="37.456644" lon="-8.715730">
        <ele>191.411</ele>
        <time>2018-12-30T13:08:41Z</time>
      </trkpt>
      <trkpt lat="37.456673" lon="-8.715721">
        <ele>191.476</ele>
        <time>2018-12-30T13:08:44Z</time>
      </trkpt>
      <trkpt lat="37.456746" lon="-8.715698">
        <ele>190.937</ele>
        <time>2018-12-30T13:08:50Z</time>
      </trkpt>
      <trkpt lat="37.456887" lon="-8.715669">
        <ele>189.582</ele>
        <time>2018-12-30T13:09:01Z</time>
      </trkpt>
      <trkpt lat="37.456934" lon="-8.715653">
        <ele>189.043</ele>
        <time>2018-12-30T13:09:05Z</time>
      </trkpt>
      <trkpt lat="37.457013" lon="-8.715647">
        <ele>188.517</ele>
        <time>2018-12-30T13:09:11Z</time>
      </trkpt>
      <trkpt lat="37.457122" lon="-8.715627">
        <ele>188.508</ele>
        <time>2018-12-30T13:09:21Z</time>
      </trkpt>
      <trkpt lat="37.457178" lon="-8.715614">
        <ele>189.581</ele>
        <time>2018-12-30T13:09:26Z</time>
      </trkpt>
      <trkpt lat="37.457254" lon="-8.715604">
        <ele>189.589</ele>
        <time>2018-12-30T13:09:33Z</time>
      </trkpt>
      <trkpt lat="37.457319" lon="-8.715607">
        <ele>190.016</ele>
        <time>2018-12-30T13:09:38Z</time>
      </trkpt>
      <trkpt lat="37.457386" lon="-8.715597">
        <ele>190.461</ele>
        <time>2018-12-30T13:09:45Z</time>
      </trkpt>
      <trkpt lat="37.457540" lon="-8.715569">
        <ele>190.067</ele>
        <time>2018-12-30T13:09:58Z</time>
      </trkpt>
      <trkpt lat="37.457708" lon="-8.715560">
        <ele>189.094</ele>
        <time>2018-12-30T13:10:11Z</time>
      </trkpt>
      <trkpt lat="37.457844" lon="-8.715530">
        <ele>188.019</ele>
        <time>2018-12-30T13:10:23Z</time>
      </trkpt>
      <trkpt lat="37.457975" lon="-8.715497">
        <ele>188.070</ele>
        <time>2018-12-30T13:10:34Z</time>
      </trkpt>
      <trkpt lat="37.458007" lon="-8.715491">
        <ele>188.553</ele>
        <time>2018-12-30T13:10:37Z</time>
      </trkpt>
      <trkpt lat="37.458147" lon="-8.715473">
        <ele>188.504</ele>
        <time>2018-12-30T13:10:48Z</time>
      </trkpt>
      <trkpt lat="37.458311" lon="-8.715465">
        <ele>189.014</ele>
        <time>2018-12-30T13:11:01Z</time>
      </trkpt>
      <trkpt lat="37.458429" lon="-8.715457">
        <ele>190.408</ele>
        <time>2018-12-30T13:11:12Z</time>
      </trkpt>
      <trkpt lat="37.458554" lon="-8.715464">
        <ele>189.058</ele>
        <time>2018-12-30T13:11:23Z</time>
      </trkpt>
      <trkpt lat="37.458622" lon="-8.715498">
        <ele>188.586</ele>
        <time>2018-12-30T13:11:30Z</time>
      </trkpt>
      <trkpt lat="37.458651" lon="-8.715515">
        <ele>189.063</ele>
        <time>2018-12-30T13:11:33Z</time>
      </trkpt>
      <trkpt lat="37.458670" lon="-8.715510">
        <ele>188.548</ele>
        <time>2018-12-30T13:11:35Z</time>
      </trkpt>
      <trkpt lat="37.458744" lon="-8.715545">
        <ele>187.114</ele>
        <time>2018-12-30T13:11:42Z</time>
      </trkpt>
      <trkpt lat="37.458765" lon="-8.715560">
        <ele>187.181</ele>
        <time>2018-12-30T13:11:44Z</time>
      </trkpt>
      <trkpt lat="37.458863" lon="-8.715606">
        <ele>185.626</ele>
        <time>2018-12-30T13:11:52Z</time>
      </trkpt>
      <trkpt lat="37.458878" lon="-8.715623">
        <ele>185.177</ele>
        <time>2018-12-30T13:11:54Z</time>
      </trkpt>
      <trkpt lat="37.458901" lon="-8.715632">
        <ele>185.155</ele>
        <time>2018-12-30T13:11:56Z</time>
      </trkpt>
      <trkpt lat="37.458944" lon="-8.715698">
        <ele>184.207</ele>
        <time>2018-12-30T13:12:02Z</time>
      </trkpt>
      <trkpt lat="37.458963" lon="-8.715718">
        <ele>183.717</ele>
        <time>2018-12-30T13:12:04Z</time>
      </trkpt>
      <trkpt lat="37.459047" lon="-8.715846">
        <ele>180.308</ele>
        <time>2018-12-30T13:12:16Z</time>
      </trkpt>
      <trkpt lat="37.459128" lon="-8.715973">
        <ele>177.978</ele>
        <time>2018-12-30T13:12:27Z</time>
      </trkpt>
      <trkpt lat="37.459178" lon="-8.716056">
        <ele>176.516</ele>
        <time>2018-12-30T13:12:34Z</time>
      </trkpt>
      <trkpt lat="37.459218" lon="-8.716101">
        <ele>176.573</ele>
        <time>2018-12-30T13:12:38Z</time>
      </trkpt>
      <trkpt lat="37.459292" lon="-8.716194">
        <ele>175.118</ele>
        <time>2018-12-30T13:12:47Z</time>
      </trkpt>
      <trkpt lat="37.459338" lon="-8.716279">
        <ele>173.614</ele>
        <time>2018-12-30T13:12:54Z</time>
      </trkpt>
      <trkpt lat="37.459368" lon="-8.716442">
        <ele>171.741</ele>
        <time>2018-12-30T13:13:06Z</time>
      </trkpt>
      <trkpt lat="37.459373" lon="-8.716465">
        <ele>171.276</ele>
        <time>2018-12-30T13:13:08Z</time>
      </trkpt>
      <trkpt lat="37.459386" lon="-8.716536">
        <ele>170.267</ele>
        <time>2018-12-30T13:13:14Z</time>
      </trkpt>
      <trkpt lat="37.459426" lon="-8.716548">
        <ele>169.874</ele>
        <time>2018-12-30T13:13:17Z</time>
      </trkpt>
      <trkpt lat="37.459470" lon="-8.716512">
        <ele>168.856</ele>
        <time>2018-12-30T13:13:21Z</time>
      </trkpt>
      <trkpt lat="37.459496" lon="-8.716379">
        <ele>168.821</ele>
        <time>2018-12-30T13:13:30Z</time>
      </trkpt>
      <trkpt lat="37.459491" lon="-8.716333">
        <ele>168.808</ele>
        <time>2018-12-30T13:13:33Z</time>
      </trkpt>
      <trkpt lat="37.459499" lon="-8.716296">
        <ele>168.840</ele>
        <time>2018-12-30T13:13:35Z</time>
      </trkpt>
      <trkpt lat="37.459513" lon="-8.716161">
        <ele>168.348</ele>
        <time>2018-12-30T13:13:44Z</time>
      </trkpt>
      <trkpt lat="37.459478" lon="-8.716001">
        <ele>168.375</ele>
        <time>2018-12-30T13:13:54Z</time>
      </trkpt>
      <trkpt lat="37.459478" lon="-8.715918">
        <ele>166.950</ele>
        <time>2018-12-30T13:13:59Z</time>
      </trkpt>
      <trkpt lat="37.459484" lon="-8.715859">
        <ele>165.986</ele>
        <time>2018-12-30T13:14:04Z</time>
      </trkpt>
      <trkpt lat="37.459507" lon="-8.715849">
        <ele>165.963</ele>
        <time>2018-12-30T13:14:07Z</time>
      </trkpt>
      <trkpt lat="37.459530" lon="-8.715864">
        <ele>165.998</ele>
        <time>2018-12-30T13:14:10Z</time>
      </trkpt>
      <trkpt lat="37.459538" lon="-8.715897">
        <ele>164.549</ele>
        <time>2018-12-30T13:14:13Z</time>
      </trkpt>
      <trkpt lat="37.459576" lon="-8.715956">
        <ele>162.631</ele>
        <time>2018-12-30T13:14:20Z</time>
      </trkpt>
      <trkpt lat="37.459651" lon="-8.716100">
        <ele>160.661</ele>
        <time>2018-12-30T13:14:31Z</time>
      </trkpt>
      <trkpt lat="37.459668" lon="-8.716131">
        <ele>159.707</ele>
        <time>2018-12-30T13:14:34Z</time>
      </trkpt>
      <trkpt lat="37.459684" lon="-8.716211">
        <ele>158.708</ele>
        <time>2018-12-30T13:14:40Z</time>
      </trkpt>
      <trkpt lat="37.459727" lon="-8.716316">
        <ele>156.846</ele>
        <time>2018-12-30T13:14:48Z</time>
      </trkpt>
      <trkpt lat="37.459765" lon="-8.716400">
        <ele>155.364</ele>
        <time>2018-12-30T13:14:56Z</time>
      </trkpt>
      <trkpt lat="37.459778" lon="-8.716434">
        <ele>154.451</ele>
        <time>2018-12-30T13:14:58Z</time>
      </trkpt>
      <trkpt lat="37.459811" lon="-8.716487">
        <ele>153.496</ele>
        <time>2018-12-30T13:15:02Z</time>
      </trkpt>
      <trkpt lat="37.459918" lon="-8.716550">
        <ele>151.592</ele>
        <time>2018-12-30T13:15:12Z</time>
      </trkpt>
      <trkpt lat="37.460008" lon="-8.716551">
        <ele>149.649</ele>
        <time>2018-12-30T13:15:20Z</time>
      </trkpt>
      <trkpt lat="37.460081" lon="-8.716565">
        <ele>148.644</ele>
        <time>2018-12-30T13:15:26Z</time>
      </trkpt>
      <trkpt lat="37.460104" lon="-8.716572">
        <ele>148.635</ele>
        <time>2018-12-30T13:15:28Z</time>
      </trkpt>
      <trkpt lat="37.460154" lon="-8.716589">
        <ele>146.797</ele>
        <time>2018-12-30T13:15:32Z</time>
      </trkpt>
      <trkpt lat="37.460280" lon="-8.716641">
        <ele>143.823</ele>
        <time>2018-12-30T13:15:42Z</time>
      </trkpt>
      <trkpt lat="37.460435" lon="-8.716568">
        <ele>141.425</ele>
        <time>2018-12-30T13:15:52Z</time>
      </trkpt>
      <trkpt lat="37.460567" lon="-8.716463">
        <ele>139.008</ele>
        <time>2018-12-30T13:16:02Z</time>
      </trkpt>
      <trkpt lat="37.460582" lon="-8.716425">
        <ele>138.092</ele>
        <time>2018-12-30T13:16:05Z</time>
      </trkpt>
      <trkpt lat="37.460670" lon="-8.716382">
        <ele>135.610</ele>
        <time>2018-12-30T13:16:12Z</time>
      </trkpt>
      <trkpt lat="37.460723" lon="-8.716368">
        <ele>135.217</ele>
        <time>2018-12-30T13:16:16Z</time>
      </trkpt>
      <trkpt lat="37.460880" lon="-8.716373">
        <ele>132.332</ele>
        <time>2018-12-30T13:16:27Z</time>
      </trkpt>
      <trkpt lat="37.460889" lon="-8.716371">
        <ele>131.868</ele>
        <time>2018-12-30T13:16:28Z</time>
      </trkpt>
      <trkpt lat="37.460916" lon="-8.716371">
        <ele>131.875</ele>
        <time>2018-12-30T13:16:30Z</time>
      </trkpt>
      <trkpt lat="37.461022" lon="-8.716362">
        <ele>129.960</ele>
        <time>2018-12-30T13:16:36Z</time>
      </trkpt>
      <trkpt lat="37.461161" lon="-8.716317">
        <ele>128.491</ele>
        <time>2018-12-30T13:16:47Z</time>
      </trkpt>
      <trkpt lat="37.461254" lon="-8.716282">
        <ele>126.544</ele>
        <time>2018-12-30T13:16:56Z</time>
      </trkpt>
      <trkpt lat="37.461296" lon="-8.716273">
        <ele>126.005</ele>
        <time>2018-12-30T13:16:59Z</time>
      </trkpt>
      <trkpt lat="37.461340" lon="-8.716257">
        <ele>125.515</ele>
        <time>2018-12-30T13:17:02Z</time>
      </trkpt>
      <trkpt lat="37.461404" lon="-8.716211">
        <ele>124.608</ele>
        <time>2018-12-30T13:17:07Z</time>
      </trkpt>
      <trkpt lat="37.461520" lon="-8.716104">
        <ele>121.227</ele>
        <time>2018-12-30T13:17:18Z</time>
      </trkpt>
      <trkpt lat="37.461589" lon="-8.716007">
        <ele>120.745</ele>
        <time>2018-12-30T13:17:26Z</time>
      </trkpt>
      <trkpt lat="37.461698" lon="-8.715896">
        <ele>119.882</ele>
        <time>2018-12-30T13:17:38Z</time>
      </trkpt>
      <trkpt lat="37.461715" lon="-8.715871">
        <ele>119.337</ele>
        <time>2018-12-30T13:17:40Z</time>
      </trkpt>
      <trkpt lat="37.461644" lon="-8.715661">
        <ele>115.973</ele>
        <time>2018-12-30T13:17:54Z</time>
      </trkpt>
      <trkpt lat="37.461582" lon="-8.715577">
        <ele>114.040</ele>
        <time>2018-12-30T13:18:02Z</time>
      </trkpt>
      <trkpt lat="37.461542" lon="-8.715382">
        <ele>110.215</ele>
        <time>2018-12-30T13:18:15Z</time>
      </trkpt>
      <trkpt lat="37.461544" lon="-8.715358">
        <ele>109.756</ele>
        <time>2018-12-30T13:18:17Z</time>
      </trkpt>
      <trkpt lat="37.461539" lon="-8.715326">
        <ele>109.218</ele>
        <time>2018-12-30T13:18:19Z</time>
      </trkpt>
      <trkpt lat="37.461539" lon="-8.715262">
        <ele>108.298</ele>
        <time>2018-12-30T13:18:23Z</time>
      </trkpt>
      <trkpt lat="37.461538" lon="-8.715223">
        <ele>107.817</ele>
        <time>2018-12-30T13:18:25Z</time>
      </trkpt>
      <trkpt lat="37.461581" lon="-8.715149">
        <ele>106.308</ele>
        <time>2018-12-30T13:18:31Z</time>
      </trkpt>
      <trkpt lat="37.461596" lon="-8.715094">
        <ele>106.334</ele>
        <time>2018-12-30T13:18:35Z</time>
      </trkpt>
      <trkpt lat="37.461670" lon="-8.714911">
        <ele>104.422</ele>
        <time>2018-12-30T13:18:47Z</time>
      </trkpt>
      <trkpt lat="37.461677" lon="-8.714897">
        <ele>103.949</ele>
        <time>2018-12-30T13:18:48Z</time>
      </trkpt>
      <trkpt lat="37.461728" lon="-8.714807">
        <ele>103.464</ele>
        <time>2018-12-30T13:18:55Z</time>
      </trkpt>
      <trkpt lat="37.461761" lon="-8.714698">
        <ele>102.070</ele>
        <time>2018-12-30T13:19:03Z</time>
      </trkpt>
      <trkpt lat="37.461802" lon="-8.714622">
        <ele>100.677</ele>
        <time>2018-12-30T13:19:09Z</time>
      </trkpt>
      <trkpt lat="37.461849" lon="-8.714505">
        <ele>97.282</ele>
        <time>2018-12-30T13:19:18Z</time>
      </trkpt>
      <trkpt lat="37.461851" lon="-8.714491">
        <ele>97.223</ele>
        <time>2018-12-30T13:19:19Z</time>
      </trkpt>
      <trkpt lat="37.461854" lon="-8.714461">
        <ele>96.785</ele>
        <time>2018-12-30T13:19:21Z</time>
      </trkpt>
      <trkpt lat="37.461879" lon="-8.714415">
        <ele>95.789</ele>
        <time>2018-12-30T13:19:24Z</time>
      </trkpt>
      <trkpt lat="37.461964" lon="-8.714326">
        <ele>94.317</ele>
        <time>2018-12-30T13:19:32Z</time>
      </trkpt>
      <trkpt lat="37.462006" lon="-8.714181">
        <ele>91.408</ele>
        <time>2018-12-30T13:19:42Z</time>
      </trkpt>
      <trkpt lat="37.462041" lon="-8.714058">
        <ele>89.071</ele>
        <time>2018-12-30T13:19:51Z</time>
      </trkpt>
      <trkpt lat="37.462055" lon="-8.714032">
        <ele>88.559</ele>
        <time>2018-12-30T13:19:53Z</time>
      </trkpt>
      <trkpt lat="37.462057" lon="-8.713999">
        <ele>88.136</ele>
        <time>2018-12-30T13:19:55Z</time>
      </trkpt>
      <trkpt lat="37.462098" lon="-8.713836">
        <ele>86.161</ele>
        <time>2018-12-30T13:20:06Z</time>
      </trkpt>
      <trkpt lat="37.462102" lon="-8.713817">
        <ele>85.667</ele>
        <time>2018-12-30T13:20:07Z</time>
      </trkpt>
      <trkpt lat="37.462106" lon="-8.713769">
        <ele>85.214</ele>
        <time>2018-12-30T13:20:10Z</time>
      </trkpt>
      <trkpt lat="37.462148" lon="-8.713635">
        <ele>83.249</ele>
        <time>2018-12-30T13:20:20Z</time>
      </trkpt>
      <trkpt lat="37.462222" lon="-8.713530">
        <ele>80.840</ele>
        <time>2018-12-30T13:20:29Z</time>
      </trkpt>
      <trkpt lat="37.462282" lon="-8.713431">
        <ele>79.428</ele>
        <time>2018-12-30T13:20:39Z</time>
      </trkpt>
      <trkpt lat="37.462341" lon="-8.713337">
        <ele>78.089</ele>
        <time>2018-12-30T13:20:48Z</time>
      </trkpt>
      <trkpt lat="37.462362" lon="-8.713297">
        <ele>77.517</ele>
        <time>2018-12-30T13:20:59Z</time>
      </trkpt>
      <trkpt lat="37.462406" lon="-8.713250">
        <ele>76.508</ele>
        <time>2018-12-30T13:21:04Z</time>
      </trkpt>
      <trkpt lat="37.462438" lon="-8.713102">
        <ele>74.695</ele>
        <time>2018-12-30T13:21:14Z</time>
      </trkpt>
      <trkpt lat="37.462435" lon="-8.713073">
        <ele>74.123</ele>
        <time>2018-12-30T13:21:16Z</time>
      </trkpt>
      <trkpt lat="37.462449" lon="-8.713047">
        <ele>74.130</ele>
        <time>2018-12-30T13:21:18Z</time>
      </trkpt>
      <trkpt lat="37.462497" lon="-8.712976">
        <ele>73.235</ele>
        <time>2018-12-30T13:21:24Z</time>
      </trkpt>
      <trkpt lat="37.462516" lon="-8.712949">
        <ele>72.211</ele>
        <time>2018-12-30T13:21:27Z</time>
      </trkpt>
      <trkpt lat="37.462566" lon="-8.712890">
        <ele>70.758</ele>
        <time>2018-12-30T13:21:32Z</time>
      </trkpt>
      <trkpt lat="37.462598" lon="-8.712812">
        <ele>69.383</ele>
        <time>2018-12-30T13:21:38Z</time>
      </trkpt>
      <trkpt lat="37.462643" lon="-8.712740">
        <ele>68.344</ele>
        <time>2018-12-30T13:21:43Z</time>
      </trkpt>
      <trkpt lat="37.462660" lon="-8.712679">
        <ele>66.959</ele>
        <time>2018-12-30T13:21:48Z</time>
      </trkpt>
      <trkpt lat="37.462714" lon="-8.712568">
        <ele>65.003</ele>
        <time>2018-12-30T13:21:56Z</time>
      </trkpt>
      <trkpt lat="37.462736" lon="-8.712484">
        <ele>64.023</ele>
        <time>2018-12-30T13:22:03Z</time>
      </trkpt>
      <trkpt lat="37.462771" lon="-8.712437">
        <ele>64.008</ele>
        <time>2018-12-30T13:22:07Z</time>
      </trkpt>
      <trkpt lat="37.462827" lon="-8.712251">
        <ele>63.568</ele>
        <time>2018-12-30T13:22:21Z</time>
      </trkpt>
      <trkpt lat="37.462857" lon="-8.712161">
        <ele>64.096</ele>
        <time>2018-12-30T13:22:28Z</time>
      </trkpt>
      <trkpt lat="37.462854" lon="-8.712080">
        <ele>64.093</ele>
        <time>2018-12-30T13:22:34Z</time>
      </trkpt>
      <trkpt lat="37.462830" lon="-8.711956">
        <ele>64.598</ele>
        <time>2018-12-30T13:22:43Z</time>
      </trkpt>
      <trkpt lat="37.462818" lon="-8.711897">
        <ele>64.554</ele>
        <time>2018-12-30T13:22:47Z</time>
      </trkpt>
      <trkpt lat="37.462818" lon="-8.711842">
        <ele>64.581</ele>
        <time>2018-12-30T13:22:50Z</time>
      </trkpt>
      <trkpt lat="37.462819" lon="-8.711770">
        <ele>65.976</ele>
        <time>2018-12-30T13:22:54Z</time>
      </trkpt>
      <trkpt lat="37.462797" lon="-8.711656">
        <ele>65.987</ele>
        <time>2018-12-30T13:23:02Z</time>
      </trkpt>
      <trkpt lat="37.462782" lon="-8.711604">
        <ele>66.416</ele>
        <time>2018-12-30T13:23:06Z</time>
      </trkpt>
      <trkpt lat="37.462778" lon="-8.711539">
        <ele>66.476</ele>
        <time>2018-12-30T13:23:11Z</time>
      </trkpt>
      <trkpt lat="37.462765" lon="-8.711488">
        <ele>67.913</ele>
        <time>2018-12-30T13:23:22Z</time>
      </trkpt>
      <trkpt lat="37.462757" lon="-8.711449">
        <ele>67.408</ele>
        <time>2018-12-30T13:23:25Z</time>
      </trkpt>
      <trkpt lat="37.462711" lon="-8.711344">
        <ele>68.314</ele>
        <time>2018-12-30T13:23:35Z</time>
      </trkpt>
      <trkpt lat="37.462691" lon="-8.711305">
        <ele>68.362</ele>
        <time>2018-12-30T13:23:39Z</time>
      </trkpt>
      <trkpt lat="37.462678" lon="-8.711282">
        <ele>68.899</ele>
        <time>2018-12-30T13:23:41Z</time>
      </trkpt>
      <trkpt lat="37.462612" lon="-8.711190">
        <ele>69.374</ele>
        <time>2018-12-30T13:23:53Z</time>
      </trkpt>
      <trkpt lat="37.462538" lon="-8.711129">
        <ele>69.390</ele>
        <time>2018-12-30T13:23:59Z</time>
      </trkpt>
      <trkpt lat="37.462512" lon="-8.711120">
        <ele>69.327</ele>
        <time>2018-12-30T13:24:01Z</time>
      </trkpt>
      <trkpt lat="37.462420" lon="-8.711022">
        <ele>67.972</ele>
        <time>2018-12-30T13:24:11Z</time>
      </trkpt>
      <trkpt lat="37.462353" lon="-8.710866">
        <ele>65.923</ele>
        <time>2018-12-30T13:24:25Z</time>
      </trkpt>
      <trkpt lat="37.462345" lon="-8.710848">
        <ele>66.436</ele>
        <time>2018-12-30T13:24:32Z</time>
      </trkpt>
      <trkpt lat="37.462304" lon="-8.710832">
        <ele>66.417</ele>
        <time>2018-12-30T13:24:44Z</time>
      </trkpt>
      <trkpt lat="37.462237" lon="-8.710840">
        <ele>66.918</ele>
        <time>2018-12-30T13:24:51Z</time>
      </trkpt>
      <trkpt lat="37.462211" lon="-8.710844">
        <ele>66.908</ele>
        <time>2018-12-30T13:24:53Z</time>
      </trkpt>
      <trkpt lat="37.462182" lon="-8.710868">
        <ele>67.426</ele>
        <time>2018-12-30T13:25:01Z</time>
      </trkpt>
      <trkpt lat="37.462108" lon="-8.710894">
        <ele>69.884</ele>
        <time>2018-12-30T13:25:12Z</time>
      </trkpt>
      <trkpt lat="37.462025" lon="-8.710909">
        <ele>70.711</ele>
        <time>2018-12-30T13:25:18Z</time>
      </trkpt>
      <trkpt lat="37.461988" lon="-8.710903">
        <ele>71.296</ele>
        <time>2018-12-30T13:25:21Z</time>
      </trkpt>
      <trkpt lat="37.461825" lon="-8.710844">
        <ele>70.392</ele>
        <time>2018-12-30T13:25:35Z</time>
      </trkpt>
      <trkpt lat="37.461738" lon="-8.710702">
        <ele>70.359</ele>
        <time>2018-12-30T13:25:48Z</time>
      </trkpt>
      <trkpt lat="37.461680" lon="-8.710596">
        <ele>70.314</ele>
        <time>2018-12-30T13:25:57Z</time>
      </trkpt>
      <trkpt lat="37.461598" lon="-8.710463">
        <ele>70.315</ele>
        <time>2018-12-30T13:26:09Z</time>
      </trkpt>
      <trkpt lat="37.461580" lon="-8.710446">
        <ele>70.792</ele>
        <time>2018-12-30T13:26:11Z</time>
      </trkpt>
      <trkpt lat="37.461566" lon="-8.710389">
        <ele>70.773</ele>
        <time>2018-12-30T13:26:16Z</time>
      </trkpt>
      <trkpt lat="37.461556" lon="-8.710331">
        <ele>71.220</ele>
        <time>2018-12-30T13:26:21Z</time>
      </trkpt>
      <trkpt lat="37.461575" lon="-8.710183">
        <ele>73.208</ele>
        <time>2018-12-30T13:26:33Z</time>
      </trkpt>
      <trkpt lat="37.461576" lon="-8.710120">
        <ele>73.682</ele>
        <time>2018-12-30T13:26:38Z</time>
      </trkpt>
      <trkpt lat="37.461560" lon="-8.710082">
        <ele>73.620</ele>
        <time>2018-12-30T13:26:41Z</time>
      </trkpt>
      <trkpt lat="37.461556" lon="-8.710038">
        <ele>74.127</ele>
        <time>2018-12-30T13:26:44Z</time>
      </trkpt>
      <trkpt lat="37.461545" lon="-8.709986">
        <ele>74.672</ele>
        <time>2018-12-30T13:26:48Z</time>
      </trkpt>
      <trkpt lat="37.461526" lon="-8.709956">
        <ele>75.128</ele>
        <time>2018-12-30T13:26:51Z</time>
      </trkpt>
      <trkpt lat="37.461493" lon="-8.709770">
        <ele>76.025</ele>
        <time>2018-12-30T13:27:04Z</time>
      </trkpt>
      <trkpt lat="37.461495" lon="-8.709703">
        <ele>76.580</ele>
        <time>2018-12-30T13:27:09Z</time>
      </trkpt>
      <trkpt lat="37.461449" lon="-8.709567">
        <ele>76.051</ele>
        <time>2018-12-30T13:27:20Z</time>
      </trkpt>
      <trkpt lat="37.461432" lon="-8.709521">
        <ele>75.697</ele>
        <time>2018-12-30T13:27:25Z</time>
      </trkpt>
      <trkpt lat="37.461420" lon="-8.709489">
        <ele>75.623</ele>
        <time>2018-12-30T13:27:28Z</time>
      </trkpt>
      <trkpt lat="37.461416" lon="-8.709460">
        <ele>75.625</ele>
        <time>2018-12-30T13:27:30Z</time>
      </trkpt>
      <trkpt lat="37.461399" lon="-8.709435">
        <ele>75.608</ele>
        <time>2018-12-30T13:27:32Z</time>
      </trkpt>
      <trkpt lat="37.461326" lon="-8.709256">
        <ele>75.642</ele>
        <time>2018-12-30T13:27:47Z</time>
      </trkpt>
      <trkpt lat="37.461301" lon="-8.709185">
        <ele>76.070</ele>
        <time>2018-12-30T13:27:52Z</time>
      </trkpt>
      <trkpt lat="37.461275" lon="-8.709096">
        <ele>75.667</ele>
        <time>2018-12-30T13:27:59Z</time>
      </trkpt>
      <trkpt lat="37.461262" lon="-8.709064">
        <ele>76.082</ele>
        <time>2018-12-30T13:28:02Z</time>
      </trkpt>
      <trkpt lat="37.461252" lon="-8.709036">
        <ele>76.518</ele>
        <time>2018-12-30T13:28:04Z</time>
      </trkpt>
      <trkpt lat="37.461201" lon="-8.708844">
        <ele>76.545</ele>
        <time>2018-12-30T13:28:16Z</time>
      </trkpt>
      <trkpt lat="37.461202" lon="-8.708772">
        <ele>77.040</ele>
        <time>2018-12-30T13:28:21Z</time>
      </trkpt>
      <trkpt lat="37.461237" lon="-8.708673">
        <ele>78.421</ele>
        <time>2018-12-30T13:28:28Z</time>
      </trkpt>
      <trkpt lat="37.461258" lon="-8.708589">
        <ele>78.924</ele>
        <time>2018-12-30T13:28:34Z</time>
      </trkpt>
      <trkpt lat="37.461279" lon="-8.708419">
        <ele>80.404</ele>
        <time>2018-12-30T13:28:46Z</time>
      </trkpt>
      <trkpt lat="37.461283" lon="-8.708249">
        <ele>80.814</ele>
        <time>2018-12-30T13:28:58Z</time>
      </trkpt>
      <trkpt lat="37.461348" lon="-8.708107">
        <ele>79.908</ele>
        <time>2018-12-30T13:29:10Z</time>
      </trkpt>
      <trkpt lat="37.461381" lon="-8.708043">
        <ele>79.455</ele>
        <time>2018-12-30T13:29:15Z</time>
      </trkpt>
      <trkpt lat="37.461370" lon="-8.707897">
        <ele>80.493</ele>
        <time>2018-12-30T13:29:28Z</time>
      </trkpt>
      <trkpt lat="37.461358" lon="-8.707845">
        <ele>80.460</ele>
        <time>2018-12-30T13:29:32Z</time>
      </trkpt>
      <trkpt lat="37.461393" lon="-8.707627">
        <ele>79.455</ele>
        <time>2018-12-30T13:29:47Z</time>
      </trkpt>
      <trkpt lat="37.461433" lon="-8.707468">
        <ele>78.461</ele>
        <time>2018-12-30T13:29:59Z</time>
      </trkpt>
      <trkpt lat="37.461436" lon="-8.707454">
        <ele>78.988</ele>
        <time>2018-12-30T13:30:00Z</time>
      </trkpt>
      <trkpt lat="37.461506" lon="-8.707348">
        <ele>78.473</ele>
        <time>2018-12-30T13:30:10Z</time>
      </trkpt>
      <trkpt lat="37.461524" lon="-8.707133">
        <ele>77.524</ele>
        <time>2018-12-30T13:30:24Z</time>
      </trkpt>
      <trkpt lat="37.461519" lon="-8.706933">
        <ele>76.061</ele>
        <time>2018-12-30T13:30:36Z</time>
      </trkpt>
      <trkpt lat="37.461454" lon="-8.706709">
        <ele>74.621</ele>
        <time>2018-12-30T13:30:50Z</time>
      </trkpt>
      <trkpt lat="37.461398" lon="-8.706538">
        <ele>74.113</ele>
        <time>2018-12-30T13:31:02Z</time>
      </trkpt>
      <trkpt lat="37.461354" lon="-8.706368">
        <ele>74.108</ele>
        <time>2018-12-30T13:31:14Z</time>
      </trkpt>
      <trkpt lat="37.461294" lon="-8.706206">
        <ele>74.699</ele>
        <time>2018-12-30T13:31:27Z</time>
      </trkpt>
      <trkpt lat="37.461275" lon="-8.706157">
        <ele>74.637</ele>
        <time>2018-12-30T13:31:31Z</time>
      </trkpt>
      <trkpt lat="37.461255" lon="-8.706006">
        <ele>74.194</ele>
        <time>2018-12-30T13:31:42Z</time>
      </trkpt>
      <trkpt lat="37.461258" lon="-8.705969">
        <ele>74.149</ele>
        <time>2018-12-30T13:31:45Z</time>
      </trkpt>
      <trkpt lat="37.461269" lon="-8.705820">
        <ele>74.125</ele>
        <time>2018-12-30T13:31:56Z</time>
      </trkpt>
      <trkpt lat="37.461291" lon="-8.705691">
        <ele>75.122</ele>
        <time>2018-12-30T13:32:08Z</time>
      </trkpt>
      <trkpt lat="37.461331" lon="-8.705650">
        <ele>75.697</ele>
        <time>2018-12-30T13:32:12Z</time>
      </trkpt>
      <trkpt lat="37.461351" lon="-8.705632">
        <ele>75.618</ele>
        <time>2018-12-30T13:32:24Z</time>
      </trkpt>
      <trkpt lat="37.461352" lon="-8.705623">
        <ele>75.659</ele>
        <time>2018-12-30T13:32:26Z</time>
      </trkpt>
      <trkpt lat="37.461382" lon="-8.705546">
        <ele>75.603</ele>
        <time>2018-12-30T13:32:37Z</time>
      </trkpt>
      <trkpt lat="37.461399" lon="-8.705459">
        <ele>75.123</ele>
        <time>2018-12-30T13:32:44Z</time>
      </trkpt>
      <trkpt lat="37.461402" lon="-8.705435">
        <ele>75.608</ele>
        <time>2018-12-30T13:32:46Z</time>
      </trkpt>
      <trkpt lat="37.461474" lon="-8.705271">
        <ele>75.638</ele>
        <time>2018-12-30T13:33:00Z</time>
      </trkpt>
      <trkpt lat="37.461518" lon="-8.705156">
        <ele>76.516</ele>
        <time>2018-12-30T13:33:09Z</time>
      </trkpt>
      <trkpt lat="37.461621" lon="-8.705006">
        <ele>76.513</ele>
        <time>2018-12-30T13:33:22Z</time>
      </trkpt>
      <trkpt lat="37.461696" lon="-8.704857">
        <ele>77.068</ele>
        <time>2018-12-30T13:33:34Z</time>
      </trkpt>
      <trkpt lat="37.461770" lon="-8.704724">
        <ele>77.054</ele>
        <time>2018-12-30T13:33:45Z</time>
      </trkpt>
      <trkpt lat="37.461776" lon="-8.704712">
        <ele>77.081</ele>
        <time>2018-12-30T13:33:46Z</time>
      </trkpt>
      <trkpt lat="37.461886" lon="-8.704529">
        <ele>77.516</ele>
        <time>2018-12-30T13:34:03Z</time>
      </trkpt>
      <trkpt lat="37.461943" lon="-8.704376">
        <ele>77.557</ele>
        <time>2018-12-30T13:34:15Z</time>
      </trkpt>
      <trkpt lat="37.461963" lon="-8.704312">
        <ele>77.521</ele>
        <time>2018-12-30T13:34:20Z</time>
      </trkpt>
      <trkpt lat="37.461965" lon="-8.704270">
        <ele>78.041</ele>
        <time>2018-12-30T13:34:23Z</time>
      </trkpt>
      <trkpt lat="37.461997" lon="-8.704228">
        <ele>77.505</ele>
        <time>2018-12-30T13:34:27Z</time>
      </trkpt>
      <trkpt lat="37.461997" lon="-8.704199">
        <ele>77.508</ele>
        <time>2018-12-30T13:34:29Z</time>
      </trkpt>
      <trkpt lat="37.461998" lon="-8.704153">
        <ele>77.585</ele>
        <time>2018-12-30T13:34:35Z</time>
      </trkpt>
      <trkpt lat="37.462017" lon="-8.704109">
        <ele>77.543</ele>
        <time>2018-12-30T13:34:39Z</time>
      </trkpt>
      <trkpt lat="37.462052" lon="-8.704051">
        <ele>77.540</ele>
        <time>2018-12-30T13:34:44Z</time>
      </trkpt>
      <trkpt lat="37.462085" lon="-8.704027">
        <ele>77.535</ele>
        <time>2018-12-30T13:34:47Z</time>
      </trkpt>
      <trkpt lat="37.462140" lon="-8.703872">
        <ele>77.531</ele>
        <time>2018-12-30T13:34:59Z</time>
      </trkpt>
      <trkpt lat="37.462154" lon="-8.703771">
        <ele>77.558</ele>
        <time>2018-12-30T13:35:07Z</time>
      </trkpt>
      <trkpt lat="37.462160" lon="-8.703676">
        <ele>78.043</ele>
        <time>2018-12-30T13:35:14Z</time>
      </trkpt>
      <trkpt lat="37.462185" lon="-8.703596">
        <ele>78.094</ele>
        <time>2018-12-30T13:35:20Z</time>
      </trkpt>
      <trkpt lat="37.462192" lon="-8.703442">
        <ele>78.421</ele>
        <time>2018-12-30T13:35:30Z</time>
      </trkpt>
      <trkpt lat="37.462168" lon="-8.703288">
        <ele>78.441</ele>
        <time>2018-12-30T13:35:41Z</time>
      </trkpt>
      <trkpt lat="37.462134" lon="-8.703147">
        <ele>78.405</ele>
        <time>2018-12-30T13:35:51Z</time>
      </trkpt>
      <trkpt lat="37.462134" lon="-8.703103">
        <ele>78.908</ele>
        <time>2018-12-30T13:35:54Z</time>
      </trkpt>
      <trkpt lat="37.462109" lon="-8.702983">
        <ele>79.475</ele>
        <time>2018-12-30T13:36:02Z</time>
      </trkpt>
      <trkpt lat="37.462055" lon="-8.702810">
        <ele>80.483</ele>
        <time>2018-12-30T13:36:15Z</time>
      </trkpt>
      <trkpt lat="37.462018" lon="-8.702723">
        <ele>79.960</ele>
        <time>2018-12-30T13:36:22Z</time>
      </trkpt>
      <trkpt lat="37.462000" lon="-8.702677">
        <ele>80.435</ele>
        <time>2018-12-30T13:36:25Z</time>
      </trkpt>
      <trkpt lat="37.461985" lon="-8.702629">
        <ele>80.431</ele>
        <time>2018-12-30T13:36:29Z</time>
      </trkpt>
      <trkpt lat="37.461950" lon="-8.702538">
        <ele>80.468</ele>
        <time>2018-12-30T13:36:36Z</time>
      </trkpt>
      <trkpt lat="37.461926" lon="-8.702471">
        <ele>80.493</ele>
        <time>2018-12-30T13:36:42Z</time>
      </trkpt>
      <trkpt lat="37.461921" lon="-8.702445">
        <ele>80.484</ele>
        <time>2018-12-30T13:36:44Z</time>
      </trkpt>
      <trkpt lat="37.461909" lon="-8.702421">
        <ele>80.898</ele>
        <time>2018-12-30T13:36:46Z</time>
      </trkpt>
      <trkpt lat="37.461896" lon="-8.702381">
        <ele>80.415</ele>
        <time>2018-12-30T13:36:49Z</time>
      </trkpt>
      <trkpt lat="37.461886" lon="-8.702326">
        <ele>80.426</ele>
        <time>2018-12-30T13:36:52Z</time>
      </trkpt>
      <trkpt lat="37.461866" lon="-8.702286">
        <ele>80.408</ele>
        <time>2018-12-30T13:36:55Z</time>
      </trkpt>
      <trkpt lat="37.461851" lon="-8.702235">
        <ele>80.842</ele>
        <time>2018-12-30T13:36:59Z</time>
      </trkpt>
      <trkpt lat="37.461827" lon="-8.702112">
        <ele>80.880</ele>
        <time>2018-12-30T13:37:06Z</time>
      </trkpt>
      <trkpt lat="37.461805" lon="-8.702054">
        <ele>80.817</ele>
        <time>2018-12-30T13:37:10Z</time>
      </trkpt>
      <trkpt lat="37.461783" lon="-8.701948">
        <ele>80.882</ele>
        <time>2018-12-30T13:37:17Z</time>
      </trkpt>
      <trkpt lat="37.461765" lon="-8.701821">
        <ele>80.898</ele>
        <time>2018-12-30T13:37:26Z</time>
      </trkpt>
      <trkpt lat="37.461767" lon="-8.701747">
        <ele>80.835</ele>
        <time>2018-12-30T13:37:31Z</time>
      </trkpt>
      <trkpt lat="37.461803" lon="-8.701574">
        <ele>81.850</ele>
        <time>2018-12-30T13:37:43Z</time>
      </trkpt>
      <trkpt lat="37.461837" lon="-8.701458">
        <ele>82.311</ele>
        <time>2018-12-30T13:37:51Z</time>
      </trkpt>
      <trkpt lat="37.461875" lon="-8.701381">
        <ele>82.319</ele>
        <time>2018-12-30T13:37:56Z</time>
      </trkpt>
      <trkpt lat="37.461922" lon="-8.701291">
        <ele>82.309</ele>
        <time>2018-12-30T13:38:03Z</time>
      </trkpt>
      <trkpt lat="37.461951" lon="-8.701234">
        <ele>82.819</ele>
        <time>2018-12-30T13:38:07Z</time>
      </trkpt>
      <trkpt lat="37.461984" lon="-8.701134">
        <ele>82.808</ele>
        <time>2018-12-30T13:38:14Z</time>
      </trkpt>
      <trkpt lat="37.462009" lon="-8.701022">
        <ele>81.894</ele>
        <time>2018-12-30T13:38:22Z</time>
      </trkpt>
      <trkpt lat="37.462040" lon="-8.700924">
        <ele>81.322</ele>
        <time>2018-12-30T13:38:29Z</time>
      </trkpt>
      <trkpt lat="37.462062" lon="-8.700857">
        <ele>81.329</ele>
        <time>2018-12-30T13:38:34Z</time>
      </trkpt>
      <trkpt lat="37.462081" lon="-8.700822">
        <ele>80.824</ele>
        <time>2018-12-30T13:38:37Z</time>
      </trkpt>
      <trkpt lat="37.462143" lon="-8.700691">
        <ele>81.810</ele>
        <time>2018-12-30T13:38:48Z</time>
      </trkpt>
      <trkpt lat="37.462181" lon="-8.700564">
        <ele>81.877</ele>
        <time>2018-12-30T13:38:57Z</time>
      </trkpt>
      <trkpt lat="37.462291" lon="-8.700489">
        <ele>82.322</ele>
        <time>2018-12-30T13:39:10Z</time>
      </trkpt>
      <trkpt lat="37.462322" lon="-8.700483">
        <ele>82.363</ele>
        <time>2018-12-30T13:39:13Z</time>
      </trkpt>
      <trkpt lat="37.462347" lon="-8.700485">
        <ele>82.823</ele>
        <time>2018-12-30T13:39:15Z</time>
      </trkpt>
      <trkpt lat="37.462397" lon="-8.700476">
        <ele>82.883</ele>
        <time>2018-12-30T13:39:19Z</time>
      </trkpt>
      <trkpt lat="37.462514" lon="-8.700481">
        <ele>82.311</ele>
        <time>2018-12-30T13:39:28Z</time>
      </trkpt>
      <trkpt lat="37.462534" lon="-8.700483">
        <ele>82.808</ele>
        <time>2018-12-30T13:39:31Z</time>
      </trkpt>
      <trkpt lat="37.462557" lon="-8.700484">
        <ele>83.225</ele>
        <time>2018-12-30T13:39:33Z</time>
      </trkpt>
      <trkpt lat="37.462580" lon="-8.700489">
        <ele>82.823</ele>
        <time>2018-12-30T13:39:35Z</time>
      </trkpt>
      <trkpt lat="37.462599" lon="-8.700496">
        <ele>82.360</ele>
        <time>2018-12-30T13:39:37Z</time>
      </trkpt>
      <trkpt lat="37.462649" lon="-8.700498">
        <ele>83.285</ele>
        <time>2018-12-30T13:39:41Z</time>
      </trkpt>
      <trkpt lat="37.462814" lon="-8.700436">
        <ele>82.871</ele>
        <time>2018-12-30T13:39:54Z</time>
      </trkpt>
      <trkpt lat="37.462929" lon="-8.700326">
        <ele>83.288</ele>
        <time>2018-12-30T13:40:06Z</time>
      </trkpt>
      <trkpt lat="37.462953" lon="-8.700299">
        <ele>83.253</ele>
        <time>2018-12-30T13:40:09Z</time>
      </trkpt>
      <trkpt lat="37.462966" lon="-8.700274">
        <ele>82.834</ele>
        <time>2018-12-30T13:40:11Z</time>
      </trkpt>
      <trkpt lat="37.462996" lon="-8.700234">
        <ele>83.227</ele>
        <time>2018-12-30T13:40:15Z</time>
      </trkpt>
      <trkpt lat="37.463013" lon="-8.700213">
        <ele>83.268</ele>
        <time>2018-12-30T13:40:17Z</time>
      </trkpt>
      <trkpt lat="37.463069" lon="-8.700149">
        <ele>83.214</ele>
        <time>2018-12-30T13:40:24Z</time>
      </trkpt>
      <trkpt lat="37.463198" lon="-8.700103">
        <ele>84.208</ele>
        <time>2018-12-30T13:40:35Z</time>
      </trkpt>
      <trkpt lat="37.463335" lon="-8.700050">
        <ele>84.725</ele>
        <time>2018-12-30T13:40:46Z</time>
      </trkpt>
      <trkpt lat="37.463362" lon="-8.700041">
        <ele>85.243</ele>
        <time>2018-12-30T13:40:49Z</time>
      </trkpt>
      <trkpt lat="37.463396" lon="-8.700025">
        <ele>85.670</ele>
        <time>2018-12-30T13:40:53Z</time>
      </trkpt>
      <trkpt lat="37.463537" lon="-8.700005">
        <ele>85.685</ele>
        <time>2018-12-30T13:41:04Z</time>
      </trkpt>
      <trkpt lat="37.463605" lon="-8.699998">
        <ele>86.191</ele>
        <time>2018-12-30T13:41:09Z</time>
      </trkpt>
      <trkpt lat="37.463666" lon="-8.699987">
        <ele>86.648</ele>
        <time>2018-12-30T13:41:14Z</time>
      </trkpt>
      <trkpt lat="37.463710" lon="-8.699968">
        <ele>86.633</ele>
        <time>2018-12-30T13:41:18Z</time>
      </trkpt>
      <trkpt lat="37.463765" lon="-8.699940">
        <ele>87.194</ele>
        <time>2018-12-30T13:41:23Z</time>
      </trkpt>
      <trkpt lat="37.463812" lon="-8.699918">
        <ele>86.617</ele>
        <time>2018-12-30T13:41:27Z</time>
      </trkpt>
      <trkpt lat="37.463885" lon="-8.699872">
        <ele>86.687</ele>
        <time>2018-12-30T13:41:33Z</time>
      </trkpt>
      <trkpt lat="37.463932" lon="-8.699833">
        <ele>86.615</ele>
        <time>2018-12-30T13:41:38Z</time>
      </trkpt>
      <trkpt lat="37.463960" lon="-8.699809">
        <ele>87.108</ele>
        <time>2018-12-30T13:41:47Z</time>
      </trkpt>
      <trkpt lat="37.464062" lon="-8.699656">
        <ele>87.194</ele>
        <time>2018-12-30T13:42:01Z</time>
      </trkpt>
      <trkpt lat="37.464130" lon="-8.699579">
        <ele>87.172</ele>
        <time>2018-12-30T13:42:08Z</time>
      </trkpt>
      <trkpt lat="37.464177" lon="-8.699518">
        <ele>88.179</ele>
        <time>2018-12-30T13:42:14Z</time>
      </trkpt>
      <trkpt lat="37.464305" lon="-8.699470">
        <ele>88.544</ele>
        <time>2018-12-30T13:42:25Z</time>
      </trkpt>
      <trkpt lat="37.464460" lon="-8.699445">
        <ele>89.030</ele>
        <time>2018-12-30T13:42:37Z</time>
      </trkpt>
      <trkpt lat="37.464563" lon="-8.699464">
        <ele>89.087</ele>
        <time>2018-12-30T13:42:45Z</time>
      </trkpt>
      <trkpt lat="37.464646" lon="-8.699489">
        <ele>89.532</ele>
        <time>2018-12-30T13:42:53Z</time>
      </trkpt>
      <trkpt lat="37.464826" lon="-8.699551">
        <ele>90.543</ele>
        <time>2018-12-30T13:43:07Z</time>
      </trkpt>
      <trkpt lat="37.464872" lon="-8.699576">
        <ele>90.534</ele>
        <time>2018-12-30T13:43:11Z</time>
      </trkpt>
      <trkpt lat="37.465012" lon="-8.699652">
        <ele>90.555</ele>
        <time>2018-12-30T13:43:23Z</time>
      </trkpt>
      <trkpt lat="37.465035" lon="-8.699661">
        <ele>90.510</ele>
        <time>2018-12-30T13:43:25Z</time>
      </trkpt>
      <trkpt lat="37.465218" lon="-8.699744">
        <ele>90.908</ele>
        <time>2018-12-30T13:43:40Z</time>
      </trkpt>
      <trkpt lat="37.465315" lon="-8.699757">
        <ele>92.936</ele>
        <time>2018-12-30T13:43:48Z</time>
      </trkpt>
      <trkpt lat="37.465432" lon="-8.699730">
        <ele>93.344</ele>
        <time>2018-12-30T13:43:58Z</time>
      </trkpt>
      <trkpt lat="37.465507" lon="-8.699724">
        <ele>93.381</ele>
        <time>2018-12-30T13:44:05Z</time>
      </trkpt>
      <trkpt lat="37.465521" lon="-8.699730">
        <ele>93.816</ele>
        <time>2018-12-30T13:44:09Z</time>
      </trkpt>
      <trkpt lat="37.465563" lon="-8.699740">
        <ele>93.352</ele>
        <time>2018-12-30T13:44:13Z</time>
      </trkpt>
      <trkpt lat="37.465601" lon="-8.699765">
        <ele>93.869</ele>
        <time>2018-12-30T13:44:16Z</time>
      </trkpt>
      <trkpt lat="37.465688" lon="-8.699809">
        <ele>94.374</ele>
        <time>2018-12-30T13:44:25Z</time>
      </trkpt>
      <trkpt lat="37.465767" lon="-8.699821">
        <ele>95.315</ele>
        <time>2018-12-30T13:44:32Z</time>
      </trkpt>
      <trkpt lat="37.465807" lon="-8.699810">
        <ele>94.841</ele>
        <time>2018-12-30T13:44:35Z</time>
      </trkpt>
      <trkpt lat="37.465962" lon="-8.699876">
        <ele>95.781</ele>
        <time>2018-12-30T13:44:48Z</time>
      </trkpt>
      <trkpt lat="37.466036" lon="-8.699939">
        <ele>97.209</ele>
        <time>2018-12-30T13:44:58Z</time>
      </trkpt>
      <trkpt lat="37.466062" lon="-8.699959">
        <ele>96.708</ele>
        <time>2018-12-30T13:45:01Z</time>
      </trkpt>
      <trkpt lat="37.466103" lon="-8.699970">
        <ele>96.767</ele>
        <time>2018-12-30T13:45:05Z</time>
      </trkpt>
      <trkpt lat="37.466244" lon="-8.700010">
        <ele>97.775</ele>
        <time>2018-12-30T13:45:18Z</time>
      </trkpt>
      <trkpt lat="37.466293" lon="-8.700010">
        <ele>97.792</ele>
        <time>2018-12-30T13:45:22Z</time>
      </trkpt>
      <trkpt lat="37.466494" lon="-8.699967">
        <ele>97.797</ele>
        <time>2018-12-30T13:45:37Z</time>
      </trkpt>
      <trkpt lat="37.466521" lon="-8.699966">
        <ele>97.783</ele>
        <time>2018-12-30T13:45:39Z</time>
      </trkpt>
      <trkpt lat="37.466562" lon="-8.699988">
        <ele>97.770</ele>
        <time>2018-12-30T13:45:42Z</time>
      </trkpt>
      <trkpt lat="37.466607" lon="-8.700006">
        <ele>97.795</ele>
        <time>2018-12-30T13:45:46Z</time>
      </trkpt>
      <trkpt lat="37.466665" lon="-8.700077">
        <ele>98.156</ele>
        <time>2018-12-30T13:45:56Z</time>
      </trkpt>
      <trkpt lat="37.466670" lon="-8.700073">
        <ele>97.737</ele>
        <time>2018-12-30T13:46:02Z</time>
      </trkpt>
      <trkpt lat="37.466688" lon="-8.700087">
        <ele>97.249</ele>
        <time>2018-12-30T13:46:04Z</time>
      </trkpt>
      <trkpt lat="37.466713" lon="-8.700105">
        <ele>97.213</ele>
        <time>2018-12-30T13:46:06Z</time>
      </trkpt>
      <trkpt lat="37.466739" lon="-8.700115">
        <ele>97.208</ele>
        <time>2018-12-30T13:46:08Z</time>
      </trkpt>
      <trkpt lat="37.466760" lon="-8.700128">
        <ele>97.236</ele>
        <time>2018-12-30T13:46:10Z</time>
      </trkpt>
      <trkpt lat="37.466811" lon="-8.700142">
        <ele>96.754</ele>
        <time>2018-12-30T13:46:14Z</time>
      </trkpt>
      <trkpt lat="37.466889" lon="-8.700227">
        <ele>97.761</ele>
        <time>2018-12-30T13:46:22Z</time>
      </trkpt>
      <trkpt lat="37.466934" lon="-8.700276">
        <ele>97.716</ele>
        <time>2018-12-30T13:46:27Z</time>
      </trkpt>
      <trkpt lat="37.466970" lon="-8.700324">
        <ele>98.132</ele>
        <time>2018-12-30T13:46:31Z</time>
      </trkpt>
      <trkpt lat="37.467016" lon="-8.700384">
        <ele>98.639</ele>
        <time>2018-12-30T13:46:38Z</time>
      </trkpt>
      <trkpt lat="37.467112" lon="-8.700422">
        <ele>99.124</ele>
        <time>2018-12-30T13:46:50Z</time>
      </trkpt>
      <trkpt lat="37.467244" lon="-8.700453">
        <ele>99.175</ele>
        <time>2018-12-30T13:47:00Z</time>
      </trkpt>
      <trkpt lat="37.467290" lon="-8.700436">
        <ele>100.697</ele>
        <time>2018-12-30T13:47:04Z</time>
      </trkpt>
      <trkpt lat="37.467350" lon="-8.700416">
        <ele>100.123</ele>
        <time>2018-12-30T13:47:10Z</time>
      </trkpt>
      <trkpt lat="37.467511" lon="-8.700421">
        <ele>100.125</ele>
        <time>2018-12-30T13:47:22Z</time>
      </trkpt>
      <trkpt lat="37.467615" lon="-8.700506">
        <ele>99.608</ele>
        <time>2018-12-30T13:47:33Z</time>
      </trkpt>
      <trkpt lat="37.467675" lon="-8.700503">
        <ele>99.672</ele>
        <time>2018-12-30T13:47:38Z</time>
      </trkpt>
      <trkpt lat="37.467707" lon="-8.700490">
        <ele>99.620</ele>
        <time>2018-12-30T13:47:41Z</time>
      </trkpt>
      <trkpt lat="37.467848" lon="-8.700392">
        <ele>100.117</ele>
        <time>2018-12-30T13:47:52Z</time>
      </trkpt>
      <trkpt lat="37.467963" lon="-8.700309">
        <ele>101.042</ele>
        <time>2018-12-30T13:48:02Z</time>
      </trkpt>
      <trkpt lat="37.468026" lon="-8.700296">
        <ele>101.598</ele>
        <time>2018-12-30T13:48:07Z</time>
      </trkpt>
      <trkpt lat="37.468213" lon="-8.700287">
        <ele>101.595</ele>
        <time>2018-12-30T13:48:21Z</time>
      </trkpt>
      <trkpt lat="37.468225" lon="-8.700292">
        <ele>102.060</ele>
        <time>2018-12-30T13:48:22Z</time>
      </trkpt>
      <trkpt lat="37.468318" lon="-8.700336">
        <ele>102.041</ele>
        <time>2018-12-30T13:48:30Z</time>
      </trkpt>
      <trkpt lat="37.468328" lon="-8.700342">
        <ele>102.019</ele>
        <time>2018-12-30T13:48:31Z</time>
      </trkpt>
      <trkpt lat="37.468363" lon="-8.700349">
        <ele>102.509</ele>
        <time>2018-12-30T13:48:34Z</time>
      </trkpt>
      <trkpt lat="37.468523" lon="-8.700267">
        <ele>102.019</ele>
        <time>2018-12-30T13:48:48Z</time>
      </trkpt>
      <trkpt lat="37.468573" lon="-8.700237">
        <ele>102.508</ele>
        <time>2018-12-30T13:48:53Z</time>
      </trkpt>
      <trkpt lat="37.468590" lon="-8.700206">
        <ele>103.014</ele>
        <time>2018-12-30T13:49:06Z</time>
      </trkpt>
      <trkpt lat="37.468590" lon="-8.700203">
        <ele>102.592</ele>
        <time>2018-12-30T13:49:22Z</time>
      </trkpt>
      <trkpt lat="37.468590" lon="-8.700203">
        <ele>103.049</ele>
        <time>2018-12-30T13:49:46Z</time>
      </trkpt>
      <trkpt lat="37.468584" lon="-8.700205">
        <ele>103.074</ele>
        <time>2018-12-30T13:50:05Z</time>
      </trkpt>
      <trkpt lat="37.468584" lon="-8.700205">
        <ele>103.080</ele>
        <time>2018-12-30T13:50:24Z</time>
      </trkpt>
      <trkpt lat="37.468612" lon="-8.700210">
        <ele>103.077</ele>
        <time>2018-12-30T13:50:29Z</time>
      </trkpt>
      <trkpt lat="37.468651" lon="-8.700203">
        <ele>103.062</ele>
        <time>2018-12-30T13:50:32Z</time>
      </trkpt>
      <trkpt lat="37.468675" lon="-8.700192">
        <ele>103.023</ele>
        <time>2018-12-30T13:50:35Z</time>
      </trkpt>
      <trkpt lat="37.468699" lon="-8.700188">
        <ele>103.441</ele>
        <time>2018-12-30T13:50:37Z</time>
      </trkpt>
      <trkpt lat="37.468841" lon="-8.700187">
        <ele>103.481</ele>
        <time>2018-12-30T13:50:49Z</time>
      </trkpt>
      <trkpt lat="37.468884" lon="-8.700195">
        <ele>103.909</ele>
        <time>2018-12-30T13:50:53Z</time>
      </trkpt>
      <trkpt lat="37.468937" lon="-8.700197">
        <ele>103.908</ele>
        <time>2018-12-30T13:50:58Z</time>
      </trkpt>
      <trkpt lat="37.469013" lon="-8.700193">
        <ele>103.977</ele>
        <time>2018-12-30T13:51:05Z</time>
      </trkpt>
      <trkpt lat="37.469077" lon="-8.700177">
        <ele>104.445</ele>
        <time>2018-12-30T13:51:16Z</time>
      </trkpt>
      <trkpt lat="37.469101" lon="-8.700160">
        <ele>104.442</ele>
        <time>2018-12-30T13:51:19Z</time>
      </trkpt>
      <trkpt lat="37.469226" lon="-8.700135">
        <ele>104.487</ele>
        <time>2018-12-30T13:51:29Z</time>
      </trkpt>
      <trkpt lat="37.469311" lon="-8.700110">
        <ele>104.473</ele>
        <time>2018-12-30T13:51:37Z</time>
      </trkpt>
      <trkpt lat="37.469350" lon="-8.700104">
        <ele>103.980</ele>
        <time>2018-12-30T13:51:40Z</time>
      </trkpt>
      <trkpt lat="37.469491" lon="-8.700089">
        <ele>104.925</ele>
        <time>2018-12-30T13:51:52Z</time>
      </trkpt>
      <trkpt lat="37.469588" lon="-8.700081">
        <ele>104.916</ele>
        <time>2018-12-30T13:52:01Z</time>
      </trkpt>
      <trkpt lat="37.469629" lon="-8.700089">
        <ele>104.974</ele>
        <time>2018-12-30T13:52:05Z</time>
      </trkpt>
      <trkpt lat="37.469688" lon="-8.700115">
        <ele>105.456</ele>
        <time>2018-12-30T13:52:17Z</time>
      </trkpt>
      <trkpt lat="37.469721" lon="-8.700132">
        <ele>104.921</ele>
        <time>2018-12-30T13:52:25Z</time>
      </trkpt>
      <trkpt lat="37.469781" lon="-8.700142">
        <ele>105.808</ele>
        <time>2018-12-30T13:52:30Z</time>
      </trkpt>
      <trkpt lat="37.469892" lon="-8.700122">
        <ele>105.880</ele>
        <time>2018-12-30T13:52:40Z</time>
      </trkpt>
      <trkpt lat="37.469999" lon="-8.700156">
        <ele>106.898</ele>
        <time>2018-12-30T13:52:52Z</time>
      </trkpt>
      <trkpt lat="37.470019" lon="-8.700170">
        <ele>106.875</ele>
        <time>2018-12-30T13:52:54Z</time>
      </trkpt>
      <trkpt lat="37.470230" lon="-8.700216">
        <ele>106.840</ele>
        <time>2018-12-30T13:53:08Z</time>
      </trkpt>
      <trkpt lat="37.470395" lon="-8.700251">
        <ele>107.886</ele>
        <time>2018-12-30T13:53:20Z</time>
      </trkpt>
      <trkpt lat="37.470460" lon="-8.700237">
        <ele>108.273</ele>
        <time>2018-12-30T13:53:25Z</time>
      </trkpt>
      <trkpt lat="37.470492" lon="-8.700226">
        <ele>108.758</ele>
        <time>2018-12-30T13:53:28Z</time>
      </trkpt>
      <trkpt lat="37.470678" lon="-8.700174">
        <ele>108.759</ele>
        <time>2018-12-30T13:53:43Z</time>
      </trkpt>
      <trkpt lat="37.470720" lon="-8.700164">
        <ele>108.713</ele>
        <time>2018-12-30T13:53:46Z</time>
      </trkpt>
      <trkpt lat="37.470808" lon="-8.700140">
        <ele>108.743</ele>
        <time>2018-12-30T13:53:52Z</time>
      </trkpt>
      <trkpt lat="37.470870" lon="-8.700156">
        <ele>108.207</ele>
        <time>2018-12-30T13:53:58Z</time>
      </trkpt>
      <trkpt lat="37.470907" lon="-8.700178">
        <ele>108.208</ele>
        <time>2018-12-30T13:54:01Z</time>
      </trkpt>
      <trkpt lat="37.470943" lon="-8.700177">
        <ele>107.374</ele>
        <time>2018-12-30T13:54:05Z</time>
      </trkpt>
      <trkpt lat="37.470972" lon="-8.700177">
        <ele>107.842</ele>
        <time>2018-12-30T13:54:08Z</time>
      </trkpt>
      <trkpt lat="37.471206" lon="-8.700174">
        <ele>108.759</ele>
        <time>2018-12-30T13:54:24Z</time>
      </trkpt>
      <trkpt lat="37.471347" lon="-8.700091">
        <ele>109.274</ele>
        <time>2018-12-30T13:54:35Z</time>
      </trkpt>
      <trkpt lat="37.471406" lon="-8.699944">
        <ele>110.280</ele>
        <time>2018-12-30T13:54:46Z</time>
      </trkpt>
      <trkpt lat="37.471411" lon="-8.699880">
        <ele>109.257</ele>
        <time>2018-12-30T13:54:50Z</time>
      </trkpt>
      <trkpt lat="37.471437" lon="-8.699807">
        <ele>109.782</ele>
        <time>2018-12-30T13:54:55Z</time>
      </trkpt>
      <trkpt lat="37.471535" lon="-8.699686">
        <ele>111.113</ele>
        <time>2018-12-30T13:55:07Z</time>
      </trkpt>
      <trkpt lat="37.471595" lon="-8.699634">
        <ele>110.617</ele>
        <time>2018-12-30T13:55:13Z</time>
      </trkpt>
      <trkpt lat="37.471743" lon="-8.699577">
        <ele>111.187</ele>
        <time>2018-12-30T13:55:25Z</time>
      </trkpt>
      <trkpt lat="37.471836" lon="-8.699588">
        <ele>112.115</ele>
        <time>2018-12-30T13:55:34Z</time>
      </trkpt>
      <trkpt lat="37.471981" lon="-8.699507">
        <ele>112.108</ele>
        <time>2018-12-30T13:55:48Z</time>
      </trkpt>
      <trkpt lat="37.472018" lon="-8.699486">
        <ele>111.664</ele>
        <time>2018-12-30T13:55:51Z</time>
      </trkpt>
      <trkpt lat="37.472058" lon="-8.699463">
        <ele>111.642</ele>
        <time>2018-12-30T13:55:55Z</time>
      </trkpt>
      <trkpt lat="37.472173" lon="-8.699361">
        <ele>112.699</ele>
        <time>2018-12-30T13:56:05Z</time>
      </trkpt>
      <trkpt lat="37.472324" lon="-8.699288">
        <ele>112.114</ele>
        <time>2018-12-30T13:56:17Z</time>
      </trkpt>
      <trkpt lat="37.472413" lon="-8.699285">
        <ele>113.030</ele>
        <time>2018-12-30T13:56:26Z</time>
      </trkpt>
      <trkpt lat="37.472467" lon="-8.699287">
        <ele>113.097</ele>
        <time>2018-12-30T13:56:30Z</time>
      </trkpt>
      <trkpt lat="37.472534" lon="-8.699270">
        <ele>113.082</ele>
        <time>2018-12-30T13:56:37Z</time>
      </trkpt>
      <trkpt lat="37.472591" lon="-8.699264">
        <ele>113.033</ele>
        <time>2018-12-30T13:56:43Z</time>
      </trkpt>
      <trkpt lat="37.472770" lon="-8.699232">
        <ele>113.097</ele>
        <time>2018-12-30T13:56:56Z</time>
      </trkpt>
      <trkpt lat="37.472923" lon="-8.699248">
        <ele>114.023</ele>
        <time>2018-12-30T13:57:08Z</time>
      </trkpt>
      <trkpt lat="37.473073" lon="-8.699270">
        <ele>114.525</ele>
        <time>2018-12-30T13:57:20Z</time>
      </trkpt>
      <trkpt lat="37.473085" lon="-8.699271">
        <ele>114.508</ele>
        <time>2018-12-30T13:57:21Z</time>
      </trkpt>
      <trkpt lat="37.473243" lon="-8.699282">
        <ele>114.592</ele>
        <time>2018-12-30T13:57:34Z</time>
      </trkpt>
      <trkpt lat="37.473418" lon="-8.699224">
        <ele>115.580</ele>
        <time>2018-12-30T13:57:47Z</time>
      </trkpt>
      <trkpt lat="37.473554" lon="-8.699218">
        <ele>115.077</ele>
        <time>2018-12-30T13:57:59Z</time>
      </trkpt>
      <trkpt lat="37.473629" lon="-8.699234">
        <ele>115.052</ele>
        <time>2018-12-30T13:58:06Z</time>
      </trkpt>
      <trkpt lat="37.473706" lon="-8.699247">
        <ele>115.588</ele>
        <time>2018-12-30T13:58:12Z</time>
      </trkpt>
      <trkpt lat="37.473854" lon="-8.699276">
        <ele>115.585</ele>
        <time>2018-12-30T13:58:23Z</time>
      </trkpt>
      <trkpt lat="37.473899" lon="-8.699296">
        <ele>115.560</ele>
        <time>2018-12-30T13:58:27Z</time>
      </trkpt>
      <trkpt lat="37.474022" lon="-8.699351">
        <ele>115.511</ele>
        <time>2018-12-30T13:58:42Z</time>
      </trkpt>
      <trkpt lat="37.474098" lon="-8.699392">
        <ele>115.981</ele>
        <time>2018-12-30T13:58:50Z</time>
      </trkpt>
      <trkpt lat="37.474203" lon="-8.699505">
        <ele>117.461</ele>
        <time>2018-12-30T13:59:03Z</time>
      </trkpt>
      <trkpt lat="37.474262" lon="-8.699530">
        <ele>117.417</ele>
        <time>2018-12-30T13:59:08Z</time>
      </trkpt>
      <trkpt lat="37.474438" lon="-8.699490">
        <ele>117.908</ele>
        <time>2018-12-30T13:59:20Z</time>
      </trkpt>
      <trkpt lat="37.474506" lon="-8.699440">
        <ele>118.371</ele>
        <time>2018-12-30T13:59:26Z</time>
      </trkpt>
      <trkpt lat="37.474563" lon="-8.699413">
        <ele>117.979</ele>
        <time>2018-12-30T13:59:30Z</time>
      </trkpt>
      <trkpt lat="37.474612" lon="-8.699386">
        <ele>118.326</ele>
        <time>2018-12-30T13:59:34Z</time>
      </trkpt>
      <trkpt lat="37.474725" lon="-8.699322">
        <ele>118.331</ele>
        <time>2018-12-30T13:59:48Z</time>
      </trkpt>
      <trkpt lat="37.474811" lon="-8.699317">
        <ele>117.497</ele>
        <time>2018-12-30T13:59:56Z</time>
      </trkpt>
      <trkpt lat="37.474960" lon="-8.699242">
        <ele>118.384</ele>
        <time>2018-12-30T14:00:09Z</time>
      </trkpt>
      <trkpt lat="37.475104" lon="-8.699215">
        <ele>118.819</ele>
        <time>2018-12-30T14:00:20Z</time>
      </trkpt>
      <trkpt lat="37.475189" lon="-8.699186">
        <ele>118.880</ele>
        <time>2018-12-30T14:00:27Z</time>
      </trkpt>
      <trkpt lat="37.475276" lon="-8.699137">
        <ele>118.844</ele>
        <time>2018-12-30T14:00:35Z</time>
      </trkpt>
      <trkpt lat="37.475353" lon="-8.699113">
        <ele>119.305</ele>
        <time>2018-12-30T14:00:40Z</time>
      </trkpt>
      <trkpt lat="37.475434" lon="-8.699087">
        <ele>119.815</ele>
        <time>2018-12-30T14:00:51Z</time>
      </trkpt>
      <trkpt lat="37.475434" lon="-8.699087">
        <ele>119.808</ele>
        <time>2018-12-30T14:00:53Z</time>
      </trkpt>
      <trkpt lat="37.475570" lon="-8.699014">
        <ele>120.367</ele>
        <time>2018-12-30T14:01:06Z</time>
      </trkpt>
      <trkpt lat="37.475602" lon="-8.699003">
        <ele>120.355</ele>
        <time>2018-12-30T14:01:09Z</time>
      </trkpt>
      <trkpt lat="37.475687" lon="-8.698938">
        <ele>121.252</ele>
        <time>2018-12-30T14:01:18Z</time>
      </trkpt>
      <trkpt lat="37.475735" lon="-8.698836">
        <ele>122.727</ele>
        <time>2018-12-30T14:01:26Z</time>
      </trkpt>
      <trkpt lat="37.475744" lon="-8.698806">
        <ele>123.163</ele>
        <time>2018-12-30T14:01:28Z</time>
      </trkpt>
      <trkpt lat="37.475799" lon="-8.698672">
        <ele>124.620</ele>
        <time>2018-12-30T14:01:39Z</time>
      </trkpt>
      <trkpt lat="37.475832" lon="-8.698592">
        <ele>125.515</ele>
        <time>2018-12-30T14:01:45Z</time>
      </trkpt>
      <trkpt lat="37.475843" lon="-8.698576">
        <ele>126.076</ele>
        <time>2018-12-30T14:01:47Z</time>
      </trkpt>
      <trkpt lat="37.475961" lon="-8.698446">
        <ele>128.497</ele>
        <time>2018-12-30T14:02:02Z</time>
      </trkpt>
      <trkpt lat="37.476058" lon="-8.698347">
        <ele>128.923</ele>
        <time>2018-12-30T14:02:13Z</time>
      </trkpt>
      <trkpt lat="37.476107" lon="-8.698246">
        <ele>129.425</ele>
        <time>2018-12-30T14:02:21Z</time>
      </trkpt>
      <trkpt lat="37.476246" lon="-8.698128">
        <ele>129.908</ele>
        <time>2018-12-30T14:02:36Z</time>
      </trkpt>
      <trkpt lat="37.476307" lon="-8.698088">
        <ele>129.452</ele>
        <time>2018-12-30T14:02:42Z</time>
      </trkpt>
      <trkpt lat="37.476388" lon="-8.698012">
        <ele>129.420</ele>
        <time>2018-12-30T14:02:50Z</time>
      </trkpt>
      <trkpt lat="37.476487" lon="-8.697922">
        <ele>129.977</ele>
        <time>2018-12-30T14:03:03Z</time>
      </trkpt>
      <trkpt lat="37.476500" lon="-8.697915">
        <ele>129.972</ele>
        <time>2018-12-30T14:03:04Z</time>
      </trkpt>
      <trkpt lat="37.476646" lon="-8.697838">
        <ele>129.478</ele>
        <time>2018-12-30T14:03:17Z</time>
      </trkpt>
      <trkpt lat="37.476762" lon="-8.697796">
        <ele>129.415</ele>
        <time>2018-12-30T14:03:27Z</time>
      </trkpt>
      <trkpt lat="37.476850" lon="-8.697741">
        <ele>129.480</ele>
        <time>2018-12-30T14:03:36Z</time>
      </trkpt>
      <trkpt lat="37.476983" lon="-8.697637">
        <ele>129.451</ele>
        <time>2018-12-30T14:03:49Z</time>
      </trkpt>
      <trkpt lat="37.476990" lon="-8.697633">
        <ele>129.411</ele>
        <time>2018-12-30T14:03:50Z</time>
      </trkpt>
      <trkpt lat="37.477027" lon="-8.697600">
        <ele>129.921</ele>
        <time>2018-12-30T14:03:54Z</time>
      </trkpt>
      <trkpt lat="37.477086" lon="-8.697565">
        <ele>129.903</ele>
        <time>2018-12-30T14:04:00Z</time>
      </trkpt>
      <trkpt lat="37.477175" lon="-8.697535">
        <ele>130.808</ele>
        <time>2018-12-30T14:04:09Z</time>
      </trkpt>
      <trkpt lat="37.477302" lon="-8.697494">
        <ele>131.884</ele>
        <time>2018-12-30T14:04:20Z</time>
      </trkpt>
      <trkpt lat="37.477404" lon="-8.697459">
        <ele>132.332</ele>
        <time>2018-12-30T14:04:32Z</time>
      </trkpt>
      <trkpt lat="37.477544" lon="-8.697436">
        <ele>132.829</ele>
        <time>2018-12-30T14:04:45Z</time>
      </trkpt>
      <trkpt lat="37.477684" lon="-8.697464">
        <ele>134.224</ele>
        <time>2018-12-30T14:04:57Z</time>
      </trkpt>
      <trkpt lat="37.477831" lon="-8.697469">
        <ele>134.270</ele>
        <time>2018-12-30T14:05:10Z</time>
      </trkpt>
      <trkpt lat="37.477988" lon="-8.697477">
        <ele>134.287</ele>
        <time>2018-12-30T14:05:23Z</time>
      </trkpt>
      <trkpt lat="37.478015" lon="-8.697461">
        <ele>134.772</ele>
        <time>2018-12-30T14:05:33Z</time>
      </trkpt>
      <trkpt lat="37.478081" lon="-8.697475">
        <ele>134.263</ele>
        <time>2018-12-30T14:05:38Z</time>
      </trkpt>
      <trkpt lat="37.478252" lon="-8.697489">
        <ele>134.227</ele>
        <time>2018-12-30T14:05:54Z</time>
      </trkpt>
      <trkpt lat="37.478350" lon="-8.697527">
        <ele>134.768</ele>
        <time>2018-12-30T14:06:06Z</time>
      </trkpt>
      <trkpt lat="37.478387" lon="-8.697547">
        <ele>134.714</ele>
        <time>2018-12-30T14:06:10Z</time>
      </trkpt>
      <trkpt lat="37.478484" lon="-8.697587">
        <ele>135.608</ele>
        <time>2018-12-30T14:06:19Z</time>
      </trkpt>
      <trkpt lat="37.478508" lon="-8.697591">
        <ele>136.145</ele>
        <time>2018-12-30T14:06:21Z</time>
      </trkpt>
      <trkpt lat="37.478599" lon="-8.697645">
        <ele>137.693</ele>
        <time>2018-12-30T14:06:31Z</time>
      </trkpt>
      <trkpt lat="37.478613" lon="-8.697664">
        <ele>138.040</ele>
        <time>2018-12-30T14:06:33Z</time>
      </trkpt>
      <trkpt lat="37.478734" lon="-8.697698">
        <ele>140.025</ele>
        <time>2018-12-30T14:06:46Z</time>
      </trkpt>
      <trkpt lat="37.478767" lon="-8.697693">
        <ele>140.971</ele>
        <time>2018-12-30T14:06:49Z</time>
      </trkpt>
      <trkpt lat="37.478790" lon="-8.697679">
        <ele>140.988</ele>
        <time>2018-12-30T14:06:52Z</time>
      </trkpt>
      <trkpt lat="37.478893" lon="-8.697704">
        <ele>142.473</ele>
        <time>2018-12-30T14:07:02Z</time>
      </trkpt>
      <trkpt lat="37.478999" lon="-8.697717">
        <ele>144.854</ele>
        <time>2018-12-30T14:07:13Z</time>
      </trkpt>
      <trkpt lat="37.479008" lon="-8.697726">
        <ele>145.341</ele>
        <time>2018-12-30T14:07:15Z</time>
      </trkpt>
      <trkpt lat="37.479076" lon="-8.697736">
        <ele>146.781</ele>
        <time>2018-12-30T14:07:21Z</time>
      </trkpt>
      <trkpt lat="37.479091" lon="-8.697741">
        <ele>146.709</ele>
        <time>2018-12-30T14:07:23Z</time>
      </trkpt>
      <trkpt lat="37.479175" lon="-8.697763">
        <ele>147.708</ele>
        <time>2018-12-30T14:07:32Z</time>
      </trkpt>
      <trkpt lat="37.479266" lon="-8.697791">
        <ele>149.147</ele>
        <time>2018-12-30T14:07:41Z</time>
      </trkpt>
      <trkpt lat="37.479310" lon="-8.697827">
        <ele>150.545</ele>
        <time>2018-12-30T14:07:47Z</time>
      </trkpt>
      <trkpt lat="37.479346" lon="-8.697876">
        <ele>151.572</ele>
        <time>2018-12-30T14:07:53Z</time>
      </trkpt>
      <trkpt lat="37.479385" lon="-8.697922">
        <ele>152.587</ele>
        <time>2018-12-30T14:07:58Z</time>
      </trkpt>
      <trkpt lat="37.479425" lon="-8.697998">
        <ele>153.413</ele>
        <time>2018-12-30T14:08:05Z</time>
      </trkpt>
      <trkpt lat="37.479443" lon="-8.698012">
        <ele>153.990</ele>
        <time>2018-12-30T14:08:07Z</time>
      </trkpt>
      <trkpt lat="37.479454" lon="-8.698042">
        <ele>153.945</ele>
        <time>2018-12-30T14:08:10Z</time>
      </trkpt>
      <trkpt lat="37.479505" lon="-8.698116">
        <ele>156.336</ele>
        <time>2018-12-30T14:08:20Z</time>
      </trkpt>
      <trkpt lat="37.479512" lon="-8.698142">
        <ele>156.328</ele>
        <time>2018-12-30T14:08:22Z</time>
      </trkpt>
      <trkpt lat="37.479523" lon="-8.698168">
        <ele>156.889</ele>
        <time>2018-12-30T14:08:24Z</time>
      </trkpt>
      <trkpt lat="37.479575" lon="-8.698249">
        <ele>158.217</ele>
        <time>2018-12-30T14:08:32Z</time>
      </trkpt>
      <trkpt lat="37.479708" lon="-8.698333">
        <ele>159.708</ele>
        <time>2018-12-30T14:08:46Z</time>
      </trkpt>
      <trkpt lat="37.479756" lon="-8.698362">
        <ele>160.675</ele>
        <time>2018-12-30T14:08:51Z</time>
      </trkpt>
      <trkpt lat="37.479777" lon="-8.698391">
        <ele>161.143</ele>
        <time>2018-12-30T14:08:54Z</time>
      </trkpt>
      <trkpt lat="37.479838" lon="-8.698510">
        <ele>163.020</ele>
        <time>2018-12-30T14:09:05Z</time>
      </trkpt>
      <trkpt lat="37.479851" lon="-8.698526">
        <ele>163.575</ele>
        <time>2018-12-30T14:09:07Z</time>
      </trkpt>
      <trkpt lat="37.479869" lon="-8.698538">
        <ele>163.521</ele>
        <time>2018-12-30T14:09:09Z</time>
      </trkpt>
      <trkpt lat="37.479882" lon="-8.698578">
        <ele>164.518</ele>
        <time>2018-12-30T14:09:12Z</time>
      </trkpt>
      <trkpt lat="37.479915" lon="-8.698627">
        <ele>165.473</ele>
        <time>2018-12-30T14:09:17Z</time>
      </trkpt>
      <trkpt lat="37.480002" lon="-8.698651">
        <ele>165.934</ele>
        <time>2018-12-30T14:09:26Z</time>
      </trkpt>
      <trkpt lat="37.480033" lon="-8.698637">
        <ele>166.953</ele>
        <time>2018-12-30T14:09:29Z</time>
      </trkpt>
      <trkpt lat="37.480072" lon="-8.698629">
        <ele>167.404</ele>
        <time>2018-12-30T14:09:32Z</time>
      </trkpt>
      <trkpt lat="37.480097" lon="-8.698618">
        <ele>167.414</ele>
        <time>2018-12-30T14:09:34Z</time>
      </trkpt>
      <trkpt lat="37.480132" lon="-8.698618">
        <ele>167.808</ele>
        <time>2018-12-30T14:09:37Z</time>
      </trkpt>
      <trkpt lat="37.480156" lon="-8.698616">
        <ele>168.398</ele>
        <time>2018-12-30T14:09:39Z</time>
      </trkpt>
      <trkpt lat="37.480238" lon="-8.698725">
        <ele>169.836</ele>
        <time>2018-12-30T14:09:50Z</time>
      </trkpt>
      <trkpt lat="37.480291" lon="-8.698784">
        <ele>170.793</ele>
        <time>2018-12-30T14:09:57Z</time>
      </trkpt>
      <trkpt lat="37.480311" lon="-8.698801">
        <ele>171.248</ele>
        <time>2018-12-30T14:09:59Z</time>
      </trkpt>
      <trkpt lat="37.480376" lon="-8.698853">
        <ele>171.754</ele>
        <time>2018-12-30T14:10:06Z</time>
      </trkpt>
      <trkpt lat="37.480419" lon="-8.698898">
        <ele>172.291</ele>
        <time>2018-12-30T14:10:11Z</time>
      </trkpt>
      <trkpt lat="37.480484" lon="-8.698908">
        <ele>173.666</ele>
        <time>2018-12-30T14:10:17Z</time>
      </trkpt>
      <trkpt lat="37.480541" lon="-8.698931">
        <ele>174.197</ele>
        <time>2018-12-30T14:10:22Z</time>
      </trkpt>
      <trkpt lat="37.480562" lon="-8.698927">
        <ele>174.629</ele>
        <time>2018-12-30T14:10:24Z</time>
      </trkpt>
      <trkpt lat="37.480679" lon="-8.698944">
        <ele>176.000</ele>
        <time>2018-12-30T14:10:35Z</time>
      </trkpt>
      <trkpt lat="37.480700" lon="-8.698951">
        <ele>176.520</ele>
        <time>2018-12-30T14:10:37Z</time>
      </trkpt>
      <trkpt lat="37.480750" lon="-8.698966">
        <ele>177.508</ele>
        <time>2018-12-30T14:10:42Z</time>
      </trkpt>
      <trkpt lat="37.480797" lon="-8.698994">
        <ele>177.945</ele>
        <time>2018-12-30T14:10:47Z</time>
      </trkpt>
      <trkpt lat="37.480816" lon="-8.699001">
        <ele>178.453</ele>
        <time>2018-12-30T14:10:49Z</time>
      </trkpt>
      <trkpt lat="37.480861" lon="-8.699049">
        <ele>179.480</ele>
        <time>2018-12-30T14:10:55Z</time>
      </trkpt>
      <trkpt lat="37.480888" lon="-8.699084">
        <ele>179.475</ele>
        <time>2018-12-30T14:10:58Z</time>
      </trkpt>
      <trkpt lat="37.480934" lon="-8.699135">
        <ele>179.921</ele>
        <time>2018-12-30T14:11:03Z</time>
      </trkpt>
      <trkpt lat="37.481046" lon="-8.699215">
        <ele>180.838</ele>
        <time>2018-12-30T14:11:15Z</time>
      </trkpt>
      <trkpt lat="37.481103" lon="-8.699225">
        <ele>181.393</ele>
        <time>2018-12-30T14:11:20Z</time>
      </trkpt>
      <trkpt lat="37.481126" lon="-8.699216">
        <ele>181.374</ele>
        <time>2018-12-30T14:11:22Z</time>
      </trkpt>
      <trkpt lat="37.481198" lon="-8.699208">
        <ele>181.395</ele>
        <time>2018-12-30T14:11:34Z</time>
      </trkpt>
      <trkpt lat="37.481205" lon="-8.699215">
        <ele>182.349</ele>
        <time>2018-12-30T14:12:03Z</time>
      </trkpt>
      <trkpt lat="37.481348" lon="-8.699245">
        <ele>184.223</ele>
        <time>2018-12-30T14:12:16Z</time>
      </trkpt>
      <trkpt lat="37.481542" lon="-8.699251">
        <ele>184.208</ele>
        <time>2018-12-30T14:12:31Z</time>
      </trkpt>
      <trkpt lat="37.481657" lon="-8.699271">
        <ele>185.672</ele>
        <time>2018-12-30T14:12:41Z</time>
      </trkpt>
      <trkpt lat="37.481715" lon="-8.699274">
        <ele>186.620</ele>
        <time>2018-12-30T14:12:46Z</time>
      </trkpt>
      <trkpt lat="37.481842" lon="-8.699274">
        <ele>188.547</ele>
        <time>2018-12-30T14:12:54Z</time>
      </trkpt>
      <trkpt lat="37.481860" lon="-8.699273">
        <ele>189.042</ele>
        <time>2018-12-30T14:12:56Z</time>
      </trkpt>
      <trkpt lat="37.481882" lon="-8.699284">
        <ele>190.048</ele>
        <time>2018-12-30T14:12:59Z</time>
      </trkpt>
      <trkpt lat="37.481917" lon="-8.699279">
        <ele>190.975</ele>
        <time>2018-12-30T14:13:03Z</time>
      </trkpt>
      <trkpt lat="37.481992" lon="-8.699288">
        <ele>192.480</ele>
        <time>2018-12-30T14:13:12Z</time>
      </trkpt>
      <trkpt lat="37.482075" lon="-8.699299">
        <ele>193.831</ele>
        <time>2018-12-30T14:13:20Z</time>
      </trkpt>
      <trkpt lat="37.482179" lon="-8.699295">
        <ele>195.722</ele>
        <time>2018-12-30T14:13:30Z</time>
      </trkpt>
      <trkpt lat="37.482257" lon="-8.699286">
        <ele>196.762</ele>
        <time>2018-12-30T14:13:37Z</time>
      </trkpt>
      <trkpt lat="37.482311" lon="-8.699272">
        <ele>197.608</ele>
        <time>2018-12-30T14:13:42Z</time>
      </trkpt>
      <trkpt lat="37.482342" lon="-8.699263">
        <ele>198.108</ele>
        <time>2018-12-30T14:13:47Z</time>
      </trkpt>
      <trkpt lat="37.482392" lon="-8.699261">
        <ele>199.115</ele>
        <time>2018-12-30T14:13:52Z</time>
      </trkpt>
      <trkpt lat="37.482415" lon="-8.699257">
        <ele>199.113</ele>
        <time>2018-12-30T14:13:54Z</time>
      </trkpt>
      <trkpt lat="37.482449" lon="-8.699261">
        <ele>199.190</ele>
        <time>2018-12-30T14:13:57Z</time>
      </trkpt>
      <trkpt lat="37.482526" lon="-8.699268">
        <ele>199.155</ele>
        <time>2018-12-30T14:14:04Z</time>
      </trkpt>
      <trkpt lat="37.482682" lon="-8.699279">
        <ele>198.621</ele>
        <time>2018-12-30T14:14:18Z</time>
      </trkpt>
      <trkpt lat="37.482688" lon="-8.699274">
        <ele>198.638</ele>
        <time>2018-12-30T14:14:23Z</time>
      </trkpt>
      <trkpt lat="37.482723" lon="-8.699279">
        <ele>198.193</ele>
        <time>2018-12-30T14:14:27Z</time>
      </trkpt>
      <trkpt lat="37.482821" lon="-8.699299">
        <ele>198.124</ele>
        <time>2018-12-30T14:14:35Z</time>
      </trkpt>
      <trkpt lat="37.482983" lon="-8.699340">
        <ele>198.128</ele>
        <time>2018-12-30T14:14:49Z</time>
      </trkpt>
      <trkpt lat="37.483140" lon="-8.699419">
        <ele>198.689</ele>
        <time>2018-12-30T14:15:03Z</time>
      </trkpt>
      <trkpt lat="37.483163" lon="-8.699431">
        <ele>198.617</ele>
        <time>2018-12-30T14:15:05Z</time>
      </trkpt>
      <trkpt lat="37.483196" lon="-8.699445">
        <ele>198.608</ele>
        <time>2018-12-30T14:15:08Z</time>
      </trkpt>
      <trkpt lat="37.483355" lon="-8.699460">
        <ele>198.155</ele>
        <time>2018-12-30T14:15:22Z</time>
      </trkpt>
      <trkpt lat="37.483365" lon="-8.699459">
        <ele>198.683</ele>
        <time>2018-12-30T14:15:23Z</time>
      </trkpt>
      <trkpt lat="37.483441" lon="-8.699448">
        <ele>198.170</ele>
        <time>2018-12-30T14:15:37Z</time>
      </trkpt>
      <trkpt lat="37.483489" lon="-8.699415">
        <ele>198.615</ele>
        <time>2018-12-30T14:15:44Z</time>
      </trkpt>
      <trkpt lat="37.483524" lon="-8.699415">
        <ele>197.671</ele>
        <time>2018-12-30T14:15:47Z</time>
      </trkpt>
      <trkpt lat="37.483696" lon="-8.699358">
        <ele>198.158</ele>
        <time>2018-12-30T14:16:03Z</time>
      </trkpt>
      <trkpt lat="37.483866" lon="-8.699309">
        <ele>198.183</ele>
        <time>2018-12-30T14:16:17Z</time>
      </trkpt>
      <trkpt lat="37.484063" lon="-8.699234">
        <ele>198.194</ele>
        <time>2018-12-30T14:16:34Z</time>
      </trkpt>
      <trkpt lat="37.484229" lon="-8.699156">
        <ele>197.642</ele>
        <time>2018-12-30T14:16:49Z</time>
      </trkpt>
      <trkpt lat="37.484448" lon="-8.699056">
        <ele>197.622</ele>
        <time>2018-12-30T14:17:08Z</time>
      </trkpt>
      <trkpt lat="37.484530" lon="-8.699010">
        <ele>197.214</ele>
        <time>2018-12-30T14:17:15Z</time>
      </trkpt>
      <trkpt lat="37.484632" lon="-8.698920">
        <ele>197.208</ele>
        <time>2018-12-30T14:17:26Z</time>
      </trkpt>
      <trkpt lat="37.484690" lon="-8.698714">
        <ele>197.247</ele>
        <time>2018-12-30T14:17:40Z</time>
      </trkpt>
      <trkpt lat="37.484762" lon="-8.698503">
        <ele>197.235</ele>
        <time>2018-12-30T14:17:54Z</time>
      </trkpt>
      <trkpt lat="37.484783" lon="-8.698456">
        <ele>197.222</ele>
        <time>2018-12-30T14:17:57Z</time>
      </trkpt>
      <trkpt lat="37.484782" lon="-8.698427">
        <ele>196.737</ele>
        <time>2018-12-30T14:17:59Z</time>
      </trkpt>
      <trkpt lat="37.484823" lon="-8.698325">
        <ele>197.293</ele>
        <time>2018-12-30T14:18:06Z</time>
      </trkpt>
      <trkpt lat="37.484848" lon="-8.698259">
        <ele>196.780</ele>
        <time>2018-12-30T14:18:10Z</time>
      </trkpt>
      <trkpt lat="37.484911" lon="-8.698047">
        <ele>196.225</ele>
        <time>2018-12-30T14:18:24Z</time>
      </trkpt>
      <trkpt lat="37.484920" lon="-8.698006">
        <ele>196.796</ele>
        <time>2018-12-30T14:18:27Z</time>
      </trkpt>
      <trkpt lat="37.484989" lon="-8.697820">
        <ele>196.225</ele>
        <time>2018-12-30T14:18:40Z</time>
      </trkpt>
      <trkpt lat="37.485030" lon="-8.697722">
        <ele>196.226</ele>
        <time>2018-12-30T14:18:48Z</time>
      </trkpt>
      <trkpt lat="37.485047" lon="-8.697620">
        <ele>196.208</ele>
        <time>2018-12-30T14:18:55Z</time>
      </trkpt>
      <trkpt lat="37.485118" lon="-8.697482">
        <ele>195.708</ele>
        <time>2018-12-30T14:19:04Z</time>
      </trkpt>
      <trkpt lat="37.485202" lon="-8.697310">
        <ele>195.755</ele>
        <time>2018-12-30T14:19:16Z</time>
      </trkpt>
      <trkpt lat="37.485237" lon="-8.697236">
        <ele>195.223</ele>
        <time>2018-12-30T14:19:21Z</time>
      </trkpt>
      <trkpt lat="37.485276" lon="-8.697082">
        <ele>195.710</ele>
        <time>2018-12-30T14:19:31Z</time>
      </trkpt>
      <trkpt lat="37.485297" lon="-8.697029">
        <ele>195.235</ele>
        <time>2018-12-30T14:19:35Z</time>
      </trkpt>
      <trkpt lat="37.485340" lon="-8.696937">
        <ele>195.771</ele>
        <time>2018-12-30T14:19:41Z</time>
      </trkpt>
      <trkpt lat="37.485375" lon="-8.696857">
        <ele>195.238</ele>
        <time>2018-12-30T14:19:46Z</time>
      </trkpt>
      <trkpt lat="37.485402" lon="-8.696798">
        <ele>195.283</ele>
        <time>2018-12-30T14:19:50Z</time>
      </trkpt>
      <trkpt lat="37.485428" lon="-8.696763">
        <ele>195.284</ele>
        <time>2018-12-30T14:19:53Z</time>
      </trkpt>
      <trkpt lat="37.485445" lon="-8.696655">
        <ele>194.888</ele>
        <time>2018-12-30T14:20:00Z</time>
      </trkpt>
      <trkpt lat="37.485464" lon="-8.696596">
        <ele>195.224</ele>
        <time>2018-12-30T14:20:04Z</time>
      </trkpt>
      <trkpt lat="37.485480" lon="-8.696547">
        <ele>195.226</ele>
        <time>2018-12-30T14:20:07Z</time>
      </trkpt>
      <trkpt lat="37.485570" lon="-8.696329">
        <ele>194.808</ele>
        <time>2018-12-30T14:20:21Z</time>
      </trkpt>
      <trkpt lat="37.485630" lon="-8.696150">
        <ele>194.391</ele>
        <time>2018-12-30T14:20:34Z</time>
      </trkpt>
      <trkpt lat="37.485649" lon="-8.696102">
        <ele>193.859</ele>
        <time>2018-12-30T14:20:37Z</time>
      </trkpt>
      <trkpt lat="37.485659" lon="-8.696077">
        <ele>194.336</ele>
        <time>2018-12-30T14:20:39Z</time>
      </trkpt>
      <trkpt lat="37.485702" lon="-8.695987">
        <ele>193.861</ele>
        <time>2018-12-30T14:20:45Z</time>
      </trkpt>
      <trkpt lat="37.485727" lon="-8.695914">
        <ele>193.347</ele>
        <time>2018-12-30T14:20:50Z</time>
      </trkpt>
      <trkpt lat="37.485779" lon="-8.695744">
        <ele>192.464</ele>
        <time>2018-12-30T14:21:02Z</time>
      </trkpt>
      <trkpt lat="37.485850" lon="-8.695562">
        <ele>191.479</ele>
        <time>2018-12-30T14:21:14Z</time>
      </trkpt>
      <trkpt lat="37.485856" lon="-8.695548">
        <ele>191.430</ele>
        <time>2018-12-30T14:21:15Z</time>
      </trkpt>
      <trkpt lat="37.485876" lon="-8.695439">
        <ele>190.956</ele>
        <time>2018-12-30T14:21:22Z</time>
      </trkpt>
      <trkpt lat="37.485956" lon="-8.695236">
        <ele>190.459</ele>
        <time>2018-12-30T14:21:36Z</time>
      </trkpt>
      <trkpt lat="37.485974" lon="-8.695177">
        <ele>190.414</ele>
        <time>2018-12-30T14:21:41Z</time>
      </trkpt>
      <trkpt lat="37.485987" lon="-8.695121">
        <ele>190.408</ele>
        <time>2018-12-30T14:21:45Z</time>
      </trkpt>
      <trkpt lat="37.485990" lon="-8.695100">
        <ele>190.998</ele>
        <time>2018-12-30T14:21:47Z</time>
      </trkpt>
      <trkpt lat="37.485997" lon="-8.695073">
        <ele>190.446</ele>
        <time>2018-12-30T14:21:50Z</time>
      </trkpt>
      <trkpt lat="37.486004" lon="-8.695050">
        <ele>190.493</ele>
        <time>2018-12-30T14:21:52Z</time>
      </trkpt>
      <trkpt lat="37.486035" lon="-8.694995">
        <ele>190.968</ele>
        <time>2018-12-30T14:21:57Z</time>
      </trkpt>
      <trkpt lat="37.486096" lon="-8.694888">
        <ele>190.954</ele>
        <time>2018-12-30T14:22:06Z</time>
      </trkpt>
      <trkpt lat="37.486138" lon="-8.694735">
        <ele>190.991</ele>
        <time>2018-12-30T14:22:17Z</time>
      </trkpt>
      <trkpt lat="37.486164" lon="-8.694558">
        <ele>191.986</ele>
        <time>2018-12-30T14:22:29Z</time>
      </trkpt>
      <trkpt lat="37.486176" lon="-8.694395">
        <ele>192.417</ele>
        <time>2018-12-30T14:22:40Z</time>
      </trkpt>
      <trkpt lat="37.486202" lon="-8.694361">
        <ele>192.499</ele>
        <time>2018-12-30T14:22:43Z</time>
      </trkpt>
      <trkpt lat="37.486312" lon="-8.694338">
        <ele>193.307</ele>
        <time>2018-12-30T14:22:54Z</time>
      </trkpt>
      <trkpt lat="37.486381" lon="-8.694367">
        <ele>192.827</ele>
        <time>2018-12-30T14:23:00Z</time>
      </trkpt>
      <trkpt lat="37.486475" lon="-8.694427">
        <ele>193.308</ele>
        <time>2018-12-30T14:23:09Z</time>
      </trkpt>
      <trkpt lat="37.486514" lon="-8.694454">
        <ele>193.372</ele>
        <time>2018-12-30T14:23:13Z</time>
      </trkpt>
      <trkpt lat="37.486670" lon="-8.694617">
        <ele>193.350</ele>
        <time>2018-12-30T14:23:29Z</time>
      </trkpt>
      <trkpt lat="37.486699" lon="-8.694650">
        <ele>193.327</ele>
        <time>2018-12-30T14:23:32Z</time>
      </trkpt>
      <trkpt lat="37.486768" lon="-8.694744">
        <ele>193.392</ele>
        <time>2018-12-30T14:23:40Z</time>
      </trkpt>
      <trkpt lat="37.486923" lon="-8.694897">
        <ele>193.868</ele>
        <time>2018-12-30T14:23:57Z</time>
      </trkpt>
      <trkpt lat="37.487067" lon="-8.695010">
        <ele>194.835</ele>
        <time>2018-12-30T14:24:11Z</time>
      </trkpt>
      <trkpt lat="37.487218" lon="-8.695140">
        <ele>194.890</ele>
        <time>2018-12-30T14:24:26Z</time>
      </trkpt>
      <trkpt lat="37.487406" lon="-8.695288">
        <ele>194.891</ele>
        <time>2018-12-30T14:24:44Z</time>
      </trkpt>
      <trkpt lat="37.487572" lon="-8.695424">
        <ele>195.235</ele>
        <time>2018-12-30T14:25:00Z</time>
      </trkpt>
      <trkpt lat="37.487657" lon="-8.695486">
        <ele>194.386</ele>
        <time>2018-12-30T14:25:12Z</time>
      </trkpt>
      <trkpt lat="37.487691" lon="-8.695529">
        <ele>194.814</ele>
        <time>2018-12-30T14:25:26Z</time>
      </trkpt>
      <trkpt lat="37.487691" lon="-8.695519">
        <ele>194.808</ele>
        <time>2018-12-30T14:25:42Z</time>
      </trkpt>
      <trkpt lat="37.487716" lon="-8.695539">
        <ele>194.386</ele>
        <time>2018-12-30T14:25:47Z</time>
      </trkpt>
      <trkpt lat="37.487726" lon="-8.695548">
        <ele>194.374</ele>
        <time>2018-12-30T14:25:49Z</time>
      </trkpt>
      <trkpt lat="37.487877" lon="-8.695636">
        <ele>194.321</ele>
        <time>2018-12-30T14:26:03Z</time>
      </trkpt>
      <trkpt lat="37.487882" lon="-8.695646">
        <ele>194.866</ele>
        <time>2018-12-30T14:26:04Z</time>
      </trkpt>
      <trkpt lat="37.487987" lon="-8.695716">
        <ele>193.822</ele>
        <time>2018-12-30T14:26:14Z</time>
      </trkpt>
      <trkpt lat="37.488071" lon="-8.695778">
        <ele>193.849</ele>
        <time>2018-12-30T14:26:22Z</time>
      </trkpt>
      <trkpt lat="37.488233" lon="-8.695897">
        <ele>193.344</ele>
        <time>2018-12-30T14:26:38Z</time>
      </trkpt>
      <trkpt lat="37.488295" lon="-8.695925">
        <ele>193.325</ele>
        <time>2018-12-30T14:26:43Z</time>
      </trkpt>
      <trkpt lat="37.488317" lon="-8.695942">
        <ele>193.356</ele>
        <time>2018-12-30T14:26:45Z</time>
      </trkpt>
      <trkpt lat="37.488375" lon="-8.695976">
        <ele>193.359</ele>
        <time>2018-12-30T14:26:50Z</time>
      </trkpt>
      <trkpt lat="37.488542" lon="-8.696014">
        <ele>192.814</ele>
        <time>2018-12-30T14:27:04Z</time>
      </trkpt>
      <trkpt lat="37.488760" lon="-8.696061">
        <ele>192.808</ele>
        <time>2018-12-30T14:27:22Z</time>
      </trkpt>
      <trkpt lat="37.488937" lon="-8.696117">
        <ele>192.418</ele>
        <time>2018-12-30T14:27:37Z</time>
      </trkpt>
      <trkpt lat="37.489115" lon="-8.696193">
        <ele>191.916</ele>
        <time>2018-12-30T14:27:52Z</time>
      </trkpt>
      <trkpt lat="37.489223" lon="-8.696248">
        <ele>192.453</ele>
        <time>2018-12-30T14:28:01Z</time>
      </trkpt>
      <trkpt lat="37.489287" lon="-8.696285">
        <ele>192.438</ele>
        <time>2018-12-30T14:28:07Z</time>
      </trkpt>
      <trkpt lat="37.489339" lon="-8.696281">
        <ele>192.434</ele>
        <time>2018-12-30T14:28:11Z</time>
      </trkpt>
      <trkpt lat="37.489558" lon="-8.696363">
        <ele>192.481</ele>
        <time>2018-12-30T14:28:29Z</time>
      </trkpt>
      <trkpt lat="37.489752" lon="-8.696433">
        <ele>191.946</ele>
        <time>2018-12-30T14:28:45Z</time>
      </trkpt>
      <trkpt lat="37.489921" lon="-8.696494">
        <ele>191.467</ele>
        <time>2018-12-30T14:29:00Z</time>
      </trkpt>
      <trkpt lat="37.490076" lon="-8.696571">
        <ele>190.937</ele>
        <time>2018-12-30T14:29:15Z</time>
      </trkpt>
      <trkpt lat="37.490200" lon="-8.696731">
        <ele>191.449</ele>
        <time>2018-12-30T14:29:30Z</time>
      </trkpt>
      <trkpt lat="37.490252" lon="-8.696800">
        <ele>190.913</ele>
        <time>2018-12-30T14:29:36Z</time>
      </trkpt>
      <trkpt lat="37.490396" lon="-8.696933">
        <ele>191.408</ele>
        <time>2018-12-30T14:29:51Z</time>
      </trkpt>
      <trkpt lat="37.490524" lon="-8.697079">
        <ele>190.946</ele>
        <time>2018-12-30T14:30:06Z</time>
      </trkpt>
      <trkpt lat="37.490673" lon="-8.697201">
        <ele>189.554</ele>
        <time>2018-12-30T14:30:21Z</time>
      </trkpt>
      <trkpt lat="37.490775" lon="-8.697286">
        <ele>189.511</ele>
        <time>2018-12-30T14:30:33Z</time>
      </trkpt>
      <trkpt lat="37.490783" lon="-8.697289">
        <ele>189.556</ele>
        <time>2018-12-30T14:30:34Z</time>
      </trkpt>
      <trkpt lat="37.490834" lon="-8.697336">
        <ele>189.562</ele>
        <time>2018-12-30T14:30:40Z</time>
      </trkpt>
      <trkpt lat="37.490945" lon="-8.697433">
        <ele>189.549</ele>
        <time>2018-12-30T14:30:51Z</time>
      </trkpt>
      <trkpt lat="37.491103" lon="-8.697521">
        <ele>190.074</ele>
        <time>2018-12-30T14:31:05Z</time>
      </trkpt>
      <trkpt lat="37.491127" lon="-8.697526">
        <ele>190.045</ele>
        <time>2018-12-30T14:31:07Z</time>
      </trkpt>
      <trkpt lat="37.491152" lon="-8.697536">
        <ele>190.069</ele>
        <time>2018-12-30T14:31:09Z</time>
      </trkpt>
      <trkpt lat="37.491290" lon="-8.697564">
        <ele>190.004</ele>
        <time>2018-12-30T14:31:21Z</time>
      </trkpt>
      <trkpt lat="37.491348" lon="-8.697552">
        <ele>190.024</ele>
        <time>2018-12-30T14:31:28Z</time>
      </trkpt>
      <trkpt lat="37.491382" lon="-8.697569">
        <ele>190.008</ele>
        <time>2018-12-30T14:31:33Z</time>
      </trkpt>
      <trkpt lat="37.491421" lon="-8.697598">
        <ele>190.429</ele>
        <time>2018-12-30T14:31:40Z</time>
      </trkpt>
      <trkpt lat="37.491450" lon="-8.697623">
        <ele>190.487</ele>
        <time>2018-12-30T14:31:43Z</time>
      </trkpt>
      <trkpt lat="37.491493" lon="-8.697650">
        <ele>190.094</ele>
        <time>2018-12-30T14:31:47Z</time>
      </trkpt>
      <trkpt lat="37.491654" lon="-8.697711">
        <ele>190.479</ele>
        <time>2018-12-30T14:32:01Z</time>
      </trkpt>
      <trkpt lat="37.491721" lon="-8.697747">
        <ele>190.445</ele>
        <time>2018-12-30T14:32:07Z</time>
      </trkpt>
      <trkpt lat="37.491879" lon="-8.697819">
        <ele>190.952</ele>
        <time>2018-12-30T14:32:21Z</time>
      </trkpt>
      <trkpt lat="37.492057" lon="-8.697915">
        <ele>191.427</ele>
        <time>2018-12-30T14:32:36Z</time>
      </trkpt>
      <trkpt lat="37.492147" lon="-8.697976">
        <ele>191.998</ele>
        <time>2018-12-30T14:32:44Z</time>
      </trkpt>
      <trkpt lat="37.492323" lon="-8.698090">
        <ele>191.957</ele>
        <time>2018-12-30T14:33:00Z</time>
      </trkpt>
      <trkpt lat="37.492447" lon="-8.698164">
        <ele>191.900</ele>
        <time>2018-12-30T14:33:11Z</time>
      </trkpt>
      <trkpt lat="37.492541" lon="-8.698212">
        <ele>192.820</ele>
        <time>2018-12-30T14:33:19Z</time>
      </trkpt>
      <trkpt lat="37.492606" lon="-8.698245">
        <ele>192.408</ele>
        <time>2018-12-30T14:33:25Z</time>
      </trkpt>
      <trkpt lat="37.492667" lon="-8.698284">
        <ele>192.858</ele>
        <time>2018-12-30T14:33:30Z</time>
      </trkpt>
      <trkpt lat="37.492690" lon="-8.698299">
        <ele>192.456</ele>
        <time>2018-12-30T14:33:32Z</time>
      </trkpt>
      <trkpt lat="37.492784" lon="-8.698345">
        <ele>193.373</ele>
        <time>2018-12-30T14:33:40Z</time>
      </trkpt>
      <trkpt lat="37.492933" lon="-8.698404">
        <ele>193.358</ele>
        <time>2018-12-30T14:33:53Z</time>
      </trkpt>
      <trkpt lat="37.493082" lon="-8.698503">
        <ele>193.824</ele>
        <time>2018-12-30T14:34:07Z</time>
      </trkpt>
      <trkpt lat="37.493227" lon="-8.698623">
        <ele>194.351</ele>
        <time>2018-12-30T14:34:21Z</time>
      </trkpt>
      <trkpt lat="37.493360" lon="-8.698726">
        <ele>194.826</ele>
        <time>2018-12-30T14:34:34Z</time>
      </trkpt>
      <trkpt lat="37.493547" lon="-8.698865">
        <ele>193.867</ele>
        <time>2018-12-30T14:34:51Z</time>
      </trkpt>
      <trkpt lat="37.493771" lon="-8.698962">
        <ele>193.348</ele>
        <time>2018-12-30T14:35:09Z</time>
      </trkpt>
      <trkpt lat="37.493987" lon="-8.699057">
        <ele>192.461</ele>
        <time>2018-12-30T14:35:27Z</time>
      </trkpt>
      <trkpt lat="37.494155" lon="-8.699167">
        <ele>191.417</ele>
        <time>2018-12-30T14:35:42Z</time>
      </trkpt>
      <trkpt lat="37.494365" lon="-8.699250">
        <ele>190.908</ele>
        <time>2018-12-30T14:35:59Z</time>
      </trkpt>
      <trkpt lat="37.494389" lon="-8.699262">
        <ele>190.967</ele>
        <time>2018-12-30T14:36:01Z</time>
      </trkpt>
      <trkpt lat="37.494545" lon="-8.699340">
        <ele>189.525</ele>
        <time>2018-12-30T14:36:14Z</time>
      </trkpt>
      <trkpt lat="37.494694" lon="-8.699416">
        <ele>189.072</ele>
        <time>2018-12-30T14:36:27Z</time>
      </trkpt>
      <trkpt lat="37.494715" lon="-8.699422">
        <ele>189.087</ele>
        <time>2018-12-30T14:36:29Z</time>
      </trkpt>
      <trkpt lat="37.494913" lon="-8.699534">
        <ele>188.593</ele>
        <time>2018-12-30T14:36:45Z</time>
      </trkpt>
      <trkpt lat="37.495087" lon="-8.699642">
        <ele>188.530</ele>
        <time>2018-12-30T14:37:00Z</time>
      </trkpt>
      <trkpt lat="37.495140" lon="-8.699666">
        <ele>188.595</ele>
        <time>2018-12-30T14:37:04Z</time>
      </trkpt>
      <trkpt lat="37.495290" lon="-8.699850">
        <ele>188.036</ele>
        <time>2018-12-30T14:37:21Z</time>
      </trkpt>
      <trkpt lat="37.495438" lon="-8.700005">
        <ele>188.096</ele>
        <time>2018-12-30T14:37:36Z</time>
      </trkpt>
      <trkpt lat="37.495561" lon="-8.700179">
        <ele>186.631</ele>
        <time>2018-12-30T14:37:51Z</time>
      </trkpt>
      <trkpt lat="37.495687" lon="-8.700360">
        <ele>185.624</ele>
        <time>2018-12-30T14:38:06Z</time>
      </trkpt>
      <trkpt lat="37.495712" lon="-8.700391">
        <ele>185.108</ele>
        <time>2018-12-30T14:38:09Z</time>
      </trkpt>
      <trkpt lat="37.495731" lon="-8.700407">
        <ele>184.772</ele>
        <time>2018-12-30T14:38:11Z</time>
      </trkpt>
      <trkpt lat="37.495907" lon="-8.700517">
        <ele>183.770</ele>
        <time>2018-12-30T14:38:27Z</time>
      </trkpt>
      <trkpt lat="37.496014" lon="-8.700561">
        <ele>183.237</ele>
        <time>2018-12-30T14:38:36Z</time>
      </trkpt>
      <trkpt lat="37.496148" lon="-8.700610">
        <ele>182.322</ele>
        <time>2018-12-30T14:38:48Z</time>
      </trkpt>
      <trkpt lat="37.496321" lon="-8.700666">
        <ele>181.378</ele>
        <time>2018-12-30T14:39:01Z</time>
      </trkpt>
      <trkpt lat="37.496410" lon="-8.700695">
        <ele>180.325</ele>
        <time>2018-12-30T14:39:10Z</time>
      </trkpt>
      <trkpt lat="37.496521" lon="-8.700671">
        <ele>179.910</ele>
        <time>2018-12-30T14:39:20Z</time>
      </trkpt>
      <trkpt lat="37.496692" lon="-8.700652">
        <ele>178.991</ele>
        <time>2018-12-30T14:39:34Z</time>
      </trkpt>
      <trkpt lat="37.496725" lon="-8.700638">
        <ele>179.431</ele>
        <time>2018-12-30T14:39:36Z</time>
      </trkpt>
      <trkpt lat="37.496800" lon="-8.700616">
        <ele>178.961</ele>
        <time>2018-12-30T14:39:42Z</time>
      </trkpt>
      <trkpt lat="37.496865" lon="-8.700614">
        <ele>178.407</ele>
        <time>2018-12-30T14:39:47Z</time>
      </trkpt>
      <trkpt lat="37.497006" lon="-8.700595">
        <ele>176.008</ele>
        <time>2018-12-30T14:39:58Z</time>
      </trkpt>
      <trkpt lat="37.497137" lon="-8.700558">
        <ele>174.626</ele>
        <time>2018-12-30T14:40:09Z</time>
      </trkpt>
      <trkpt lat="37.497282" lon="-8.700523">
        <ele>173.184</ele>
        <time>2018-12-30T14:40:22Z</time>
      </trkpt>
      <trkpt lat="37.497307" lon="-8.700534">
        <ele>172.661</ele>
        <time>2018-12-30T14:40:24Z</time>
      </trkpt>
      <trkpt lat="37.497425" lon="-8.700517">
        <ele>170.246</ele>
        <time>2018-12-30T14:40:34Z</time>
      </trkpt>
      <trkpt lat="37.497561" lon="-8.700518">
        <ele>168.332</ele>
        <time>2018-12-30T14:40:47Z</time>
      </trkpt>
      <trkpt lat="37.497654" lon="-8.700471">
        <ele>165.919</ele>
        <time>2018-12-30T14:40:56Z</time>
      </trkpt>
      <trkpt lat="37.497780" lon="-8.700547">
        <ele>163.534</ele>
        <time>2018-12-30T14:41:09Z</time>
      </trkpt>
      <trkpt lat="37.497837" lon="-8.700613">
        <ele>161.655</ele>
        <time>2018-12-30T14:41:17Z</time>
      </trkpt>
      <trkpt lat="37.497880" lon="-8.700659">
        <ele>160.659</ele>
        <time>2018-12-30T14:41:21Z</time>
      </trkpt>
      <trkpt lat="37.498011" lon="-8.700791">
        <ele>157.703</ele>
        <time>2018-12-30T14:41:36Z</time>
      </trkpt>
      <trkpt lat="37.498049" lon="-8.700852">
        <ele>156.823</ele>
        <time>2018-12-30T14:41:41Z</time>
      </trkpt>
      <trkpt lat="37.498160" lon="-8.700963">
        <ele>153.908</ele>
        <time>2018-12-30T14:41:55Z</time>
      </trkpt>
      <trkpt lat="37.498209" lon="-8.700983">
        <ele>152.918</ele>
        <time>2018-12-30T14:41:59Z</time>
      </trkpt>
      <trkpt lat="37.498342" lon="-8.701036">
        <ele>150.196</ele>
        <time>2018-12-30T14:42:10Z</time>
      </trkpt>
      <trkpt lat="37.498464" lon="-8.701102">
        <ele>148.113</ele>
        <time>2018-12-30T14:42:23Z</time>
      </trkpt>
      <trkpt lat="37.498580" lon="-8.701134">
        <ele>147.238</ele>
        <time>2018-12-30T14:42:34Z</time>
      </trkpt>
      <trkpt lat="37.498632" lon="-8.701191">
        <ele>145.734</ele>
        <time>2018-12-30T14:42:41Z</time>
      </trkpt>
      <trkpt lat="37.498786" lon="-8.701255">
        <ele>143.831</ele>
        <time>2018-12-30T14:42:56Z</time>
      </trkpt>
      <trkpt lat="37.498846" lon="-8.701270">
        <ele>143.356</ele>
        <time>2018-12-30T14:43:02Z</time>
      </trkpt>
      <trkpt lat="37.498916" lon="-8.701320">
        <ele>142.417</ele>
        <time>2018-12-30T14:43:10Z</time>
      </trkpt>
      <trkpt lat="37.498990" lon="-8.701446">
        <ele>141.973</ele>
        <time>2018-12-30T14:43:21Z</time>
      </trkpt>
      <trkpt lat="37.499152" lon="-8.701563">
        <ele>141.985</ele>
        <time>2018-12-30T14:43:36Z</time>
      </trkpt>
      <trkpt lat="37.499175" lon="-8.701583">
        <ele>141.913</ele>
        <time>2018-12-30T14:43:38Z</time>
      </trkpt>
      <trkpt lat="37.499212" lon="-8.701626">
        <ele>141.908</ele>
        <time>2018-12-30T14:43:42Z</time>
      </trkpt>
      <trkpt lat="37.499310" lon="-8.701717">
        <ele>142.450</ele>
        <time>2018-12-30T14:43:53Z</time>
      </trkpt>
      <trkpt lat="37.499322" lon="-8.701727">
        <ele>142.478</ele>
        <time>2018-12-30T14:43:54Z</time>
      </trkpt>
      <trkpt lat="37.499351" lon="-8.701762">
        <ele>142.865</ele>
        <time>2018-12-30T14:43:57Z</time>
      </trkpt>
      <trkpt lat="37.499416" lon="-8.701833">
        <ele>142.470</ele>
        <time>2018-12-30T14:44:04Z</time>
      </trkpt>
      <trkpt lat="37.499433" lon="-8.701848">
        <ele>143.846</ele>
        <time>2018-12-30T14:44:06Z</time>
      </trkpt>
      <trkpt lat="37.499449" lon="-8.701863">
        <ele>143.333</ele>
        <time>2018-12-30T14:44:08Z</time>
      </trkpt>
      <trkpt lat="37.499562" lon="-8.701945">
        <ele>142.888</ele>
        <time>2018-12-30T14:44:22Z</time>
      </trkpt>
      <trkpt lat="37.499578" lon="-8.701963">
        <ele>142.849</ele>
        <time>2018-12-30T14:44:32Z</time>
      </trkpt>
      <trkpt lat="37.499612" lon="-8.702002">
        <ele>142.887</ele>
        <time>2018-12-30T14:44:37Z</time>
      </trkpt>
      <trkpt lat="37.499724" lon="-8.702110">
        <ele>142.442</ele>
        <time>2018-12-30T14:44:50Z</time>
      </trkpt>
      <trkpt lat="37.499819" lon="-8.702213">
        <ele>142.426</ele>
        <time>2018-12-30T14:45:01Z</time>
      </trkpt>
      <trkpt lat="37.499949" lon="-8.702336">
        <ele>140.908</ele>
        <time>2018-12-30T14:45:15Z</time>
      </trkpt>
      <trkpt lat="37.500042" lon="-8.702458">
        <ele>140.021</ele>
        <time>2018-12-30T14:45:27Z</time>
      </trkpt>
      <trkpt lat="37.500172" lon="-8.702600">
        <ele>139.029</ele>
        <time>2018-12-30T14:45:42Z</time>
      </trkpt>
      <trkpt lat="37.500183" lon="-8.702621">
        <ele>139.036</ele>
        <time>2018-12-30T14:45:44Z</time>
      </trkpt>
      <trkpt lat="37.500210" lon="-8.702678">
        <ele>138.541</ele>
        <time>2018-12-30T14:45:48Z</time>
      </trkpt>
      <trkpt lat="37.500250" lon="-8.702733">
        <ele>139.077</ele>
        <time>2018-12-30T14:45:52Z</time>
      </trkpt>
      <trkpt lat="37.500327" lon="-8.702882">
        <ele>138.074</ele>
        <time>2018-12-30T14:46:04Z</time>
      </trkpt>
      <trkpt lat="37.500436" lon="-8.703106">
        <ele>137.689</ele>
        <time>2018-12-30T14:46:20Z</time>
      </trkpt>
      <trkpt lat="37.500449" lon="-8.703148">
        <ele>137.650</ele>
        <time>2018-12-30T14:46:24Z</time>
      </trkpt>
      <trkpt lat="37.500464" lon="-8.703190">
        <ele>138.023</ele>
        <time>2018-12-30T14:46:27Z</time>
      </trkpt>
      <trkpt lat="37.500507" lon="-8.703250">
        <ele>138.083</ele>
        <time>2018-12-30T14:46:32Z</time>
      </trkpt>
      <trkpt lat="37.500535" lon="-8.703314">
        <ele>138.011</ele>
        <time>2018-12-30T14:46:37Z</time>
      </trkpt>
      <trkpt lat="37.500647" lon="-8.703519">
        <ele>137.108</ele>
        <time>2018-12-30T14:46:52Z</time>
      </trkpt>
      <trkpt lat="37.500713" lon="-8.703610">
        <ele>137.165</ele>
        <time>2018-12-30T14:47:04Z</time>
      </trkpt>
      <trkpt lat="37.500769" lon="-8.703723">
        <ele>137.683</ele>
        <time>2018-12-30T14:47:15Z</time>
      </trkpt>
      <trkpt lat="37.500789" lon="-8.703774">
        <ele>138.080</ele>
        <time>2018-12-30T14:47:19Z</time>
      </trkpt>
      <trkpt lat="37.500805" lon="-8.703798">
        <ele>138.075</ele>
        <time>2018-12-30T14:47:21Z</time>
      </trkpt>
      <trkpt lat="37.500833" lon="-8.703837">
        <ele>139.051</ele>
        <time>2018-12-30T14:47:25Z</time>
      </trkpt>
      <trkpt lat="37.500862" lon="-8.703859">
        <ele>139.088</ele>
        <time>2018-12-30T14:47:28Z</time>
      </trkpt>
      <trkpt lat="37.501049" lon="-8.703887">
        <ele>138.563</ele>
        <time>2018-12-30T14:47:43Z</time>
      </trkpt>
      <trkpt lat="37.501170" lon="-8.703907">
        <ele>138.074</ele>
        <time>2018-12-30T14:47:53Z</time>
      </trkpt>
      <trkpt lat="37.501252" lon="-8.703904">
        <ele>138.037</ele>
        <time>2018-12-30T14:48:00Z</time>
      </trkpt>
      <trkpt lat="37.501307" lon="-8.703889">
        <ele>138.049</ele>
        <time>2018-12-30T14:48:05Z</time>
      </trkpt>
      <trkpt lat="37.501454" lon="-8.703923">
        <ele>137.613</ele>
        <time>2018-12-30T14:48:19Z</time>
      </trkpt>
      <trkpt lat="37.501582" lon="-8.703938">
        <ele>138.008</ele>
        <time>2018-12-30T14:48:30Z</time>
      </trkpt>
      <trkpt lat="37.501606" lon="-8.703933">
        <ele>138.066</ele>
        <time>2018-12-30T14:48:32Z</time>
      </trkpt>
      <trkpt lat="37.501699" lon="-8.703941">
        <ele>137.614</ele>
        <time>2018-12-30T14:48:39Z</time>
      </trkpt>
      <trkpt lat="37.501880" lon="-8.703916">
        <ele>138.041</ele>
        <time>2018-12-30T14:48:53Z</time>
      </trkpt>
      <trkpt lat="37.501963" lon="-8.703920">
        <ele>138.066</ele>
        <time>2018-12-30T14:49:00Z</time>
      </trkpt>
      <trkpt lat="37.502102" lon="-8.703928">
        <ele>138.022</ele>
        <time>2018-12-30T14:49:11Z</time>
      </trkpt>
      <trkpt lat="37.502267" lon="-8.703966">
        <ele>139.089</ele>
        <time>2018-12-30T14:49:25Z</time>
      </trkpt>
      <trkpt lat="37.502358" lon="-8.704003">
        <ele>139.564</ele>
        <time>2018-12-30T14:49:33Z</time>
      </trkpt>
      <trkpt lat="37.502405" lon="-8.704019">
        <ele>140.015</ele>
        <time>2018-12-30T14:49:37Z</time>
      </trkpt>
      <trkpt lat="37.502539" lon="-8.704054">
        <ele>140.482</ele>
        <time>2018-12-30T14:49:49Z</time>
      </trkpt>
      <trkpt lat="37.502592" lon="-8.704060">
        <ele>140.943</ele>
        <time>2018-12-30T14:49:54Z</time>
      </trkpt>
      <trkpt lat="37.502772" lon="-8.704055">
        <ele>140.017</ele>
        <time>2018-12-30T14:50:08Z</time>
      </trkpt>
      <trkpt lat="37.502784" lon="-8.704055">
        <ele>140.008</ele>
        <time>2018-12-30T14:50:09Z</time>
      </trkpt>
      <trkpt lat="37.502927" lon="-8.704031">
        <ele>139.581</ele>
        <time>2018-12-30T14:50:22Z</time>
      </trkpt>
      <trkpt lat="37.502987" lon="-8.704034">
        <ele>139.099</ele>
        <time>2018-12-30T14:50:27Z</time>
      </trkpt>
      <trkpt lat="37.503159" lon="-8.704023">
        <ele>139.056</ele>
        <time>2018-12-30T14:50:40Z</time>
      </trkpt>
      <trkpt lat="37.503250" lon="-8.704012">
        <ele>139.541</ele>
        <time>2018-12-30T14:50:48Z</time>
      </trkpt>
      <trkpt lat="37.503359" lon="-8.703993">
        <ele>139.517</ele>
        <time>2018-12-30T14:50:58Z</time>
      </trkpt>
      <trkpt lat="37.503540" lon="-8.703977">
        <ele>138.594</ele>
        <time>2018-12-30T14:51:12Z</time>
      </trkpt>
      <trkpt lat="37.503688" lon="-8.704028">
        <ele>138.019</ele>
        <time>2018-12-30T14:51:26Z</time>
      </trkpt>
      <trkpt lat="37.503784" lon="-8.704141">
        <ele>137.630</ele>
        <time>2018-12-30T14:51:37Z</time>
      </trkpt>
      <trkpt lat="37.503803" lon="-8.704180">
        <ele>138.062</ele>
        <time>2018-12-30T14:51:40Z</time>
      </trkpt>
      <trkpt lat="37.503834" lon="-8.704232">
        <ele>138.083</ele>
        <time>2018-12-30T14:51:44Z</time>
      </trkpt>
      <trkpt lat="37.503887" lon="-8.704335">
        <ele>139.511</ele>
        <time>2018-12-30T14:51:54Z</time>
      </trkpt>
      <trkpt lat="37.503920" lon="-8.704375">
        <ele>140.008</ele>
        <time>2018-12-30T14:51:57Z</time>
      </trkpt>
      <trkpt lat="37.504056" lon="-8.704524">
        <ele>139.539</ele>
        <time>2018-12-30T14:52:11Z</time>
      </trkpt>
      <trkpt lat="37.504081" lon="-8.704542">
        <ele>140.497</ele>
        <time>2018-12-30T14:52:13Z</time>
      </trkpt>
      <trkpt lat="37.504221" lon="-8.704649">
        <ele>140.944</ele>
        <time>2018-12-30T14:52:26Z</time>
      </trkpt>
      <trkpt lat="37.504372" lon="-8.704628">
        <ele>141.989</ele>
        <time>2018-12-30T14:52:38Z</time>
      </trkpt>
      <trkpt lat="37.504394" lon="-8.704618">
        <ele>141.915</ele>
        <time>2018-12-30T14:52:40Z</time>
      </trkpt>
      <trkpt lat="37.504453" lon="-8.704555">
        <ele>142.412</ele>
        <time>2018-12-30T14:52:46Z</time>
      </trkpt>
      <trkpt lat="37.504518" lon="-8.704510">
        <ele>142.467</ele>
        <time>2018-12-30T14:52:52Z</time>
      </trkpt>
      <trkpt lat="37.504584" lon="-8.704443">
        <ele>143.828</ele>
        <time>2018-12-30T14:52:59Z</time>
      </trkpt>
      <trkpt lat="37.504681" lon="-8.704385">
        <ele>144.393</ele>
        <time>2018-12-30T14:53:08Z</time>
      </trkpt>
      <trkpt lat="37.504807" lon="-8.704368">
        <ele>145.765</ele>
        <time>2018-12-30T14:53:21Z</time>
      </trkpt>
      <trkpt lat="37.504832" lon="-8.704370">
        <ele>146.221</ele>
        <time>2018-12-30T14:53:30Z</time>
      </trkpt>
      <trkpt lat="37.504898" lon="-8.704372">
        <ele>147.708</ele>
        <time>2018-12-30T14:53:37Z</time>
      </trkpt>
      <trkpt lat="37.505018" lon="-8.704428">
        <ele>149.672</ele>
        <time>2018-12-30T14:53:49Z</time>
      </trkpt>
      <trkpt lat="37.505126" lon="-8.704481">
        <ele>151.530</ele>
        <time>2018-12-30T14:54:00Z</time>
      </trkpt>
      <trkpt lat="37.505192" lon="-8.704521">
        <ele>152.577</ele>
        <time>2018-12-30T14:54:07Z</time>
      </trkpt>
      <trkpt lat="37.505222" lon="-8.704540">
        <ele>152.942</ele>
        <time>2018-12-30T14:54:10Z</time>
      </trkpt>
      <trkpt lat="37.505359" lon="-8.704609">
        <ele>155.858</ele>
        <time>2018-12-30T14:54:24Z</time>
      </trkpt>
      <trkpt lat="37.505384" lon="-8.704633">
        <ele>155.855</ele>
        <time>2018-12-30T14:54:27Z</time>
      </trkpt>
      <trkpt lat="37.505404" lon="-8.704651">
        <ele>156.840</ele>
        <time>2018-12-30T14:54:29Z</time>
      </trkpt>
      <trkpt lat="37.505432" lon="-8.704678">
        <ele>157.311</ele>
        <time>2018-12-30T14:54:32Z</time>
      </trkpt>
      <trkpt lat="37.505468" lon="-8.704703">
        <ele>157.788</ele>
        <time>2018-12-30T14:54:37Z</time>
      </trkpt>
      <trkpt lat="37.505543" lon="-8.704761">
        <ele>158.724</ele>
        <time>2018-12-30T14:54:44Z</time>
      </trkpt>
      <trkpt lat="37.505611" lon="-8.704811">
        <ele>159.726</ele>
        <time>2018-12-30T14:54:51Z</time>
      </trkpt>
      <trkpt lat="37.505653" lon="-8.704828">
        <ele>159.708</ele>
        <time>2018-12-30T14:54:54Z</time>
      </trkpt>
      <trkpt lat="37.505685" lon="-8.704842">
        <ele>159.721</ele>
        <time>2018-12-30T14:54:57Z</time>
      </trkpt>
      <trkpt lat="37.505820" lon="-8.704853">
        <ele>160.229</ele>
        <time>2018-12-30T14:55:09Z</time>
      </trkpt>
      <trkpt lat="37.505847" lon="-8.704851">
        <ele>159.716</ele>
        <time>2018-12-30T14:55:12Z</time>
      </trkpt>
      <trkpt lat="37.505870" lon="-8.704864">
        <ele>159.741</ele>
        <time>2018-12-30T14:55:14Z</time>
      </trkpt>
      <trkpt lat="37.506015" lon="-8.704916">
        <ele>158.797</ele>
        <time>2018-12-30T14:55:27Z</time>
      </trkpt>
      <trkpt lat="37.506155" lon="-8.704956">
        <ele>157.794</ele>
        <time>2018-12-30T14:55:41Z</time>
      </trkpt>
      <trkpt lat="37.506259" lon="-8.704993">
        <ele>158.249</ele>
        <time>2018-12-30T14:55:55Z</time>
      </trkpt>
      <trkpt lat="37.506355" lon="-8.704995">
        <ele>158.230</ele>
        <time>2018-12-30T14:56:12Z</time>
      </trkpt>
      <trkpt lat="37.506533" lon="-8.705036">
        <ele>158.761</ele>
        <time>2018-12-30T14:56:27Z</time>
      </trkpt>
      <trkpt lat="37.506716" lon="-8.705037">
        <ele>158.721</ele>
        <time>2018-12-30T14:56:42Z</time>
      </trkpt>
      <trkpt lat="37.506853" lon="-8.705050">
        <ele>158.713</ele>
        <time>2018-12-30T14:56:55Z</time>
      </trkpt>
      <trkpt lat="37.506893" lon="-8.705067">
        <ele>158.708</ele>
        <time>2018-12-30T14:56:59Z</time>
      </trkpt>
      <trkpt lat="37.506920" lon="-8.705089">
        <ele>158.729</ele>
        <time>2018-12-30T14:57:10Z</time>
      </trkpt>
      <trkpt lat="37.506953" lon="-8.705079">
        <ele>158.267</ele>
        <time>2018-12-30T14:57:13Z</time>
      </trkpt>
      <trkpt lat="37.507048" lon="-8.705062">
        <ele>157.784</ele>
        <time>2018-12-30T14:57:22Z</time>
      </trkpt>
      <trkpt lat="37.507216" lon="-8.705089">
        <ele>157.329</ele>
        <time>2018-12-30T14:57:36Z</time>
      </trkpt>
      <trkpt lat="37.507242" lon="-8.705092">
        <ele>157.385</ele>
        <time>2018-12-30T14:57:38Z</time>
      </trkpt>
      <trkpt lat="37.507294" lon="-8.705094">
        <ele>157.332</ele>
        <time>2018-12-30T14:57:41Z</time>
      </trkpt>
      <trkpt lat="37.507338" lon="-8.705125">
        <ele>157.327</ele>
        <time>2018-12-30T14:57:47Z</time>
      </trkpt>
      <trkpt lat="37.507380" lon="-8.705116">
        <ele>157.328</ele>
        <time>2018-12-30T14:57:50Z</time>
      </trkpt>
      <trkpt lat="37.507455" lon="-8.705087">
        <ele>156.895</ele>
        <time>2018-12-30T14:57:57Z</time>
      </trkpt>
      <trkpt lat="37.507564" lon="-8.705081">
        <ele>156.349</ele>
        <time>2018-12-30T14:58:10Z</time>
      </trkpt>
      <trkpt lat="37.507586" lon="-8.705074">
        <ele>156.823</ele>
        <time>2018-12-30T14:58:20Z</time>
      </trkpt>
      <trkpt lat="37.507617" lon="-8.705098">
        <ele>156.308</ele>
        <time>2018-12-30T14:58:23Z</time>
      </trkpt>
      <trkpt lat="37.507679" lon="-8.705193">
        <ele>155.332</ele>
        <time>2018-12-30T14:58:33Z</time>
      </trkpt>
      <trkpt lat="37.507782" lon="-8.705334">
        <ele>156.320</ele>
        <time>2018-12-30T14:58:48Z</time>
      </trkpt>
      <trkpt lat="37.507830" lon="-8.705441">
        <ele>155.877</ele>
        <time>2018-12-30T14:59:05Z</time>
      </trkpt>
      <trkpt lat="37.507924" lon="-8.705581">
        <ele>156.822</ele>
        <time>2018-12-30T14:59:19Z</time>
      </trkpt>
      <trkpt lat="37.507956" lon="-8.705658">
        <ele>156.888</ele>
        <time>2018-12-30T14:59:35Z</time>
      </trkpt>
      <trkpt lat="37.507999" lon="-8.705705">
        <ele>156.855</ele>
        <time>2018-12-30T14:59:41Z</time>
      </trkpt>
      <trkpt lat="37.508026" lon="-8.705749">
        <ele>157.370</ele>
        <time>2018-12-30T14:59:53Z</time>
      </trkpt>
      <trkpt lat="37.508001" lon="-8.705751">
        <ele>157.311</ele>
        <time>2018-12-30T15:00:07Z</time>
      </trkpt>
      <trkpt lat="37.508013" lon="-8.705752">
        <ele>156.862</ele>
        <time>2018-12-30T15:00:14Z</time>
      </trkpt>
      <trkpt lat="37.508062" lon="-8.705788">
        <ele>156.883</ele>
        <time>2018-12-30T15:00:20Z</time>
      </trkpt>
      <trkpt lat="37.508078" lon="-8.705823">
        <ele>157.311</ele>
        <time>2018-12-30T15:00:23Z</time>
      </trkpt>
      <trkpt lat="37.508092" lon="-8.705830">
        <ele>157.308</ele>
        <time>2018-12-30T15:00:25Z</time>
      </trkpt>
      <trkpt lat="37.508165" lon="-8.705965">
        <ele>157.719</ele>
        <time>2018-12-30T15:00:38Z</time>
      </trkpt>
      <trkpt lat="37.508205" lon="-8.706028">
        <ele>158.297</ele>
        <time>2018-12-30T15:00:43Z</time>
      </trkpt>
      <trkpt lat="37.508328" lon="-8.706060">
        <ele>159.244</ele>
        <time>2018-12-30T15:00:53Z</time>
      </trkpt>
      <trkpt lat="37.508380" lon="-8.705979">
        <ele>159.259</ele>
        <time>2018-12-30T15:01:06Z</time>
      </trkpt>
      <trkpt lat="37.508382" lon="-8.705963">
        <ele>158.725</ele>
        <time>2018-12-30T15:01:15Z</time>
      </trkpt>
      <trkpt lat="37.508389" lon="-8.705904">
        <ele>158.752</ele>
        <time>2018-12-30T15:01:20Z</time>
      </trkpt>
      <trkpt lat="37.508416" lon="-8.705761">
        <ele>158.797</ele>
        <time>2018-12-30T15:01:32Z</time>
      </trkpt>
      <trkpt lat="37.508436" lon="-8.705736">
        <ele>158.728</ele>
        <time>2018-12-30T15:01:35Z</time>
      </trkpt>
      <trkpt lat="37.508444" lon="-8.705713">
        <ele>158.745</ele>
        <time>2018-12-30T15:01:37Z</time>
      </trkpt>
      <trkpt lat="37.508482" lon="-8.705674">
        <ele>159.247</ele>
        <time>2018-12-30T15:01:51Z</time>
      </trkpt>
      <trkpt lat="37.508527" lon="-8.705637">
        <ele>158.211</ele>
        <time>2018-12-30T15:02:07Z</time>
      </trkpt>
      <trkpt lat="37.508528" lon="-8.705643">
        <ele>158.708</ele>
        <time>2018-12-30T15:02:26Z</time>
      </trkpt>
      <trkpt lat="37.508543" lon="-8.705630">
        <ele>158.757</ele>
        <time>2018-12-30T15:02:38Z</time>
      </trkpt>
      <trkpt lat="37.508541" lon="-8.705635">
        <ele>158.745</ele>
        <time>2018-12-30T15:02:57Z</time>
      </trkpt>
      <trkpt lat="37.508518" lon="-8.705618">
        <ele>158.752</ele>
        <time>2018-12-30T15:03:09Z</time>
      </trkpt>
      <trkpt lat="37.5091668125" lon="-8.7052920833">
        <ele>44.36</ele>
        <time>2019-12-27T12:22:23Z</time>
      </trkpt>
      <trkpt lat="37.5091288425" lon="-8.7052535266">
        <ele>43.88</ele>
        <time>2019-12-27T12:22:24Z</time>
      </trkpt>
      <trkpt lat="37.5088307820" lon="-8.7049513590">
        <ele>43.40</ele>
        <time>2019-12-27T12:22:38Z</time>
      </trkpt>
      <trkpt lat="37.5087045506" lon="-8.7048486806">
        <ele>43.40</ele>
        <time>2019-12-27T12:22:46Z</time>
      </trkpt>
      <trkpt lat="37.5086759683" lon="-8.7047415599">
        <ele>44.36</ele>
        <time>2019-12-27T12:22:58Z</time>
      </trkpt>
      <trkpt lat="37.5086623058" lon="-8.7047165819">
        <ele>44.36</ele>
        <time>2019-12-27T12:23:01Z</time>
      </trkpt>
      <trkpt lat="37.5085860305" lon="-8.7045957148">
        <ele>45.32</ele>
        <time>2019-12-27T12:23:11Z</time>
      </trkpt>
      <trkpt lat="37.5085515808" lon="-8.7045315094">
        <ele>45.32</ele>
        <time>2019-12-27T12:23:16Z</time>
      </trkpt>
      <trkpt lat="37.5082543585" lon="-8.7043231353">
        <ele>45.80</ele>
        <time>2019-12-27T12:23:23Z</time>
      </trkpt>
      <trkpt lat="37.5082378462" lon="-8.7042869255">
        <ele>45.80</ele>
        <time>2019-12-27T12:23:25Z</time>
      </trkpt>
      <trkpt lat="37.5081047416" lon="-8.7040850893">
        <ele>46.28</ele>
        <time>2019-12-27T12:23:43Z</time>
      </trkpt>
      <trkpt lat="37.5080244429" lon="-8.7039262522">
        <ele>46.76</ele>
        <time>2019-12-27T12:23:56Z</time>
      </trkpt>
      <trkpt lat="37.5079825334" lon="-8.7038471270">
        <ele>47.24</ele>
        <time>2019-12-27T12:24:02Z</time>
      </trkpt>
      <trkpt lat="37.5079158973" lon="-8.7036679219">
        <ele>47.24</ele>
        <time>2019-12-27T12:24:16Z</time>
      </trkpt>
      <trkpt lat="37.5078889914" lon="-8.7036163732">
        <ele>47.24</ele>
        <time>2019-12-27T12:24:20Z</time>
      </trkpt>
      <trkpt lat="37.5078088604" lon="-8.7034712825">
        <ele>46.76</ele>
        <time>2019-12-27T12:24:35Z</time>
      </trkpt>
      <trkpt lat="37.5078068487" lon="-8.7034641579">
        <ele>46.76</ele>
        <time>2019-12-27T12:24:36Z</time>
      </trkpt>
      <trkpt lat="37.5077971257" lon="-8.7034261879">
        <ele>47.24</ele>
        <time>2019-12-27T12:24:39Z</time>
      </trkpt>
      <trkpt lat="37.5077975448" lon="-8.7033991981">
        <ele>46.76</ele>
        <time>2019-12-27T12:24:43Z</time>
      </trkpt>
      <trkpt lat="37.5077909231" lon="-8.7033698615">
        <ele>46.28</ele>
        <time>2019-12-27T12:24:45Z</time>
      </trkpt>
      <trkpt lat="37.5077797752" lon="-8.7033457216">
        <ele>46.28</ele>
        <time>2019-12-27T12:24:47Z</time>
      </trkpt>
      <trkpt lat="37.5077495165" lon="-8.7032795884">
        <ele>45.80</ele>
        <time>2019-12-27T12:24:52Z</time>
      </trkpt>
      <trkpt lat="37.5077252928" lon="-8.7031833641">
        <ele>45.32</ele>
        <time>2019-12-27T12:24:59Z</time>
      </trkpt>
      <trkpt lat="37.5077201799" lon="-8.7031158060">
        <ele>44.84</ele>
        <time>2019-12-27T12:25:04Z</time>
      </trkpt>
      <trkpt lat="37.5077024102" lon="-8.7030474935">
        <ele>43.88</ele>
        <time>2019-12-27T12:25:10Z</time>
      </trkpt>
      <trkpt lat="37.5077001471" lon="-8.7030180730">
        <ele>43.40</ele>
        <time>2019-12-27T12:25:12Z</time>
      </trkpt>
      <trkpt lat="37.5076918490" lon="-8.7029487547">
        <ele>42.44</ele>
        <time>2019-12-27T12:25:17Z</time>
      </trkpt>
      <trkpt lat="37.5076665357" lon="-8.7027316634">
        <ele>40.03</ele>
        <time>2019-12-27T12:25:31Z</time>
      </trkpt>
      <trkpt lat="37.5076568965" lon="-8.7026641052">
        <ele>39.55</ele>
        <time>2019-12-27T12:25:35Z</time>
      </trkpt>
      <trkpt lat="37.5075669587" lon="-8.7025456689">
        <ele>37.63</ele>
        <time>2019-12-27T12:25:46Z</time>
      </trkpt>
      <trkpt lat="37.5075462554" lon="-8.7025377061">
        <ele>37.63</ele>
        <time>2019-12-27T12:25:48Z</time>
      </trkpt>
      <trkpt lat="37.5074012484" lon="-8.7024198566">
        <ele>35.71</ele>
        <time>2019-12-27T12:26:03Z</time>
      </trkpt>
      <trkpt lat="37.5073770247" lon="-8.7023791205">
        <ele>35.23</ele>
        <time>2019-12-27T12:26:06Z</time>
      </trkpt>
      <trkpt lat="37.5072952174" lon="-8.7022609357">
        <ele>36.19</ele>
        <time>2019-12-27T12:26:16Z</time>
      </trkpt>
      <trkpt lat="37.5071854144" lon="-8.7021008413">
        <ele>36.67</ele>
        <time>2019-12-27T12:26:30Z</time>
      </trkpt>
      <trkpt lat="37.5071528088" lon="-8.7020409107">
        <ele>37.15</ele>
        <time>2019-12-27T12:26:35Z</time>
      </trkpt>
      <trkpt lat="37.5070934650" lon="-8.7019457761">
        <ele>37.15</ele>
        <time>2019-12-27T12:26:43Z</time>
      </trkpt>
      <trkpt lat="37.5069956481" lon="-8.7018069718">
        <ele>37.63</ele>
        <time>2019-12-27T12:26:56Z</time>
      </trkpt>
      <trkpt lat="37.5069622882" lon="-8.7017546687">
        <ele>38.59</ele>
        <time>2019-12-27T12:27:01Z</time>
      </trkpt>
      <trkpt lat="37.5069292635" lon="-8.7017091550">
        <ele>38.11</ele>
        <time>2019-12-27T12:27:05Z</time>
      </trkpt>
      <trkpt lat="37.5068715122" lon="-8.7016108353">
        <ele>39.07</ele>
        <time>2019-12-27T12:27:13Z</time>
      </trkpt>
      <trkpt lat="37.5068329554" lon="-8.7015487254">
        <ele>39.55</ele>
        <time>2019-12-27T12:27:18Z</time>
      </trkpt>
      <trkpt lat="37.5068083126" lon="-8.7014545128">
        <ele>40.03</ele>
        <time>2019-12-27T12:27:25Z</time>
      </trkpt>
      <trkpt lat="37.5067980029" lon="-8.7013999466">
        <ele>40.51</ele>
        <time>2019-12-27T12:27:29Z</time>
      </trkpt>
      <trkpt lat="37.5067859329" lon="-8.7012620643">
        <ele>41.95</ele>
        <time>2019-12-27T12:27:38Z</time>
      </trkpt>
      <trkpt lat="37.5067727733" lon="-8.7011821009">
        <ele>43.40</ele>
        <time>2019-12-27T12:27:43Z</time>
      </trkpt>
      <trkpt lat="37.5067742821" lon="-8.7011381797">
        <ele>43.88</ele>
        <time>2019-12-27T12:27:46Z</time>
      </trkpt>
      <trkpt lat="37.5067743659" lon="-8.7010741420">
        <ele>44.36</ele>
        <time>2019-12-27T12:27:50Z</time>
      </trkpt>
      <trkpt lat="37.5067812391" lon="-8.7008836213">
        <ele>47.72</ele>
        <time>2019-12-27T12:28:02Z</time>
      </trkpt>
      <trkpt lat="37.5068021100" lon="-8.7008226011">
        <ele>48.20</ele>
        <time>2019-12-27T12:28:06Z</time>
      </trkpt>
      <trkpt lat="37.5068088993" lon="-8.7007930130">
        <ele>48.68</ele>
        <time>2019-12-27T12:28:08Z</time>
      </trkpt>
      <trkpt lat="37.5068168622" lon="-8.7007563002">
        <ele>49.16</ele>
        <time>2019-12-27T12:28:11Z</time>
      </trkpt>
      <trkpt lat="37.5068217237" lon="-8.7006993871">
        <ele>49.65</ele>
        <time>2019-12-27T12:28:15Z</time>
      </trkpt>
      <trkpt lat="37.5068544131" lon="-8.7005764246">
        <ele>51.57</ele>
        <time>2019-12-27T12:28:23Z</time>
      </trkpt>
      <trkpt lat="37.5068845879" lon="-8.7004796974">
        <ele>53.01</ele>
        <time>2019-12-27T12:28:29Z</time>
      </trkpt>
      <trkpt lat="37.5069127511" lon="-8.7004131451">
        <ele>53.97</ele>
        <time>2019-12-27T12:28:34Z</time>
      </trkpt>
      <trkpt lat="37.5069627073" lon="-8.7002860755">
        <ele>54.93</ele>
        <time>2019-12-27T12:28:42Z</time>
      </trkpt>
      <trkpt lat="37.5070009287" lon="-8.7001434155">
        <ele>56.37</ele>
        <time>2019-12-27T12:28:51Z</time>
      </trkpt>
      <trkpt lat="37.5070098974" lon="-8.7000648770">
        <ele>57.34</ele>
        <time>2019-12-27T12:28:56Z</time>
      </trkpt>
      <trkpt lat="37.5070264935" lon="-8.6999109015">
        <ele>57.82</ele>
        <time>2019-12-27T12:29:06Z</time>
      </trkpt>
      <trkpt lat="37.5070289243" lon="-8.6998552456">
        <ele>58.30</ele>
        <time>2019-12-27T12:29:10Z</time>
      </trkpt>
      <trkpt lat="37.5070264097" lon="-8.6997447722">
        <ele>59.26</ele>
        <time>2019-12-27T12:29:16Z</time>
      </trkpt>
      <trkpt lat="37.5070266612" lon="-8.6996874399">
        <ele>59.26</ele>
        <time>2019-12-27T12:29:20Z</time>
      </trkpt>
      <trkpt lat="37.5070091430" lon="-8.6996112484">
        <ele>59.74</ele>
        <time>2019-12-27T12:29:25Z</time>
      </trkpt>
      <trkpt lat="37.5069920439" lon="-8.6994376592">
        <ele>61.18</ele>
        <time>2019-12-27T12:29:36Z</time>
      </trkpt>
      <trkpt lat="37.5069909543" lon="-8.6993984319">
        <ele>61.66</ele>
        <time>2019-12-27T12:29:38Z</time>
      </trkpt>
      <trkpt lat="37.5069542415" lon="-8.6991781555">
        <ele>63.10</ele>
        <time>2019-12-27T12:29:52Z</time>
      </trkpt>
      <trkpt lat="37.5069344603" lon="-8.6989826057">
        <ele>63.58</ele>
        <time>2019-12-27T12:30:04Z</time>
      </trkpt>
      <trkpt lat="37.5068881083" lon="-8.6988644209">
        <ele>63.58</ele>
        <time>2019-12-27T12:30:12Z</time>
      </trkpt>
      <trkpt lat="37.5068659801" lon="-8.6987835355">
        <ele>63.58</ele>
        <time>2019-12-27T12:30:17Z</time>
      </trkpt>
      <trkpt lat="37.5068265013" lon="-8.6987008061">
        <ele>64.07</ele>
        <time>2019-12-27T12:30:23Z</time>
      </trkpt>
      <trkpt lat="37.5067460351" lon="-8.6984997243">
        <ele>64.55</ele>
        <time>2019-12-27T12:30:37Z</time>
      </trkpt>
      <trkpt lat="37.5067148544" lon="-8.6984210182">
        <ele>65.51</ele>
        <time>2019-12-27T12:30:42Z</time>
      </trkpt>
      <trkpt lat="37.5066757947" lon="-8.6983015761">
        <ele>65.99</ele>
        <time>2019-12-27T12:30:50Z</time>
      </trkpt>
      <trkpt lat="37.5066472124" lon="-8.6981747579">
        <ele>67.43</ele>
        <time>2019-12-27T12:30:59Z</time>
      </trkpt>
      <trkpt lat="37.5066364836" lon="-8.6980920285">
        <ele>67.91</ele>
        <time>2019-12-27T12:31:04Z</time>
      </trkpt>
      <trkpt lat="37.5066277664" lon="-8.6980616022">
        <ele>68.39</ele>
        <time>2019-12-27T12:31:06Z</time>
      </trkpt>
      <trkpt lat="37.5066190492" lon="-8.6979456805">
        <ele>69.83</ele>
        <time>2019-12-27T12:31:13Z</time>
      </trkpt>
      <trkpt lat="37.5066135172" lon="-8.6978493724">
        <ele>70.79</ele>
        <time>2019-12-27T12:31:19Z</time>
      </trkpt>
      <trkpt lat="37.5066103321" lon="-8.6977840774">
        <ele>71.27</ele>
        <time>2019-12-27T12:31:23Z</time>
      </trkpt>
      <trkpt lat="37.5066039618" lon="-8.6976348795">
        <ele>73.20</ele>
        <time>2019-12-27T12:31:32Z</time>
      </trkpt>
      <trkpt lat="37.5066037942" lon="-8.6976185348">
        <ele>73.20</ele>
        <time>2019-12-27T12:31:33Z</time>
      </trkpt>
      <trkpt lat="37.5066213962" lon="-8.6975151859">
        <ele>74.16</ele>
        <time>2019-12-27T12:31:39Z</time>
      </trkpt>
      <trkpt lat="37.5066397525" lon="-8.6973235756">
        <ele>76.56</ele>
        <time>2019-12-27T12:31:51Z</time>
      </trkpt>
      <trkpt lat="37.5066363998" lon="-8.6972887907">
        <ele>77.04</ele>
        <time>2019-12-27T12:31:53Z</time>
      </trkpt>
      <trkpt lat="37.5066409260" lon="-8.6972141918">
        <ele>77.52</ele>
        <time>2019-12-27T12:31:58Z</time>
      </trkpt>
      <trkpt lat="37.5066525768" lon="-8.6970604677">
        <ele>78.97</ele>
        <time>2019-12-27T12:32:08Z</time>
      </trkpt>
      <trkpt lat="37.5066774711" lon="-8.6969635729">
        <ele>80.41</ele>
        <time>2019-12-27T12:32:14Z</time>
      </trkpt>
      <trkpt lat="37.5067130104" lon="-8.6967976950">
        <ele>81.85</ele>
        <time>2019-12-27T12:32:24Z</time>
      </trkpt>
      <trkpt lat="37.5067436043" lon="-8.6966404505">
        <ele>83.29</ele>
        <time>2019-12-27T12:32:34Z</time>
      </trkpt>
      <trkpt lat="37.5067587756" lon="-8.6964610778">
        <ele>85.21</ele>
        <time>2019-12-27T12:32:46Z</time>
      </trkpt>
      <trkpt lat="37.5067654811" lon="-8.6963316612">
        <ele>86.66</ele>
        <time>2019-12-27T12:32:54Z</time>
      </trkpt>
      <trkpt lat="37.5067597814" lon="-8.6962839682">
        <ele>87.14</ele>
        <time>2019-12-27T12:32:57Z</time>
      </trkpt>
      <trkpt lat="37.5067613740" lon="-8.6962493509">
        <ele>87.62</ele>
        <time>2019-12-27T12:32:59Z</time>
      </trkpt>
      <trkpt lat="37.5067660678" lon="-8.6960826349">
        <ele>89.06</ele>
        <time>2019-12-27T12:33:09Z</time>
      </trkpt>
      <trkpt lat="37.5067614578" lon="-8.6960713193">
        <ele>89.54</ele>
        <time>2019-12-27T12:33:10Z</time>
      </trkpt>
      <trkpt lat="37.5067638885" lon="-8.6960066110">
        <ele>90.50</ele>
        <time>2019-12-27T12:33:14Z</time>
      </trkpt>
      <trkpt lat="37.5067722704" lon="-8.6958969757">
        <ele>91.94</ele>
        <time>2019-12-27T12:33:22Z</time>
      </trkpt>
      <trkpt lat="37.5067763776" lon="-8.6958385538">
        <ele>93.39</ele>
        <time>2019-12-27T12:33:26Z</time>
      </trkpt>
      <trkpt lat="37.5067814905" lon="-8.6957887653">
        <ele>93.87</ele>
        <time>2019-12-27T12:33:29Z</time>
      </trkpt>
      <trkpt lat="37.5067710970" lon="-8.6956916191">
        <ele>94.83</ele>
        <time>2019-12-27T12:33:35Z</time>
      </trkpt>
      <trkpt lat="37.5067715999" lon="-8.6956514698">
        <ele>95.79</ele>
        <time>2019-12-27T12:33:38Z</time>
      </trkpt>
      <trkpt lat="37.5067651458" lon="-8.6956233066">
        <ele>95.31</ele>
        <time>2019-12-27T12:33:40Z</time>
      </trkpt>
      <trkpt lat="37.5067463703" lon="-8.6955716740">
        <ele>96.27</ele>
        <time>2019-12-27T12:33:44Z</time>
      </trkpt>
      <trkpt lat="37.5066902954" lon="-8.6954465322">
        <ele>96.75</ele>
        <time>2019-12-27T12:33:53Z</time>
      </trkpt>
      <trkpt lat="37.5066665746" lon="-8.6954019405">
        <ele>97.23</ele>
        <time>2019-12-27T12:33:56Z</time>
      </trkpt>
      <trkpt lat="37.5066375732" lon="-8.6953328736">
        <ele>97.23</ele>
        <time>2019-12-27T12:34:00Z</time>
      </trkpt>
      <trkpt lat="37.5065926462" lon="-8.6952978373">
        <ele>97.23</ele>
        <time>2019-12-27T12:34:04Z</time>
      </trkpt>
      <trkpt lat="37.5065730326" lon="-8.6952472106">
        <ele>97.23</ele>
        <time>2019-12-27T12:34:07Z</time>
      </trkpt>
      <trkpt lat="37.5065522455" lon="-8.6951873638">
        <ele>98.19</ele>
        <time>2019-12-27T12:34:11Z</time>
      </trkpt>
      <trkpt lat="37.5065123476" lon="-8.6950654071">
        <ele>98.19</ele>
        <time>2019-12-27T12:34:19Z</time>
      </trkpt>
      <trkpt lat="37.5064276066" lon="-8.6948996130">
        <ele>98.67</ele>
        <time>2019-12-27T12:34:31Z</time>
      </trkpt>
      <trkpt lat="37.5064214040" lon="-8.6948625650">
        <ele>99.15</ele>
        <time>2019-12-27T12:34:33Z</time>
      </trkpt>
      <trkpt lat="37.5063622277" lon="-8.6947400216">
        <ele>99.15</ele>
        <time>2019-12-27T12:34:42Z</time>
      </trkpt>
      <trkpt lat="37.5063479785" lon="-8.6947090924">
        <ele>99.15</ele>
        <time>2019-12-27T12:34:44Z</time>
      </trkpt>
      <trkpt lat="37.5063091703" lon="-8.6946045700">
        <ele>100.11</ele>
        <time>2019-12-27T12:34:51Z</time>
      </trkpt>
      <trkpt lat="37.5062333141" lon="-8.6944091041">
        <ele>100.11</ele>
        <time>2019-12-27T12:35:04Z</time>
      </trkpt>
      <trkpt lat="37.5062317215" lon="-8.6943939328">
        <ele>100.60</ele>
        <time>2019-12-27T12:35:05Z</time>
      </trkpt>
      <trkpt lat="37.5061535183" lon="-8.6942214333">
        <ele>101.56</ele>
        <time>2019-12-27T12:35:17Z</time>
      </trkpt>
      <trkpt lat="37.5061246846" lon="-8.6941636819">
        <ele>101.56</ele>
        <time>2019-12-27T12:35:21Z</time>
      </trkpt>
      <trkpt lat="37.5061178114" lon="-8.6941317469">
        <ele>101.56</ele>
        <time>2019-12-27T12:35:23Z</time>
      </trkpt>
      <trkpt lat="37.5060958508" lon="-8.6940751690">
        <ele>102.04</ele>
        <time>2019-12-27T12:35:27Z</time>
      </trkpt>
      <trkpt lat="37.5060663465" lon="-8.6940268055">
        <ele>102.52</ele>
        <time>2019-12-27T12:35:31Z</time>
      </trkpt>
      <trkpt lat="37.5060619880" lon="-8.6939986423">
        <ele>103.00</ele>
        <time>2019-12-27T12:35:33Z</time>
      </trkpt>
      <trkpt lat="37.5060463976" lon="-8.6939557269">
        <ele>103.00</ele>
        <time>2019-12-27T12:35:36Z</time>
      </trkpt>
      <trkpt lat="37.5060391054" lon="-8.6939284019">
        <ele>103.48</ele>
        <time>2019-12-27T12:35:38Z</time>
      </trkpt>
      <trkpt lat="37.5059891492" lon="-8.6938486900">
        <ele>104.44</ele>
        <time>2019-12-27T12:35:44Z</time>
      </trkpt>
      <trkpt lat="37.5059670210" lon="-8.6937689781">
        <ele>104.92</ele>
        <time>2019-12-27T12:35:49Z</time>
      </trkpt>
      <trkpt lat="37.5058899075" lon="-8.6935996637">
        <ele>106.36</ele>
        <time>2019-12-27T12:36:01Z</time>
      </trkpt>
      <trkpt lat="37.5058438070" lon="-8.6934818979">
        <ele>107.32</ele>
        <time>2019-12-27T12:36:09Z</time>
      </trkpt>
      <trkpt lat="37.5058134645" lon="-8.6934450176">
        <ele>107.32</ele>
        <time>2019-12-27T12:36:12Z</time>
      </trkpt>
      <trkpt lat="37.5057377759" lon="-8.6932875216">
        <ele>108.77</ele>
        <time>2019-12-27T12:36:23Z</time>
      </trkpt>
      <trkpt lat="37.5057179946" lon="-8.6932266690">
        <ele>109.25</ele>
        <time>2019-12-27T12:36:27Z</time>
      </trkpt>
      <trkpt lat="37.5056374446" lon="-8.6930275150">
        <ele>110.69</ele>
        <time>2019-12-27T12:36:40Z</time>
      </trkpt>
      <trkpt lat="37.5056343433" lon="-8.6930102482">
        <ele>110.69</ele>
        <time>2019-12-27T12:36:41Z</time>
      </trkpt>
      <trkpt lat="37.5055716466" lon="-8.6928998586">
        <ele>111.65</ele>
        <time>2019-12-27T12:36:49Z</time>
      </trkpt>
      <trkpt lat="37.5055632647" lon="-8.6927834339">
        <ele>112.61</ele>
        <time>2019-12-27T12:36:57Z</time>
      </trkpt>
      <trkpt lat="37.5055021606" lon="-8.6926046479">
        <ele>114.05</ele>
        <time>2019-12-27T12:37:10Z</time>
      </trkpt>
      <trkpt lat="37.5054999813" lon="-8.6924630776">
        <ele>114.05</ele>
        <time>2019-12-27T12:37:20Z</time>
      </trkpt>
      <trkpt lat="37.5054853968" lon="-8.6923463177">
        <ele>115.50</ele>
        <time>2019-12-27T12:37:33Z</time>
      </trkpt>
      <trkpt lat="37.5054831337" lon="-8.6923386063">
        <ele>115.50</ele>
        <time>2019-12-27T12:37:42Z</time>
      </trkpt>
      <trkpt lat="37.5054932758" lon="-8.6924161389">
        <ele>115.98</ele>
        <time>2019-12-27T12:37:49Z</time>
      </trkpt>
      <trkpt lat="37.5054900069" lon="-8.6924442183">
        <ele>115.50</ele>
        <time>2019-12-27T12:37:51Z</time>
      </trkpt>
      <trkpt lat="37.5054547191" lon="-8.6924739741">
        <ele>115.98</ele>
        <time>2019-12-27T12:37:55Z</time>
      </trkpt>
      <trkpt lat="37.5054128934" lon="-8.6924287956">
        <ele>116.46</ele>
        <time>2019-12-27T12:38:00Z</time>
      </trkpt>
      <trkpt lat="37.5053673796" lon="-8.6923535261">
        <ele>116.94</ele>
        <time>2019-12-27T12:38:06Z</time>
      </trkpt>
      <trkpt lat="37.5052852370" lon="-8.6922212597">
        <ele>117.90</ele>
        <time>2019-12-27T12:38:18Z</time>
      </trkpt>
      <trkpt lat="37.5052782800" lon="-8.6922071781">
        <ele>117.90</ele>
        <time>2019-12-27T12:38:19Z</time>
      </trkpt>
      <trkpt lat="37.5052404776" lon="-8.6921668611">
        <ele>117.90</ele>
        <time>2019-12-27T12:38:23Z</time>
      </trkpt>
      <trkpt lat="37.5052010827" lon="-8.6920668650">
        <ele>118.38</ele>
        <time>2019-12-27T12:38:30Z</time>
      </trkpt>
      <trkpt lat="37.5051493663" lon="-8.6920153163">
        <ele>118.86</ele>
        <time>2019-12-27T12:38:35Z</time>
      </trkpt>
      <trkpt lat="37.5051033497" lon="-8.6919500213">
        <ele>119.34</ele>
        <time>2019-12-27T12:38:41Z</time>
      </trkpt>
      <trkpt lat="37.5050222129" lon="-8.6918445770">
        <ele>119.82</ele>
        <time>2019-12-27T12:38:50Z</time>
      </trkpt>
      <trkpt lat="37.5049973186" lon="-8.6918115523">
        <ele>120.30</ele>
        <time>2019-12-27T12:38:53Z</time>
      </trkpt>
      <trkpt lat="37.5049464405" lon="-8.6917391326">
        <ele>120.78</ele>
        <time>2019-12-27T12:38:59Z</time>
      </trkpt>
      <trkpt lat="37.5048737694" lon="-8.6916812137">
        <ele>121.74</ele>
        <time>2019-12-27T12:39:06Z</time>
      </trkpt>
      <trkpt lat="37.5048100669" lon="-8.6916268151">
        <ele>122.22</ele>
        <time>2019-12-27T12:39:13Z</time>
      </trkpt>
      <trkpt lat="37.5047883578" lon="-8.6916114762">
        <ele>122.71</ele>
        <time>2019-12-27T12:39:15Z</time>
      </trkpt>
      <trkpt lat="37.5047535729" lon="-8.6915671360">
        <ele>122.71</ele>
        <time>2019-12-27T12:39:19Z</time>
      </trkpt>
      <trkpt lat="37.5047977455" lon="-8.6913475301">
        <ele>122.22</ele>
        <time>2019-12-27T12:39:31Z</time>
      </trkpt>
      <trkpt lat="37.5048102345" lon="-8.6913342029">
        <ele>122.22</ele>
        <time>2019-12-27T12:39:32Z</time>
      </trkpt>
      <trkpt lat="37.5048653036" lon="-8.6912553292">
        <ele>121.26</ele>
        <time>2019-12-27T12:39:38Z</time>
      </trkpt>
      <trkpt lat="37.5048791338" lon="-8.6912238970">
        <ele>120.78</ele>
        <time>2019-12-27T12:39:40Z</time>
      </trkpt>
      <trkpt lat="37.5049627852" lon="-8.6911053769">
        <ele>120.78</ele>
        <time>2019-12-27T12:39:50Z</time>
      </trkpt>
      <trkpt lat="37.5049694907" lon="-8.6910908762">
        <ele>120.78</ele>
        <time>2019-12-27T12:39:51Z</time>
      </trkpt>
      <trkpt lat="37.5050932914" lon="-8.6908991821">
        <ele>120.30</ele>
        <time>2019-12-27T12:40:05Z</time>
      </trkpt>
      <trkpt lat="37.5051811337" lon="-8.6907420214">
        <ele>120.78</ele>
        <time>2019-12-27T12:40:16Z</time>
      </trkpt>
      <trkpt lat="37.5051993225" lon="-8.6907282751">
        <ele>120.78</ele>
        <time>2019-12-27T12:40:17Z</time>
      </trkpt>
      <trkpt lat="37.5052159186" lon="-8.6907027103">
        <ele>120.30</ele>
        <time>2019-12-27T12:40:19Z</time>
      </trkpt>
      <trkpt lat="37.5052480213" lon="-8.6905532610">
        <ele>120.30</ele>
        <time>2019-12-27T12:40:28Z</time>
      </trkpt>
      <trkpt lat="37.5052693952" lon="-8.6903922446">
        <ele>122.22</ele>
        <time>2019-12-27T12:40:38Z</time>
      </trkpt>
      <trkpt lat="37.5052769389" lon="-8.6902920809">
        <ele>122.71</ele>
        <time>2019-12-27T12:40:44Z</time>
      </trkpt>
      <trkpt lat="37.5052973907" lon="-8.6901560426">
        <ele>123.19</ele>
        <time>2019-12-27T12:40:52Z</time>
      </trkpt>
      <trkpt lat="37.5053081196" lon="-8.6900415458">
        <ele>124.15</ele>
        <time>2019-12-27T12:40:59Z</time>
      </trkpt>
      <trkpt lat="37.5052979775" lon="-8.6899563856">
        <ele>124.63</ele>
        <time>2019-12-27T12:41:04Z</time>
      </trkpt>
      <trkpt lat="37.5052871648" lon="-8.6897085328">
        <ele>126.07</ele>
        <time>2019-12-27T12:41:19Z</time>
      </trkpt>
      <trkpt lat="37.5052510388" lon="-8.6894704029">
        <ele>125.59</ele>
        <time>2019-12-27T12:41:34Z</time>
      </trkpt>
      <trkpt lat="37.5052385498" lon="-8.6892638728">
        <ele>125.11</ele>
        <time>2019-12-27T12:41:47Z</time>
      </trkpt>
      <trkpt lat="37.5052427407" lon="-8.6890154332">
        <ele>124.15</ele>
        <time>2019-12-27T12:42:02Z</time>
      </trkpt>
      <trkpt lat="37.5052676350" lon="-8.6888739467">
        <ele>123.67</ele>
        <time>2019-12-27T12:42:11Z</time>
      </trkpt>
      <trkpt lat="37.5053237937" lon="-8.6887320410">
        <ele>122.71</ele>
        <time>2019-12-27T12:42:20Z</time>
      </trkpt>
      <trkpt lat="37.5053728279" lon="-8.6886213161">
        <ele>122.22</ele>
        <time>2019-12-27T12:42:28Z</time>
      </trkpt>
      <trkpt lat="37.5053903461" lon="-8.6885800771">
        <ele>122.71</ele>
        <time>2019-12-27T12:42:31Z</time>
      </trkpt>
      <trkpt lat="37.5054374523" lon="-8.6884799972">
        <ele>122.22</ele>
        <time>2019-12-27T12:42:38Z</time>
      </trkpt>
      <trkpt lat="37.5054613408" lon="-8.6884074099">
        <ele>122.22</ele>
        <time>2019-12-27T12:42:43Z</time>
      </trkpt>
      <trkpt lat="37.5054893363" lon="-8.6883736309">
        <ele>122.71</ele>
        <time>2019-12-27T12:42:46Z</time>
      </trkpt>
      <trkpt lat="37.5055001490" lon="-8.6883408576">
        <ele>122.71</ele>
        <time>2019-12-27T12:42:48Z</time>
      </trkpt>
      <trkpt lat="37.5055672042" lon="-8.6882011313">
        <ele>122.22</ele>
        <time>2019-12-27T12:42:58Z</time>
      </trkpt>
      <trkpt lat="37.5056404620" lon="-8.6880468205">
        <ele>122.71</ele>
        <time>2019-12-27T12:43:09Z</time>
      </trkpt>
      <trkpt lat="37.5056838803" lon="-8.6878901627">
        <ele>122.22</ele>
        <time>2019-12-27T12:43:19Z</time>
      </trkpt>
      <trkpt lat="37.5057471637" lon="-8.6877444014">
        <ele>121.74</ele>
        <time>2019-12-27T12:43:29Z</time>
      </trkpt>
      <trkpt lat="37.5058215950" lon="-8.6876007356">
        <ele>121.74</ele>
        <time>2019-12-27T12:43:40Z</time>
      </trkpt>
      <trkpt lat="37.5058522727" lon="-8.6875472590">
        <ele>121.74</ele>
        <time>2019-12-27T12:43:44Z</time>
      </trkpt>
      <trkpt lat="37.5058857165" lon="-8.6875068583">
        <ele>121.26</ele>
        <time>2019-12-27T12:43:48Z</time>
      </trkpt>
      <trkpt lat="37.5059287995" lon="-8.6874612607">
        <ele>121.26</ele>
        <time>2019-12-27T12:43:52Z</time>
      </trkpt>
      <trkpt lat="37.5060484093" lon="-8.6873015855">
        <ele>121.26</ele>
        <time>2019-12-27T12:44:06Z</time>
      </trkpt>
      <trkpt lat="37.5061647501" lon="-8.6871725880">
        <ele>120.78</ele>
        <time>2019-12-27T12:44:18Z</time>
      </trkpt>
      <trkpt lat="37.5063107628" lon="-8.6870296765">
        <ele>121.74</ele>
        <time>2019-12-27T12:44:32Z</time>
      </trkpt>
      <trkpt lat="37.5063671730" lon="-8.6869168561">
        <ele>121.26</ele>
        <time>2019-12-27T12:44:40Z</time>
      </trkpt>
      <trkpt lat="37.5063829310" lon="-8.6867925525">
        <ele>121.74</ele>
        <time>2019-12-27T12:44:48Z</time>
      </trkpt>
      <trkpt lat="37.5063899718" lon="-8.6866648123">
        <ele>121.74</ele>
        <time>2019-12-27T12:44:56Z</time>
      </trkpt>
      <trkpt lat="37.5063886307" lon="-8.6866155267">
        <ele>122.22</ele>
        <time>2019-12-27T12:44:59Z</time>
      </trkpt>
      <trkpt lat="37.5063901395" lon="-8.6865374912">
        <ele>122.71</ele>
        <time>2019-12-27T12:45:04Z</time>
      </trkpt>
      <trkpt lat="37.5063868705" lon="-8.6864736211">
        <ele>122.71</ele>
        <time>2019-12-27T12:45:08Z</time>
      </trkpt>
      <trkpt lat="37.5063948333" lon="-8.6863344815">
        <ele>123.67</ele>
        <time>2019-12-27T12:45:17Z</time>
      </trkpt>
      <trkpt lat="37.5064391736" lon="-8.6861683521">
        <ele>124.63</ele>
        <time>2019-12-27T12:45:28Z</time>
      </trkpt>
      <trkpt lat="37.5064841844" lon="-8.6860178132">
        <ele>126.07</ele>
        <time>2019-12-27T12:45:38Z</time>
      </trkpt>
      <trkpt lat="37.5065204781" lon="-8.6858831998">
        <ele>126.55</ele>
        <time>2019-12-27T12:45:47Z</time>
      </trkpt>
      <trkpt lat="37.5065400917" lon="-8.6858513486">
        <ele>127.03</ele>
        <time>2019-12-27T12:45:49Z</time>
      </trkpt>
      <trkpt lat="37.5065483060" lon="-8.6858174857">
        <ele>127.51</ele>
        <time>2019-12-27T12:45:51Z</time>
      </trkpt>
      <trkpt lat="37.5065982621" lon="-8.6856957804">
        <ele>128.47</ele>
        <time>2019-12-27T12:46:00Z</time>
      </trkpt>
      <trkpt lat="37.5066037104" lon="-8.6856605764">
        <ele>128.95</ele>
        <time>2019-12-27T12:46:02Z</time>
      </trkpt>
      <trkpt lat="37.5066584442" lon="-8.6855144799">
        <ele>130.40</ele>
        <time>2019-12-27T12:46:12Z</time>
      </trkpt>
      <trkpt lat="37.5066831708" lon="-8.6854625121">
        <ele>130.88</ele>
        <time>2019-12-27T12:46:15Z</time>
      </trkpt>
      <trkpt lat="37.5066987611" lon="-8.6853767652">
        <ele>131.84</ele>
        <time>2019-12-27T12:46:21Z</time>
      </trkpt>
      <trkpt lat="37.5067135133" lon="-8.6853463389">
        <ele>131.84</ele>
        <time>2019-12-27T12:46:23Z</time>
      </trkpt>
      <trkpt lat="37.5067528244" lon="-8.6851960514">
        <ele>132.80</ele>
        <time>2019-12-27T12:46:33Z</time>
      </trkpt>
      <trkpt lat="37.5067824125" lon="-8.6851340253">
        <ele>133.28</ele>
        <time>2019-12-27T12:46:37Z</time>
      </trkpt>
      <trkpt lat="37.5067958236" lon="-8.6851060297">
        <ele>133.28</ele>
        <time>2019-12-27T12:46:39Z</time>
      </trkpt>
      <trkpt lat="37.5068063010" lon="-8.6850601807">
        <ele>133.76</ele>
        <time>2019-12-27T12:46:42Z</time>
      </trkpt>
      <trkpt lat="37.5068606995" lon="-8.6849201191">
        <ele>135.68</ele>
        <time>2019-12-27T12:46:52Z</time>
      </trkpt>
      <trkpt lat="37.5069026090" lon="-8.6848025210">
        <ele>136.64</ele>
        <time>2019-12-27T12:47:00Z</time>
      </trkpt>
      <trkpt lat="37.5069476198" lon="-8.6846643034">
        <ele>138.09</ele>
        <time>2019-12-27T12:47:09Z</time>
      </trkpt>
      <trkpt lat="37.5069633778" lon="-8.6845948175">
        <ele>138.09</ele>
        <time>2019-12-27T12:47:14Z</time>
      </trkpt>
      <trkpt lat="37.5070217997" lon="-8.6844295263">
        <ele>139.53</ele>
        <time>2019-12-27T12:47:26Z</time>
      </trkpt>
      <trkpt lat="37.5070610270" lon="-8.6843353976">
        <ele>139.53</ele>
        <time>2019-12-27T12:47:33Z</time>
      </trkpt>
      <trkpt lat="37.5070865080" lon="-8.6842649058">
        <ele>140.01</ele>
        <time>2019-12-27T12:47:38Z</time>
      </trkpt>
      <trkpt lat="37.5071501266" lon="-8.6841674242">
        <ele>140.49</ele>
        <time>2019-12-27T12:47:46Z</time>
      </trkpt>
      <trkpt lat="37.5072782859" lon="-8.6839783285">
        <ele>140.01</ele>
        <time>2019-12-27T12:48:01Z</time>
      </trkpt>
      <trkpt lat="37.5072973128" lon="-8.6839340720">
        <ele>140.01</ele>
        <time>2019-12-27T12:48:04Z</time>
      </trkpt>
      <trkpt lat="37.5073216204" lon="-8.6838879716">
        <ele>140.01</ele>
        <time>2019-12-27T12:48:08Z</time>
      </trkpt>
      <trkpt lat="37.5074049365" lon="-8.6837298889">
        <ele>140.49</ele>
        <time>2019-12-27T12:48:19Z</time>
      </trkpt>
      <trkpt lat="37.5074299984" lon="-8.6836731434">
        <ele>140.01</ele>
        <time>2019-12-27T12:48:23Z</time>
      </trkpt>
      <trkpt lat="37.5074584968" lon="-8.6836096086">
        <ele>140.01</ele>
        <time>2019-12-27T12:48:27Z</time>
      </trkpt>
      <trkpt lat="37.5075256359" lon="-8.6834706366">
        <ele>139.53</ele>
        <time>2019-12-27T12:48:37Z</time>
      </trkpt>
      <trkpt lat="37.5075812079" lon="-8.6833164934">
        <ele>140.01</ele>
        <time>2019-12-27T12:48:47Z</time>
      </trkpt>
      <trkpt lat="37.5076103769" lon="-8.6832667049">
        <ele>140.01</ele>
        <time>2019-12-27T12:48:51Z</time>
      </trkpt>
      <trkpt lat="37.5076262187" lon="-8.6831997335">
        <ele>139.53</ele>
        <time>2019-12-27T12:48:55Z</time>
      </trkpt>
      <trkpt lat="37.5076226145" lon="-8.6831679661">
        <ele>139.53</ele>
        <time>2019-12-27T12:48:57Z</time>
      </trkpt>
      <trkpt lat="37.5076858141" lon="-8.6830502842">
        <ele>140.01</ele>
        <time>2019-12-27T12:49:06Z</time>
      </trkpt>
      <trkpt lat="37.5077273045" lon="-8.6830059439">
        <ele>140.01</ele>
        <time>2019-12-27T12:49:10Z</time>
      </trkpt>
      <trkpt lat="37.5078169908" lon="-8.6828670558">
        <ele>140.97</ele>
        <time>2019-12-27T12:49:21Z</time>
      </trkpt>
      <trkpt lat="37.5078716408" lon="-8.6827880144">
        <ele>141.45</ele>
        <time>2019-12-27T12:49:27Z</time>
      </trkpt>
      <trkpt lat="37.5079873949" lon="-8.6826562509">
        <ele>142.41</ele>
        <time>2019-12-27T12:49:39Z</time>
      </trkpt>
      <trkpt lat="37.5080106966" lon="-8.6826305185">
        <ele>142.89</ele>
        <time>2019-12-27T12:49:41Z</time>
      </trkpt>
      <trkpt lat="37.5080666039" lon="-8.6825013533">
        <ele>142.89</ele>
        <time>2019-12-27T12:49:50Z</time>
      </trkpt>
      <trkpt lat="37.5081204157" lon="-8.6823314521">
        <ele>143.85</ele>
        <time>2019-12-27T12:50:02Z</time>
      </trkpt>
      <trkpt lat="37.5081334077" lon="-8.6822675820">
        <ele>143.85</ele>
        <time>2019-12-27T12:50:06Z</time>
      </trkpt>
      <trkpt lat="37.5081576314" lon="-8.6822120938">
        <ele>143.85</ele>
        <time>2019-12-27T12:50:10Z</time>
      </trkpt>
      <trkpt lat="37.5082157180" lon="-8.6820659135">
        <ele>144.82</ele>
        <time>2019-12-27T12:50:20Z</time>
      </trkpt>
      <trkpt lat="37.5082859583" lon="-8.6818597186">
        <ele>144.82</ele>
        <time>2019-12-27T12:50:34Z</time>
      </trkpt>
      <trkpt lat="37.5083345734" lon="-8.6816867162">
        <ele>145.30</ele>
        <time>2019-12-27T12:50:47Z</time>
      </trkpt>
      <trkpt lat="37.5083345734" lon="-8.6816867162">
        <ele>145.30</ele>
        <time>2019-12-27T12:50:48Z</time>
      </trkpt>
      <trkpt lat="37.5083460566" lon="-8.6815508455">
        <ele>144.82</ele>
        <time>2019-12-27T12:50:57Z</time>
      </trkpt>
      <trkpt lat="37.5083613954" lon="-8.6814057548">
        <ele>143.85</ele>
        <time>2019-12-27T12:51:06Z</time>
      </trkpt>
      <trkpt lat="37.5083578750" lon="-8.6813275516">
        <ele>143.85</ele>
        <time>2019-12-27T12:51:11Z</time>
      </trkpt>
      <trkpt lat="37.5083149597" lon="-8.6810821295">
        <ele>143.85</ele>
        <time>2019-12-27T12:51:26Z</time>
      </trkpt>
      <trkpt lat="37.5083094276" lon="-8.6810665391">
        <ele>144.34</ele>
        <time>2019-12-27T12:51:27Z</time>
      </trkpt>
      <trkpt lat="37.5082442164" lon="-8.6808645353">
        <ele>144.34</ele>
        <time>2019-12-27T12:51:41Z</time>
      </trkpt>
      <trkpt lat="37.5082433783" lon="-8.6808485258">
        <ele>144.82</ele>
        <time>2019-12-27T12:51:42Z</time>
      </trkpt>
      <trkpt lat="37.5082438812" lon="-8.6808172613">
        <ele>144.82</ele>
        <time>2019-12-27T12:51:44Z</time>
      </trkpt>
      <trkpt lat="37.5082276203" lon="-8.6807541456">
        <ele>144.82</ele>
        <time>2019-12-27T12:51:48Z</time>
      </trkpt>
      <trkpt lat="37.5082377624" lon="-8.6806819774">
        <ele>145.30</ele>
        <time>2019-12-27T12:51:52Z</time>
      </trkpt>
      <trkpt lat="37.5082334038" lon="-8.6805093940">
        <ele>145.30</ele>
        <time>2019-12-27T12:52:03Z</time>
      </trkpt>
      <trkpt lat="37.5082333200" lon="-8.6802708451">
        <ele>144.82</ele>
        <time>2019-12-27T12:52:18Z</time>
      </trkpt>
      <trkpt lat="37.5082391035" lon="-8.6801696755">
        <ele>144.82</ele>
        <time>2019-12-27T12:52:24Z</time>
      </trkpt>
      <trkpt lat="37.5082370080" lon="-8.6801062245">
        <ele>144.34</ele>
        <time>2019-12-27T12:52:28Z</time>
      </trkpt>
      <trkpt lat="37.5082407799" lon="-8.6800353136">
        <ele>143.85</ele>
        <time>2019-12-27T12:52:33Z</time>
      </trkpt>
      <trkpt lat="37.5082405284" lon="-8.6799996905">
        <ele>143.85</ele>
        <time>2019-12-27T12:52:35Z</time>
      </trkpt>
      <trkpt lat="37.5082568731" lon="-8.6798612215">
        <ele>144.34</ele>
        <time>2019-12-27T12:52:44Z</time>
      </trkpt>
      <trkpt lat="37.5083109364" lon="-8.6797597166">
        <ele>143.85</ele>
        <time>2019-12-27T12:52:52Z</time>
      </trkpt>
      <trkpt lat="37.5085036363" lon="-8.6796641629">
        <ele>142.41</ele>
        <time>2019-12-27T12:53:08Z</time>
      </trkpt>
      <trkpt lat="37.5086385012" lon="-8.6795785837">
        <ele>140.49</ele>
        <time>2019-12-27T12:53:20Z</time>
      </trkpt>
      <trkpt lat="37.5087281875" lon="-8.6795009673">
        <ele>139.05</ele>
        <time>2019-12-27T12:53:28Z</time>
      </trkpt>
      <trkpt lat="37.5088754576" lon="-8.6793808546">
        <ele>138.09</ele>
        <time>2019-12-27T12:53:42Z</time>
      </trkpt>
      <trkpt lat="37.5089168642" lon="-8.6793079320">
        <ele>137.13</ele>
        <time>2019-12-27T12:53:49Z</time>
      </trkpt>
      <trkpt lat="37.5089380704" lon="-8.6792693753">
        <ele>136.64</ele>
        <time>2019-12-27T12:53:52Z</time>
      </trkpt>
      <trkpt lat="37.5089762080" lon="-8.6791402940">
        <ele>134.72</ele>
        <time>2019-12-27T12:54:00Z</time>
      </trkpt>
      <trkpt lat="37.5089916307" lon="-8.6789953709">
        <ele>133.76</ele>
        <time>2019-12-27T12:54:09Z</time>
      </trkpt>
      <trkpt lat="37.5090586022" lon="-8.6788164172">
        <ele>131.36</ele>
        <time>2019-12-27T12:54:22Z</time>
      </trkpt>
      <trkpt lat="37.5091445167" lon="-8.6786053609">
        <ele>128.47</ele>
        <time>2019-12-27T12:54:38Z</time>
      </trkpt>
      <trkpt lat="37.5092502963" lon="-8.6784521397">
        <ele>126.07</ele>
        <time>2019-12-27T12:54:52Z</time>
      </trkpt>
      <trkpt lat="37.5092870090" lon="-8.6784152593">
        <ele>125.59</ele>
        <time>2019-12-27T12:54:56Z</time>
      </trkpt>
      <trkpt lat="37.5093289185" lon="-8.6783441808">
        <ele>124.63</ele>
        <time>2019-12-27T12:55:01Z</time>
      </trkpt>
      <trkpt lat="37.5093386415" lon="-8.6783014331">
        <ele>123.67</ele>
        <time>2019-12-27T12:55:04Z</time>
      </trkpt>
      <trkpt lat="37.5093771983" lon="-8.6781184562">
        <ele>122.22</ele>
        <time>2019-12-27T12:55:17Z</time>
      </trkpt>
      <trkpt lat="37.5093382224" lon="-8.6778830085">
        <ele>120.78</ele>
        <time>2019-12-27T12:55:32Z</time>
      </trkpt>
      <trkpt lat="37.5093166810" lon="-8.6777669191">
        <ele>120.30</ele>
        <time>2019-12-27T12:55:42Z</time>
      </trkpt>
      <trkpt lat="37.5093075447" lon="-8.6777394265">
        <ele>120.30</ele>
        <time>2019-12-27T12:55:45Z</time>
      </trkpt>
      <trkpt lat="37.5092985760" lon="-8.6777196452">
        <ele>120.30</ele>
        <time>2019-12-27T12:55:47Z</time>
      </trkpt>
      <trkpt lat="37.5092456024" lon="-8.6775045656">
        <ele>121.26</ele>
        <time>2019-12-27T12:56:02Z</time>
      </trkpt>
      <trkpt lat="37.5092235580" lon="-8.6773896497">
        <ele>122.22</ele>
        <time>2019-12-27T12:56:10Z</time>
      </trkpt>
      <trkpt lat="37.5092234742" lon="-8.6773446389">
        <ele>122.71</ele>
        <time>2019-12-27T12:56:13Z</time>
      </trkpt>
      <trkpt lat="37.5092361309" lon="-8.6772551201">
        <ele>123.19</ele>
        <time>2019-12-27T12:56:19Z</time>
      </trkpt>
      <trkpt lat="37.5092381425" lon="-8.6772181559">
        <ele>123.67</ele>
        <time>2019-12-27T12:56:22Z</time>
      </trkpt>
      <trkpt lat="37.5093017612" lon="-8.6771183275">
        <ele>124.63</ele>
        <time>2019-12-27T12:56:31Z</time>
      </trkpt>
      <trkpt lat="37.5093212072" lon="-8.6770858057">
        <ele>124.63</ele>
        <time>2019-12-27T12:56:34Z</time>
      </trkpt>
      <trkpt lat="37.5093455147" lon="-8.6770637613">
        <ele>125.11</ele>
        <time>2019-12-27T12:56:37Z</time>
      </trkpt>
      <trkpt lat="37.5094889291" lon="-8.6769753322">
        <ele>127.03</ele>
        <time>2019-12-27T12:56:50Z</time>
      </trkpt>
      <trkpt lat="37.5095605105" lon="-8.6769637652">
        <ele>128.95</ele>
        <time>2019-12-27T12:56:58Z</time>
      </trkpt>
      <trkpt lat="37.5095869135" lon="-8.6769655254">
        <ele>129.43</ele>
        <time>2019-12-27T12:57:00Z</time>
      </trkpt>
      <trkpt lat="37.5096289907" lon="-8.6769721471">
        <ele>129.43</ele>
        <time>2019-12-27T12:57:04Z</time>
      </trkpt>
      <trkpt lat="37.5097182579" lon="-8.6770280544">
        <ele>131.84</ele>
        <time>2019-12-27T12:57:14Z</time>
      </trkpt>
      <trkpt lat="37.5097553898" lon="-8.6770525295">
        <ele>132.32</ele>
        <time>2019-12-27T12:57:18Z</time>
      </trkpt>
      <trkpt lat="37.5098678749" lon="-8.6770480871">
        <ele>133.76</ele>
        <time>2019-12-27T12:57:28Z</time>
      </trkpt>
      <trkpt lat="37.5099080242" lon="-8.6770455725">
        <ele>134.24</ele>
        <time>2019-12-27T12:57:31Z</time>
      </trkpt>
      <trkpt lat="37.5099784322" lon="-8.6770184152">
        <ele>134.72</ele>
        <time>2019-12-27T12:57:37Z</time>
      </trkpt>
      <trkpt lat="37.5100880675" lon="-8.6769961193">
        <ele>135.68</ele>
        <time>2019-12-27T12:57:47Z</time>
      </trkpt>
      <trkpt lat="37.5101301447" lon="-8.6769809481">
        <ele>136.64</ele>
        <time>2019-12-27T12:57:51Z</time>
      </trkpt>
      <trkpt lat="37.5101716351" lon="-8.6769910064">
        <ele>137.13</ele>
        <time>2019-12-27T12:57:55Z</time>
      </trkpt>
      <trkpt lat="37.5102762412" lon="-8.6769886594">
        <ele>138.57</ele>
        <time>2019-12-27T12:58:04Z</time>
      </trkpt>
      <trkpt lat="37.5103143789" lon="-8.6769965384">
        <ele>139.05</ele>
        <time>2019-12-27T12:58:07Z</time>
      </trkpt>
      <trkpt lat="37.5103429612" lon="-8.6770189181">
        <ele>139.53</ele>
        <time>2019-12-27T12:58:10Z</time>
      </trkpt>
      <trkpt lat="37.5103845354" lon="-8.6770283058">
        <ele>140.01</ele>
        <time>2019-12-27T12:58:15Z</time>
      </trkpt>
      <trkpt lat="37.5104501657" lon="-8.6770397890">
        <ele>141.93</ele>
        <time>2019-12-27T12:58:21Z</time>
      </trkpt>
      <trkpt lat="37.5105783250" lon="-8.6770530324">
        <ele>143.37</ele>
        <time>2019-12-27T12:58:33Z</time>
      </trkpt>
      <trkpt lat="37.5106715318" lon="-8.6770356819">
        <ele>145.30</ele>
        <time>2019-12-27T12:58:43Z</time>
      </trkpt>
      <trkpt lat="37.5106956717" lon="-8.6770329159">
        <ele>146.26</ele>
        <time>2019-12-27T12:58:46Z</time>
      </trkpt>
      <trkpt lat="37.5107373297" lon="-8.6770175770">
        <ele>147.22</ele>
        <time>2019-12-27T12:58:50Z</time>
      </trkpt>
      <trkpt lat="37.5108202267" lon="-8.6769480910">
        <ele>147.70</ele>
        <time>2019-12-27T12:58:58Z</time>
      </trkpt>
      <trkpt lat="37.5109564327" lon="-8.6768568959">
        <ele>149.62</ele>
        <time>2019-12-27T12:59:10Z</time>
      </trkpt>
      <trkpt lat="37.5109810755" lon="-8.6768158246">
        <ele>149.62</ele>
        <time>2019-12-27T12:59:13Z</time>
      </trkpt>
      <trkpt lat="37.5109958276" lon="-8.6767952889">
        <ele>150.10</ele>
        <time>2019-12-27T12:59:15Z</time>
      </trkpt>
      <trkpt lat="37.5110513996" lon="-8.6767263059">
        <ele>150.10</ele>
        <time>2019-12-27T12:59:22Z</time>
      </trkpt>
      <trkpt lat="37.5111166947" lon="-8.6766601726">
        <ele>150.10</ele>
        <time>2019-12-27T12:59:28Z</time>
      </trkpt>
      <trkpt lat="37.5111433491" lon="-8.6766414810">
        <ele>150.58</ele>
        <time>2019-12-27T12:59:30Z</time>
      </trkpt>
      <trkpt lat="37.5111649744" lon="-8.6766172573">
        <ele>150.10</ele>
        <time>2019-12-27T12:59:32Z</time>
      </trkpt>
      <trkpt lat="37.5112071354" lon="-8.6765683070">
        <ele>150.58</ele>
        <time>2019-12-27T12:59:36Z</time>
      </trkpt>
      <trkpt lat="37.5112472009" lon="-8.6765196081">
        <ele>150.10</ele>
        <time>2019-12-27T12:59:40Z</time>
      </trkpt>
      <trkpt lat="37.5113011803" lon="-8.6764643714">
        <ele>150.58</ele>
        <time>2019-12-27T12:59:45Z</time>
      </trkpt>
      <trkpt lat="37.5113321934" lon="-8.6764298379">
        <ele>150.10</ele>
        <time>2019-12-27T12:59:48Z</time>
      </trkpt>
      <trkpt lat="37.5113946386" lon="-8.6763789598">
        <ele>150.10</ele>
        <time>2019-12-27T12:59:53Z</time>
      </trkpt>
      <trkpt lat="37.5114978198" lon="-8.6762397364">
        <ele>151.06</ele>
        <time>2019-12-27T13:00:05Z</time>
      </trkpt>
      <trkpt lat="37.5115326885" lon="-8.6761881877">
        <ele>150.58</ele>
        <time>2019-12-27T13:00:10Z</time>
      </trkpt>
      <trkpt lat="37.5115953013" lon="-8.6760955676">
        <ele>150.58</ele>
        <time>2019-12-27T13:00:18Z</time>
      </trkpt>
      <trkpt lat="37.5117061939" lon="-8.6759653967">
        <ele>151.06</ele>
        <time>2019-12-27T13:00:31Z</time>
      </trkpt>
      <trkpt lat="37.5117506180" lon="-8.6759204697">
        <ele>150.58</ele>
        <time>2019-12-27T13:00:35Z</time>
      </trkpt>
      <trkpt lat="37.5118328445" lon="-8.6758014467">
        <ele>151.06</ele>
        <time>2019-12-27T13:00:46Z</time>
      </trkpt>
      <trkpt lat="37.5119359419" lon="-8.6758094095">
        <ele>151.06</ele>
        <time>2019-12-27T13:00:56Z</time>
      </trkpt>
      <trkpt lat="37.5119808689" lon="-8.6758460384">
        <ele>151.06</ele>
        <time>2019-12-27T13:01:01Z</time>
      </trkpt>
      <trkpt lat="37.5120628439" lon="-8.6758908816">
        <ele>151.06</ele>
        <time>2019-12-27T13:01:08Z</time>
      </trkpt>
      <trkpt lat="37.5121105369" lon="-8.6759208050">
        <ele>151.54</ele>
        <time>2019-12-27T13:01:12Z</time>
      </trkpt>
      <trkpt lat="37.5122195855" lon="-8.6759927217">
        <ele>151.54</ele>
        <time>2019-12-27T13:01:22Z</time>
      </trkpt>
      <trkpt lat="37.5123267900" lon="-8.6760575976">
        <ele>151.54</ele>
        <time>2019-12-27T13:01:31Z</time>
      </trkpt>
      <trkpt lat="37.5124041550" lon="-8.6761000939">
        <ele>151.54</ele>
        <time>2019-12-27T13:01:38Z</time>
      </trkpt>
      <trkpt lat="37.5124519318" lon="-8.6761223897">
        <ele>151.54</ele>
        <time>2019-12-27T13:01:42Z</time>
      </trkpt>
      <trkpt lat="37.5126014650" lon="-8.6761938874">
        <ele>151.54</ele>
        <time>2019-12-27T13:01:54Z</time>
      </trkpt>
      <trkpt lat="37.5126336515" lon="-8.6762194522">
        <ele>151.54</ele>
        <time>2019-12-27T13:01:57Z</time>
      </trkpt>
      <trkpt lat="37.5127271097" lon="-8.6762636248">
        <ele>151.54</ele>
        <time>2019-12-27T13:02:05Z</time>
      </trkpt>
      <trkpt lat="37.5128603820" lon="-8.6763182748">
        <ele>151.54</ele>
        <time>2019-12-27T13:02:16Z</time>
      </trkpt>
      <trkpt lat="37.5130169559" lon="-8.6763972323">
        <ele>151.06</ele>
        <time>2019-12-27T13:02:29Z</time>
      </trkpt>
      <trkpt lat="37.5130742881" lon="-8.6764322687">
        <ele>151.06</ele>
        <time>2019-12-27T13:02:34Z</time>
      </trkpt>
      <trkpt lat="37.5131033733" lon="-8.6764372140">
        <ele>150.58</ele>
        <time>2019-12-27T13:02:36Z</time>
      </trkpt>
      <trkpt lat="37.5132762082" lon="-8.6765237991">
        <ele>150.58</ele>
        <time>2019-12-27T13:02:50Z</time>
      </trkpt>
      <trkpt lat="37.5134057086" lon="-8.6765985657">
        <ele>150.58</ele>
        <time>2019-12-27T13:03:01Z</time>
      </trkpt>
      <trkpt lat="37.5135567505" lon="-8.6766601726">
        <ele>150.58</ele>
        <time>2019-12-27T13:03:12Z</time>
      </trkpt>
      <trkpt lat="37.5135850813" lon="-8.6766725779">
        <ele>150.10</ele>
        <time>2019-12-27T13:03:14Z</time>
      </trkpt>
      <trkpt lat="37.5136442576" lon="-8.6766979750">
        <ele>150.58</ele>
        <time>2019-12-27T13:03:19Z</time>
      </trkpt>
      <trkpt lat="37.5138253905" lon="-8.6767832190">
        <ele>150.58</ele>
        <time>2019-12-27T13:03:34Z</time>
      </trkpt>
      <trkpt lat="37.5138390530" lon="-8.6767897569">
        <ele>150.58</ele>
        <time>2019-12-27T13:03:35Z</time>
      </trkpt>
      <trkpt lat="37.5138691440" lon="-8.6768057663">
        <ele>150.58</ele>
        <time>2019-12-27T13:03:38Z</time>
      </trkpt>
      <trkpt lat="37.5140371174" lon="-8.6768746655">
        <ele>150.58</ele>
        <time>2019-12-27T13:03:51Z</time>
      </trkpt>
      <trkpt lat="37.5140853133" lon="-8.6769015715">
        <ele>150.58</ele>
        <time>2019-12-27T13:03:55Z</time>
      </trkpt>
      <trkpt lat="37.5141709764" lon="-8.6769534554">
        <ele>151.06</ele>
        <time>2019-12-27T13:04:06Z</time>
      </trkpt>
      <trkpt lat="37.5141759217" lon="-8.6769335903">
        <ele>151.54</ele>
        <time>2019-12-27T13:04:16Z</time>
      </trkpt>
      <trkpt lat="37.5141781848" lon="-8.6769259628">
        <ele>151.54</ele>
        <time>2019-12-27T13:04:26Z</time>
      </trkpt>
      <trkpt lat="37.5141781848" lon="-8.6769259628">
        <ele>152.03</ele>
        <time>2019-12-27T13:04:53Z</time>
      </trkpt>
      <trkpt lat="37.5141874887" lon="-8.6769116297">
        <ele>152.03</ele>
        <time>2019-12-27T13:04:58Z</time>
      </trkpt>
      <trkpt lat="37.5143207610" lon="-8.6768414732">
        <ele>152.03</ele>
        <time>2019-12-27T13:05:12Z</time>
      </trkpt>
      <trkpt lat="37.5143665262" lon="-8.6767984740">
        <ele>151.54</ele>
        <time>2019-12-27T13:05:24Z</time>
      </trkpt>
      <trkpt lat="37.5143825356" lon="-8.6767783575">
        <ele>151.06</ele>
        <time>2019-12-27T13:05:32Z</time>
      </trkpt>
      <trkpt lat="37.5143962819" lon="-8.6767567322">
        <ele>151.06</ele>
        <time>2019-12-27T13:05:34Z</time>
      </trkpt>
      <trkpt lat="37.5145000499" lon="-8.6766587477">
        <ele>151.54</ele>
        <time>2019-12-27T13:05:48Z</time>
      </trkpt>
      <trkpt lat="37.5145215914" lon="-8.6766347755">
        <ele>151.54</ele>
        <time>2019-12-27T13:05:51Z</time>
      </trkpt>
      <trkpt lat="37.5145441387" lon="-8.6766174249">
        <ele>151.06</ele>
        <time>2019-12-27T13:05:54Z</time>
      </trkpt>
      <trkpt lat="37.5145941786" lon="-8.6765521299">
        <ele>151.06</ele>
        <time>2019-12-27T13:06:02Z</time>
      </trkpt>
      <trkpt lat="37.5146187376" lon="-8.6765289959">
        <ele>151.06</ele>
        <time>2019-12-27T13:06:06Z</time>
      </trkpt>
      <trkpt lat="37.5146479905" lon="-8.6765077058">
        <ele>151.06</ele>
        <time>2019-12-27T13:06:15Z</time>
      </trkpt>
      <trkpt lat="37.5147425383" lon="-8.6764083803">
        <ele>150.10</ele>
        <time>2019-12-27T13:06:29Z</time>
      </trkpt>
      <trkpt lat="37.5147615653" lon="-8.6763962265">
        <ele>150.58</ele>
        <time>2019-12-27T13:06:31Z</time>
      </trkpt>
      <trkpt lat="37.5147893932" lon="-8.6763759423">
        <ele>150.10</ele>
        <time>2019-12-27T13:06:34Z</time>
      </trkpt>
      <trkpt lat="37.5148229208" lon="-8.6763267405">
        <ele>150.58</ele>
        <time>2019-12-27T13:06:40Z</time>
      </trkpt>
      <trkpt lat="37.5148752239" lon="-8.6762715876">
        <ele>150.58</ele>
        <time>2019-12-27T13:06:53Z</time>
      </trkpt>
      <trkpt lat="37.5148944184" lon="-8.6762477830">
        <ele>150.58</ele>
        <time>2019-12-27T13:07:02Z</time>
      </trkpt>
      <trkpt lat="37.5149346516" lon="-8.6761877686">
        <ele>151.06</ele>
        <time>2019-12-27T13:07:07Z</time>
      </trkpt>
      <trkpt lat="37.5149494037" lon="-8.6761090625">
        <ele>151.06</ele>
        <time>2019-12-27T13:07:19Z</time>
      </trkpt>
      <trkpt lat="37.5149520859" lon="-8.6761036143">
        <ele>151.54</ele>
        <time>2019-12-27T13:07:24Z</time>
      </trkpt>
      <trkpt lat="37.5150040537" lon="-8.6759970803">
        <ele>151.06</ele>
        <time>2019-12-27T13:07:33Z</time>
      </trkpt>
      <trkpt lat="37.5150473043" lon="-8.6758615449">
        <ele>150.58</ele>
        <time>2019-12-27T13:07:43Z</time>
      </trkpt>
      <trkpt lat="37.5150856934" lon="-8.6757321283">
        <ele>151.06</ele>
        <time>2019-12-27T13:07:51Z</time>
      </trkpt>
      <trkpt lat="37.5151211489" lon="-8.6756335571">
        <ele>150.10</ele>
        <time>2019-12-27T13:07:58Z</time>
      </trkpt>
      <trkpt lat="37.5151631422" lon="-8.6754012108">
        <ele>149.14</ele>
        <time>2019-12-27T13:08:13Z</time>
      </trkpt>
      <trkpt lat="37.5152015314" lon="-8.6752059124">
        <ele>148.18</ele>
        <time>2019-12-27T13:08:26Z</time>
      </trkpt>
      <trkpt lat="37.5152240787" lon="-8.6750567984">
        <ele>147.22</ele>
        <time>2019-12-27T13:08:35Z</time>
      </trkpt>
      <trkpt lat="37.5152361486" lon="-8.6749211792">
        <ele>146.74</ele>
        <time>2019-12-27T13:08:44Z</time>
      </trkpt>
      <trkpt lat="37.5152472965" lon="-8.6747242883">
        <ele>146.26</ele>
        <time>2019-12-27T13:08:56Z</time>
      </trkpt>
      <trkpt lat="37.5152405072" lon="-8.6746847257">
        <ele>146.26</ele>
        <time>2019-12-27T13:08:59Z</time>
      </trkpt>
      <trkpt lat="37.5152194686" lon="-8.6745633557">
        <ele>146.26</ele>
        <time>2019-12-27T13:09:07Z</time>
      </trkpt>
      <trkpt lat="37.5152056385" lon="-8.6745131481">
        <ele>145.78</ele>
        <time>2019-12-27T13:09:10Z</time>
      </trkpt>
      <trkpt lat="37.5151929818" lon="-8.6744842306">
        <ele>146.74</ele>
        <time>2019-12-27T13:09:12Z</time>
      </trkpt>
      <trkpt lat="37.5151690934" lon="-8.6742952187">
        <ele>146.74</ele>
        <time>2019-12-27T13:09:25Z</time>
      </trkpt>
      <trkpt lat="37.5152260903" lon="-8.6741331127">
        <ele>147.22</ele>
        <time>2019-12-27T13:09:37Z</time>
      </trkpt>
      <trkpt lat="37.5152301975" lon="-8.6741168518">
        <ele>146.74</ele>
        <time>2019-12-27T13:09:38Z</time>
      </trkpt>
      <trkpt lat="37.5152874459" lon="-8.6740483716">
        <ele>146.74</ele>
        <time>2019-12-27T13:09:44Z</time>
      </trkpt>
      <trkpt lat="37.5153282657" lon="-8.6740140896">
        <ele>146.26</ele>
        <time>2019-12-27T13:09:48Z</time>
      </trkpt>
      <trkpt lat="37.5154305249" lon="-8.6739639658">
        <ele>146.26</ele>
        <time>2019-12-27T13:09:58Z</time>
      </trkpt>
      <trkpt lat="37.5155844167" lon="-8.6739583500">
        <ele>145.78</ele>
        <time>2019-12-27T13:10:11Z</time>
      </trkpt>
      <trkpt lat="37.5157470256" lon="-8.6739161890">
        <ele>144.82</ele>
        <time>2019-12-27T13:10:24Z</time>
      </trkpt>
      <trkpt lat="37.5158523861" lon="-8.6737750378">
        <ele>143.37</ele>
        <time>2019-12-27T13:10:36Z</time>
      </trkpt>
      <trkpt lat="37.5159224588" lon="-8.6737306137">
        <ele>142.41</ele>
        <time>2019-12-27T13:10:42Z</time>
      </trkpt>
      <trkpt lat="37.5159607641" lon="-8.6736975051">
        <ele>142.89</ele>
        <time>2019-12-27T13:10:46Z</time>
      </trkpt>
      <trkpt lat="37.5160305854" lon="-8.6737104971">
        <ele>143.85</ele>
        <time>2019-12-27T13:10:53Z</time>
      </trkpt>
      <trkpt lat="37.5160923600" lon="-8.6737135146">
        <ele>144.34</ele>
        <time>2019-12-27T13:10:59Z</time>
      </trkpt>
      <trkpt lat="37.5162543822" lon="-8.6737089045">
        <ele>144.82</ele>
        <time>2019-12-27T13:11:12Z</time>
      </trkpt>
      <trkpt lat="37.5162626803" lon="-8.6737089045">
        <ele>145.30</ele>
        <time>2019-12-27T13:11:13Z</time>
      </trkpt>
      <trkpt lat="37.5163891632" lon="-8.6736660730">
        <ele>146.26</ele>
        <time>2019-12-27T13:11:24Z</time>
      </trkpt>
      <trkpt lat="37.5163997244" lon="-8.6736627202">
        <ele>146.74</ele>
        <time>2019-12-27T13:11:25Z</time>
      </trkpt>
      <trkpt lat="37.5164295640" lon="-8.6736511532">
        <ele>147.22</ele>
        <time>2019-12-27T13:11:28Z</time>
      </trkpt>
      <trkpt lat="37.5164684560" lon="-8.6736475490">
        <ele>147.70</ele>
        <time>2019-12-27T13:11:31Z</time>
      </trkpt>
      <trkpt lat="37.5165812764" lon="-8.6736156978">
        <ele>149.14</ele>
        <time>2019-12-27T13:11:41Z</time>
      </trkpt>
      <trkpt lat="37.5166276284" lon="-8.6735943239">
        <ele>149.14</ele>
        <time>2019-12-27T13:11:45Z</time>
      </trkpt>
      <trkpt lat="37.5166671909" lon="-8.6735783145">
        <ele>148.66</ele>
        <time>2019-12-27T13:11:49Z</time>
      </trkpt>
      <trkpt lat="37.5167695340" lon="-8.6735322978">
        <ele>148.18</ele>
        <time>2019-12-27T13:11:58Z</time>
      </trkpt>
      <trkpt lat="37.5169179775" lon="-8.6734853592">
        <ele>147.70</ele>
        <time>2019-12-27T13:12:11Z</time>
      </trkpt>
      <trkpt lat="37.5169325620" lon="-8.6734846886">
        <ele>147.22</ele>
        <time>2019-12-27T13:12:12Z</time>
      </trkpt>
      <trkpt lat="37.5170755573" lon="-8.6734447069">
        <ele>147.22</ele>
        <time>2019-12-27T13:12:24Z</time>
      </trkpt>
      <trkpt lat="37.5172394235" lon="-8.6733908113">
        <ele>146.74</ele>
        <time>2019-12-27T13:12:37Z</time>
      </trkpt>
      <trkpt lat="37.5173326302" lon="-8.6733426992">
        <ele>146.74</ele>
        <time>2019-12-27T13:12:44Z</time>
      </trkpt>
      <trkpt lat="37.5173996016" lon="-8.6733134463">
        <ele>146.26</ele>
        <time>2019-12-27T13:12:48Z</time>
      </trkpt>
      <trkpt lat="37.5174281001" lon="-8.6733031366">
        <ele>146.26</ele>
        <time>2019-12-27T13:12:50Z</time>
      </trkpt>
      <trkpt lat="37.5174985919" lon="-8.6732519232">
        <ele>145.30</ele>
        <time>2019-12-27T13:12:56Z</time>
      </trkpt>
      <trkpt lat="37.5175306108" lon="-8.6732202396">
        <ele>145.78</ele>
        <time>2019-12-27T13:12:59Z</time>
      </trkpt>
      <trkpt lat="37.5176143460" lon="-8.6731129512">
        <ele>144.82</ele>
        <time>2019-12-27T13:13:08Z</time>
      </trkpt>
      <trkpt lat="37.5176249072" lon="-8.6730864644">
        <ele>144.34</ele>
        <time>2019-12-27T13:13:10Z</time>
      </trkpt>
      <trkpt lat="37.5176461134" lon="-8.6730376817">
        <ele>144.34</ele>
        <time>2019-12-27T13:13:14Z</time>
      </trkpt>
      <trkpt lat="37.5177289266" lon="-8.6729400326">
        <ele>143.37</ele>
        <time>2019-12-27T13:13:21Z</time>
      </trkpt>
      <trkpt lat="37.5178343710" lon="-8.6728006415">
        <ele>142.41</ele>
        <time>2019-12-27T13:13:34Z</time>
      </trkpt>
      <trkpt lat="37.5178741850" lon="-8.6727625877">
        <ele>142.41</ele>
        <time>2019-12-27T13:13:38Z</time>
      </trkpt>
      <trkpt lat="37.5179828983" lon="-8.6726024933">
        <ele>141.45</ele>
        <time>2019-12-27T13:13:51Z</time>
      </trkpt>
      <trkpt lat="37.5180397276" lon="-8.6724359449">
        <ele>140.01</ele>
        <time>2019-12-27T13:14:02Z</time>
      </trkpt>
      <trkpt lat="37.5180437509" lon="-8.6724041775">
        <ele>140.01</ele>
        <time>2019-12-27T13:14:04Z</time>
      </trkpt>
      <trkpt lat="37.5180602632" lon="-8.6723228730">
        <ele>138.57</ele>
        <time>2019-12-27T13:14:09Z</time>
      </trkpt>
      <trkpt lat="37.5180687290" lon="-8.6722343601">
        <ele>138.09</ele>
        <time>2019-12-27T13:14:14Z</time>
      </trkpt>
      <trkpt lat="37.5180910248" lon="-8.6720413249">
        <ele>135.68</ele>
        <time>2019-12-27T13:14:27Z</time>
      </trkpt>
      <trkpt lat="37.5180858281" lon="-8.6719693244">
        <ele>135.20</ele>
        <time>2019-12-27T13:14:31Z</time>
      </trkpt>
      <trkpt lat="37.5180850737" lon="-8.6718234792">
        <ele>133.28</ele>
        <time>2019-12-27T13:14:40Z</time>
      </trkpt>
      <trkpt lat="37.5180685613" lon="-8.6717541609">
        <ele>132.80</ele>
        <time>2019-12-27T13:14:44Z</time>
      </trkpt>
      <trkpt lat="37.5180491991" lon="-8.6715451162">
        <ele>130.88</ele>
        <time>2019-12-27T13:14:56Z</time>
      </trkpt>
      <trkpt lat="37.5180219579" lon="-8.6713674199">
        <ele>129.43</ele>
        <time>2019-12-27T13:15:07Z</time>
      </trkpt>
      <trkpt lat="37.5180165097" lon="-8.6712751351">
        <ele>127.99</ele>
        <time>2019-12-27T13:15:13Z</time>
      </trkpt>
      <trkpt lat="37.5180068705" lon="-8.6711971834">
        <ele>127.03</ele>
        <time>2019-12-27T13:15:18Z</time>
      </trkpt>
      <trkpt lat="37.5179827306" lon="-8.6711434554">
        <ele>126.55</ele>
        <time>2019-12-27T13:15:23Z</time>
      </trkpt>
      <trkpt lat="37.5179427490" lon="-8.6709292140">
        <ele>124.15</ele>
        <time>2019-12-27T13:15:36Z</time>
      </trkpt>
      <trkpt lat="37.5179310981" lon="-8.6708251946">
        <ele>122.71</ele>
        <time>2019-12-27T13:15:42Z</time>
      </trkpt>
      <trkpt lat="37.5178772863" lon="-8.6706313211">
        <ele>120.30</ele>
        <time>2019-12-27T13:15:56Z</time>
      </trkpt>
      <trkpt lat="37.5178574212" lon="-8.6704468355">
        <ele>118.38</ele>
        <time>2019-12-27T13:16:08Z</time>
      </trkpt>
      <trkpt lat="37.5179652963" lon="-8.6704652756">
        <ele>116.94</ele>
        <time>2019-12-27T13:16:19Z</time>
      </trkpt>
      <trkpt lat="37.5179734267" lon="-8.6704734061">
        <ele>116.46</ele>
        <time>2019-12-27T13:16:20Z</time>
      </trkpt>
      <trkpt lat="37.5179878436" lon="-8.6704948638">
        <ele>115.98</ele>
        <time>2019-12-27T13:16:22Z</time>
      </trkpt>
      <trkpt lat="37.5180285797" lon="-8.6705148127">
        <ele>115.50</ele>
        <time>2019-12-27T13:16:25Z</time>
      </trkpt>
      <trkpt lat="37.5180632807" lon="-8.6705394555">
        <ele>115.01</ele>
        <time>2019-12-27T13:16:28Z</time>
      </trkpt>
      <trkpt lat="37.5180775300" lon="-8.6705542076">
        <ele>114.53</ele>
        <time>2019-12-27T13:16:30Z</time>
      </trkpt>
      <trkpt lat="37.5181243010" lon="-8.6705930997">
        <ele>113.57</ele>
        <time>2019-12-27T13:16:35Z</time>
      </trkpt>
      <trkpt lat="37.5181579124" lon="-8.6706221011">
        <ele>112.61</ele>
        <time>2019-12-27T13:16:39Z</time>
      </trkpt>
      <trkpt lat="37.5182246324" lon="-8.6706609093">
        <ele>111.65</ele>
        <time>2019-12-27T13:16:44Z</time>
      </trkpt>
      <trkpt lat="37.5182795338" lon="-8.6706998851">
        <ele>111.17</ele>
        <time>2019-12-27T13:16:49Z</time>
      </trkpt>
      <trkpt lat="37.5183020812" lon="-8.6707130447">
        <ele>111.17</ele>
        <time>2019-12-27T13:16:51Z</time>
      </trkpt>
      <trkpt lat="37.5183392130" lon="-8.6707382742">
        <ele>110.21</ele>
        <time>2019-12-27T13:16:55Z</time>
      </trkpt>
      <trkpt lat="37.5184294861" lon="-8.6707718857">
        <ele>109.73</ele>
        <time>2019-12-27T13:17:02Z</time>
      </trkpt>
      <trkpt lat="37.5184794422" lon="-8.6707661022">
        <ele>108.77</ele>
        <time>2019-12-27T13:17:06Z</time>
      </trkpt>
      <trkpt lat="37.5186672807" lon="-8.6706469953">
        <ele>107.32</ele>
        <time>2019-12-27T13:17:19Z</time>
      </trkpt>
      <trkpt lat="37.5187010597" lon="-8.6706263758">
        <ele>107.32</ele>
        <time>2019-12-27T13:17:22Z</time>
      </trkpt>
      <trkpt lat="37.5187681988" lon="-8.6705939379">
        <ele>107.32</ele>
        <time>2019-12-27T13:17:27Z</time>
      </trkpt>
      <trkpt lat="37.5188902393" lon="-8.6704875715">
        <ele>106.36</ele>
        <time>2019-12-27T13:17:38Z</time>
      </trkpt>
      <trkpt lat="37.5190331507" lon="-8.6703878269">
        <ele>103.96</ele>
        <time>2019-12-27T13:17:51Z</time>
      </trkpt>
      <trkpt lat="37.5191178080" lon="-8.6703221127">
        <ele>103.00</ele>
        <time>2019-12-27T13:17:59Z</time>
      </trkpt>
      <trkpt lat="37.5191847794" lon="-8.6702667922">
        <ele>102.52</ele>
        <time>2019-12-27T13:18:05Z</time>
      </trkpt>
      <trkpt lat="37.5192090869" lon="-8.6702468432">
        <ele>102.04</ele>
        <time>2019-12-27T13:18:07Z</time>
      </trkpt>
      <trkpt lat="37.5192756392" lon="-8.6701833922">
        <ele>101.08</ele>
        <time>2019-12-27T13:18:14Z</time>
      </trkpt>
      <trkpt lat="37.5193747133" lon="-8.6700232141">
        <ele>100.11</ele>
        <time>2019-12-27T13:18:27Z</time>
      </trkpt>
      <trkpt lat="37.5194201432" lon="-8.6699370481">
        <ele>99.15</ele>
        <time>2019-12-27T13:18:38Z</time>
      </trkpt>
      <trkpt lat="37.5195042975" lon="-8.6698274128">
        <ele>98.19</ele>
        <time>2019-12-27T13:18:49Z</time>
      </trkpt>
      <trkpt lat="37.5195121765" lon="-8.6698162649">
        <ele>98.19</ele>
        <time>2019-12-27T13:18:50Z</time>
      </trkpt>
      <trkpt lat="37.5195548404" lon="-8.6697624531">
        <ele>97.23</ele>
        <time>2019-12-27T13:18:55Z</time>
      </trkpt>
      <trkpt lat="37.5196215604" lon="-8.6697083060">
        <ele>96.75</ele>
        <time>2019-12-27T13:19:01Z</time>
      </trkpt>
      <trkpt lat="37.5196746178" lon="-8.6696468666">
        <ele>95.79</ele>
        <time>2019-12-27T13:19:07Z</time>
      </trkpt>
      <trkpt lat="37.5197361410" lon="-8.6695860140">
        <ele>95.31</ele>
        <time>2019-12-27T13:19:13Z</time>
      </trkpt>
      <trkpt lat="37.5198280904" lon="-8.6694822460">
        <ele>94.35</ele>
        <time>2019-12-27T13:19:22Z</time>
      </trkpt>
      <trkpt lat="37.5198867638" lon="-8.6694131792">
        <ele>93.87</ele>
        <time>2019-12-27T13:19:28Z</time>
      </trkpt>
      <trkpt lat="37.5199580938" lon="-8.6693682522">
        <ele>93.87</ele>
        <time>2019-12-27T13:19:40Z</time>
      </trkpt>
      <trkpt lat="37.5199633744" lon="-8.6693624686">
        <ele>93.87</ele>
        <time>2019-12-27T13:20:02Z</time>
      </trkpt>
      <trkpt lat="37.5200333633" lon="-8.6692962516">
        <ele>93.87</ele>
        <time>2019-12-27T13:20:14Z</time>
      </trkpt>
      <trkpt lat="37.5200501271" lon="-8.6692985147">
        <ele>93.87</ele>
        <time>2019-12-27T13:20:27Z</time>
      </trkpt>
      <trkpt lat="37.5200500432" lon="-8.6692968383">
        <ele>94.35</ele>
        <time>2019-12-27T13:20:43Z</time>
      </trkpt>
      <trkpt lat="37.5200620294" lon="-8.6693178769">
        <ele>93.87</ele>
        <time>2019-12-27T13:20:59Z</time>
      </trkpt>
      <trkpt lat="37.5201048609" lon="-8.6693970021">
        <ele>94.83</ele>
        <time>2019-12-27T13:21:10Z</time>
      </trkpt>
      <trkpt lat="37.5201010890" lon="-8.6693918053">
        <ele>94.83</ele>
        <time>2019-12-27T13:21:35Z</time>
      </trkpt>
      <trkpt lat="37.5200980715" lon="-8.6693771370">
        <ele>94.83</ele>
        <time>2019-12-27T13:21:37Z</time>
      </trkpt>
      <trkpt lat="37.5200693216" lon="-8.6692634784">
        <ele>93.87</ele>
        <time>2019-12-27T13:21:48Z</time>
      </trkpt>
      <trkpt lat="37.5201005023" lon="-8.6692385841">
        <ele>93.39</ele>
        <time>2019-12-27T13:21:52Z</time>
      </trkpt>
      <trkpt lat="37.5201664679" lon="-8.6692067329">
        <ele>93.87</ele>
        <time>2019-12-27T13:22:04Z</time>
      </trkpt>
      <trkpt lat="37.5201858301" lon="-8.6691936571">
        <ele>93.87</ele>
        <time>2019-12-27T13:22:12Z</time>
      </trkpt>
      <trkpt lat="37.5203336868" lon="-8.6691239197">
        <ele>92.42</ele>
        <time>2019-12-27T13:22:26Z</time>
      </trkpt>
      <trkpt lat="37.5204786099" lon="-8.6690382566">
        <ele>90.98</ele>
        <time>2019-12-27T13:22:39Z</time>
      </trkpt>
      <trkpt lat="37.5206231140" lon="-8.6688677687">
        <ele>90.50</ele>
        <time>2019-12-27T13:22:54Z</time>
      </trkpt>
      <trkpt lat="37.5206267182" lon="-8.6688541062">
        <ele>90.50</ele>
        <time>2019-12-27T13:22:55Z</time>
      </trkpt>
      <trkpt lat="37.5207327493" lon="-8.6687567923">
        <ele>90.50</ele>
        <time>2019-12-27T13:23:05Z</time>
      </trkpt>
      <trkpt lat="37.5208852161" lon="-8.6686724704">
        <ele>91.46</ele>
        <time>2019-12-27T13:23:18Z</time>
      </trkpt>
      <trkpt lat="37.5209500920" lon="-8.6686619930">
        <ele>91.94</ele>
        <time>2019-12-27T13:23:23Z</time>
      </trkpt>
      <trkpt lat="37.5210948475" lon="-8.6686425470">
        <ele>92.42</ele>
        <time>2019-12-27T13:23:34Z</time>
      </trkpt>
      <trkpt lat="37.5211281236" lon="-8.6686267052">
        <ele>92.42</ele>
        <time>2019-12-27T13:23:38Z</time>
      </trkpt>
      <trkpt lat="37.5211560354" lon="-8.6686224304">
        <ele>92.90</ele>
        <time>2019-12-27T13:23:40Z</time>
      </trkpt>
      <trkpt lat="37.5212511700" lon="-8.6686008051">
        <ele>93.39</ele>
        <time>2019-12-27T13:23:47Z</time>
      </trkpt>
      <trkpt lat="37.5212969352" lon="-8.6685940158">
        <ele>93.87</ele>
        <time>2019-12-27T13:23:51Z</time>
      </trkpt>
      <trkpt lat="37.5213672593" lon="-8.6685894057">
        <ele>94.35</ele>
        <time>2019-12-27T13:23:56Z</time>
      </trkpt>
      <trkpt lat="37.5215220731" lon="-8.6685978714">
        <ele>93.87</ele>
        <time>2019-12-27T13:24:07Z</time>
      </trkpt>
      <trkpt lat="37.5216042995" lon="-8.6686039064">
        <ele>94.35</ele>
        <time>2019-12-27T13:24:13Z</time>
      </trkpt>
      <trkpt lat="37.5217067264" lon="-8.6686270405">
        <ele>94.83</ele>
        <time>2019-12-27T13:24:21Z</time>
      </trkpt>
      <trkpt lat="37.5218016934" lon="-8.6686494201">
        <ele>94.35</ele>
        <time>2019-12-27T13:24:28Z</time>
      </trkpt>
      <trkpt lat="37.5218472909" lon="-8.6686725542">
        <ele>94.35</ele>
        <time>2019-12-27T13:24:32Z</time>
      </trkpt>
      <trkpt lat="37.5219629612" lon="-8.6687096022">
        <ele>92.90</ele>
        <time>2019-12-27T13:24:41Z</time>
      </trkpt>
      <trkpt lat="37.5220683217" lon="-8.6687548645">
        <ele>91.94</ele>
        <time>2019-12-27T13:24:50Z</time>
      </trkpt>
      <trkpt lat="37.5221254863" lon="-8.6687889788">
        <ele>90.98</ele>
        <time>2019-12-27T13:24:54Z</time>
      </trkpt>
      <trkpt lat="37.5222266559" lon="-8.6688892264">
        <ele>89.06</ele>
        <time>2019-12-27T13:25:04Z</time>
      </trkpt>
      <trkpt lat="37.5222512148" lon="-8.6689271964">
        <ele>88.58</ele>
        <time>2019-12-27T13:25:07Z</time>
      </trkpt>
      <trkpt lat="37.5223543961" lon="-8.6690998636">
        <ele>87.62</ele>
        <time>2019-12-27T13:25:20Z</time>
      </trkpt>
      <trkpt lat="37.5224593375" lon="-8.6692756321">
        <ele>86.18</ele>
        <time>2019-12-27T13:25:33Z</time>
      </trkpt>
      <trkpt lat="37.5224795379" lon="-8.6693301983">
        <ele>85.69</ele>
        <time>2019-12-27T13:25:37Z</time>
      </trkpt>
      <trkpt lat="37.5225465093" lon="-8.6694804020">
        <ele>84.25</ele>
        <time>2019-12-27T13:25:47Z</time>
      </trkpt>
      <trkpt lat="37.5226066913" lon="-8.6696105730">
        <ele>83.77</ele>
        <time>2019-12-27T13:25:56Z</time>
      </trkpt>
      <trkpt lat="37.5226677116" lon="-8.6697229743">
        <ele>82.81</ele>
        <time>2019-12-27T13:26:04Z</time>
      </trkpt>
      <trkpt lat="37.5227145664" lon="-8.6698208749">
        <ele>82.33</ele>
        <time>2019-12-27T13:26:10Z</time>
      </trkpt>
      <trkpt lat="37.5227914285" lon="-8.6699664686">
        <ele>81.37</ele>
        <time>2019-12-27T13:26:20Z</time>
      </trkpt>
      <trkpt lat="37.5228752475" lon="-8.6700299196">
        <ele>80.41</ele>
        <time>2019-12-27T13:26:27Z</time>
      </trkpt>
      <trkpt lat="37.5230052508" lon="-8.6701781116">
        <ele>80.41</ele>
        <time>2019-12-27T13:26:40Z</time>
      </trkpt>
      <trkpt lat="37.5231127907" lon="-8.6703926884">
        <ele>78.97</ele>
        <time>2019-12-27T13:26:55Z</time>
      </trkpt>
      <trkpt lat="37.5231552869" lon="-8.6704617552">
        <ele>78.48</ele>
        <time>2019-12-27T13:27:00Z</time>
      </trkpt>
      <trkpt lat="37.5232373457" lon="-8.6706284713">
        <ele>77.52</ele>
        <time>2019-12-27T13:27:12Z</time>
      </trkpt>
      <trkpt lat="37.5233080890" lon="-8.6708677746">
        <ele>76.56</ele>
        <time>2019-12-27T13:27:27Z</time>
      </trkpt>
      <trkpt lat="37.5233164709" lon="-8.6708835326">
        <ele>76.08</ele>
        <time>2019-12-27T13:27:28Z</time>
      </trkpt>
      <trkpt lat="37.5233411137" lon="-8.6709440500">
        <ele>75.60</ele>
        <time>2019-12-27T13:27:32Z</time>
      </trkpt>
      <trkpt lat="37.5234281179" lon="-8.6711614765">
        <ele>74.16</ele>
        <time>2019-12-27T13:27:47Z</time>
      </trkpt>
      <trkpt lat="37.5234664232" lon="-8.6712641548">
        <ele>73.68</ele>
        <time>2019-12-27T13:27:54Z</time>
      </trkpt>
      <trkpt lat="37.5235193130" lon="-8.6714464612">
        <ele>73.20</ele>
        <time>2019-12-27T13:28:06Z</time>
      </trkpt>
      <trkpt lat="37.5235303771" lon="-8.6715654843">
        <ele>72.72</ele>
        <time>2019-12-27T13:28:15Z</time>
      </trkpt>
      <trkpt lat="37.5235055666" lon="-8.6717218906">
        <ele>72.72</ele>
        <time>2019-12-27T13:28:27Z</time>
      </trkpt>
      <trkpt lat="37.5234986097" lon="-8.6717824917">
        <ele>72.72</ele>
        <time>2019-12-27T13:28:31Z</time>
      </trkpt>
      <trkpt lat="37.5234878808" lon="-8.6718376447">
        <ele>72.24</ele>
        <time>2019-12-27T13:28:35Z</time>
      </trkpt>
      <trkpt lat="37.5234829355" lon="-8.6719146743">
        <ele>72.24</ele>
        <time>2019-12-27T13:28:40Z</time>
      </trkpt>
      <trkpt lat="37.5234732963" lon="-8.6719454359">
        <ele>72.24</ele>
        <time>2019-12-27T13:28:42Z</time>
      </trkpt>
      <trkpt lat="37.5234702788" lon="-8.6720303446">
        <ele>72.72</ele>
        <time>2019-12-27T13:28:47Z</time>
      </trkpt>
      <trkpt lat="37.5234826002" lon="-8.6722313426">
        <ele>73.20</ele>
        <time>2019-12-27T13:28:59Z</time>
      </trkpt>
      <trkpt lat="37.5235191453" lon="-8.6723439954">
        <ele>74.16</ele>
        <time>2019-12-27T13:29:06Z</time>
      </trkpt>
      <trkpt lat="37.5235698558" lon="-8.6723948736">
        <ele>75.12</ele>
        <time>2019-12-27T13:29:11Z</time>
      </trkpt>
      <trkpt lat="37.5236027129" lon="-8.6724658683">
        <ele>76.08</ele>
        <time>2019-12-27T13:29:16Z</time>
      </trkpt>
      <trkpt lat="37.5236183032" lon="-8.6725279782">
        <ele>76.08</ele>
        <time>2019-12-27T13:29:20Z</time>
      </trkpt>
      <trkpt lat="37.5236232486" lon="-8.6726303212">
        <ele>76.56</ele>
        <time>2019-12-27T13:29:26Z</time>
      </trkpt>
      <trkpt lat="37.5236466341" lon="-8.6727078538">
        <ele>76.56</ele>
        <time>2019-12-27T13:29:31Z</time>
      </trkpt>
      <trkpt lat="37.5236712769" lon="-8.6727823690">
        <ele>77.04</ele>
        <time>2019-12-27T13:29:36Z</time>
      </trkpt>
      <trkpt lat="37.5237799063" lon="-8.6728982907">
        <ele>78.48</ele>
        <time>2019-12-27T13:29:48Z</time>
      </trkpt>
      <trkpt lat="37.5238885358" lon="-8.6728606559">
        <ele>78.48</ele>
        <time>2019-12-27T13:29:57Z</time>
      </trkpt>
      <trkpt lat="37.5239717681" lon="-8.6727952771">
        <ele>78.48</ele>
        <time>2019-12-27T13:30:05Z</time>
      </trkpt>
      <trkpt lat="37.5240224786" lon="-8.6727458239">
        <ele>78.97</ele>
        <time>2019-12-27T13:30:13Z</time>
      </trkpt>
      <trkpt lat="37.5240510609" lon="-8.6727268808">
        <ele>78.97</ele>
        <time>2019-12-27T13:30:16Z</time>
      </trkpt>
      <trkpt lat="37.5242091436" lon="-8.6726163235">
        <ele>79.45</ele>
        <time>2019-12-27T13:30:30Z</time>
      </trkpt>
      <trkpt lat="37.5243518036" lon="-8.6725234520">
        <ele>79.93</ele>
        <time>2019-12-27T13:30:44Z</time>
      </trkpt>
      <trkpt lat="37.5244636182" lon="-8.6725159921">
        <ele>79.93</ele>
        <time>2019-12-27T13:30:53Z</time>
      </trkpt>
      <trkpt lat="37.5245785341" lon="-8.6725295708">
        <ele>79.45</ele>
        <time>2019-12-27T13:31:02Z</time>
      </trkpt>
      <trkpt lat="37.5247848965" lon="-8.6725420598">
        <ele>79.45</ele>
        <time>2019-12-27T13:31:18Z</time>
      </trkpt>
      <trkpt lat="37.5248981360" lon="-8.6725579016">
        <ele>78.97</ele>
        <time>2019-12-27T13:31:27Z</time>
      </trkpt>
      <trkpt lat="37.5249638502" lon="-8.6725738272">
        <ele>78.48</ele>
        <time>2019-12-27T13:31:32Z</time>
      </trkpt>
      <trkpt lat="37.5250292290" lon="-8.6725980509">
        <ele>78.48</ele>
        <time>2019-12-27T13:31:37Z</time>
      </trkpt>
      <trkpt lat="37.5251996331" lon="-8.6726200953">
        <ele>77.52</ele>
        <time>2019-12-27T13:31:50Z</time>
      </trkpt>
      <trkpt lat="37.5253914110" lon="-8.6726088636">
        <ele>75.12</ele>
        <time>2019-12-27T13:32:04Z</time>
      </trkpt>
      <trkpt lat="37.5255907327" lon="-8.6725766771">
        <ele>73.20</ele>
        <time>2019-12-27T13:32:19Z</time>
      </trkpt>
      <trkpt lat="37.5256778207" lon="-8.6725547165">
        <ele>72.72</ele>
        <time>2019-12-27T13:32:26Z</time>
      </trkpt>
      <trkpt lat="37.5258438662" lon="-8.6725377850">
        <ele>70.79</ele>
        <time>2019-12-27T13:32:39Z</time>
      </trkpt>
      <trkpt lat="37.5259953272" lon="-8.6725187581">
        <ele>69.35</ele>
        <time>2019-12-27T13:32:52Z</time>
      </trkpt>
      <trkpt lat="37.5260276813" lon="-8.6725123040">
        <ele>68.87</ele>
        <time>2019-12-27T13:32:59Z</time>
      </trkpt>
      <trkpt lat="37.5261414237" lon="-8.6725004856">
        <ele>67.43</ele>
        <time>2019-12-27T13:33:09Z</time>
      </trkpt>
      <trkpt lat="37.5262585189" lon="-8.6725540459">
        <ele>65.99</ele>
        <time>2019-12-27T13:33:24Z</time>
      </trkpt>
      <trkpt lat="37.5262903702" lon="-8.6725456640">
        <ele>65.99</ele>
        <time>2019-12-27T13:33:36Z</time>
      </trkpt>
      <trkpt lat="37.5262945611" lon="-8.6725385394">
        <ele>65.99</ele>
        <time>2019-12-27T13:33:48Z</time>
      </trkpt>
      <trkpt lat="37.5263065472" lon="-8.6725580692">
        <ele>65.51</ele>
        <time>2019-12-27T13:34:00Z</time>
      </trkpt>
      <trkpt lat="37.5263482053" lon="-8.6725625955">
        <ele>65.03</ele>
        <time>2019-12-27T13:34:07Z</time>
      </trkpt>
      <trkpt lat="37.5263730995" lon="-8.6725612544">
        <ele>65.51</ele>
        <time>2019-12-27T13:34:18Z</time>
      </trkpt>
      <trkpt lat="37.5263781287" lon="-8.6725615896">
        <ele>65.03</ele>
        <time>2019-12-27T13:34:29Z</time>
      </trkpt>
      <trkpt lat="37.5263591856" lon="-8.6726034153">
        <ele>64.55</ele>
        <time>2019-12-27T13:34:45Z</time>
      </trkpt>
      <trkpt lat="37.5263808947" lon="-8.6726628430">
        <ele>63.10</ele>
        <time>2019-12-27T13:34:51Z</time>
      </trkpt>
      <trkpt lat="37.5264254026" lon="-8.6728356779">
        <ele>61.18</ele>
        <time>2019-12-27T13:35:05Z</time>
      </trkpt>
      <trkpt lat="37.5264334492" lon="-8.6728485022">
        <ele>60.70</ele>
        <time>2019-12-27T13:35:06Z</time>
      </trkpt>
      <trkpt lat="37.5264478661" lon="-8.6728788447">
        <ele>60.70</ele>
        <time>2019-12-27T13:35:08Z</time>
      </trkpt>
      <trkpt lat="37.5266438350" lon="-8.6729718000">
        <ele>59.74</ele>
        <time>2019-12-27T13:35:26Z</time>
      </trkpt>
      <trkpt lat="37.5267420709" lon="-8.6729640886">
        <ele>59.74</ele>
        <time>2019-12-27T13:35:36Z</time>
      </trkpt>
      <trkpt lat="37.5267613493" lon="-8.6729571316">
        <ele>58.78</ele>
        <time>2019-12-27T13:35:38Z</time>
      </trkpt>
      <trkpt lat="37.5268159993" lon="-8.6729763262">
        <ele>58.30</ele>
        <time>2019-12-27T13:35:49Z</time>
      </trkpt>
      <trkpt lat="37.5268464256" lon="-8.6729837023">
        <ele>57.82</ele>
        <time>2019-12-27T13:36:01Z</time>
      </trkpt>
      <trkpt lat="37.5268970523" lon="-8.6730290484">
        <ele>57.82</ele>
        <time>2019-12-27T13:36:13Z</time>
      </trkpt>
      <trkpt lat="37.5269689690" lon="-8.6730711255">
        <ele>57.82</ele>
        <time>2019-12-27T13:36:30Z</time>
      </trkpt>
      <trkpt lat="37.5270193443" lon="-8.6731029768">
        <ele>58.30</ele>
        <time>2019-12-27T13:36:36Z</time>
      </trkpt>
      <trkpt lat="37.5270611700" lon="-8.6731149629">
        <ele>57.82</ele>
        <time>2019-12-27T13:36:40Z</time>
      </trkpt>
      <trkpt lat="37.5271233637" lon="-8.6731004622">
        <ele>58.30</ele>
        <time>2019-12-27T13:36:45Z</time>
      </trkpt>
      <trkpt lat="37.5271742418" lon="-8.6730607320">
        <ele>58.78</ele>
        <time>2019-12-27T13:36:50Z</time>
      </trkpt>
      <trkpt lat="37.5271904189" lon="-8.6729969457">
        <ele>58.30</ele>
        <time>2019-12-27T13:36:53Z</time>
      </trkpt>
      <trkpt lat="37.5271985494" lon="-8.6729298905">
        <ele>58.30</ele>
        <time>2019-12-27T13:37:09Z</time>
      </trkpt>
      <trkpt lat="37.5272105355" lon="-8.6729065888">
        <ele>58.30</ele>
        <time>2019-12-27T13:37:22Z</time>
      </trkpt>
      <trkpt lat="37.5272340048" lon="-8.6728021502">
        <ele>58.30</ele>
        <time>2019-12-27T13:37:34Z</time>
      </trkpt>
      <trkpt lat="37.5272317417" lon="-8.6727852188">
        <ele>57.82</ele>
        <time>2019-12-27T13:37:48Z</time>
      </trkpt>
      <trkpt lat="37.5272482540" lon="-8.6726675369">
        <ele>57.34</ele>
        <time>2019-12-27T13:37:56Z</time>
      </trkpt>
      <trkpt lat="37.5272554625" lon="-8.6725671217">
        <ele>56.37</ele>
        <time>2019-12-27T13:38:03Z</time>
      </trkpt>
      <trkpt lat="37.5272770878" lon="-8.6724905111">
        <ele>56.86</ele>
        <time>2019-12-27T13:38:09Z</time>
      </trkpt>
      <trkpt lat="37.5272998028" lon="-8.6723048519">
        <ele>56.37</ele>
        <time>2019-12-27T13:38:22Z</time>
      </trkpt>
      <trkpt lat="37.5273078494" lon="-8.6722272355">
        <ele>56.37</ele>
        <time>2019-12-27T13:38:27Z</time>
      </trkpt>
      <trkpt lat="37.5273200870" lon="-8.6721267365">
        <ele>56.86</ele>
        <time>2019-12-27T13:38:35Z</time>
      </trkpt>
      <trkpt lat="37.5273131300" lon="-8.6720678117">
        <ele>57.34</ele>
        <time>2019-12-27T13:38:39Z</time>
      </trkpt>
      <trkpt lat="37.5273087714" lon="-8.6720248964">
        <ele>57.82</ele>
        <time>2019-12-27T13:38:42Z</time>
      </trkpt>
      <trkpt lat="37.5273913331" lon="-8.6719098967">
        <ele>58.30</ele>
        <time>2019-12-27T13:38:52Z</time>
      </trkpt>
      <trkpt lat="37.5274070911" lon="-8.6718824878">
        <ele>58.30</ele>
        <time>2019-12-27T13:38:54Z</time>
      </trkpt>
      <trkpt lat="37.5274273753" lon="-8.6718121637">
        <ele>58.78</ele>
        <time>2019-12-27T13:38:59Z</time>
      </trkpt>
      <trkpt lat="37.5274546165" lon="-8.6715587787">
        <ele>57.82</ele>
        <time>2019-12-27T13:39:15Z</time>
      </trkpt>
      <trkpt lat="37.5274671055" lon="-8.6715149414">
        <ele>57.34</ele>
        <time>2019-12-27T13:39:18Z</time>
      </trkpt>
      <trkpt lat="37.5275019743" lon="-8.6714260094">
        <ele>56.86</ele>
        <time>2019-12-27T13:39:24Z</time>
      </trkpt>
      <trkpt lat="37.5274965260" lon="-8.6713938229">
        <ele>56.86</ele>
        <time>2019-12-27T13:39:26Z</time>
      </trkpt>
      <trkpt lat="37.5275110267" lon="-8.6712432839">
        <ele>57.34</ele>
        <time>2019-12-27T13:39:37Z</time>
      </trkpt>
      <trkpt lat="37.5275950972" lon="-8.6710942537">
        <ele>57.82</ele>
        <time>2019-12-27T13:39:51Z</time>
      </trkpt>
      <trkpt lat="37.5276107714" lon="-8.6710634921">
        <ele>57.34</ele>
        <time>2019-12-27T13:39:54Z</time>
      </trkpt>
      <trkpt lat="37.5276742224" lon="-8.6709728837">
        <ele>57.34</ele>
        <time>2019-12-27T13:40:02Z</time>
      </trkpt>
      <trkpt lat="37.5276984461" lon="-8.6709402781">
        <ele>57.34</ele>
        <time>2019-12-27T13:40:05Z</time>
      </trkpt>
      <trkpt lat="37.5277425349" lon="-8.6708130408">
        <ele>56.86</ele>
        <time>2019-12-27T13:40:15Z</time>
      </trkpt>
      <trkpt lat="37.5277573708" lon="-8.6707935110">
        <ele>57.34</ele>
        <time>2019-12-27T13:40:17Z</time>
      </trkpt>
      <trkpt lat="37.5277908985" lon="-8.6706606578">
        <ele>57.34</ele>
        <time>2019-12-27T13:40:27Z</time>
      </trkpt>
      <trkpt lat="37.5278004538" lon="-8.6706329975">
        <ele>57.34</ele>
        <time>2019-12-27T13:40:29Z</time>
      </trkpt>
      <trkpt lat="37.5278172176" lon="-8.6706080195">
        <ele>57.82</ele>
        <time>2019-12-27T13:40:31Z</time>
      </trkpt>
      <trkpt lat="37.5278306287" lon="-8.6705836281">
        <ele>57.34</ele>
        <time>2019-12-27T13:40:33Z</time>
      </trkpt>
      <trkpt lat="37.5278996956" lon="-8.6704066023">
        <ele>57.82</ele>
        <time>2019-12-27T13:40:46Z</time>
      </trkpt>
      <trkpt lat="37.5279168785" lon="-8.6703445762">
        <ele>57.34</ele>
        <time>2019-12-27T13:40:50Z</time>
      </trkpt>
      <trkpt lat="37.5279289484" lon="-8.6703200173">
        <ele>57.34</ele>
        <time>2019-12-27T13:40:52Z</time>
      </trkpt>
      <trkpt lat="37.5279494841" lon="-8.6702952906">
        <ele>57.82</ele>
        <time>2019-12-27T13:40:54Z</time>
      </trkpt>
      <trkpt lat="37.5279893819" lon="-8.6701822188">
        <ele>57.34</ele>
        <time>2019-12-27T13:41:02Z</time>
      </trkpt>
      <trkpt lat="37.5280928984" lon="-8.6699792091">
        <ele>57.34</ele>
        <time>2019-12-27T13:41:18Z</time>
      </trkpt>
      <trkpt lat="37.5281820819" lon="-8.6697958130">
        <ele>57.34</ele>
        <time>2019-12-27T13:41:32Z</time>
      </trkpt>
      <trkpt lat="37.5282122567" lon="-8.6697529815">
        <ele>57.34</ele>
        <time>2019-12-27T13:41:36Z</time>
      </trkpt>
      <trkpt lat="37.5283216406" lon="-8.6696544103">
        <ele>56.86</ele>
        <time>2019-12-27T13:41:47Z</time>
      </trkpt>
      <trkpt lat="37.5284869317" lon="-8.6695291847">
        <ele>57.34</ele>
        <time>2019-12-27T13:42:02Z</time>
      </trkpt>
      <trkpt lat="37.5285517238" lon="-8.6694760434">
        <ele>57.82</ele>
        <time>2019-12-27T13:42:08Z</time>
      </trkpt>
      <trkpt lat="37.5286796317" lon="-8.6693520751">
        <ele>57.82</ele>
        <time>2019-12-27T13:42:21Z</time>
      </trkpt>
      <trkpt lat="37.5287853274" lon="-8.6692500673">
        <ele>56.86</ele>
        <time>2019-12-27T13:42:32Z</time>
      </trkpt>
      <trkpt lat="37.5288453419" lon="-8.6691947468">
        <ele>56.86</ele>
        <time>2019-12-27T13:42:38Z</time>
      </trkpt>
      <trkpt lat="37.5289950427" lon="-8.6690569483">
        <ele>56.86</ele>
        <time>2019-12-27T13:42:53Z</time>
      </trkpt>
      <trkpt lat="37.5290268101" lon="-8.6690266058">
        <ele>56.86</ele>
        <time>2019-12-27T13:43:00Z</time>
      </trkpt>
      <trkpt lat="37.5290571526" lon="-8.6690037232">
        <ele>56.37</ele>
        <time>2019-12-27T13:43:03Z</time>
      </trkpt>
      <trkpt lat="37.5290920213" lon="-8.6689293757">
        <ele>56.86</ele>
        <time>2019-12-27T13:43:08Z</time>
      </trkpt>
      <trkpt lat="37.5291424803" lon="-8.6688892264">
        <ele>56.86</ele>
        <time>2019-12-27T13:43:12Z</time>
      </trkpt>
      <trkpt lat="37.5292218570" lon="-8.6688039824">
        <ele>56.86</ele>
        <time>2019-12-27T13:43:20Z</time>
      </trkpt>
      <trkpt lat="37.5292587373" lon="-8.6687438004">
        <ele>56.86</ele>
        <time>2019-12-27T13:43:25Z</time>
      </trkpt>
      <trkpt lat="37.5292770099" lon="-8.6687191576">
        <ele>57.34</ele>
        <time>2019-12-27T13:43:27Z</time>
      </trkpt>
      <trkpt lat="37.5294222683" lon="-8.6685682833">
        <ele>56.37</ele>
        <time>2019-12-27T13:43:42Z</time>
      </trkpt>
      <trkpt lat="37.5294464082" lon="-8.6685237754">
        <ele>56.37</ele>
        <time>2019-12-27T13:43:46Z</time>
      </trkpt>
      <trkpt lat="37.5294833723" lon="-8.6684543733">
        <ele>56.37</ele>
        <time>2019-12-27T13:43:51Z</time>
      </trkpt>
      <trkpt lat="37.5295155589" lon="-8.6683674529">
        <ele>56.86</ele>
        <time>2019-12-27T13:44:03Z</time>
      </trkpt>
      <trkpt lat="37.5295764115" lon="-8.6681603361">
        <ele>54.45</ele>
        <time>2019-12-27T13:44:18Z</time>
      </trkpt>
      <trkpt lat="37.5295803510" lon="-8.6680509523">
        <ele>53.97</ele>
        <time>2019-12-27T13:44:27Z</time>
      </trkpt>
      <trkpt lat="37.5295903254" lon="-8.6680258065">
        <ele>54.45</ele>
        <time>2019-12-27T13:44:29Z</time>
      </trkpt>
      <trkpt lat="37.5296146329" lon="-8.6679965537">
        <ele>53.97</ele>
        <time>2019-12-27T13:44:32Z</time>
      </trkpt>
      <trkpt lat="37.5296392757" lon="-8.6679430772">
        <ele>54.45</ele>
        <time>2019-12-27T13:44:37Z</time>
      </trkpt>
      <trkpt lat="37.5296850409" lon="-8.6678792071">
        <ele>54.93</ele>
        <time>2019-12-27T13:44:43Z</time>
      </trkpt>
      <trkpt lat="37.5297432952" lon="-8.6678154208">
        <ele>54.93</ele>
        <time>2019-12-27T13:44:49Z</time>
      </trkpt>
      <trkpt lat="37.5297737215" lon="-8.6677875929">
        <ele>55.41</ele>
        <time>2019-12-27T13:44:52Z</time>
      </trkpt>
      <trkpt lat="37.5298498292" lon="-8.6676982418">
        <ele>55.41</ele>
        <time>2019-12-27T13:45:00Z</time>
      </trkpt>
      <trkpt lat="37.5299666729" lon="-8.6676016822">
        <ele>56.37</ele>
        <time>2019-12-27T13:45:11Z</time>
      </trkpt>
      <trkpt lat="37.5300240889" lon="-8.6675520614">
        <ele>57.34</ele>
        <time>2019-12-27T13:45:17Z</time>
      </trkpt>
      <trkpt lat="37.5301017892" lon="-8.6674900353">
        <ele>58.30</ele>
        <time>2019-12-27T13:45:24Z</time>
      </trkpt>
      <trkpt lat="37.5301690958" lon="-8.6674160231">
        <ele>59.74</ele>
        <time>2019-12-27T13:45:31Z</time>
      </trkpt>
      <trkpt lat="37.5302136876" lon="-8.6673755385">
        <ele>60.22</ele>
        <time>2019-12-27T13:45:36Z</time>
      </trkpt>
      <trkpt lat="37.5303222332" lon="-8.6673281807">
        <ele>61.66</ele>
        <time>2019-12-27T13:45:46Z</time>
      </trkpt>
      <trkpt lat="37.5304617081" lon="-8.6672612932">
        <ele>61.66</ele>
        <time>2019-12-27T13:45:58Z</time>
      </trkpt>
      <trkpt lat="37.5305318646" lon="-8.6671721097">
        <ele>61.18</ele>
        <time>2019-12-27T13:46:06Z</time>
      </trkpt>
      <trkpt lat="37.5305851735" lon="-8.6670661625">
        <ele>61.66</ele>
        <time>2019-12-27T13:46:14Z</time>
      </trkpt>
      <trkpt lat="37.5306811463" lon="-8.6669369135">
        <ele>61.66</ele>
        <time>2019-12-27T13:46:25Z</time>
      </trkpt>
      <trkpt lat="37.5307653844" lon="-8.6667605583">
        <ele>59.74</ele>
        <time>2019-12-27T13:46:40Z</time>
      </trkpt>
      <trkpt lat="37.5307839923" lon="-8.6665496696">
        <ele>58.78</ele>
        <time>2019-12-27T13:46:53Z</time>
      </trkpt>
      <trkpt lat="37.5307630375" lon="-8.6663537007">
        <ele>59.26</ele>
        <time>2019-12-27T13:47:06Z</time>
      </trkpt>
      <trkpt lat="37.5307679828" lon="-8.6662708875">
        <ele>59.26</ele>
        <time>2019-12-27T13:47:11Z</time>
      </trkpt>
      <trkpt lat="37.5307518058" lon="-8.6661306582">
        <ele>58.78</ele>
        <time>2019-12-27T13:47:20Z</time>
      </trkpt>
      <trkpt lat="37.5307515543" lon="-8.6660369486">
        <ele>58.30</ele>
        <time>2019-12-27T13:47:26Z</time>
      </trkpt>
      <trkpt lat="37.5307760295" lon="-8.6658879183">
        <ele>56.86</ele>
        <time>2019-12-27T13:47:35Z</time>
      </trkpt>
      <trkpt lat="37.5307903625" lon="-8.6657289974">
        <ele>54.93</ele>
        <time>2019-12-27T13:47:46Z</time>
      </trkpt>
      <trkpt lat="37.5307950564" lon="-8.6656816397">
        <ele>53.97</ele>
        <time>2019-12-27T13:47:49Z</time>
      </trkpt>
      <trkpt lat="37.5308305118" lon="-8.6654452700">
        <ele>53.49</ele>
        <time>2019-12-27T13:48:03Z</time>
      </trkpt>
      <trkpt lat="37.5308581721" lon="-8.6652623769">
        <ele>53.01</ele>
        <time>2019-12-27T13:48:15Z</time>
      </trkpt>
      <trkpt lat="37.5308966450" lon="-8.6650308687">
        <ele>52.53</ele>
        <time>2019-12-27T13:48:30Z</time>
      </trkpt>
      <trkpt lat="37.5309711602" lon="-8.6648447905">
        <ele>51.57</ele>
        <time>2019-12-27T13:48:43Z</time>
      </trkpt>
      <trkpt lat="37.5310673844" lon="-8.6646922398">
        <ele>51.57</ele>
        <time>2019-12-27T13:48:56Z</time>
      </trkpt>
      <trkpt lat="37.5312021654" lon="-8.6645375937">
        <ele>51.57</ele>
        <time>2019-12-27T13:49:11Z</time>
      </trkpt>
      <trkpt lat="37.5312956236" lon="-8.6644452251">
        <ele>51.09</ele>
        <time>2019-12-27T13:49:21Z</time>
      </trkpt>
      <trkpt lat="37.5314530358" lon="-8.6642957758">
        <ele>51.57</ele>
        <time>2019-12-27T13:49:37Z</time>
      </trkpt>
      <trkpt lat="37.5314652734" lon="-8.6642744858">
        <ele>51.57</ele>
        <time>2019-12-27T13:49:39Z</time>
      </trkpt>
      <trkpt lat="37.5315606594" lon="-8.6641262937">
        <ele>51.09</ele>
        <time>2019-12-27T13:49:51Z</time>
      </trkpt>
      <trkpt lat="37.5316205062" lon="-8.6639297381">
        <ele>49.65</ele>
        <time>2019-12-27T13:50:05Z</time>
      </trkpt>
      <trkpt lat="37.5316551235" lon="-8.6638356932">
        <ele>49.65</ele>
        <time>2019-12-27T13:50:13Z</time>
      </trkpt>
      <trkpt lat="37.5317117851" lon="-8.6637258902">
        <ele>49.65</ele>
        <time>2019-12-27T13:50:23Z</time>
      </trkpt>
      <trkpt lat="37.5317236036" lon="-8.6636555661">
        <ele>49.65</ele>
        <time>2019-12-27T13:50:29Z</time>
      </trkpt>
      <trkpt lat="37.5316705462" lon="-8.6635452602">
        <ele>49.16</ele>
        <time>2019-12-27T13:50:44Z</time>
      </trkpt>
      <trkpt lat="37.5316761620" lon="-8.6635471042">
        <ele>48.68</ele>
        <time>2019-12-27T13:50:58Z</time>
      </trkpt>
      <trkpt lat="37.5316558778" lon="-8.6635327712">
        <ele>48.68</ele>
        <time>2019-12-27T13:51:07Z</time>
      </trkpt>
      <trkpt lat="37.5315718912" lon="-8.6634108983">
        <ele>49.65</ele>
        <time>2019-12-27T13:51:19Z</time>
      </trkpt>
      <trkpt lat="37.5315620843" lon="-8.6633836571">
        <ele>49.65</ele>
        <time>2019-12-27T13:51:22Z</time>
      </trkpt>
      <trkpt lat="37.5315620843" lon="-8.6631705891">
        <ele>49.65</ele>
        <time>2019-12-27T13:51:36Z</time>
      </trkpt>
      <trkpt lat="37.5315509364" lon="-8.6631052941">
        <ele>50.13</ele>
        <time>2019-12-27T13:51:40Z</time>
      </trkpt>
      <trkpt lat="37.5315651018" lon="-8.6628949922">
        <ele>50.13</ele>
        <time>2019-12-27T13:51:54Z</time>
      </trkpt>
      <trkpt lat="37.5315774232" lon="-8.6626792420">
        <ele>50.13</ele>
        <time>2019-12-27T13:52:08Z</time>
      </trkpt>
      <trkpt lat="37.5315790996" lon="-8.6625557765">
        <ele>50.13</ele>
        <time>2019-12-27T13:52:15Z</time>
      </trkpt>
      <trkpt lat="37.5315758307" lon="-8.6623407807">
        <ele>50.13</ele>
        <time>2019-12-27T13:52:29Z</time>
      </trkpt>
      <trkpt lat="37.5316048320" lon="-8.6621195823">
        <ele>50.61</ele>
        <time>2019-12-27T13:52:43Z</time>
      </trkpt>
      <trkpt lat="37.5316117890" lon="-8.6618803628">
        <ele>51.09</ele>
        <time>2019-12-27T13:52:58Z</time>
      </trkpt>
      <trkpt lat="37.5316044129" lon="-8.6618043389">
        <ele>50.61</ele>
        <time>2019-12-27T13:53:03Z</time>
      </trkpt>
      <trkpt lat="37.5316462386" lon="-8.6616190989">
        <ele>50.61</ele>
        <time>2019-12-27T13:53:15Z</time>
      </trkpt>
      <trkpt lat="37.5316995475" lon="-8.6614843179">
        <ele>50.61</ele>
        <time>2019-12-27T13:53:24Z</time>
      </trkpt>
      <trkpt lat="37.5317472406" lon="-8.6613777839">
        <ele>51.09</ele>
        <time>2019-12-27T13:53:32Z</time>
      </trkpt>
      <trkpt lat="37.5317888148" lon="-8.6612717528">
        <ele>50.61</ele>
        <time>2019-12-27T13:53:39Z</time>
      </trkpt>
      <trkpt lat="37.5318259466" lon="-8.6611626204">
        <ele>50.61</ele>
        <time>2019-12-27T13:53:46Z</time>
      </trkpt>
      <trkpt lat="37.5318687782" lon="-8.6610633787">
        <ele>50.13</ele>
        <time>2019-12-27T13:53:53Z</time>
      </trkpt>
      <trkpt lat="37.5319020543" lon="-8.6609977484">
        <ele>50.13</ele>
        <time>2019-12-27T13:53:58Z</time>
      </trkpt>
      <trkpt lat="37.5319554470" lon="-8.6609000154">
        <ele>49.65</ele>
        <time>2019-12-27T13:54:06Z</time>
      </trkpt>
      <trkpt lat="37.5319861248" lon="-8.6608534120">
        <ele>49.16</ele>
        <time>2019-12-27T13:54:09Z</time>
      </trkpt>
      <trkpt lat="37.5320393499" lon="-8.6607446149">
        <ele>49.16</ele>
        <time>2019-12-27T13:54:16Z</time>
      </trkpt>
      <trkpt lat="37.5320699438" lon="-8.6607163679">
        <ele>48.20</ele>
        <time>2019-12-27T13:54:19Z</time>
      </trkpt>
      <trkpt lat="37.5320971850" lon="-8.6606763862">
        <ele>48.20</ele>
        <time>2019-12-27T13:54:22Z</time>
      </trkpt>
      <trkpt lat="37.5321509130" lon="-8.6605821736">
        <ele>48.20</ele>
        <time>2019-12-27T13:54:29Z</time>
      </trkpt>
      <trkpt lat="37.5321654137" lon="-8.6605264340">
        <ele>48.20</ele>
        <time>2019-12-27T13:54:33Z</time>
      </trkpt>
      <trkpt lat="37.5322262663" lon="-8.6604362447">
        <ele>47.72</ele>
        <time>2019-12-27T13:54:40Z</time>
      </trkpt>
      <trkpt lat="37.5322792400" lon="-8.6603567842">
        <ele>48.20</ele>
        <time>2019-12-27T13:54:47Z</time>
      </trkpt>
      <trkpt lat="37.5323572755" lon="-8.6602281220">
        <ele>48.20</ele>
        <time>2019-12-27T13:54:59Z</time>
      </trkpt>
      <trkpt lat="37.5323697645" lon="-8.6602064129">
        <ele>48.20</ele>
        <time>2019-12-27T13:55:01Z</time>
      </trkpt>
      <trkpt lat="37.5324704312" lon="-8.6600598134">
        <ele>47.72</ele>
        <time>2019-12-27T13:55:16Z</time>
      </trkpt>
      <trkpt lat="37.5324853510" lon="-8.6600412056">
        <ele>47.72</ele>
        <time>2019-12-27T13:55:18Z</time>
      </trkpt>
      <trkpt lat="37.5324980915" lon="-8.6599547043">
        <ele>48.20</ele>
        <time>2019-12-27T13:55:28Z</time>
      </trkpt>
      <trkpt lat="37.5325135980" lon="-8.6599248648">
        <ele>47.72</ele>
        <time>2019-12-27T13:55:30Z</time>
      </trkpt>
      <trkpt lat="37.5327077229" lon="-8.6597695481">
        <ele>48.20</ele>
        <time>2019-12-27T13:55:43Z</time>
      </trkpt>
      <trkpt lat="37.5327762868" lon="-8.6596703064">
        <ele>47.72</ele>
        <time>2019-12-27T13:55:57Z</time>
      </trkpt>
      <trkpt lat="37.5329124928" lon="-8.6595534626">
        <ele>47.72</ele>
        <time>2019-12-27T13:56:10Z</time>
      </trkpt>
      <trkpt lat="37.5329425000" lon="-8.6595173366">
        <ele>47.24</ele>
        <time>2019-12-27T13:56:14Z</time>
      </trkpt>
      <trkpt lat="37.5329826493" lon="-8.6594829708">
        <ele>47.24</ele>
        <time>2019-12-27T13:56:17Z</time>
      </trkpt>
      <trkpt lat="37.5330510456" lon="-8.6594077013">
        <ele>47.24</ele>
        <time>2019-12-27T13:56:30Z</time>
      </trkpt>
      <trkpt lat="37.5330640376" lon="-8.6593263969">
        <ele>46.76</ele>
        <time>2019-12-27T13:56:41Z</time>
      </trkpt>
      <trkpt lat="37.5331017561" lon="-8.6593061127">
        <ele>46.76</ele>
        <time>2019-12-27T13:56:45Z</time>
      </trkpt>
      <trkpt lat="37.5331651233" lon="-8.6592782009">
        <ele>47.24</ele>
        <time>2019-12-27T13:56:47Z</time>
      </trkpt>
      <trkpt lat="37.5333330967" lon="-8.6591398995">
        <ele>46.76</ele>
        <time>2019-12-27T13:56:59Z</time>
      </trkpt>
      <trkpt lat="37.5333422329" lon="-8.6591102276">
        <ele>46.76</ele>
        <time>2019-12-27T13:57:01Z</time>
      </trkpt>
      <trkpt lat="37.5333727431" lon="-8.6589923780">
        <ele>47.24</ele>
        <time>2019-12-27T13:57:09Z</time>
      </trkpt>
      <trkpt lat="37.5333731622" lon="-8.6589414999">
        <ele>47.72</ele>
        <time>2019-12-27T13:57:12Z</time>
      </trkpt>
      <trkpt lat="37.5333733298" lon="-8.6589099001">
        <ele>47.72</ele>
        <time>2019-12-27T13:57:14Z</time>
      </trkpt>
      <trkpt lat="37.5333742518" lon="-8.6588819884">
        <ele>48.20</ele>
        <time>2019-12-27T13:57:16Z</time>
      </trkpt>
      <trkpt lat="37.5333870761" lon="-8.6587178707">
        <ele>48.20</ele>
        <time>2019-12-27T13:57:26Z</time>
      </trkpt>
      <trkpt lat="37.5333642773" lon="-8.6586115882">
        <ele>48.20</ele>
        <time>2019-12-27T13:57:33Z</time>
      </trkpt>
      <trkpt lat="37.5333575718" lon="-8.6585798208">
        <ele>48.20</ele>
        <time>2019-12-27T13:57:35Z</time>
      </trkpt>
      <trkpt lat="37.5333350245" lon="-8.6585243326">
        <ele>47.72</ele>
        <time>2019-12-27T13:57:39Z</time>
      </trkpt>
      <trkpt lat="37.5332979765" lon="-8.6584016215">
        <ele>47.72</ele>
        <time>2019-12-27T13:57:47Z</time>
      </trkpt>
      <trkpt lat="37.5332775246" lon="-8.6583239213">
        <ele>47.72</ele>
        <time>2019-12-27T13:57:52Z</time>
      </trkpt>
      <trkpt lat="37.5332766864" lon="-8.6582931597">
        <ele>48.20</ele>
        <time>2019-12-27T13:57:54Z</time>
      </trkpt>
      <trkpt lat="37.5332637783" lon="-8.6582187284">
        <ele>47.72</ele>
        <time>2019-12-27T13:57:59Z</time>
      </trkpt>
      <trkpt lat="37.5332693104" lon="-8.6581572890">
        <ele>47.72</ele>
        <time>2019-12-27T13:58:03Z</time>
      </trkpt>
      <trkpt lat="37.5332434941" lon="-8.6580220051">
        <ele>48.20</ele>
        <time>2019-12-27T13:58:12Z</time>
      </trkpt>
      <trkpt lat="37.5331616029" lon="-8.6577891558">
        <ele>47.72</ele>
        <time>2019-12-27T13:58:28Z</time>
      </trkpt>
      <trkpt lat="37.5331480242" lon="-8.6577376071">
        <ele>47.24</ele>
        <time>2019-12-27T13:58:31Z</time>
      </trkpt>
      <trkpt lat="37.5330398977" lon="-8.6575743277">
        <ele>47.24</ele>
        <time>2019-12-27T13:58:45Z</time>
      </trkpt>
      <trkpt lat="37.5329104811" lon="-8.6574144848">
        <ele>47.24</ele>
        <time>2019-12-27T13:59:01Z</time>
      </trkpt>
      <trkpt lat="37.5328912027" lon="-8.6573823821">
        <ele>47.24</ele>
        <time>2019-12-27T13:59:09Z</time>
      </trkpt>
      <trkpt lat="37.5328720920" lon="-8.6573346891">
        <ele>47.24</ele>
        <time>2019-12-27T13:59:18Z</time>
      </trkpt>
      <trkpt lat="37.5327771250" lon="-8.6571610160">
        <ele>46.76</ele>
        <time>2019-12-27T13:59:31Z</time>
      </trkpt>
      <trkpt lat="37.5327051245" lon="-8.6569687352">
        <ele>46.76</ele>
        <time>2019-12-27T13:59:44Z</time>
      </trkpt>
      <trkpt lat="37.5327042863" lon="-8.6569389794">
        <ele>47.24</ele>
        <time>2019-12-27T13:59:46Z</time>
      </trkpt>
      <trkpt lat="37.5327207148" lon="-8.6568854190">
        <ele>46.76</ele>
        <time>2019-12-27T13:59:50Z</time>
      </trkpt>
      <trkpt lat="37.5327623729" lon="-8.6568534840">
        <ele>46.28</ele>
        <time>2019-12-27T13:59:55Z</time>
      </trkpt>
      <trkpt lat="37.5328411628" lon="-8.6568392348">
        <ele>46.28</ele>
        <time>2019-12-27T14:00:03Z</time>
      </trkpt>
      <trkpt lat="37.5329391472" lon="-8.6568378936">
        <ele>46.28</ele>
        <time>2019-12-27T14:00:13Z</time>
      </trkpt>
      <trkpt lat="37.5329613592" lon="-8.6568333674">
        <ele>46.76</ele>
        <time>2019-12-27T14:00:15Z</time>
      </trkpt>
      <trkpt lat="37.5331169274" lon="-8.6567586847">
        <ele>46.76</ele>
        <time>2019-12-27T14:00:28Z</time>
      </trkpt>
      <trkpt lat="37.5331522990" lon="-8.6567357183">
        <ele>46.76</ele>
        <time>2019-12-27T14:00:31Z</time>
      </trkpt>
      <trkpt lat="37.5331778638" lon="-8.6566809006">
        <ele>46.76</ele>
        <time>2019-12-27T14:00:35Z</time>
      </trkpt>
      <trkpt lat="37.5331762712" lon="-8.6564562656">
        <ele>48.20</ele>
        <time>2019-12-27T14:00:50Z</time>
      </trkpt>
      <trkpt lat="37.5331675541" lon="-8.6562506575">
        <ele>47.72</ele>
        <time>2019-12-27T14:01:03Z</time>
      </trkpt>
      <trkpt lat="37.5331626087" lon="-8.6561905593">
        <ele>47.72</ele>
        <time>2019-12-27T14:01:07Z</time>
      </trkpt>
      <trkpt lat="37.5331517123" lon="-8.6561348196">
        <ele>47.72</ele>
        <time>2019-12-27T14:01:11Z</time>
      </trkpt>
      <trkpt lat="37.5331586692" lon="-8.6560631543">
        <ele>47.24</ele>
        <time>2019-12-27T14:01:15Z</time>
      </trkpt>
      <trkpt lat="37.5331647880" lon="-8.6558890622">
        <ele>47.72</ele>
        <time>2019-12-27T14:01:26Z</time>
      </trkpt>
      <trkpt lat="37.5331802946" lon="-8.6558429617">
        <ele>47.72</ele>
        <time>2019-12-27T14:01:29Z</time>
      </trkpt>
      <trkpt lat="37.5331811327" lon="-8.6557872221">
        <ele>47.72</ele>
        <time>2019-12-27T14:01:33Z</time>
      </trkpt>
      <trkpt lat="37.5331981480" lon="-8.6557061691">
        <ele>47.72</ele>
        <time>2019-12-27T14:01:38Z</time>
      </trkpt>
      <trkpt lat="37.5331928674" lon="-8.6556616612">
        <ele>48.20</ele>
        <time>2019-12-27T14:01:41Z</time>
      </trkpt>
      <trkpt lat="37.5332160853" lon="-8.6555108707">
        <ele>48.20</ele>
        <time>2019-12-27T14:01:51Z</time>
      </trkpt>
      <trkpt lat="37.5332828052" lon="-8.6552537978">
        <ele>47.24</ele>
        <time>2019-12-27T14:02:08Z</time>
      </trkpt>
      <trkpt lat="37.5333137345" lon="-8.6551719904">
        <ele>47.24</ele>
        <time>2019-12-27T14:02:21Z</time>
      </trkpt>
      <trkpt lat="37.5333243795" lon="-8.6551414803">
        <ele>47.24</ele>
        <time>2019-12-27T14:02:24Z</time>
      </trkpt>
      <trkpt lat="37.5333356950" lon="-8.6551092099">
        <ele>47.24</ele>
        <time>2019-12-27T14:02:27Z</time>
      </trkpt>
      <trkpt lat="37.5334009062" lon="-8.6549933720">
        <ele>47.24</ele>
        <time>2019-12-27T14:02:37Z</time>
      </trkpt>
      <trkpt lat="37.5334242079" lon="-8.6549401470">
        <ele>47.72</ele>
        <time>2019-12-27T14:02:41Z</time>
      </trkpt>
      <trkpt lat="37.5334586576" lon="-8.6548657995">
        <ele>48.20</ele>
        <time>2019-12-27T14:02:47Z</time>
      </trkpt>
      <trkpt lat="37.5334708113" lon="-8.6548412405">
        <ele>48.20</ele>
        <time>2019-12-27T14:02:49Z</time>
      </trkpt>
      <trkpt lat="37.5334885810" lon="-8.6548189446">
        <ele>48.68</ele>
        <time>2019-12-27T14:02:51Z</time>
      </trkpt>
      <trkpt lat="37.5335213542" lon="-8.6547579244">
        <ele>49.16</ele>
        <time>2019-12-27T14:02:56Z</time>
      </trkpt>
      <trkpt lat="37.5335767586" lon="-8.6546352133">
        <ele>50.61</ele>
        <time>2019-12-27T14:03:06Z</time>
      </trkpt>
      <trkpt lat="37.5336039159" lon="-8.6545793898">
        <ele>51.09</ele>
        <time>2019-12-27T14:03:11Z</time>
      </trkpt>
      <trkpt lat="37.5336216018" lon="-8.6545468681">
        <ele>51.57</ele>
        <time>2019-12-27T14:03:14Z</time>
      </trkpt>
      <trkpt lat="37.5336350128" lon="-8.6545290146">
        <ele>52.05</ele>
        <time>2019-12-27T14:03:16Z</time>
      </trkpt>
      <trkpt lat="37.5336433109" lon="-8.6545047909">
        <ele>51.57</ele>
        <time>2019-12-27T14:03:18Z</time>
      </trkpt>
      <trkpt lat="37.5336786825" lon="-8.6544239894">
        <ele>52.53</ele>
        <time>2019-12-27T14:03:24Z</time>
      </trkpt>
      <trkpt lat="37.5336881541" lon="-8.6543988436">
        <ele>53.01</ele>
        <time>2019-12-27T14:03:34Z</time>
      </trkpt>
      <trkpt lat="37.5337091088" lon="-8.6543698423">
        <ele>53.01</ele>
        <time>2019-12-27T14:03:37Z</time>
      </trkpt>
      <trkpt lat="37.5337897427" lon="-8.6542072333">
        <ele>53.49</ele>
        <time>2019-12-27T14:03:50Z</time>
      </trkpt>
      <trkpt lat="37.5338903256" lon="-8.6540224124">
        <ele>52.53</ele>
        <time>2019-12-27T14:04:05Z</time>
      </trkpt>
      <trkpt lat="37.5338951871" lon="-8.6540078279">
        <ele>52.53</ele>
        <time>2019-12-27T14:04:06Z</time>
      </trkpt>
      <trkpt lat="37.5339099392" lon="-8.6539835203">
        <ele>52.05</ele>
        <time>2019-12-27T14:04:23Z</time>
      </trkpt>
      <trkpt lat="37.5339099392" lon="-8.6539835203">
        <ele>53.01</ele>
        <time>2019-12-27T14:04:48Z</time>
      </trkpt>
      <trkpt lat="37.5339461491" lon="-8.6539131962">
        <ele>52.53</ele>
        <time>2019-12-27T14:04:54Z</time>
      </trkpt>
      <trkpt lat="37.5339846220" lon="-8.6538492423">
        <ele>52.05</ele>
        <time>2019-12-27T14:04:59Z</time>
      </trkpt>
      <trkpt lat="37.5341021363" lon="-8.6536762398">
        <ele>50.61</ele>
        <time>2019-12-27T14:05:14Z</time>
      </trkpt>
      <trkpt lat="37.5341942534" lon="-8.6535382736">
        <ele>49.16</ele>
        <time>2019-12-27T14:05:27Z</time>
      </trkpt>
      <trkpt lat="37.5342343189" lon="-8.6534623336">
        <ele>47.72</ele>
        <time>2019-12-27T14:05:33Z</time>
      </trkpt>
      <trkpt lat="37.5342932437" lon="-8.6533920933">
        <ele>47.72</ele>
        <time>2019-12-27T14:05:38Z</time>
      </trkpt>
      <trkpt lat="37.5343643222" lon="-8.6533350125">
        <ele>46.76</ele>
        <time>2019-12-27T14:05:46Z</time>
      </trkpt>
      <trkpt lat="37.5343948323" lon="-8.6532780994">
        <ele>46.76</ele>
        <time>2019-12-27T14:05:50Z</time>
      </trkpt>
      <trkpt lat="37.5344029628" lon="-8.6532454100">
        <ele>46.76</ele>
        <time>2019-12-27T14:05:52Z</time>
      </trkpt>
      <trkpt lat="37.5344853569" lon="-8.6530858185">
        <ele>47.72</ele>
        <time>2019-12-27T14:06:03Z</time>
      </trkpt>
      <trkpt lat="37.5344920624" lon="-8.6530736648">
        <ele>47.72</ele>
        <time>2019-12-27T14:06:04Z</time>
      </trkpt>
      <trkpt lat="37.5346068945" lon="-8.6528653745">
        <ele>47.72</ele>
        <time>2019-12-27T14:06:20Z</time>
      </trkpt>
      <trkpt lat="37.5347358081" lon="-8.6526591796">
        <ele>48.20</ele>
        <time>2019-12-27T14:06:35Z</time>
      </trkpt>
      <trkpt lat="37.5348223932" lon="-8.6525135860">
        <ele>48.20</ele>
        <time>2019-12-27T14:06:47Z</time>
      </trkpt>
      <trkpt lat="37.5348993391" lon="-8.6523787212">
        <ele>47.24</ele>
        <time>2019-12-27T14:07:00Z</time>
      </trkpt>
      <trkpt lat="37.5349588506" lon="-8.6523157731">
        <ele>46.76</ele>
        <time>2019-12-27T14:07:05Z</time>
      </trkpt>
      <trkpt lat="37.5350129139" lon="-8.6522597820">
        <ele>46.28</ele>
        <time>2019-12-27T14:07:10Z</time>
      </trkpt>
      <trkpt lat="37.5350331143" lon="-8.6522337981">
        <ele>46.28</ele>
        <time>2019-12-27T14:07:12Z</time>
      </trkpt>
      <trkpt lat="37.5350834895" lon="-8.6521453690">
        <ele>46.28</ele>
        <time>2019-12-27T14:07:18Z</time>
      </trkpt>
      <trkpt lat="37.5352302566" lon="-8.6519870348">
        <ele>45.80</ele>
        <time>2019-12-27T14:07:33Z</time>
      </trkpt>
      <trkpt lat="37.5353329349" lon="-8.6518905591">
        <ele>45.32</ele>
        <time>2019-12-27T14:07:43Z</time>
      </trkpt>
      <trkpt lat="37.5353439990" lon="-8.6518514995">
        <ele>45.32</ele>
        <time>2019-12-27T14:07:46Z</time>
      </trkpt>
      <trkpt lat="37.5354226213" lon="-8.6517374218">
        <ele>46.28</ele>
        <time>2019-12-27T14:07:55Z</time>
      </trkpt>
      <trkpt lat="37.5355891697" lon="-8.6515572108">
        <ele>45.32</ele>
        <time>2019-12-27T14:08:12Z</time>
      </trkpt>
      <trkpt lat="37.5356290676" lon="-8.6515090149">
        <ele>45.32</ele>
        <time>2019-12-27T14:08:16Z</time>
      </trkpt>
      <trkpt lat="37.5358050037" lon="-8.6513177399">
        <ele>43.88</ele>
        <time>2019-12-27T14:08:33Z</time>
      </trkpt>
      <trkpt lat="37.5359607395" lon="-8.6511634290">
        <ele>44.36</ele>
        <time>2019-12-27T14:08:48Z</time>
      </trkpt>
      <trkpt lat="37.5360859651" lon="-8.6510280613">
        <ele>44.84</ele>
        <time>2019-12-27T14:09:01Z</time>
      </trkpt>
      <trkpt lat="37.5361799262" lon="-8.6509201862">
        <ele>44.36</ele>
        <time>2019-12-27T14:09:11Z</time>
      </trkpt>
      <trkpt lat="37.5361996237" lon="-8.6508993991">
        <ele>44.36</ele>
        <time>2019-12-27T14:09:13Z</time>
      </trkpt>
      <trkpt lat="37.5362992845" lon="-8.6507490277">
        <ele>44.84</ele>
        <time>2019-12-27T14:09:24Z</time>
      </trkpt>
      <trkpt lat="37.5363178086" lon="-8.6507316772">
        <ele>44.84</ele>
        <time>2019-12-27T14:09:26Z</time>
      </trkpt>
      <trkpt lat="37.5363358296" lon="-8.6507091299">
        <ele>44.84</ele>
        <time>2019-12-27T14:09:28Z</time>
      </trkpt>
      <trkpt lat="37.5364395138" lon="-8.6505853292">
        <ele>44.36</ele>
        <time>2019-12-27T14:09:39Z</time>
      </trkpt>
      <trkpt lat="37.5365245063" lon="-8.6504702456">
        <ele>43.88</ele>
        <time>2019-12-27T14:09:48Z</time>
      </trkpt>
      <trkpt lat="37.5365650747" lon="-8.6504209600">
        <ele>43.88</ele>
        <time>2019-12-27T14:09:52Z</time>
      </trkpt>
      <trkpt lat="37.5366209820" lon="-8.6503337044">
        <ele>43.88</ele>
        <time>2019-12-27T14:09:59Z</time>
      </trkpt>
      <trkpt lat="37.5367161166" lon="-8.6501993425">
        <ele>44.36</ele>
        <time>2019-12-27T14:10:09Z</time>
      </trkpt>
      <trkpt lat="37.5367542543" lon="-8.6501254141">
        <ele>44.36</ele>
        <time>2019-12-27T14:10:15Z</time>
      </trkpt>
      <trkpt lat="37.5368355587" lon="-8.6499675829">
        <ele>44.36</ele>
        <time>2019-12-27T14:10:26Z</time>
      </trkpt>
      <trkpt lat="37.5368522387" lon="-8.6499449518">
        <ele>43.88</ele>
        <time>2019-12-27T14:10:28Z</time>
      </trkpt>
      <trkpt lat="37.5369409192" lon="-8.6498114280">
        <ele>43.88</ele>
        <time>2019-12-27T14:10:37Z</time>
      </trkpt>
      <trkpt lat="37.5369881094" lon="-8.6497093365">
        <ele>44.36</ele>
        <time>2019-12-27T14:10:44Z</time>
      </trkpt>
      <trkpt lat="37.5370682403" lon="-8.6495218333">
        <ele>44.36</ele>
        <time>2019-12-27T14:10:56Z</time>
      </trkpt>
      <trkpt lat="37.5370722637" lon="-8.6495080031">
        <ele>44.36</ele>
        <time>2019-12-27T14:10:57Z</time>
      </trkpt>
      <trkpt lat="37.5371144246" lon="-8.6492579710">
        <ele>43.40</ele>
        <time>2019-12-27T14:11:11Z</time>
      </trkpt>
      <trkpt lat="37.5371166877" lon="-8.6492445599">
        <ele>43.40</ele>
        <time>2019-12-27T14:11:12Z</time>
      </trkpt>
      <trkpt lat="37.5371487066" lon="-8.6491604894">
        <ele>42.92</ele>
        <time>2019-12-27T14:11:18Z</time>
      </trkpt>
      <trkpt lat="37.5371371396" lon="-8.6491428874">
        <ele>43.40</ele>
        <time>2019-12-27T14:11:19Z</time>
      </trkpt>
      <trkpt lat="37.5371394865" lon="-8.6490523629">
        <ele>42.92</ele>
        <time>2019-12-27T14:11:24Z</time>
      </trkpt>
      <trkpt lat="37.5371421687" lon="-8.6488955375">
        <ele>42.44</ele>
        <time>2019-12-27T14:11:33Z</time>
      </trkpt>
      <trkpt lat="37.5371410791" lon="-8.6488465872">
        <ele>42.92</ele>
        <time>2019-12-27T14:11:36Z</time>
      </trkpt>
      <trkpt lat="37.5371679850" lon="-8.6487350240">
        <ele>42.92</ele>
        <time>2019-12-27T14:11:43Z</time>
      </trkpt>
      <trkpt lat="37.5371851679" lon="-8.6485759355">
        <ele>42.92</ele>
        <time>2019-12-27T14:11:53Z</time>
      </trkpt>
      <trkpt lat="37.5371823180" lon="-8.6484586727">
        <ele>42.92</ele>
        <time>2019-12-27T14:12:00Z</time>
      </trkpt>
      <trkpt lat="37.5371974893" lon="-8.6483037751">
        <ele>42.92</ele>
        <time>2019-12-27T14:12:09Z</time>
      </trkpt>
      <trkpt lat="37.5372044463" lon="-8.6482010130">
        <ele>42.92</ele>
        <time>2019-12-27T14:12:26Z</time>
      </trkpt>
      <trkpt lat="37.5372044463" lon="-8.6482010130">
        <ele>42.92</ele>
        <time>2019-12-27T14:12:43Z</time>
      </trkpt>
      <trkpt lat="37.5372059550" lon="-8.6481924634">
        <ele>43.40</ele>
        <time>2019-12-27T14:12:47Z</time>
      </trkpt>
      <trkpt lat="37.5372083858" lon="-8.6481261626">
        <ele>42.92</ele>
        <time>2019-12-27T14:12:51Z</time>
      </trkpt>
      <trkpt lat="37.5372020993" lon="-8.6479182076">
        <ele>41.47</ele>
        <time>2019-12-27T14:13:03Z</time>
      </trkpt>
      <trkpt lat="37.5372195337" lon="-8.6478549242">
        <ele>41.95</ele>
        <time>2019-12-27T14:13:07Z</time>
      </trkpt>
      <trkpt lat="37.5372450985" lon="-8.6476923153">
        <ele>41.47</ele>
        <time>2019-12-27T14:13:17Z</time>
      </trkpt>
      <trkpt lat="37.5372951385" lon="-8.6475173850">
        <ele>40.99</ele>
        <time>2019-12-27T14:13:28Z</time>
      </trkpt>
      <trkpt lat="37.5373176020" lon="-8.6474589631">
        <ele>40.99</ele>
        <time>2019-12-27T14:13:32Z</time>
      </trkpt>
      <trkpt lat="37.5373340305" lon="-8.6473841127">
        <ele>40.99</ele>
        <time>2019-12-27T14:13:37Z</time>
      </trkpt>
      <trkpt lat="37.5373537280" lon="-8.6473108549">
        <ele>40.99</ele>
        <time>2019-12-27T14:13:41Z</time>
      </trkpt>
      <trkpt lat="37.5373607688" lon="-8.6472710408">
        <ele>40.99</ele>
        <time>2019-12-27T14:13:44Z</time>
      </trkpt>
      <trkpt lat="37.5374160893" lon="-8.6470795982">
        <ele>40.99</ele>
        <time>2019-12-27T14:13:57Z</time>
      </trkpt>
      <trkpt lat="37.5374595076" lon="-8.6469324119">
        <ele>40.51</ele>
        <time>2019-12-27T14:14:07Z</time>
      </trkpt>
      <trkpt lat="37.5374716613" lon="-8.6469122116">
        <ele>40.51</ele>
        <time>2019-12-27T14:14:09Z</time>
      </trkpt>
      <trkpt lat="37.5375325140" lon="-8.6468573101">
        <ele>40.99</ele>
        <time>2019-12-27T14:14:15Z</time>
      </trkpt>
      <trkpt lat="37.5375719089" lon="-8.6468131375">
        <ele>40.99</ele>
        <time>2019-12-27T14:14:19Z</time>
      </trkpt>
      <trkpt lat="37.5376144052" lon="-8.6467708088">
        <ele>40.99</ele>
        <time>2019-12-27T14:14:23Z</time>
      </trkpt>
      <trkpt lat="37.5376399700" lon="-8.6467180029">
        <ele>40.51</ele>
        <time>2019-12-27T14:14:27Z</time>
      </trkpt>
      <trkpt lat="37.5376486871" lon="-8.6466838047">
        <ele>40.99</ele>
        <time>2019-12-27T14:14:30Z</time>
      </trkpt>
      <trkpt lat="37.5377571490" lon="-8.6465458386">
        <ele>40.99</ele>
        <time>2019-12-27T14:14:42Z</time>
      </trkpt>
      <trkpt lat="37.5377744995" lon="-8.6465201899">
        <ele>40.51</ele>
        <time>2019-12-27T14:14:44Z</time>
      </trkpt>
      <trkpt lat="37.5378029980" lon="-8.6464794539">
        <ele>40.51</ele>
        <time>2019-12-27T14:14:47Z</time>
      </trkpt>
      <trkpt lat="37.5378241204" lon="-8.6464267317">
        <ele>40.99</ele>
        <time>2019-12-27T14:14:51Z</time>
      </trkpt>
      <trkpt lat="37.5378808659" lon="-8.6463637836">
        <ele>40.99</ele>
        <time>2019-12-27T14:14:57Z</time>
      </trkpt>
      <trkpt lat="37.5380099472" lon="-8.6461964808">
        <ele>40.99</ele>
        <time>2019-12-27T14:15:11Z</time>
      </trkpt>
      <trkpt lat="37.5380203407" lon="-8.6461833213">
        <ele>40.99</ele>
        <time>2019-12-27T14:15:12Z</time>
      </trkpt>
      <trkpt lat="37.5381113682" lon="-8.6460872646">
        <ele>40.99</ele>
        <time>2019-12-27T14:15:21Z</time>
      </trkpt>
      <trkpt lat="37.5382523518" lon="-8.6459778808">
        <ele>40.51</ele>
        <time>2019-12-27T14:15:34Z</time>
      </trkpt>
      <trkpt lat="37.5383994542" lon="-8.6458464526">
        <ele>40.51</ele>
        <time>2019-12-27T14:15:47Z</time>
      </trkpt>
      <trkpt lat="37.5385936629" lon="-8.6457115877">
        <ele>40.03</ele>
        <time>2019-12-27T14:16:03Z</time>
      </trkpt>
      <trkpt lat="37.5387188047" lon="-8.6456053052">
        <ele>40.03</ele>
        <time>2019-12-27T14:16:14Z</time>
      </trkpt>
      <trkpt lat="37.5388370734" lon="-8.6455038004">
        <ele>39.55</ele>
        <time>2019-12-27T14:16:25Z</time>
      </trkpt>
      <trkpt lat="37.5389087386" lon="-8.6454468034">
        <ele>39.55</ele>
        <time>2019-12-27T14:16:31Z</time>
      </trkpt>
      <trkpt lat="37.5390155241" lon="-8.6453821789">
        <ele>40.03</ele>
        <time>2019-12-27T14:16:40Z</time>
      </trkpt>
      <trkpt lat="37.5391725171" lon="-8.6452828534">
        <ele>40.51</ele>
        <time>2019-12-27T14:16:53Z</time>
      </trkpt>
      <trkpt lat="37.5393112376" lon="-8.6451846175">
        <ele>40.03</ele>
        <time>2019-12-27T14:17:05Z</time>
      </trkpt>
      <trkpt lat="37.5393451843" lon="-8.6451556161">
        <ele>39.55</ele>
        <time>2019-12-27T14:17:08Z</time>
      </trkpt>
      <trkpt lat="37.5394147541" lon="-8.6450826935">
        <ele>40.03</ele>
        <time>2019-12-27T14:17:15Z</time>
      </trkpt>
      <trkpt lat="37.5394599326" lon="-8.6450329889">
        <ele>39.55</ele>
        <time>2019-12-27T14:17:20Z</time>
      </trkpt>
      <trkpt lat="37.5394939631" lon="-8.6449837033">
        <ele>40.03</ele>
        <time>2019-12-27T14:17:24Z</time>
      </trkpt>
      <trkpt lat="37.5395261496" lon="-8.6449343339">
        <ele>39.55</ele>
        <time>2019-12-27T14:17:28Z</time>
      </trkpt>
      <trkpt lat="37.5395689812" lon="-8.6448909994">
        <ele>40.03</ele>
        <time>2019-12-27T14:17:32Z</time>
      </trkpt>
      <trkpt lat="37.5396434125" lon="-8.6448018998">
        <ele>39.55</ele>
        <time>2019-12-27T14:17:40Z</time>
      </trkpt>
      <trkpt lat="37.5396656245" lon="-8.6447687075">
        <ele>39.55</ele>
        <time>2019-12-27T14:17:43Z</time>
      </trkpt>
      <trkpt lat="37.5397138204" lon="-8.6447013170">
        <ele>40.03</ele>
        <time>2019-12-27T14:17:49Z</time>
      </trkpt>
      <trkpt lat="37.5397883356" lon="-8.6446204316">
        <ele>40.03</ele>
        <time>2019-12-27T14:17:56Z</time>
      </trkpt>
      <trkpt lat="37.5399061851" lon="-8.6445050128">
        <ele>40.99</ele>
        <time>2019-12-27T14:18:06Z</time>
      </trkpt>
      <trkpt lat="37.5399278104" lon="-8.6444742512">
        <ele>41.47</ele>
        <time>2019-12-27T14:18:09Z</time>
      </trkpt>
      <trkpt lat="37.5400765892" lon="-8.6443283223">
        <ele>41.95</ele>
        <time>2019-12-27T14:18:22Z</time>
      </trkpt>
      <trkpt lat="37.5401759986" lon="-8.6441846564">
        <ele>41.95</ele>
        <time>2019-12-27T14:18:35Z</time>
      </trkpt>
      <trkpt lat="37.5402790122" lon="-8.6440428346">
        <ele>41.95</ele>
        <time>2019-12-27T14:18:46Z</time>
      </trkpt>
      <trkpt lat="37.5403236039" lon="-8.6440134980">
        <ele>41.95</ele>
        <time>2019-12-27T14:18:49Z</time>
      </trkpt>
      <trkpt lat="37.5404109433" lon="-8.6439067964">
        <ele>41.95</ele>
        <time>2019-12-27T14:18:58Z</time>
      </trkpt>
      <trkpt lat="37.5404733885" lon="-8.6438584328">
        <ele>41.47</ele>
        <time>2019-12-27T14:19:03Z</time>
      </trkpt>
      <trkpt lat="37.5405296311" lon="-8.6438141763">
        <ele>41.95</ele>
        <time>2019-12-27T14:19:08Z</time>
      </trkpt>
      <trkpt lat="37.5407162961" lon="-8.6436625477">
        <ele>40.03</ele>
        <time>2019-12-27T14:19:23Z</time>
      </trkpt>
      <trkpt lat="37.5407358259" lon="-8.6436439399">
        <ele>39.55</ele>
        <time>2019-12-27T14:19:25Z</time>
      </trkpt>
      <trkpt lat="37.5408132747" lon="-8.6434797384">
        <ele>40.03</ele>
        <time>2019-12-27T14:19:37Z</time>
      </trkpt>
      <trkpt lat="37.5409302860" lon="-8.6433304567">
        <ele>40.51</ele>
        <time>2019-12-27T14:19:50Z</time>
      </trkpt>
      <trkpt lat="37.5409686752" lon="-8.6432822607">
        <ele>40.51</ele>
        <time>2019-12-27T14:19:55Z</time>
      </trkpt>
      <trkpt lat="37.5410237443" lon="-8.6432446260">
        <ele>40.03</ele>
        <time>2019-12-27T14:19:59Z</time>
      </trkpt>
      <trkpt lat="37.5412179530" lon="-8.6430966016">
        <ele>39.07</ele>
        <time>2019-12-27T14:20:15Z</time>
      </trkpt>
      <trkpt lat="37.5413780473" lon="-8.6430084240">
        <ele>38.11</ele>
        <time>2019-12-27T14:20:28Z</time>
      </trkpt>
      <trkpt lat="37.5415472779" lon="-8.6429645028">
        <ele>38.11</ele>
        <time>2019-12-27T14:20:41Z</time>
      </trkpt>
      <trkpt lat="37.5416122377" lon="-8.6429580487">
        <ele>38.11</ele>
        <time>2019-12-27T14:20:46Z</time>
      </trkpt>
      <trkpt lat="37.5417820551" lon="-8.6429580487">
        <ele>37.63</ele>
        <time>2019-12-27T14:20:58Z</time>
      </trkpt>
      <trkpt lat="37.5419648644" lon="-8.6429678556">
        <ele>37.63</ele>
        <time>2019-12-27T14:21:12Z</time>
      </trkpt>
      <trkpt lat="37.5420867372" lon="-8.6429580487">
        <ele>38.11</ele>
        <time>2019-12-27T14:21:24Z</time>
      </trkpt>
      <trkpt lat="37.5420886651" lon="-8.6429523490">
        <ele>38.11</ele>
        <time>2019-12-27T14:21:28Z</time>
      </trkpt>
      <trkpt lat="37.5422521122" lon="-8.6429605633">
        <ele>38.59</ele>
        <time>2019-12-27T14:21:41Z</time>
      </trkpt>
      <trkpt lat="37.5422929320" lon="-8.6429718789">
        <ele>38.11</ele>
        <time>2019-12-27T14:21:44Z</time>
      </trkpt>
      <trkpt lat="37.5424119551" lon="-8.6429771595">
        <ele>38.59</ele>
        <time>2019-12-27T14:21:54Z</time>
      </trkpt>
      <trkpt lat="37.5425447244" lon="-8.6429455597">
        <ele>39.55</ele>
        <time>2019-12-27T14:22:09Z</time>
      </trkpt>
      <trkpt lat="37.5425917469" lon="-8.6429279577">
        <ele>39.55</ele>
        <time>2019-12-27T14:22:13Z</time>
      </trkpt>
      <trkpt lat="37.5426189043" lon="-8.6429255269">
        <ele>39.07</ele>
        <time>2019-12-27T14:22:15Z</time>
      </trkpt>
      <trkpt lat="37.5426996220" lon="-8.6428980343">
        <ele>39.55</ele>
        <time>2019-12-27T14:22:21Z</time>
      </trkpt>
      <trkpt lat="37.5427442137" lon="-8.6428834498">
        <ele>39.07</ele>
        <time>2019-12-27T14:22:25Z</time>
      </trkpt>
      <trkpt lat="37.5427724607" lon="-8.6428609025">
        <ele>39.55</ele>
        <time>2019-12-27T14:22:28Z</time>
      </trkpt>
      <trkpt lat="37.5428313017" lon="-8.6428397801">
        <ele>39.55</ele>
        <time>2019-12-27T14:22:33Z</time>
      </trkpt>
      <trkpt lat="37.5428674277" lon="-8.6428197473">
        <ele>39.07</ele>
        <time>2019-12-27T14:22:36Z</time>
      </trkpt>
      <trkpt lat="37.5429065712" lon="-8.6428031512">
        <ele>39.55</ele>
        <time>2019-12-27T14:22:39Z</time>
      </trkpt>
      <trkpt lat="37.5430856925" lon="-8.6427053344">
        <ele>40.03</ele>
        <time>2019-12-27T14:22:55Z</time>
      </trkpt>
      <trkpt lat="37.5432191323" lon="-8.6426225211">
        <ele>40.51</ele>
        <time>2019-12-27T14:23:07Z</time>
      </trkpt>
      <trkpt lat="37.5433230679" lon="-8.6425797734">
        <ele>40.99</ele>
        <time>2019-12-27T14:23:15Z</time>
      </trkpt>
      <trkpt lat="37.5434653088" lon="-8.6425311584">
        <ele>41.47</ele>
        <time>2019-12-27T14:23:26Z</time>
      </trkpt>
      <trkpt lat="37.5436358806" lon="-8.6424497701">
        <ele>41.95</ele>
        <time>2019-12-27T14:23:40Z</time>
      </trkpt>
      <trkpt lat="37.5438049436" lon="-8.6423917674">
        <ele>41.47</ele>
        <time>2019-12-27T14:23:53Z</time>
      </trkpt>
      <trkpt lat="37.5439667981" lon="-8.6423207726">
        <ele>40.99</ele>
        <time>2019-12-27T14:24:06Z</time>
      </trkpt>
      <trkpt lat="37.5440147426" lon="-8.6422948726">
        <ele>40.51</ele>
        <time>2019-12-27T14:24:10Z</time>
      </trkpt>
      <trkpt lat="37.5440390501" lon="-8.6422872450">
        <ele>40.51</ele>
        <time>2019-12-27T14:24:12Z</time>
      </trkpt>
      <trkpt lat="37.5441978034" lon="-8.6422203574">
        <ele>40.03</ele>
        <time>2019-12-27T14:24:25Z</time>
      </trkpt>
      <trkpt lat="37.5442072749" lon="-8.6422149092">
        <ele>39.55</ele>
        <time>2019-12-27T14:24:26Z</time>
      </trkpt>
      <trkpt lat="37.5443181675" lon="-8.6421600915">
        <ele>39.07</ele>
        <time>2019-12-27T14:24:35Z</time>
      </trkpt>
      <trkpt lat="37.5444267131" lon="-8.6421297491">
        <ele>37.15</ele>
        <time>2019-12-27T14:24:44Z</time>
      </trkpt>
      <trkpt lat="37.5446001347" lon="-8.6420875881">
        <ele>35.23</ele>
        <time>2019-12-27T14:24:58Z</time>
      </trkpt>
      <trkpt lat="37.5446423795" lon="-8.6420711596">
        <ele>34.74</ele>
        <time>2019-12-27T14:25:02Z</time>
      </trkpt>
      <trkpt lat="37.5447000470" lon="-8.6420734227">
        <ele>34.74</ele>
        <time>2019-12-27T14:25:06Z</time>
      </trkpt>
      <trkpt lat="37.5448232610" lon="-8.6420352850">
        <ele>35.71</ele>
        <time>2019-12-27T14:25:16Z</time>
      </trkpt>
      <trkpt lat="37.5449477322" lon="-8.6419730075">
        <ele>37.15</ele>
        <time>2019-12-27T14:25:27Z</time>
      </trkpt>
      <trkpt lat="37.5449611433" lon="-8.6419701576">
        <ele>36.67</ele>
        <time>2019-12-27T14:25:28Z</time>
      </trkpt>
      <trkpt lat="37.5449810084" lon="-8.6419509631">
        <ele>37.15</ele>
        <time>2019-12-27T14:25:30Z</time>
      </trkpt>
      <trkpt lat="37.5450817589" lon="-8.6418774538">
        <ele>38.11</ele>
        <time>2019-12-27T14:25:39Z</time>
      </trkpt>
      <trkpt lat="37.5452146959" lon="-8.6418107338">
        <ele>38.11</ele>
        <time>2019-12-27T14:25:51Z</time>
      </trkpt>
      <trkpt lat="37.5453030411" lon="-8.6417869292">
        <ele>38.59</ele>
        <time>2019-12-27T14:25:58Z</time>
      </trkpt>
      <trkpt lat="37.5453426037" lon="-8.6417850014">
        <ele>38.59</ele>
        <time>2019-12-27T14:26:01Z</time>
      </trkpt>
      <trkpt lat="37.5454070605" lon="-8.6417692434">
        <ele>38.11</ele>
        <time>2019-12-27T14:26:06Z</time>
      </trkpt>
      <trkpt lat="37.5455774646" lon="-8.6417449359">
        <ele>38.11</ele>
        <time>2019-12-27T14:26:20Z</time>
      </trkpt>
      <trkpt lat="37.5456720125" lon="-8.6417406611">
        <ele>37.63</ele>
        <time>2019-12-27T14:26:27Z</time>
      </trkpt>
      <trkpt lat="37.5458258204" lon="-8.6417174432">
        <ele>37.15</ele>
        <time>2019-12-27T14:26:39Z</time>
      </trkpt>
      <trkpt lat="37.5460161734" lon="-8.6416192073">
        <ele>37.15</ele>
        <time>2019-12-27T14:26:54Z</time>
      </trkpt>
      <trkpt lat="37.5460381340" lon="-8.6416007672">
        <ele>37.15</ele>
        <time>2019-12-27T14:26:56Z</time>
      </trkpt>
      <trkpt lat="37.5461005792" lon="-8.6415764596">
        <ele>37.15</ele>
        <time>2019-12-27T14:27:01Z</time>
      </trkpt>
      <trkpt lat="37.5461385492" lon="-8.6415503919">
        <ele>37.15</ele>
        <time>2019-12-27T14:27:04Z</time>
      </trkpt>
      <trkpt lat="37.5463281479" lon="-8.6414840072">
        <ele>36.67</ele>
        <time>2019-12-27T14:27:19Z</time>
      </trkpt>
      <trkpt lat="37.5464890804" lon="-8.6414293572">
        <ele>36.19</ele>
        <time>2019-12-27T14:27:31Z</time>
      </trkpt>
      <trkpt lat="37.5466806069" lon="-8.6413498968">
        <ele>36.19</ele>
        <time>2019-12-27T14:27:46Z</time>
      </trkpt>
      <trkpt lat="37.5468511786" lon="-8.6412456259">
        <ele>35.71</ele>
        <time>2019-12-27T14:28:00Z</time>
      </trkpt>
      <trkpt lat="37.5469680224" lon="-8.6411543470">
        <ele>35.23</ele>
        <time>2019-12-27T14:28:11Z</time>
      </trkpt>
      <trkpt lat="37.5471520051" lon="-8.6410722043">
        <ele>34.26</ele>
        <time>2019-12-27T14:28:25Z</time>
      </trkpt>
      <trkpt lat="37.5473390892" lon="-8.6409371719">
        <ele>34.26</ele>
        <time>2019-12-27T14:28:40Z</time>
      </trkpt>
      <trkpt lat="37.5474543404" lon="-8.6407759041">
        <ele>33.30</ele>
        <time>2019-12-27T14:28:52Z</time>
      </trkpt>
      <trkpt lat="37.5474831741" lon="-8.6407355871">
        <ele>33.30</ele>
        <time>2019-12-27T14:28:56Z</time>
      </trkpt>
      <trkpt lat="37.5475244969" lon="-8.6406816915">
        <ele>32.82</ele>
        <time>2019-12-27T14:29:01Z</time>
      </trkpt>
      <trkpt lat="37.5475661550" lon="-8.6406357586">
        <ele>33.30</ele>
        <time>2019-12-27T14:29:05Z</time>
      </trkpt>
      <trkpt lat="37.5476432685" lon="-8.6405294761">
        <ele>33.30</ele>
        <time>2019-12-27T14:29:14Z</time>
      </trkpt>
      <trkpt lat="37.5476789754" lon="-8.6404016521">
        <ele>33.30</ele>
        <time>2019-12-27T14:29:22Z</time>
      </trkpt>
      <trkpt lat="37.5477347989" lon="-8.6403199285">
        <ele>33.30</ele>
        <time>2019-12-27T14:29:28Z</time>
      </trkpt>
      <trkpt lat="37.5477373973" lon="-8.6402560584">
        <ele>33.30</ele>
        <time>2019-12-27T14:29:32Z</time>
      </trkpt>
      <trkpt lat="37.5477468688" lon="-8.6401884165">
        <ele>33.78</ele>
        <time>2019-12-27T14:29:36Z</time>
      </trkpt>
      <trkpt lat="37.5477480423" lon="-8.6401091237">
        <ele>33.78</ele>
        <time>2019-12-27T14:29:41Z</time>
      </trkpt>
      <trkpt lat="37.5477909576" lon="-8.6399639491">
        <ele>33.78</ele>
        <time>2019-12-27T14:29:50Z</time>
      </trkpt>
      <trkpt lat="37.5478247367" lon="-8.6397948023">
        <ele>33.78</ele>
        <time>2019-12-27T14:30:00Z</time>
      </trkpt>
      <trkpt lat="37.5478504691" lon="-8.6396547407">
        <ele>33.78</ele>
        <time>2019-12-27T14:30:08Z</time>
      </trkpt>
      <trkpt lat="37.5478784647" lon="-8.6395232286">
        <ele>34.26</ele>
        <time>2019-12-27T14:30:16Z</time>
      </trkpt>
      <trkpt lat="37.5478854217" lon="-8.6394896172">
        <ele>34.26</ele>
        <time>2019-12-27T14:30:18Z</time>
      </trkpt>
      <trkpt lat="37.5479086395" lon="-8.6393603683">
        <ele>34.26</ele>
        <time>2019-12-27T14:30:26Z</time>
      </trkpt>
      <trkpt lat="37.5479584280" lon="-8.6391783133">
        <ele>34.26</ele>
        <time>2019-12-27T14:30:37Z</time>
      </trkpt>
      <trkpt lat="37.5479812268" lon="-8.6390944943">
        <ele>33.78</ele>
        <time>2019-12-27T14:30:42Z</time>
      </trkpt>
      <trkpt lat="37.5480418280" lon="-8.6389690172">
        <ele>33.30</ele>
        <time>2019-12-27T14:30:50Z</time>
      </trkpt>
      <trkpt lat="37.5480717514" lon="-8.6389017943">
        <ele>33.30</ele>
        <time>2019-12-27T14:30:55Z</time>
      </trkpt>
      <trkpt lat="37.5480797142" lon="-8.6388570350">
        <ele>33.30</ele>
        <time>2019-12-27T14:30:58Z</time>
      </trkpt>
      <trkpt lat="37.5481522176" lon="-8.6387123633">
        <ele>33.30</ele>
        <time>2019-12-27T14:31:08Z</time>
      </trkpt>
      <trkpt lat="37.5481637008" lon="-8.6386709567">
        <ele>33.30</ele>
        <time>2019-12-27T14:31:11Z</time>
      </trkpt>
      <trkpt lat="37.5481932890" lon="-8.6386101041">
        <ele>32.82</ele>
        <time>2019-12-27T14:31:15Z</time>
      </trkpt>
      <trkpt lat="37.5482554827" lon="-8.6384742334">
        <ele>32.82</ele>
        <time>2019-12-27T14:31:24Z</time>
      </trkpt>
      <trkpt lat="37.5482683070" lon="-8.6384307314">
        <ele>32.82</ele>
        <time>2019-12-27T14:31:27Z</time>
      </trkpt>
      <trkpt lat="37.5483547244" lon="-8.6383035779">
        <ele>32.82</ele>
        <time>2019-12-27T14:31:37Z</time>
      </trkpt>
      <trkpt lat="37.5484475121" lon="-8.6381231155">
        <ele>32.82</ele>
        <time>2019-12-27T14:31:50Z</time>
      </trkpt>
      <trkpt lat="37.5484925229" lon="-8.6379869096">
        <ele>32.34</ele>
        <time>2019-12-27T14:31:59Z</time>
      </trkpt>
      <trkpt lat="37.5485373661" lon="-8.6378858238">
        <ele>32.34</ele>
        <time>2019-12-27T14:32:06Z</time>
      </trkpt>
      <trkpt lat="37.5485447422" lon="-8.6378569063">
        <ele>32.82</ele>
        <time>2019-12-27T14:32:08Z</time>
      </trkpt>
      <trkpt lat="37.5485833827" lon="-8.6377280764">
        <ele>32.34</ele>
        <time>2019-12-27T14:32:17Z</time>
      </trkpt>
      <trkpt lat="37.5486275554" lon="-8.6376074608">
        <ele>31.86</ele>
        <time>2019-12-27T14:32:25Z</time>
      </trkpt>
      <trkpt lat="37.5486737397" lon="-8.6375461053">
        <ele>31.38</ele>
        <time>2019-12-27T14:32:29Z</time>
      </trkpt>
      <trkpt lat="37.5487048365" lon="-8.6374773737">
        <ele>31.38</ele>
        <time>2019-12-27T14:32:34Z</time>
      </trkpt>
      <trkpt lat="37.5487471651" lon="-8.6374285910">
        <ele>31.38</ele>
        <time>2019-12-27T14:32:38Z</time>
      </trkpt>
      <trkpt lat="37.5487723947" lon="-8.6373589374">
        <ele>31.38</ele>
        <time>2019-12-27T14:32:43Z</time>
      </trkpt>
      <trkpt lat="37.5489072595" lon="-8.6373089813">
        <ele>31.38</ele>
        <time>2019-12-27T14:32:53Z</time>
      </trkpt>
      <trkpt lat="37.5490874704" lon="-8.6373524833">
        <ele>32.34</ele>
        <time>2019-12-27T14:33:07Z</time>
      </trkpt>
      <trkpt lat="37.5491663441" lon="-8.6373693310">
        <ele>33.30</ele>
        <time>2019-12-27T14:33:15Z</time>
      </trkpt>
      <trkpt lat="37.5492476486" lon="-8.6373775452">
        <ele>34.26</ele>
        <time>2019-12-27T14:33:23Z</time>
      </trkpt>
      <trkpt lat="37.5493452139" lon="-8.6374901980">
        <ele>35.23</ele>
        <time>2019-12-27T14:33:33Z</time>
      </trkpt>
      <trkpt lat="37.5493729580" lon="-8.6375093926">
        <ele>35.23</ele>
        <time>2019-12-27T14:33:36Z</time>
      </trkpt>
      <trkpt lat="37.5494576152" lon="-8.6376627814">
        <ele>35.71</ele>
        <time>2019-12-27T14:33:48Z</time>
      </trkpt>
      <trkpt lat="37.5495337229" lon="-8.6378166731">
        <ele>36.67</ele>
        <time>2019-12-27T14:33:59Z</time>
      </trkpt>
      <trkpt lat="37.5496087410" lon="-8.6379754264">
        <ele>37.63</ele>
        <time>2019-12-27T14:34:11Z</time>
      </trkpt>
      <trkpt lat="37.5496431068" lon="-8.6380324233">
        <ele>38.11</ele>
        <time>2019-12-27T14:34:16Z</time>
      </trkpt>
      <trkpt lat="37.5496631395" lon="-8.6380637717">
        <ele>38.11</ele>
        <time>2019-12-27T14:34:19Z</time>
      </trkpt>
      <trkpt lat="37.5497708470" lon="-8.6381853092">
        <ele>39.07</ele>
        <time>2019-12-27T14:34:30Z</time>
      </trkpt>
      <trkpt lat="37.5498140138" lon="-8.6382700503">
        <ele>39.55</ele>
        <time>2019-12-27T14:34:36Z</time>
      </trkpt>
      <trkpt lat="37.5498757884" lon="-8.6383863911">
        <ele>40.03</ele>
        <time>2019-12-27T14:34:45Z</time>
      </trkpt>
      <trkpt lat="37.5499316119" lon="-8.6384849623">
        <ele>40.03</ele>
        <time>2019-12-27T14:34:53Z</time>
      </trkpt>
      <trkpt lat="37.5499659777" lon="-8.6385468207">
        <ele>40.51</ele>
        <time>2019-12-27T14:34:58Z</time>
      </trkpt>
      <trkpt lat="37.5500334520" lon="-8.6385470722">
        <ele>40.99</ele>
        <time>2019-12-27T14:35:04Z</time>
      </trkpt>
      <trkpt lat="37.5501394831" lon="-8.6384821124">
        <ele>41.95</ele>
        <time>2019-12-27T14:35:14Z</time>
      </trkpt>
      <trkpt lat="37.5501689874" lon="-8.6384604871">
        <ele>42.44</ele>
        <time>2019-12-27T14:35:17Z</time>
      </trkpt>
      <trkpt lat="37.5502196141" lon="-8.6384189967">
        <ele>42.44</ele>
        <time>2019-12-27T14:35:22Z</time>
      </trkpt>
      <trkpt lat="37.5503167603" lon="-8.6383247003">
        <ele>43.88</ele>
        <time>2019-12-27T14:35:33Z</time>
      </trkpt>
      <trkpt lat="37.5503243878" lon="-8.6383195873">
        <ele>43.88</ele>
        <time>2019-12-27T14:35:34Z</time>
      </trkpt>
      <trkpt lat="37.5504212826" lon="-8.6382946093">
        <ele>45.32</ele>
        <time>2019-12-27T14:35:42Z</time>
      </trkpt>
      <trkpt lat="37.5505503640" lon="-8.6383127980">
        <ele>48.20</ele>
        <time>2019-12-27T14:35:54Z</time>
      </trkpt>
      <trkpt lat="37.5505828019" lon="-8.6383255385">
        <ele>48.68</ele>
        <time>2019-12-27T14:35:57Z</time>
      </trkpt>
      <trkpt lat="37.5507329218" lon="-8.6384030711">
        <ele>52.05</ele>
        <time>2019-12-27T14:36:11Z</time>
      </trkpt>
      <trkpt lat="37.5507927686" lon="-8.6384353414">
        <ele>53.01</ele>
        <time>2019-12-27T14:36:16Z</time>
      </trkpt>
      <trkpt lat="37.5508652721" lon="-8.6384754907">
        <ele>53.97</ele>
        <time>2019-12-27T14:36:23Z</time>
      </trkpt>
      <trkpt lat="37.5510018971" lon="-8.6385531910">
        <ele>56.37</ele>
        <time>2019-12-27T14:36:36Z</time>
      </trkpt>
      <trkpt lat="37.5510655995" lon="-8.6386013031">
        <ele>57.82</ele>
        <time>2019-12-27T14:36:44Z</time>
      </trkpt>
      <trkpt lat="37.5511009712" lon="-8.6386045720">
        <ele>59.26</ele>
        <time>2019-12-27T14:36:47Z</time>
      </trkpt>
      <trkpt lat="37.5512266997" lon="-8.6387045681">
        <ele>60.70</ele>
        <time>2019-12-27T14:36:59Z</time>
      </trkpt>
      <trkpt lat="37.5512369256" lon="-8.6387117766">
        <ele>60.70</ele>
        <time>2019-12-27T14:37:00Z</time>
      </trkpt>
      <trkpt lat="37.5513018016" lon="-8.6387591343">
        <ele>62.14</ele>
        <time>2019-12-27T14:37:06Z</time>
      </trkpt>
      <trkpt lat="37.5513323955" lon="-8.6387919076">
        <ele>62.14</ele>
        <time>2019-12-27T14:37:09Z</time>
      </trkpt>
      <trkpt lat="37.5514747202" lon="-8.6388508324">
        <ele>63.58</ele>
        <time>2019-12-27T14:37:21Z</time>
      </trkpt>
      <trkpt lat="37.5515240058" lon="-8.6388618127">
        <ele>64.55</ele>
        <time>2019-12-27T14:37:25Z</time>
      </trkpt>
      <trkpt lat="37.5516769756" lon="-8.6388071626">
        <ele>64.55</ele>
        <time>2019-12-27T14:37:38Z</time>
      </trkpt>
      <trkpt lat="37.5516963378" lon="-8.6387934163">
        <ele>64.55</ele>
        <time>2019-12-27T14:37:40Z</time>
      </trkpt>
      <trkpt lat="37.5517334696" lon="-8.6387783289">
        <ele>64.55</ele>
        <time>2019-12-27T14:37:43Z</time>
      </trkpt>
      <trkpt lat="37.5518920552" lon="-8.6386793386">
        <ele>64.55</ele>
        <time>2019-12-27T14:37:58Z</time>
      </trkpt>
      <trkpt lat="37.5519142672" lon="-8.6386728007">
        <ele>65.03</ele>
        <time>2019-12-27T14:38:00Z</time>
      </trkpt>
      <trkpt lat="37.5520530716" lon="-8.6386029795">
        <ele>65.51</ele>
        <time>2019-12-27T14:38:11Z</time>
      </trkpt>
      <trkpt lat="37.5522119086" lon="-8.6385206692">
        <ele>66.95</ele>
        <time>2019-12-27T14:38:24Z</time>
      </trkpt>
      <trkpt lat="37.5522442628" lon="-8.6385090183">
        <ele>66.95</ele>
        <time>2019-12-27T14:38:27Z</time>
      </trkpt>
      <trkpt lat="37.5522999186" lon="-8.6384909134">
        <ele>66.95</ele>
        <time>2019-12-27T14:38:32Z</time>
      </trkpt>
      <trkpt lat="37.5523165148" lon="-8.6384749878">
        <ele>66.95</ele>
        <time>2019-12-27T14:38:34Z</time>
      </trkpt>
      <trkpt lat="37.5523842406" lon="-8.6384506803">
        <ele>66.47</ele>
        <time>2019-12-27T14:38:47Z</time>
      </trkpt>
      <trkpt lat="37.5523857493" lon="-8.6384567153">
        <ele>65.51</ele>
        <time>2019-12-27T14:38:53Z</time>
      </trkpt>
      <trkpt lat="37.5523857493" lon="-8.6384567153">
        <ele>65.51</ele>
        <time>2019-12-27T14:39:18Z</time>
      </trkpt>
      <trkpt lat="37.5523845758" lon="-8.6384557933">
        <ele>65.51</ele>
        <time>2019-12-27T14:39:47Z</time>
      </trkpt>
      <trkpt lat="37.5523864198" lon="-8.6384559609">
        <ele>65.51</ele>
        <time>2019-12-27T14:40:25Z</time>
      </trkpt>
      <trkpt lat="37.5523827318" lon="-8.6384551227">
        <ele>65.51</ele>
        <time>2019-12-27T14:41:02Z</time>
      </trkpt>
      <trkpt lat="37.5523827318" lon="-8.6384551227">
        <ele>65.51</ele>
        <time>2019-12-27T14:41:29Z</time>
      </trkpt>
      <trkpt lat="37.5523803011" lon="-8.6384538654">
        <ele>65.51</ele>
        <time>2019-12-27T14:42:07Z</time>
      </trkpt>
      <trkpt lat="37.5523777865" lon="-8.6384505965">
        <ele>65.51</ele>
        <time>2019-12-27T14:42:46Z</time>
      </trkpt>
      <trkpt lat="37.5523753557" lon="-8.6384511832">
        <ele>66.47</ele>
        <time>2019-12-27T14:43:04Z</time>
      </trkpt>
      <trkpt lat="37.5523753557" lon="-8.6384511832">
        <ele>66.95</ele>
        <time>2019-12-27T14:43:22Z</time>
      </trkpt>
      <trkpt lat="37.5523881800" lon="-8.6384304799">
        <ele>66.95</ele>
        <time>2019-12-27T14:43:38Z</time>
      </trkpt>
      <trkpt lat="37.5524208695" lon="-8.6384060886">
        <ele>66.47</ele>
        <time>2019-12-27T14:43:42Z</time>
      </trkpt>
      <trkpt lat="37.5525644515" lon="-8.6383212637">
        <ele>65.99</ele>
        <time>2019-12-27T14:43:56Z</time>
      </trkpt>
      <trkpt lat="37.5525979791" lon="-8.6383048352">
        <ele>65.99</ele>
        <time>2019-12-27T14:43:59Z</time>
      </trkpt>
      <trkpt lat="37.5526880845" lon="-8.6382887419">
        <ele>66.47</ele>
        <time>2019-12-27T14:44:06Z</time>
      </trkpt>
      <trkpt lat="37.5528285652" lon="-8.6382537056">
        <ele>67.43</ele>
        <time>2019-12-27T14:44:18Z</time>
      </trkpt>
      <trkpt lat="37.5528427307" lon="-8.6382519454">
        <ele>67.43</ele>
        <time>2019-12-27T14:44:19Z</time>
      </trkpt>
      <trkpt lat="37.5529034995" lon="-8.6382221058">
        <ele>67.91</ele>
        <time>2019-12-27T14:44:24Z</time>
      </trkpt>
      <trkpt lat="37.5529778469" lon="-8.6382007319">
        <ele>67.43</ele>
        <time>2019-12-27T14:44:30Z</time>
      </trkpt>
      <trkpt lat="37.5530728977" lon="-8.6381338444">
        <ele>68.39</ele>
        <time>2019-12-27T14:44:40Z</time>
      </trkpt>
      <trkpt lat="37.5530926790" lon="-8.6381083634">
        <ele>68.87</ele>
        <time>2019-12-27T14:44:56Z</time>
      </trkpt>
      <trkpt lat="37.5531100295" lon="-8.6381098721">
        <ele>68.39</ele>
        <time>2019-12-27T14:45:14Z</time>
      </trkpt>
      <trkpt lat="37.5531328283" lon="-8.6380983889">
        <ele>67.91</ele>
        <time>2019-12-27T14:45:28Z</time>
      </trkpt>
      <trkpt lat="37.5531671103" lon="-8.6380900908">
        <ele>67.43</ele>
        <time>2019-12-27T14:45:37Z</time>
      </trkpt>
      <trkpt lat="37.5531957764" lon="-8.6380653642">
        <ele>67.43</ele>
        <time>2019-12-27T14:45:40Z</time>
      </trkpt>
      <trkpt lat="37.5533334073" lon="-8.6379400548">
        <ele>66.47</ele>
        <time>2019-12-27T14:45:55Z</time>
      </trkpt>
      <trkpt lat="37.5534221716" lon="-8.6379004922">
        <ele>65.99</ele>
        <time>2019-12-27T14:46:03Z</time>
      </trkpt>
      <trkpt lat="37.5535704475" lon="-8.6378668807">
        <ele>65.51</ele>
        <time>2019-12-27T14:46:16Z</time>
      </trkpt>
      <trkpt lat="37.5537757203" lon="-8.6378422379">
        <ele>65.03</ele>
        <time>2019-12-27T14:46:32Z</time>
      </trkpt>
      <trkpt lat="37.5539253373" lon="-8.6378460936">
        <ele>64.07</ele>
        <time>2019-12-27T14:46:49Z</time>
      </trkpt>
      <trkpt lat="37.5539253373" lon="-8.6378460936">
        <ele>64.07</ele>
        <time>2019-12-27T14:47:07Z</time>
      </trkpt>
      <trkpt lat="37.5539313722" lon="-8.6378532182">
        <ele>64.07</ele>
        <time>2019-12-27T14:47:24Z</time>
      </trkpt>
      <trkpt lat="37.5540106650" lon="-8.6378413998">
        <ele>64.07</ele>
        <time>2019-12-27T14:47:32Z</time>
      </trkpt>
      <trkpt lat="37.5540798157" lon="-8.6378259771">
        <ele>63.58</ele>
        <time>2019-12-27T14:47:38Z</time>
      </trkpt>
      <trkpt lat="37.5541511457" lon="-8.6378232948">
        <ele>64.07</ele>
        <time>2019-12-27T14:47:44Z</time>
      </trkpt>
      <trkpt lat="37.5542712584" lon="-8.6378330179">
        <ele>62.14</ele>
        <time>2019-12-27T14:47:53Z</time>
      </trkpt>
      <trkpt lat="37.5543674827" lon="-8.6378499493">
        <ele>61.18</ele>
        <time>2019-12-27T14:48:00Z</time>
      </trkpt>
      <trkpt lat="37.5545177702" lon="-8.6378369574">
        <ele>60.70</ele>
        <time>2019-12-27T14:48:11Z</time>
      </trkpt>
      <trkpt lat="37.5546540599" lon="-8.6378204450">
        <ele>59.74</ele>
        <time>2019-12-27T14:48:21Z</time>
      </trkpt>
      <trkpt lat="37.5547776092" lon="-8.6378177628">
        <ele>59.26</ele>
        <time>2019-12-27T14:48:30Z</time>
      </trkpt>
      <trkpt lat="37.5549336802" lon="-8.6378118955">
        <ele>59.74</ele>
        <time>2019-12-27T14:48:42Z</time>
      </trkpt>
      <trkpt lat="37.5550845545" lon="-8.6378139909">
        <ele>59.26</ele>
        <time>2019-12-27T14:48:54Z</time>
      </trkpt>
      <trkpt lat="37.5552298129" lon="-8.6378243845">
        <ele>59.26</ele>
        <time>2019-12-27T14:49:05Z</time>
      </trkpt>
      <trkpt lat="37.5553484168" lon="-8.6378501169">
        <ele>58.78</ele>
        <time>2019-12-27T14:49:15Z</time>
      </trkpt>
      <trkpt lat="37.5554283801" lon="-8.6379562318">
        <ele>59.26</ele>
        <time>2019-12-27T14:49:24Z</time>
      </trkpt>
      <trkpt lat="37.5554820243" lon="-8.6380204372">
        <ele>59.26</ele>
        <time>2019-12-27T14:49:30Z</time>
      </trkpt>
      <trkpt lat="37.5555313099" lon="-8.6380781047">
        <ele>59.26</ele>
        <time>2019-12-27T14:49:35Z</time>
      </trkpt>
      <trkpt lat="37.5556170568" lon="-8.6381865665">
        <ele>59.26</ele>
        <time>2019-12-27T14:49:45Z</time>
      </trkpt>
      <trkpt lat="37.5556924101" lon="-8.6382710561">
        <ele>58.78</ele>
        <time>2019-12-27T14:49:53Z</time>
      </trkpt>
      <trkpt lat="37.5557287037" lon="-8.6383325793">
        <ele>58.78</ele>
        <time>2019-12-27T14:49:58Z</time>
      </trkpt>
      <trkpt lat="37.5557576213" lon="-8.6383583955">
        <ele>59.26</ele>
        <time>2019-12-27T14:50:01Z</time>
      </trkpt>
      <trkpt lat="37.5558032189" lon="-8.6384381913">
        <ele>59.26</ele>
        <time>2019-12-27T14:50:06Z</time>
      </trkpt>
      <trkpt lat="37.5558618922" lon="-8.6384958588">
        <ele>59.74</ele>
        <time>2019-12-27T14:50:12Z</time>
      </trkpt>
      <trkpt lat="37.5559393410" lon="-8.6385277938">
        <ele>60.22</ele>
        <time>2019-12-27T14:50:18Z</time>
      </trkpt>
      <trkpt lat="37.5560269319" lon="-8.6385346670">
        <ele>61.18</ele>
        <time>2019-12-27T14:50:25Z</time>
      </trkpt>
      <trkpt lat="37.5560888741" lon="-8.6385369301">
        <ele>61.66</ele>
        <time>2019-12-27T14:50:30Z</time>
      </trkpt>
      <trkpt lat="37.5562458672" lon="-8.6385633331">
        <ele>62.62</ele>
        <time>2019-12-27T14:50:43Z</time>
      </trkpt>
      <trkpt lat="37.5564363878" lon="-8.6385857966">
        <ele>61.18</ele>
        <time>2019-12-27T14:50:57Z</time>
      </trkpt>
      <trkpt lat="37.5564834103" lon="-8.6386071704">
        <ele>60.70</ele>
        <time>2019-12-27T14:51:01Z</time>
      </trkpt>
      <trkpt lat="37.5565316901" lon="-8.6386168934">
        <ele>60.22</ele>
        <time>2019-12-27T14:51:05Z</time>
      </trkpt>
      <trkpt lat="37.5566134974" lon="-8.6386458948">
        <ele>59.26</ele>
        <time>2019-12-27T14:51:11Z</time>
      </trkpt>
      <trkpt lat="37.5566361286" lon="-8.6386558693">
        <ele>59.26</ele>
        <time>2019-12-27T14:51:13Z</time>
      </trkpt>
      <trkpt lat="37.5567947980" lon="-8.6386841163">
        <ele>58.30</ele>
        <time>2019-12-27T14:51:25Z</time>
      </trkpt>
      <trkpt lat="37.5569771882" lon="-8.6386785842">
        <ele>57.82</ele>
        <time>2019-12-27T14:51:39Z</time>
      </trkpt>
      <trkpt lat="37.5570632704" lon="-8.6386455595">
        <ele>57.82</ele>
        <time>2019-12-27T14:51:46Z</time>
      </trkpt>
      <trkpt lat="37.5571022462" lon="-8.6386181507">
        <ele>57.82</ele>
        <time>2019-12-27T14:51:50Z</time>
      </trkpt>
      <trkpt lat="37.5572718959" lon="-8.6385461502">
        <ele>57.34</ele>
        <time>2019-12-27T14:52:04Z</time>
      </trkpt>
      <trkpt lat="37.5573801063" lon="-8.6384946015">
        <ele>57.34</ele>
        <time>2019-12-27T14:52:14Z</time>
      </trkpt>
      <trkpt lat="37.5575446431" lon="-8.6384571344">
        <ele>57.34</ele>
        <time>2019-12-27T14:52:26Z</time>
      </trkpt>
      <trkpt lat="37.5576930866" lon="-8.6384573858">
        <ele>57.34</ele>
        <time>2019-12-27T14:52:39Z</time>
      </trkpt>
      <trkpt lat="37.5578876305" lon="-8.6384384427">
        <ele>55.89</ele>
        <time>2019-12-27T14:52:53Z</time>
      </trkpt>
      <trkpt lat="37.5578958448" lon="-8.6384373531">
        <ele>55.89</ele>
        <time>2019-12-27T14:52:54Z</time>
      </trkpt>
      <trkpt lat="37.5579446275" lon="-8.6384323239">
        <ele>55.89</ele>
        <time>2019-12-27T14:52:58Z</time>
      </trkpt>
      <trkpt lat="37.5581353158" lon="-8.6384066753">
        <ele>55.41</ele>
        <time>2019-12-27T14:53:13Z</time>
      </trkpt>
      <trkpt lat="37.5581518281" lon="-8.6384020653">
        <ele>54.93</ele>
        <time>2019-12-27T14:53:14Z</time>
      </trkpt>
      <trkpt lat="37.5582456216" lon="-8.6384052504">
        <ele>54.93</ele>
        <time>2019-12-27T14:53:21Z</time>
      </trkpt>
      <trkpt lat="37.5583409239" lon="-8.6384152249">
        <ele>54.45</ele>
        <time>2019-12-27T14:53:27Z</time>
      </trkpt>
      <trkpt lat="37.5583695900" lon="-8.6384187452">
        <ele>54.45</ele>
        <time>2019-12-27T14:53:29Z</time>
      </trkpt>
      <trkpt lat="37.5585040357" lon="-8.6384801846">
        <ele>53.97</ele>
        <time>2019-12-27T14:53:40Z</time>
      </trkpt>
      <trkpt lat="37.5586583465" lon="-8.6386173125">
        <ele>53.01</ele>
        <time>2019-12-27T14:53:54Z</time>
      </trkpt>
      <trkpt lat="37.5587133318" lon="-8.6386418715">
        <ele>53.01</ele>
        <time>2019-12-27T14:53:58Z</time>
      </trkpt>
      <trkpt lat="37.5587908644" lon="-8.6386516783">
        <ele>53.01</ele>
        <time>2019-12-27T14:54:05Z</time>
      </trkpt>
      <trkpt lat="37.5588350371" lon="-8.6386684421">
        <ele>53.01</ele>
        <time>2019-12-27T14:54:09Z</time>
      </trkpt>
      <trkpt lat="37.5589271542" lon="-8.6386180669">
        <ele>53.49</ele>
        <time>2019-12-27T14:54:19Z</time>
      </trkpt>
      <trkpt lat="37.5590112247" lon="-8.6385771632">
        <ele>53.49</ele>
        <time>2019-12-27T14:54:27Z</time>
      </trkpt>
      <trkpt lat="37.5591730792" lon="-8.6385383550">
        <ele>52.53</ele>
        <time>2019-12-27T14:54:40Z</time>
      </trkpt>
      <trkpt lat="37.5592622627" lon="-8.6385238543">
        <ele>52.05</ele>
        <time>2019-12-27T14:54:46Z</time>
      </trkpt>
      <trkpt lat="37.5594217703" lon="-8.6384384427">
        <ele>51.09</ele>
        <time>2019-12-27T14:54:59Z</time>
      </trkpt>
      <trkpt lat="37.5594559684" lon="-8.6384113692">
        <ele>51.09</ele>
        <time>2019-12-27T14:55:03Z</time>
      </trkpt>
      <trkpt lat="37.5594809465" lon="-8.6383960303">
        <ele>51.09</ele>
        <time>2019-12-27T14:55:05Z</time>
      </trkpt>
      <trkpt lat="37.5596234389" lon="-8.6383323278">
        <ele>50.61</ele>
        <time>2019-12-27T14:55:16Z</time>
      </trkpt>
      <trkpt lat="37.5597285479" lon="-8.6382360198">
        <ele>50.61</ele>
        <time>2019-12-27T14:55:25Z</time>
      </trkpt>
      <trkpt lat="37.5597569626" lon="-8.6381662823">
        <ele>50.61</ele>
        <time>2019-12-27T14:55:30Z</time>
      </trkpt>
      <trkpt lat="37.5598521810" lon="-8.6379712354">
        <ele>49.65</ele>
        <time>2019-12-27T14:55:43Z</time>
      </trkpt>
      <trkpt lat="37.5598899834" lon="-8.6378938705">
        <ele>49.16</ele>
        <time>2019-12-27T14:55:48Z</time>
      </trkpt>
      <trkpt lat="37.5599632412" lon="-8.6376885977">
        <ele>49.16</ele>
        <time>2019-12-27T14:56:02Z</time>
      </trkpt>
      <trkpt lat="37.5600510836" lon="-8.6374845821">
        <ele>48.68</ele>
        <time>2019-12-27T14:56:16Z</time>
      </trkpt>
      <trkpt lat="37.5601044763" lon="-8.6373673193">
        <ele>48.68</ele>
        <time>2019-12-27T14:56:24Z</time>
      </trkpt>
      <trkpt lat="37.5601870380" lon="-8.6371739488">
        <ele>48.20</ele>
        <time>2019-12-27T14:56:37Z</time>
      </trkpt>
      <trkpt lat="37.5602763053" lon="-8.6369977612">
        <ele>47.72</ele>
        <time>2019-12-27T14:56:50Z</time>
      </trkpt>
      <trkpt lat="37.5604148582" lon="-8.6368417740">
        <ele>48.20</ele>
        <time>2019-12-27T14:57:04Z</time>
      </trkpt>
      <trkpt lat="37.5604944862" lon="-8.6367554404">
        <ele>48.68</ele>
        <time>2019-12-27T14:57:12Z</time>
      </trkpt>
      <trkpt lat="37.5605924707" lon="-8.6366195697">
        <ele>49.16</ele>
        <time>2019-12-27T14:57:23Z</time>
      </trkpt>
      <trkpt lat="37.5607005134" lon="-8.6364271212">
        <ele>49.65</ele>
        <time>2019-12-27T14:57:36Z</time>
      </trkpt>
      <trkpt lat="37.5607142597" lon="-8.6363996286">
        <ele>49.65</ele>
        <time>2019-12-27T14:57:38Z</time>
      </trkpt>
      <trkpt lat="37.5607532356" lon="-8.6363311484">
        <ele>50.13</ele>
        <time>2019-12-27T14:57:43Z</time>
      </trkpt>
      <trkpt lat="37.5608276669" lon="-8.6361247860">
        <ele>51.09</ele>
        <time>2019-12-27T14:57:56Z</time>
      </trkpt>
      <trkpt lat="37.5608548243" lon="-8.6360782664">
        <ele>51.57</ele>
        <time>2019-12-27T14:57:59Z</time>
      </trkpt>
      <trkpt lat="37.5609309319" lon="-8.6359014083">
        <ele>52.05</ele>
        <time>2019-12-27T14:58:12Z</time>
      </trkpt>
      <trkpt lat="37.5609892700" lon="-8.6357982270">
        <ele>52.53</ele>
        <time>2019-12-27T14:58:19Z</time>
      </trkpt>
      <trkpt lat="37.5610980671" lon="-8.6356171779">
        <ele>53.49</ele>
        <time>2019-12-27T14:58:32Z</time>
      </trkpt>
      <trkpt lat="37.5611950457" lon="-8.6354641244">
        <ele>54.45</ele>
        <time>2019-12-27T14:58:44Z</time>
      </trkpt>
      <trkpt lat="37.5612371229" lon="-8.6354093067">
        <ele>54.45</ele>
        <time>2019-12-27T14:58:48Z</time>
      </trkpt>
      <trkpt lat="37.5613468420" lon="-8.6352798063">
        <ele>55.41</ele>
        <time>2019-12-27T14:59:00Z</time>
      </trkpt>
      <trkpt lat="37.5614784379" lon="-8.6351933889">
        <ele>56.86</ele>
        <time>2019-12-27T14:59:12Z</time>
      </trkpt>
      <trkpt lat="37.5615045056" lon="-8.6351750325">
        <ele>56.37</ele>
        <time>2019-12-27T14:59:14Z</time>
      </trkpt>
      <trkpt lat="37.5616572239" lon="-8.6350844242">
        <ele>57.34</ele>
        <time>2019-12-27T14:59:26Z</time>
      </trkpt>
      <trkpt lat="37.5618157256" lon="-8.6349901278">
        <ele>58.78</ele>
        <time>2019-12-27T14:59:39Z</time>
      </trkpt>
      <trkpt lat="37.5618624967" lon="-8.6349586118">
        <ele>58.30</ele>
        <time>2019-12-27T14:59:43Z</time>
      </trkpt>
      <trkpt lat="37.5620323140" lon="-8.6348199751">
        <ele>59.26</ele>
        <time>2019-12-27T14:59:57Z</time>
      </trkpt>
      <trkpt lat="37.5621389318" lon="-8.6347525846">
        <ele>59.74</ele>
        <time>2019-12-27T15:00:06Z</time>
      </trkpt>
      <trkpt lat="37.5622483995" lon="-8.6346556898">
        <ele>60.22</ele>
        <time>2019-12-27T15:00:16Z</time>
      </trkpt>
      <trkpt lat="37.5622594636" lon="-8.6346466374">
        <ele>60.22</ele>
        <time>2019-12-27T15:00:17Z</time>
      </trkpt>
      <trkpt lat="37.5623813365" lon="-8.6345232558">
        <ele>60.70</ele>
        <time>2019-12-27T15:00:28Z</time>
      </trkpt>
      <trkpt lat="37.5624730345" lon="-8.6343981139">
        <ele>61.66</ele>
        <time>2019-12-27T15:00:38Z</time>
      </trkpt>
      <trkpt lat="37.5625170395" lon="-8.6343202461">
        <ele>62.14</ele>
        <time>2019-12-27T15:00:43Z</time>
      </trkpt>
      <trkpt lat="37.5625373237" lon="-8.6342966929">
        <ele>62.62</ele>
        <time>2019-12-27T15:00:45Z</time>
      </trkpt>
      <trkpt lat="37.5626421813" lon="-8.6341676954">
        <ele>63.10</ele>
        <time>2019-12-27T15:00:56Z</time>
      </trkpt>
      <trkpt lat="37.5626600347" lon="-8.6341465730">
        <ele>63.58</ele>
        <time>2019-12-27T15:00:58Z</time>
      </trkpt>
      <trkpt lat="37.5628052931" lon="-8.6340053380">
        <ele>64.55</ele>
        <time>2019-12-27T15:01:13Z</time>
      </trkpt>
      <trkpt lat="37.5629114080" lon="-8.6339305714">
        <ele>65.51</ele>
        <time>2019-12-27T15:01:21Z</time>
      </trkpt>
      <trkpt lat="37.5629922934" lon="-8.6338421423">
        <ele>66.47</ele>
        <time>2019-12-27T15:01:30Z</time>
      </trkpt>
      <trkpt lat="37.5631276611" lon="-8.6336912680">
        <ele>67.91</ele>
        <time>2019-12-27T15:01:42Z</time>
      </trkpt>
      <trkpt lat="37.5631365459" lon="-8.6336771026">
        <ele>68.39</ele>
        <time>2019-12-27T15:01:43Z</time>
      </trkpt>
      <trkpt lat="37.5631509628" lon="-8.6336341035">
        <ele>68.39</ele>
        <time>2019-12-27T15:01:46Z</time>
      </trkpt>
      <trkpt lat="37.5631907769" lon="-8.6335566547">
        <ele>69.35</ele>
        <time>2019-12-27T15:01:53Z</time>
      </trkpt>
      <trkpt lat="37.5632061996" lon="-8.6335061956">
        <ele>69.83</ele>
        <time>2019-12-27T15:01:56Z</time>
      </trkpt>
      <trkpt lat="37.5633076206" lon="-8.6333196983">
        <ele>71.76</ele>
        <time>2019-12-27T15:02:08Z</time>
      </trkpt>
      <trkpt lat="37.5633381307" lon="-8.6332668085">
        <ele>72.24</ele>
        <time>2019-12-27T15:02:11Z</time>
      </trkpt>
      <trkpt lat="37.5633460097" lon="-8.6331828218">
        <ele>73.68</ele>
        <time>2019-12-27T15:02:18Z</time>
      </trkpt>
      <trkpt lat="37.5633900147" lon="-8.6330296844">
        <ele>74.64</ele>
        <time>2019-12-27T15:02:29Z</time>
      </trkpt>
      <trkpt lat="37.5634070300" lon="-8.6329741962">
        <ele>74.64</ele>
        <time>2019-12-27T15:02:33Z</time>
      </trkpt>
      <trkpt lat="37.5634108018" lon="-8.6329313647">
        <ele>75.12</ele>
        <time>2019-12-27T15:02:36Z</time>
      </trkpt>
      <trkpt lat="37.5635114685" lon="-8.6327710189">
        <ele>73.20</ele>
        <time>2019-12-27T15:02:49Z</time>
      </trkpt>
      <trkpt lat="37.5636239536" lon="-8.6326412670">
        <ele>71.27</ele>
        <time>2019-12-27T15:03:02Z</time>
      </trkpt>
      <trkpt lat="37.5637032464" lon="-8.6325349845">
        <ele>70.79</ele>
        <time>2019-12-27T15:03:11Z</time>
      </trkpt>
      <trkpt lat="37.5638321601" lon="-8.6323936656">
        <ele>69.83</ele>
        <time>2019-12-27T15:03:25Z</time>
      </trkpt>
      <trkpt lat="37.5639347546" lon="-8.6322810128">
        <ele>69.83</ele>
        <time>2019-12-27T15:03:38Z</time>
      </trkpt>
      <trkpt lat="37.5640500057" lon="-8.6321824417">
        <ele>69.35</ele>
        <time>2019-12-27T15:03:49Z</time>
      </trkpt>
      <trkpt lat="37.5641046558" lon="-8.6321177334">
        <ele>68.87</ele>
        <time>2019-12-27T15:04:00Z</time>
      </trkpt>
      <trkpt lat="37.5642313063" lon="-8.6319810245">
        <ele>68.39</ele>
        <time>2019-12-27T15:04:13Z</time>
      </trkpt>
      <trkpt lat="37.5642809272" lon="-8.6319052521">
        <ele>68.39</ele>
        <time>2019-12-27T15:04:20Z</time>
      </trkpt>
      <trkpt lat="37.5643284526" lon="-8.6318534520">
        <ele>67.91</ele>
        <time>2019-12-27T15:04:25Z</time>
      </trkpt>
      <trkpt lat="37.5644552708" lon="-8.6317016557">
        <ele>67.91</ele>
        <time>2019-12-27T15:04:40Z</time>
      </trkpt>
      <trkpt lat="37.5644830987" lon="-8.6316892505">
        <ele>67.91</ele>
        <time>2019-12-27T15:04:54Z</time>
      </trkpt>
      <trkpt lat="37.5644950848" lon="-8.6316687148">
        <ele>67.43</ele>
        <time>2019-12-27T15:04:56Z</time>
      </trkpt>
      <trkpt lat="37.5645167939" lon="-8.6316461675">
        <ele>66.95</ele>
        <time>2019-12-27T15:04:59Z</time>
      </trkpt>
      <trkpt lat="37.5645639841" lon="-8.6315611750">
        <ele>66.95</ele>
        <time>2019-12-27T15:05:06Z</time>
      </trkpt>
      <trkpt lat="37.5645889621" lon="-8.6314726621">
        <ele>65.99</ele>
        <time>2019-12-27T15:05:13Z</time>
      </trkpt>
      <trkpt lat="37.5646755472" lon="-8.6312437523">
        <ele>65.03</ele>
        <time>2019-12-27T15:05:29Z</time>
      </trkpt>
      <trkpt lat="37.5647183787" lon="-8.6311071273">
        <ele>64.55</ele>
        <time>2019-12-27T15:05:39Z</time>
      </trkpt>
      <trkpt lat="37.5648077298" lon="-8.6309822369">
        <ele>65.03</ele>
        <time>2019-12-27T15:05:52Z</time>
      </trkpt>
      <trkpt lat="37.5649441872" lon="-8.6309917923">
        <ele>63.10</ele>
        <time>2019-12-27T15:06:05Z</time>
      </trkpt>
      <trkpt lat="37.5651047844" lon="-8.6310445983">
        <ele>61.66</ele>
        <time>2019-12-27T15:06:18Z</time>
      </trkpt>
      <trkpt lat="37.5652618613" lon="-8.6310786288">
        <ele>60.22</ele>
        <time>2019-12-27T15:06:30Z</time>
      </trkpt>
      <trkpt lat="37.5653090514" lon="-8.6310970690">
        <ele>60.22</ele>
        <time>2019-12-27T15:06:34Z</time>
      </trkpt>
      <trkpt lat="37.5655258913" lon="-8.6311325245">
        <ele>58.78</ele>
        <time>2019-12-27T15:06:49Z</time>
      </trkpt>
      <trkpt lat="37.5657052640" lon="-8.6312286649">
        <ele>56.86</ele>
        <time>2019-12-27T15:07:04Z</time>
      </trkpt>
      <trkpt lat="37.5657162443" lon="-8.6312381364">
        <ele>56.86</ele>
        <time>2019-12-27T15:07:05Z</time>
      </trkpt>
      <trkpt lat="37.5657694694" lon="-8.6312566604">
        <ele>55.89</ele>
        <time>2019-12-27T15:07:09Z</time>
      </trkpt>
      <trkpt lat="37.5658889953" lon="-8.6313755997">
        <ele>53.97</ele>
        <time>2019-12-27T15:07:21Z</time>
      </trkpt>
      <trkpt lat="37.5660324935" lon="-8.6314339377">
        <ele>53.49</ele>
        <time>2019-12-27T15:07:32Z</time>
      </trkpt>
      <trkpt lat="37.5661971979" lon="-8.6314441636">
        <ele>53.49</ele>
        <time>2019-12-27T15:07:45Z</time>
      </trkpt>
      <trkpt lat="37.5662537757" lon="-8.6314158328">
        <ele>53.01</ele>
        <time>2019-12-27T15:07:51Z</time>
      </trkpt>
      <trkpt lat="37.5662762392" lon="-8.6314075347">
        <ele>53.01</ele>
        <time>2019-12-27T15:07:53Z</time>
      </trkpt>
      <trkpt lat="37.5664423686" lon="-8.6313391384">
        <ele>52.53</ele>
        <time>2019-12-27T15:08:06Z</time>
      </trkpt>
      <trkpt lat="37.5666012056" lon="-8.6312347837">
        <ele>51.57</ele>
        <time>2019-12-27T15:08:19Z</time>
      </trkpt>
      <trkpt lat="37.5667628087" lon="-8.6311764456">
        <ele>50.61</ele>
        <time>2019-12-27T15:08:32Z</time>
      </trkpt>
      <trkpt lat="37.5669161137" lon="-8.6311448459">
        <ele>49.65</ele>
        <time>2019-12-27T15:08:44Z</time>
      </trkpt>
      <trkpt lat="37.5669944007" lon="-8.6311245617">
        <ele>48.68</ele>
        <time>2019-12-27T15:08:51Z</time>
      </trkpt>
      <trkpt lat="37.5670311134" lon="-8.6310974043">
        <ele>48.68</ele>
        <time>2019-12-27T15:08:54Z</time>
      </trkpt>
      <trkpt lat="37.5670671556" lon="-8.6310462747">
        <ele>47.72</ele>
        <time>2019-12-27T15:08:58Z</time>
      </trkpt>
      <trkpt lat="37.5672150962" lon="-8.6309050396">
        <ele>45.32</ele>
        <time>2019-12-27T15:09:11Z</time>
      </trkpt>
      <trkpt lat="37.5672575086" lon="-8.6308810674">
        <ele>45.80</ele>
        <time>2019-12-27T15:09:14Z</time>
      </trkpt>
      <trkpt lat="37.5674078800" lon="-8.6308230646">
        <ele>43.88</ele>
        <time>2019-12-27T15:09:27Z</time>
      </trkpt>
      <trkpt lat="37.5674336962" lon="-8.6308102403">
        <ele>43.88</ele>
        <time>2019-12-27T15:09:29Z</time>
      </trkpt>
      <trkpt lat="37.5675863307" lon="-8.6307726055">
        <ele>42.44</ele>
        <time>2019-12-27T15:09:41Z</time>
      </trkpt>
      <trkpt lat="37.5676382985" lon="-8.6307679955">
        <ele>42.44</ele>
        <time>2019-12-27T15:09:45Z</time>
      </trkpt>
      <trkpt lat="37.5677020010" lon="-8.6307537463">
        <ele>42.44</ele>
        <time>2019-12-27T15:09:54Z</time>
      </trkpt>
      <trkpt lat="37.5677760970" lon="-8.6307347193">
        <ele>41.95</ele>
        <time>2019-12-27T15:09:59Z</time>
      </trkpt>
      <trkpt lat="37.5679506082" lon="-8.6306472123">
        <ele>40.51</ele>
        <time>2019-12-27T15:10:11Z</time>
      </trkpt>
      <trkpt lat="37.5681225210" lon="-8.6305875331">
        <ele>39.07</ele>
        <time>2019-12-27T15:10:25Z</time>
      </trkpt>
      <trkpt lat="37.5682748202" lon="-8.6305231601">
        <ele>37.63</ele>
        <time>2019-12-27T15:10:38Z</time>
      </trkpt>
      <trkpt lat="37.5683876406" lon="-8.6304591224">
        <ele>36.67</ele>
        <time>2019-12-27T15:10:47Z</time>
      </trkpt>
      <trkpt lat="37.5685300492" lon="-8.6304153688">
        <ele>34.74</ele>
        <time>2019-12-27T15:10:59Z</time>
      </trkpt>
      <trkpt lat="37.5685594697" lon="-8.6304141115">
        <ele>34.74</ele>
        <time>2019-12-27T15:11:03Z</time>
      </trkpt>
      <trkpt lat="37.5686396006" lon="-8.6303843558">
        <ele>33.78</ele>
        <time>2019-12-27T15:11:09Z</time>
      </trkpt>
      <trkpt lat="37.5687805843" lon="-8.6302946694">
        <ele>33.78</ele>
        <time>2019-12-27T15:11:19Z</time>
      </trkpt>
      <trkpt lat="37.5689288601" lon="-8.6301326472">
        <ele>33.78</ele>
        <time>2019-12-27T15:11:33Z</time>
      </trkpt>
      <trkpt lat="37.5690177083" lon="-8.6300417036">
        <ele>32.82</ele>
        <time>2019-12-27T15:11:47Z</time>
      </trkpt>
      <trkpt lat="37.5690227374" lon="-8.6300321482">
        <ele>32.82</ele>
        <time>2019-12-27T15:11:50Z</time>
      </trkpt>
      <trkpt lat="37.5691356417" lon="-8.6298636720">
        <ele>31.86</ele>
        <time>2019-12-27T15:12:04Z</time>
      </trkpt>
      <trkpt lat="37.5691408385" lon="-8.6298498418">
        <ele>31.38</ele>
        <time>2019-12-27T15:12:05Z</time>
      </trkpt>
      <trkpt lat="37.5691828318" lon="-8.6297637597">
        <ele>30.90</ele>
        <time>2019-12-27T15:12:12Z</time>
      </trkpt>
      <trkpt lat="37.5692905392" lon="-8.6295608338">
        <ele>28.98</ele>
        <time>2019-12-27T15:12:27Z</time>
      </trkpt>
      <trkpt lat="37.5693199597" lon="-8.6295263004">
        <ele>28.50</ele>
        <time>2019-12-27T15:12:30Z</time>
      </trkpt>
      <trkpt lat="37.5694259908" lon="-8.6292772740">
        <ele>27.05</ele>
        <time>2019-12-27T15:12:47Z</time>
      </trkpt>
      <trkpt lat="37.5695346203" lon="-8.6291316804">
        <ele>25.13</ele>
        <time>2019-12-27T15:13:00Z</time>
      </trkpt>
      <trkpt lat="37.5696399808" lon="-8.6289569177">
        <ele>25.13</ele>
        <time>2019-12-27T15:13:13Z</time>
      </trkpt>
      <trkpt lat="37.5697747618" lon="-8.6288154311">
        <ele>25.13</ele>
        <time>2019-12-27T15:13:27Z</time>
      </trkpt>
      <trkpt lat="37.5699325092" lon="-8.6286957376">
        <ele>24.17</ele>
        <time>2019-12-27T15:13:40Z</time>
      </trkpt>
      <trkpt lat="37.5699605048" lon="-8.6286724359">
        <ele>23.69</ele>
        <time>2019-12-27T15:13:43Z</time>
      </trkpt>
      <trkpt lat="37.5701041706" lon="-8.6284829210">
        <ele>23.21</ele>
        <time>2019-12-27T15:13:59Z</time>
      </trkpt>
      <trkpt lat="37.5702140573" lon="-8.6283147801">
        <ele>21.77</ele>
        <time>2019-12-27T15:14:11Z</time>
      </trkpt>
      <trkpt lat="37.5703331642" lon="-8.6281292886">
        <ele>20.32</ele>
        <time>2019-12-27T15:14:25Z</time>
      </trkpt>
      <trkpt lat="37.5704527739" lon="-8.6279370915">
        <ele>18.40</ele>
        <time>2019-12-27T15:14:40Z</time>
      </trkpt>
      <trkpt lat="37.5705655944" lon="-8.6277595628">
        <ele>17.44</ele>
        <time>2019-12-27T15:14:53Z</time>
      </trkpt>
      <trkpt lat="37.5706992019" lon="-8.6275299825">
        <ele>16.48</ele>
        <time>2019-12-27T15:15:10Z</time>
      </trkpt>
      <trkpt lat="37.5707430393" lon="-8.6274155695">
        <ele>16.00</ele>
        <time>2019-12-27T15:15:17Z</time>
      </trkpt>
      <trkpt lat="37.5707770698" lon="-8.6272891704">
        <ele>16.00</ele>
        <time>2019-12-27T15:15:25Z</time>
      </trkpt>
      <trkpt lat="37.5708784908" lon="-8.6271022540">
        <ele>15.52</ele>
        <time>2019-12-27T15:15:39Z</time>
      </trkpt>
      <trkpt lat="37.5709590409" lon="-8.6270507891">
        <ele>15.52</ele>
        <time>2019-12-27T15:15:47Z</time>
      </trkpt>
      <trkpt lat="37.5710996054" lon="-8.6270177644">
        <ele>14.08</ele>
        <time>2019-12-27T15:15:58Z</time>
      </trkpt>
      <trkpt lat="37.5712732784" lon="-8.6270382162">
        <ele>13.60</ele>
        <time>2019-12-27T15:16:12Z</time>
      </trkpt>
      <trkpt lat="37.5713353045" lon="-8.6270362046">
        <ele>13.60</ele>
        <time>2019-12-27T15:16:17Z</time>
      </trkpt>
      <trkpt lat="37.5713830814" lon="-8.6270539742">
        <ele>13.60</ele>
        <time>2019-12-27T15:16:21Z</time>
      </trkpt>
      <trkpt lat="37.5715312734" lon="-8.6270905193">
        <ele>13.12</ele>
        <time>2019-12-27T15:16:33Z</time>
      </trkpt>
      <trkpt lat="37.5715530664" lon="-8.6271045171">
        <ele>13.12</ele>
        <time>2019-12-27T15:16:35Z</time>
      </trkpt>
      <trkpt lat="37.5716129970" lon="-8.6271487735">
        <ele>12.63</ele>
        <time>2019-12-27T15:16:41Z</time>
      </trkpt>
      <trkpt lat="37.5717893522" lon="-8.6272025015">
        <ele>12.15</ele>
        <time>2019-12-27T15:16:55Z</time>
      </trkpt>
      <trkpt lat="37.5719391368" lon="-8.6272407230">
        <ele>12.63</ele>
        <time>2019-12-27T15:17:07Z</time>
      </trkpt>
      <trkpt lat="37.5720662903" lon="-8.6272341013">
        <ele>12.63</ele>
        <time>2019-12-27T15:17:17Z</time>
      </trkpt>
      <trkpt lat="37.5721537136" lon="-8.6271983944">
        <ele>12.15</ele>
        <time>2019-12-27T15:17:23Z</time>
      </trkpt>
      <trkpt lat="37.5722481776" lon="-8.6271480191">
        <ele>12.63</ele>
        <time>2019-12-27T15:17:30Z</time>
      </trkpt>
      <trkpt lat="37.5723076891" lon="-8.6271140724">
        <ele>12.63</ele>
        <time>2019-12-27T15:17:36Z</time>
      </trkpt>
      <trkpt lat="37.5723508559" lon="-8.6270923633">
        <ele>12.15</ele>
        <time>2019-12-27T15:17:39Z</time>
      </trkpt>
      <trkpt lat="37.5724067632" lon="-8.6270813830">
        <ele>12.63</ele>
        <time>2019-12-27T15:17:43Z</time>
      </trkpt>
      <trkpt lat="37.5724385306" lon="-8.6270695645">
        <ele>12.15</ele>
        <time>2019-12-27T15:17:45Z</time>
      </trkpt>
      <trkpt lat="37.5724853016" lon="-8.6270359531">
        <ele>12.15</ele>
        <time>2019-12-27T15:17:49Z</time>
      </trkpt>
      <trkpt lat="37.5726587232" lon="-8.6269315984">
        <ele>12.63</ele>
        <time>2019-12-27T15:18:03Z</time>
      </trkpt>
      <trkpt lat="37.5727209169" lon="-8.6268666387">
        <ele>12.63</ele>
        <time>2019-12-27T15:18:10Z</time>
      </trkpt>
      <trkpt lat="37.5727712084" lon="-8.6268142518">
        <ele>12.63</ele>
        <time>2019-12-27T15:18:15Z</time>
      </trkpt>
      <trkpt lat="37.5728867948" lon="-8.6267055385">
        <ele>12.63</ele>
        <time>2019-12-27T15:18:25Z</time>
      </trkpt>
      <trkpt lat="37.5729941670" lon="-8.6265531555">
        <ele>12.63</ele>
        <time>2019-12-27T15:18:36Z</time>
      </trkpt>
      <trkpt lat="37.5730282813" lon="-8.6264935602">
        <ele>12.15</ele>
        <time>2019-12-27T15:18:41Z</time>
      </trkpt>
      <trkpt lat="37.5730621442" lon="-8.6263951566">
        <ele>12.15</ele>
        <time>2019-12-27T15:18:47Z</time>
      </trkpt>
      <trkpt lat="37.5730924029" lon="-8.6261884589">
        <ele>11.19</ele>
        <time>2019-12-27T15:19:01Z</time>
      </trkpt>
      <trkpt lat="37.5730883796" lon="-8.6261760537">
        <ele>11.19</ele>
        <time>2019-12-27T15:19:02Z</time>
      </trkpt>
      <trkpt lat="37.5730895530" lon="-8.6261094175">
        <ele>11.67</ele>
        <time>2019-12-27T15:19:06Z</time>
      </trkpt>
      <trkpt lat="37.5731254276" lon="-8.6260116007">
        <ele>11.19</ele>
        <time>2019-12-27T15:19:13Z</time>
      </trkpt>
      <trkpt lat="37.5731517468" lon="-8.6259470601">
        <ele>11.67</ele>
        <time>2019-12-27T15:19:17Z</time>
      </trkpt>
      <trkpt lat="37.5731594581" lon="-8.6259311344">
        <ele>11.67</ele>
        <time>2019-12-27T15:19:18Z</time>
      </trkpt>
      <trkpt lat="37.5731854420" lon="-8.6258981936">
        <ele>10.71</ele>
        <time>2019-12-27T15:19:21Z</time>
      </trkpt>
      <trkpt lat="37.5732492283" lon="-8.6257033143">
        <ele>11.19</ele>
        <time>2019-12-27T15:19:37Z</time>
      </trkpt>
      <trkpt lat="37.5732623879" lon="-8.6256874725">
        <ele>10.71</ele>
        <time>2019-12-27T15:19:38Z</time>
      </trkpt>
      <trkpt lat="37.5733296108" lon="-8.6256455630">
        <ele>10.71</ele>
        <time>2019-12-27T15:19:41Z</time>
      </trkpt>
      <trkpt lat="37.5734108314" lon="-8.6255967803">
        <ele>10.71</ele>
        <time>2019-12-27T15:19:46Z</time>
      </trkpt>
      <trkpt lat="37.5735225622" lon="-8.6254594009">
        <ele>10.71</ele>
        <time>2019-12-27T15:19:58Z</time>
      </trkpt>
      <trkpt lat="37.5736311078" lon="-8.6253121309">
        <ele>10.71</ele>
        <time>2019-12-27T15:20:10Z</time>
      </trkpt>
      <trkpt lat="37.5737869274" lon="-8.6251706444">
        <ele>11.19</ele>
        <time>2019-12-27T15:20:24Z</time>
      </trkpt>
      <trkpt lat="37.5739271566" lon="-8.6250764318">
        <ele>11.19</ele>
        <time>2019-12-27T15:20:36Z</time>
      </trkpt>
      <trkpt lat="37.5740022585" lon="-8.6250581592">
        <ele>11.19</ele>
        <time>2019-12-27T15:20:42Z</time>
      </trkpt>
      <trkpt lat="37.5740940403" lon="-8.6250366177">
        <ele>12.15</ele>
        <time>2019-12-27T15:20:50Z</time>
      </trkpt>
      <trkpt lat="37.5741737522" lon="-8.6250229552">
        <ele>12.15</ele>
        <time>2019-12-27T15:20:56Z</time>
      </trkpt>
      <trkpt lat="37.5741955452" lon="-8.6250266433">
        <ele>12.63</ele>
        <time>2019-12-27T15:20:58Z</time>
      </trkpt>
      <trkpt lat="37.5742587447" lon="-8.6250290740">
        <ele>13.12</ele>
        <time>2019-12-27T15:21:03Z</time>
      </trkpt>
      <trkpt lat="37.5743349362" lon="-8.6250536330">
        <ele>14.08</ele>
        <time>2019-12-27T15:21:10Z</time>
      </trkpt>
      <trkpt lat="37.5744708069" lon="-8.6251678783">
        <ele>15.04</ele>
        <time>2019-12-27T15:21:23Z</time>
      </trkpt>
      <trkpt lat="37.5746071804" lon="-8.6252708919">
        <ele>14.56</ele>
        <time>2019-12-27T15:21:35Z</time>
      </trkpt>
      <trkpt lat="37.5747471582" lon="-8.6254391167">
        <ele>13.60</ele>
        <time>2019-12-27T15:21:50Z</time>
      </trkpt>
      <trkpt lat="37.5748653430" lon="-8.6255696230">
        <ele>13.12</ele>
        <time>2019-12-27T15:22:02Z</time>
      </trkpt>
      <trkpt lat="37.5749026425" lon="-8.6256097723">
        <ele>13.12</ele>
        <time>2019-12-27T15:22:06Z</time>
      </trkpt>
      <trkpt lat="37.5749251898" lon="-8.6256402824">
        <ele>13.12</ele>
        <time>2019-12-27T15:22:09Z</time>
      </trkpt>
      <trkpt lat="37.5749819353" lon="-8.6257175636">
        <ele>13.12</ele>
        <time>2019-12-27T15:22:16Z</time>
      </trkpt>
      <trkpt lat="37.5750281196" lon="-8.6257696152">
        <ele>13.60</ele>
        <time>2019-12-27T15:22:22Z</time>
      </trkpt>
      <trkpt lat="37.5751253497" lon="-8.6259900592">
        <ele>13.12</ele>
        <time>2019-12-27T15:22:37Z</time>
      </trkpt>
      <trkpt lat="37.5751574524" lon="-8.6260915641">
        <ele>12.63</ele>
        <time>2019-12-27T15:22:44Z</time>
      </trkpt>
      <trkpt lat="37.5752016250" lon="-8.6261895485">
        <ele>12.15</ele>
        <time>2019-12-27T15:22:52Z</time>
      </trkpt>
      <trkpt lat="37.5752630644" lon="-8.6263194680">
        <ele>12.63</ele>
        <time>2019-12-27T15:23:01Z</time>
      </trkpt>
      <trkpt lat="37.5752899703" lon="-8.6264079809">
        <ele>12.63</ele>
        <time>2019-12-27T15:23:06Z</time>
      </trkpt>
      <trkpt lat="37.5753742084" lon="-8.6266280897">
        <ele>12.63</ele>
        <time>2019-12-27T15:23:21Z</time>
      </trkpt>
      <trkpt lat="37.5754234940" lon="-8.6268285010">
        <ele>12.63</ele>
        <time>2019-12-27T15:23:34Z</time>
      </trkpt>
      <trkpt lat="37.5754785631" lon="-8.6269792914">
        <ele>12.63</ele>
        <time>2019-12-27T15:23:44Z</time>
      </trkpt>
      <trkpt lat="37.5755723566" lon="-8.6271668784">
        <ele>12.63</ele>
        <time>2019-12-27T15:23:58Z</time>
      </trkpt>
      <trkpt lat="37.5756298564" lon="-8.6272647791">
        <ele>12.63</ele>
        <time>2019-12-27T15:24:06Z</time>
      </trkpt>
      <trkpt lat="37.5756607018" lon="-8.6272881646">
        <ele>13.12</ele>
        <time>2019-12-27T15:24:09Z</time>
      </trkpt>
      <trkpt lat="37.5757011864" lon="-8.6273540463">
        <ele>13.12</ele>
        <time>2019-12-27T15:24:14Z</time>
      </trkpt>
      <trkpt lat="37.5757359713" lon="-8.6275257915">
        <ele>13.60</ele>
        <time>2019-12-27T15:24:24Z</time>
      </trkpt>
      <trkpt lat="37.5757674873" lon="-8.6275899969">
        <ele>13.12</ele>
        <time>2019-12-27T15:24:29Z</time>
      </trkpt>
      <trkpt lat="37.5758040324" lon="-8.6277273763">
        <ele>13.12</ele>
        <time>2019-12-27T15:24:38Z</time>
      </trkpt>
      <trkpt lat="37.5758387335" lon="-8.6279726308">
        <ele>13.12</ele>
        <time>2019-12-27T15:24:53Z</time>
      </trkpt>
      <trkpt lat="37.5758779608" lon="-8.6281747185">
        <ele>12.63</ele>
        <time>2019-12-27T15:25:05Z</time>
      </trkpt>
      <trkpt lat="37.5759537332" lon="-8.6283721123">
        <ele>12.63</ele>
        <time>2019-12-27T15:25:17Z</time>
      </trkpt>
      <trkpt lat="37.5759882666" lon="-8.6284600385">
        <ele>13.12</ele>
        <time>2019-12-27T15:25:23Z</time>
      </trkpt>
      <trkpt lat="37.5760694034" lon="-8.6286011059">
        <ele>13.12</ele>
        <time>2019-12-27T15:25:34Z</time>
      </trkpt>
      <trkpt lat="37.5761548989" lon="-8.6287147645">
        <ele>13.12</ele>
        <time>2019-12-27T15:25:44Z</time>
      </trkpt>
      <trkpt lat="37.5762602594" lon="-8.6288236454">
        <ele>13.60</ele>
        <time>2019-12-27T15:25:55Z</time>
      </trkpt>
      <trkpt lat="37.5764124747" lon="-8.6289720051">
        <ele>13.60</ele>
        <time>2019-12-27T15:26:09Z</time>
      </trkpt>
      <trkpt lat="37.5764599163" lon="-8.6290237214">
        <ele>12.63</ele>
        <time>2019-12-27T15:26:14Z</time>
      </trkpt>
      <trkpt lat="37.5765308272" lon="-8.6290991586">
        <ele>13.12</ele>
        <time>2019-12-27T15:26:21Z</time>
      </trkpt>
      <trkpt lat="37.5765523687" lon="-8.6291214544">
        <ele>12.63</ele>
        <time>2019-12-27T15:26:23Z</time>
      </trkpt>
      <trkpt lat="37.5767007284" lon="-8.6291889288">
        <ele>13.12</ele>
        <time>2019-12-27T15:26:34Z</time>
      </trkpt>
      <trkpt lat="37.5768200029" lon="-8.6292469315">
        <ele>12.63</ele>
        <time>2019-12-27T15:26:46Z</time>
      </trkpt>
      <trkpt lat="37.5768676959" lon="-8.6292571574">
        <ele>12.15</ele>
        <time>2019-12-27T15:26:49Z</time>
      </trkpt>
      <trkpt lat="37.5769302249" lon="-8.6292725801">
        <ele>12.15</ele>
        <time>2019-12-27T15:26:55Z</time>
      </trkpt>
      <trkpt lat="37.5769835338" lon="-8.6293198541">
        <ele>11.67</ele>
        <time>2019-12-27T15:27:00Z</time>
      </trkpt>
      <trkpt lat="37.5770164747" lon="-8.6293612607">
        <ele>11.67</ele>
        <time>2019-12-27T15:27:04Z</time>
      </trkpt>
      <trkpt lat="37.5770523492" lon="-8.6293860711">
        <ele>11.67</ele>
        <time>2019-12-27T15:27:07Z</time>
      </trkpt>
      <trkpt lat="37.5771231763" lon="-8.6294461694">
        <ele>11.67</ele>
        <time>2019-12-27T15:27:14Z</time>
      </trkpt>
      <trkpt lat="37.5772226695" lon="-8.6295639351">
        <ele>11.67</ele>
        <time>2019-12-27T15:27:25Z</time>
      </trkpt>
      <trkpt lat="37.5772567000" lon="-8.6296091974">
        <ele>12.15</ele>
        <time>2019-12-27T15:27:29Z</time>
      </trkpt>
      <trkpt lat="37.5772772357" lon="-8.6296467483">
        <ele>12.63</ele>
        <time>2019-12-27T15:27:32Z</time>
      </trkpt>
      <trkpt lat="37.5772970170" lon="-8.6297858879">
        <ele>13.60</ele>
        <time>2019-12-27T15:27:43Z</time>
      </trkpt>
      <trkpt lat="37.5772897247" lon="-8.6298443936">
        <ele>14.08</ele>
        <time>2019-12-27T15:27:48Z</time>
      </trkpt>
      <trkpt lat="37.5772421155" lon="-8.6299868859">
        <ele>16.48</ele>
        <time>2019-12-27T15:27:59Z</time>
      </trkpt>
      <trkpt lat="37.5772370026" lon="-8.6300121993">
        <ele>16.48</ele>
        <time>2019-12-27T15:28:01Z</time>
      </trkpt>
      <trkpt lat="37.5771839451" lon="-8.6301440466">
        <ele>18.40</ele>
        <time>2019-12-27T15:28:11Z</time>
      </trkpt>
      <trkpt lat="37.5771581288" lon="-8.6302408576">
        <ele>19.36</ele>
        <time>2019-12-27T15:28:18Z</time>
      </trkpt>
      <trkpt lat="37.5771496631" lon="-8.6303226650">
        <ele>20.32</ele>
        <time>2019-12-27T15:28:24Z</time>
      </trkpt>
      <trkpt lat="37.5771404430" lon="-8.6303456314">
        <ele>20.81</ele>
        <time>2019-12-27T15:28:26Z</time>
      </trkpt>
      <trkpt lat="37.5771246850" lon="-8.6304829270">
        <ele>21.77</ele>
        <time>2019-12-27T15:28:36Z</time>
      </trkpt>
      <trkpt lat="37.5771462265" lon="-8.6306016985">
        <ele>24.17</ele>
        <time>2019-12-27T15:28:46Z</time>
      </trkpt>
      <trkpt lat="37.5771603081" lon="-8.6306433566">
        <ele>24.17</ele>
        <time>2019-12-27T15:28:49Z</time>
      </trkpt>
      <trkpt lat="37.5771608949" lon="-8.6306732800">
        <ele>24.65</ele>
        <time>2019-12-27T15:28:51Z</time>
      </trkpt>
      <trkpt lat="37.5771624874" lon="-8.6307059694">
        <ele>24.65</ele>
        <time>2019-12-27T15:28:53Z</time>
      </trkpt>
      <trkpt lat="37.5771376770" lon="-8.6308943108">
        <ele>26.57</ele>
        <time>2019-12-27T15:29:05Z</time>
      </trkpt>
      <trkpt lat="37.5771163031" lon="-8.6309802253">
        <ele>27.05</ele>
        <time>2019-12-27T15:29:11Z</time>
      </trkpt>
      <trkpt lat="37.5771088433" lon="-8.6311756913">
        <ele>29.46</ele>
        <time>2019-12-27T15:29:25Z</time>
      </trkpt>
      <trkpt lat="37.5771351624" lon="-8.6312783696">
        <ele>30.42</ele>
        <time>2019-12-27T15:29:32Z</time>
      </trkpt>
      <trkpt lat="37.5771872979" lon="-8.6313640326">
        <ele>31.86</ele>
        <time>2019-12-27T15:29:40Z</time>
      </trkpt>
      <trkpt lat="37.5772192329" lon="-8.6314144079">
        <ele>32.82</ele>
        <time>2019-12-27T15:29:45Z</time>
      </trkpt>
      <trkpt lat="37.5772863720" lon="-8.6314862408">
        <ele>34.26</ele>
        <time>2019-12-27T15:29:53Z</time>
      </trkpt>
      <trkpt lat="37.5773315504" lon="-8.6315230373">
        <ele>35.23</ele>
        <time>2019-12-27T15:29:58Z</time>
      </trkpt>
      <trkpt lat="37.5773841888" lon="-8.6315478478">
        <ele>36.67</ele>
        <time>2019-12-27T15:30:03Z</time>
      </trkpt>
      <trkpt lat="37.5774105079" lon="-8.6315714847">
        <ele>37.15</ele>
        <time>2019-12-27T15:30:06Z</time>
      </trkpt>
      <trkpt lat="37.5775037985" lon="-8.6315782741">
        <ele>38.59</ele>
        <time>2019-12-27T15:30:14Z</time>
      </trkpt>
      <trkpt lat="37.5776267610" lon="-8.6315821297">
        <ele>39.07</ele>
        <time>2019-12-27T15:30:24Z</time>
      </trkpt>
      <trkpt lat="37.5777164474" lon="-8.6315848958">
        <ele>40.03</ele>
        <time>2019-12-27T15:30:31Z</time>
      </trkpt>
      <trkpt lat="37.5777855981" lon="-8.6316227820">
        <ele>40.51</ele>
        <time>2019-12-27T15:30:37Z</time>
      </trkpt>
      <trkpt lat="37.5778128393" lon="-8.6316570640">
        <ele>40.03</ele>
        <time>2019-12-27T15:30:40Z</time>
      </trkpt>
      <trkpt lat="37.5778891984" lon="-8.6317119654">
        <ele>40.99</ele>
        <time>2019-12-27T15:30:47Z</time>
      </trkpt>
      <trkpt lat="37.5779192057" lon="-8.6317159887">
        <ele>40.99</ele>
        <time>2019-12-27T15:30:49Z</time>
      </trkpt>
      <trkpt lat="37.5780098140" lon="-8.6317559704">
        <ele>40.99</ele>
        <time>2019-12-27T15:30:57Z</time>
      </trkpt>
      <trkpt lat="37.5780980755" lon="-8.6318598222">
        <ele>41.47</ele>
        <time>2019-12-27T15:31:06Z</time>
      </trkpt>
      <trkpt lat="37.5782017596" lon="-8.6319381930">
        <ele>41.47</ele>
        <time>2019-12-27T15:31:16Z</time>
      </trkpt>
      <trkpt lat="37.5782463513" lon="-8.6319620814">
        <ele>41.47</ele>
        <time>2019-12-27T15:31:20Z</time>
      </trkpt>
      <trkpt lat="37.5783351157" lon="-8.6320026498">
        <ele>41.47</ele>
        <time>2019-12-27T15:31:27Z</time>
      </trkpt>
      <trkpt lat="37.5784935337" lon="-8.6320640054">
        <ele>41.47</ele>
        <time>2019-12-27T15:31:40Z</time>
      </trkpt>
      <trkpt lat="37.5785539672" lon="-8.6320915818">
        <ele>41.47</ele>
        <time>2019-12-27T15:31:45Z</time>
      </trkpt>
      <trkpt lat="37.5787333399" lon="-8.6321716290">
        <ele>41.95</ele>
        <time>2019-12-27T15:32:01Z</time>
      </trkpt>
      <trkpt lat="37.5787718128" lon="-8.6321753170">
        <ele>41.95</ele>
        <time>2019-12-27T15:32:04Z</time>
      </trkpt>
      <trkpt lat="37.5788359344" lon="-8.6321942601">
        <ele>41.95</ele>
        <time>2019-12-27T15:32:09Z</time>
      </trkpt>
      <trkpt lat="37.5788835436" lon="-8.6322349124">
        <ele>41.47</ele>
        <time>2019-12-27T15:32:13Z</time>
      </trkpt>
      <trkpt lat="37.5789951067" lon="-8.6323110200">
        <ele>41.47</ele>
        <time>2019-12-27T15:32:23Z</time>
      </trkpt>
      <trkpt lat="37.5790671073" lon="-8.6323428713">
        <ele>41.47</ele>
        <time>2019-12-27T15:32:29Z</time>
      </trkpt>
      <trkpt lat="37.5791857950" lon="-8.6324043106">
        <ele>41.95</ele>
        <time>2019-12-27T15:32:39Z</time>
      </trkpt>
      <trkpt lat="37.5792117789" lon="-8.6324147880">
        <ele>41.47</ele>
        <time>2019-12-27T15:32:41Z</time>
      </trkpt>
      <trkpt lat="37.5793439616" lon="-8.6324832682">
        <ele>41.47</ele>
        <time>2019-12-27T15:32:52Z</time>
      </trkpt>
      <trkpt lat="37.5794518366" lon="-8.6325561907">
        <ele>41.47</ele>
        <time>2019-12-27T15:33:02Z</time>
      </trkpt>
      <trkpt lat="37.5794586260" lon="-8.6325602140">
        <ele>41.47</ele>
        <time>2019-12-27T15:33:03Z</time>
      </trkpt>
      <trkpt lat="37.5795166288" lon="-8.6325928196">
        <ele>41.47</ele>
        <time>2019-12-27T15:33:09Z</time>
      </trkpt>
      <trkpt lat="37.5795710273" lon="-8.6326555163">
        <ele>41.95</ele>
        <time>2019-12-27T15:33:15Z</time>
      </trkpt>
      <trkpt lat="37.5796265155" lon="-8.6327032931">
        <ele>41.95</ele>
        <time>2019-12-27T15:33:21Z</time>
      </trkpt>
      <trkpt lat="37.5797330495" lon="-8.6327379942">
        <ele>42.44</ele>
        <time>2019-12-27T15:33:31Z</time>
      </trkpt>
      <trkpt lat="37.5797552615" lon="-8.6327557638">
        <ele>42.44</ele>
        <time>2019-12-27T15:33:33Z</time>
      </trkpt>
      <trkpt lat="37.5797832571" lon="-8.6327832565">
        <ele>42.44</ele>
        <time>2019-12-27T15:33:44Z</time>
      </trkpt>
      <trkpt lat="37.5798167009" lon="-8.6327982601">
        <ele>41.95</ele>
        <time>2019-12-27T15:33:47Z</time>
      </trkpt>
      <trkpt lat="37.5798850134" lon="-8.6328169517">
        <ele>42.44</ele>
        <time>2019-12-27T15:33:53Z</time>
      </trkpt>
      <trkpt lat="37.5799183734" lon="-8.6328221485">
        <ele>42.44</ele>
        <time>2019-12-27T15:33:56Z</time>
      </trkpt>
      <trkpt lat="37.5799662340" lon="-8.6328508146">
        <ele>42.44</ele>
        <time>2019-12-27T15:34:01Z</time>
      </trkpt>
      <trkpt lat="37.5799843390" lon="-8.6328695901">
        <ele>42.44</ele>
        <time>2019-12-27T15:34:03Z</time>
      </trkpt>
      <trkpt lat="37.5800317805" lon="-8.6328878626">
        <ele>41.95</ele>
        <time>2019-12-27T15:34:07Z</time>
      </trkpt>
      <trkpt lat="37.5800565071" lon="-8.6328876112">
        <ele>41.95</ele>
        <time>2019-12-27T15:34:09Z</time>
      </trkpt>
      <trkpt lat="37.5801186170" lon="-8.6328982562">
        <ele>41.95</ele>
        <time>2019-12-27T15:34:15Z</time>
      </trkpt>
      <trkpt lat="37.5802642107" lon="-8.6329327058">
        <ele>40.51</ele>
        <time>2019-12-27T15:34:28Z</time>
      </trkpt>
      <trkpt lat="37.5803372171" lon="-8.6329498049">
        <ele>40.03</ele>
        <time>2019-12-27T15:34:35Z</time>
      </trkpt>
      <trkpt lat="37.5803997461" lon="-8.6329795606">
        <ele>40.03</ele>
        <time>2019-12-27T15:34:41Z</time>
      </trkpt>
      <trkpt lat="37.5804761052" lon="-8.6330203805">
        <ele>39.55</ele>
        <time>2019-12-27T15:34:48Z</time>
      </trkpt>
      <trkpt lat="37.5805843156" lon="-8.6331238132">
        <ele>39.07</ele>
        <time>2019-12-27T15:35:00Z</time>
      </trkpt>
      <trkpt lat="37.5806263089" lon="-8.6331725959">
        <ele>38.59</ele>
        <time>2019-12-27T15:35:05Z</time>
      </trkpt>
      <trkpt lat="37.5806359481" lon="-8.6332015134">
        <ele>38.59</ele>
        <time>2019-12-27T15:35:07Z</time>
      </trkpt>
      <trkpt lat="37.5806663744" lon="-8.6332281679">
        <ele>39.07</ele>
        <time>2019-12-27T15:35:11Z</time>
      </trkpt>
      <trkpt lat="37.5808036700" lon="-8.6333637871">
        <ele>37.15</ele>
        <time>2019-12-27T15:35:26Z</time>
      </trkpt>
      <trkpt lat="37.5808967929" lon="-8.6334683932">
        <ele>37.15</ele>
        <time>2019-12-27T15:35:37Z</time>
      </trkpt>
      <trkpt lat="37.5809786003" lon="-8.6335948762">
        <ele>37.15</ele>
        <time>2019-12-27T15:35:47Z</time>
      </trkpt>
      <trkpt lat="37.5810150616" lon="-8.6336252186">
        <ele>37.15</ele>
        <time>2019-12-27T15:35:51Z</time>
      </trkpt>
      <trkpt lat="37.5811430532" lon="-8.6337513663">
        <ele>37.15</ele>
        <time>2019-12-27T15:36:05Z</time>
      </trkpt>
      <trkpt lat="37.5811718032" lon="-8.6337790266">
        <ele>37.15</ele>
        <time>2019-12-27T15:36:08Z</time>
      </trkpt>
      <trkpt lat="37.5812947657" lon="-8.6338936072">
        <ele>37.15</ele>
        <time>2019-12-27T15:36:21Z</time>
      </trkpt>
      <trkpt lat="37.5813126191" lon="-8.6339148972">
        <ele>36.67</ele>
        <time>2019-12-27T15:36:23Z</time>
      </trkpt>
      <trkpt lat="37.5813566241" lon="-8.6339560524">
        <ele>36.19</ele>
        <time>2019-12-27T15:36:28Z</time>
      </trkpt>
      <trkpt lat="37.5813943427" lon="-8.6339783482">
        <ele>36.19</ele>
        <time>2019-12-27T15:36:32Z</time>
      </trkpt>
      <trkpt lat="37.5814133696" lon="-8.6340185814">
        <ele>36.67</ele>
        <time>2019-12-27T15:36:35Z</time>
      </trkpt>
      <trkpt lat="37.5814487413" lon="-8.6340733152">
        <ele>35.71</ele>
        <time>2019-12-27T15:36:40Z</time>
      </trkpt>
      <trkpt lat="37.5814794190" lon="-8.6341212597">
        <ele>36.19</ele>
        <time>2019-12-27T15:36:44Z</time>
      </trkpt>
      <trkpt lat="37.5815013796" lon="-8.6341547873">
        <ele>35.71</ele>
        <time>2019-12-27T15:36:47Z</time>
      </trkpt>
      <trkpt lat="37.5815274473" lon="-8.6342023965">
        <ele>35.71</ele>
        <time>2019-12-27T15:36:51Z</time>
      </trkpt>
      <trkpt lat="37.5815459713" lon="-8.6342134606">
        <ele>35.71</ele>
        <time>2019-12-27T15:36:53Z</time>
      </trkpt>
      <trkpt lat="37.5816429500" lon="-8.6343308911">
        <ele>35.71</ele>
        <time>2019-12-27T15:37:05Z</time>
      </trkpt>
      <trkpt lat="37.5817332231" lon="-8.6344297975">
        <ele>35.71</ele>
        <time>2019-12-27T15:37:15Z</time>
      </trkpt>
      <trkpt lat="37.5818169583" lon="-8.6345794145">
        <ele>34.74</ele>
        <time>2019-12-27T15:37:28Z</time>
      </trkpt>
      <trkpt lat="37.5818495639" lon="-8.6346412729">
        <ele>35.23</ele>
        <time>2019-12-27T15:37:33Z</time>
      </trkpt>
      <trkpt lat="37.5819011126" lon="-8.6348110903">
        <ele>34.26</ele>
        <time>2019-12-27T15:37:46Z</time>
      </trkpt>
      <trkpt lat="37.5818892941" lon="-8.6350291874">
        <ele>33.30</ele>
        <time>2019-12-27T15:38:02Z</time>
      </trkpt>
      <trkpt lat="37.5818836782" lon="-8.6351416726">
        <ele>32.82</ele>
        <time>2019-12-27T15:38:10Z</time>
      </trkpt>
      <trkpt lat="37.5818357337" lon="-8.6353653856">
        <ele>30.90</ele>
        <time>2019-12-27T15:38:26Z</time>
      </trkpt>
      <trkpt lat="37.5818188861" lon="-8.6354686506">
        <ele>30.90</ele>
        <time>2019-12-27T15:38:33Z</time>
      </trkpt>
      <trkpt lat="37.5817822572" lon="-8.6356854066">
        <ele>29.46</ele>
        <time>2019-12-27T15:38:47Z</time>
      </trkpt>
      <trkpt lat="37.5817733724" lon="-8.6357659567">
        <ele>29.46</ele>
        <time>2019-12-27T15:38:52Z</time>
      </trkpt>
      <trkpt lat="37.5817547645" lon="-8.6358517874">
        <ele>28.50</ele>
        <time>2019-12-27T15:39:05Z</time>
      </trkpt>
      <trkpt lat="37.5817527529" lon="-8.6358543020">
        <ele>28.50</ele>
        <time>2019-12-27T15:39:17Z</time>
      </trkpt>
      <trkpt lat="37.5817629788" lon="-8.6358756758">
        <ele>28.50</ele>
        <time>2019-12-27T15:39:20Z</time>
      </trkpt>
      <trkpt lat="37.5817707740" lon="-8.6361239478">
        <ele>27.53</ele>
        <time>2019-12-27T15:39:37Z</time>
      </trkpt>
      <trkpt lat="37.5817916449" lon="-8.6362183280">
        <ele>27.05</ele>
        <time>2019-12-27T15:39:43Z</time>
      </trkpt>
      <trkpt lat="37.5817985181" lon="-8.6362970341">
        <ele>27.05</ele>
        <time>2019-12-27T15:39:48Z</time>
      </trkpt>
      <trkpt lat="37.5818032119" lon="-8.6363985389">
        <ele>26.09</ele>
        <time>2019-12-27T15:39:55Z</time>
      </trkpt>
      <trkpt lat="37.5817929022" lon="-8.6364316475">
        <ele>25.61</ele>
        <time>2019-12-27T15:39:58Z</time>
      </trkpt>
      <trkpt lat="37.5817522500" lon="-8.6366469786">
        <ele>23.69</ele>
        <time>2019-12-27T15:40:13Z</time>
      </trkpt>
      <trkpt lat="37.5817219913" lon="-8.6368604656">
        <ele>22.25</ele>
        <time>2019-12-27T15:40:27Z</time>
      </trkpt>
      <trkpt lat="37.5817051437" lon="-8.6370843463">
        <ele>20.32</ele>
        <time>2019-12-27T15:40:42Z</time>
      </trkpt>
      <trkpt lat="37.5817032158" lon="-8.6371285189">
        <ele>19.84</ele>
        <time>2019-12-27T15:40:45Z</time>
      </trkpt>
      <trkpt lat="37.5816882960" lon="-8.6373657268">
        <ele>17.92</ele>
        <time>2019-12-27T15:41:01Z</time>
      </trkpt>
      <trkpt lat="37.5817383360" lon="-8.6375974026">
        <ele>16.48</ele>
        <time>2019-12-27T15:41:16Z</time>
      </trkpt>
      <trkpt lat="37.5818501506" lon="-8.6377564073">
        <ele>15.52</ele>
        <time>2019-12-27T15:41:30Z</time>
      </trkpt>
      <trkpt lat="37.5818648189" lon="-8.6377802119">
        <ele>15.04</ele>
        <time>2019-12-27T15:41:32Z</time>
      </trkpt>
      <trkpt lat="37.5819186307" lon="-8.6378303356">
        <ele>14.56</ele>
        <time>2019-12-27T15:41:37Z</time>
      </trkpt>
      <trkpt lat="37.5820722710" lon="-8.6379193515">
        <ele>14.56</ele>
        <time>2019-12-27T15:41:51Z</time>
      </trkpt>
      <trkpt lat="37.5821281783" lon="-8.6379538849">
        <ele>14.56</ele>
        <time>2019-12-27T15:41:57Z</time>
      </trkpt>
      <trkpt lat="37.5821752846" lon="-8.6379749235">
        <ele>14.08</ele>
        <time>2019-12-27T15:42:01Z</time>
      </trkpt>
      <trkpt lat="37.5823349599" lon="-8.6380313337">
        <ele>13.60</ele>
        <time>2019-12-27T15:42:14Z</time>
      </trkpt>
      <trkpt lat="37.5823484547" lon="-8.6380409729">
        <ele>13.60</ele>
        <time>2019-12-27T15:42:16Z</time>
      </trkpt>
      <trkpt lat="37.5823875144" lon="-8.6380543001">
        <ele>13.12</ele>
        <time>2019-12-27T15:42:19Z</time>
      </trkpt>
      <trkpt lat="37.5824706629" lon="-8.6380543001">
        <ele>13.12</ele>
        <time>2019-12-27T15:42:25Z</time>
      </trkpt>
      <trkpt lat="37.5825471897" lon="-8.6380642746">
        <ele>13.12</ele>
        <time>2019-12-27T15:42:31Z</time>
      </trkpt>
      <trkpt lat="37.5827443320" lon="-8.6380348541">
        <ele>12.63</ele>
        <time>2019-12-27T15:42:46Z</time>
      </trkpt>
      <trkpt lat="37.5827946234" lon="-8.6380309984">
        <ele>12.63</ele>
        <time>2019-12-27T15:42:50Z</time>
      </trkpt>
      <trkpt lat="37.5829809532" lon="-8.6379856523">
        <ele>13.12</ele>
        <time>2019-12-27T15:43:05Z</time>
      </trkpt>
      <trkpt lat="37.5831097830" lon="-8.6379540525">
        <ele>12.63</ele>
        <time>2019-12-27T15:43:16Z</time>
      </trkpt>
      <trkpt lat="37.5831326656" lon="-8.6379460059">
        <ele>12.63</ele>
        <time>2019-12-27T15:43:18Z</time>
      </trkpt>
      <trkpt lat="37.5832673628" lon="-8.6379191838">
        <ele>12.63</ele>
        <time>2019-12-27T15:43:29Z</time>
      </trkpt>
      <trkpt lat="37.5833847094" lon="-8.6378991511">
        <ele>12.15</ele>
        <time>2019-12-27T15:43:39Z</time>
      </trkpt>
      <trkpt lat="37.5834287982" lon="-8.6378829740">
        <ele>12.63</ele>
        <time>2019-12-27T15:43:43Z</time>
      </trkpt>
      <trkpt lat="37.5835885573" lon="-8.6378559005">
        <ele>12.15</ele>
        <time>2019-12-27T15:43:55Z</time>
      </trkpt>
      <trkpt lat="37.5836037286" lon="-8.6378512904">
        <ele>12.63</ele>
        <time>2019-12-27T15:43:56Z</time>
      </trkpt>
      <trkpt lat="37.5836351607" lon="-8.6378530506">
        <ele>12.15</ele>
        <time>2019-12-27T15:43:59Z</time>
      </trkpt>
      <trkpt lat="37.5837996136" lon="-8.6378029268">
        <ele>12.15</ele>
        <time>2019-12-27T15:44:13Z</time>
      </trkpt>
      <trkpt lat="37.5838121027" lon="-8.6377972271">
        <ele>12.15</ele>
        <time>2019-12-27T15:44:14Z</time>
      </trkpt>
      <trkpt lat="37.5839042198" lon="-8.6378027592">
        <ele>12.63</ele>
        <time>2019-12-27T15:44:21Z</time>
      </trkpt>
      <trkpt lat="37.5839660782" lon="-8.6378702335">
        <ele>12.15</ele>
        <time>2019-12-27T15:44:28Z</time>
      </trkpt>
      <trkpt lat="37.5839808304" lon="-8.6378958821">
        <ele>12.63</ele>
        <time>2019-12-27T15:44:40Z</time>
      </trkpt>
      <trkpt lat="37.5840226561" lon="-8.6379592493">
        <ele>12.63</ele>
        <time>2019-12-27T15:44:46Z</time>
      </trkpt>
      <trkpt lat="37.5841247477" lon="-8.6380610056">
        <ele>13.12</ele>
        <time>2019-12-27T15:44:56Z</time>
      </trkpt>
      <trkpt lat="37.5841814093" lon="-8.6380710639">
        <ele>13.12</ele>
        <time>2019-12-27T15:45:00Z</time>
      </trkpt>
      <trkpt lat="37.5842723530" lon="-8.6381180864">
        <ele>13.60</ele>
        <time>2019-12-27T15:45:08Z</time>
      </trkpt>
      <trkpt lat="37.5842962414" lon="-8.6381304078">
        <ele>13.60</ele>
        <time>2019-12-27T15:45:10Z</time>
      </trkpt>
      <trkpt lat="37.5843189564" lon="-8.6381415557">
        <ele>13.60</ele>
        <time>2019-12-27T15:45:12Z</time>
      </trkpt>
      <trkpt lat="37.5843725167" lon="-8.6381806154">
        <ele>13.60</ele>
        <time>2019-12-27T15:45:17Z</time>
      </trkpt>
      <trkpt lat="37.5844849180" lon="-8.6382291466">
        <ele>13.60</ele>
        <time>2019-12-27T15:45:26Z</time>
      </trkpt>
      <trkpt lat="37.5845680665" lon="-8.6382749956">
        <ele>14.08</ele>
        <time>2019-12-27T15:45:33Z</time>
      </trkpt>
      <trkpt lat="37.5847557373" lon="-8.6383691244">
        <ele>14.56</ele>
        <time>2019-12-27T15:45:49Z</time>
      </trkpt>
      <trkpt lat="37.5849174242" lon="-8.6384535301">
        <ele>14.56</ele>
        <time>2019-12-27T15:46:03Z</time>
      </trkpt>
      <trkpt lat="37.5849730801" lon="-8.6384963617">
        <ele>15.04</ele>
        <time>2019-12-27T15:46:09Z</time>
      </trkpt>
      <trkpt lat="37.5850988086" lon="-8.6385773309">
        <ele>15.04</ele>
        <time>2019-12-27T15:46:21Z</time>
      </trkpt>
      <trkpt lat="37.5851636846" lon="-8.6386216711">
        <ele>15.04</ele>
        <time>2019-12-27T15:46:27Z</time>
      </trkpt>
      <trkpt lat="37.5852615852" lon="-8.6387924943">
        <ele>15.52</ele>
        <time>2019-12-27T15:46:41Z</time>
      </trkpt>
      <trkpt lat="37.5852905866" lon="-8.6388438754">
        <ele>15.04</ele>
        <time>2019-12-27T15:46:55Z</time>
      </trkpt>
      <trkpt lat="37.5852990523" lon="-8.6388520058">
        <ele>15.04</ele>
        <time>2019-12-27T15:47:13Z</time>
      </trkpt>
      <trkpt lat="37.5853293110" lon="-8.6388617288">
        <ele>15.04</ele>
        <time>2019-12-27T15:47:33Z</time>
      </trkpt>
      <trkpt lat="37.5853293110" lon="-8.6388617288">
        <ele>15.04</ele>
        <time>2019-12-27T15:47:36Z</time>
      </trkpt>
      <trkpt lat="37.5853506848" lon="-8.6388722900">
        <ele>14.56</ele>
        <time>2019-12-27T15:47:38Z</time>
      </trkpt>
      <trkpt lat="37.5854113698" lon="-8.6388966814">
        <ele>14.08</ele>
        <time>2019-12-27T15:47:43Z</time>
      </trkpt>
      <trkpt lat="37.5855740625" lon="-8.6389473919">
        <ele>14.56</ele>
        <time>2019-12-27T15:47:57Z</time>
      </trkpt>
      <trkpt lat="37.5855841208" lon="-8.6389535107">
        <ele>14.08</ele>
        <time>2019-12-27T15:47:58Z</time>
      </trkpt>
      <trkpt lat="37.5856626593" lon="-8.6389571987">
        <ele>14.08</ele>
        <time>2019-12-27T15:48:05Z</time>
      </trkpt>
      <trkpt lat="37.5857992005" lon="-8.6389504932">
        <ele>14.08</ele>
        <time>2019-12-27T15:48:16Z</time>
      </trkpt>
      <trkpt lat="37.5858663395" lon="-8.6389550194">
        <ele>14.56</ele>
        <time>2019-12-27T15:48:22Z</time>
      </trkpt>
      <trkpt lat="37.5860522501" lon="-8.6389610544">
        <ele>15.04</ele>
        <time>2019-12-27T15:48:37Z</time>
      </trkpt>
      <trkpt lat="37.5861247536" lon="-8.6390100047">
        <ele>15.04</ele>
        <time>2019-12-27T15:48:44Z</time>
      </trkpt>
      <trkpt lat="37.5861865282" lon="-8.6390457954">
        <ele>15.52</ele>
        <time>2019-12-27T15:48:50Z</time>
      </trkpt>
      <trkpt lat="37.5862314552" lon="-8.6390883755">
        <ele>15.04</ele>
        <time>2019-12-27T15:48:55Z</time>
      </trkpt>
      <trkpt lat="37.5863161124" lon="-8.6391695961">
        <ele>14.56</ele>
        <time>2019-12-27T15:49:05Z</time>
      </trkpt>
      <trkpt lat="37.5864594430" lon="-8.6392130982">
        <ele>14.08</ele>
        <time>2019-12-27T15:49:17Z</time>
      </trkpt>
      <trkpt lat="37.5866188668" lon="-8.6391454563">
        <ele>13.60</ele>
        <time>2019-12-27T15:49:30Z</time>
      </trkpt>
      <trkpt lat="37.5866290927" lon="-8.6391387507">
        <ele>13.60</ele>
        <time>2019-12-27T15:49:31Z</time>
      </trkpt>
      <trkpt lat="37.5867759436" lon="-8.6389955040">
        <ele>13.60</ele>
        <time>2019-12-27T15:49:47Z</time>
      </trkpt>
      <trkpt lat="37.5868513808" lon="-8.6389492359">
        <ele>13.60</ele>
        <time>2019-12-27T15:49:53Z</time>
      </trkpt>
      <trkpt lat="37.5870086253" lon="-8.6389534269">
        <ele>13.60</ele>
        <time>2019-12-27T15:50:07Z</time>
      </trkpt>
      <trkpt lat="37.5870548096" lon="-8.6389874574">
        <ele>13.12</ele>
        <time>2019-12-27T15:50:12Z</time>
      </trkpt>
      <trkpt lat="37.5872051809" lon="-8.6391050555">
        <ele>12.63</ele>
        <time>2019-12-27T15:50:27Z</time>
      </trkpt>
      <trkpt lat="37.5872429833" lon="-8.6391475517">
        <ele>12.63</ele>
        <time>2019-12-27T15:50:31Z</time>
      </trkpt>
      <trkpt lat="37.5873655267" lon="-8.6392711848">
        <ele>12.63</ele>
        <time>2019-12-27T15:50:45Z</time>
      </trkpt>
      <trkpt lat="37.5874120463" lon="-8.6392992642">
        <ele>13.12</ele>
        <time>2019-12-27T15:51:00Z</time>
      </trkpt>
      <trkpt lat="37.5874148123" lon="-8.6392968334">
        <ele>13.12</ele>
        <time>2019-12-27T15:51:35Z</time>
      </trkpt>
      <trkpt lat="37.5874236971" lon="-8.6392980069">
        <ele>12.63</ele>
        <time>2019-12-27T15:51:51Z</time>
      </trkpt>
      <trkpt lat="37.5874464959" lon="-8.6393054668">
        <ele>13.12</ele>
        <time>2019-12-27T15:51:53Z</time>
      </trkpt>
      <trkpt lat="37.5876221806" lon="-8.6393956561">
        <ele>12.63</ele>
        <time>2019-12-27T15:52:09Z</time>
      </trkpt>
      <trkpt lat="37.5877523515" lon="-8.6394470371">
        <ele>12.63</ele>
        <time>2019-12-27T15:52:22Z</time>
      </trkpt>
      <trkpt lat="37.5877529383" lon="-8.6394499708">
        <ele>12.63</ele>
        <time>2019-12-27T15:52:32Z</time>
      </trkpt>
      <trkpt lat="37.5877629127" lon="-8.6394554190">
        <ele>12.63</ele>
        <time>2019-12-27T15:52:34Z</time>
      </trkpt>
      <trkpt lat="37.5878306385" lon="-8.6394713446">
        <ele>12.15</ele>
        <time>2019-12-27T15:52:40Z</time>
      </trkpt>
      <trkpt lat="37.5879855361" lon="-8.6394818220">
        <ele>12.15</ele>
        <time>2019-12-27T15:52:53Z</time>
      </trkpt>
      <trkpt lat="37.5881633162" lon="-8.6395251565">
        <ele>11.67</ele>
        <time>2019-12-27T15:53:07Z</time>
      </trkpt>
      <trkpt lat="37.5882329699" lon="-8.6395500507">
        <ele>12.15</ele>
        <time>2019-12-27T15:53:13Z</time>
      </trkpt>
      <trkpt lat="37.5882550143" lon="-8.6395596899">
        <ele>11.67</ele>
        <time>2019-12-27T15:53:15Z</time>
      </trkpt>
      <trkpt lat="37.5883812457" lon="-8.6396723427">
        <ele>12.15</ele>
        <time>2019-12-27T15:53:28Z</time>
      </trkpt>
      <trkpt lat="37.5883906335" lon="-8.6396809760">
        <ele>12.15</ele>
        <time>2019-12-27T15:53:29Z</time>
      </trkpt>
      <trkpt lat="37.5884647295" lon="-8.6397739314">
        <ele>12.63</ele>
        <time>2019-12-27T15:53:38Z</time>
      </trkpt>
      <trkpt lat="37.5885003526" lon="-8.6398325209">
        <ele>12.63</ele>
        <time>2019-12-27T15:53:43Z</time>
      </trkpt>
      <trkpt lat="37.5885331258" lon="-8.6398835666">
        <ele>12.63</ele>
        <time>2019-12-27T15:53:48Z</time>
      </trkpt>
      <trkpt lat="37.5885812379" lon="-8.6399440002">
        <ele>13.12</ele>
        <time>2019-12-27T15:53:54Z</time>
      </trkpt>
      <trkpt lat="37.5886581838" lon="-8.6400849838">
        <ele>14.56</ele>
        <time>2019-12-27T15:54:06Z</time>
      </trkpt>
      <trkpt lat="37.5886776298" lon="-8.6403003987">
        <ele>15.04</ele>
        <time>2019-12-27T15:54:20Z</time>
      </trkpt>
      <trkpt lat="37.5886705890" lon="-8.6403856426">
        <ele>16.00</ele>
        <time>2019-12-27T15:54:25Z</time>
      </trkpt>
      <trkpt lat="37.5886734389" lon="-8.6405697931">
        <ele>16.96</ele>
        <time>2019-12-27T15:54:37Z</time>
      </trkpt>
      <trkpt lat="37.5886813179" lon="-8.6405950226">
        <ele>16.96</ele>
        <time>2019-12-27T15:54:39Z</time>
      </trkpt>
      <trkpt lat="37.5886705052" lon="-8.6407045741">
        <ele>17.44</ele>
        <time>2019-12-27T15:54:46Z</time>
      </trkpt>
      <trkpt lat="37.5886673201" lon="-8.6407474894">
        <ele>17.92</ele>
        <time>2019-12-27T15:54:49Z</time>
      </trkpt>
      <trkpt lat="37.5886578485" lon="-8.6408313084">
        <ele>17.92</ele>
        <time>2019-12-27T15:54:54Z</time>
      </trkpt>
      <trkpt lat="37.5886508916" lon="-8.6408800073">
        <ele>17.92</ele>
        <time>2019-12-27T15:54:57Z</time>
      </trkpt>
      <trkpt lat="37.5886552501" lon="-8.6409078352">
        <ele>17.92</ele>
        <time>2019-12-27T15:54:59Z</time>
      </trkpt>
      <trkpt lat="37.5886444375" lon="-8.6409380101">
        <ele>17.44</ele>
        <time>2019-12-27T15:55:02Z</time>
      </trkpt>
      <trkpt lat="37.5886329543" lon="-8.6410334799">
        <ele>17.92</ele>
        <time>2019-12-27T15:55:08Z</time>
      </trkpt>
      <trkpt lat="37.5885875244" lon="-8.6412369087">
        <ele>18.40</ele>
        <time>2019-12-27T15:55:21Z</time>
      </trkpt>
      <trkpt lat="37.5885464530" lon="-8.6414483842">
        <ele>18.40</ele>
        <time>2019-12-27T15:55:35Z</time>
      </trkpt>
      <trkpt lat="37.5885408372" lon="-8.6414850131">
        <ele>17.92</ele>
        <time>2019-12-27T15:55:37Z</time>
      </trkpt>
      <trkpt lat="37.5885015260" lon="-8.6416547466">
        <ele>16.96</ele>
        <time>2019-12-27T15:55:48Z</time>
      </trkpt>
      <trkpt lat="37.5885028671" lon="-8.6416945606">
        <ele>16.48</ele>
        <time>2019-12-27T15:55:50Z</time>
      </trkpt>
      <trkpt lat="37.5885001011" lon="-8.6417454388">
        <ele>16.00</ele>
        <time>2019-12-27T15:55:53Z</time>
      </trkpt>
      <trkpt lat="37.5884695910" lon="-8.6419270746">
        <ele>15.52</ele>
        <time>2019-12-27T15:56:05Z</time>
      </trkpt>
      <trkpt lat="37.5884380750" lon="-8.6420263164">
        <ele>15.04</ele>
        <time>2019-12-27T15:56:11Z</time>
      </trkpt>
      <trkpt lat="37.5884055533" lon="-8.6421916913">
        <ele>15.04</ele>
        <time>2019-12-27T15:56:22Z</time>
      </trkpt>
      <trkpt lat="37.5884037931" lon="-8.6422370374">
        <ele>14.56</ele>
        <time>2019-12-27T15:56:25Z</time>
      </trkpt>
      <trkpt lat="37.5884152763" lon="-8.6422978062">
        <ele>14.08</ele>
        <time>2019-12-27T15:56:29Z</time>
      </trkpt>
      <trkpt lat="37.5884472113" lon="-8.6424024962">
        <ele>14.56</ele>
        <time>2019-12-27T15:56:36Z</time>
      </trkpt>
      <trkpt lat="37.5885318685" lon="-8.6424948648">
        <ele>15.04</ele>
        <time>2019-12-27T15:56:45Z</time>
      </trkpt>
      <trkpt lat="37.5885854289" lon="-8.6425579805">
        <ele>14.56</ele>
        <time>2019-12-27T15:56:52Z</time>
      </trkpt>
      <trkpt lat="37.5886434317" lon="-8.6426506005">
        <ele>15.04</ele>
        <time>2019-12-27T15:56:59Z</time>
      </trkpt>
      <trkpt lat="37.5886638835" lon="-8.6426618323">
        <ele>15.04</ele>
        <time>2019-12-27T15:57:01Z</time>
      </trkpt>
      <trkpt lat="37.5886804797" lon="-8.6426806916">
        <ele>15.52</ele>
        <time>2019-12-27T15:57:03Z</time>
      </trkpt>
      <trkpt lat="37.5887197908" lon="-8.6427318212">
        <ele>15.04</ele>
        <time>2019-12-27T15:57:08Z</time>
      </trkpt>
      <trkpt lat="37.5887389015" lon="-8.6427630857">
        <ele>15.04</ele>
        <time>2019-12-27T15:57:11Z</time>
      </trkpt>
      <trkpt lat="37.5887904502" lon="-8.6429672688">
        <ele>14.56</ele>
        <time>2019-12-27T15:57:25Z</time>
      </trkpt>
      <trkpt lat="37.5888043642" lon="-8.6429817695">
        <ele>14.56</ele>
        <time>2019-12-27T15:57:39Z</time>
      </trkpt>
      <trkpt lat="37.5888071302" lon="-8.6430037301">
        <ele>14.56</ele>
        <time>2019-12-27T15:57:53Z</time>
      </trkpt>
      <trkpt lat="37.5888075493" lon="-8.6430326477">
        <ele>15.04</ele>
        <time>2019-12-27T15:57:55Z</time>
      </trkpt>
      <trkpt lat="37.5888124108" lon="-8.6431192327">
        <ele>15.04</ele>
        <time>2019-12-27T15:58:01Z</time>
      </trkpt>
      <trkpt lat="37.5888177752" lon="-8.6431882996">
        <ele>15.04</ele>
        <time>2019-12-27T15:58:06Z</time>
      </trkpt>
      <trkpt lat="37.5888114888" lon="-8.6432457156">
        <ele>15.04</ele>
        <time>2019-12-27T15:58:10Z</time>
      </trkpt>
      <trkpt lat="37.5887947250" lon="-8.6434250046">
        <ele>14.56</ele>
        <time>2019-12-27T15:58:21Z</time>
      </trkpt>
      <trkpt lat="37.5887896959" lon="-8.6435643118">
        <ele>13.60</ele>
        <time>2019-12-27T15:58:30Z</time>
      </trkpt>
      <trkpt lat="37.5888000894" lon="-8.6436152738">
        <ele>13.12</ele>
        <time>2019-12-27T15:58:33Z</time>
      </trkpt>
      <trkpt lat="37.5888497103" lon="-8.6437388230">
        <ele>13.12</ele>
        <time>2019-12-27T15:58:41Z</time>
      </trkpt>
      <trkpt lat="37.5888781250" lon="-8.6438622046">
        <ele>12.63</ele>
        <time>2019-12-27T15:58:49Z</time>
      </trkpt>
      <trkpt lat="37.5889019296" lon="-8.6440617777">
        <ele>13.12</ele>
        <time>2019-12-27T15:59:02Z</time>
      </trkpt>
      <trkpt lat="37.5889066234" lon="-8.6440969817">
        <ele>12.63</ele>
        <time>2019-12-27T15:59:04Z</time>
      </trkpt>
      <trkpt lat="37.5889176037" lon="-8.6442224588">
        <ele>13.60</ele>
        <time>2019-12-27T15:59:12Z</time>
      </trkpt>
      <trkpt lat="37.5889383070" lon="-8.6444448307">
        <ele>14.08</ele>
        <time>2019-12-27T15:59:27Z</time>
      </trkpt>
      <trkpt lat="37.5888809748" lon="-8.6445598304">
        <ele>13.60</ele>
        <time>2019-12-27T15:59:36Z</time>
      </trkpt>
      <trkpt lat="37.5888363831" lon="-8.6446329206">
        <ele>12.63</ele>
        <time>2019-12-27T15:59:42Z</time>
      </trkpt>
      <trkpt lat="37.5887958147" lon="-8.6446566414">
        <ele>12.15</ele>
        <time>2019-12-27T15:59:46Z</time>
      </trkpt>
      <trkpt lat="37.5886741094" lon="-8.6447832920">
        <ele>11.67</ele>
        <time>2019-12-27T15:59:58Z</time>
      </trkpt>
      <trkpt lat="37.5886601955" lon="-8.6448279675">
        <ele>11.67</ele>
        <time>2019-12-27T16:00:01Z</time>
      </trkpt>
      <trkpt lat="37.5886497181" lon="-8.6448613275">
        <ele>11.67</ele>
        <time>2019-12-27T16:00:03Z</time>
      </trkpt>
      <trkpt lat="37.5886541605" lon="-8.6449023150">
        <ele>11.67</ele>
        <time>2019-12-27T16:00:06Z</time>
      </trkpt>
      <trkpt lat="37.5886633806" lon="-8.6449844576">
        <ele>11.67</ele>
        <time>2019-12-27T16:00:11Z</time>
      </trkpt>
      <trkpt lat="37.5887236465" lon="-8.6450672708">
        <ele>12.15</ele>
        <time>2019-12-27T16:00:17Z</time>
      </trkpt>
      <trkpt lat="37.5887645502" lon="-8.6451092642">
        <ele>12.15</ele>
        <time>2019-12-27T16:00:21Z</time>
      </trkpt>
      <trkpt lat="37.5888489559" lon="-8.6451830249">
        <ele>12.63</ele>
        <time>2019-12-27T16:00:30Z</time>
      </trkpt>
      <trkpt lat="37.5888688210" lon="-8.6452351604">
        <ele>12.63</ele>
        <time>2019-12-27T16:00:34Z</time>
      </trkpt>
      <trkpt lat="37.5888482016" lon="-8.6453718692">
        <ele>12.63</ele>
        <time>2019-12-27T16:00:44Z</time>
      </trkpt>
      <trkpt lat="37.5888430886" lon="-8.6454320513">
        <ele>12.15</ele>
        <time>2019-12-27T16:00:49Z</time>
      </trkpt>
      <trkpt lat="37.5889843237" lon="-8.6455657426">
        <ele>11.67</ele>
        <time>2019-12-27T16:01:02Z</time>
      </trkpt>
      <trkpt lat="37.5891064480" lon="-8.6456945725">
        <ele>11.19</ele>
        <time>2019-12-27T16:01:15Z</time>
      </trkpt>
      <trkpt lat="37.5892164186" lon="-8.6457824148">
        <ele>11.67</ele>
        <time>2019-12-27T16:01:25Z</time>
      </trkpt>
      <trkpt lat="37.5892613456" lon="-8.6458260845">
        <ele>11.67</ele>
        <time>2019-12-27T16:01:29Z</time>
      </trkpt>
      <trkpt lat="37.5893565640" lon="-8.6459130049">
        <ele>11.67</ele>
        <time>2019-12-27T16:01:43Z</time>
      </trkpt>
      <trkpt lat="37.5893641915" lon="-8.6459190398">
        <ele>11.19</ele>
        <time>2019-12-27T16:01:57Z</time>
      </trkpt>
      <trkpt lat="37.5894410536" lon="-8.6459917948">
        <ele>11.19</ele>
        <time>2019-12-27T16:02:05Z</time>
      </trkpt>
      <trkpt lat="37.5895796902" lon="-8.6460861750">
        <ele>11.67</ele>
        <time>2019-12-27T16:02:18Z</time>
      </trkpt>
      <trkpt lat="37.5897269603" lon="-8.6461751070">
        <ele>12.15</ele>
        <time>2019-12-27T16:02:32Z</time>
      </trkpt>
      <trkpt lat="37.5897649303" lon="-8.6462141667">
        <ele>12.15</ele>
        <time>2019-12-27T16:02:36Z</time>
      </trkpt>
      <trkpt lat="37.5898049120" lon="-8.6462452635">
        <ele>12.63</ele>
        <time>2019-12-27T16:02:52Z</time>
      </trkpt>
      <trkpt lat="37.5898042414" lon="-8.6462458503">
        <ele>12.63</ele>
        <time>2019-12-27T16:03:26Z</time>
      </trkpt>
      <trkpt lat="37.5898039062" lon="-8.6462476104">
        <ele>12.63</ele>
        <time>2019-12-27T16:04:02Z</time>
      </trkpt>
      <trkpt lat="37.5898039062" lon="-8.6462476104">
        <ele>12.63</ele>
        <time>2019-12-27T16:04:31Z</time>
      </trkpt>
      <trkpt lat="37.5898158085" lon="-8.6462612730">
        <ele>12.63</ele>
        <time>2019-12-27T16:04:48Z</time>
      </trkpt>
      <trkpt lat="37.5898435526" lon="-8.6462771147">
        <ele>12.63</ele>
        <time>2019-12-27T16:04:51Z</time>
      </trkpt>
      <trkpt lat="37.5898802653" lon="-8.6463060323">
        <ele>13.12</ele>
        <time>2019-12-27T16:04:55Z</time>
      </trkpt>
      <trkpt lat="37.5900130346" lon="-8.6463699024">
        <ele>12.63</ele>
        <time>2019-12-27T16:05:08Z</time>
      </trkpt>
      <trkpt lat="37.5901466422" lon="-8.6464077048">
        <ele>13.12</ele>
        <time>2019-12-27T16:05:19Z</time>
      </trkpt>
      <trkpt lat="37.5902489852" lon="-8.6464912724">
        <ele>13.12</ele>
        <time>2019-12-27T16:05:29Z</time>
      </trkpt>
      <trkpt lat="37.5902618095" lon="-8.6465589143">
        <ele>13.12</ele>
        <time>2019-12-27T16:05:34Z</time>
      </trkpt>
      <trkpt lat="37.5902663358" lon="-8.6466039252">
        <ele>13.12</ele>
        <time>2019-12-27T16:05:37Z</time>
      </trkpt>
      <trkpt lat="37.5902198162" lon="-8.6467361916">
        <ele>13.60</ele>
        <time>2019-12-27T16:05:47Z</time>
      </trkpt>
      <trkpt lat="37.5901775714" lon="-8.6468009837">
        <ele>13.60</ele>
        <time>2019-12-27T16:05:53Z</time>
      </trkpt>
      <trkpt lat="37.5902372506" lon="-8.6468993034">
        <ele>14.56</ele>
        <time>2019-12-27T16:06:00Z</time>
      </trkpt>
      <trkpt lat="37.5903120171" lon="-8.6469192524">
        <ele>14.56</ele>
        <time>2019-12-27T16:06:06Z</time>
      </trkpt>
      <trkpt lat="37.5903631467" lon="-8.6469245329">
        <ele>14.56</ele>
        <time>2019-12-27T16:06:10Z</time>
      </trkpt>
      <trkpt lat="37.5904079899" lon="-8.6469456553">
        <ele>14.56</ele>
        <time>2019-12-27T16:06:14Z</time>
      </trkpt>
      <trkpt lat="37.5904761348" lon="-8.6470273789">
        <ele>15.04</ele>
        <time>2019-12-27T16:06:21Z</time>
      </trkpt>
      <trkpt lat="37.5904985983" lon="-8.6470702942">
        <ele>15.04</ele>
        <time>2019-12-27T16:06:25Z</time>
      </trkpt>
      <trkpt lat="37.5905303657" lon="-8.6471091863">
        <ele>15.52</ele>
        <time>2019-12-27T16:06:29Z</time>
      </trkpt>
      <trkpt lat="37.5905930623" lon="-8.6473005451">
        <ele>16.96</ele>
        <time>2019-12-27T16:06:43Z</time>
      </trkpt>
      <trkpt lat="37.5905968342" lon="-8.6475245096">
        <ele>17.44</ele>
        <time>2019-12-27T16:06:57Z</time>
      </trkpt>
      <trkpt lat="37.5905930623" lon="-8.6476519983">
        <ele>17.44</ele>
        <time>2019-12-27T16:07:05Z</time>
      </trkpt>
      <trkpt lat="37.5906479638" lon="-8.6478168704">
        <ele>18.40</ele>
        <time>2019-12-27T16:07:16Z</time>
      </trkpt>
      <trkpt lat="37.5906785578" lon="-8.6478607077">
        <ele>18.40</ele>
        <time>2019-12-27T16:07:20Z</time>
      </trkpt>
      <trkpt lat="37.5907506421" lon="-8.6479647271">
        <ele>19.36</ele>
        <time>2019-12-27T16:07:29Z</time>
      </trkpt>
      <trkpt lat="37.5907861814" lon="-8.6480874382">
        <ele>19.84</ele>
        <time>2019-12-27T16:07:37Z</time>
      </trkpt>
      <trkpt lat="37.5907904562" lon="-8.6481418367">
        <ele>19.84</ele>
        <time>2019-12-27T16:07:40Z</time>
      </trkpt>
      <trkpt lat="37.5908327848" lon="-8.6482202914">
        <ele>20.32</ele>
        <time>2019-12-27T16:07:46Z</time>
      </trkpt>
      <trkpt lat="37.5908815674" lon="-8.6483897734">
        <ele>20.32</ele>
        <time>2019-12-27T16:07:57Z</time>
      </trkpt>
      <trkpt lat="37.5909043662" lon="-8.6485047732">
        <ele>20.81</ele>
        <time>2019-12-27T16:08:05Z</time>
      </trkpt>
      <trkpt lat="37.5909166038" lon="-8.6485662125">
        <ele>21.29</ele>
        <time>2019-12-27T16:08:09Z</time>
      </trkpt>
      <trkpt lat="37.5909637101" lon="-8.6487030052">
        <ele>21.29</ele>
        <time>2019-12-27T16:08:19Z</time>
      </trkpt>
      <trkpt lat="37.5909887720" lon="-8.6487651989">
        <ele>21.29</ele>
        <time>2019-12-27T16:08:23Z</time>
      </trkpt>
      <trkpt lat="37.5910205394" lon="-8.6488402169">
        <ele>20.81</ele>
        <time>2019-12-27T16:08:28Z</time>
      </trkpt>
      <trkpt lat="37.5910289213" lon="-8.6488755047">
        <ele>21.29</ele>
        <time>2019-12-27T16:08:30Z</time>
      </trkpt>
      <trkpt lat="37.5910643768" lon="-8.6490744911">
        <ele>20.81</ele>
        <time>2019-12-27T16:08:43Z</time>
      </trkpt>
      <trkpt lat="37.5910787098" lon="-8.6491625011">
        <ele>20.32</ele>
        <time>2019-12-27T16:08:49Z</time>
      </trkpt>
      <trkpt lat="37.5911009219" lon="-8.6492565461">
        <ele>19.84</ele>
        <time>2019-12-27T16:08:55Z</time>
      </trkpt>
      <trkpt lat="37.5911155902" lon="-8.6493458971">
        <ele>19.36</ele>
        <time>2019-12-27T16:09:00Z</time>
      </trkpt>
      <trkpt lat="37.5911284145" lon="-8.6494331528">
        <ele>19.36</ele>
        <time>2019-12-27T16:09:05Z</time>
      </trkpt>
      <trkpt lat="37.5911403168" lon="-8.6494818516">
        <ele>18.88</ele>
        <time>2019-12-27T16:09:08Z</time>
      </trkpt>
      <trkpt lat="37.5911688991" lon="-8.6496877950">
        <ele>19.36</ele>
        <time>2019-12-27T16:09:21Z</time>
      </trkpt>
      <trkpt lat="37.5911827292" lon="-8.6497447919">
        <ele>19.36</ele>
        <time>2019-12-27T16:09:25Z</time>
      </trkpt>
      <trkpt lat="37.5911756884" lon="-8.6498720292">
        <ele>19.36</ele>
        <time>2019-12-27T16:09:33Z</time>
      </trkpt>
      <trkpt lat="37.5911049452" lon="-8.6500086542">
        <ele>18.88</ele>
        <time>2019-12-27T16:09:45Z</time>
      </trkpt>
      <trkpt lat="37.5910219643" lon="-8.6500780564">
        <ele>17.92</ele>
        <time>2019-12-27T16:09:54Z</time>
      </trkpt>
      <trkpt lat="37.5910000037" lon="-8.6500945687">
        <ele>17.44</ele>
        <time>2019-12-27T16:09:56Z</time>
      </trkpt>
      <trkpt lat="37.5908583496" lon="-8.6501509789">
        <ele>16.00</ele>
        <time>2019-12-27T16:10:08Z</time>
      </trkpt>
      <trkpt lat="37.5908281747" lon="-8.6501650605">
        <ele>15.52</ele>
        <time>2019-12-27T16:10:12Z</time>
      </trkpt>
      <trkpt lat="37.5907244906" lon="-8.6501952354">
        <ele>15.04</ele>
        <time>2019-12-27T16:10:20Z</time>
      </trkpt>
      <trkpt lat="37.5906286854" lon="-8.6503113247">
        <ele>14.56</ele>
        <time>2019-12-27T16:10:30Z</time>
      </trkpt>
      <trkpt lat="37.5905703474" lon="-8.6504233908">
        <ele>14.56</ele>
        <time>2019-12-27T16:10:39Z</time>
      </trkpt>
      <trkpt lat="37.5905169547" lon="-8.6505061202">
        <ele>14.56</ele>
        <time>2019-12-27T16:10:46Z</time>
      </trkpt>
      <trkpt lat="37.5904983468" lon="-8.6507289112">
        <ele>15.04</ele>
        <time>2019-12-27T16:10:58Z</time>
      </trkpt>
      <trkpt lat="37.5905616302" lon="-8.6508142389">
        <ele>15.52</ele>
        <time>2019-12-27T16:11:05Z</time>
      </trkpt>
      <trkpt lat="37.5906780548" lon="-8.6508537177">
        <ele>16.00</ele>
        <time>2019-12-27T16:11:15Z</time>
      </trkpt>
      <trkpt lat="37.5907358900" lon="-8.6508710682">
        <ele>16.96</ele>
        <time>2019-12-27T16:11:20Z</time>
      </trkpt>
      <trkpt lat="37.5907931384" lon="-8.6508665420">
        <ele>17.44</ele>
        <time>2019-12-27T16:11:24Z</time>
      </trkpt>
      <trkpt lat="37.5908169430" lon="-8.6508773547">
        <ele>17.92</ele>
        <time>2019-12-27T16:11:26Z</time>
      </trkpt>
      <trkpt lat="37.5908539072" lon="-8.6508788634">
        <ele>17.92</ele>
        <time>2019-12-27T16:11:29Z</time>
      </trkpt>
      <trkpt lat="37.5908777118" lon="-8.6508911848">
        <ele>18.40</ele>
        <time>2019-12-27T16:11:32Z</time>
      </trkpt>
      <trkpt lat="37.5909430068" lon="-8.6508979741">
        <ele>19.36</ele>
        <time>2019-12-27T16:11:39Z</time>
      </trkpt>
      <trkpt lat="37.5909731817" lon="-8.6509048473">
        <ele>19.36</ele>
        <time>2019-12-27T16:11:41Z</time>
      </trkpt>
      <trkpt lat="37.5910780393" lon="-8.6509056855">
        <ele>20.32</ele>
        <time>2019-12-27T16:11:49Z</time>
      </trkpt>
      <trkpt lat="37.5911729224" lon="-8.6509119719">
        <ele>20.81</ele>
        <time>2019-12-27T16:11:57Z</time>
      </trkpt>
      <trkpt lat="37.5912243873" lon="-8.6509164143">
        <ele>20.81</ele>
        <time>2019-12-27T16:12:01Z</time>
      </trkpt>
      <trkpt lat="37.5912964717" lon="-8.6509445775">
        <ele>20.81</ele>
        <time>2019-12-27T16:12:13Z</time>
      </trkpt>
      <trkpt lat="37.5913039315" lon="-8.6509144865">
        <ele>21.29</ele>
        <time>2019-12-27T16:12:28Z</time>
      </trkpt>
      <trkpt lat="37.5913775247" lon="-8.6509731598">
        <ele>20.81</ele>
        <time>2019-12-27T16:12:39Z</time>
      </trkpt>
      <trkpt lat="37.5914469268" lon="-8.6510374490">
        <ele>20.81</ele>
        <time>2019-12-27T16:12:47Z</time>
      </trkpt>
      <trkpt lat="37.5914977212" lon="-8.6510728206">
        <ele>20.32</ele>
        <time>2019-12-27T16:12:52Z</time>
      </trkpt>
      <trkpt lat="37.5916455779" lon="-8.6511149816">
        <ele>18.88</ele>
        <time>2019-12-27T16:13:05Z</time>
      </trkpt>
      <trkpt lat="37.5918047503" lon="-8.6512087751">
        <ele>16.96</ele>
        <time>2019-12-27T16:13:19Z</time>
      </trkpt>
      <trkpt lat="37.5919385254" lon="-8.6512937676">
        <ele>15.04</ele>
        <time>2019-12-27T16:13:31Z</time>
      </trkpt>
      <trkpt lat="37.5920053292" lon="-8.6513275467">
        <ele>14.56</ele>
        <time>2019-12-27T16:13:36Z</time>
      </trkpt>
      <trkpt lat="37.5920496695" lon="-8.6513495911">
        <ele>14.56</ele>
        <time>2019-12-27T16:13:40Z</time>
      </trkpt>
      <trkpt lat="37.5920910761" lon="-8.6513818614">
        <ele>14.08</ele>
        <time>2019-12-27T16:13:44Z</time>
      </trkpt>
      <trkpt lat="37.5922059081" lon="-8.6514542811">
        <ele>13.12</ele>
        <time>2019-12-27T16:13:55Z</time>
      </trkpt>
      <trkpt lat="37.5922644977" lon="-8.6514945980">
        <ele>13.60</ele>
        <time>2019-12-27T16:14:01Z</time>
      </trkpt>
      <trkpt lat="37.5924234185" lon="-8.6516181473">
        <ele>13.12</ele>
        <time>2019-12-27T16:14:16Z</time>
      </trkpt>
      <trkpt lat="37.5925708562" lon="-8.6517324764">
        <ele>12.15</ele>
        <time>2019-12-27T16:14:30Z</time>
      </trkpt>
      <trkpt lat="37.5925852731" lon="-8.6517411936">
        <ele>12.15</ele>
        <time>2019-12-27T16:14:31Z</time>
      </trkpt>
      <trkpt lat="37.5926939864" lon="-8.6518860329">
        <ele>11.67</ele>
        <time>2019-12-27T16:14:44Z</time>
      </trkpt>
      <trkpt lat="37.5927083194" lon="-8.6518794950">
        <ele>11.67</ele>
        <time>2019-12-27T16:14:58Z</time>
      </trkpt>
      <trkpt lat="37.5927115884" lon="-8.6518855300">
        <ele>11.19</ele>
        <time>2019-12-27T16:15:04Z</time>
      </trkpt>
      <trkpt lat="37.5927700941" lon="-8.6520075705">
        <ele>11.19</ele>
        <time>2019-12-27T16:15:15Z</time>
      </trkpt>
      <trkpt lat="37.5927799847" lon="-8.6520157009">
        <ele>11.19</ele>
        <time>2019-12-27T16:15:16Z</time>
      </trkpt>
      <trkpt lat="37.5928423461" lon="-8.6520693451">
        <ele>10.71</ele>
        <time>2019-12-27T16:15:23Z</time>
      </trkpt>
      <trkpt lat="37.5929038692" lon="-8.6521582771">
        <ele>10.71</ele>
        <time>2019-12-27T16:15:30Z</time>
      </trkpt>
      <trkpt lat="37.5929550827" lon="-8.6521907151">
        <ele>10.71</ele>
        <time>2019-12-27T16:15:35Z</time>
      </trkpt>
      <trkpt lat="37.5931041967" lon="-8.6522540823">
        <ele>10.71</ele>
        <time>2019-12-27T16:15:46Z</time>
      </trkpt>
      <trkpt lat="37.5931324437" lon="-8.6522591114">
        <ele>10.71</ele>
        <time>2019-12-27T16:15:48Z</time>
      </trkpt>
      <trkpt lat="37.5931603555" lon="-8.6522495560">
        <ele>10.71</ele>
        <time>2019-12-27T16:15:50Z</time>
      </trkpt>
      <trkpt lat="37.5931793824" lon="-8.6522379890">
        <ele>10.71</ele>
        <time>2019-12-27T16:15:52Z</time>
      </trkpt>
      <trkpt lat="37.5933365431" lon="-8.6522130109">
        <ele>11.19</ele>
        <time>2019-12-27T16:16:05Z</time>
      </trkpt>
      <trkpt lat="37.5934500340" lon="-8.6521595344">
        <ele>11.67</ele>
        <time>2019-12-27T16:16:14Z</time>
      </trkpt>
      <trkpt lat="37.5935883354" lon="-8.6520990171">
        <ele>12.15</ele>
        <time>2019-12-27T16:16:25Z</time>
      </trkpt>
      <trkpt lat="37.5937306602" lon="-8.6520556826">
        <ele>13.12</ele>
        <time>2019-12-27T16:16:36Z</time>
      </trkpt>
      <trkpt lat="37.5937558059" lon="-8.6520469654">
        <ele>13.60</ele>
        <time>2019-12-27T16:16:38Z</time>
      </trkpt>
      <trkpt lat="37.5938856415" lon="-8.6520908866">
        <ele>14.08</ele>
        <time>2019-12-27T16:16:48Z</time>
      </trkpt>
      <trkpt lat="37.5939866435" lon="-8.6521145236">
        <ele>14.56</ele>
        <time>2019-12-27T16:16:57Z</time>
      </trkpt>
      <trkpt lat="37.5941298902" lon="-8.6521272641">
        <ele>16.00</ele>
        <time>2019-12-27T16:17:08Z</time>
      </trkpt>
      <trkpt lat="37.5942058302" lon="-8.6521006934">
        <ele>16.48</ele>
        <time>2019-12-27T16:17:14Z</time>
      </trkpt>
      <trkpt lat="37.5943273678" lon="-8.6520394217">
        <ele>16.96</ele>
        <time>2019-12-27T16:17:24Z</time>
      </trkpt>
      <trkpt lat="37.5944365840" lon="-8.6519561056">
        <ele>17.92</ele>
        <time>2019-12-27T16:17:34Z</time>
      </trkpt>
      <trkpt lat="37.5945790764" lon="-8.6518584564">
        <ele>18.88</ele>
        <time>2019-12-27T16:17:47Z</time>
      </trkpt>
      <trkpt lat="37.5946177170" lon="-8.6518205702">
        <ele>19.36</ele>
        <time>2019-12-27T16:17:51Z</time>
      </trkpt>
      <trkpt lat="37.5946305413" lon="-8.6517954245">
        <ele>19.36</ele>
        <time>2019-12-27T16:17:53Z</time>
      </trkpt>
      <trkpt lat="37.5946643203" lon="-8.6517527606">
        <ele>19.36</ele>
        <time>2019-12-27T16:17:57Z</time>
      </trkpt>
      <trkpt lat="37.5946907233" lon="-8.6517053191">
        <ele>19.36</ele>
        <time>2019-12-27T16:18:11Z</time>
      </trkpt>
      <trkpt lat="37.5946907233" lon="-8.6517053191">
        <ele>19.84</ele>
        <time>2019-12-27T16:18:17Z</time>
      </trkpt>
      <trkpt lat="37.5947234966" lon="-8.6516528483">
        <ele>19.36</ele>
        <time>2019-12-27T16:18:21Z</time>
      </trkpt>
      <trkpt lat="37.5947379135" lon="-8.6516335700">
        <ele>19.84</ele>
        <time>2019-12-27T16:18:23Z</time>
      </trkpt>
      <trkpt lat="37.5948398374" lon="-8.6514946818">
        <ele>19.84</ele>
        <time>2019-12-27T16:18:35Z</time>
      </trkpt>
      <trkpt lat="37.5948892906" lon="-8.6514296383">
        <ele>20.32</ele>
        <time>2019-12-27T16:18:41Z</time>
      </trkpt>
      <trkpt lat="37.5949258357" lon="-8.6513611581">
        <ele>20.32</ele>
        <time>2019-12-27T16:18:47Z</time>
      </trkpt>
      <trkpt lat="37.5950231496" lon="-8.6511780974">
        <ele>20.81</ele>
        <time>2019-12-27T16:19:01Z</time>
      </trkpt>
      <trkpt lat="37.5950866006" lon="-8.6509736627">
        <ele>20.32</ele>
        <time>2019-12-27T16:19:15Z</time>
      </trkpt>
      <trkpt lat="37.5951348804" lon="-8.6507693958">
        <ele>20.81</ele>
        <time>2019-12-27T16:19:28Z</time>
      </trkpt>
      <trkpt lat="37.5952192862" lon="-8.6505948845">
        <ele>20.81</ele>
        <time>2019-12-27T16:19:41Z</time>
      </trkpt>
      <trkpt lat="37.5952649675" lon="-8.6505029351">
        <ele>20.81</ele>
        <time>2019-12-27T16:19:48Z</time>
      </trkpt>
      <trkpt lat="37.5953140855" lon="-8.6504440103">
        <ele>20.81</ele>
        <time>2019-12-27T16:19:54Z</time>
      </trkpt>
      <trkpt lat="37.5953456014" lon="-8.6504083034">
        <ele>20.81</ele>
        <time>2019-12-27T16:19:57Z</time>
      </trkpt>
      <trkpt lat="37.5953639578" lon="-8.6503849179">
        <ele>21.29</ele>
        <time>2019-12-27T16:20:07Z</time>
      </trkpt>
      <trkpt lat="37.5953857508" lon="-8.6503581796">
        <ele>21.29</ele>
        <time>2019-12-27T16:20:10Z</time>
      </trkpt>
      <trkpt lat="37.5954598468" lon="-8.6502091493">
        <ele>21.77</ele>
        <time>2019-12-27T16:20:21Z</time>
      </trkpt>
      <trkpt lat="37.5954883453" lon="-8.6501673236">
        <ele>21.77</ele>
        <time>2019-12-27T16:20:25Z</time>
      </trkpt>
      <trkpt lat="37.5955073722" lon="-8.6501068063">
        <ele>22.25</ele>
        <time>2019-12-27T16:20:29Z</time>
      </trkpt>
      <trkpt lat="37.5955489464" lon="-8.6500053853">
        <ele>22.25</ele>
        <time>2019-12-27T16:20:36Z</time>
      </trkpt>
      <trkpt lat="37.5955842342" lon="-8.6499250866">
        <ele>22.25</ele>
        <time>2019-12-27T16:20:41Z</time>
      </trkpt>
      <trkpt lat="37.5955992378" lon="-8.6499037966">
        <ele>22.73</ele>
        <time>2019-12-27T16:20:43Z</time>
      </trkpt>
      <trkpt lat="37.5956427399" lon="-8.6497800797">
        <ele>23.21</ele>
        <time>2019-12-27T16:20:52Z</time>
      </trkpt>
      <trkpt lat="37.5956843980" lon="-8.6496535130">
        <ele>23.21</ele>
        <time>2019-12-27T16:21:01Z</time>
      </trkpt>
      <trkpt lat="37.5957216136" lon="-8.6495286226">
        <ele>23.21</ele>
        <time>2019-12-27T16:21:09Z</time>
      </trkpt>
      <trkpt lat="37.5957301632" lon="-8.6494660098">
        <ele>23.21</ele>
        <time>2019-12-27T16:21:13Z</time>
      </trkpt>
      <trkpt lat="37.5957624335" lon="-8.6493472382">
        <ele>23.69</ele>
        <time>2019-12-27T16:21:21Z</time>
      </trkpt>
      <trkpt lat="37.5958049297" lon="-8.6491600703">
        <ele>24.17</ele>
        <time>2019-12-27T16:21:33Z</time>
      </trkpt>
      <trkpt lat="37.5958203524" lon="-8.6491165683">
        <ele>24.17</ele>
        <time>2019-12-27T16:21:36Z</time>
      </trkpt>
      <trkpt lat="37.5958604179" lon="-8.6489347648">
        <ele>24.65</ele>
        <time>2019-12-27T16:21:48Z</time>
      </trkpt>
      <trkpt lat="37.5959060155" lon="-8.6487180088">
        <ele>24.65</ele>
        <time>2019-12-27T16:22:02Z</time>
      </trkpt>
      <trkpt lat="37.5959372800" lon="-8.6486224551">
        <ele>25.13</ele>
        <time>2019-12-27T16:22:09Z</time>
      </trkpt>
      <trkpt lat="37.5959598273" lon="-8.6485722475">
        <ele>25.61</ele>
        <time>2019-12-27T16:22:13Z</time>
      </trkpt>
      <trkpt lat="37.5960208476" lon="-8.6483709142">
        <ele>25.61</ele>
        <time>2019-12-27T16:22:27Z</time>
      </trkpt>
      <trkpt lat="37.5960417185" lon="-8.6483151745">
        <ele>26.09</ele>
        <time>2019-12-27T16:22:31Z</time>
      </trkpt>
      <trkpt lat="37.5960477535" lon="-8.6482246500">
        <ele>26.09</ele>
        <time>2019-12-27T16:22:37Z</time>
      </trkpt>
      <trkpt lat="37.5960745756" lon="-8.6480265018">
        <ele>26.09</ele>
        <time>2019-12-27T16:22:51Z</time>
      </trkpt>
      <trkpt lat="37.5960694626" lon="-8.6480130069">
        <ele>25.61</ele>
        <time>2019-12-27T16:22:52Z</time>
      </trkpt>
      <trkpt lat="37.5960564706" lon="-8.6479290202">
        <ele>26.09</ele>
        <time>2019-12-27T16:22:57Z</time>
      </trkpt>
      <trkpt lat="37.5960658584" lon="-8.6478651501">
        <ele>25.61</ele>
        <time>2019-12-27T16:23:02Z</time>
      </trkpt>
      <trkpt lat="37.5961376075" lon="-8.6476637330">
        <ele>25.61</ele>
        <time>2019-12-27T16:23:17Z</time>
      </trkpt>
      <trkpt lat="37.5962060876" lon="-8.6475434527">
        <ele>25.61</ele>
        <time>2019-12-27T16:23:28Z</time>
      </trkpt>
      <trkpt lat="37.5962275453" lon="-8.6474867072">
        <ele>25.13</ele>
        <time>2019-12-27T16:23:32Z</time>
      </trkpt>
      <trkpt lat="37.5962435547" lon="-8.6474655010">
        <ele>25.13</ele>
        <time>2019-12-27T16:23:34Z</time>
      </trkpt>
      <trkpt lat="37.5963663496" lon="-8.6474079173">
        <ele>25.61</ele>
        <time>2019-12-27T16:23:45Z</time>
      </trkpt>
      <trkpt lat="37.5964815170" lon="-8.6472531036">
        <ele>25.61</ele>
        <time>2019-12-27T16:23:59Z</time>
      </trkpt>
      <trkpt lat="37.5965069141" lon="-8.6472004652">
        <ele>25.61</ele>
        <time>2019-12-27T16:24:03Z</time>
      </trkpt>
      <trkpt lat="37.5965163857" lon="-8.6471780017">
        <ele>25.61</ele>
        <time>2019-12-27T16:24:05Z</time>
      </trkpt>
      <trkpt lat="37.5965525955" lon="-8.6471412890">
        <ele>25.61</ele>
        <time>2019-12-27T16:24:09Z</time>
      </trkpt>
      <trkpt lat="37.5966332294" lon="-8.6469144747">
        <ele>25.61</ele>
        <time>2019-12-27T16:24:26Z</time>
      </trkpt>
      <trkpt lat="37.5966291223" lon="-8.6469050031">
        <ele>25.13</ele>
        <time>2019-12-27T16:24:27Z</time>
      </trkpt>
      <trkpt lat="37.5966050662" lon="-8.6468440667">
        <ele>25.13</ele>
        <time>2019-12-27T16:24:32Z</time>
      </trkpt>
      <trkpt lat="37.5965748075" lon="-8.6466265563">
        <ele>23.69</ele>
        <time>2019-12-27T16:24:47Z</time>
      </trkpt>
      <trkpt lat="37.5965668447" lon="-8.6464756820">
        <ele>22.73</ele>
        <time>2019-12-27T16:24:58Z</time>
      </trkpt>
      <trkpt lat="37.5965558644" lon="-8.6464092974">
        <ele>22.25</ele>
        <time>2019-12-27T16:25:12Z</time>
      </trkpt>
      <trkpt lat="37.5965533499" lon="-8.6464129854">
        <ele>22.25</ele>
        <time>2019-12-27T16:25:17Z</time>
      </trkpt>
      <trkpt lat="37.5965655874" lon="-8.6464442499">
        <ele>22.25</ele>
        <time>2019-12-27T16:25:20Z</time>
      </trkpt>
      <trkpt lat="37.5966250990" lon="-8.6464485247">
        <ele>22.25</ele>
        <time>2019-12-27T16:25:25Z</time>
      </trkpt>
      <trkpt lat="37.5966772344" lon="-8.6464329343">
        <ele>22.25</ele>
        <time>2019-12-27T16:25:30Z</time>
      </trkpt>
      <trkpt lat="37.5967183895" lon="-8.6464181822">
        <ele>21.77</ele>
        <time>2019-12-27T16:25:35Z</time>
      </trkpt>
      <trkpt lat="37.5967252627" lon="-8.6463908572">
        <ele>21.77</ele>
        <time>2019-12-27T16:25:52Z</time>
      </trkpt>
      <trkpt lat="37.5967099238" lon="-8.6463990714">
        <ele>21.29</ele>
        <time>2019-12-27T16:26:22Z</time>
      </trkpt>
      <trkpt lat="37.5966975186" lon="-8.6463956349">
        <ele>22.25</ele>
        <time>2019-12-27T16:26:23Z</time>
      </trkpt>
      <trkpt lat="37.5966484006" lon="-8.6463732552">
        <ele>21.77</ele>
        <time>2019-12-27T16:26:27Z</time>
      </trkpt>
      <trkpt lat="37.5966091733" lon="-8.6463578325">
        <ele>22.25</ele>
        <time>2019-12-27T16:26:30Z</time>
      </trkpt>
      <trkpt lat="37.5965722930" lon="-8.6462940462">
        <ele>21.29</ele>
        <time>2019-12-27T16:26:36Z</time>
      </trkpt>
      <trkpt lat="37.5965236779" lon="-8.6462076288">
        <ele>21.29</ele>
        <time>2019-12-27T16:26:45Z</time>
      </trkpt>
      <trkpt lat="37.5964602269" lon="-8.6461248994">
        <ele>20.32</ele>
        <time>2019-12-27T16:26:55Z</time>
      </trkpt>
      <trkpt lat="37.5964276213" lon="-8.6460625380">
        <ele>20.32</ele>
        <time>2019-12-27T16:27:00Z</time>
      </trkpt>
      <trkpt lat="37.5964007154" lon="-8.6460315250">
        <ele>19.84</ele>
        <time>2019-12-27T16:27:03Z</time>
      </trkpt>
      <trkpt lat="37.5963404495" lon="-8.6458851770">
        <ele>18.88</ele>
        <time>2019-12-27T16:27:14Z</time>
      </trkpt>
      <trkpt lat="37.5961894076" lon="-8.6457260046">
        <ele>18.40</ele>
        <time>2019-12-27T16:27:30Z</time>
      </trkpt>
      <trkpt lat="37.5961890724" lon="-8.6456967518">
        <ele>17.92</ele>
        <time>2019-12-27T16:27:32Z</time>
      </trkpt>
      <trkpt lat="37.5962562114" lon="-8.6454643216">
        <ele>17.44</ele>
        <time>2019-12-27T16:27:46Z</time>
      </trkpt>
      <trkpt lat="37.5962282997" lon="-8.6452743877">
        <ele>17.44</ele>
        <time>2019-12-27T16:28:01Z</time>
      </trkpt>
      <trkpt lat="37.5962158944" lon="-8.6451846175">
        <ele>17.44</ele>
        <time>2019-12-27T16:28:17Z</time>
      </trkpt>
      <trkpt lat="37.5962158944" lon="-8.6451846175">
        <ele>17.92</ele>
        <time>2019-12-27T16:28:23Z</time>
      </trkpt>
      <trkpt lat="37.5961787626" lon="-8.6449370999">
        <ele>17.44</ele>
        <time>2019-12-27T16:28:40Z</time>
      </trkpt>
      <trkpt lat="37.5961739011" lon="-8.6448262073">
        <ele>17.92</ele>
        <time>2019-12-27T16:28:48Z</time>
      </trkpt>
      <trkpt lat="37.5961549580" lon="-8.6445608363">
        <ele>17.44</ele>
        <time>2019-12-27T16:29:06Z</time>
      </trkpt>
      <trkpt lat="37.5961503480" lon="-8.6443428230">
        <ele>17.92</ele>
        <time>2019-12-27T16:29:21Z</time>
      </trkpt>
      <trkpt lat="37.5961423852" lon="-8.6441303417">
        <ele>17.92</ele>
        <time>2019-12-27T16:29:35Z</time>
      </trkpt>
      <trkpt lat="37.5961377751" lon="-8.6439399049">
        <ele>17.44</ele>
        <time>2019-12-27T16:29:49Z</time>
      </trkpt>
      <trkpt lat="37.5961255375" lon="-8.6438632943">
        <ele>17.44</ele>
        <time>2019-12-27T16:30:02Z</time>
      </trkpt>
      <trkpt lat="37.5961255375" lon="-8.6438632943">
        <ele>17.44</ele>
        <time>2019-12-27T16:30:14Z</time>
      </trkpt>
      <trkpt lat="37.5961286388" lon="-8.6438378971">
        <ele>17.44</ele>
        <time>2019-12-27T16:30:16Z</time>
      </trkpt>
      <trkpt lat="37.5961346738" lon="-8.6437345482">
        <ele>17.44</ele>
        <time>2019-12-27T16:30:32Z</time>
      </trkpt>
      <trkpt lat="37.5961346738" lon="-8.6437345482">
        <ele>17.92</ele>
        <time>2019-12-27T16:30:39Z</time>
      </trkpt>
      <trkpt lat="37.5961257890" lon="-8.6436946504">
        <ele>17.44</ele>
        <time>2019-12-27T16:30:44Z</time>
      </trkpt>
      <trkpt lat="37.5961340033" lon="-8.6436172016">
        <ele>17.92</ele>
        <time>2019-12-27T16:30:51Z</time>
      </trkpt>
      <trkpt lat="37.5961414631" lon="-8.6435492244">
        <ele>17.92</ele>
        <time>2019-12-27T16:31:03Z</time>
      </trkpt>
      <trkpt lat="37.5961453188" lon="-8.6435457040">
        <ele>17.92</ele>
        <time>2019-12-27T16:31:06Z</time>
      </trkpt>
      <trkpt lat="37.5961407088" lon="-8.6434927303">
        <ele>17.44</ele>
        <time>2019-12-27T16:31:10Z</time>
      </trkpt>
      <trkpt lat="37.5961337518" lon="-8.6433268525">
        <ele>17.92</ele>
        <time>2019-12-27T16:31:23Z</time>
      </trkpt>
      <trkpt lat="37.5961413793" lon="-8.6433091667">
        <ele>17.92</ele>
        <time>2019-12-27T16:31:32Z</time>
      </trkpt>
      <trkpt lat="37.5961637590" lon="-8.6432860326">
        <ele>17.92</ele>
        <time>2019-12-27T16:31:35Z</time>
      </trkpt>
      <trkpt lat="37.5962008908" lon="-8.6432661675">
        <ele>17.44</ele>
        <time>2019-12-27T16:31:39Z</time>
      </trkpt>
      <trkpt lat="37.5962259527" lon="-8.6432525888">
        <ele>17.44</ele>
        <time>2019-12-27T16:31:41Z</time>
      </trkpt>
      <trkpt lat="37.5962705445" lon="-8.6432483979">
        <ele>17.44</ele>
        <time>2019-12-27T16:31:45Z</time>
      </trkpt>
      <trkpt lat="37.5963510945" lon="-8.6432654131">
        <ele>17.44</ele>
        <time>2019-12-27T16:31:52Z</time>
      </trkpt>
      <trkpt lat="37.5964664295" lon="-8.6433484778">
        <ele>16.96</ele>
        <time>2019-12-27T16:32:05Z</time>
      </trkpt>
      <trkpt lat="37.5966103468" lon="-8.6434336379">
        <ele>16.00</ele>
        <time>2019-12-27T16:32:19Z</time>
      </trkpt>
      <trkpt lat="37.5967483968" lon="-8.6435469612">
        <ele>15.04</ele>
        <time>2019-12-27T16:32:33Z</time>
      </trkpt>
      <trkpt lat="37.5968046393" lon="-8.6435940675">
        <ele>15.04</ele>
        <time>2019-12-27T16:32:45Z</time>
      </trkpt>
      <trkpt lat="37.5968046393" lon="-8.6435940675">
        <ele>15.04</ele>
        <time>2019-12-27T16:32:54Z</time>
      </trkpt>
      <trkpt lat="37.5967960060" lon="-8.6435913853">
        <ele>14.56</ele>
        <time>2019-12-27T16:33:00Z</time>
      </trkpt>
      <trkpt lat="37.5968118478" lon="-8.6436151899">
        <ele>13.12</ele>
        <time>2019-12-27T16:33:11Z</time>
      </trkpt>
      <trkpt lat="37.5968118478" lon="-8.6436151899">
        <ele>12.15</ele>
        <time>2019-12-27T16:33:14Z</time>
      </trkpt>
      <trkpt lat="37.5968219060" lon="-8.6436510645">
        <ele>10.71</ele>
        <time>2019-12-27T16:33:19Z</time>
      </trkpt>
      <trkpt lat="37.5968239177" lon="-8.6436876096">
        <ele>8.79</ele>
        <time>2019-12-27T16:33:24Z</time>
      </trkpt>
      <trkpt lat="37.5968265999" lon="-8.6437253281">
        <ele>7.83</ele>
        <time>2019-12-27T16:33:37Z</time>
      </trkpt>
      <trkpt lat="37.5968265999" lon="-8.6437253281">
        <ele>7.83</ele>
        <time>2019-12-27T16:33:53Z</time>
      </trkpt>
      <trkpt lat="37.5968265999" lon="-8.6437253281">
        <ele>7.83</ele>
        <time>2019-12-27T16:33:57Z</time>
      </trkpt>
      <trkpt lat="37.5968358200" lon="-8.6437468696">
        <ele>7.35</ele>
        <time>2019-12-27T16:34:09Z</time>
      </trkpt>
      <trkpt lat="37.5968399271" lon="-8.6437814031">
        <ele>7.35</ele>
        <time>2019-12-27T16:34:29Z</time>
      </trkpt>
      <trkpt lat="37.5968500692" lon="-8.6438000947">
        <ele>7.35</ele>
        <time>2019-12-27T16:34:32Z</time>
      </trkpt>
      <trkpt lat="37.5968659110" lon="-8.6438143440">
        <ele>7.35</ele>
        <time>2019-12-27T16:34:45Z</time>
      </trkpt>
      <trkpt lat="37.5968878716" lon="-8.6438364722">
        <ele>7.35</ele>
        <time>2019-12-27T16:34:59Z</time>
      </trkpt>
      <trkpt lat="37.5968878716" lon="-8.6438364722">
        <ele>7.35</ele>
        <time>2019-12-27T16:35:17Z</time>
      </trkpt>
      <trkpt lat="37.5969208125" lon="-8.6438530684">
        <ele>7.35</ele>
        <time>2019-12-27T16:35:31Z</time>
      </trkpt>
      <trkpt lat="37.5969208125" lon="-8.6438530684">
        <ele>6.87</ele>
        <time>2019-12-27T16:35:52Z</time>
      </trkpt>
      <trkpt lat="37.5969663262" lon="-8.6439232249">
        <ele>6.87</ele>
        <time>2019-12-27T16:36:04Z</time>
      </trkpt>
      <trkpt lat="37.5969663262" lon="-8.6439232249">
        <ele>7.35</ele>
        <time>2019-12-27T16:36:09Z</time>
      </trkpt>
      <trkpt lat="37.5970016140" lon="-8.6439906154">
        <ele>7.35</ele>
        <time>2019-12-27T16:36:20Z</time>
      </trkpt>
      <trkpt lat="37.5970219821" lon="-8.6440212931">
        <ele>7.35</ele>
        <time>2019-12-27T16:36:23Z</time>
      </trkpt>
      <trkpt lat="37.5970395003" lon="-8.6440390628">
        <ele>7.35</ele>
        <time>2019-12-27T16:36:25Z</time>
      </trkpt>
      <trkpt lat="37.5970263407" lon="-8.6440735124">
        <ele>7.35</ele>
        <time>2019-12-27T16:36:36Z</time>
      </trkpt>
      <trkpt lat="37.5970263407" lon="-8.6440735124">
        <ele>7.83</ele>
        <time>2019-12-27T16:36:39Z</time>
      </trkpt>
      <trkpt lat="37.5970886182" lon="-8.6440813076">
        <ele>7.83</ele>
        <time>2019-12-27T16:36:45Z</time>
      </trkpt>
      <trkpt lat="37.5971115008" lon="-8.6440880131">
        <ele>7.35</ele>
        <time>2019-12-27T16:36:47Z</time>
      </trkpt>
      <trkpt lat="37.5971513148" lon="-8.6441158410">
        <ele>7.35</ele>
        <time>2019-12-27T16:36:51Z</time>
      </trkpt>
      <trkpt lat="37.5971935596" lon="-8.6441519670">
        <ele>7.83</ele>
        <time>2019-12-27T16:36:56Z</time>
      </trkpt>
      <trkpt lat="37.5972161070" lon="-8.6441675574">
        <ele>7.83</ele>
        <time>2019-12-27T16:36:58Z</time>
      </trkpt>
      <trkpt lat="37.5972942263" lon="-8.6442447547">
        <ele>7.83</ele>
        <time>2019-12-27T16:37:07Z</time>
      </trkpt>
      <trkpt lat="37.5973270833" lon="-8.6442771088">
        <ele>7.83</ele>
        <time>2019-12-27T16:37:11Z</time>
      </trkpt>
      <trkpt lat="37.5973684900" lon="-8.6443042662">
        <ele>7.83</ele>
        <time>2019-12-27T16:37:16Z</time>
      </trkpt>
      <trkpt lat="37.5974026881" lon="-8.6443305016">
        <ele>7.83</ele>
        <time>2019-12-27T16:37:20Z</time>
      </trkpt>
      <trkpt lat="37.5974223018" lon="-8.6443493608">
        <ele>7.83</ele>
        <time>2019-12-27T16:37:22Z</time>
      </trkpt>
      <trkpt lat="37.5975014269" lon="-8.6444941163">
        <ele>7.83</ele>
        <time>2019-12-27T16:37:32Z</time>
      </trkpt>
      <trkpt lat="37.5975378044" lon="-8.6445368640">
        <ele>7.83</ele>
        <time>2019-12-27T16:37:37Z</time>
      </trkpt>
      <trkpt lat="37.5975787919" lon="-8.6445788573">
        <ele>8.31</ele>
        <time>2019-12-27T16:37:43Z</time>
      </trkpt>
      <trkpt lat="37.5976219587" lon="-8.6446133070">
        <ele>8.31</ele>
        <time>2019-12-27T16:37:56Z</time>
      </trkpt>
      <trkpt lat="37.5977111422" lon="-8.6446819548">
        <ele>8.31</ele>
        <time>2019-12-27T16:38:08Z</time>
      </trkpt>
      <trkpt lat="37.5977399759" lon="-8.6446936056">
        <ele>8.31</ele>
        <time>2019-12-27T16:38:11Z</time>
      </trkpt>
      <trkpt lat="37.5978375413" lon="-8.6447697133">
        <ele>8.31</ele>
        <time>2019-12-27T16:38:23Z</time>
      </trkpt>
      <trkpt lat="37.5978544727" lon="-8.6447859742">
        <ele>8.31</ele>
        <time>2019-12-27T16:38:25Z</time>
      </trkpt>
      <trkpt lat="37.5978830550" lon="-8.6448309012">
        <ele>8.31</ele>
        <time>2019-12-27T16:38:29Z</time>
      </trkpt>
      <trkpt lat="37.5979200192" lon="-8.6448617466">
        <ele>8.31</ele>
        <time>2019-12-27T16:38:33Z</time>
      </trkpt>
      <trkpt lat="37.5979389623" lon="-8.6448976211">
        <ele>8.31</ele>
        <time>2019-12-27T16:38:36Z</time>
      </trkpt>
      <trkpt lat="37.5979733281" lon="-8.6449479125">
        <ele>8.79</ele>
        <time>2019-12-27T16:38:41Z</time>
      </trkpt>
      <trkpt lat="37.5979961269" lon="-8.6449743994">
        <ele>9.27</ele>
        <time>2019-12-27T16:38:44Z</time>
      </trkpt>
      <trkpt lat="37.5980195124" lon="-8.6450395267">
        <ele>8.79</ele>
        <time>2019-12-27T16:38:49Z</time>
      </trkpt>
      <trkpt lat="37.5980408024" lon="-8.6451393552">
        <ele>8.79</ele>
        <time>2019-12-27T16:38:57Z</time>
      </trkpt>
      <trkpt lat="37.5980584044" lon="-8.6451721285">
        <ele>8.79</ele>
        <time>2019-12-27T16:39:00Z</time>
      </trkpt>
      <trkpt lat="37.5980687980" lon="-8.6452297121">
        <ele>8.79</ele>
        <time>2019-12-27T16:39:04Z</time>
      </trkpt>
      <trkpt lat="37.5980762579" lon="-8.6452717055">
        <ele>8.79</ele>
        <time>2019-12-27T16:39:07Z</time>
      </trkpt>
      <trkpt lat="37.5980864838" lon="-8.6454188079">
        <ele>8.79</ele>
        <time>2019-12-27T16:39:17Z</time>
      </trkpt>
      <trkpt lat="37.5981112104" lon="-8.6455492303">
        <ele>8.79</ele>
        <time>2019-12-27T16:39:26Z</time>
      </trkpt>
      <trkpt lat="37.5981639326" lon="-8.6456651520">
        <ele>9.27</ele>
        <time>2019-12-27T16:39:36Z</time>
      </trkpt>
      <trkpt lat="37.5981739070" lon="-8.6457431037">
        <ele>8.79</ele>
        <time>2019-12-27T16:39:52Z</time>
      </trkpt>
      <trkpt lat="37.5981701352" lon="-8.6457699258">
        <ele>8.31</ele>
        <time>2019-12-27T16:40:10Z</time>
      </trkpt>
      <trkpt lat="37.5981682073" lon="-8.6458037887">
        <ele>9.27</ele>
        <time>2019-12-27T16:40:13Z</time>
      </trkpt>
      <trkpt lat="37.5981691293" lon="-8.6458790582">
        <ele>8.31</ele>
        <time>2019-12-27T16:40:19Z</time>
      </trkpt>
      <trkpt lat="37.5981849711" lon="-8.6459239852">
        <ele>8.79</ele>
        <time>2019-12-27T16:40:23Z</time>
      </trkpt>
      <trkpt lat="37.5982363522" lon="-8.6459857598">
        <ele>8.79</ele>
        <time>2019-12-27T16:40:29Z</time>
      </trkpt>
      <trkpt lat="37.5982842129" lon="-8.6460131686">
        <ele>8.79</ele>
        <time>2019-12-27T16:40:34Z</time>
      </trkpt>
      <trkpt lat="37.5983374380" lon="-8.6460930482">
        <ele>8.79</ele>
        <time>2019-12-27T16:40:42Z</time>
      </trkpt>
      <trkpt lat="37.5983873103" lon="-8.6461244803">
        <ele>8.79</ele>
        <time>2019-12-27T16:40:54Z</time>
      </trkpt>
      <trkpt lat="37.5983950216" lon="-8.6461011786">
        <ele>9.27</ele>
        <time>2019-12-27T16:40:56Z</time>
      </trkpt>
      <trkpt lat="37.5983947702" lon="-8.6460587662">
        <ele>9.75</ele>
        <time>2019-12-27T16:40:59Z</time>
      </trkpt>
      <trkpt lat="37.5983899087" lon="-8.6460084748">
        <ele>9.75</ele>
        <time>2019-12-27T16:41:03Z</time>
      </trkpt>
      <trkpt lat="37.5984215923" lon="-8.6459733546">
        <ele>9.75</ele>
        <time>2019-12-27T16:41:07Z</time>
      </trkpt>
      <trkpt lat="37.5984589756" lon="-8.6459299363">
        <ele>10.23</ele>
        <time>2019-12-27T16:41:11Z</time>
      </trkpt>
      <trkpt lat="37.5984821934" lon="-8.6458891165">
        <ele>11.19</ele>
        <time>2019-12-27T16:41:15Z</time>
      </trkpt>
      <trkpt lat="37.5985059142" lon="-8.6458634678">
        <ele>10.71</ele>
        <time>2019-12-27T16:41:18Z</time>
      </trkpt>
      <trkpt lat="37.5985397771" lon="-8.6458272580">
        <ele>11.19</ele>
        <time>2019-12-27T16:41:33Z</time>
      </trkpt>
      <trkpt lat="37.5985502545" lon="-8.6458011903">
        <ele>10.71</ele>
        <time>2019-12-27T16:41:54Z</time>
      </trkpt>
      <trkpt lat="37.5985558704" lon="-8.6457669083">
        <ele>10.71</ele>
        <time>2019-12-27T16:41:57Z</time>
      </trkpt>
      <trkpt lat="37.5985694490" lon="-8.6456853524">
        <ele>10.71</ele>
        <time>2019-12-27T16:42:02Z</time>
      </trkpt>
      <trkpt lat="37.5986320619" lon="-8.6456638947">
        <ele>11.19</ele>
        <time>2019-12-27T16:42:15Z</time>
      </trkpt>
      <trkpt lat="37.5986368395" lon="-8.6456581950">
        <ele>11.19</ele>
        <time>2019-12-27T16:42:18Z</time>
      </trkpt>
      <trkpt lat="37.5986437127" lon="-8.6456201412">
        <ele>11.19</ele>
        <time>2019-12-27T16:42:21Z</time>
      </trkpt>
      <trkpt lat="37.5986359175" lon="-8.6455868650">
        <ele>11.19</ele>
        <time>2019-12-27T16:42:31Z</time>
      </trkpt>
      <trkpt lat="37.5986349955" lon="-8.6455584504">
        <ele>11.19</ele>
        <time>2019-12-27T16:42:33Z</time>
      </trkpt>
      <trkpt lat="37.5986392703" lon="-8.6454219930">
        <ele>10.71</ele>
        <time>2019-12-27T16:42:42Z</time>
      </trkpt>
      <trkpt lat="37.5986181479" lon="-8.6453768145">
        <ele>10.71</ele>
        <time>2019-12-27T16:42:55Z</time>
      </trkpt>
      <trkpt lat="37.5986181479" lon="-8.6453768145">
        <ele>10.71</ele>
        <time>2019-12-27T16:43:00Z</time>
      </trkpt>
      <trkpt lat="37.5985939242" lon="-8.6453662533">
        <ele>10.23</ele>
        <time>2019-12-27T16:43:03Z</time>
      </trkpt>
      <trkpt lat="37.5985708740" lon="-8.6453623138">
        <ele>11.19</ele>
        <time>2019-12-27T16:43:12Z</time>
      </trkpt>
      <trkpt lat="37.5985895656" lon="-8.6452952586">
        <ele>10.71</ele>
        <time>2019-12-27T16:43:23Z</time>
      </trkpt>
      <trkpt lat="37.7140948735" lon="-8.6651625484">
        <ele>173.66</ele>
        <time>2019-12-28T15:19:36Z</time>
      </trkpt>
      <trkpt lat="37.7141178399" lon="-8.6652622931">
        <ele>172.69</ele>
        <time>2019-12-28T15:19:49Z</time>
      </trkpt>
      <trkpt lat="37.7141200192" lon="-8.6653549969">
        <ele>173.17</ele>
        <time>2019-12-28T15:20:02Z</time>
      </trkpt>
      <trkpt lat="37.7140943706" lon="-8.6654104013">
        <ele>173.17</ele>
        <time>2019-12-28T15:20:19Z</time>
      </trkpt>
      <trkpt lat="37.7141563129" lon="-8.6654766183">
        <ele>173.66</ele>
        <time>2019-12-28T15:20:28Z</time>
      </trkpt>
      <trkpt lat="37.7142459992" lon="-8.6655691545">
        <ele>172.21</ele>
        <time>2019-12-28T15:20:41Z</time>
      </trkpt>
      <trkpt lat="37.7142676245" lon="-8.6655760277">
        <ele>172.69</ele>
        <time>2019-12-28T15:20:43Z</time>
      </trkpt>
      <trkpt lat="37.7143128030" lon="-8.6656967271">
        <ele>172.21</ele>
        <time>2019-12-28T15:20:55Z</time>
      </trkpt>
      <trkpt lat="37.7143279742" lon="-8.6657319311">
        <ele>172.21</ele>
        <time>2019-12-28T15:20:58Z</time>
      </trkpt>
      <trkpt lat="37.7143708896" lon="-8.6658809613">
        <ele>171.25</ele>
        <time>2019-12-28T15:21:10Z</time>
      </trkpt>
      <trkpt lat="37.7143972088" lon="-8.6659488548">
        <ele>171.73</ele>
        <time>2019-12-28T15:21:16Z</time>
      </trkpt>
      <trkpt lat="37.7144184988" lon="-8.6659982242">
        <ele>171.25</ele>
        <time>2019-12-28T15:21:20Z</time>
      </trkpt>
      <trkpt lat="37.7144247014" lon="-8.6661417224">
        <ele>171.25</ele>
        <time>2019-12-28T15:21:32Z</time>
      </trkpt>
      <trkpt lat="37.7144151460" lon="-8.6661981326">
        <ele>170.77</ele>
        <time>2019-12-28T15:21:35Z</time>
      </trkpt>
      <trkpt lat="37.7144112065" lon="-8.6662393715">
        <ele>171.25</ele>
        <time>2019-12-28T15:21:37Z</time>
      </trkpt>
      <trkpt lat="37.7144169062" lon="-8.6662869807">
        <ele>171.25</ele>
        <time>2019-12-28T15:21:41Z</time>
      </trkpt>
      <trkpt lat="37.7144558821" lon="-8.6663329974">
        <ele>170.77</ele>
        <time>2019-12-28T15:21:47Z</time>
      </trkpt>
      <trkpt lat="37.7144552954" lon="-8.6663612444">
        <ele>171.25</ele>
        <time>2019-12-28T15:21:49Z</time>
      </trkpt>
      <trkpt lat="37.7144612465" lon="-8.6664022319">
        <ele>171.25</ele>
        <time>2019-12-28T15:21:52Z</time>
      </trkpt>
      <trkpt lat="37.7145121247" lon="-8.6665762402">
        <ele>171.25</ele>
        <time>2019-12-28T15:22:06Z</time>
      </trkpt>
      <trkpt lat="37.7145469934" lon="-8.6666417029">
        <ele>171.73</ele>
        <time>2019-12-28T15:22:13Z</time>
      </trkpt>
      <trkpt lat="37.7146272082" lon="-8.6667491589">
        <ele>172.69</ele>
        <time>2019-12-28T15:22:23Z</time>
      </trkpt>
      <trkpt lat="37.7146431338" lon="-8.6667666771">
        <ele>172.69</ele>
        <time>2019-12-28T15:22:25Z</time>
      </trkpt>
      <trkpt lat="37.7146839537" lon="-8.6668089218">
        <ele>172.69</ele>
        <time>2019-12-28T15:22:29Z</time>
      </trkpt>
      <trkpt lat="37.7147319820" lon="-8.6668709479">
        <ele>173.17</ele>
        <time>2019-12-28T15:22:35Z</time>
      </trkpt>
      <trkpt lat="37.7147582173" lon="-8.6669100914">
        <ele>173.17</ele>
        <time>2019-12-28T15:22:39Z</time>
      </trkpt>
      <trkpt lat="37.7147849556" lon="-8.6669776496">
        <ele>173.66</ele>
        <time>2019-12-28T15:22:45Z</time>
      </trkpt>
      <trkpt lat="37.7148033958" lon="-8.6670058966">
        <ele>173.66</ele>
        <time>2019-12-28T15:22:48Z</time>
      </trkpt>
      <trkpt lat="37.7147974446" lon="-8.6670331378">
        <ele>173.66</ele>
        <time>2019-12-28T15:22:50Z</time>
      </trkpt>
      <trkpt lat="37.7148054913" lon="-8.6670776457">
        <ele>173.66</ele>
        <time>2019-12-28T15:22:54Z</time>
      </trkpt>
      <trkpt lat="37.7148158848" lon="-8.6671009474">
        <ele>173.66</ele>
        <time>2019-12-28T15:22:57Z</time>
      </trkpt>
      <trkpt lat="37.7148968540" lon="-8.6671913043">
        <ele>174.14</ele>
        <time>2019-12-28T15:23:07Z</time>
      </trkpt>
      <trkpt lat="37.7149430383" lon="-8.6672536656">
        <ele>174.14</ele>
        <time>2019-12-28T15:23:14Z</time>
      </trkpt>
      <trkpt lat="37.7149587125" lon="-8.6672728602">
        <ele>174.62</ele>
        <time>2019-12-28T15:23:16Z</time>
      </trkpt>
      <trkpt lat="37.7150312159" lon="-8.6673562601">
        <ele>174.62</ele>
        <time>2019-12-28T15:23:25Z</time>
      </trkpt>
      <trkpt lat="37.7150676772" lon="-8.6674212199">
        <ele>175.10</ele>
        <time>2019-12-28T15:23:31Z</time>
      </trkpt>
      <trkpt lat="37.7150857821" lon="-8.6674315296">
        <ele>175.10</ele>
        <time>2019-12-28T15:23:33Z</time>
      </trkpt>
      <trkpt lat="37.7150960919" lon="-8.6674512271">
        <ele>175.10</ele>
        <time>2019-12-28T15:23:35Z</time>
      </trkpt>
      <trkpt lat="37.7151427791" lon="-8.6675076373">
        <ele>175.10</ele>
        <time>2019-12-28T15:23:41Z</time>
      </trkpt>
      <trkpt lat="37.7151647396" lon="-8.6675164383">
        <ele>175.58</ele>
        <time>2019-12-28T15:23:43Z</time>
      </trkpt>
      <trkpt lat="37.7151854429" lon="-8.6675259937">
        <ele>175.58</ele>
        <time>2019-12-28T15:23:45Z</time>
      </trkpt>
      <trkpt lat="37.7152504865" lon="-8.6675928812">
        <ele>175.58</ele>
        <time>2019-12-28T15:23:54Z</time>
      </trkpt>
      <trkpt lat="37.7152602095" lon="-8.6676497106">
        <ele>176.06</ele>
        <time>2019-12-28T15:23:58Z</time>
      </trkpt>
      <trkpt lat="37.7152599581" lon="-8.6676987447">
        <ele>175.58</ele>
        <time>2019-12-28T15:24:02Z</time>
      </trkpt>
      <trkpt lat="37.7152594551" lon="-8.6677301768">
        <ele>176.06</ele>
        <time>2019-12-28T15:24:05Z</time>
      </trkpt>
      <trkpt lat="37.7152592037" lon="-8.6677805521">
        <ele>176.06</ele>
        <time>2019-12-28T15:24:09Z</time>
      </trkpt>
      <trkpt lat="37.7152695972" lon="-8.6678378005">
        <ele>176.06</ele>
        <time>2019-12-28T15:24:14Z</time>
      </trkpt>
      <trkpt lat="37.7152519114" lon="-8.6678663827">
        <ele>176.06</ele>
        <time>2019-12-28T15:24:17Z</time>
      </trkpt>
      <trkpt lat="37.7152142767" lon="-8.6679184344">
        <ele>176.06</ele>
        <time>2019-12-28T15:24:23Z</time>
      </trkpt>
      <trkpt lat="37.7152137738" lon="-8.6679524649">
        <ele>176.06</ele>
        <time>2019-12-28T15:24:27Z</time>
      </trkpt>
      <trkpt lat="37.7152724471" lon="-8.6680293269">
        <ele>175.10</ele>
        <time>2019-12-28T15:24:37Z</time>
      </trkpt>
      <trkpt lat="37.7153517399" lon="-8.6681327596">
        <ele>172.69</ele>
        <time>2019-12-28T15:24:50Z</time>
      </trkpt>
      <trkpt lat="37.7153943200" lon="-8.6681455001">
        <ele>171.73</ele>
        <time>2019-12-28T15:25:02Z</time>
      </trkpt>
      <trkpt lat="37.7154196333" lon="-8.6681522895">
        <ele>171.73</ele>
        <time>2019-12-28T15:25:30Z</time>
      </trkpt>
      <trkpt lat="37.7154582739" lon="-8.6681715678">
        <ele>170.77</ele>
        <time>2019-12-28T15:25:34Z</time>
      </trkpt>
      <trkpt lat="37.7155503072" lon="-8.6682319175">
        <ele>169.33</ele>
        <time>2019-12-28T15:25:44Z</time>
      </trkpt>
      <trkpt lat="37.7155889478" lon="-8.6682647746">
        <ele>168.85</ele>
        <time>2019-12-28T15:25:49Z</time>
      </trkpt>
      <trkpt lat="37.7157092281" lon="-8.6683317460">
        <ele>166.93</ele>
        <time>2019-12-28T15:26:01Z</time>
      </trkpt>
      <trkpt lat="37.7157283388" lon="-8.6683440674">
        <ele>166.93</ele>
        <time>2019-12-28T15:26:03Z</time>
      </trkpt>
      <trkpt lat="37.7157743555" lon="-8.6683961190">
        <ele>165.96</ele>
        <time>2019-12-28T15:26:08Z</time>
      </trkpt>
      <trkpt lat="37.7157886047" lon="-8.6684207618">
        <ele>165.96</ele>
        <time>2019-12-28T15:26:10Z</time>
      </trkpt>
      <trkpt lat="37.7157998364" lon="-8.6684715562">
        <ele>165.48</ele>
        <time>2019-12-28T15:26:14Z</time>
      </trkpt>
      <trkpt lat="37.7158308495" lon="-8.6685175728">
        <ele>165.48</ele>
        <time>2019-12-28T15:26:19Z</time>
      </trkpt>
      <trkpt lat="37.7158400696" lon="-8.6685576383">
        <ele>165.48</ele>
        <time>2019-12-28T15:26:23Z</time>
      </trkpt>
      <trkpt lat="37.7158640418" lon="-8.6685992964">
        <ele>165.00</ele>
        <time>2019-12-28T15:26:37Z</time>
      </trkpt>
      <trkpt lat="37.7158850804" lon="-8.6686090194">
        <ele>165.00</ele>
        <time>2019-12-28T15:26:39Z</time>
      </trkpt>
      <trkpt lat="37.7159288339" lon="-8.6686831992">
        <ele>165.48</ele>
        <time>2019-12-28T15:26:48Z</time>
      </trkpt>
      <trkpt lat="37.7159238886" lon="-8.6686880607">
        <ele>165.00</ele>
        <time>2019-12-28T15:27:07Z</time>
      </trkpt>
      <trkpt lat="37.7159070410" lon="-8.6686991248">
        <ele>165.00</ele>
        <time>2019-12-28T15:27:22Z</time>
      </trkpt>
      <trkpt lat="37.7159360424" lon="-8.6686867196">
        <ele>165.00</ele>
        <time>2019-12-28T15:27:35Z</time>
      </trkpt>
      <trkpt lat="37.7159785386" lon="-8.6686744820">
        <ele>164.52</ele>
        <time>2019-12-28T15:27:39Z</time>
      </trkpt>
      <trkpt lat="37.7160243876" lon="-8.6686965264">
        <ele>164.52</ele>
        <time>2019-12-28T15:27:43Z</time>
      </trkpt>
      <trkpt lat="37.7161149960" lon="-8.6687883083">
        <ele>164.52</ele>
        <time>2019-12-28T15:27:53Z</time>
      </trkpt>
      <trkpt lat="37.7161704842" lon="-8.6688286252">
        <ele>164.04</ele>
        <time>2019-12-28T15:27:58Z</time>
      </trkpt>
      <trkpt lat="37.7163122222" lon="-8.6689531803">
        <ele>165.00</ele>
        <time>2019-12-28T15:28:13Z</time>
      </trkpt>
      <trkpt lat="37.7163369488" lon="-8.6689841095">
        <ele>164.52</ele>
        <time>2019-12-28T15:28:16Z</time>
      </trkpt>
      <trkpt lat="37.7163610049" lon="-8.6690401006">
        <ele>165.00</ele>
        <time>2019-12-28T15:28:20Z</time>
      </trkpt>
      <trkpt lat="37.7164094523" lon="-8.6690816749">
        <ele>165.00</ele>
        <time>2019-12-28T15:28:26Z</time>
      </trkpt>
      <trkpt lat="37.7164893318" lon="-8.6692274362">
        <ele>165.00</ele>
        <time>2019-12-28T15:28:37Z</time>
      </trkpt>
      <trkpt lat="37.7165347617" lon="-8.6692829244">
        <ele>165.48</ele>
        <time>2019-12-28T15:28:42Z</time>
      </trkpt>
      <trkpt lat="37.7165783476" lon="-8.6693466268">
        <ele>165.00</ele>
        <time>2019-12-28T15:28:48Z</time>
      </trkpt>
      <trkpt lat="37.7165910043" lon="-8.6694189627">
        <ele>165.48</ele>
        <time>2019-12-28T15:28:53Z</time>
      </trkpt>
      <trkpt lat="37.7166736498" lon="-8.6695164442">
        <ele>165.48</ele>
        <time>2019-12-28T15:29:02Z</time>
      </trkpt>
      <trkpt lat="37.7166873962" lon="-8.6695375666">
        <ele>165.00</ele>
        <time>2019-12-28T15:29:04Z</time>
      </trkpt>
      <trkpt lat="37.7167568821" lon="-8.6697073001">
        <ele>165.48</ele>
        <time>2019-12-28T15:29:15Z</time>
      </trkpt>
      <trkpt lat="37.7168180700" lon="-8.6697877664">
        <ele>165.48</ele>
        <time>2019-12-28T15:29:22Z</time>
      </trkpt>
      <trkpt lat="37.7168532740" lon="-8.6698498763">
        <ele>165.48</ele>
        <time>2019-12-28T15:29:27Z</time>
      </trkpt>
      <trkpt lat="37.7168925852" lon="-8.6698818952">
        <ele>165.48</ele>
        <time>2019-12-28T15:29:31Z</time>
      </trkpt>
      <trkpt lat="37.7169441339" lon="-8.6699883454">
        <ele>165.96</ele>
        <time>2019-12-28T15:29:39Z</time>
      </trkpt>
      <trkpt lat="37.7169624064" lon="-8.6700110603">
        <ele>165.96</ele>
        <time>2019-12-28T15:29:42Z</time>
      </trkpt>
      <trkpt lat="37.7169974428" lon="-8.6700501200">
        <ele>165.96</ele>
        <time>2019-12-28T15:29:46Z</time>
      </trkpt>
      <trkpt lat="37.7170205768" lon="-8.6700712424">
        <ele>165.48</ele>
        <time>2019-12-28T15:29:48Z</time>
      </trkpt>
      <trkpt lat="37.7170436271" lon="-8.6701469310">
        <ele>165.48</ele>
        <time>2019-12-28T15:29:53Z</time>
      </trkpt>
      <trkpt lat="37.7171381749" lon="-8.6702730786">
        <ele>165.96</ele>
        <time>2019-12-28T15:30:04Z</time>
      </trkpt>
      <trkpt lat="37.7171960101" lon="-8.6702982243">
        <ele>165.48</ele>
        <time>2019-12-28T15:30:08Z</time>
      </trkpt>
      <trkpt lat="37.7172133606" lon="-8.6703755055">
        <ele>165.96</ele>
        <time>2019-12-28T15:30:12Z</time>
      </trkpt>
      <trkpt lat="37.7172996104" lon="-8.6704771779">
        <ele>165.96</ele>
        <time>2019-12-28T15:30:21Z</time>
      </trkpt>
      <trkpt lat="37.7173087467" lon="-8.6704864819">
        <ele>165.96</ele>
        <time>2019-12-28T15:30:22Z</time>
      </trkpt>
      <trkpt lat="37.7174097486" lon="-8.6706054211">
        <ele>166.45</ele>
        <time>2019-12-28T15:30:33Z</time>
      </trkpt>
      <trkpt lat="37.7174311224" lon="-8.6706256215">
        <ele>166.45</ele>
        <time>2019-12-28T15:30:36Z</time>
      </trkpt>
      <trkpt lat="37.7174733672" lon="-8.6706484202">
        <ele>165.96</ele>
        <time>2019-12-28T15:30:39Z</time>
      </trkpt>
      <trkpt lat="37.7175047155" lon="-8.6706966162">
        <ele>165.96</ele>
        <time>2019-12-28T15:30:43Z</time>
      </trkpt>
      <trkpt lat="37.7176187932" lon="-8.6708326545">
        <ele>166.45</ele>
        <time>2019-12-28T15:30:55Z</time>
      </trkpt>
      <trkpt lat="37.7176864352" lon="-8.6708800960">
        <ele>166.45</ele>
        <time>2019-12-28T15:31:01Z</time>
      </trkpt>
      <trkpt lat="37.7177037019" lon="-8.6709034815">
        <ele>166.45</ele>
        <time>2019-12-28T15:31:03Z</time>
      </trkpt>
      <trkpt lat="37.7177651413" lon="-8.6709871329">
        <ele>166.45</ele>
        <time>2019-12-28T15:31:10Z</time>
      </trkpt>
      <trkpt lat="37.7178952284" lon="-8.6711382587">
        <ele>166.93</ele>
        <time>2019-12-28T15:31:26Z</time>
      </trkpt>
      <trkpt lat="37.7179103997" lon="-8.6711708643">
        <ele>166.93</ele>
        <time>2019-12-28T15:31:28Z</time>
      </trkpt>
      <trkpt lat="37.7180395648" lon="-8.6712968443">
        <ele>167.41</ele>
        <time>2019-12-28T15:31:41Z</time>
      </trkpt>
      <trkpt lat="37.7180906944" lon="-8.6713359877">
        <ele>167.41</ele>
        <time>2019-12-28T15:31:45Z</time>
      </trkpt>
      <trkpt lat="37.7182454243" lon="-8.6714809109">
        <ele>167.41</ele>
        <time>2019-12-28T15:32:00Z</time>
      </trkpt>
      <trkpt lat="37.7182787005" lon="-8.6715151928">
        <ele>167.89</ele>
        <time>2019-12-28T15:32:04Z</time>
      </trkpt>
      <trkpt lat="37.7183766849" lon="-8.6715688370">
        <ele>167.89</ele>
        <time>2019-12-28T15:32:12Z</time>
      </trkpt>
      <trkpt lat="37.7185218595" lon="-8.6716400832">
        <ele>168.37</ele>
        <time>2019-12-28T15:32:24Z</time>
      </trkpt>
      <trkpt lat="37.7186003979" lon="-8.6717103235">
        <ele>168.37</ele>
        <time>2019-12-28T15:32:32Z</time>
      </trkpt>
      <trkpt lat="37.7186040021" lon="-8.6717312783">
        <ele>168.37</ele>
        <time>2019-12-28T15:32:34Z</time>
      </trkpt>
      <trkpt lat="37.7186142281" lon="-8.6718270835">
        <ele>168.85</ele>
        <time>2019-12-28T15:32:41Z</time>
      </trkpt>
      <trkpt lat="37.7186051756" lon="-8.6718523130">
        <ele>168.37</ele>
        <time>2019-12-28T15:32:43Z</time>
      </trkpt>
      <trkpt lat="37.7186070196" lon="-8.6718772911">
        <ele>169.33</ele>
        <time>2019-12-28T15:32:45Z</time>
      </trkpt>
      <trkpt lat="37.7185031679" lon="-8.6720285844">
        <ele>169.33</ele>
        <time>2019-12-28T15:32:58Z</time>
      </trkpt>
      <trkpt lat="37.7183695603" lon="-8.6722502019">
        <ele>171.25</ele>
        <time>2019-12-28T15:33:15Z</time>
      </trkpt>
      <trkpt lat="37.7183425706" lon="-8.6722797900">
        <ele>171.25</ele>
        <time>2019-12-28T15:33:18Z</time>
      </trkpt>
      <trkpt lat="37.7182978112" lon="-8.6722855736">
        <ele>172.21</ele>
        <time>2019-12-28T15:33:29Z</time>
      </trkpt>
      <trkpt lat="37.7182996552" lon="-8.6722961348">
        <ele>171.73</ele>
        <time>2019-12-28T15:33:32Z</time>
      </trkpt>
      <trkpt lat="37.7182741743" lon="-8.6723533832">
        <ele>172.69</ele>
        <time>2019-12-28T15:33:37Z</time>
      </trkpt>
      <trkpt lat="37.7182482742" lon="-8.6724054348">
        <ele>172.69</ele>
        <time>2019-12-28T15:33:41Z</time>
      </trkpt>
      <trkpt lat="37.7181463502" lon="-8.6725582369">
        <ele>172.21</ele>
        <time>2019-12-28T15:33:54Z</time>
      </trkpt>
      <trkpt lat="37.7180761099" lon="-8.6727754120">
        <ele>173.17</ele>
        <time>2019-12-28T15:34:09Z</time>
      </trkpt>
      <trkpt lat="37.7180907782" lon="-8.6729903240">
        <ele>173.66</ele>
        <time>2019-12-28T15:34:22Z</time>
      </trkpt>
      <trkpt lat="37.7181002498" lon="-8.6730246898">
        <ele>173.66</ele>
        <time>2019-12-28T15:34:24Z</time>
      </trkpt>
      <trkpt lat="37.7181296702" lon="-8.6732422002">
        <ele>174.62</ele>
        <time>2019-12-28T15:34:37Z</time>
      </trkpt>
      <trkpt lat="37.7181243058" lon="-8.6732908152">
        <ele>175.10</ele>
        <time>2019-12-28T15:34:40Z</time>
      </trkpt>
      <trkpt lat="37.7181388903" lon="-8.6733740475">
        <ele>174.62</ele>
        <time>2019-12-28T15:34:46Z</time>
      </trkpt>
      <trkpt lat="37.7181530558" lon="-8.6735768057">
        <ele>175.10</ele>
        <time>2019-12-28T15:34:59Z</time>
      </trkpt>
      <trkpt lat="37.7181719989" lon="-8.6737828329">
        <ele>175.10</ele>
        <time>2019-12-28T15:35:11Z</time>
      </trkpt>
      <trkpt lat="37.7181725018" lon="-8.6738005187">
        <ele>175.58</ele>
        <time>2019-12-28T15:35:12Z</time>
      </trkpt>
      <trkpt lat="37.7181800455" lon="-8.6739104893">
        <ele>176.06</ele>
        <time>2019-12-28T15:35:18Z</time>
      </trkpt>
      <trkpt lat="37.7182269003" lon="-8.6741326097">
        <ele>176.06</ele>
        <time>2019-12-28T15:35:33Z</time>
      </trkpt>
      <trkpt lat="37.7182414848" lon="-8.6741937138">
        <ele>176.06</ele>
        <time>2019-12-28T15:35:37Z</time>
      </trkpt>
      <trkpt lat="37.7182500344" lon="-8.6742227152">
        <ele>176.54</ele>
        <time>2019-12-28T15:35:39Z</time>
      </trkpt>
      <trkpt lat="37.7182573266" lon="-8.6742730904">
        <ele>175.58</ele>
        <time>2019-12-28T15:35:42Z</time>
      </trkpt>
      <trkpt lat="37.7182812989" lon="-8.6743651237">
        <ele>175.58</ele>
        <time>2019-12-28T15:35:47Z</time>
      </trkpt>
      <trkpt lat="37.7183139045" lon="-8.6745519564">
        <ele>176.54</ele>
        <time>2019-12-28T15:35:59Z</time>
      </trkpt>
      <trkpt lat="37.7183339372" lon="-8.6746275611">
        <ele>176.54</ele>
        <time>2019-12-28T15:36:03Z</time>
      </trkpt>
      <trkpt lat="37.7183562331" lon="-8.6747855600">
        <ele>176.06</ele>
        <time>2019-12-28T15:36:13Z</time>
      </trkpt>
      <trkpt lat="37.7183980588" lon="-8.6749689560">
        <ele>176.54</ele>
        <time>2019-12-28T15:36:24Z</time>
      </trkpt>
      <trkpt lat="37.7183989808" lon="-8.6750169005">
        <ele>177.02</ele>
        <time>2019-12-28T15:36:27Z</time>
      </trkpt>
      <trkpt lat="37.7184423991" lon="-8.6752160545">
        <ele>177.02</ele>
        <time>2019-12-28T15:36:39Z</time>
      </trkpt>
      <trkpt lat="37.7184497751" lon="-8.6752768233">
        <ele>177.02</ele>
        <time>2019-12-28T15:36:43Z</time>
      </trkpt>
      <trkpt lat="37.7184765972" lon="-8.6754470598">
        <ele>177.02</ele>
        <time>2019-12-28T15:36:53Z</time>
      </trkpt>
      <trkpt lat="37.7184677962" lon="-8.6755017936">
        <ele>177.50</ele>
        <time>2019-12-28T15:36:57Z</time>
      </trkpt>
      <trkpt lat="37.7184928581" lon="-8.6755609699">
        <ele>177.98</ele>
        <time>2019-12-28T15:37:01Z</time>
      </trkpt>
      <trkpt lat="37.7185108792" lon="-8.6756842677">
        <ele>177.50</ele>
        <time>2019-12-28T15:37:09Z</time>
      </trkpt>
      <trkpt lat="37.7185157407" lon="-8.6757161189">
        <ele>177.50</ele>
        <time>2019-12-28T15:37:11Z</time>
      </trkpt>
      <trkpt lat="37.7185303252" lon="-8.6757569388">
        <ele>177.50</ele>
        <time>2019-12-28T15:37:14Z</time>
      </trkpt>
      <trkpt lat="37.7185576502" lon="-8.6758518219">
        <ele>177.98</ele>
        <time>2019-12-28T15:37:20Z</time>
      </trkpt>
      <trkpt lat="37.7185847238" lon="-8.6759469565">
        <ele>178.46</ele>
        <time>2019-12-28T15:37:26Z</time>
      </trkpt>
      <trkpt lat="37.7186111268" lon="-8.6760811508">
        <ele>178.94</ele>
        <time>2019-12-28T15:37:35Z</time>
      </trkpt>
      <trkpt lat="37.7186257113" lon="-8.6761213839">
        <ele>178.94</ele>
        <time>2019-12-28T15:37:39Z</time>
      </trkpt>
      <trkpt lat="37.7186555509" lon="-8.6762969848">
        <ele>178.94</ele>
        <time>2019-12-28T15:37:50Z</time>
      </trkpt>
      <trkpt lat="37.7186495159" lon="-8.6763797142">
        <ele>180.38</ele>
        <time>2019-12-28T15:37:55Z</time>
      </trkpt>
      <trkpt lat="37.7187006455" lon="-8.6765103880">
        <ele>179.42</ele>
        <time>2019-12-28T15:38:03Z</time>
      </trkpt>
      <trkpt lat="37.7187067643" lon="-8.6765971407">
        <ele>179.90</ele>
        <time>2019-12-28T15:38:09Z</time>
      </trkpt>
      <trkpt lat="37.7187282220" lon="-8.6766540539">
        <ele>179.90</ele>
        <time>2019-12-28T15:38:13Z</time>
      </trkpt>
      <trkpt lat="37.7187335026" lon="-8.6767916847">
        <ele>180.38</ele>
        <time>2019-12-28T15:38:21Z</time>
      </trkpt>
      <trkpt lat="37.7187459078" lon="-8.6769006494">
        <ele>180.87</ele>
        <time>2019-12-28T15:38:28Z</time>
      </trkpt>
      <trkpt lat="37.7187557146" lon="-8.6769796908">
        <ele>180.87</ele>
        <time>2019-12-28T15:38:33Z</time>
      </trkpt>
      <trkpt lat="37.7187636774" lon="-8.6771032400">
        <ele>180.38</ele>
        <time>2019-12-28T15:38:41Z</time>
      </trkpt>
      <trkpt lat="37.7187946066" lon="-8.6773056630">
        <ele>180.87</ele>
        <time>2019-12-28T15:38:53Z</time>
      </trkpt>
      <trkpt lat="37.7188028209" lon="-8.6773183197">
        <ele>180.87</ele>
        <time>2019-12-28T15:38:54Z</time>
      </trkpt>
      <trkpt lat="37.7188408747" lon="-8.6774144601">
        <ele>180.87</ele>
        <time>2019-12-28T15:39:00Z</time>
      </trkpt>
      <trkpt lat="37.7188744862" lon="-8.6774999555">
        <ele>180.38</ele>
        <time>2019-12-28T15:39:06Z</time>
      </trkpt>
      <trkpt lat="37.7189038228" lon="-8.6775845289">
        <ele>180.87</ele>
        <time>2019-12-28T15:39:12Z</time>
      </trkpt>
      <trkpt lat="37.7189756557" lon="-8.6777399294">
        <ele>181.35</ele>
        <time>2019-12-28T15:39:23Z</time>
      </trkpt>
      <trkpt lat="37.7190247737" lon="-8.6778635625">
        <ele>181.35</ele>
        <time>2019-12-28T15:39:31Z</time>
      </trkpt>
      <trkpt lat="37.7190316468" lon="-8.6778922286">
        <ele>181.35</ele>
        <time>2019-12-28T15:39:33Z</time>
      </trkpt>
      <trkpt lat="37.7190754004" lon="-8.6779759638">
        <ele>180.87</ele>
        <time>2019-12-28T15:39:39Z</time>
      </trkpt>
      <trkpt lat="37.7190841176" lon="-8.6782041192">
        <ele>181.83</ele>
        <time>2019-12-28T15:39:54Z</time>
      </trkpt>
      <trkpt lat="37.7190596424" lon="-8.6783535685">
        <ele>181.83</ele>
        <time>2019-12-28T15:40:04Z</time>
      </trkpt>
      <trkpt lat="37.7190310601" lon="-8.6784198694">
        <ele>182.31</ele>
        <time>2019-12-28T15:40:09Z</time>
      </trkpt>
      <trkpt lat="37.7189933416" lon="-8.6786154192">
        <ele>182.31</ele>
        <time>2019-12-28T15:40:21Z</time>
      </trkpt>
      <trkpt lat="37.7189936768" lon="-8.6786293332">
        <ele>182.31</ele>
        <time>2019-12-28T15:40:22Z</time>
      </trkpt>
      <trkpt lat="37.7189806011" lon="-8.6787413154">
        <ele>182.31</ele>
        <time>2019-12-28T15:40:29Z</time>
      </trkpt>
      <trkpt lat="37.7189460676" lon="-8.6788324267">
        <ele>182.79</ele>
        <time>2019-12-28T15:40:35Z</time>
      </trkpt>
      <trkpt lat="37.7188884839" lon="-8.6789925210">
        <ele>182.79</ele>
        <time>2019-12-28T15:40:46Z</time>
      </trkpt>
      <trkpt lat="37.7188726421" lon="-8.6790207680">
        <ele>183.75</ele>
        <time>2019-12-28T15:40:48Z</time>
      </trkpt>
      <trkpt lat="37.7187923435" lon="-8.6790330056">
        <ele>183.75</ele>
        <time>2019-12-28T15:40:55Z</time>
      </trkpt>
      <trkpt lat="37.7186940238" lon="-8.6791155674">
        <ele>184.23</ele>
        <time>2019-12-28T15:41:05Z</time>
      </trkpt>
      <trkpt lat="37.7185878251" lon="-8.6792751588">
        <ele>184.71</ele>
        <time>2019-12-28T15:41:18Z</time>
      </trkpt>
      <trkpt lat="37.7185651939" lon="-8.6793012265">
        <ele>185.19</ele>
        <time>2019-12-28T15:41:20Z</time>
      </trkpt>
      <trkpt lat="37.7185080294" lon="-8.6793516856">
        <ele>185.19</ele>
        <time>2019-12-28T15:41:26Z</time>
      </trkpt>
      <trkpt lat="37.7183986455" lon="-8.6795458104">
        <ele>185.67</ele>
        <time>2019-12-28T15:41:41Z</time>
      </trkpt>
      <trkpt lat="37.7183465939" lon="-8.6796407774">
        <ele>186.15</ele>
        <time>2019-12-28T15:41:48Z</time>
      </trkpt>
      <trkpt lat="37.7182310075" lon="-8.6797721218">
        <ele>187.59</ele>
        <time>2019-12-28T15:42:02Z</time>
      </trkpt>
      <trkpt lat="37.7182263974" lon="-8.6797845270">
        <ele>187.11</ele>
        <time>2019-12-28T15:42:10Z</time>
      </trkpt>
      <trkpt lat="37.7181728370" lon="-8.6798591260">
        <ele>187.59</ele>
        <time>2019-12-28T15:42:16Z</time>
      </trkpt>
      <trkpt lat="37.7181405667" lon="-8.6798885465">
        <ele>187.59</ele>
        <time>2019-12-28T15:42:19Z</time>
      </trkpt>
      <trkpt lat="37.7180800494" lon="-8.6799487285">
        <ele>188.08</ele>
        <time>2019-12-28T15:42:26Z</time>
      </trkpt>
      <trkpt lat="37.7180191129" lon="-8.6799929850">
        <ele>188.56</ele>
        <time>2019-12-28T15:42:32Z</time>
      </trkpt>
      <trkpt lat="37.7179471962" lon="-8.6801650655">
        <ele>189.04</ele>
        <time>2019-12-28T15:42:45Z</time>
      </trkpt>
      <trkpt lat="37.7179292589" lon="-8.6803105753">
        <ele>189.04</ele>
        <time>2019-12-28T15:42:54Z</time>
      </trkpt>
      <trkpt lat="37.7178873494" lon="-8.6803921312">
        <ele>188.56</ele>
        <time>2019-12-28T15:43:00Z</time>
      </trkpt>
      <trkpt lat="37.7178487927" lon="-8.6804641318">
        <ele>189.04</ele>
        <time>2019-12-28T15:43:06Z</time>
      </trkpt>
      <trkpt lat="37.7177995071" lon="-8.6805357970">
        <ele>189.04</ele>
        <time>2019-12-28T15:43:12Z</time>
      </trkpt>
      <trkpt lat="37.7177691646" lon="-8.6805533152">
        <ele>190.48</ele>
        <time>2019-12-28T15:43:15Z</time>
      </trkpt>
      <trkpt lat="37.7177767921" lon="-8.6805803049">
        <ele>190.00</ele>
        <time>2019-12-28T15:43:18Z</time>
      </trkpt>
      <trkpt lat="37.7177541610" lon="-8.6806137487">
        <ele>189.52</ele>
        <time>2019-12-28T15:43:21Z</time>
      </trkpt>
      <trkpt lat="37.7176520694" lon="-8.6807362083">
        <ele>191.44</ele>
        <time>2019-12-28T15:43:33Z</time>
      </trkpt>
      <trkpt lat="37.7175898757" lon="-8.6807783693">
        <ele>190.96</ele>
        <time>2019-12-28T15:43:38Z</time>
      </trkpt>
      <trkpt lat="37.7175070625" lon="-8.6808891781">
        <ele>191.44</ele>
        <time>2019-12-28T15:43:48Z</time>
      </trkpt>
      <trkpt lat="37.7174586151" lon="-8.6809541378">
        <ele>191.92</ele>
        <time>2019-12-28T15:43:54Z</time>
      </trkpt>
      <trkpt lat="37.7174270991" lon="-8.6809882522">
        <ele>192.40</ele>
        <time>2019-12-28T15:43:58Z</time>
      </trkpt>
      <trkpt lat="37.7173827589" lon="-8.6810590792">
        <ele>192.40</ele>
        <time>2019-12-28T15:44:03Z</time>
      </trkpt>
      <trkpt lat="37.7173409332" lon="-8.6810909305">
        <ele>192.88</ele>
        <time>2019-12-28T15:44:07Z</time>
      </trkpt>
      <trkpt lat="37.7172691002" lon="-8.6812164076">
        <ele>192.88</ele>
        <time>2019-12-28T15:44:17Z</time>
      </trkpt>
      <trkpt lat="37.7172269393" lon="-8.6812848039">
        <ele>193.36</ele>
        <time>2019-12-28T15:44:22Z</time>
      </trkpt>
      <trkpt lat="37.7171667572" lon="-8.6813169904">
        <ele>193.36</ele>
        <time>2019-12-28T15:44:27Z</time>
      </trkpt>
      <trkpt lat="37.7170186490" lon="-8.6813850515">
        <ele>194.32</ele>
        <time>2019-12-28T15:44:41Z</time>
      </trkpt>
      <trkpt lat="37.7170064952" lon="-8.6813873146">
        <ele>194.32</ele>
        <time>2019-12-28T15:44:42Z</time>
      </trkpt>
      <trkpt lat="37.7169429604" lon="-8.6813906673">
        <ele>194.80</ele>
        <time>2019-12-28T15:44:47Z</time>
      </trkpt>
      <trkpt lat="37.7168241888" lon="-8.6814177409">
        <ele>195.77</ele>
        <time>2019-12-28T15:44:57Z</time>
      </trkpt>
      <trkpt lat="37.7167733107" lon="-8.6814065930">
        <ele>195.77</ele>
        <time>2019-12-28T15:45:01Z</time>
      </trkpt>
      <trkpt lat="37.7167376876" lon="-8.6813566368">
        <ele>196.73</ele>
        <time>2019-12-28T15:45:06Z</time>
      </trkpt>
      <trkpt lat="37.7167295571" lon="-8.6813210137">
        <ele>196.73</ele>
        <time>2019-12-28T15:45:09Z</time>
      </trkpt>
      <trkpt lat="37.7167283837" lon="-8.6812819541">
        <ele>196.73</ele>
        <time>2019-12-28T15:45:12Z</time>
      </trkpt>
      <trkpt lat="37.7167647611" lon="-8.6812033318">
        <ele>197.69</ele>
        <time>2019-12-28T15:45:17Z</time>
      </trkpt>
      <trkpt lat="37.7167805191" lon="-8.6811446585">
        <ele>198.65</ele>
        <time>2019-12-28T15:45:21Z</time>
      </trkpt>
      <trkpt lat="37.7168267034" lon="-8.6810425669">
        <ele>200.09</ele>
        <time>2019-12-28T15:45:30Z</time>
      </trkpt>
      <trkpt lat="37.7168555371" lon="-8.6809582449">
        <ele>202.01</ele>
        <time>2019-12-28T15:45:37Z</time>
      </trkpt>
      <trkpt lat="37.7168753184" lon="-8.6808500346">
        <ele>203.46</ele>
        <time>2019-12-28T15:45:45Z</time>
      </trkpt>
      <trkpt lat="37.7168351691" lon="-8.6807995755">
        <ele>204.90</ele>
        <time>2019-12-28T15:45:51Z</time>
      </trkpt>
      <trkpt lat="37.7167167328" lon="-8.6807710771">
        <ele>205.86</ele>
        <time>2019-12-28T15:45:59Z</time>
      </trkpt>
      <trkpt lat="37.7166541200" lon="-8.6807775311">
        <ele>205.38</ele>
        <time>2019-12-28T15:46:04Z</time>
      </trkpt>
      <trkpt lat="37.7166326623" lon="-8.6807722505">
        <ele>205.86</ele>
        <time>2019-12-28T15:46:06Z</time>
      </trkpt>
      <trkpt lat="37.7165221050" lon="-8.6807937920">
        <ele>205.86</ele>
        <time>2019-12-28T15:46:14Z</time>
      </trkpt>
      <trkpt lat="37.7164863143" lon="-8.6808153335">
        <ele>205.38</ele>
        <time>2019-12-28T15:46:18Z</time>
      </trkpt>
      <trkpt lat="37.7164290659" lon="-8.6808212847">
        <ele>206.34</ele>
        <time>2019-12-28T15:46:23Z</time>
      </trkpt>
      <trkpt lat="37.7163414750" lon="-8.6808123998">
        <ele>205.38</ele>
        <time>2019-12-28T15:46:29Z</time>
      </trkpt>
      <trkpt lat="37.7162720729" lon="-8.6807921994">
        <ele>205.86</ele>
        <time>2019-12-28T15:46:34Z</time>
      </trkpt>
      <trkpt lat="37.7161881700" lon="-8.6807919480">
        <ele>207.30</ele>
        <time>2019-12-28T15:46:40Z</time>
      </trkpt>
      <trkpt lat="37.7161574084" lon="-8.6808078736">
        <ele>207.30</ele>
        <time>2019-12-28T15:46:43Z</time>
      </trkpt>
      <trkpt lat="37.7161000762" lon="-8.6808164231">
        <ele>208.26</ele>
        <time>2019-12-28T15:46:49Z</time>
      </trkpt>
      <trkpt lat="37.7160324343" lon="-8.6807457637">
        <ele>208.26</ele>
        <time>2019-12-28T15:46:58Z</time>
      </trkpt>
      <trkpt lat="37.7159940451" lon="-8.6806904431">
        <ele>207.30</ele>
        <time>2019-12-28T15:47:04Z</time>
      </trkpt>
      <trkpt lat="37.7159553207" lon="-8.6806550715">
        <ele>205.86</ele>
        <time>2019-12-28T15:47:18Z</time>
      </trkpt>
      <trkpt lat="37.7159501240" lon="-8.6806495395">
        <ele>205.86</ele>
        <time>2019-12-28T15:47:19Z</time>
      </trkpt>
      <trkpt lat="37.7158395667" lon="-8.6805788800">
        <ele>203.46</ele>
        <time>2019-12-28T15:47:29Z</time>
      </trkpt>
      <trkpt lat="37.7157570049" lon="-8.6805524770">
        <ele>202.49</ele>
        <time>2019-12-28T15:47:36Z</time>
      </trkpt>
      <trkpt lat="37.7157404926" lon="-8.6805667263">
        <ele>201.05</ele>
        <time>2019-12-28T15:47:46Z</time>
      </trkpt>
      <trkpt lat="37.7157340385" lon="-8.6805583443">
        <ele>202.49</ele>
        <time>2019-12-28T15:48:12Z</time>
      </trkpt>
      <trkpt lat="37.7157295961" lon="-8.6805589311">
        <ele>202.49</ele>
        <time>2019-12-28T15:48:17Z</time>
      </trkpt>
      <trkpt lat="37.7156597748" lon="-8.6805269122">
        <ele>201.53</ele>
        <time>2019-12-28T15:48:23Z</time>
      </trkpt>
      <trkpt lat="37.7155275084" lon="-8.6804836616">
        <ele>200.09</ele>
        <time>2019-12-28T15:48:36Z</time>
      </trkpt>
      <trkpt lat="37.7153715212" lon="-8.6804316100">
        <ele>198.65</ele>
        <time>2019-12-28T15:48:49Z</time>
      </trkpt>
      <trkpt lat="37.7153259236" lon="-8.6804146785">
        <ele>199.13</ele>
        <time>2019-12-28T15:48:53Z</time>
      </trkpt>
      <trkpt lat="37.7152620535" lon="-8.6803916283">
        <ele>199.13</ele>
        <time>2019-12-28T15:49:00Z</time>
      </trkpt>
      <trkpt lat="37.7152300347" lon="-8.6803654768">
        <ele>199.61</ele>
        <time>2019-12-28T15:49:04Z</time>
      </trkpt>
      <trkpt lat="37.7152069006" lon="-8.6803461146">
        <ele>200.57</ele>
        <time>2019-12-28T15:49:07Z</time>
      </trkpt>
      <trkpt lat="37.7151727024" lon="-8.6803218070">
        <ele>201.05</ele>
        <time>2019-12-28T15:49:11Z</time>
      </trkpt>
      <trkpt lat="37.7151383366" lon="-8.6803120840">
        <ele>202.01</ele>
        <time>2019-12-28T15:49:14Z</time>
      </trkpt>
      <trkpt lat="37.7150594629" lon="-8.6802491359">
        <ele>202.01</ele>
        <time>2019-12-28T15:49:21Z</time>
      </trkpt>
      <trkpt lat="37.7149141207" lon="-8.6801933963">
        <ele>202.01</ele>
        <time>2019-12-28T15:49:34Z</time>
      </trkpt>
      <trkpt lat="37.7148789167" lon="-8.6801876128">
        <ele>202.49</ele>
        <time>2019-12-28T15:49:37Z</time>
      </trkpt>
      <trkpt lat="37.7148588840" lon="-8.6801757105">
        <ele>202.49</ele>
        <time>2019-12-28T15:49:39Z</time>
      </trkpt>
      <trkpt lat="37.7147926670" lon="-8.6800901312">
        <ele>203.46</ele>
        <time>2019-12-28T15:49:48Z</time>
      </trkpt>
      <trkpt lat="37.7147919964" lon="-8.6800685897">
        <ele>204.42</ele>
        <time>2019-12-28T15:49:50Z</time>
      </trkpt>
      <trkpt lat="37.7148183156" lon="-8.6799032986">
        <ele>205.86</ele>
        <time>2019-12-28T15:50:03Z</time>
      </trkpt>
      <trkpt lat="37.7148217522" lon="-8.6797977705">
        <ele>205.86</ele>
        <time>2019-12-28T15:50:10Z</time>
      </trkpt>
      <trkpt lat="37.7148148790" lon="-8.6797616445">
        <ele>205.38</ele>
        <time>2019-12-28T15:50:13Z</time>
      </trkpt>
      <trkpt lat="37.7148547769" lon="-8.6795715429">
        <ele>206.34</ele>
        <time>2019-12-28T15:50:26Z</time>
      </trkpt>
      <trkpt lat="37.7149112709" lon="-8.6793935951">
        <ele>206.82</ele>
        <time>2019-12-28T15:50:40Z</time>
      </trkpt>
      <trkpt lat="37.7149132825" lon="-8.6792531144">
        <ele>207.78</ele>
        <time>2019-12-28T15:50:55Z</time>
      </trkpt>
      <trkpt lat="37.7149132825" lon="-8.6792531144">
        <ele>207.30</ele>
        <time>2019-12-28T15:50:57Z</time>
      </trkpt>
      <trkpt lat="37.7149112709" lon="-8.6790879071">
        <ele>208.26</ele>
        <time>2019-12-28T15:51:09Z</time>
      </trkpt>
      <trkpt lat="37.7149095107" lon="-8.6790736578">
        <ele>208.26</ele>
        <time>2019-12-28T15:51:10Z</time>
      </trkpt>
      <trkpt lat="37.7148938365" lon="-8.6789746676">
        <ele>209.22</ele>
        <time>2019-12-28T15:51:17Z</time>
      </trkpt>
      <trkpt lat="37.7148982789" lon="-8.6789069418">
        <ele>209.22</ele>
        <time>2019-12-28T15:51:22Z</time>
      </trkpt>
      <trkpt lat="37.7149070799" lon="-8.6787849013">
        <ele>209.22</ele>
        <time>2019-12-28T15:51:30Z</time>
      </trkpt>
      <trkpt lat="37.7149116062" lon="-8.6786134914">
        <ele>210.67</ele>
        <time>2019-12-28T15:51:44Z</time>
      </trkpt>
      <trkpt lat="37.7149116062" lon="-8.6786134914">
        <ele>210.67</ele>
        <time>2019-12-28T15:51:58Z</time>
      </trkpt>
      <trkpt lat="37.7149155457" lon="-8.6785664689">
        <ele>210.67</ele>
        <time>2019-12-28T15:52:02Z</time>
      </trkpt>
      <trkpt lat="37.7149196528" lon="-8.6785299238">
        <ele>210.67</ele>
        <time>2019-12-28T15:52:05Z</time>
      </trkpt>
      <trkpt lat="37.7149295434" lon="-8.6783330329">
        <ele>211.15</ele>
        <time>2019-12-28T15:52:19Z</time>
      </trkpt>
      <trkpt lat="37.7149344049" lon="-8.6781734414">
        <ele>210.19</ele>
        <time>2019-12-28T15:52:31Z</time>
      </trkpt>
      <trkpt lat="37.7149226703" lon="-8.6780738644">
        <ele>210.19</ele>
        <time>2019-12-28T15:52:38Z</time>
      </trkpt>
      <trkpt lat="37.7149139531" lon="-8.6780214775">
        <ele>209.70</ele>
        <time>2019-12-28T15:52:50Z</time>
      </trkpt>
      <trkpt lat="37.7149139531" lon="-8.6780214775">
        <ele>210.19</ele>
        <time>2019-12-28T15:53:00Z</time>
      </trkpt>
      <trkpt lat="37.7148618177" lon="-8.6778835952">
        <ele>210.67</ele>
        <time>2019-12-28T15:53:11Z</time>
      </trkpt>
      <trkpt lat="37.7148117777" lon="-8.6778084096">
        <ele>211.15</ele>
        <time>2019-12-28T15:53:18Z</time>
      </trkpt>
      <trkpt lat="37.7146985382" lon="-8.6777057312">
        <ele>211.15</ele>
        <time>2019-12-28T15:53:30Z</time>
      </trkpt>
      <trkpt lat="37.7146640886" lon="-8.6776838545">
        <ele>210.67</ele>
        <time>2019-12-28T15:53:33Z</time>
      </trkpt>
      <trkpt lat="37.7146192454" lon="-8.6776085850">
        <ele>208.74</ele>
        <time>2019-12-28T15:53:40Z</time>
      </trkpt>
      <trkpt lat="37.7146078460" lon="-8.6775586288">
        <ele>208.26</ele>
        <time>2019-12-28T15:53:44Z</time>
      </trkpt>
      <trkpt lat="37.7145907469" lon="-8.6774923280">
        <ele>207.30</ele>
        <time>2019-12-28T15:53:50Z</time>
      </trkpt>
      <trkpt lat="37.7145365998" lon="-8.6773806810">
        <ele>206.34</ele>
        <time>2019-12-28T15:54:01Z</time>
      </trkpt>
      <trkpt lat="37.7144999709" lon="-8.6772936769">
        <ele>204.90</ele>
        <time>2019-12-28T15:54:08Z</time>
      </trkpt>
      <trkpt lat="37.7144885715" lon="-8.6772702914">
        <ele>204.90</ele>
        <time>2019-12-28T15:54:10Z</time>
      </trkpt>
      <trkpt lat="37.7144925110" lon="-8.6770894937">
        <ele>203.46</ele>
        <time>2019-12-28T15:54:23Z</time>
      </trkpt>
      <trkpt lat="37.7144959476" lon="-8.6770506017">
        <ele>203.46</ele>
        <time>2019-12-28T15:54:26Z</time>
      </trkpt>
      <trkpt lat="37.7145208418" lon="-8.6768617574">
        <ele>202.49</ele>
        <time>2019-12-28T15:54:39Z</time>
      </trkpt>
      <trkpt lat="37.7145231888" lon="-8.6767841410">
        <ele>201.05</ele>
        <time>2019-12-28T15:54:45Z</time>
      </trkpt>
      <trkpt lat="37.7145209257" lon="-8.6767443269">
        <ele>200.57</ele>
        <time>2019-12-28T15:54:48Z</time>
      </trkpt>
      <trkpt lat="37.7145293914" lon="-8.6767031718">
        <ele>200.09</ele>
        <time>2019-12-28T15:54:51Z</time>
      </trkpt>
      <trkpt lat="37.7145875618" lon="-8.6766234599">
        <ele>198.65</ele>
        <time>2019-12-28T15:54:58Z</time>
      </trkpt>
      <trkpt lat="37.7146349195" lon="-8.6765848193">
        <ele>197.69</ele>
        <time>2019-12-28T15:55:03Z</time>
      </trkpt>
      <trkpt lat="37.7147748973" lon="-8.6763908621">
        <ele>194.32</ele>
        <time>2019-12-28T15:55:21Z</time>
      </trkpt>
      <trkpt lat="37.7148209978" lon="-8.6762460228">
        <ele>193.36</ele>
        <time>2019-12-28T15:55:32Z</time>
      </trkpt>
      <trkpt lat="37.7148388512" lon="-8.6761974078">
        <ele>193.36</ele>
        <time>2019-12-28T15:55:36Z</time>
      </trkpt>
      <trkpt lat="37.7148350794" lon="-8.6760694161">
        <ele>192.88</ele>
        <time>2019-12-28T15:55:44Z</time>
      </trkpt>
      <trkpt lat="37.7147845365" lon="-8.6759387422">
        <ele>191.92</ele>
        <time>2019-12-28T15:55:54Z</time>
      </trkpt>
      <trkpt lat="37.7146788407" lon="-8.6758878641">
        <ele>190.00</ele>
        <time>2019-12-28T15:56:05Z</time>
      </trkpt>
      <trkpt lat="37.7146614902" lon="-8.6758809909">
        <ele>189.52</ele>
        <time>2019-12-28T15:56:07Z</time>
      </trkpt>
      <trkpt lat="37.7146074269" lon="-8.6758520734">
        <ele>188.56</ele>
        <time>2019-12-28T15:56:12Z</time>
      </trkpt>
      <trkpt lat="37.7145614941" lon="-8.6757838447">
        <ele>187.11</ele>
        <time>2019-12-28T15:56:19Z</time>
      </trkpt>
      <trkpt lat="37.7144931816" lon="-8.6757205613">
        <ele>186.15</ele>
        <time>2019-12-28T15:56:26Z</time>
      </trkpt>
      <trkpt lat="37.7144224383" lon="-8.6756261811">
        <ele>184.71</ele>
        <time>2019-12-28T15:56:35Z</time>
      </trkpt>
      <trkpt lat="37.7143510245" lon="-8.6755523365">
        <ele>183.75</ele>
        <time>2019-12-28T15:56:43Z</time>
      </trkpt>
      <trkpt lat="37.7142408863" lon="-8.6754799169">
        <ele>182.79</ele>
        <time>2019-12-28T15:56:53Z</time>
      </trkpt>
      <trkpt lat="37.7141664550" lon="-8.6754314695">
        <ele>182.79</ele>
        <time>2019-12-28T15:57:00Z</time>
      </trkpt>
      <trkpt lat="37.7139937039" lon="-8.6753582954">
        <ele>182.31</ele>
        <time>2019-12-28T15:57:14Z</time>
      </trkpt>
      <trkpt lat="37.7139255591" lon="-8.6752104387">
        <ele>182.31</ele>
        <time>2019-12-28T15:57:27Z</time>
      </trkpt>
      <trkpt lat="37.7139778621" lon="-8.6750120390">
        <ele>182.79</ele>
        <time>2019-12-28T15:57:41Z</time>
      </trkpt>
      <trkpt lat="37.7139845677" lon="-8.6749565508">
        <ele>182.79</ele>
        <time>2019-12-28T15:57:45Z</time>
      </trkpt>
      <trkpt lat="37.7139870822" lon="-8.6749144737">
        <ele>182.79</ele>
        <time>2019-12-28T15:57:48Z</time>
      </trkpt>
      <trkpt lat="37.7140024211" lon="-8.6748440657">
        <ele>183.27</ele>
        <time>2019-12-28T15:57:53Z</time>
      </trkpt>
      <trkpt lat="37.7140049357" lon="-8.6747966241">
        <ele>183.27</ele>
        <time>2019-12-28T15:57:56Z</time>
      </trkpt>
      <trkpt lat="37.7140443306" lon="-8.6746481806">
        <ele>182.79</ele>
        <time>2019-12-28T15:58:07Z</time>
      </trkpt>
      <trkpt lat="37.7140747570" lon="-8.6745692231">
        <ele>182.79</ele>
        <time>2019-12-28T15:58:12Z</time>
      </trkpt>
      <trkpt lat="37.7141048480" lon="-8.6744687241">
        <ele>182.79</ele>
        <time>2019-12-28T15:58:18Z</time>
      </trkpt>
      <trkpt lat="37.7141342685" lon="-8.6743491981">
        <ele>182.79</ele>
        <time>2019-12-28T15:58:27Z</time>
      </trkpt>
      <trkpt lat="37.7141961269" lon="-8.6742113996">
        <ele>181.83</ele>
        <time>2019-12-28T15:58:42Z</time>
      </trkpt>
      <trkpt lat="37.7141961269" lon="-8.6742113996">
        <ele>182.31</ele>
        <time>2019-12-28T15:58:50Z</time>
      </trkpt>
      <trkpt lat="37.7142341807" lon="-8.6740574241">
        <ele>181.83</ele>
        <time>2019-12-28T15:59:03Z</time>
      </trkpt>
      <trkpt lat="37.7142504416" lon="-8.6739677377">
        <ele>181.83</ele>
        <time>2019-12-28T15:59:10Z</time>
      </trkpt>
      <trkpt lat="37.7142548002" lon="-8.6739161890">
        <ele>181.83</ele>
        <time>2019-12-28T15:59:14Z</time>
      </trkpt>
      <trkpt lat="37.7142997272" lon="-8.6737202201">
        <ele>180.38</ele>
        <time>2019-12-28T15:59:29Z</time>
      </trkpt>
      <trkpt lat="37.7143243700" lon="-8.6736677494">
        <ele>179.42</ele>
        <time>2019-12-28T15:59:33Z</time>
      </trkpt>
      <trkpt lat="37.7143584006" lon="-8.6735955812">
        <ele>178.94</ele>
        <time>2019-12-28T15:59:39Z</time>
      </trkpt>
      <trkpt lat="37.7144288924" lon="-8.6734800786">
        <ele>177.98</ele>
        <time>2019-12-28T15:59:49Z</time>
      </trkpt>
      <trkpt lat="37.7144593187" lon="-8.6733574513">
        <ele>177.02</ele>
        <time>2019-12-28T15:59:59Z</time>
      </trkpt>
      <trkpt lat="37.7144101169" lon="-8.6733082496">
        <ele>177.50</ele>
        <time>2019-12-28T16:00:04Z</time>
      </trkpt>
      <trkpt lat="37.7143604960" lon="-8.6733017117">
        <ele>177.02</ele>
        <time>2019-12-28T16:00:08Z</time>
      </trkpt>
      <trkpt lat="37.7143323328" lon="-8.6732916534">
        <ele>177.50</ele>
        <time>2019-12-28T16:00:10Z</time>
      </trkpt>
      <trkpt lat="37.7141778544" lon="-8.6732478999">
        <ele>177.50</ele>
        <time>2019-12-28T16:00:22Z</time>
      </trkpt>
      <trkpt lat="37.7141305804" lon="-8.6732260231">
        <ele>178.46</ele>
        <time>2019-12-28T16:00:26Z</time>
      </trkpt>
      <trkpt lat="37.7140512876" lon="-8.6732037272">
        <ele>178.46</ele>
        <time>2019-12-28T16:00:32Z</time>
      </trkpt>
      <trkpt lat="37.7140330151" lon="-8.6731886398">
        <ele>178.94</ele>
        <time>2019-12-28T16:00:34Z</time>
      </trkpt>
      <trkpt lat="37.7139579970" lon="-8.6731760669">
        <ele>179.90</ele>
        <time>2019-12-28T16:00:40Z</time>
      </trkpt>
      <trkpt lat="37.7139391378" lon="-8.6731637456">
        <ele>179.90</ele>
        <time>2019-12-28T16:00:42Z</time>
      </trkpt>
      <trkpt lat="37.7138989046" lon="-8.6731575429">
        <ele>180.38</ele>
        <time>2019-12-28T16:00:45Z</time>
      </trkpt>
      <trkpt lat="37.7138635330" lon="-8.6731420364">
        <ele>180.87</ele>
        <time>2019-12-28T16:00:48Z</time>
      </trkpt>
      <trkpt lat="37.7138465177" lon="-8.6731251888">
        <ele>180.87</ele>
        <time>2019-12-28T16:00:50Z</time>
      </trkpt>
      <trkpt lat="37.7137517184" lon="-8.6730611511">
        <ele>180.87</ele>
        <time>2019-12-28T16:01:01Z</time>
      </trkpt>
      <trkpt lat="37.7136948891" lon="-8.6729931738">
        <ele>181.35</ele>
        <time>2019-12-28T16:01:07Z</time>
      </trkpt>
      <trkpt lat="37.7136083879" lon="-8.6728063412">
        <ele>180.87</ele>
        <time>2019-12-28T16:01:21Z</time>
      </trkpt>
      <trkpt lat="37.7135599405" lon="-8.6726300698">
        <ele>179.42</ele>
        <time>2019-12-28T16:01:33Z</time>
      </trkpt>
      <trkpt lat="37.7135592699" lon="-8.6725952011">
        <ele>178.94</ele>
        <time>2019-12-28T16:01:35Z</time>
      </trkpt>
      <trkpt lat="37.7135580126" lon="-8.6725026648">
        <ele>178.46</ele>
        <time>2019-12-28T16:01:41Z</time>
      </trkpt>
      <trkpt lat="37.7135389857" lon="-8.6724218633">
        <ele>178.94</ele>
        <time>2019-12-28T16:01:46Z</time>
      </trkpt>
      <trkpt lat="37.7134804800" lon="-8.6723208614">
        <ele>178.46</ele>
        <time>2019-12-28T16:01:53Z</time>
      </trkpt>
      <trkpt lat="37.7134602796" lon="-8.6722849868">
        <ele>178.46</ele>
        <time>2019-12-28T16:01:56Z</time>
      </trkpt>
      <trkpt lat="37.7133759577" lon="-8.6721507087">
        <ele>178.46</ele>
        <time>2019-12-28T16:02:09Z</time>
      </trkpt>
      <trkpt lat="37.7133704256" lon="-8.6721460987">
        <ele>178.46</ele>
        <time>2019-12-28T16:02:10Z</time>
      </trkpt>
      <trkpt lat="37.7132517379" lon="-8.6719587632">
        <ele>177.98</ele>
        <time>2019-12-28T16:02:25Z</time>
      </trkpt>
      <trkpt lat="37.7132130135" lon="-8.6718888581">
        <ele>177.02</ele>
        <time>2019-12-28T16:02:30Z</time>
      </trkpt>
      <trkpt lat="37.7130637318" lon="-8.6716768797">
        <ele>176.54</ele>
        <time>2019-12-28T16:02:46Z</time>
      </trkpt>
      <trkpt lat="37.7130568586" lon="-8.6716658995">
        <ele>176.54</ele>
        <time>2019-12-28T16:02:47Z</time>
      </trkpt>
      <trkpt lat="37.7129305433" lon="-8.6715069786">
        <ele>176.06</ele>
        <time>2019-12-28T16:03:01Z</time>
      </trkpt>
      <trkpt lat="37.7128250990" lon="-8.6713908054">
        <ele>176.54</ele>
        <time>2019-12-28T16:03:12Z</time>
      </trkpt>
      <trkpt lat="37.7127729636" lon="-8.6713205650">
        <ele>176.06</ele>
        <time>2019-12-28T16:03:18Z</time>
      </trkpt>
      <trkpt lat="37.7126097679" lon="-8.6712390091">
        <ele>174.14</ele>
        <time>2019-12-28T16:03:32Z</time>
      </trkpt>
      <trkpt lat="37.7124757413" lon="-8.6712066550">
        <ele>172.69</ele>
        <time>2019-12-28T16:03:44Z</time>
      </trkpt>
      <trkpt lat="37.7124599833" lon="-8.6711979378">
        <ele>172.21</ele>
        <time>2019-12-28T16:03:45Z</time>
      </trkpt>
      <trkpt lat="37.7124021482" lon="-8.6711884663">
        <ele>172.21</ele>
        <time>2019-12-28T16:03:50Z</time>
      </trkpt>
      <trkpt lat="37.7122721449" lon="-8.6711552739">
        <ele>171.25</ele>
        <time>2019-12-28T16:03:59Z</time>
      </trkpt>
      <trkpt lat="37.7122340072" lon="-8.6711524241">
        <ele>171.25</ele>
        <time>2019-12-28T16:04:03Z</time>
      </trkpt>
      <trkpt lat="37.7122066822" lon="-8.6710454710">
        <ele>171.25</ele>
        <time>2019-12-28T16:04:13Z</time>
      </trkpt>
      <trkpt lat="37.7123429719" lon="-8.6709914077">
        <ele>171.25</ele>
        <time>2019-12-28T16:04:25Z</time>
      </trkpt>
      <trkpt lat="37.7124973666" lon="-8.6709241848">
        <ele>170.77</ele>
        <time>2019-12-28T16:04:38Z</time>
      </trkpt>
      <trkpt lat="37.7126331534" lon="-8.6708291341">
        <ele>170.29</ele>
        <time>2019-12-28T16:04:50Z</time>
      </trkpt>
      <trkpt lat="37.7126427926" lon="-8.6708209198">
        <ele>170.29</ele>
        <time>2019-12-28T16:04:51Z</time>
      </trkpt>
      <trkpt lat="37.7127759811" lon="-8.6707157269">
        <ele>169.81</ele>
        <time>2019-12-28T16:05:03Z</time>
      </trkpt>
      <trkpt lat="37.7129093371" lon="-8.6706076004">
        <ele>169.81</ele>
        <time>2019-12-28T16:05:16Z</time>
      </trkpt>
      <trkpt lat="37.7129390929" lon="-8.6705786828">
        <ele>169.33</ele>
        <time>2019-12-28T16:05:19Z</time>
      </trkpt>
      <trkpt lat="37.7129864506" lon="-8.6705328338">
        <ele>169.33</ele>
        <time>2019-12-28T16:05:24Z</time>
      </trkpt>
      <trkpt lat="37.7131407615" lon="-8.6704210192">
        <ele>168.85</ele>
        <time>2019-12-28T16:05:37Z</time>
      </trkpt>
      <trkpt lat="37.7131851017" lon="-8.6703822110">
        <ele>168.37</ele>
        <time>2019-12-28T16:05:41Z</time>
      </trkpt>
      <trkpt lat="37.7132259216" lon="-8.6703514494">
        <ele>168.37</ele>
        <time>2019-12-28T16:05:45Z</time>
      </trkpt>
      <trkpt lat="37.7132589463" lon="-8.6703019124">
        <ele>168.37</ele>
        <time>2019-12-28T16:05:49Z</time>
      </trkpt>
      <trkpt lat="37.7133138478" lon="-8.6702547222">
        <ele>168.37</ele>
        <time>2019-12-28T16:05:54Z</time>
      </trkpt>
      <trkpt lat="37.7133563440" lon="-8.6701933667">
        <ele>167.89</ele>
        <time>2019-12-28T16:06:00Z</time>
      </trkpt>
      <trkpt lat="37.7134486288" lon="-8.6701096315">
        <ele>167.89</ele>
        <time>2019-12-28T16:06:09Z</time>
      </trkpt>
      <trkpt lat="37.7134594414" lon="-8.6700823065">
        <ele>167.89</ele>
        <time>2019-12-28T16:06:12Z</time>
      </trkpt>
      <trkpt lat="37.7135731839" lon="-8.6699439213">
        <ele>167.89</ele>
        <time>2019-12-28T16:06:24Z</time>
      </trkpt>
      <trkpt lat="37.7136143390" lon="-8.6698867567">
        <ele>167.41</ele>
        <time>2019-12-28T16:06:29Z</time>
      </trkpt>
      <trkpt lat="37.7136326954" lon="-8.6698704120">
        <ele>166.93</ele>
        <time>2019-12-28T16:06:31Z</time>
      </trkpt>
      <trkpt lat="37.7136699110" lon="-8.6698140018">
        <ele>166.45</ele>
        <time>2019-12-28T16:06:35Z</time>
      </trkpt>
      <trkpt lat="37.7137393970" lon="-8.6696667317">
        <ele>166.93</ele>
        <time>2019-12-28T16:06:45Z</time>
      </trkpt>
      <trkpt lat="37.7138013393" lon="-8.6695716809">
        <ele>166.93</ele>
        <time>2019-12-28T16:06:53Z</time>
      </trkpt>
      <trkpt lat="37.7138787042" lon="-8.6695110798">
        <ele>166.45</ele>
        <time>2019-12-28T16:07:01Z</time>
      </trkpt>
      <trkpt lat="37.7139041014" lon="-8.6694814917">
        <ele>166.45</ele>
        <time>2019-12-28T16:07:04Z</time>
      </trkpt>
      <trkpt lat="37.7139176801" lon="-8.6694497243">
        <ele>165.96</ele>
        <time>2019-12-28T16:07:07Z</time>
      </trkpt>
      <trkpt lat="37.7139505371" lon="-8.6693760473">
        <ele>166.93</ele>
        <time>2019-12-28T16:07:13Z</time>
      </trkpt>
      <trkpt lat="37.7139825560" lon="-8.6693146080">
        <ele>166.93</ele>
        <time>2019-12-28T16:07:18Z</time>
      </trkpt>
      <trkpt lat="37.7140119765" lon="-8.6692019552">
        <ele>166.93</ele>
        <time>2019-12-28T16:07:28Z</time>
      </trkpt>
      <trkpt lat="37.7139840648" lon="-8.6691681761">
        <ele>167.41</ele>
        <time>2019-12-28T16:07:41Z</time>
      </trkpt>
      <trkpt lat="37.7139872499" lon="-8.6691647395">
        <ele>167.41</ele>
        <time>2019-12-28T16:07:47Z</time>
      </trkpt>
      <trkpt lat="37.7139932849" lon="-8.6691679247">
        <ele>167.41</ele>
        <time>2019-12-28T16:07:58Z</time>
      </trkpt>
      <trkpt lat="37.7140381280" lon="-8.6691095028">
        <ele>166.93</ele>
        <time>2019-12-28T16:08:04Z</time>
      </trkpt>
      <trkpt lat="37.7140573226" lon="-8.6690579541">
        <ele>167.41</ele>
        <time>2019-12-28T16:08:08Z</time>
      </trkpt>
      <trkpt lat="37.7140872460" lon="-8.6690051481">
        <ele>167.89</ele>
        <time>2019-12-28T16:08:13Z</time>
      </trkpt>
      <trkpt lat="37.7141149901" lon="-8.6689437088">
        <ele>167.41</ele>
        <time>2019-12-28T16:08:17Z</time>
      </trkpt>
      <trkpt lat="37.7141429018" lon="-8.6688829400">
        <ele>167.41</ele>
        <time>2019-12-28T16:08:22Z</time>
      </trkpt>
      <trkpt lat="37.7141956240" lon="-8.6687724665">
        <ele>167.41</ele>
        <time>2019-12-28T16:08:30Z</time>
      </trkpt>
      <trkpt lat="37.7142264694" lon="-8.6686726380">
        <ele>167.41</ele>
        <time>2019-12-28T16:08:41Z</time>
      </trkpt>
      <trkpt lat="37.7142875735" lon="-8.6685159802">
        <ele>166.93</ele>
        <time>2019-12-28T16:08:52Z</time>
      </trkpt>
      <trkpt lat="37.7143532876" lon="-8.6683313269">
        <ele>167.41</ele>
        <time>2019-12-28T16:09:05Z</time>
      </trkpt>
      <trkpt lat="37.7143698838" lon="-8.6682812031">
        <ele>166.93</ele>
        <time>2019-12-28T16:09:09Z</time>
      </trkpt>
      <trkpt lat="37.7144116256" lon="-8.6681431532">
        <ele>166.45</ele>
        <time>2019-12-28T16:09:18Z</time>
      </trkpt>
      <trkpt lat="37.7144270483" lon="-8.6679817177">
        <ele>166.93</ele>
        <time>2019-12-28T16:09:29Z</time>
      </trkpt>
      <trkpt lat="37.7144571394" lon="-8.6678145826">
        <ele>166.45</ele>
        <time>2019-12-28T16:09:40Z</time>
      </trkpt>
      <trkpt lat="37.7144747414" lon="-8.6677393131">
        <ele>166.93</ele>
        <time>2019-12-28T16:09:51Z</time>
      </trkpt>
      <trkpt lat="37.7144975401" lon="-8.6675950605">
        <ele>166.93</ele>
        <time>2019-12-28T16:10:01Z</time>
      </trkpt>
      <trkpt lat="37.7145267930" lon="-8.6674675718">
        <ele>167.41</ele>
        <time>2019-12-28T16:10:09Z</time>
      </trkpt>
      <trkpt lat="37.7145678643" lon="-8.6673612054">
        <ele>168.37</ele>
        <time>2019-12-28T16:10:17Z</time>
      </trkpt>
      <trkpt lat="37.7146716323" lon="-8.6672442779">
        <ele>168.37</ele>
        <time>2019-12-28T16:10:31Z</time>
      </trkpt>
      <trkpt lat="37.7147607319" lon="-8.6671414319">
        <ele>168.85</ele>
        <time>2019-12-28T16:10:41Z</time>
      </trkpt>
      <trkpt lat="37.7147806808" lon="-8.6671315413">
        <ele>168.85</ele>
        <time>2019-12-28T16:10:58Z</time>
      </trkpt>
      <trkpt lat="37.7147681918" lon="-8.6671337206">
        <ele>168.37</ele>
        <time>2019-12-28T16:11:14Z</time>
      </trkpt>
      <trkpt lat="37.7147761546" lon="-8.6671122629">
        <ele>168.37</ele>
        <time>2019-12-28T16:11:25Z</time>
      </trkpt>
      <trkpt lat="37.7147284616" lon="-8.6670608819">
        <ele>168.85</ele>
        <time>2019-12-28T16:11:29Z</time>
      </trkpt>
      <trkpt lat="37.7146158088" lon="-8.6669012066">
        <ele>167.89</ele>
        <time>2019-12-28T16:11:43Z</time>
      </trkpt>
      <trkpt lat="37.7145386953" lon="-8.6667867098">
        <ele>167.41</ele>
        <time>2019-12-28T16:11:54Z</time>
      </trkpt>
      <trkpt lat="37.7145378571" lon="-8.6667337362">
        <ele>167.41</ele>
        <time>2019-12-28T16:11:57Z</time>
      </trkpt>
      <trkpt lat="37.7145179920" lon="-8.6666819360">
        <ele>166.93</ele>
        <time>2019-12-28T16:12:00Z</time>
      </trkpt>
      <trkpt lat="37.7145018987" lon="-8.6666000448">
        <ele>166.45</ele>
        <time>2019-12-28T16:12:05Z</time>
      </trkpt>
      <trkpt lat="37.7144563012" lon="-8.6664095242">
        <ele>165.96</ele>
        <time>2019-12-28T16:12:18Z</time>
      </trkpt>
      <trkpt lat="37.7144144755" lon="-8.6662787665">
        <ele>165.48</ele>
        <time>2019-12-28T16:12:29Z</time>
      </trkpt>
      <trkpt lat="37.7143869828" lon="-8.6661664490">
        <ele>165.96</ele>
        <time>2019-12-28T16:12:41Z</time>
      </trkpt>
      <trkpt lat="37.7143273875" lon="-8.6660164129">
        <ele>166.45</ele>
        <time>2019-12-28T16:12:52Z</time>
      </trkpt>
      <trkpt lat="37.7143456601" lon="-8.6658873316">
        <ele>165.96</ele>
        <time>2019-12-28T16:13:00Z</time>
      </trkpt>
      <trkpt lat="37.7143340092" lon="-8.6658108886">
        <ele>165.96</ele>
        <time>2019-12-28T16:13:06Z</time>
      </trkpt>
      <trkpt lat="37.7143371943" lon="-8.6656739283">
        <ele>166.45</ele>
        <time>2019-12-28T16:13:14Z</time>
      </trkpt>
      <trkpt lat="37.7142053470" lon="-8.6655597668">
        <ele>166.45</ele>
        <time>2019-12-28T16:13:27Z</time>
      </trkpt>
      <trkpt lat="37.7141881641" lon="-8.6655564979">
        <ele>166.45</ele>
        <time>2019-12-28T16:13:33Z</time>
      </trkpt>
      <trkpt lat="37.7141697239" lon="-8.6655435059">
        <ele>166.93</ele>
        <time>2019-12-28T16:13:35Z</time>
      </trkpt>
      <trkpt lat="37.7141205221" lon="-8.6655343696">
        <ele>167.41</ele>
        <time>2019-12-28T16:13:50Z</time>
      </trkpt>
      <trkpt lat="37.7140888385" lon="-8.6655816436">
        <ele>167.41</ele>
        <time>2019-12-28T16:13:57Z</time>
      </trkpt>
      <trkpt lat="37.7141320892" lon="-8.6655466910">
        <ele>166.93</ele>
        <time>2019-12-28T16:20:18Z</time>
      </trkpt>
      <trkpt lat="37.7141399682" lon="-8.6655075476">
        <ele>166.93</ele>
        <time>2019-12-28T16:20:19Z</time>
      </trkpt>
      <trkpt lat="37.7141514514" lon="-8.6654394865">
        <ele>166.93</ele>
        <time>2019-12-28T16:20:22Z</time>
      </trkpt>
      <trkpt lat="37.7140904311" lon="-8.6652867682">
        <ele>167.41</ele>
        <time>2019-12-28T16:20:35Z</time>
      </trkpt>
      <trkpt lat="37.7140712366" lon="-8.6651857663">
        <ele>166.93</ele>
        <time>2019-12-28T16:20:48Z</time>
      </trkpt>
      <trkpt lat="37.7143107075" lon="-8.6659619305">
        <ele>137.13</ele>
        <time>2019-12-29T07:32:24Z</time>
      </trkpt>
      <trkpt lat="37.7143492643" lon="-8.6660850607">
        <ele>136.64</ele>
        <time>2019-12-29T07:32:39Z</time>
      </trkpt>
      <trkpt lat="37.7143726498" lon="-8.6661451589">
        <ele>136.64</ele>
        <time>2019-12-29T07:32:50Z</time>
      </trkpt>
      <trkpt lat="37.7143905032" lon="-8.6661856435">
        <ele>136.64</ele>
        <time>2019-12-29T07:32:53Z</time>
      </trkpt>
      <trkpt lat="37.7144136373" lon="-8.6664004717">
        <ele>137.13</ele>
        <time>2019-12-29T07:33:08Z</time>
      </trkpt>
      <trkpt lat="37.7144398727" lon="-8.6664667726">
        <ele>137.61</ele>
        <time>2019-12-29T07:33:14Z</time>
      </trkpt>
      <trkpt lat="37.7144552954" lon="-8.6665360909">
        <ele>138.09</ele>
        <time>2019-12-29T07:33:19Z</time>
      </trkpt>
      <trkpt lat="37.7144738194" lon="-8.6665834486">
        <ele>138.09</ele>
        <time>2019-12-29T07:33:23Z</time>
      </trkpt>
      <trkpt lat="37.7145337500" lon="-8.6667224206">
        <ele>138.57</ele>
        <time>2019-12-29T07:33:36Z</time>
      </trkpt>
      <trkpt lat="37.7145693731" lon="-8.6667831056">
        <ele>139.05</ele>
        <time>2019-12-29T07:33:42Z</time>
      </trkpt>
      <trkpt lat="37.7145915851" lon="-8.6668138672">
        <ele>139.53</ele>
        <time>2019-12-29T07:33:45Z</time>
      </trkpt>
      <trkpt lat="37.7146288007" lon="-8.6668932438">
        <ele>140.01</ele>
        <time>2019-12-29T07:33:52Z</time>
      </trkpt>
      <trkpt lat="37.7146624960" lon="-8.6669488996">
        <ele>140.01</ele>
        <time>2019-12-29T07:33:57Z</time>
      </trkpt>
      <trkpt lat="37.7147129551" lon="-8.6670413520">
        <ele>140.01</ele>
        <time>2019-12-29T07:34:05Z</time>
      </trkpt>
      <trkpt lat="37.7146207541" lon="-8.6671162862">
        <ele>140.01</ele>
        <time>2019-12-29T07:34:15Z</time>
      </trkpt>
      <trkpt lat="37.7145236917" lon="-8.6672278494">
        <ele>140.01</ele>
        <time>2019-12-29T07:34:27Z</time>
      </trkpt>
      <trkpt lat="37.7144664433" lon="-8.6673984211">
        <ele>139.05</ele>
        <time>2019-12-29T07:34:39Z</time>
      </trkpt>
      <trkpt lat="37.7144608274" lon="-8.6674310267">
        <ele>139.05</ele>
        <time>2019-12-29T07:34:41Z</time>
      </trkpt>
      <trkpt lat="37.7144704666" lon="-8.6675072182">
        <ele>139.05</ele>
        <time>2019-12-29T07:34:46Z</time>
      </trkpt>
      <trkpt lat="37.7144366875" lon="-8.6677481141">
        <ele>138.09</ele>
        <time>2019-12-29T07:35:02Z</time>
      </trkpt>
      <trkpt lat="37.7144304849" lon="-8.6677724216">
        <ele>138.09</ele>
        <time>2019-12-29T07:35:04Z</time>
      </trkpt>
      <trkpt lat="37.7144074347" lon="-8.6679072026">
        <ele>138.09</ele>
        <time>2019-12-29T07:35:13Z</time>
      </trkpt>
      <trkpt lat="37.7143853065" lon="-8.6680564843">
        <ele>138.09</ele>
        <time>2019-12-29T07:35:24Z</time>
      </trkpt>
      <trkpt lat="37.7143452410" lon="-8.6682317499">
        <ele>138.09</ele>
        <time>2019-12-29T07:35:37Z</time>
      </trkpt>
      <trkpt lat="37.7143095341" lon="-8.6683756672">
        <ele>138.57</ele>
        <time>2019-12-29T07:35:47Z</time>
      </trkpt>
      <trkpt lat="37.7142561413" lon="-8.6685307324">
        <ele>138.57</ele>
        <time>2019-12-29T07:35:58Z</time>
      </trkpt>
      <trkpt lat="37.7142503578" lon="-8.6685392819">
        <ele>139.05</ele>
        <time>2019-12-29T07:35:59Z</time>
      </trkpt>
      <trkpt lat="37.7142173331" lon="-8.6686209217">
        <ele>139.05</ele>
        <time>2019-12-29T07:36:05Z</time>
      </trkpt>
      <trkpt lat="37.7141666226" lon="-8.6687095184">
        <ele>139.05</ele>
        <time>2019-12-29T07:36:12Z</time>
      </trkpt>
      <trkpt lat="37.7140870783" lon="-8.6688598897">
        <ele>139.53</ele>
        <time>2019-12-29T07:36:24Z</time>
      </trkpt>
      <trkpt lat="37.7140358649" lon="-8.6689726263">
        <ele>139.05</ele>
        <time>2019-12-29T07:36:33Z</time>
      </trkpt>
      <trkpt lat="37.7139646187" lon="-8.6691712774">
        <ele>138.57</ele>
        <time>2019-12-29T07:36:48Z</time>
      </trkpt>
      <trkpt lat="37.7139389701" lon="-8.6692294478">
        <ele>139.05</ele>
        <time>2019-12-29T07:36:52Z</time>
      </trkpt>
      <trkpt lat="37.7138910256" lon="-8.6693369877">
        <ele>139.05</ele>
        <time>2019-12-29T07:37:00Z</time>
      </trkpt>
      <trkpt lat="37.7138491161" lon="-8.6694197170">
        <ele>138.57</ele>
        <time>2019-12-29T07:37:07Z</time>
      </trkpt>
      <trkpt lat="37.7138124034" lon="-8.6694967467">
        <ele>139.05</ele>
        <time>2019-12-29T07:37:13Z</time>
      </trkpt>
      <trkpt lat="37.7137961425" lon="-8.6695341300">
        <ele>139.05</ele>
        <time>2019-12-29T07:37:16Z</time>
      </trkpt>
      <trkpt lat="37.7136964817" lon="-8.6696451902">
        <ele>139.53</ele>
        <time>2019-12-29T07:37:26Z</time>
      </trkpt>
      <trkpt lat="37.7136805560" lon="-8.6696614511">
        <ele>139.05</ele>
        <time>2019-12-29T07:37:28Z</time>
      </trkpt>
      <trkpt lat="37.7136342879" lon="-8.6697197054">
        <ele>139.53</ele>
        <time>2019-12-29T07:37:34Z</time>
      </trkpt>
      <trkpt lat="37.7136124112" lon="-8.6697427556">
        <ele>139.53</ele>
        <time>2019-12-29T07:37:36Z</time>
      </trkpt>
      <trkpt lat="37.7135663945" lon="-8.6698159296">
        <ele>140.01</ele>
        <time>2019-12-29T07:37:43Z</time>
      </trkpt>
      <trkpt lat="37.7134914603" lon="-8.6699405685">
        <ele>140.01</ele>
        <time>2019-12-29T07:37:53Z</time>
      </trkpt>
      <trkpt lat="37.7134665661" lon="-8.6699574161">
        <ele>139.53</ele>
        <time>2019-12-29T07:37:55Z</time>
      </trkpt>
      <trkpt lat="37.7134047076" lon="-8.6700052768">
        <ele>140.01</ele>
        <time>2019-12-29T07:38:01Z</time>
      </trkpt>
      <trkpt lat="37.7133085672" lon="-8.6700834800">
        <ele>140.01</ele>
        <time>2019-12-29T07:38:10Z</time>
      </trkpt>
      <trkpt lat="37.7132401709" lon="-8.6701646168">
        <ele>140.49</ele>
        <time>2019-12-29T07:38:18Z</time>
      </trkpt>
      <trkpt lat="37.7131620515" lon="-8.6702386290">
        <ele>140.49</ele>
        <time>2019-12-29T07:38:26Z</time>
      </trkpt>
      <trkpt lat="37.7131208964" lon="-8.6702553090">
        <ele>140.97</ele>
        <time>2019-12-29T07:38:29Z</time>
      </trkpt>
      <trkpt lat="37.7130797412" lon="-8.6702837236">
        <ele>140.49</ele>
        <time>2019-12-29T07:38:33Z</time>
      </trkpt>
      <trkpt lat="37.7130391728" lon="-8.6703128926">
        <ele>140.97</ele>
        <time>2019-12-29T07:38:37Z</time>
      </trkpt>
      <trkpt lat="37.7129946649" lon="-8.6703528743">
        <ele>140.97</ele>
        <time>2019-12-29T07:38:41Z</time>
      </trkpt>
      <trkpt lat="37.7129634842" lon="-8.6704096198">
        <ele>140.97</ele>
        <time>2019-12-29T07:38:46Z</time>
      </trkpt>
      <trkpt lat="37.7129424457" lon="-8.6704457458">
        <ele>141.45</ele>
        <time>2019-12-29T07:38:49Z</time>
      </trkpt>
      <trkpt lat="37.7128591295" lon="-8.6705209315">
        <ele>141.45</ele>
        <time>2019-12-29T07:38:58Z</time>
      </trkpt>
      <trkpt lat="37.7128488198" lon="-8.6705290619">
        <ele>141.93</ele>
        <time>2019-12-29T07:38:59Z</time>
      </trkpt>
      <trkpt lat="37.7128131129" lon="-8.6705616675">
        <ele>141.93</ele>
        <time>2019-12-29T07:39:03Z</time>
      </trkpt>
      <trkpt lat="37.7127750590" lon="-8.6705936026">
        <ele>141.93</ele>
        <time>2019-12-29T07:39:07Z</time>
      </trkpt>
      <trkpt lat="37.7127572056" lon="-8.6706293095">
        <ele>142.41</ele>
        <time>2019-12-29T07:39:10Z</time>
      </trkpt>
      <trkpt lat="37.7127257735" lon="-8.6706594005">
        <ele>142.41</ele>
        <time>2019-12-29T07:39:13Z</time>
      </trkpt>
      <trkpt lat="37.7126955148" lon="-8.6706842948">
        <ele>142.41</ele>
        <time>2019-12-29T07:39:16Z</time>
      </trkpt>
      <trkpt lat="37.7126769908" lon="-8.6706952751">
        <ele>142.89</ele>
        <time>2019-12-29T07:39:18Z</time>
      </trkpt>
      <trkpt lat="37.7125898190" lon="-8.6707399506">
        <ele>142.41</ele>
        <time>2019-12-29T07:39:26Z</time>
      </trkpt>
      <trkpt lat="37.7125037368" lon="-8.6707792617">
        <ele>143.37</ele>
        <time>2019-12-29T07:39:32Z</time>
      </trkpt>
      <trkpt lat="37.7124339994" lon="-8.6708624102">
        <ele>143.37</ele>
        <time>2019-12-29T07:39:40Z</time>
      </trkpt>
      <trkpt lat="37.7124117035" lon="-8.6708757374">
        <ele>143.37</ele>
        <time>2019-12-29T07:39:42Z</time>
      </trkpt>
      <trkpt lat="37.7123956103" lon="-8.6708934233">
        <ele>143.85</ele>
        <time>2019-12-29T07:39:44Z</time>
      </trkpt>
      <trkpt lat="37.7123625018" lon="-8.6709142942">
        <ele>144.34</ele>
        <time>2019-12-29T07:39:47Z</time>
      </trkpt>
      <trkpt lat="37.7122967038" lon="-8.6709591374">
        <ele>143.37</ele>
        <time>2019-12-29T07:39:53Z</time>
      </trkpt>
      <trkpt lat="37.7121942770" lon="-8.6710129492">
        <ele>143.85</ele>
        <time>2019-12-29T07:40:01Z</time>
      </trkpt>
      <trkpt lat="37.7120687161" lon="-8.6710856203">
        <ele>144.34</ele>
        <time>2019-12-29T07:40:12Z</time>
      </trkpt>
      <trkpt lat="37.7120061871" lon="-8.6711162981">
        <ele>144.82</ele>
        <time>2019-12-29T07:40:17Z</time>
      </trkpt>
      <trkpt lat="37.7119656187" lon="-8.6711318884">
        <ele>144.82</ele>
        <time>2019-12-29T07:40:20Z</time>
      </trkpt>
      <trkpt lat="37.7119448315" lon="-8.6711442936">
        <ele>144.82</ele>
        <time>2019-12-29T07:40:22Z</time>
      </trkpt>
      <trkpt lat="37.7119273134" lon="-8.6711748037">
        <ele>144.82</ele>
        <time>2019-12-29T07:40:25Z</time>
      </trkpt>
      <trkpt lat="37.7118170913" lon="-8.6712939944">
        <ele>145.30</ele>
        <time>2019-12-29T07:40:37Z</time>
      </trkpt>
      <trkpt lat="37.7117563225" lon="-8.6713247560">
        <ele>145.78</ele>
        <time>2019-12-29T07:40:42Z</time>
      </trkpt>
      <trkpt lat="37.7117024269" lon="-8.6713464651">
        <ele>145.78</ele>
        <time>2019-12-29T07:40:47Z</time>
      </trkpt>
      <trkpt lat="37.7116786223" lon="-8.6713517457">
        <ele>145.78</ele>
        <time>2019-12-29T07:40:49Z</time>
      </trkpt>
      <trkpt lat="37.7115976531" lon="-8.6713704374">
        <ele>146.74</ele>
        <time>2019-12-29T07:40:56Z</time>
      </trkpt>
      <trkpt lat="37.7115504630" lon="-8.6713870335">
        <ele>147.22</ele>
        <time>2019-12-29T07:41:00Z</time>
      </trkpt>
      <trkpt lat="37.7114855032" lon="-8.6714148615">
        <ele>146.74</ele>
        <time>2019-12-29T07:41:06Z</time>
      </trkpt>
      <trkpt lat="37.7114519756" lon="-8.6714058090">
        <ele>147.22</ele>
        <time>2019-12-29T07:41:09Z</time>
      </trkpt>
      <trkpt lat="37.7113624569" lon="-8.6714013666">
        <ele>147.22</ele>
        <time>2019-12-29T07:41:16Z</time>
      </trkpt>
      <trkpt lat="37.7113254089" lon="-8.6714130174">
        <ele>147.70</ele>
        <time>2019-12-29T07:41:19Z</time>
      </trkpt>
      <trkpt lat="37.7111891191" lon="-8.6714306194">
        <ele>148.66</ele>
        <time>2019-12-29T07:41:30Z</time>
      </trkpt>
      <trkpt lat="37.7111664880" lon="-8.6714292783">
        <ele>148.66</ele>
        <time>2019-12-29T07:41:32Z</time>
      </trkpt>
      <trkpt lat="37.7110974211" lon="-8.6714425217">
        <ele>148.66</ele>
        <time>2019-12-29T07:41:38Z</time>
      </trkpt>
      <trkpt lat="37.7109420206" lon="-8.6714478023">
        <ele>150.10</ele>
        <time>2019-12-29T07:41:50Z</time>
      </trkpt>
      <trkpt lat="37.7108545136" lon="-8.6714498140">
        <ele>150.58</ele>
        <time>2019-12-29T07:41:56Z</time>
      </trkpt>
      <trkpt lat="37.7108272724" lon="-8.6714571062">
        <ele>151.06</ele>
        <time>2019-12-29T07:41:58Z</time>
      </trkpt>
      <trkpt lat="37.7108062338" lon="-8.6714643147">
        <ele>151.54</ele>
        <time>2019-12-29T07:42:00Z</time>
      </trkpt>
      <trkpt lat="37.7107048966" lon="-8.6715141032">
        <ele>152.51</ele>
        <time>2019-12-29T07:42:09Z</time>
      </trkpt>
      <trkpt lat="37.7106706984" lon="-8.6715214793">
        <ele>152.51</ele>
        <time>2019-12-29T07:42:12Z</time>
      </trkpt>
      <trkpt lat="37.7105532680" lon="-8.6715770513">
        <ele>153.47</ele>
        <time>2019-12-29T07:42:22Z</time>
      </trkpt>
      <trkpt lat="37.7104944270" lon="-8.6715924740">
        <ele>153.47</ele>
        <time>2019-12-29T07:42:27Z</time>
      </trkpt>
      <trkpt lat="37.7104744781" lon="-8.6716095731">
        <ele>153.47</ele>
        <time>2019-12-29T07:42:29Z</time>
      </trkpt>
      <trkpt lat="37.7104304731" lon="-8.6716353055">
        <ele>153.47</ele>
        <time>2019-12-29T07:42:33Z</time>
      </trkpt>
      <trkpt lat="37.7103625797" lon="-8.6717738584">
        <ele>155.39</ele>
        <time>2019-12-29T07:42:44Z</time>
      </trkpt>
      <trkpt lat="37.7103591431" lon="-8.6718143430">
        <ele>156.35</ele>
        <time>2019-12-29T07:42:47Z</time>
      </trkpt>
      <trkpt lat="37.7103521023" lon="-8.6718508042">
        <ele>156.35</ele>
        <time>2019-12-29T07:42:50Z</time>
      </trkpt>
      <trkpt lat="37.7103444748" lon="-8.6718979105">
        <ele>156.83</ele>
        <time>2019-12-29T07:42:53Z</time>
      </trkpt>
      <trkpt lat="37.7103699557" lon="-8.6719921231">
        <ele>158.75</ele>
        <time>2019-12-29T07:43:01Z</time>
      </trkpt>
      <trkpt lat="37.7103796788" lon="-8.6720108986">
        <ele>159.24</ele>
        <time>2019-12-29T07:43:03Z</time>
      </trkpt>
      <trkpt lat="37.7104409505" lon="-8.6721256468">
        <ele>162.12</ele>
        <time>2019-12-29T07:43:13Z</time>
      </trkpt>
      <trkpt lat="37.7104725502" lon="-8.6721674725">
        <ele>162.12</ele>
        <time>2019-12-29T07:43:18Z</time>
      </trkpt>
      <trkpt lat="37.7105646674" lon="-8.6722724978">
        <ele>164.04</ele>
        <time>2019-12-29T07:43:29Z</time>
      </trkpt>
      <trkpt lat="37.7105705347" lon="-8.6722812150">
        <ele>164.52</ele>
        <time>2019-12-29T07:43:30Z</time>
      </trkpt>
      <trkpt lat="37.7106061578" lon="-8.6723253876">
        <ele>164.52</ele>
        <time>2019-12-29T07:43:34Z</time>
      </trkpt>
      <trkpt lat="37.7106723748" lon="-8.6724281497">
        <ele>165.96</ele>
        <time>2019-12-29T07:43:42Z</time>
      </trkpt>
      <trkpt lat="37.7106934134" lon="-8.6724550556">
        <ele>166.45</ele>
        <time>2019-12-29T07:43:44Z</time>
      </trkpt>
      <trkpt lat="37.7107123565" lon="-8.6725030839">
        <ele>166.93</ele>
        <time>2019-12-29T07:43:47Z</time>
      </trkpt>
      <trkpt lat="37.7107272763" lon="-8.6726410501">
        <ele>168.85</ele>
        <time>2019-12-29T07:43:57Z</time>
      </trkpt>
      <trkpt lat="37.7107411064" lon="-8.6727026571">
        <ele>169.33</ele>
        <time>2019-12-29T07:44:02Z</time>
      </trkpt>
      <trkpt lat="37.7107706107" lon="-8.6728055030">
        <ele>169.81</ele>
        <time>2019-12-29T07:44:09Z</time>
      </trkpt>
      <trkpt lat="37.7107751369" lon="-8.6730097700">
        <ele>170.77</ele>
        <time>2019-12-29T07:44:22Z</time>
      </trkpt>
      <trkpt lat="37.7107653301" lon="-8.6731379293">
        <ele>170.77</ele>
        <time>2019-12-29T07:44:30Z</time>
      </trkpt>
      <trkpt lat="37.7107487340" lon="-8.6732012127">
        <ele>170.77</ele>
        <time>2019-12-29T07:44:34Z</time>
      </trkpt>
      <trkpt lat="37.7107289527" lon="-8.6733139493">
        <ele>171.73</ele>
        <time>2019-12-29T07:44:41Z</time>
      </trkpt>
      <trkpt lat="37.7107157093" lon="-8.6734530888">
        <ele>172.21</ele>
        <time>2019-12-29T07:44:52Z</time>
      </trkpt>
      <trkpt lat="37.7106723748" lon="-8.6735912226">
        <ele>172.69</ele>
        <time>2019-12-29T07:45:04Z</time>
      </trkpt>
      <trkpt lat="37.7106584609" lon="-8.6736145243">
        <ele>173.17</ele>
        <time>2019-12-29T07:45:07Z</time>
      </trkpt>
      <trkpt lat="37.7106302977" lon="-8.6736416817">
        <ele>173.17</ele>
        <time>2019-12-29T07:45:10Z</time>
      </trkpt>
      <trkpt lat="37.7105387673" lon="-8.6737528257">
        <ele>174.62</ele>
        <time>2019-12-29T07:45:21Z</time>
      </trkpt>
      <trkpt lat="37.7104807645" lon="-8.6738020275">
        <ele>176.06</ele>
        <time>2019-12-29T07:45:29Z</time>
      </trkpt>
      <trkpt lat="37.7104559541" lon="-8.6738252454">
        <ele>176.54</ele>
        <time>2019-12-29T07:45:32Z</time>
      </trkpt>
      <trkpt lat="37.7104039863" lon="-8.6738819070">
        <ele>177.02</ele>
        <time>2019-12-29T07:45:39Z</time>
      </trkpt>
      <trkpt lat="37.7102997154" lon="-8.6740263272">
        <ele>176.06</ele>
        <time>2019-12-29T07:45:51Z</time>
      </trkpt>
      <trkpt lat="37.7102930937" lon="-8.6741296761">
        <ele>176.06</ele>
        <time>2019-12-29T07:45:58Z</time>
      </trkpt>
      <trkpt lat="37.7102854662" lon="-8.6742038559">
        <ele>176.54</ele>
        <time>2019-12-29T07:46:03Z</time>
      </trkpt>
      <trkpt lat="37.7102744859" lon="-8.6742419098">
        <ele>176.06</ele>
        <time>2019-12-29T07:46:06Z</time>
      </trkpt>
      <trkpt lat="37.7102547884" lon="-8.6743089650">
        <ele>176.06</ele>
        <time>2019-12-29T07:46:10Z</time>
      </trkpt>
      <trkpt lat="37.7102538664" lon="-8.6743396427">
        <ele>176.06</ele>
        <time>2019-12-29T07:46:12Z</time>
      </trkpt>
      <trkpt lat="37.7102476638" lon="-8.6743769422">
        <ele>176.06</ele>
        <time>2019-12-29T07:46:15Z</time>
      </trkpt>
      <trkpt lat="37.7102045808" lon="-8.6745139863">
        <ele>176.06</ele>
        <time>2019-12-29T07:46:25Z</time>
      </trkpt>
      <trkpt lat="37.7101922594" lon="-8.6745533813">
        <ele>176.54</ele>
        <time>2019-12-29T07:46:29Z</time>
      </trkpt>
      <trkpt lat="37.7101840451" lon="-8.6745833885">
        <ele>176.54</ele>
        <time>2019-12-29T07:46:31Z</time>
      </trkpt>
      <trkpt lat="37.7101692930" lon="-8.6746154074">
        <ele>176.54</ele>
        <time>2019-12-29T07:46:33Z</time>
      </trkpt>
      <trkpt lat="37.7101685386" lon="-8.6746461689">
        <ele>177.02</ele>
        <time>2019-12-29T07:46:36Z</time>
      </trkpt>
      <trkpt lat="37.7101620007" lon="-8.6746742483">
        <ele>177.02</ele>
        <time>2019-12-29T07:46:38Z</time>
      </trkpt>
      <trkpt lat="37.7101402078" lon="-8.6747501045">
        <ele>177.02</ele>
        <time>2019-12-29T07:46:42Z</time>
      </trkpt>
      <trkpt lat="37.7101045009" lon="-8.6749640107">
        <ele>177.50</ele>
        <time>2019-12-29T07:46:55Z</time>
      </trkpt>
      <trkpt lat="37.7101029921" lon="-8.6749798525">
        <ele>177.50</ele>
        <time>2019-12-29T07:46:56Z</time>
      </trkpt>
      <trkpt lat="37.7100972086" lon="-8.6750239413">
        <ele>177.50</ele>
        <time>2019-12-29T07:46:59Z</time>
      </trkpt>
      <trkpt lat="37.7101062611" lon="-8.6752363387">
        <ele>177.98</ele>
        <time>2019-12-29T07:47:14Z</time>
      </trkpt>
      <trkpt lat="37.7101099491" lon="-8.6752886418">
        <ele>178.46</ele>
        <time>2019-12-29T07:47:18Z</time>
      </trkpt>
      <trkpt lat="37.7101199236" lon="-8.6753354128">
        <ele>178.94</ele>
        <time>2019-12-29T07:47:21Z</time>
      </trkpt>
      <trkpt lat="37.7101345919" lon="-8.6754028033">
        <ele>178.94</ele>
        <time>2019-12-29T07:47:25Z</time>
      </trkpt>
      <trkpt lat="37.7101258747" lon="-8.6755471397">
        <ele>180.38</ele>
        <time>2019-12-29T07:47:34Z</time>
      </trkpt>
      <trkpt lat="37.7101345919" lon="-8.6755682621">
        <ele>180.38</ele>
        <time>2019-12-29T07:47:36Z</time>
      </trkpt>
      <trkpt lat="37.7101500984" lon="-8.6756577808">
        <ele>180.38</ele>
        <time>2019-12-29T07:47:42Z</time>
      </trkpt>
      <trkpt lat="37.7101588156" lon="-8.6757238302">
        <ele>180.87</ele>
        <time>2019-12-29T07:47:46Z</time>
      </trkpt>
      <trkpt lat="37.7102204226" lon="-8.6758318730">
        <ele>180.87</ele>
        <time>2019-12-29T07:47:55Z</time>
      </trkpt>
      <trkpt lat="37.7102837060" lon="-8.6759772990">
        <ele>180.87</ele>
        <time>2019-12-29T07:48:06Z</time>
      </trkpt>
      <trkpt lat="37.7103583049" lon="-8.6761276703">
        <ele>180.87</ele>
        <time>2019-12-29T07:48:18Z</time>
      </trkpt>
      <trkpt lat="37.7103992924" lon="-8.6762308516">
        <ele>180.87</ele>
        <time>2019-12-29T07:48:26Z</time>
      </trkpt>
      <trkpt lat="37.7104075905" lon="-8.6762513872">
        <ele>180.87</ele>
        <time>2019-12-29T07:48:28Z</time>
      </trkpt>
      <trkpt lat="37.7104616538" lon="-8.6764092185">
        <ele>181.83</ele>
        <time>2019-12-29T07:48:39Z</time>
      </trkpt>
      <trkpt lat="37.7104689460" lon="-8.6764212884">
        <ele>181.35</ele>
        <time>2019-12-29T07:48:40Z</time>
      </trkpt>
      <trkpt lat="37.7104963548" lon="-8.6764936242">
        <ele>181.83</ele>
        <time>2019-12-29T07:48:45Z</time>
      </trkpt>
      <trkpt lat="37.7105377614" lon="-8.6765445024">
        <ele>182.31</ele>
        <time>2019-12-29T07:48:50Z</time>
      </trkpt>
      <trkpt lat="37.7106397692" lon="-8.6766630225">
        <ele>183.75</ele>
        <time>2019-12-29T07:49:02Z</time>
      </trkpt>
      <trkpt lat="37.7106456365" lon="-8.6766717397">
        <ele>183.27</ele>
        <time>2019-12-29T07:49:03Z</time>
      </trkpt>
      <trkpt lat="37.7106814273" lon="-8.6767442431">
        <ele>184.23</ele>
        <time>2019-12-29T07:49:08Z</time>
      </trkpt>
      <trkpt lat="37.7107114345" lon="-8.6767662875">
        <ele>184.71</ele>
        <time>2019-12-29T07:49:11Z</time>
      </trkpt>
      <trkpt lat="37.7107281983" lon="-8.6767909303">
        <ele>184.71</ele>
        <time>2019-12-29T07:49:13Z</time>
      </trkpt>
      <trkpt lat="37.7107907273" lon="-8.6768995598">
        <ele>185.67</ele>
        <time>2019-12-29T07:49:22Z</time>
      </trkpt>
      <trkpt lat="37.7108219080" lon="-8.6769438162">
        <ele>185.67</ele>
        <time>2019-12-29T07:49:26Z</time>
      </trkpt>
      <trkpt lat="37.7109307889" lon="-8.6770951934">
        <ele>185.67</ele>
        <time>2019-12-29T07:49:41Z</time>
      </trkpt>
      <trkpt lat="37.7110379096" lon="-8.6772688664">
        <ele>185.67</ele>
        <time>2019-12-29T07:49:56Z</time>
      </trkpt>
      <trkpt lat="37.7110506501" lon="-8.6772956047">
        <ele>185.19</ele>
        <time>2019-12-29T07:49:58Z</time>
      </trkpt>
      <trkpt lat="37.7110794839" lon="-8.6773766577">
        <ele>185.19</ele>
        <time>2019-12-29T07:50:04Z</time>
      </trkpt>
      <trkpt lat="37.7110976726" lon="-8.6773970257">
        <ele>185.19</ele>
        <time>2019-12-29T07:50:06Z</time>
      </trkpt>
      <trkpt lat="37.7111864369" lon="-8.6775675975">
        <ele>185.19</ele>
        <time>2019-12-29T07:50:20Z</time>
      </trkpt>
      <trkpt lat="37.7112833317" lon="-8.6777233332">
        <ele>185.67</ele>
        <time>2019-12-29T07:50:34Z</time>
      </trkpt>
      <trkpt lat="37.7113052923" lon="-8.6777721159">
        <ele>185.67</ele>
        <time>2019-12-29T07:50:38Z</time>
      </trkpt>
      <trkpt lat="37.7113429271" lon="-8.6778777279">
        <ele>185.67</ele>
        <time>2019-12-29T07:50:46Z</time>
      </trkpt>
      <trkpt lat="37.7113632951" lon="-8.6779299472">
        <ele>186.15</ele>
        <time>2019-12-29T07:50:50Z</time>
      </trkpt>
      <trkpt lat="37.7113840822" lon="-8.6779890396">
        <ele>186.63</ele>
        <time>2019-12-29T07:50:54Z</time>
      </trkpt>
      <trkpt lat="37.7114067134" lon="-8.6780433543">
        <ele>187.11</ele>
        <time>2019-12-29T07:50:58Z</time>
      </trkpt>
      <trkpt lat="37.7114014328" lon="-8.6780717690">
        <ele>187.11</ele>
        <time>2019-12-29T07:51:00Z</time>
      </trkpt>
      <trkpt lat="37.7114102338" lon="-8.6780965794">
        <ele>187.59</ele>
        <time>2019-12-29T07:51:02Z</time>
      </trkpt>
      <trkpt lat="37.7114041150" lon="-8.6781598628">
        <ele>188.08</ele>
        <time>2019-12-29T07:51:06Z</time>
      </trkpt>
      <trkpt lat="37.7114179451" lon="-8.6781943124">
        <ele>188.08</ele>
        <time>2019-12-29T07:51:09Z</time>
      </trkpt>
      <trkpt lat="37.7114191186" lon="-8.6782617867">
        <ele>188.56</ele>
        <time>2019-12-29T07:51:14Z</time>
      </trkpt>
      <trkpt lat="37.7114023548" lon="-8.6783240642">
        <ele>189.52</ele>
        <time>2019-12-29T07:51:18Z</time>
      </trkpt>
      <trkpt lat="37.7114435099" lon="-8.6784740165">
        <ele>190.96</ele>
        <time>2019-12-29T07:51:30Z</time>
      </trkpt>
      <trkpt lat="37.7114803903" lon="-8.6785713304">
        <ele>191.44</ele>
        <time>2019-12-29T07:51:37Z</time>
      </trkpt>
      <trkpt lat="37.7114963997" lon="-8.6786374636">
        <ele>192.40</ele>
        <time>2019-12-29T07:51:42Z</time>
      </trkpt>
      <trkpt lat="37.7115337830" lon="-8.6787944566">
        <ele>194.32</ele>
        <time>2019-12-29T07:51:52Z</time>
      </trkpt>
      <trkpt lat="37.7115601860" lon="-8.6789053492">
        <ele>196.25</ele>
        <time>2019-12-29T07:52:02Z</time>
      </trkpt>
      <trkpt lat="37.7115650475" lon="-8.6789682973">
        <ele>196.73</ele>
        <time>2019-12-29T07:52:06Z</time>
      </trkpt>
      <trkpt lat="37.7115865052" lon="-8.6789983045">
        <ele>197.21</ele>
        <time>2019-12-29T07:52:09Z</time>
      </trkpt>
      <trkpt lat="37.7116770297" lon="-8.6790910084">
        <ele>197.69</ele>
        <time>2019-12-29T07:52:19Z</time>
      </trkpt>
      <trkpt lat="37.7118216176" lon="-8.6791453231">
        <ele>199.13</ele>
        <time>2019-12-29T07:52:32Z</time>
      </trkpt>
      <trkpt lat="37.7119438257" lon="-8.6792199221">
        <ele>200.57</ele>
        <time>2019-12-29T07:52:44Z</time>
      </trkpt>
      <trkpt lat="37.7119647805" lon="-8.6792318244">
        <ele>201.05</ele>
        <time>2019-12-29T07:52:46Z</time>
      </trkpt>
      <trkpt lat="37.7120127250" lon="-8.6792713031">
        <ele>202.01</ele>
        <time>2019-12-29T07:52:51Z</time>
      </trkpt>
      <trkpt lat="37.7121247910" lon="-8.6793154757">
        <ele>203.94</ele>
        <time>2019-12-29T07:53:02Z</time>
      </trkpt>
      <trkpt lat="37.7121796925" lon="-8.6793254502">
        <ele>204.90</ele>
        <time>2019-12-29T07:53:07Z</time>
      </trkpt>
      <trkpt lat="37.7122479212" lon="-8.6793336645">
        <ele>205.86</ele>
        <time>2019-12-29T07:53:13Z</time>
      </trkpt>
      <trkpt lat="37.7122744080" lon="-8.6793384422">
        <ele>205.86</ele>
        <time>2019-12-29T07:53:16Z</time>
      </trkpt>
      <trkpt lat="37.7123169042" lon="-8.6793490872">
        <ele>207.30</ele>
        <time>2019-12-29T07:53:20Z</time>
      </trkpt>
      <trkpt lat="37.7123552095" lon="-8.6794256978">
        <ele>208.74</ele>
        <time>2019-12-29T07:53:26Z</time>
      </trkpt>
      <trkpt lat="37.7123671118" lon="-8.6794622429">
        <ele>209.22</ele>
        <time>2019-12-29T07:53:29Z</time>
      </trkpt>
      <trkpt lat="37.7123607416" lon="-8.6795479897">
        <ele>210.19</ele>
        <time>2019-12-29T07:53:35Z</time>
      </trkpt>
      <trkpt lat="37.7123498451" lon="-8.6795848701">
        <ele>211.15</ele>
        <time>2019-12-29T07:53:38Z</time>
      </trkpt>
      <trkpt lat="37.7123569697" lon="-8.6797006242">
        <ele>212.11</ele>
        <time>2019-12-29T07:53:46Z</time>
      </trkpt>
      <trkpt lat="37.7123402897" lon="-8.6798506603">
        <ele>213.07</ele>
        <time>2019-12-29T07:53:56Z</time>
      </trkpt>
      <trkpt lat="37.7123155631" lon="-8.6799150333">
        <ele>213.55</ele>
        <time>2019-12-29T07:54:00Z</time>
      </trkpt>
      <trkpt lat="37.7122866455" lon="-8.6800317094">
        <ele>214.51</ele>
        <time>2019-12-29T07:54:09Z</time>
      </trkpt>
      <trkpt lat="37.7122526988" lon="-8.6801119242">
        <ele>214.99</ele>
        <time>2019-12-29T07:54:16Z</time>
      </trkpt>
      <trkpt lat="37.7122199256" lon="-8.6801560968">
        <ele>215.95</ele>
        <time>2019-12-29T07:54:20Z</time>
      </trkpt>
      <trkpt lat="37.7122078557" lon="-8.6801825836">
        <ele>215.95</ele>
        <time>2019-12-29T07:54:22Z</time>
      </trkpt>
      <trkpt lat="37.7121603303" lon="-8.6802163627">
        <ele>216.43</ele>
        <time>2019-12-29T07:54:27Z</time>
      </trkpt>
      <trkpt lat="37.7121424768" lon="-8.6802341323">
        <ele>216.91</ele>
        <time>2019-12-29T07:54:29Z</time>
      </trkpt>
      <trkpt lat="37.7121239528" lon="-8.6802501418">
        <ele>217.40</ele>
        <time>2019-12-29T07:54:31Z</time>
      </trkpt>
      <trkpt lat="37.7121040877" lon="-8.6802627146">
        <ele>217.88</ele>
        <time>2019-12-29T07:54:33Z</time>
      </trkpt>
      <trkpt lat="37.7120817080" lon="-8.6802959070">
        <ele>218.36</ele>
        <time>2019-12-29T07:54:36Z</time>
      </trkpt>
      <trkpt lat="37.7120530419" lon="-8.6803154368">
        <ele>219.32</ele>
        <time>2019-12-29T07:54:39Z</time>
      </trkpt>
      <trkpt lat="37.7119558956" lon="-8.6803997587">
        <ele>220.76</ele>
        <time>2019-12-29T07:54:50Z</time>
      </trkpt>
      <trkpt lat="37.7119207755" lon="-8.6804261617">
        <ele>220.76</ele>
        <time>2019-12-29T07:54:53Z</time>
      </trkpt>
      <trkpt lat="37.7119032573" lon="-8.6804527324">
        <ele>221.24</ele>
        <time>2019-12-29T07:54:55Z</time>
      </trkpt>
      <trkpt lat="37.7118340228" lon="-8.6805172730">
        <ele>221.72</ele>
        <time>2019-12-29T07:55:02Z</time>
      </trkpt>
      <trkpt lat="37.7118025068" lon="-8.6805798020">
        <ele>222.20</ele>
        <time>2019-12-29T07:55:07Z</time>
      </trkpt>
      <trkpt lat="37.7117981482" lon="-8.6806000862">
        <ele>222.20</ele>
        <time>2019-12-29T07:55:09Z</time>
      </trkpt>
      <trkpt lat="37.7117991541" lon="-8.6806642078">
        <ele>222.68</ele>
        <time>2019-12-29T07:55:22Z</time>
      </trkpt>
      <trkpt lat="37.7118008304" lon="-8.6806891859">
        <ele>223.16</ele>
        <time>2019-12-29T07:55:35Z</time>
      </trkpt>
      <trkpt lat="37.7117973939" lon="-8.6806964781">
        <ele>223.16</ele>
        <time>2019-12-29T07:55:53Z</time>
      </trkpt>
      <trkpt lat="37.7117526345" lon="-8.6807917804">
        <ele>222.68</ele>
        <time>2019-12-29T07:56:08Z</time>
      </trkpt>
      <trkpt lat="37.7117571607" lon="-8.6807866674">
        <ele>222.20</ele>
        <time>2019-12-29T07:56:13Z</time>
      </trkpt>
      <trkpt lat="37.7117757685" lon="-8.6807480268">
        <ele>221.72</ele>
        <time>2019-12-29T07:56:16Z</time>
      </trkpt>
      <trkpt lat="37.7117942087" lon="-8.6807006691">
        <ele>222.68</ele>
        <time>2019-12-29T07:56:20Z</time>
      </trkpt>
      <trkpt lat="37.7118253056" lon="-8.6806993280">
        <ele>222.68</ele>
        <time>2019-12-29T07:56:23Z</time>
      </trkpt>
      <trkpt lat="37.7119366173" lon="-8.6807133257">
        <ele>225.09</ele>
        <time>2019-12-29T07:56:34Z</time>
      </trkpt>
      <trkpt lat="37.7119560633" lon="-8.6807207856">
        <ele>225.57</ele>
        <time>2019-12-29T07:56:36Z</time>
      </trkpt>
      <trkpt lat="37.7119918540" lon="-8.6807177681">
        <ele>225.09</ele>
        <time>2019-12-29T07:56:39Z</time>
      </trkpt>
      <trkpt lat="37.7120293211" lon="-8.6807266530">
        <ele>226.53</ele>
        <time>2019-12-29T07:56:43Z</time>
      </trkpt>
      <trkpt lat="37.7121722326" lon="-8.6806764454">
        <ele>226.53</ele>
        <time>2019-12-29T07:56:56Z</time>
      </trkpt>
      <trkpt lat="37.7122656070" lon="-8.6806249805">
        <ele>225.09</ele>
        <time>2019-12-29T07:57:05Z</time>
      </trkpt>
      <trkpt lat="37.7123830374" lon="-8.6806345358">
        <ele>224.61</ele>
        <time>2019-12-29T07:57:15Z</time>
      </trkpt>
      <trkpt lat="37.7125051618" lon="-8.6806861684">
        <ele>225.09</ele>
        <time>2019-12-29T07:57:25Z</time>
      </trkpt>
      <trkpt lat="37.7125249431" lon="-8.6807077099">
        <ele>224.61</ele>
        <time>2019-12-29T07:57:27Z</time>
      </trkpt>
      <trkpt lat="37.7125992067" lon="-8.6807749327">
        <ele>225.57</ele>
        <time>2019-12-29T07:57:34Z</time>
      </trkpt>
      <trkpt lat="37.7126564551" lon="-8.6808778625">
        <ele>226.05</ele>
        <time>2019-12-29T07:57:42Z</time>
      </trkpt>
      <trkpt lat="37.7126917429" lon="-8.6809802055">
        <ele>227.01</ele>
        <time>2019-12-29T07:57:50Z</time>
      </trkpt>
      <trkpt lat="37.7127153799" lon="-8.6811299901">
        <ele>227.97</ele>
        <time>2019-12-29T07:58:00Z</time>
      </trkpt>
      <trkpt lat="37.7127167210" lon="-8.6811855622">
        <ele>228.45</ele>
        <time>2019-12-29T07:58:04Z</time>
      </trkpt>
      <trkpt lat="37.7127111889" lon="-8.6812161561">
        <ele>228.45</ele>
        <time>2019-12-29T07:58:06Z</time>
      </trkpt>
      <trkpt lat="37.7126891445" lon="-8.6813043337">
        <ele>228.45</ele>
        <time>2019-12-29T07:58:12Z</time>
      </trkpt>
      <trkpt lat="37.7126795892" lon="-8.6813297309">
        <ele>228.45</ele>
        <time>2019-12-29T07:58:14Z</time>
      </trkpt>
      <trkpt lat="37.7126038168" lon="-8.6814713012">
        <ele>229.41</ele>
        <time>2019-12-29T07:58:25Z</time>
      </trkpt>
      <trkpt lat="37.7125453949" lon="-8.6815678608">
        <ele>229.89</ele>
        <time>2019-12-29T07:58:32Z</time>
      </trkpt>
      <trkpt lat="37.7125160582" lon="-8.6816256959">
        <ele>230.37</ele>
        <time>2019-12-29T07:58:37Z</time>
      </trkpt>
      <trkpt lat="37.7124967799" lon="-8.6816375982">
        <ele>230.37</ele>
        <time>2019-12-29T07:58:39Z</time>
      </trkpt>
      <trkpt lat="37.7124802675" lon="-8.6816614028">
        <ele>230.85</ele>
        <time>2019-12-29T07:58:41Z</time>
      </trkpt>
      <trkpt lat="37.7124259528" lon="-8.6817147955">
        <ele>231.33</ele>
        <time>2019-12-29T07:58:47Z</time>
      </trkpt>
      <trkpt lat="37.7123859711" lon="-8.6817541067">
        <ele>231.81</ele>
        <time>2019-12-29T07:58:51Z</time>
      </trkpt>
      <trkpt lat="37.7123311535" lon="-8.6818033084">
        <ele>233.26</ele>
        <time>2019-12-29T07:58:56Z</time>
      </trkpt>
      <trkpt lat="37.7122879028" lon="-8.6818505824">
        <ele>233.74</ele>
        <time>2019-12-29T07:59:01Z</time>
      </trkpt>
      <trkpt lat="37.7122224402" lon="-8.6819252651">
        <ele>234.70</ele>
        <time>2019-12-29T07:59:08Z</time>
      </trkpt>
      <trkpt lat="37.7121503558" lon="-8.6819929071">
        <ele>235.66</ele>
        <time>2019-12-29T07:59:16Z</time>
      </trkpt>
      <trkpt lat="37.7120471746" lon="-8.6820727866">
        <ele>236.62</ele>
        <time>2019-12-29T07:59:26Z</time>
      </trkpt>
      <trkpt lat="37.7120256331" lon="-8.6820919812">
        <ele>237.10</ele>
        <time>2019-12-29T07:59:28Z</time>
      </trkpt>
      <trkpt lat="37.7119708993" lon="-8.6821294483">
        <ele>237.58</ele>
        <time>2019-12-29T07:59:33Z</time>
      </trkpt>
      <trkpt lat="37.7119115554" lon="-8.6821857747">
        <ele>238.06</ele>
        <time>2019-12-29T07:59:39Z</time>
      </trkpt>
      <trkpt lat="37.7118825540" lon="-8.6822322104">
        <ele>238.54</ele>
        <time>2019-12-29T07:59:48Z</time>
      </trkpt>
      <trkpt lat="37.7118564025" lon="-8.6822836753">
        <ele>238.06</ele>
        <time>2019-12-29T07:59:52Z</time>
      </trkpt>
      <trkpt lat="37.7118267305" lon="-8.6823405046">
        <ele>238.54</ele>
        <time>2019-12-29T08:00:02Z</time>
      </trkpt>
      <trkpt lat="37.7118060272" lon="-8.6824421771">
        <ele>238.54</ele>
        <time>2019-12-29T08:00:08Z</time>
      </trkpt>
      <trkpt lat="37.7117975615" lon="-8.6825710069">
        <ele>238.54</ele>
        <time>2019-12-29T08:00:16Z</time>
      </trkpt>
      <trkpt lat="37.7118038479" lon="-8.6826078035">
        <ele>239.02</ele>
        <time>2019-12-29T08:00:18Z</time>
      </trkpt>
      <trkpt lat="37.7117833961" lon="-8.6827280000">
        <ele>239.51</ele>
        <time>2019-12-29T08:00:26Z</time>
      </trkpt>
      <trkpt lat="37.7117995732" lon="-8.6829122342">
        <ele>240.95</ele>
        <time>2019-12-29T08:00:38Z</time>
      </trkpt>
      <trkpt lat="37.7117905207" lon="-8.6829599272">
        <ele>241.43</ele>
        <time>2019-12-29T08:00:45Z</time>
      </trkpt>
      <trkpt lat="37.7117905207" lon="-8.6830301676">
        <ele>241.91</ele>
        <time>2019-12-29T08:00:56Z</time>
      </trkpt>
      <trkpt lat="37.7117905207" lon="-8.6830301676">
        <ele>242.39</ele>
        <time>2019-12-29T08:01:11Z</time>
      </trkpt>
      <trkpt lat="37.7118126489" lon="-8.6830394715">
        <ele>241.91</ele>
        <time>2019-12-29T08:01:13Z</time>
      </trkpt>
      <trkpt lat="37.7118349448" lon="-8.6830719933">
        <ele>241.43</ele>
        <time>2019-12-29T08:01:16Z</time>
      </trkpt>
      <trkpt lat="37.7118682209" lon="-8.6830947082">
        <ele>241.91</ele>
        <time>2019-12-29T08:01:19Z</time>
      </trkpt>
      <trkpt lat="37.7118896786" lon="-8.6831043474">
        <ele>241.91</ele>
        <time>2019-12-29T08:01:21Z</time>
      </trkpt>
      <trkpt lat="37.7120024152" lon="-8.6831473466">
        <ele>242.87</ele>
        <time>2019-12-29T08:01:31Z</time>
      </trkpt>
      <trkpt lat="37.7120404691" lon="-8.6831631046">
        <ele>243.35</ele>
        <time>2019-12-29T08:01:35Z</time>
      </trkpt>
      <trkpt lat="37.7121309936" lon="-8.6832341831">
        <ele>243.35</ele>
        <time>2019-12-29T08:01:44Z</time>
      </trkpt>
      <trkpt lat="37.7122085262" lon="-8.6832931079">
        <ele>244.31</ele>
        <time>2019-12-29T08:01:51Z</time>
      </trkpt>
      <trkpt lat="37.7122371923" lon="-8.6833157390">
        <ele>244.31</ele>
        <time>2019-12-29T08:01:54Z</time>
      </trkpt>
      <trkpt lat="37.7122889925" lon="-8.6833541282">
        <ele>244.79</ele>
        <time>2019-12-29T08:01:59Z</time>
      </trkpt>
      <trkpt lat="37.7123122104" lon="-8.6833694670">
        <ele>244.31</ele>
        <time>2019-12-29T08:02:01Z</time>
      </trkpt>
      <trkpt lat="37.7123691235" lon="-8.6834008992">
        <ele>244.79</ele>
        <time>2019-12-29T08:02:06Z</time>
      </trkpt>
      <trkpt lat="37.7124498412" lon="-8.6834197585">
        <ele>244.79</ele>
        <time>2019-12-29T08:02:18Z</time>
      </trkpt>
      <trkpt lat="37.7124711312" lon="-8.6834242847">
        <ele>244.79</ele>
        <time>2019-12-29T08:02:23Z</time>
      </trkpt>
      <trkpt lat="37.7125556208" lon="-8.6834376119">
        <ele>245.27</ele>
        <time>2019-12-29T08:02:30Z</time>
      </trkpt>
      <trkpt lat="37.7125767432" lon="-8.6834475864">
        <ele>245.27</ele>
        <time>2019-12-29T08:02:32Z</time>
      </trkpt>
      <trkpt lat="37.7126703691" lon="-8.6834423058">
        <ele>245.27</ele>
        <time>2019-12-29T08:02:40Z</time>
      </trkpt>
      <trkpt lat="37.7127608098" lon="-8.6834581476">
        <ele>245.75</ele>
        <time>2019-12-29T08:02:47Z</time>
      </trkpt>
      <trkpt lat="37.7128973510" lon="-8.6834631767">
        <ele>246.72</ele>
        <time>2019-12-29T08:02:58Z</time>
      </trkpt>
      <trkpt lat="37.7129683457" lon="-8.6834694631">
        <ele>247.20</ele>
        <time>2019-12-29T08:03:04Z</time>
      </trkpt>
      <trkpt lat="37.7129959222" lon="-8.6834707204">
        <ele>247.20</ele>
        <time>2019-12-29T08:03:06Z</time>
      </trkpt>
      <trkpt lat="37.7131070662" lon="-8.6834690440">
        <ele>247.68</ele>
        <time>2019-12-29T08:03:16Z</time>
      </trkpt>
      <trkpt lat="37.7132820804" lon="-8.6834579799">
        <ele>249.12</ele>
        <time>2019-12-29T08:03:31Z</time>
      </trkpt>
      <trkpt lat="37.7133302763" lon="-8.6834574770">
        <ele>249.60</ele>
        <time>2019-12-29T08:03:35Z</time>
      </trkpt>
      <trkpt lat="37.7133596130" lon="-8.6834512744">
        <ele>249.60</ele>
        <time>2019-12-29T08:03:38Z</time>
      </trkpt>
      <trkpt lat="37.7134649735" lon="-8.6834817845">
        <ele>249.60</ele>
        <time>2019-12-29T08:03:47Z</time>
      </trkpt>
      <trkpt lat="37.7135372255" lon="-8.6835938506">
        <ele>250.08</ele>
        <time>2019-12-29T08:03:57Z</time>
      </trkpt>
      <trkpt lat="37.7135408297" lon="-8.6836714670">
        <ele>250.56</ele>
        <time>2019-12-29T08:04:02Z</time>
      </trkpt>
      <trkpt lat="37.7134988364" lon="-8.6838121992">
        <ele>251.04</ele>
        <time>2019-12-29T08:04:12Z</time>
      </trkpt>
      <trkpt lat="37.7134779654" lon="-8.6839038972">
        <ele>251.04</ele>
        <time>2019-12-29T08:04:19Z</time>
      </trkpt>
      <trkpt lat="37.7134636324" lon="-8.6839504167">
        <ele>251.52</ele>
        <time>2019-12-29T08:04:23Z</time>
      </trkpt>
      <trkpt lat="37.7134333737" lon="-8.6840116046">
        <ele>251.52</ele>
        <time>2019-12-29T08:04:28Z</time>
      </trkpt>
      <trkpt lat="37.7134171966" lon="-8.6840525921">
        <ele>251.52</ele>
        <time>2019-12-29T08:04:31Z</time>
      </trkpt>
      <trkpt lat="37.7133781370" lon="-8.6841442063">
        <ele>252.00</ele>
        <time>2019-12-29T08:04:38Z</time>
      </trkpt>
      <trkpt lat="37.7133604512" lon="-8.6841877084">
        <ele>252.00</ele>
        <time>2019-12-29T08:04:41Z</time>
      </trkpt>
      <trkpt lat="37.7133197151" lon="-8.6842914764">
        <ele>252.48</ele>
        <time>2019-12-29T08:04:49Z</time>
      </trkpt>
      <trkpt lat="37.7133032028" lon="-8.6843644828">
        <ele>252.48</ele>
        <time>2019-12-29T08:04:54Z</time>
      </trkpt>
      <trkpt lat="37.7132980060" lon="-8.6844073981">
        <ele>252.48</ele>
        <time>2019-12-29T08:04:57Z</time>
      </trkpt>
      <trkpt lat="37.7133103274" lon="-8.6845344678">
        <ele>252.48</ele>
        <time>2019-12-29T08:05:06Z</time>
      </trkpt>
      <trkpt lat="37.7133204695" lon="-8.6845898721">
        <ele>252.48</ele>
        <time>2019-12-29T08:05:10Z</time>
      </trkpt>
      <trkpt lat="37.7133411728" lon="-8.6847016867">
        <ele>252.96</ele>
        <time>2019-12-29T08:05:18Z</time>
      </trkpt>
      <trkpt lat="37.7133539971" lon="-8.6847742740">
        <ele>252.96</ele>
        <time>2019-12-29T08:05:23Z</time>
      </trkpt>
      <trkpt lat="37.7133542486" lon="-8.6848140880">
        <ele>252.96</ele>
        <time>2019-12-29T08:05:26Z</time>
      </trkpt>
      <trkpt lat="37.7133622952" lon="-8.6848737672">
        <ele>253.44</ele>
        <time>2019-12-29T08:05:30Z</time>
      </trkpt>
      <trkpt lat="37.7133876923" lon="-8.6850198638">
        <ele>253.93</ele>
        <time>2019-12-29T08:05:40Z</time>
      </trkpt>
      <trkpt lat="37.7133954875" lon="-8.6850321852">
        <ele>253.44</ele>
        <time>2019-12-29T08:05:41Z</time>
      </trkpt>
      <trkpt lat="37.7134228125" lon="-8.6850598454">
        <ele>253.93</ele>
        <time>2019-12-29T08:05:44Z</time>
      </trkpt>
      <trkpt lat="37.7134924661" lon="-8.6850855779">
        <ele>253.44</ele>
        <time>2019-12-29T08:05:50Z</time>
      </trkpt>
      <trkpt lat="37.7135399915" lon="-8.6850991566">
        <ele>253.44</ele>
        <time>2019-12-29T08:05:54Z</time>
      </trkpt>
      <trkpt lat="37.7135607786" lon="-8.6851088796">
        <ele>253.44</ele>
        <time>2019-12-29T08:05:56Z</time>
      </trkpt>
      <trkpt lat="37.7136791311" lon="-8.6850611027">
        <ele>253.44</ele>
        <time>2019-12-29T08:06:08Z</time>
      </trkpt>
      <trkpt lat="37.7136938833" lon="-8.6850901879">
        <ele>253.44</ele>
        <time>2019-12-29T08:06:21Z</time>
      </trkpt>
      <trkpt lat="37.7137023490" lon="-8.6850818899">
        <ele>253.44</ele>
        <time>2019-12-29T08:06:32Z</time>
      </trkpt>
      <trkpt lat="37.7139085438" lon="-8.6849964783">
        <ele>250.08</ele>
        <time>2019-12-29T08:06:50Z</time>
      </trkpt>
      <trkpt lat="37.7139779460" lon="-8.6849725898">
        <ele>249.60</ele>
        <time>2019-12-29T08:06:56Z</time>
      </trkpt>
      <trkpt lat="37.7140746731" lon="-8.6849322729">
        <ele>248.64</ele>
        <time>2019-12-29T08:07:04Z</time>
      </trkpt>
      <trkpt lat="37.7142667864" lon="-8.6848951411">
        <ele>247.68</ele>
        <time>2019-12-29T08:07:21Z</time>
      </trkpt>
      <trkpt lat="37.7143539581" lon="-8.6849104799">
        <ele>247.20</ele>
        <time>2019-12-29T08:07:29Z</time>
      </trkpt>
      <trkpt lat="37.7145645116" lon="-8.6848920397">
        <ele>244.79</ele>
        <time>2019-12-29T08:07:46Z</time>
      </trkpt>
      <trkpt lat="37.7146739792" lon="-8.6848865915">
        <ele>243.83</ele>
        <time>2019-12-29T08:07:55Z</time>
      </trkpt>
      <trkpt lat="37.7148568723" lon="-8.6848209612">
        <ele>241.91</ele>
        <time>2019-12-29T08:08:11Z</time>
      </trkpt>
      <trkpt lat="37.7149489056" lon="-8.6847839970">
        <ele>240.95</ele>
        <time>2019-12-29T08:08:19Z</time>
      </trkpt>
      <trkpt lat="37.7150104288" lon="-8.6847606115">
        <ele>239.51</ele>
        <time>2019-12-29T08:08:25Z</time>
      </trkpt>
      <trkpt lat="37.7151886281" lon="-8.6846577656">
        <ele>237.10</ele>
        <time>2019-12-29T08:08:41Z</time>
      </trkpt>
      <trkpt lat="37.7153550088" lon="-8.6845305283">
        <ele>235.18</ele>
        <time>2019-12-29T08:08:56Z</time>
      </trkpt>
      <trkpt lat="37.7154828329" lon="-8.6844101641">
        <ele>233.26</ele>
        <time>2019-12-29T08:09:10Z</time>
      </trkpt>
      <trkpt lat="37.7156195417" lon="-8.6842752155">
        <ele>230.85</ele>
        <time>2019-12-29T08:09:25Z</time>
      </trkpt>
      <trkpt lat="37.7156570088" lon="-8.6842347309">
        <ele>229.89</ele>
        <time>2019-12-29T08:09:30Z</time>
      </trkpt>
      <trkpt lat="37.7156759519" lon="-8.6842056457">
        <ele>229.41</ele>
        <time>2019-12-29T08:09:33Z</time>
      </trkpt>
      <trkpt lat="37.7158041112" lon="-8.6840219144">
        <ele>227.01</ele>
        <time>2019-12-29T08:09:49Z</time>
      </trkpt>
      <trkpt lat="37.7159286663" lon="-8.6838718783">
        <ele>224.12</ele>
        <time>2019-12-29T08:10:03Z</time>
      </trkpt>
      <trkpt lat="37.7160841506" lon="-8.6837478261">
        <ele>222.20</ele>
        <time>2019-12-29T08:10:18Z</time>
      </trkpt>
      <trkpt lat="37.7160923649" lon="-8.6837370135">
        <ele>221.72</ele>
        <time>2019-12-29T08:10:19Z</time>
      </trkpt>
      <trkpt lat="37.7161211986" lon="-8.6837150529">
        <ele>221.72</ele>
        <time>2019-12-29T08:10:22Z</time>
      </trkpt>
      <trkpt lat="37.7162038442" lon="-8.6836496741">
        <ele>221.24</ele>
        <time>2019-12-29T08:10:35Z</time>
      </trkpt>
      <trkpt lat="37.7162038442" lon="-8.6836496741">
        <ele>221.24</ele>
        <time>2019-12-29T08:10:46Z</time>
      </trkpt>
      <trkpt lat="37.7162351087" lon="-8.6836462375">
        <ele>221.24</ele>
        <time>2019-12-29T08:10:49Z</time>
      </trkpt>
      <trkpt lat="37.7164127212" lon="-8.6836179066">
        <ele>220.76</ele>
        <time>2019-12-29T08:11:04Z</time>
      </trkpt>
      <trkpt lat="37.7165807784" lon="-8.6836567987">
        <ele>219.32</ele>
        <time>2019-12-29T08:11:19Z</time>
      </trkpt>
      <trkpt lat="37.7165889088" lon="-8.6836658511">
        <ele>219.32</ele>
        <time>2019-12-29T08:11:20Z</time>
      </trkpt>
      <trkpt lat="37.7166459057" lon="-8.6837044079">
        <ele>218.84</ele>
        <time>2019-12-29T08:11:26Z</time>
      </trkpt>
      <trkpt lat="37.7167661861" lon="-8.6837903224">
        <ele>217.88</ele>
        <time>2019-12-29T08:11:39Z</time>
      </trkpt>
      <trkpt lat="37.7168979496" lon="-8.6839019693">
        <ele>216.43</ele>
        <time>2019-12-29T08:11:52Z</time>
      </trkpt>
      <trkpt lat="37.7169357520" lon="-8.6839173082">
        <ele>216.43</ele>
        <time>2019-12-29T08:11:55Z</time>
      </trkpt>
      <trkpt lat="37.7170161344" lon="-8.6839277856">
        <ele>214.99</ele>
        <time>2019-12-29T08:12:02Z</time>
      </trkpt>
      <trkpt lat="37.7171903104" lon="-8.6838924978">
        <ele>212.11</ele>
        <time>2019-12-29T08:12:17Z</time>
      </trkpt>
      <trkpt lat="37.7173666656" lon="-8.6838484928">
        <ele>209.70</ele>
        <time>2019-12-29T08:12:32Z</time>
      </trkpt>
      <trkpt lat="37.7174053062" lon="-8.6838413682">
        <ele>209.70</ele>
        <time>2019-12-29T08:12:36Z</time>
      </trkpt>
      <trkpt lat="37.7174343914" lon="-8.6838933360">
        <ele>209.22</ele>
        <time>2019-12-29T08:12:41Z</time>
      </trkpt>
      <trkpt lat="37.7174180467" lon="-8.6839081720">
        <ele>208.74</ele>
        <time>2019-12-29T08:12:43Z</time>
      </trkpt>
      <trkpt lat="37.7173699345" lon="-8.6839352455">
        <ele>209.70</ele>
        <time>2019-12-29T08:12:48Z</time>
      </trkpt>
      <trkpt lat="37.7172504924" lon="-8.6839739699">
        <ele>210.19</ele>
        <time>2019-12-29T08:12:59Z</time>
      </trkpt>
      <trkpt lat="37.7172030509" lon="-8.6839891411">
        <ele>210.67</ele>
        <time>2019-12-29T08:13:04Z</time>
      </trkpt>
      <trkpt lat="37.7171007916" lon="-8.6840235069">
        <ele>210.67</ele>
        <time>2019-12-29T08:13:13Z</time>
      </trkpt>
      <trkpt lat="37.7170367539" lon="-8.6840329785">
        <ele>211.15</ele>
        <time>2019-12-29T08:13:18Z</time>
      </trkpt>
      <trkpt lat="37.7170053218" lon="-8.6840497423">
        <ele>211.15</ele>
        <time>2019-12-29T08:13:21Z</time>
      </trkpt>
      <trkpt lat="37.7169370931" lon="-8.6840748880">
        <ele>211.15</ele>
        <time>2019-12-29T08:13:27Z</time>
      </trkpt>
      <trkpt lat="37.7168800123" lon="-8.6841233354">
        <ele>210.19</ele>
        <time>2019-12-29T08:13:33Z</time>
      </trkpt>
      <trkpt lat="37.7168742288" lon="-8.6841913126">
        <ele>210.19</ele>
        <time>2019-12-29T08:13:37Z</time>
      </trkpt>
      <trkpt lat="37.7168898191" lon="-8.6842447892">
        <ele>210.67</ele>
        <time>2019-12-29T08:13:42Z</time>
      </trkpt>
      <trkpt lat="37.7169183176" lon="-8.6842718627">
        <ele>211.15</ele>
        <time>2019-12-29T08:13:46Z</time>
      </trkpt>
      <trkpt lat="37.7169364225" lon="-8.6843202263">
        <ele>211.15</ele>
        <time>2019-12-29T08:13:49Z</time>
      </trkpt>
      <trkpt lat="37.7170157153" lon="-8.6844963301">
        <ele>213.07</ele>
        <time>2019-12-29T08:14:02Z</time>
      </trkpt>
      <trkpt lat="37.7170779090" lon="-8.6846666504">
        <ele>214.51</ele>
        <time>2019-12-29T08:14:16Z</time>
      </trkpt>
      <trkpt lat="37.7171103470" lon="-8.6847670656">
        <ele>215.47</ele>
        <time>2019-12-29T08:14:23Z</time>
      </trkpt>
      <trkpt lat="37.7171301283" lon="-8.6848251522">
        <ele>216.91</ele>
        <time>2019-12-29T08:14:28Z</time>
      </trkpt>
      <trkpt lat="37.7171579562" lon="-8.6848887708">
        <ele>217.40</ele>
        <time>2019-12-29T08:14:33Z</time>
      </trkpt>
      <trkpt lat="37.7171706129" lon="-8.6849115696">
        <ele>217.40</ele>
        <time>2019-12-29T08:14:35Z</time>
      </trkpt>
      <trkpt lat="37.7171820961" lon="-8.6849430855">
        <ele>218.36</ele>
        <time>2019-12-29T08:14:38Z</time>
      </trkpt>
      <trkpt lat="37.7172071580" lon="-8.6850180198">
        <ele>219.32</ele>
        <time>2019-12-29T08:14:44Z</time>
      </trkpt>
      <trkpt lat="37.7172194794" lon="-8.6850422435">
        <ele>219.32</ele>
        <time>2019-12-29T08:14:46Z</time>
      </trkpt>
      <trkpt lat="37.7172491513" lon="-8.6851551477">
        <ele>221.24</ele>
        <time>2019-12-29T08:14:54Z</time>
      </trkpt>
      <trkpt lat="37.7172681782" lon="-8.6852196045">
        <ele>221.72</ele>
        <time>2019-12-29T08:14:59Z</time>
      </trkpt>
      <trkpt lat="37.7172990236" lon="-8.6852627713">
        <ele>222.20</ele>
        <time>2019-12-29T08:15:03Z</time>
      </trkpt>
      <trkpt lat="37.7173231635" lon="-8.6853164155">
        <ele>222.68</ele>
        <time>2019-12-29T08:15:07Z</time>
      </trkpt>
      <trkpt lat="37.7173421904" lon="-8.6853480153">
        <ele>223.64</ele>
        <time>2019-12-29T08:15:10Z</time>
      </trkpt>
      <trkpt lat="37.7173747960" lon="-8.6854439881">
        <ele>224.12</ele>
        <time>2019-12-29T08:15:17Z</time>
      </trkpt>
      <trkpt lat="37.7173955832" lon="-8.6855348479">
        <ele>225.57</ele>
        <time>2019-12-29T08:15:24Z</time>
      </trkpt>
      <trkpt lat="37.7173885424" lon="-8.6855619214">
        <ele>226.05</ele>
        <time>2019-12-29T08:15:26Z</time>
      </trkpt>
      <trkpt lat="37.7173932362" lon="-8.6856041662">
        <ele>226.05</ele>
        <time>2019-12-29T08:15:29Z</time>
      </trkpt>
      <trkpt lat="37.7173680067" lon="-8.6856347602">
        <ele>226.53</ele>
        <time>2019-12-29T08:15:32Z</time>
      </trkpt>
      <trkpt lat="37.7173532546" lon="-8.6856698804">
        <ele>227.01</ele>
        <time>2019-12-29T08:15:35Z</time>
      </trkpt>
      <trkpt lat="37.7173077408" lon="-8.6857322417">
        <ele>227.97</ele>
        <time>2019-12-29T08:15:41Z</time>
      </trkpt>
      <trkpt lat="37.7172876243" lon="-8.6857450660">
        <ele>228.45</ele>
        <time>2019-12-29T08:15:43Z</time>
      </trkpt>
      <trkpt lat="37.7172426134" lon="-8.6857879814">
        <ele>229.41</ele>
        <time>2019-12-29T08:15:48Z</time>
      </trkpt>
      <trkpt lat="37.7171076648" lon="-8.6859103572">
        <ele>230.85</ele>
        <time>2019-12-29T08:16:02Z</time>
      </trkpt>
      <trkpt lat="37.7170876320" lon="-8.6859188229">
        <ele>231.33</ele>
        <time>2019-12-29T08:16:04Z</time>
      </trkpt>
      <trkpt lat="37.7170228399" lon="-8.6859699525">
        <ele>232.30</ele>
        <time>2019-12-29T08:16:10Z</time>
      </trkpt>
      <trkpt lat="37.7169811819" lon="-8.6860175617">
        <ele>232.78</ele>
        <time>2019-12-29T08:16:15Z</time>
      </trkpt>
      <trkpt lat="37.7169045713" lon="-8.6861147918">
        <ele>234.22</ele>
        <time>2019-12-29T08:16:25Z</time>
      </trkpt>
      <trkpt lat="37.7168969437" lon="-8.6861259397">
        <ele>234.70</ele>
        <time>2019-12-29T08:16:26Z</time>
      </trkpt>
      <trkpt lat="37.7168826107" lon="-8.6861490738">
        <ele>235.18</ele>
        <time>2019-12-29T08:16:28Z</time>
      </trkpt>
      <trkpt lat="37.7168516815" lon="-8.6862095073">
        <ele>236.14</ele>
        <time>2019-12-29T08:16:34Z</time>
      </trkpt>
      <trkpt lat="37.7168309782" lon="-8.6862595472">
        <ele>236.62</ele>
        <time>2019-12-29T08:16:38Z</time>
      </trkpt>
      <trkpt lat="37.7168304753" lon="-8.6864262633">
        <ele>238.06</ele>
        <time>2019-12-29T08:16:50Z</time>
      </trkpt>
      <trkpt lat="37.7168370131" lon="-8.6864753813">
        <ele>238.54</ele>
        <time>2019-12-29T08:16:54Z</time>
      </trkpt>
      <trkpt lat="37.7168468200" lon="-8.6865006108">
        <ele>238.54</ele>
        <time>2019-12-29T08:17:09Z</time>
      </trkpt>
      <trkpt lat="37.7168556210" lon="-8.6865134351">
        <ele>239.02</ele>
        <time>2019-12-29T08:17:11Z</time>
      </trkpt>
      <trkpt lat="37.7168660145" lon="-8.6865326297">
        <ele>239.02</ele>
        <time>2019-12-29T08:17:13Z</time>
      </trkpt>
      <trkpt lat="37.7169030625" lon="-8.6865995172">
        <ele>239.99</ele>
        <time>2019-12-29T08:17:21Z</time>
      </trkpt>
      <trkpt lat="37.7169193234" lon="-8.6866192985">
        <ele>239.99</ele>
        <time>2019-12-29T08:17:24Z</time>
      </trkpt>
      <trkpt lat="37.7169408649" lon="-8.6866485514">
        <ele>240.95</ele>
        <time>2019-12-29T08:17:32Z</time>
      </trkpt>
      <trkpt lat="37.7169769909" lon="-8.6866657343">
        <ele>241.43</ele>
        <time>2019-12-29T08:17:35Z</time>
      </trkpt>
      <trkpt lat="37.7170423698" lon="-8.6867198814">
        <ele>241.91</ele>
        <time>2019-12-29T08:17:42Z</time>
      </trkpt>
      <trkpt lat="37.7170647494" lon="-8.6867250782">
        <ele>242.39</ele>
        <time>2019-12-29T08:17:44Z</time>
      </trkpt>
      <trkpt lat="37.7170933317" lon="-8.6867457815">
        <ele>242.87</ele>
        <time>2019-12-29T08:17:48Z</time>
      </trkpt>
      <trkpt lat="37.7171373367" lon="-8.6867805663">
        <ele>243.35</ele>
        <time>2019-12-29T08:17:52Z</time>
      </trkpt>
      <trkpt lat="37.7171856165" lon="-8.6868105736">
        <ele>243.83</ele>
        <time>2019-12-29T08:17:57Z</time>
      </trkpt>
      <trkpt lat="37.7172002010" lon="-8.6868226435">
        <ele>244.31</ele>
        <time>2019-12-29T08:17:59Z</time>
      </trkpt>
      <trkpt lat="37.7172727883" lon="-8.6868794728">
        <ele>245.75</ele>
        <time>2019-12-29T08:18:08Z</time>
      </trkpt>
      <trkpt lat="37.7172948327" lon="-8.6868868489">
        <ele>245.75</ele>
        <time>2019-12-29T08:18:10Z</time>
      </trkpt>
      <trkpt lat="37.7173438668" lon="-8.6869333684">
        <ele>246.23</ele>
        <time>2019-12-29T08:18:15Z</time>
      </trkpt>
      <trkpt lat="37.7173592895" lon="-8.6869600229">
        <ele>246.72</ele>
        <time>2019-12-29T08:18:18Z</time>
      </trkpt>
      <trkpt lat="37.7173897158" lon="-8.6869948078">
        <ele>246.72</ele>
        <time>2019-12-29T08:18:21Z</time>
      </trkpt>
      <trkpt lat="37.7174627222" lon="-8.6871775333">
        <ele>246.72</ele>
        <time>2019-12-29T08:18:34Z</time>
      </trkpt>
      <trkpt lat="37.7174715232" lon="-8.6873767711">
        <ele>245.75</ele>
        <time>2019-12-29T08:18:48Z</time>
      </trkpt>
      <trkpt lat="37.7174682543" lon="-8.6875937786">
        <ele>244.79</ele>
        <time>2019-12-29T08:19:02Z</time>
      </trkpt>
      <trkpt lat="37.7174838446" lon="-8.6876639351">
        <ele>244.31</ele>
        <time>2019-12-29T08:19:07Z</time>
      </trkpt>
      <trkpt lat="37.7174907178" lon="-8.6878393684">
        <ele>243.83</ele>
        <time>2019-12-29T08:19:19Z</time>
      </trkpt>
      <trkpt lat="37.7174871136" lon="-8.6878795177">
        <ele>243.35</ele>
        <time>2019-12-29T08:19:22Z</time>
      </trkpt>
      <trkpt lat="37.7174726129" lon="-8.6880864669">
        <ele>241.91</ele>
        <time>2019-12-29T08:19:36Z</time>
      </trkpt>
      <trkpt lat="37.7174749598" lon="-8.6881043203">
        <ele>241.91</ele>
        <time>2019-12-29T08:19:37Z</time>
      </trkpt>
      <trkpt lat="37.7174879517" lon="-8.6882445496">
        <ele>240.47</ele>
        <time>2019-12-29T08:19:46Z</time>
      </trkpt>
      <trkpt lat="37.7174779773" lon="-8.6882961821">
        <ele>239.99</ele>
        <time>2019-12-29T08:19:50Z</time>
      </trkpt>
      <trkpt lat="37.7174954955" lon="-8.6884977669">
        <ele>237.58</ele>
        <time>2019-12-29T08:20:03Z</time>
      </trkpt>
      <trkpt lat="37.7174994349" lon="-8.6885517463">
        <ele>237.10</ele>
        <time>2019-12-29T08:20:07Z</time>
      </trkpt>
      <trkpt lat="37.7175489720" lon="-8.6885945778">
        <ele>237.10</ele>
        <time>2019-12-29T08:20:12Z</time>
      </trkpt>
      <trkpt lat="37.7175952401" lon="-8.6886434443">
        <ele>237.58</ele>
        <time>2019-12-29T08:20:17Z</time>
      </trkpt>
      <trkpt lat="37.7176369820" lon="-8.6886753794">
        <ele>237.58</ele>
        <time>2019-12-29T08:20:21Z</time>
      </trkpt>
      <trkpt lat="37.7177031990" lon="-8.6887169536">
        <ele>238.06</ele>
        <time>2019-12-29T08:20:27Z</time>
      </trkpt>
      <trkpt lat="37.7177942265" lon="-8.6887591146">
        <ele>237.10</ele>
        <time>2019-12-29T08:20:35Z</time>
      </trkpt>
      <trkpt lat="37.7179180272" lon="-8.6888130940">
        <ele>236.62</ele>
        <time>2019-12-29T08:20:46Z</time>
      </trkpt>
      <trkpt lat="37.7179577574" lon="-8.6888322048">
        <ele>235.66</ele>
        <time>2019-12-29T08:20:50Z</time>
      </trkpt>
      <trkpt lat="37.7181050275" lon="-8.6888947338">
        <ele>235.66</ele>
        <time>2019-12-29T08:21:03Z</time>
      </trkpt>
      <trkpt lat="37.7181131579" lon="-8.6889021937">
        <ele>235.66</ele>
        <time>2019-12-29T08:21:04Z</time>
      </trkpt>
      <trkpt lat="37.7181709930" lon="-8.6889584363">
        <ele>235.66</ele>
        <time>2019-12-29T08:21:10Z</time>
      </trkpt>
      <trkpt lat="37.7182227094" lon="-8.6890090629">
        <ele>236.14</ele>
        <time>2019-12-29T08:21:15Z</time>
      </trkpt>
      <trkpt lat="37.7182530519" lon="-8.6890578456">
        <ele>236.62</ele>
        <time>2019-12-29T08:21:20Z</time>
      </trkpt>
      <trkpt lat="37.7183095459" lon="-8.6891299300">
        <ele>237.58</ele>
        <time>2019-12-29T08:21:26Z</time>
      </trkpt>
      <trkpt lat="37.7183388826" lon="-8.6891829036">
        <ele>238.06</ele>
        <time>2019-12-29T08:21:30Z</time>
      </trkpt>
      <trkpt lat="37.7183495276" lon="-8.6892280821">
        <ele>238.54</ele>
        <time>2019-12-29T08:21:33Z</time>
      </trkpt>
      <trkpt lat="37.7183641121" lon="-8.6892628670">
        <ele>239.02</ele>
        <time>2019-12-29T08:21:36Z</time>
      </trkpt>
      <trkpt lat="37.7183832228" lon="-8.6893056147">
        <ele>239.51</ele>
        <time>2019-12-29T08:21:39Z</time>
      </trkpt>
      <trkpt lat="37.7184284851" lon="-8.6893913615">
        <ele>239.99</ele>
        <time>2019-12-29T08:21:46Z</time>
      </trkpt>
      <trkpt lat="37.7184537146" lon="-8.6894673854">
        <ele>240.95</ele>
        <time>2019-12-29T08:21:51Z</time>
      </trkpt>
      <trkpt lat="37.7184760105" lon="-8.6895009968">
        <ele>240.95</ele>
        <time>2019-12-29T08:21:54Z</time>
      </trkpt>
      <trkpt lat="37.7184964623" lon="-8.6895384640">
        <ele>241.43</ele>
        <time>2019-12-29T08:21:57Z</time>
      </trkpt>
      <trkpt lat="37.7185429819" lon="-8.6896017473">
        <ele>241.91</ele>
        <time>2019-12-29T08:22:03Z</time>
      </trkpt>
      <trkpt lat="37.7185835503" lon="-8.6896351911">
        <ele>242.39</ele>
        <time>2019-12-29T08:22:07Z</time>
      </trkpt>
      <trkpt lat="37.7186054271" lon="-8.6896385439">
        <ele>242.87</ele>
        <time>2019-12-29T08:22:09Z</time>
      </trkpt>
      <trkpt lat="37.7186923474" lon="-8.6897014081">
        <ele>243.83</ele>
        <time>2019-12-29T08:22:17Z</time>
      </trkpt>
      <trkpt lat="37.7187473327" lon="-8.6897524539">
        <ele>244.31</ele>
        <time>2019-12-29T08:22:23Z</time>
      </trkpt>
      <trkpt lat="37.7187723108" lon="-8.6897786893">
        <ele>245.27</ele>
        <time>2019-12-29T08:22:26Z</time>
      </trkpt>
      <trkpt lat="37.7188363485" lon="-8.6898834631">
        <ele>246.23</ele>
        <time>2019-12-29T08:22:35Z</time>
      </trkpt>
      <trkpt lat="37.7188449819" lon="-8.6898967903">
        <ele>246.23</ele>
        <time>2019-12-29T08:22:37Z</time>
      </trkpt>
      <trkpt lat="37.7188609075" lon="-8.6899257079">
        <ele>246.72</ele>
        <time>2019-12-29T08:22:39Z</time>
      </trkpt>
      <trkpt lat="37.7188767493" lon="-8.6899645999">
        <ele>247.20</ele>
        <time>2019-12-29T08:22:42Z</time>
      </trkpt>
      <trkpt lat="37.7188896574" lon="-8.6900246982">
        <ele>247.68</ele>
        <time>2019-12-29T08:22:46Z</time>
      </trkpt>
      <trkpt lat="37.7188840415" lon="-8.6901345849">
        <ele>248.64</ele>
        <time>2019-12-29T08:22:54Z</time>
      </trkpt>
      <trkpt lat="37.7188839577" lon="-8.6901790928">
        <ele>248.64</ele>
        <time>2019-12-29T08:22:57Z</time>
      </trkpt>
      <trkpt lat="37.7188390307" lon="-8.6903482396">
        <ele>249.60</ele>
        <time>2019-12-29T08:23:08Z</time>
      </trkpt>
      <trkpt lat="37.7188440599" lon="-8.6904233415">
        <ele>249.60</ele>
        <time>2019-12-29T08:23:19Z</time>
      </trkpt>
      <trkpt lat="37.7188440599" lon="-8.6904233415">
        <ele>249.60</ele>
        <time>2019-12-29T08:23:27Z</time>
      </trkpt>
      <trkpt lat="37.7188480832" lon="-8.6904579587">
        <ele>249.60</ele>
        <time>2019-12-29T08:23:30Z</time>
      </trkpt>
      <trkpt lat="37.7189006377" lon="-8.6906002834">
        <ele>251.52</ele>
        <time>2019-12-29T08:23:41Z</time>
      </trkpt>
      <trkpt lat="37.7189580537" lon="-8.6907605454">
        <ele>252.48</ele>
        <time>2019-12-29T08:23:53Z</time>
      </trkpt>
      <trkpt lat="37.7190054115" lon="-8.6909198016">
        <ele>252.48</ele>
        <time>2019-12-29T08:24:05Z</time>
      </trkpt>
      <trkpt lat="37.7190463152" lon="-8.6910259165">
        <ele>253.44</ele>
        <time>2019-12-29T08:24:13Z</time>
      </trkpt>
      <trkpt lat="37.7190705389" lon="-8.6910576001">
        <ele>252.96</ele>
        <time>2019-12-29T08:24:16Z</time>
      </trkpt>
      <trkpt lat="37.7191858739" lon="-8.6911684927">
        <ele>252.96</ele>
        <time>2019-12-29T08:24:29Z</time>
      </trkpt>
      <trkpt lat="37.7193351556" lon="-8.6912468635">
        <ele>252.96</ele>
        <time>2019-12-29T08:24:44Z</time>
      </trkpt>
      <trkpt lat="37.7194001153" lon="-8.6912803911">
        <ele>253.44</ele>
        <time>2019-12-29T08:24:50Z</time>
      </trkpt>
      <trkpt lat="37.7195546776" lon="-8.6913383100">
        <ele>253.44</ele>
        <time>2019-12-29T08:25:04Z</time>
      </trkpt>
      <trkpt lat="37.7196110878" lon="-8.6913549062">
        <ele>253.44</ele>
        <time>2019-12-29T08:25:09Z</time>
      </trkpt>
      <trkpt lat="37.7197058871" lon="-8.6913875956">
        <ele>253.44</ele>
        <time>2019-12-29T08:25:17Z</time>
      </trkpt>
      <trkpt lat="37.7198307775" lon="-8.6914329417">
        <ele>253.44</ele>
        <time>2019-12-29T08:25:28Z</time>
      </trkpt>
      <trkpt lat="37.7199116629" lon="-8.6914672237">
        <ele>252.96</ele>
        <time>2019-12-29T08:25:36Z</time>
      </trkpt>
      <trkpt lat="37.7199058793" lon="-8.6914924532">
        <ele>253.44</ele>
        <time>2019-12-29T08:25:54Z</time>
      </trkpt>
      <trkpt lat="37.7199058793" lon="-8.6914924532">
        <ele>252.96</ele>
        <time>2019-12-29T08:26:08Z</time>
      </trkpt>
      <trkpt lat="37.7200409118" lon="-8.6915165093">
        <ele>252.48</ele>
        <time>2019-12-29T08:26:19Z</time>
      </trkpt>
      <trkpt lat="37.7200751938" lon="-8.6915208679">
        <ele>252.48</ele>
        <time>2019-12-29T08:26:22Z</time>
      </trkpt>
      <trkpt lat="37.7201270778" lon="-8.6915357038">
        <ele>252.48</ele>
        <time>2019-12-29T08:26:26Z</time>
      </trkpt>
      <trkpt lat="37.7202206198" lon="-8.6915710755">
        <ele>252.00</ele>
        <time>2019-12-29T08:26:38Z</time>
      </trkpt>
      <trkpt lat="37.7202206198" lon="-8.6915710755">
        <ele>252.00</ele>
        <time>2019-12-29T08:27:09Z</time>
      </trkpt>
      <trkpt lat="37.7202274092" lon="-8.6915648729">
        <ele>252.00</ele>
        <time>2019-12-29T08:27:31Z</time>
      </trkpt>
      <trkpt lat="37.7202477772" lon="-8.6915643699">
        <ele>251.52</ele>
        <time>2019-12-29T08:27:33Z</time>
      </trkpt>
      <trkpt lat="37.7203986514" lon="-8.6915869173">
        <ele>251.52</ele>
        <time>2019-12-29T08:27:46Z</time>
      </trkpt>
      <trkpt lat="37.7204089612" lon="-8.6915852409">
        <ele>251.04</ele>
        <time>2019-12-29T08:27:47Z</time>
      </trkpt>
      <trkpt lat="37.7204610128" lon="-8.6915984005">
        <ele>251.04</ele>
        <time>2019-12-29T08:27:51Z</time>
      </trkpt>
      <trkpt lat="37.7206482645" lon="-8.6915812176">
        <ele>250.56</ele>
        <time>2019-12-29T08:28:06Z</time>
      </trkpt>
      <trkpt lat="37.7207739092" lon="-8.6915606819">
        <ele>250.08</ele>
        <time>2019-12-29T08:28:17Z</time>
      </trkpt>
      <trkpt lat="37.7208371926" lon="-8.6915519647">
        <ele>249.60</ele>
        <time>2019-12-29T08:28:22Z</time>
      </trkpt>
      <trkpt lat="37.7208770066" lon="-8.6915499531">
        <ele>249.12</ele>
        <time>2019-12-29T08:28:25Z</time>
      </trkpt>
      <trkpt lat="37.7210439742" lon="-8.6915124860">
        <ele>248.64</ele>
        <time>2019-12-29T08:28:39Z</time>
      </trkpt>
      <trkpt lat="37.7210717183" lon="-8.6915085465">
        <ele>248.64</ele>
        <time>2019-12-29T08:28:41Z</time>
      </trkpt>
      <trkpt lat="37.7211348340" lon="-8.6914911121">
        <ele>249.12</ele>
        <time>2019-12-29T08:28:46Z</time>
      </trkpt>
      <trkpt lat="37.7211862989" lon="-8.6914814729">
        <ele>249.12</ele>
        <time>2019-12-29T08:28:51Z</time>
      </trkpt>
      <trkpt lat="37.7212827746" lon="-8.6914670561">
        <ele>249.60</ele>
        <time>2019-12-29T08:28:59Z</time>
      </trkpt>
      <trkpt lat="37.7213034779" lon="-8.6914735101">
        <ele>250.08</ele>
        <time>2019-12-29T08:29:01Z</time>
      </trkpt>
      <trkpt lat="37.7214469761" lon="-8.6915365420">
        <ele>251.04</ele>
        <time>2019-12-29T08:29:13Z</time>
      </trkpt>
      <trkpt lat="37.7214695234" lon="-8.6915476061">
        <ele>252.00</ele>
        <time>2019-12-29T08:29:15Z</time>
      </trkpt>
      <trkpt lat="37.7215508278" lon="-8.6915307585">
        <ele>251.04</ele>
        <time>2019-12-29T08:29:21Z</time>
      </trkpt>
      <trkpt lat="37.7216302045" lon="-8.6915066186">
        <ele>250.56</ele>
        <time>2019-12-29T08:29:29Z</time>
      </trkpt>
      <trkpt lat="37.7218058053" lon="-8.6914481968">
        <ele>249.60</ele>
        <time>2019-12-29T08:29:43Z</time>
      </trkpt>
      <trkpt lat="37.7218426857" lon="-8.6914384738">
        <ele>249.60</ele>
        <time>2019-12-29T08:29:46Z</time>
      </trkpt>
      <trkpt lat="37.7219696715" lon="-8.6914217938">
        <ele>249.12</ele>
        <time>2019-12-29T08:29:56Z</time>
      </trkpt>
      <trkpt lat="37.7220148500" lon="-8.6913998332">
        <ele>249.60</ele>
        <time>2019-12-29T08:30:00Z</time>
      </trkpt>
      <trkpt lat="37.7220591065" lon="-8.6913914513">
        <ele>249.60</ele>
        <time>2019-12-29T08:30:04Z</time>
      </trkpt>
      <trkpt lat="37.7221292630" lon="-8.6913818959">
        <ele>251.04</ele>
        <time>2019-12-29T08:30:11Z</time>
      </trkpt>
      <trkpt lat="37.7222405747" lon="-8.6913499609">
        <ele>253.44</ele>
        <time>2019-12-29T08:30:23Z</time>
      </trkpt>
      <trkpt lat="37.7223054506" lon="-8.6913383938">
        <ele>254.89</ele>
        <time>2019-12-29T08:30:30Z</time>
      </trkpt>
      <trkpt lat="37.7223311830" lon="-8.6913301796">
        <ele>254.89</ele>
        <time>2019-12-29T08:30:32Z</time>
      </trkpt>
      <trkpt lat="37.7224354539" lon="-8.6913093086">
        <ele>257.77</ele>
        <time>2019-12-29T08:30:44Z</time>
      </trkpt>
      <trkpt lat="37.7224968094" lon="-8.6912865099">
        <ele>258.25</ele>
        <time>2019-12-29T08:30:50Z</time>
      </trkpt>
      <trkpt lat="37.7225546446" lon="-8.6912740208">
        <ele>258.25</ele>
        <time>2019-12-29T08:30:55Z</time>
      </trkpt>
      <trkpt lat="37.7226330154" lon="-8.6912697461">
        <ele>258.25</ele>
        <time>2019-12-29T08:31:02Z</time>
      </trkpt>
      <trkpt lat="37.7227172535" lon="-8.6912787985">
        <ele>258.25</ele>
        <time>2019-12-29T08:31:09Z</time>
      </trkpt>
      <trkpt lat="37.7228613384" lon="-8.6913248990">
        <ele>258.25</ele>
        <time>2019-12-29T08:31:21Z</time>
      </trkpt>
      <trkpt lat="37.7228966262" lon="-8.6913326941">
        <ele>258.25</ele>
        <time>2019-12-29T08:31:24Z</time>
      </trkpt>
      <trkpt lat="37.7229392901" lon="-8.6913608573">
        <ele>258.73</ele>
        <time>2019-12-29T08:31:28Z</time>
      </trkpt>
      <trkpt lat="37.7229915932" lon="-8.6913741846">
        <ele>259.69</ele>
        <time>2019-12-29T08:31:32Z</time>
      </trkpt>
      <trkpt lat="37.7231143042" lon="-8.6914041918">
        <ele>261.14</ele>
        <time>2019-12-29T08:31:42Z</time>
      </trkpt>
      <trkpt lat="37.7231249493" lon="-8.6914099753">
        <ele>261.62</ele>
        <time>2019-12-29T08:31:43Z</time>
      </trkpt>
      <trkpt lat="37.7232490014" lon="-8.6914552376">
        <ele>263.54</ele>
        <time>2019-12-29T08:31:55Z</time>
      </trkpt>
      <trkpt lat="37.7233095188" lon="-8.6914856639">
        <ele>265.46</ele>
        <time>2019-12-29T08:32:02Z</time>
      </trkpt>
      <trkpt lat="37.7233451419" lon="-8.6914883461">
        <ele>266.42</ele>
        <time>2019-12-29T08:32:06Z</time>
      </trkpt>
      <trkpt lat="37.7233627439" lon="-8.6915079597">
        <ele>266.90</ele>
        <time>2019-12-29T08:32:08Z</time>
      </trkpt>
      <trkpt lat="37.7234082576" lon="-8.6915289983">
        <ele>267.86</ele>
        <time>2019-12-29T08:32:13Z</time>
      </trkpt>
      <trkpt lat="37.7234365046" lon="-8.6915486958">
        <ele>268.35</ele>
        <time>2019-12-29T08:32:16Z</time>
      </trkpt>
      <trkpt lat="37.7235058229" lon="-8.6915992387">
        <ele>269.79</ele>
        <time>2019-12-29T08:32:23Z</time>
      </trkpt>
      <trkpt lat="37.7235409431" lon="-8.6916462611">
        <ele>270.27</ele>
        <time>2019-12-29T08:32:28Z</time>
      </trkpt>
      <trkpt lat="37.7235587966" lon="-8.6916631088">
        <ele>270.27</ele>
        <time>2019-12-29T08:32:30Z</time>
      </trkpt>
      <trkpt lat="37.7235886361" lon="-8.6917104665">
        <ele>271.71</ele>
        <time>2019-12-29T08:32:36Z</time>
      </trkpt>
      <trkpt lat="37.7236142009" lon="-8.6917895079">
        <ele>273.15</ele>
        <time>2019-12-29T08:32:42Z</time>
      </trkpt>
      <trkpt lat="37.7236178890" lon="-8.6918705609">
        <ele>274.59</ele>
        <time>2019-12-29T08:32:47Z</time>
      </trkpt>
      <trkpt lat="37.7236273605" lon="-8.6919299886">
        <ele>274.59</ele>
        <time>2019-12-29T08:32:51Z</time>
      </trkpt>
      <trkpt lat="37.7236317191" lon="-8.6920265481">
        <ele>276.04</ele>
        <time>2019-12-29T08:32:58Z</time>
      </trkpt>
      <trkpt lat="37.7236494888" lon="-8.6920666974">
        <ele>276.52</ele>
        <time>2019-12-29T08:33:01Z</time>
      </trkpt>
      <trkpt lat="37.7236555237" lon="-8.6920979619">
        <ele>277.00</ele>
        <time>2019-12-29T08:33:04Z</time>
      </trkpt>
      <trkpt lat="37.7236642409" lon="-8.6921368539">
        <ele>277.00</ele>
        <time>2019-12-29T08:33:07Z</time>
      </trkpt>
      <trkpt lat="37.7236767299" lon="-8.6922406219">
        <ele>276.04</ele>
        <time>2019-12-29T08:33:14Z</time>
      </trkpt>
      <trkpt lat="37.7236847766" lon="-8.6924278736">
        <ele>275.07</ele>
        <time>2019-12-29T08:33:27Z</time>
      </trkpt>
      <trkpt lat="37.7237099223" lon="-8.6926090065">
        <ele>275.56</ele>
        <time>2019-12-29T08:33:39Z</time>
      </trkpt>
      <trkpt lat="37.7237297036" lon="-8.6926701106">
        <ele>276.04</ele>
        <time>2019-12-29T08:33:43Z</time>
      </trkpt>
      <trkpt lat="37.7237394266" lon="-8.6927131936">
        <ele>276.04</ele>
        <time>2019-12-29T08:33:46Z</time>
      </trkpt>
      <trkpt lat="37.7237432823" lon="-8.6927753873">
        <ele>277.00</ele>
        <time>2019-12-29T08:33:50Z</time>
      </trkpt>
      <trkpt lat="37.7237218246" lon="-8.6928685941">
        <ele>277.96</ele>
        <time>2019-12-29T08:33:56Z</time>
      </trkpt>
      <trkpt lat="37.7237150352" lon="-8.6928947456">
        <ele>277.48</ele>
        <time>2019-12-29T08:33:58Z</time>
      </trkpt>
      <trkpt lat="37.7237134427" lon="-8.6929507367">
        <ele>278.44</ele>
        <time>2019-12-29T08:34:02Z</time>
      </trkpt>
      <trkpt lat="37.7237047255" lon="-8.6929781456">
        <ele>278.44</ele>
        <time>2019-12-29T08:34:04Z</time>
      </trkpt>
      <trkpt lat="37.7236919850" lon="-8.6930385791">
        <ele>279.40</ele>
        <time>2019-12-29T08:34:09Z</time>
      </trkpt>
      <trkpt lat="37.7236903086" lon="-8.6930991802">
        <ele>280.36</ele>
        <time>2019-12-29T08:34:13Z</time>
      </trkpt>
      <trkpt lat="37.7236797474" lon="-8.6931337975">
        <ele>280.36</ele>
        <time>2019-12-29T08:34:24Z</time>
      </trkpt>
      <trkpt lat="37.7236728743" lon="-8.6931825802">
        <ele>280.84</ele>
        <time>2019-12-29T08:34:29Z</time>
      </trkpt>
      <trkpt lat="37.7236598823" lon="-8.6932498869">
        <ele>281.32</ele>
        <time>2019-12-29T08:34:34Z</time>
      </trkpt>
      <trkpt lat="37.7236643247" lon="-8.6933231447">
        <ele>281.80</ele>
        <time>2019-12-29T08:34:39Z</time>
      </trkpt>
      <trkpt lat="37.7236746345" lon="-8.6934113223">
        <ele>282.28</ele>
        <time>2019-12-29T08:34:45Z</time>
      </trkpt>
      <trkpt lat="37.7237457968" lon="-8.6934943032">
        <ele>283.25</ele>
        <time>2019-12-29T08:34:54Z</time>
      </trkpt>
      <trkpt lat="37.7237976808" lon="-8.6935063731">
        <ele>283.25</ele>
        <time>2019-12-29T08:34:58Z</time>
      </trkpt>
      <trkpt lat="37.7238887083" lon="-8.6934921239">
        <ele>283.73</ele>
        <time>2019-12-29T08:35:06Z</time>
      </trkpt>
      <trkpt lat="37.7239371557" lon="-8.6934730969">
        <ele>283.73</ele>
        <time>2019-12-29T08:35:10Z</time>
      </trkpt>
      <trkpt lat="37.7239601221" lon="-8.6934568360">
        <ele>283.73</ele>
        <time>2019-12-29T08:35:12Z</time>
      </trkpt>
      <trkpt lat="37.7239970025" lon="-8.6934399046">
        <ele>283.25</ele>
        <time>2019-12-29T08:35:15Z</time>
      </trkpt>
      <trkpt lat="37.7240383253" lon="-8.6934022699">
        <ele>283.73</ele>
        <time>2019-12-29T08:35:19Z</time>
      </trkpt>
      <trkpt lat="37.7240592800" lon="-8.6933951452">
        <ele>283.73</ele>
        <time>2019-12-29T08:35:21Z</time>
      </trkpt>
      <trkpt lat="37.7241031174" lon="-8.6933687422">
        <ele>283.73</ele>
        <time>2019-12-29T08:35:25Z</time>
      </trkpt>
      <trkpt lat="37.7241985034" lon="-8.6933141761">
        <ele>284.21</ele>
        <time>2019-12-29T08:35:34Z</time>
      </trkpt>
      <trkpt lat="37.7242338751" lon="-8.6932913773">
        <ele>284.21</ele>
        <time>2019-12-29T08:35:38Z</time>
      </trkpt>
      <trkpt lat="37.7243600227" lon="-8.6932139285">
        <ele>284.21</ele>
        <time>2019-12-29T08:35:49Z</time>
      </trkpt>
      <trkpt lat="37.7243782952" lon="-8.6932020262">
        <ele>284.21</ele>
        <time>2019-12-29T08:35:51Z</time>
      </trkpt>
      <trkpt lat="37.7244242281" lon="-8.6931890342">
        <ele>284.21</ele>
        <time>2019-12-29T08:35:55Z</time>
      </trkpt>
      <trkpt lat="37.7244652156" lon="-8.6931808200">
        <ele>283.73</ele>
        <time>2019-12-29T08:35:58Z</time>
      </trkpt>
      <trkpt lat="37.7245931234" lon="-8.6931141000">
        <ele>283.25</ele>
        <time>2019-12-29T08:36:10Z</time>
      </trkpt>
      <trkpt lat="37.7247152478" lon="-8.6930032913">
        <ele>283.73</ele>
        <time>2019-12-29T08:36:22Z</time>
      </trkpt>
      <trkpt lat="37.7247688081" lon="-8.6929517426">
        <ele>284.21</ele>
        <time>2019-12-29T08:36:27Z</time>
      </trkpt>
      <trkpt lat="37.7247685567" lon="-8.6929279380">
        <ele>284.21</ele>
        <time>2019-12-29T08:36:29Z</time>
      </trkpt>
      <trkpt lat="37.7247785311" lon="-8.6929153651">
        <ele>284.69</ele>
        <time>2019-12-29T08:36:30Z</time>
      </trkpt>
      <trkpt lat="37.7248219494" lon="-8.6928075738">
        <ele>285.65</ele>
        <time>2019-12-29T08:36:39Z</time>
      </trkpt>
      <trkpt lat="37.7248297445" lon="-8.6927797459">
        <ele>285.65</ele>
        <time>2019-12-29T08:36:41Z</time>
      </trkpt>
      <trkpt lat="37.7248941176" lon="-8.6926896404">
        <ele>287.09</ele>
        <time>2019-12-29T08:36:49Z</time>
      </trkpt>
      <trkpt lat="37.7249978855" lon="-8.6926204059">
        <ele>287.57</ele>
        <time>2019-12-29T08:37:00Z</time>
      </trkpt>
      <trkpt lat="37.7250677068" lon="-8.6926147062">
        <ele>288.05</ele>
        <time>2019-12-29T08:37:06Z</time>
      </trkpt>
      <trkpt lat="37.7251432277" lon="-8.6926250160">
        <ele>287.09</ele>
        <time>2019-12-29T08:37:13Z</time>
      </trkpt>
      <trkpt lat="37.7251610812" lon="-8.6926197354">
        <ele>287.57</ele>
        <time>2019-12-29T08:37:15Z</time>
      </trkpt>
      <trkpt lat="37.7252469119" lon="-8.6926332302">
        <ele>286.61</ele>
        <time>2019-12-29T08:37:22Z</time>
      </trkpt>
      <trkpt lat="37.7253636718" lon="-8.6926349904">
        <ele>286.61</ele>
        <time>2019-12-29T08:37:33Z</time>
      </trkpt>
      <trkpt lat="37.7253744006" lon="-8.6926337332">
        <ele>286.61</ele>
        <time>2019-12-29T08:37:34Z</time>
      </trkpt>
      <trkpt lat="37.7254083473" lon="-8.6926431209">
        <ele>286.13</ele>
        <time>2019-12-29T08:37:37Z</time>
      </trkpt>
      <trkpt lat="37.7254759055" lon="-8.6926256865">
        <ele>287.09</ele>
        <time>2019-12-29T08:37:43Z</time>
      </trkpt>
      <trkpt lat="37.7255255263" lon="-8.6926020496">
        <ele>287.57</ele>
        <time>2019-12-29T08:37:48Z</time>
      </trkpt>
      <trkpt lat="37.7255812660" lon="-8.6925556976">
        <ele>289.01</ele>
        <time>2019-12-29T08:37:54Z</time>
      </trkpt>
      <trkpt lat="37.7256261930" lon="-8.6925137881">
        <ele>289.49</ele>
        <time>2019-12-29T08:37:59Z</time>
      </trkpt>
      <trkpt lat="37.7257504128" lon="-8.6923566274">
        <ele>288.53</ele>
        <time>2019-12-29T08:38:14Z</time>
      </trkpt>
      <trkpt lat="37.7258727886" lon="-8.6922151409">
        <ele>287.09</ele>
        <time>2019-12-29T08:38:28Z</time>
      </trkpt>
      <trkpt lat="37.7259488963" lon="-8.6921300646">
        <ele>286.61</ele>
        <time>2019-12-29T08:38:36Z</time>
      </trkpt>
      <trkpt lat="37.7259860281" lon="-8.6920563038">
        <ele>286.13</ele>
        <time>2019-12-29T08:38:42Z</time>
      </trkpt>
      <trkpt lat="37.7260848507" lon="-8.6919085309">
        <ele>285.65</ele>
        <time>2019-12-29T08:38:54Z</time>
      </trkpt>
      <trkpt lat="37.7261091582" lon="-8.6918760091">
        <ele>285.65</ele>
        <time>2019-12-29T08:38:57Z</time>
      </trkpt>
      <trkpt lat="37.7261563484" lon="-8.6918246280">
        <ele>284.69</ele>
        <time>2019-12-29T08:39:03Z</time>
      </trkpt>
      <trkpt lat="37.7262211405" lon="-8.6917501129">
        <ele>284.21</ele>
        <time>2019-12-29T08:39:10Z</time>
      </trkpt>
      <trkpt lat="37.7262912970" lon="-8.6916685570">
        <ele>283.25</ele>
        <time>2019-12-29T08:39:18Z</time>
      </trkpt>
      <trkpt lat="37.7263063844" lon="-8.6916325986">
        <ele>282.77</ele>
        <time>2019-12-29T08:39:21Z</time>
      </trkpt>
      <trkpt lat="37.7263430972" lon="-8.6916037649">
        <ele>282.77</ele>
        <time>2019-12-29T08:39:25Z</time>
      </trkpt>
      <trkpt lat="37.7264798060" lon="-8.6915201135">
        <ele>283.25</ele>
        <time>2019-12-29T08:39:36Z</time>
      </trkpt>
      <trkpt lat="37.7265015151" lon="-8.6915048584">
        <ele>282.77</ele>
        <time>2019-12-29T08:39:38Z</time>
      </trkpt>
      <trkpt lat="37.7265217155" lon="-8.6914829817">
        <ele>283.25</ele>
        <time>2019-12-29T08:39:40Z</time>
      </trkpt>
      <trkpt lat="37.7266659681" lon="-8.6913752742">
        <ele>282.77</ele>
        <time>2019-12-29T08:39:54Z</time>
      </trkpt>
      <trkpt lat="37.7267177682" lon="-8.6913401540">
        <ele>282.28</ele>
        <time>2019-12-29T08:39:59Z</time>
      </trkpt>
      <trkpt lat="37.7267464343" lon="-8.6912996694">
        <ele>282.28</ele>
        <time>2019-12-29T08:40:03Z</time>
      </trkpt>
      <trkpt lat="37.7268836461" lon="-8.6912363023">
        <ele>281.80</ele>
        <time>2019-12-29T08:40:15Z</time>
      </trkpt>
      <trkpt lat="37.7270258032" lon="-8.6911585182">
        <ele>281.80</ele>
        <time>2019-12-29T08:40:27Z</time>
      </trkpt>
      <trkpt lat="37.7271724027" lon="-8.6911031138">
        <ele>282.28</ele>
        <time>2019-12-29T08:40:39Z</time>
      </trkpt>
      <trkpt lat="37.7273289766" lon="-8.6910081469">
        <ele>281.80</ele>
        <time>2019-12-29T08:40:52Z</time>
      </trkpt>
      <trkpt lat="37.7273514401" lon="-8.6909937300">
        <ele>282.28</ele>
        <time>2019-12-29T08:40:54Z</time>
      </trkpt>
      <trkpt lat="37.7273956966" lon="-8.6909555085">
        <ele>282.77</ele>
        <time>2019-12-29T08:40:58Z</time>
      </trkpt>
      <trkpt lat="37.7274463233" lon="-8.6909148563">
        <ele>282.28</ele>
        <time>2019-12-29T08:41:03Z</time>
      </trkpt>
      <trkpt lat="37.7275417093" lon="-8.6908259243">
        <ele>282.77</ele>
        <time>2019-12-29T08:41:13Z</time>
      </trkpt>
      <trkpt lat="37.7276389394" lon="-8.6907041352">
        <ele>283.25</ele>
        <time>2019-12-29T08:41:25Z</time>
      </trkpt>
      <trkpt lat="37.7276759036" lon="-8.6906496529">
        <ele>282.77</ele>
        <time>2019-12-29T08:41:29Z</time>
      </trkpt>
      <trkpt lat="37.7276772447" lon="-8.6905432865">
        <ele>282.28</ele>
        <time>2019-12-29T08:41:36Z</time>
      </trkpt>
      <trkpt lat="37.7277144603" lon="-8.6903470661">
        <ele>280.84</ele>
        <time>2019-12-29T08:41:48Z</time>
      </trkpt>
      <trkpt lat="37.7277118620" lon="-8.6903096829">
        <ele>280.36</ele>
        <time>2019-12-29T08:41:50Z</time>
      </trkpt>
      <trkpt lat="37.7277374268" lon="-8.6901094392">
        <ele>280.84</ele>
        <time>2019-12-29T08:42:03Z</time>
      </trkpt>
      <trkpt lat="37.7277367562" lon="-8.6900989618">
        <ele>280.84</ele>
        <time>2019-12-29T08:42:04Z</time>
      </trkpt>
      <trkpt lat="37.7277417015" lon="-8.6900595669">
        <ele>281.32</ele>
        <time>2019-12-29T08:42:07Z</time>
      </trkpt>
      <trkpt lat="37.7277337387" lon="-8.6899328325">
        <ele>281.80</ele>
        <time>2019-12-29T08:42:15Z</time>
      </trkpt>
      <trkpt lat="37.7277168911" lon="-8.6898081098">
        <ele>282.77</ele>
        <time>2019-12-29T08:42:23Z</time>
      </trkpt>
      <trkpt lat="37.7277266979" lon="-8.6897289846">
        <ele>283.73</ele>
        <time>2019-12-29T08:42:29Z</time>
      </trkpt>
      <trkpt lat="37.7277652547" lon="-8.6896833032">
        <ele>284.21</ele>
        <time>2019-12-29T08:42:34Z</time>
      </trkpt>
      <trkpt lat="37.7277960163" lon="-8.6896733288">
        <ele>284.21</ele>
        <time>2019-12-29T08:42:37Z</time>
      </trkpt>
      <trkpt lat="37.7278388478" lon="-8.6896877456">
        <ele>284.69</ele>
        <time>2019-12-29T08:42:42Z</time>
      </trkpt>
      <trkpt lat="37.7279054839" lon="-8.6897036713">
        <ele>284.69</ele>
        <time>2019-12-29T08:42:49Z</time>
      </trkpt>
      <trkpt lat="37.7279265225" lon="-8.6897176690">
        <ele>284.21</ele>
        <time>2019-12-29T08:42:51Z</time>
      </trkpt>
      <trkpt lat="37.7279592957" lon="-8.6897258833">
        <ele>284.69</ele>
        <time>2019-12-29T08:42:54Z</time>
      </trkpt>
      <trkpt lat="37.7279968467" lon="-8.6897437368">
        <ele>285.17</ele>
        <time>2019-12-29T08:42:58Z</time>
      </trkpt>
      <trkpt lat="37.7280656621" lon="-8.6897881608">
        <ele>285.17</ele>
        <time>2019-12-29T08:43:06Z</time>
      </trkpt>
      <trkpt lat="37.7281682566" lon="-8.6898641847">
        <ele>286.13</ele>
        <time>2019-12-29T08:43:17Z</time>
      </trkpt>
      <trkpt lat="37.7283024509" lon="-8.6899754964">
        <ele>286.13</ele>
        <time>2019-12-29T08:43:30Z</time>
      </trkpt>
      <trkpt lat="37.7283767145" lon="-8.6900609918">
        <ele>285.65</ele>
        <time>2019-12-29T08:43:38Z</time>
      </trkpt>
      <trkpt lat="37.7285016049" lon="-8.6901640054">
        <ele>286.13</ele>
        <time>2019-12-29T08:43:50Z</time>
      </trkpt>
      <trkpt lat="37.7285194583" lon="-8.6901791766">
        <ele>286.13</ele>
        <time>2019-12-29T08:43:52Z</time>
      </trkpt>
      <trkpt lat="37.7286363021" lon="-8.6903168075">
        <ele>286.61</ele>
        <time>2019-12-29T08:44:05Z</time>
      </trkpt>
      <trkpt lat="37.7286474500" lon="-8.6903318111">
        <ele>287.09</ele>
        <time>2019-12-29T08:44:06Z</time>
      </trkpt>
      <trkpt lat="37.7286869287" lon="-8.6903898139">
        <ele>287.09</ele>
        <time>2019-12-29T08:44:10Z</time>
      </trkpt>
      <trkpt lat="37.7287209593" lon="-8.6904405244">
        <ele>287.09</ele>
        <time>2019-12-29T08:44:14Z</time>
      </trkpt>
      <trkpt lat="37.7288072929" lon="-8.6905564461">
        <ele>287.57</ele>
        <time>2019-12-29T08:44:27Z</time>
      </trkpt>
      <trkpt lat="37.7288236376" lon="-8.6905848607">
        <ele>287.09</ele>
        <time>2019-12-29T08:44:30Z</time>
      </trkpt>
      <trkpt lat="37.7288763598" lon="-8.6906457972">
        <ele>287.09</ele>
        <time>2019-12-29T08:44:36Z</time>
      </trkpt>
      <trkpt lat="37.7289352845" lon="-8.6907194741">
        <ele>287.09</ele>
        <time>2019-12-29T08:44:43Z</time>
      </trkpt>
      <trkpt lat="37.7290475182" lon="-8.6908611283">
        <ele>287.09</ele>
        <time>2019-12-29T08:44:56Z</time>
      </trkpt>
      <trkpt lat="37.7290840633" lon="-8.6909095757">
        <ele>287.09</ele>
        <time>2019-12-29T08:45:01Z</time>
      </trkpt>
      <trkpt lat="37.7291340195" lon="-8.6909694225">
        <ele>287.57</ele>
        <time>2019-12-29T08:45:07Z</time>
      </trkpt>
      <trkpt lat="37.7291918546" lon="-8.6910164449">
        <ele>287.09</ele>
        <time>2019-12-29T08:45:13Z</time>
      </trkpt>
      <trkpt lat="37.7293465007" lon="-8.6911499687">
        <ele>287.57</ele>
        <time>2019-12-29T08:45:27Z</time>
      </trkpt>
      <trkpt lat="37.7293630969" lon="-8.6911650561">
        <ele>287.57</ele>
        <time>2019-12-29T08:45:29Z</time>
      </trkpt>
      <trkpt lat="37.7293860633" lon="-8.6911895312">
        <ele>287.57</ele>
        <time>2019-12-29T08:45:32Z</time>
      </trkpt>
      <trkpt lat="37.7295093611" lon="-8.6912993342">
        <ele>287.57</ele>
        <time>2019-12-29T08:45:45Z</time>
      </trkpt>
      <trkpt lat="37.7295291424" lon="-8.6913167685">
        <ele>287.57</ele>
        <time>2019-12-29T08:45:47Z</time>
      </trkpt>
      <trkpt lat="37.7295473311" lon="-8.6913393158">
        <ele>287.57</ele>
        <time>2019-12-29T08:45:49Z</time>
      </trkpt>
      <trkpt lat="37.7295935154" lon="-8.6913753580">
        <ele>287.57</ele>
        <time>2019-12-29T08:45:53Z</time>
      </trkpt>
      <trkpt lat="37.7296348382" lon="-8.6914051138">
        <ele>287.57</ele>
        <time>2019-12-29T08:45:57Z</time>
      </trkpt>
      <trkpt lat="37.7296822798" lon="-8.6914401501">
        <ele>287.57</ele>
        <time>2019-12-29T08:46:01Z</time>
      </trkpt>
      <trkpt lat="37.7297406178" lon="-8.6914665531">
        <ele>287.57</ele>
        <time>2019-12-29T08:46:06Z</time>
      </trkpt>
      <trkpt lat="37.7299023047" lon="-8.6914979015">
        <ele>287.57</ele>
        <time>2019-12-29T08:46:19Z</time>
      </trkpt>
      <trkpt lat="37.7299626544" lon="-8.6914933752">
        <ele>288.05</ele>
        <time>2019-12-29T08:46:24Z</time>
      </trkpt>
      <trkpt lat="37.7299844474" lon="-8.6914948840">
        <ele>287.57</ele>
        <time>2019-12-29T08:46:26Z</time>
      </trkpt>
      <trkpt lat="37.7300195675" lon="-8.6915030982">
        <ele>288.53</ele>
        <time>2019-12-29T08:46:29Z</time>
      </trkpt>
      <trkpt lat="37.7301062364" lon="-8.6915028468">
        <ele>290.46</ele>
        <time>2019-12-29T08:46:36Z</time>
      </trkpt>
      <trkpt lat="37.7301509958" lon="-8.6915077083">
        <ele>290.46</ele>
        <time>2019-12-29T08:46:40Z</time>
      </trkpt>
      <trkpt lat="37.7301729564" lon="-8.6915041041">
        <ele>291.42</ele>
        <time>2019-12-29T08:46:42Z</time>
      </trkpt>
      <trkpt lat="37.7303137723" lon="-8.6915114801">
        <ele>292.86</ele>
        <time>2019-12-29T08:46:54Z</time>
      </trkpt>
      <trkpt lat="37.7303543407" lon="-8.6915031821">
        <ele>293.34</ele>
        <time>2019-12-29T08:46:58Z</time>
      </trkpt>
      <trkpt lat="37.7303747088" lon="-8.6915075406">
        <ele>293.34</ele>
        <time>2019-12-29T08:47:00Z</time>
      </trkpt>
      <trkpt lat="37.7304597013" lon="-8.6915092170">
        <ele>294.30</ele>
        <time>2019-12-29T08:47:08Z</time>
      </trkpt>
      <trkpt lat="37.7305349708" lon="-8.6915078759">
        <ele>293.82</ele>
        <time>2019-12-29T08:47:14Z</time>
      </trkpt>
      <trkpt lat="37.7305619605" lon="-8.6915130727">
        <ele>294.30</ele>
        <time>2019-12-29T08:47:16Z</time>
      </trkpt>
      <trkpt lat="37.7307361364" lon="-8.6915096361">
        <ele>294.30</ele>
        <time>2019-12-29T08:47:30Z</time>
      </trkpt>
      <trkpt lat="37.7308724262" lon="-8.6915203650">
        <ele>294.30</ele>
        <time>2019-12-29T08:47:42Z</time>
      </trkpt>
      <trkpt lat="37.7310590073" lon="-8.6915639509">
        <ele>292.38</ele>
        <time>2019-12-29T08:47:57Z</time>
      </trkpt>
      <trkpt lat="37.7312257234" lon="-8.6916758493">
        <ele>290.94</ele>
        <time>2019-12-29T08:48:12Z</time>
      </trkpt>
      <trkpt lat="37.7312824689" lon="-8.6917598359">
        <ele>289.97</ele>
        <time>2019-12-29T08:48:20Z</time>
      </trkpt>
      <trkpt lat="37.7313625161" lon="-8.6919481773">
        <ele>288.05</ele>
        <time>2019-12-29T08:48:33Z</time>
      </trkpt>
      <trkpt lat="37.7313807048" lon="-8.6919905897">
        <ele>287.57</ele>
        <time>2019-12-29T08:48:36Z</time>
      </trkpt>
      <trkpt lat="37.7314029168" lon="-8.6922132969">
        <ele>286.13</ele>
        <time>2019-12-29T08:48:50Z</time>
      </trkpt>
      <trkpt lat="37.7313952893" lon="-8.6923008878">
        <ele>286.61</ele>
        <time>2019-12-29T08:48:55Z</time>
      </trkpt>
      <trkpt lat="37.7313911822" lon="-8.6923443060">
        <ele>285.65</ele>
        <time>2019-12-29T08:48:58Z</time>
      </trkpt>
      <trkpt lat="37.7313727420" lon="-8.6924329028">
        <ele>284.69</ele>
        <time>2019-12-29T08:49:04Z</time>
      </trkpt>
      <trkpt lat="37.7313289884" lon="-8.6926037259">
        <ele>283.73</ele>
        <time>2019-12-29T08:49:15Z</time>
      </trkpt>
      <trkpt lat="37.7313070279" lon="-8.6927619763">
        <ele>282.77</ele>
        <time>2019-12-29T08:49:25Z</time>
      </trkpt>
      <trkpt lat="37.7312957961" lon="-8.6929141078">
        <ele>281.80</ele>
        <time>2019-12-29T08:49:35Z</time>
      </trkpt>
      <trkpt lat="37.7313450817" lon="-8.6931269243">
        <ele>280.36</ele>
        <time>2019-12-29T08:49:50Z</time>
      </trkpt>
      <trkpt lat="37.7314221114" lon="-8.6932461150">
        <ele>278.92</ele>
        <time>2019-12-29T08:50:01Z</time>
      </trkpt>
      <trkpt lat="37.7314351872" lon="-8.6932534911">
        <ele>278.44</ele>
        <time>2019-12-29T08:50:02Z</time>
      </trkpt>
      <trkpt lat="37.7315618377" lon="-8.6933810636">
        <ele>276.04</ele>
        <time>2019-12-29T08:50:15Z</time>
      </trkpt>
      <trkpt lat="37.7316524461" lon="-8.6934768688">
        <ele>274.59</ele>
        <time>2019-12-29T08:50:24Z</time>
      </trkpt>
      <trkpt lat="37.7317180764" lon="-8.6935647950">
        <ele>273.15</ele>
        <time>2019-12-29T08:50:32Z</time>
      </trkpt>
      <trkpt lat="37.7317692898" lon="-8.6936378013">
        <ele>271.71</ele>
        <time>2019-12-29T08:50:38Z</time>
      </trkpt>
      <trkpt lat="37.7318663523" lon="-8.6937406473">
        <ele>268.83</ele>
        <time>2019-12-29T08:50:51Z</time>
      </trkpt>
      <trkpt lat="37.7318832837" lon="-8.6937804613">
        <ele>268.35</ele>
        <time>2019-12-29T08:50:54Z</time>
      </trkpt>
      <trkpt lat="37.7319358382" lon="-8.6938962154">
        <ele>266.42</ele>
        <time>2019-12-29T08:51:02Z</time>
      </trkpt>
      <trkpt lat="37.7319399454" lon="-8.6940366123">
        <ele>264.50</ele>
        <time>2019-12-29T08:51:10Z</time>
      </trkpt>
      <trkpt lat="37.7319469862" lon="-8.6940623447">
        <ele>264.02</ele>
        <time>2019-12-29T08:51:13Z</time>
      </trkpt>
      <trkpt lat="37.7319655940" lon="-8.6940971296">
        <ele>263.54</ele>
        <time>2019-12-29T08:51:15Z</time>
      </trkpt>
      <trkpt lat="37.7320329845" lon="-8.6942568049">
        <ele>260.65</ele>
        <time>2019-12-29T08:51:27Z</time>
      </trkpt>
      <trkpt lat="37.7320580464" lon="-8.6942918412">
        <ele>260.17</ele>
        <time>2019-12-29T08:51:30Z</time>
      </trkpt>
      <trkpt lat="37.7321117744" lon="-8.6944454815">
        <ele>257.29</ele>
        <time>2019-12-29T08:51:40Z</time>
      </trkpt>
      <trkpt lat="37.7321256883" lon="-8.6944820266">
        <ele>257.29</ele>
        <time>2019-12-29T08:51:43Z</time>
      </trkpt>
      <trkpt lat="37.7321402729" lon="-8.6945526861">
        <ele>255.37</ele>
        <time>2019-12-29T08:51:47Z</time>
      </trkpt>
      <trkpt lat="37.7321702801" lon="-8.6946822703">
        <ele>252.96</ele>
        <time>2019-12-29T08:51:56Z</time>
      </trkpt>
      <trkpt lat="37.7321861219" lon="-8.6947205756">
        <ele>252.00</ele>
        <time>2019-12-29T08:51:59Z</time>
      </trkpt>
      <trkpt lat="37.7322592121" lon="-8.6949352361">
        <ele>248.16</ele>
        <time>2019-12-29T08:52:14Z</time>
      </trkpt>
      <trkpt lat="37.7323316317" lon="-8.6951308697">
        <ele>245.27</ele>
        <time>2019-12-29T08:52:28Z</time>
      </trkpt>
      <trkpt lat="37.7324158698" lon="-8.6953233182">
        <ele>243.35</ele>
        <time>2019-12-29T08:52:42Z</time>
      </trkpt>
      <trkpt lat="37.7324325498" lon="-8.6953509785">
        <ele>242.87</ele>
        <time>2019-12-29T08:52:44Z</time>
      </trkpt>
      <trkpt lat="37.7325076517" lon="-8.6955694109">
        <ele>239.99</ele>
        <time>2019-12-29T08:53:00Z</time>
      </trkpt>
      <trkpt lat="37.7325411793" lon="-8.6957128253">
        <ele>237.58</ele>
        <time>2019-12-29T08:53:10Z</time>
      </trkpt>
      <trkpt lat="37.7325539198" lon="-8.6957541481">
        <ele>237.58</ele>
        <time>2019-12-29T08:53:13Z</time>
      </trkpt>
      <trkpt lat="37.7325563505" lon="-8.6958502885">
        <ele>236.14</ele>
        <time>2019-12-29T08:53:19Z</time>
      </trkpt>
      <trkpt lat="37.7325952426" lon="-8.6960044317">
        <ele>237.10</ele>
        <time>2019-12-29T08:53:32Z</time>
      </trkpt>
      <trkpt lat="37.7326006070" lon="-8.6960473470">
        <ele>235.18</ele>
        <time>2019-12-29T08:53:35Z</time>
      </trkpt>
      <trkpt lat="37.7326047979" lon="-8.6961148214">
        <ele>233.26</ele>
        <time>2019-12-29T08:53:40Z</time>
      </trkpt>
      <trkpt lat="37.7326157782" lon="-8.6961785238">
        <ele>232.30</ele>
        <time>2019-12-29T08:53:45Z</time>
      </trkpt>
      <trkpt lat="37.7327322867" lon="-8.6963493470">
        <ele>229.89</ele>
        <time>2019-12-29T08:54:00Z</time>
      </trkpt>
      <trkpt lat="37.7327971626" lon="-8.6965069268">
        <ele>227.97</ele>
        <time>2019-12-29T08:54:13Z</time>
      </trkpt>
      <trkpt lat="37.7328196261" lon="-8.6965536140">
        <ele>227.01</ele>
        <time>2019-12-29T08:54:17Z</time>
      </trkpt>
      <trkpt lat="37.7328277566" lon="-8.6965807714">
        <ele>226.53</ele>
        <time>2019-12-29T08:54:19Z</time>
      </trkpt>
      <trkpt lat="37.7328326181" lon="-8.6966306437">
        <ele>225.57</ele>
        <time>2019-12-29T08:54:23Z</time>
      </trkpt>
      <trkpt lat="37.7328711748" lon="-8.6967583001">
        <ele>223.64</ele>
        <time>2019-12-29T08:54:32Z</time>
      </trkpt>
      <trkpt lat="37.7328908723" lon="-8.6968108546">
        <ele>221.72</ele>
        <time>2019-12-29T08:54:36Z</time>
      </trkpt>
      <trkpt lat="37.7329402417" lon="-8.6969098449">
        <ele>220.76</ele>
        <time>2019-12-29T08:54:43Z</time>
      </trkpt>
      <trkpt lat="37.7330298442" lon="-8.6970526725">
        <ele>218.36</ele>
        <time>2019-12-29T08:54:54Z</time>
      </trkpt>
      <trkpt lat="37.7330392320" lon="-8.6970770638">
        <ele>217.88</ele>
        <time>2019-12-29T08:54:56Z</time>
      </trkpt>
      <trkpt lat="37.7330827340" lon="-8.6971391737">
        <ele>216.43</ele>
        <time>2019-12-29T08:55:01Z</time>
      </trkpt>
      <trkpt lat="37.7331062034" lon="-8.6971815024">
        <ele>215.95</ele>
        <time>2019-12-29T08:55:05Z</time>
      </trkpt>
      <trkpt lat="37.7331548184" lon="-8.6972424388">
        <ele>214.99</ele>
        <time>2019-12-29T08:55:11Z</time>
      </trkpt>
      <trkpt lat="37.7332434151" lon="-8.6974006053">
        <ele>211.63</ele>
        <time>2019-12-29T08:55:24Z</time>
      </trkpt>
      <trkpt lat="37.7332642861" lon="-8.6974317860">
        <ele>211.63</ele>
        <time>2019-12-29T08:55:27Z</time>
      </trkpt>
      <trkpt lat="37.7332783677" lon="-8.6974531598">
        <ele>210.67</ele>
        <time>2019-12-29T08:55:29Z</time>
      </trkpt>
      <trkpt lat="37.7334010787" lon="-8.6976194568">
        <ele>208.74</ele>
        <time>2019-12-29T08:55:43Z</time>
      </trkpt>
      <trkpt lat="37.7334475145" lon="-8.6976784654">
        <ele>207.30</ele>
        <time>2019-12-29T08:55:49Z</time>
      </trkpt>
      <trkpt lat="37.7335498575" lon="-8.6977736838">
        <ele>204.42</ele>
        <time>2019-12-29T08:56:00Z</time>
      </trkpt>
      <trkpt lat="37.7336893324" lon="-8.6978807207">
        <ele>201.53</ele>
        <time>2019-12-29T08:56:13Z</time>
      </trkpt>
      <trkpt lat="37.7337688766" lon="-8.6979395617">
        <ele>199.61</ele>
        <time>2019-12-29T08:56:21Z</time>
      </trkpt>
      <trkpt lat="37.7339266241" lon="-8.6980051920">
        <ele>197.21</ele>
        <time>2019-12-29T08:56:34Z</time>
      </trkpt>
      <trkpt lat="37.7339811064" lon="-8.6980300862">
        <ele>195.77</ele>
        <time>2019-12-29T08:56:40Z</time>
      </trkpt>
      <trkpt lat="37.7341469005" lon="-8.6981249694">
        <ele>193.84</ele>
        <time>2019-12-29T08:56:54Z</time>
      </trkpt>
      <trkpt lat="37.7342256904" lon="-8.6981955450">
        <ele>191.92</ele>
        <time>2019-12-29T08:57:02Z</time>
      </trkpt>
      <trkpt lat="37.7342612296" lon="-8.6982412264">
        <ele>190.96</ele>
        <time>2019-12-29T08:57:06Z</time>
      </trkpt>
      <trkpt lat="37.7343266923" lon="-8.6982858181">
        <ele>190.00</ele>
        <time>2019-12-29T08:57:12Z</time>
      </trkpt>
      <trkpt lat="37.7343942504" lon="-8.6983567290">
        <ele>188.56</ele>
        <time>2019-12-29T08:57:21Z</time>
      </trkpt>
      <trkpt lat="37.7345538419" lon="-8.6984769255">
        <ele>185.19</ele>
        <time>2019-12-29T08:57:35Z</time>
      </trkpt>
      <trkpt lat="37.7346459590" lon="-8.6985380296">
        <ele>183.75</ele>
        <time>2019-12-29T08:57:43Z</time>
      </trkpt>
      <trkpt lat="37.7346712723" lon="-8.6985676177">
        <ele>183.27</ele>
        <time>2019-12-29T08:57:46Z</time>
      </trkpt>
      <trkpt lat="37.7348400000" lon="-8.6986289732">
        <ele>180.87</ele>
        <time>2019-12-29T08:58:00Z</time>
      </trkpt>
      <trkpt lat="37.7348947339" lon="-8.6986484192">
        <ele>178.94</ele>
        <time>2019-12-29T08:58:06Z</time>
      </trkpt>
      <trkpt lat="37.7349390741" lon="-8.6986687873">
        <ele>177.98</ele>
        <time>2019-12-29T08:58:10Z</time>
      </trkpt>
      <trkpt lat="37.7349885274" lon="-8.6986955255">
        <ele>177.50</ele>
        <time>2019-12-29T08:58:14Z</time>
      </trkpt>
      <trkpt lat="37.7350144275" lon="-8.6987230182">
        <ele>176.54</ele>
        <time>2019-12-29T08:58:17Z</time>
      </trkpt>
      <trkpt lat="37.7351476997" lon="-8.6988691147">
        <ele>175.10</ele>
        <time>2019-12-29T08:58:31Z</time>
      </trkpt>
      <trkpt lat="37.7352248132" lon="-8.6989457253">
        <ele>173.66</ele>
        <time>2019-12-29T08:58:40Z</time>
      </trkpt>
      <trkpt lat="37.7353412379" lon="-8.6991247628">
        <ele>171.73</ele>
        <time>2019-12-29T08:58:54Z</time>
      </trkpt>
      <trkpt lat="37.7353580017" lon="-8.6991430353">
        <ele>171.73</ele>
        <time>2019-12-29T08:58:56Z</time>
      </trkpt>
      <trkpt lat="37.7353694849" lon="-8.6991834361">
        <ele>171.25</ele>
        <time>2019-12-29T08:58:59Z</time>
      </trkpt>
      <trkpt lat="37.7354202792" lon="-8.6994151119">
        <ele>168.85</ele>
        <time>2019-12-29T08:59:14Z</time>
      </trkpt>
      <trkpt lat="37.7354585007" lon="-8.6995046306">
        <ele>168.37</ele>
        <time>2019-12-29T08:59:20Z</time>
      </trkpt>
      <trkpt lat="37.7354760189" lon="-8.6995281000">
        <ele>168.37</ele>
        <time>2019-12-29T08:59:22Z</time>
      </trkpt>
      <trkpt lat="37.7355496120" lon="-8.6997026112">
        <ele>167.41</ele>
        <time>2019-12-29T08:59:34Z</time>
      </trkpt>
      <trkpt lat="37.7355034277" lon="-8.6998397391">
        <ele>166.45</ele>
        <time>2019-12-29T08:59:44Z</time>
      </trkpt>
      <trkpt lat="37.7354295831" lon="-8.6999603547">
        <ele>165.96</ele>
        <time>2019-12-29T08:59:54Z</time>
      </trkpt>
      <trkpt lat="37.7354053594" lon="-8.6999994144">
        <ele>165.96</ele>
        <time>2019-12-29T08:59:57Z</time>
      </trkpt>
      <trkpt lat="37.7353828959" lon="-8.7000332773">
        <ele>165.48</ele>
        <time>2019-12-29T09:00:00Z</time>
      </trkpt>
      <trkpt lat="37.7353130747" lon="-8.7002694793">
        <ele>163.56</ele>
        <time>2019-12-29T09:00:17Z</time>
      </trkpt>
      <trkpt lat="37.7352942154" lon="-8.7004437391">
        <ele>163.08</ele>
        <time>2019-12-29T09:00:30Z</time>
      </trkpt>
      <trkpt lat="37.7352787927" lon="-8.7004701421">
        <ele>163.08</ele>
        <time>2019-12-29T09:00:33Z</time>
      </trkpt>
      <trkpt lat="37.7352657169" lon="-8.7004787754">
        <ele>162.60</ele>
        <time>2019-12-29T09:00:35Z</time>
      </trkpt>
      <trkpt lat="37.7352623641" lon="-8.7006910052">
        <ele>161.16</ele>
        <time>2019-12-29T09:00:45Z</time>
      </trkpt>
      <trkpt lat="37.7352440916" lon="-8.7007003929">
        <ele>160.68</ele>
        <time>2019-12-29T09:00:49Z</time>
      </trkpt>
      <trkpt lat="37.7352290042" lon="-8.7007613294">
        <ele>160.68</ele>
        <time>2019-12-29T09:00:54Z</time>
      </trkpt>
      <trkpt lat="37.7352336980" lon="-8.7009964418">
        <ele>159.72</ele>
        <time>2019-12-29T09:01:08Z</time>
      </trkpt>
      <trkpt lat="37.7352068760" lon="-8.7011119444">
        <ele>159.24</ele>
        <time>2019-12-29T09:01:15Z</time>
      </trkpt>
      <trkpt lat="37.7351834066" lon="-8.7013409380">
        <ele>158.75</ele>
        <time>2019-12-29T09:01:31Z</time>
      </trkpt>
      <trkpt lat="37.7351650503" lon="-8.7014888786">
        <ele>157.79</ele>
        <time>2019-12-29T09:01:40Z</time>
      </trkpt>
      <trkpt lat="37.7352264058" lon="-8.7017443590">
        <ele>156.35</ele>
        <time>2019-12-29T09:01:56Z</time>
      </trkpt>
      <trkpt lat="37.7352364641" lon="-8.7017888669">
        <ele>156.35</ele>
        <time>2019-12-29T09:01:59Z</time>
      </trkpt>
      <trkpt lat="37.7352712490" lon="-8.7018903717">
        <ele>155.87</ele>
        <time>2019-12-29T09:02:06Z</time>
      </trkpt>
      <trkpt lat="37.7353105601" lon="-8.7019936368">
        <ele>155.39</ele>
        <time>2019-12-29T09:02:12Z</time>
      </trkpt>
      <trkpt lat="37.7353652939" lon="-8.7022282463">
        <ele>153.95</ele>
        <time>2019-12-29T09:02:27Z</time>
      </trkpt>
      <trkpt lat="37.7353199478" lon="-8.7023982313">
        <ele>152.99</ele>
        <time>2019-12-29T09:02:39Z</time>
      </trkpt>
      <trkpt lat="37.7352621127" lon="-8.7026214413">
        <ele>151.06</ele>
        <time>2019-12-29T09:02:53Z</time>
      </trkpt>
      <trkpt lat="37.7352568321" lon="-8.7027657777">
        <ele>150.58</ele>
        <time>2019-12-29T09:03:02Z</time>
      </trkpt>
      <trkpt lat="37.7352879290" lon="-8.7028628401">
        <ele>150.10</ele>
        <time>2019-12-29T09:03:09Z</time>
      </trkpt>
      <trkpt lat="37.7354055271" lon="-8.7030224316">
        <ele>150.58</ele>
        <time>2019-12-29T09:03:24Z</time>
      </trkpt>
      <trkpt lat="37.7354247216" lon="-8.7030454818">
        <ele>150.58</ele>
        <time>2019-12-29T09:03:26Z</time>
      </trkpt>
      <trkpt lat="37.7355005778" lon="-8.7032171432">
        <ele>150.58</ele>
        <time>2019-12-29T09:03:40Z</time>
      </trkpt>
      <trkpt lat="37.7355365362" lon="-8.7032816000">
        <ele>149.62</ele>
        <time>2019-12-29T09:03:44Z</time>
      </trkpt>
      <trkpt lat="37.7355563175" lon="-8.7033429556">
        <ele>149.62</ele>
        <time>2019-12-29T09:03:49Z</time>
      </trkpt>
      <trkpt lat="37.7355698124" lon="-8.7033810094">
        <ele>149.14</ele>
        <time>2019-12-29T09:03:52Z</time>
      </trkpt>
      <trkpt lat="37.7356260549" lon="-8.7034750544">
        <ele>148.66</ele>
        <time>2019-12-29T09:04:00Z</time>
      </trkpt>
      <trkpt lat="37.7356692217" lon="-8.7035167962">
        <ele>148.66</ele>
        <time>2019-12-29T09:04:04Z</time>
      </trkpt>
      <trkpt lat="37.7357322536" lon="-8.7037151959">
        <ele>148.18</ele>
        <time>2019-12-29T09:04:19Z</time>
      </trkpt>
      <trkpt lat="37.7357314155" lon="-8.7037524953">
        <ele>147.70</ele>
        <time>2019-12-29T09:04:22Z</time>
      </trkpt>
      <trkpt lat="37.7357218601" lon="-8.7038678303">
        <ele>146.74</ele>
        <time>2019-12-29T09:04:29Z</time>
      </trkpt>
      <trkpt lat="37.7357426472" lon="-8.7039664015">
        <ele>145.78</ele>
        <time>2019-12-29T09:04:35Z</time>
      </trkpt>
      <trkpt lat="37.7357605007" lon="-8.7040127534">
        <ele>145.78</ele>
        <time>2019-12-29T09:04:38Z</time>
      </trkpt>
      <trkpt lat="37.7357853949" lon="-8.7042775378">
        <ele>144.82</ele>
        <time>2019-12-29T09:04:53Z</time>
      </trkpt>
      <trkpt lat="37.7358083613" lon="-8.7043286674">
        <ele>144.34</ele>
        <time>2019-12-29T09:04:57Z</time>
      </trkpt>
      <trkpt lat="37.7358113788" lon="-8.7044316810">
        <ele>143.85</ele>
        <time>2019-12-29T09:05:03Z</time>
      </trkpt>
      <trkpt lat="37.7358237840" lon="-8.7044937070">
        <ele>143.85</ele>
        <time>2019-12-29T09:05:07Z</time>
      </trkpt>
      <trkpt lat="37.7358277235" lon="-8.7045648694">
        <ele>142.89</ele>
        <time>2019-12-29T09:05:12Z</time>
      </trkpt>
      <trkpt lat="37.7358555514" lon="-8.7046671286">
        <ele>142.89</ele>
        <time>2019-12-29T09:05:18Z</time>
      </trkpt>
      <trkpt lat="37.7359633427" lon="-8.7048656121">
        <ele>141.93</ele>
        <time>2019-12-29T09:05:32Z</time>
      </trkpt>
      <trkpt lat="37.7360574715" lon="-8.7050225213">
        <ele>140.97</ele>
        <time>2019-12-29T09:05:45Z</time>
      </trkpt>
      <trkpt lat="37.7360650990" lon="-8.7050319090">
        <ele>141.45</ele>
        <time>2019-12-29T09:05:46Z</time>
      </trkpt>
      <trkpt lat="37.7361115348" lon="-8.7051304802">
        <ele>140.49</ele>
        <time>2019-12-29T09:05:54Z</time>
      </trkpt>
      <trkpt lat="37.7361207549" lon="-8.7051612418">
        <ele>140.49</ele>
        <time>2019-12-29T09:05:56Z</time>
      </trkpt>
      <trkpt lat="37.7361485828" lon="-8.7052369304">
        <ele>140.01</ele>
        <time>2019-12-29T09:06:02Z</time>
      </trkpt>
      <trkpt lat="37.7362146322" lon="-8.7053852063">
        <ele>139.53</ele>
        <time>2019-12-29T09:06:12Z</time>
      </trkpt>
      <trkpt lat="37.7362246905" lon="-8.7053924147">
        <ele>139.05</ele>
        <time>2019-12-29T09:06:13Z</time>
      </trkpt>
      <trkpt lat="37.7363007143" lon="-8.7053597253">
        <ele>139.05</ele>
        <time>2019-12-29T09:06:17Z</time>
      </trkpt>
      <trkpt lat="37.7363108564" lon="-8.7054093461">
        <ele>139.05</ele>
        <time>2019-12-29T09:06:19Z</time>
      </trkpt>
      <trkpt lat="37.7363386843" lon="-8.7055230048">
        <ele>138.57</ele>
        <time>2019-12-29T09:06:26Z</time>
      </trkpt>
      <trkpt lat="37.7363841981" lon="-8.7056329753">
        <ele>137.13</ele>
        <time>2019-12-29T09:06:34Z</time>
      </trkpt>
      <trkpt lat="37.7365116868" lon="-8.7057260983">
        <ele>136.64</ele>
        <time>2019-12-29T09:06:46Z</time>
      </trkpt>
      <trkpt lat="37.7365990262" lon="-8.7057676725">
        <ele>137.13</ele>
        <time>2019-12-29T09:06:53Z</time>
      </trkpt>
      <trkpt lat="37.7366609685" lon="-8.7057995237">
        <ele>137.13</ele>
        <time>2019-12-29T09:06:58Z</time>
      </trkpt>
      <trkpt lat="37.7367073204" lon="-8.7058259267">
        <ele>137.13</ele>
        <time>2019-12-29T09:07:02Z</time>
      </trkpt>
      <trkpt lat="37.7368224878" lon="-8.7059392501">
        <ele>137.61</ele>
        <time>2019-12-29T09:07:13Z</time>
      </trkpt>
      <trkpt lat="37.7368479688" lon="-8.7059743702">
        <ele>137.13</ele>
        <time>2019-12-29T09:07:16Z</time>
      </trkpt>
      <trkpt lat="37.7369754575" lon="-8.7060683314">
        <ele>136.64</ele>
        <time>2019-12-29T09:07:29Z</time>
      </trkpt>
      <trkpt lat="37.7370871883" lon="-8.7061469536">
        <ele>136.64</ele>
        <time>2019-12-29T09:07:40Z</time>
      </trkpt>
      <trkpt lat="37.7370962407" lon="-8.7061581854">
        <ele>136.16</ele>
        <time>2019-12-29T09:07:41Z</time>
      </trkpt>
      <trkpt lat="37.7372083906" lon="-8.7062486261">
        <ele>134.72</ele>
        <time>2019-12-29T09:07:51Z</time>
      </trkpt>
      <trkpt lat="37.7373234741" lon="-8.7063974887">
        <ele>132.80</ele>
        <time>2019-12-29T09:08:04Z</time>
      </trkpt>
      <trkpt lat="37.7373454347" lon="-8.7064140849">
        <ele>132.80</ele>
        <time>2019-12-29T09:08:06Z</time>
      </trkpt>
      <trkpt lat="37.7373850811" lon="-8.7064589281">
        <ele>131.36</ele>
        <time>2019-12-29T09:08:11Z</time>
      </trkpt>
      <trkpt lat="37.7374945488" lon="-8.7065742631">
        <ele>128.47</ele>
        <time>2019-12-29T09:08:23Z</time>
      </trkpt>
      <trkpt lat="37.7375709917" lon="-8.7066550646">
        <ele>127.51</ele>
        <time>2019-12-29T09:08:31Z</time>
      </trkpt>
      <trkpt lat="37.7377245482" lon="-8.7067938689">
        <ele>124.15</ele>
        <time>2019-12-29T09:08:46Z</time>
      </trkpt>
      <trkpt lat="37.7378739975" lon="-8.7069292367">
        <ele>121.74</ele>
        <time>2019-12-29T09:09:01Z</time>
      </trkpt>
      <trkpt lat="37.7379665338" lon="-8.7070441525">
        <ele>119.34</ele>
        <time>2019-12-29T09:09:12Z</time>
      </trkpt>
      <trkpt lat="37.7380659431" lon="-8.7072308175">
        <ele>117.42</ele>
        <time>2019-12-29T09:09:27Z</time>
      </trkpt>
      <trkpt lat="37.7380693797" lon="-8.7072435580">
        <ele>117.42</ele>
        <time>2019-12-29T09:09:28Z</time>
      </trkpt>
      <trkpt lat="37.7381316572" lon="-8.7074151356">
        <ele>115.50</ele>
        <time>2019-12-29T09:09:39Z</time>
      </trkpt>
      <trkpt lat="37.7381561324" lon="-8.7074618228">
        <ele>115.01</ele>
        <time>2019-12-29T09:09:43Z</time>
      </trkpt>
      <trkpt lat="37.7382013109" lon="-8.7076335680">
        <ele>113.57</ele>
        <time>2019-12-29T09:09:55Z</time>
      </trkpt>
      <trkpt lat="37.7382298931" lon="-8.7076750584">
        <ele>113.09</ele>
        <time>2019-12-29T09:09:59Z</time>
      </trkpt>
      <trkpt lat="37.7382855490" lon="-8.7076681014">
        <ele>112.61</ele>
        <time>2019-12-29T09:10:03Z</time>
      </trkpt>
      <trkpt lat="37.7383491676" lon="-8.7076090090">
        <ele>112.61</ele>
        <time>2019-12-29T09:10:10Z</time>
      </trkpt>
      <trkpt lat="37.7383914124" lon="-8.7075727992">
        <ele>112.61</ele>
        <time>2019-12-29T09:10:14Z</time>
      </trkpt>
      <trkpt lat="37.7384660952" lon="-8.7075176463">
        <ele>113.57</ele>
        <time>2019-12-29T09:10:21Z</time>
      </trkpt>
      <trkpt lat="37.7385744732" lon="-8.7074774131">
        <ele>113.57</ele>
        <time>2019-12-29T09:10:30Z</time>
      </trkpt>
      <trkpt lat="37.7387295384" lon="-8.7074449752">
        <ele>114.53</ele>
        <time>2019-12-29T09:10:42Z</time>
      </trkpt>
      <trkpt lat="37.7388189733" lon="-8.7074131239">
        <ele>115.01</ele>
        <time>2019-12-29T09:10:50Z</time>
      </trkpt>
      <trkpt lat="37.7389304526" lon="-8.7073913310">
        <ele>115.01</ele>
        <time>2019-12-29T09:11:00Z</time>
      </trkpt>
      <trkpt lat="37.7389778104" lon="-8.7074000482">
        <ele>115.50</ele>
        <time>2019-12-29T09:11:05Z</time>
      </trkpt>
      <trkpt lat="37.7390247490" lon="-8.7074068375">
        <ele>115.01</ele>
        <time>2019-12-29T09:11:09Z</time>
      </trkpt>
      <trkpt lat="37.7391550038" lon="-8.7074983679">
        <ele>114.05</ele>
        <time>2019-12-29T09:11:21Z</time>
      </trkpt>
      <trkpt lat="37.7392153535" lon="-8.7075664289">
        <ele>114.05</ele>
        <time>2019-12-29T09:11:28Z</time>
      </trkpt>
      <trkpt lat="37.7393107396" lon="-8.7077327259">
        <ele>114.53</ele>
        <time>2019-12-29T09:11:41Z</time>
      </trkpt>
      <trkpt lat="37.7394083887" lon="-8.7078395952">
        <ele>113.09</ele>
        <time>2019-12-29T09:11:52Z</time>
      </trkpt>
      <trkpt lat="37.7395746857" lon="-8.7079421896">
        <ele>112.61</ele>
        <time>2019-12-29T09:12:07Z</time>
      </trkpt>
      <trkpt lat="37.7397130709" lon="-8.7079687603">
        <ele>112.13</ele>
        <time>2019-12-29T09:12:18Z</time>
      </trkpt>
      <trkpt lat="37.7397991531" lon="-8.7079337239">
        <ele>112.13</ele>
        <time>2019-12-29T09:12:25Z</time>
      </trkpt>
      <trkpt lat="37.7399117220" lon="-8.7078741286">
        <ele>111.17</ele>
        <time>2019-12-29T09:12:34Z</time>
      </trkpt>
      <trkpt lat="37.7399843093" lon="-8.7078023795">
        <ele>111.17</ele>
        <time>2019-12-29T09:12:41Z</time>
      </trkpt>
      <trkpt lat="37.7400262188" lon="-8.7077235058">
        <ele>110.69</ele>
        <time>2019-12-29T09:12:47Z</time>
      </trkpt>
      <trkpt lat="37.7400563098" lon="-8.7076604739">
        <ele>110.21</ele>
        <time>2019-12-29T09:12:52Z</time>
      </trkpt>
      <trkpt lat="37.7400670387" lon="-8.7076214980">
        <ele>109.73</ele>
        <time>2019-12-29T09:12:55Z</time>
      </trkpt>
      <trkpt lat="37.7400890831" lon="-8.7074839510">
        <ele>108.77</ele>
        <time>2019-12-29T09:13:06Z</time>
      </trkpt>
      <trkpt lat="37.7400792763" lon="-8.7074562907">
        <ele>108.77</ele>
        <time>2019-12-29T09:13:22Z</time>
      </trkpt>
      <trkpt lat="37.7400774322" lon="-8.7074568775">
        <ele>109.25</ele>
        <time>2019-12-29T09:13:54Z</time>
      </trkpt>
      <trkpt lat="37.7400800306" lon="-8.7074562069">
        <ele>109.25</ele>
        <time>2019-12-29T09:14:11Z</time>
      </trkpt>
      <trkpt lat="37.7400674578" lon="-8.7074456457">
        <ele>108.29</ele>
        <time>2019-12-29T09:14:15Z</time>
      </trkpt>
      <trkpt lat="37.7400806174" lon="-8.7074188236">
        <ele>108.29</ele>
        <time>2019-12-29T09:14:18Z</time>
      </trkpt>
      <trkpt lat="37.7400916815" lon="-8.7072309852">
        <ele>108.29</ele>
        <time>2019-12-29T09:14:31Z</time>
      </trkpt>
      <trkpt lat="37.7401186712" lon="-8.7071463279">
        <ele>107.32</ele>
        <time>2019-12-29T09:14:37Z</time>
      </trkpt>
      <trkpt lat="37.7401292324" lon="-8.7070945278">
        <ele>106.84</ele>
        <time>2019-12-29T09:14:41Z</time>
      </trkpt>
      <trkpt lat="37.7402055077" lon="-8.7070332561">
        <ele>105.88</ele>
        <time>2019-12-29T09:14:49Z</time>
      </trkpt>
      <trkpt lat="37.7403648477" lon="-8.7070113793">
        <ele>107.81</ele>
        <time>2019-12-29T09:15:02Z</time>
      </trkpt>
      <trkpt lat="37.7403785102" lon="-8.7070094515">
        <ele>107.81</ele>
        <time>2019-12-29T09:15:03Z</time>
      </trkpt>
      <trkpt lat="37.7404023148" lon="-8.7070040870">
        <ele>107.32</ele>
        <time>2019-12-29T09:15:05Z</time>
      </trkpt>
      <trkpt lat="37.7404278796" lon="-8.7070107926">
        <ele>107.81</ele>
        <time>2019-12-29T09:15:07Z</time>
      </trkpt>
      <trkpt lat="37.7404533606" lon="-8.7070055120">
        <ele>107.81</ele>
        <time>2019-12-29T09:15:10Z</time>
      </trkpt>
      <trkpt lat="37.7405077592" lon="-8.7070134748">
        <ele>107.81</ele>
        <time>2019-12-29T09:15:15Z</time>
      </trkpt>
      <trkpt lat="37.7405634988" lon="-8.7070304062">
        <ele>108.29</ele>
        <time>2019-12-29T09:15:21Z</time>
      </trkpt>
      <trkpt lat="37.7406345773" lon="-8.7070518639">
        <ele>109.25</ele>
        <time>2019-12-29T09:15:26Z</time>
      </trkpt>
      <trkpt lat="37.7407169715" lon="-8.7070926838">
        <ele>109.25</ele>
        <time>2019-12-29T09:15:33Z</time>
      </trkpt>
      <trkpt lat="37.7407795843" lon="-8.7071000598">
        <ele>110.21</ele>
        <time>2019-12-29T09:15:38Z</time>
      </trkpt>
      <trkpt lat="37.7408029698" lon="-8.7071087770">
        <ele>110.21</ele>
        <time>2019-12-29T09:15:40Z</time>
      </trkpt>
      <trkpt lat="37.7408479806" lon="-8.7071011495">
        <ele>109.73</ele>
        <time>2019-12-29T09:15:44Z</time>
      </trkpt>
      <trkpt lat="37.7408669237" lon="-8.7071006466">
        <ele>109.73</ele>
        <time>2019-12-29T09:15:46Z</time>
      </trkpt>
      <trkpt lat="37.7409140300" lon="-8.7070953660">
        <ele>109.73</ele>
        <time>2019-12-29T09:15:50Z</time>
      </trkpt>
      <trkpt lat="37.7409501560" lon="-8.7070889119">
        <ele>109.73</ele>
        <time>2019-12-29T09:15:53Z</time>
      </trkpt>
      <trkpt lat="37.7410898823" lon="-8.7070770934">
        <ele>110.69</ele>
        <time>2019-12-29T09:16:03Z</time>
      </trkpt>
      <trkpt lat="37.7412217297" lon="-8.7070605811">
        <ele>112.13</ele>
        <time>2019-12-29T09:16:13Z</time>
      </trkpt>
      <trkpt lat="37.7412738651" lon="-8.7070621736">
        <ele>112.13</ele>
        <time>2019-12-29T09:16:17Z</time>
      </trkpt>
      <trkpt lat="37.7413476259" lon="-8.7070470024">
        <ele>111.65</ele>
        <time>2019-12-29T09:16:23Z</time>
      </trkpt>
      <trkpt lat="37.7413835004" lon="-8.7070374470">
        <ele>111.65</ele>
        <time>2019-12-29T09:16:26Z</time>
      </trkpt>
      <trkpt lat="37.7414425090" lon="-8.7070221081">
        <ele>111.65</ele>
        <time>2019-12-29T09:16:31Z</time>
      </trkpt>
      <trkpt lat="37.7414648887" lon="-8.7070143130">
        <ele>112.13</ele>
        <time>2019-12-29T09:16:33Z</time>
      </trkpt>
      <trkpt lat="37.7416001726" lon="-8.7069646083">
        <ele>113.09</ele>
        <time>2019-12-29T09:16:45Z</time>
      </trkpt>
      <trkpt lat="37.7416932117" lon="-8.7069456652">
        <ele>113.57</ele>
        <time>2019-12-29T09:16:53Z</time>
      </trkpt>
      <trkpt lat="37.7417637873" lon="-8.7069501914">
        <ele>113.09</ele>
        <time>2019-12-29T09:16:58Z</time>
      </trkpt>
      <trkpt lat="37.7418605145" lon="-8.7069440726">
        <ele>113.57</ele>
        <time>2019-12-29T09:17:06Z</time>
      </trkpt>
      <trkpt lat="37.7418924496" lon="-8.7069305778">
        <ele>113.57</ele>
        <time>2019-12-29T09:17:09Z</time>
      </trkpt>
      <trkpt lat="37.7419419866" lon="-8.7069247942">
        <ele>113.57</ele>
        <time>2019-12-29T09:17:13Z</time>
      </trkpt>
      <trkpt lat="37.7419770230" lon="-8.7069163285">
        <ele>113.57</ele>
        <time>2019-12-29T09:17:18Z</time>
      </trkpt>
      <trkpt lat="37.7420185972" lon="-8.7069055159">
        <ele>113.09</ele>
        <time>2019-12-29T09:17:22Z</time>
      </trkpt>
      <trkpt lat="37.7421661187" lon="-8.7068920210">
        <ele>113.09</ele>
        <time>2019-12-29T09:17:34Z</time>
      </trkpt>
      <trkpt lat="37.7422052622" lon="-8.7068875786">
        <ele>113.09</ele>
        <time>2019-12-29T09:17:37Z</time>
      </trkpt>
      <trkpt lat="37.7423664462" lon="-8.7068399694">
        <ele>113.57</ele>
        <time>2019-12-29T09:17:51Z</time>
      </trkpt>
      <trkpt lat="37.7423902508" lon="-8.7068374548">
        <ele>112.61</ele>
        <time>2019-12-29T09:17:53Z</time>
      </trkpt>
      <trkpt lat="37.7424178272" lon="-8.7068244629">
        <ele>113.57</ele>
        <time>2019-12-29T09:18:07Z</time>
      </trkpt>
      <trkpt lat="37.7424178272" lon="-8.7068244629">
        <ele>113.57</ele>
        <time>2019-12-29T09:18:12Z</time>
      </trkpt>
      <trkpt lat="37.7424423862" lon="-8.7068068609">
        <ele>112.61</ele>
        <time>2019-12-29T09:18:23Z</time>
      </trkpt>
      <trkpt lat="37.7425921708" lon="-8.7067676336">
        <ele>113.09</ele>
        <time>2019-12-29T09:18:35Z</time>
      </trkpt>
      <trkpt lat="37.7426165622" lon="-8.7067584135">
        <ele>113.09</ele>
        <time>2019-12-29T09:18:37Z</time>
      </trkpt>
      <trkpt lat="37.7427267842" lon="-8.7066838145">
        <ele>113.09</ele>
        <time>2019-12-29T09:18:47Z</time>
      </trkpt>
      <trkpt lat="37.7428385150" lon="-8.7066070363">
        <ele>113.57</ele>
        <time>2019-12-29T09:18:57Z</time>
      </trkpt>
      <trkpt lat="37.7429427020" lon="-8.7065562420">
        <ele>114.05</ele>
        <time>2019-12-29T09:19:06Z</time>
      </trkpt>
      <trkpt lat="37.7430172171" lon="-8.7065093033">
        <ele>113.57</ele>
        <time>2019-12-29T09:19:13Z</time>
      </trkpt>
      <trkpt lat="37.7431274392" lon="-8.7064217962">
        <ele>113.09</ele>
        <time>2019-12-29T09:19:24Z</time>
      </trkpt>
      <trkpt lat="37.7431948297" lon="-8.7063754443">
        <ele>114.05</ele>
        <time>2019-12-29T09:19:30Z</time>
      </trkpt>
      <trkpt lat="37.7432271838" lon="-8.7063454371">
        <ele>113.57</ele>
        <time>2019-12-29T09:19:33Z</time>
      </trkpt>
      <trkpt lat="37.7433448657" lon="-8.7062417530">
        <ele>112.13</ele>
        <time>2019-12-29T09:19:45Z</time>
      </trkpt>
      <trkpt lat="37.7434338816" lon="-8.7061585207">
        <ele>112.61</ele>
        <time>2019-12-29T09:19:54Z</time>
      </trkpt>
      <trkpt lat="37.7435554191" lon="-8.7060354743">
        <ele>111.65</ele>
        <time>2019-12-29T09:20:06Z</time>
      </trkpt>
      <trkpt lat="37.7435839176" lon="-8.7060161959">
        <ele>111.17</ele>
        <time>2019-12-29T09:20:08Z</time>
      </trkpt>
      <trkpt lat="37.7436099853" lon="-8.7059898768">
        <ele>112.13</ele>
        <time>2019-12-29T09:20:11Z</time>
      </trkpt>
      <trkpt lat="37.7436396573" lon="-8.7059683353">
        <ele>111.65</ele>
        <time>2019-12-29T09:20:14Z</time>
      </trkpt>
      <trkpt lat="37.7436772920" lon="-8.7059624679">
        <ele>112.13</ele>
        <time>2019-12-29T09:20:17Z</time>
      </trkpt>
      <trkpt lat="37.7438054513" lon="-8.7059073150">
        <ele>111.65</ele>
        <time>2019-12-29T09:20:28Z</time>
      </trkpt>
      <trkpt lat="37.7438645437" lon="-8.7058728654">
        <ele>111.17</ele>
        <time>2019-12-29T09:20:33Z</time>
      </trkpt>
      <trkpt lat="37.7439068723" lon="-8.7058447022">
        <ele>110.69</ele>
        <time>2019-12-29T09:20:37Z</time>
      </trkpt>
      <trkpt lat="37.7440555673" lon="-8.7057688460">
        <ele>110.21</ele>
        <time>2019-12-29T09:20:50Z</time>
      </trkpt>
      <trkpt lat="37.7441723272" lon="-8.7056934088">
        <ele>110.69</ele>
        <time>2019-12-29T09:21:01Z</time>
      </trkpt>
      <trkpt lat="37.7442238759" lon="-8.7056642398">
        <ele>111.65</ele>
        <time>2019-12-29T09:21:06Z</time>
      </trkpt>
      <trkpt lat="37.7443736605" lon="-8.7056220789">
        <ele>112.13</ele>
        <time>2019-12-29T09:21:19Z</time>
      </trkpt>
      <trkpt lat="37.7443979681" lon="-8.7056255154">
        <ele>112.13</ele>
        <time>2019-12-29T09:21:21Z</time>
      </trkpt>
      <trkpt lat="37.7444214374" lon="-8.7056358252">
        <ele>112.61</ele>
        <time>2019-12-29T09:21:23Z</time>
      </trkpt>
      <trkpt lat="37.7444951143" lon="-8.7056417763">
        <ele>112.61</ele>
        <time>2019-12-29T09:21:29Z</time>
      </trkpt>
      <trkpt lat="37.7445441484" lon="-8.7056609709">
        <ele>113.09</ele>
        <time>2019-12-29T09:21:33Z</time>
      </trkpt>
      <trkpt lat="37.7445643488" lon="-8.7056551874">
        <ele>113.09</ele>
        <time>2019-12-29T09:21:35Z</time>
      </trkpt>
      <trkpt lat="37.7445984632" lon="-8.7056516670">
        <ele>113.57</ele>
        <time>2019-12-29T09:21:38Z</time>
      </trkpt>
      <trkpt lat="37.7447334118" lon="-8.7056469731">
        <ele>115.98</ele>
        <time>2019-12-29T09:21:49Z</time>
      </trkpt>
      <trkpt lat="37.7448401973" lon="-8.7056397647">
        <ele>116.46</ele>
        <time>2019-12-29T09:21:59Z</time>
      </trkpt>
      <trkpt lat="37.7448743116" lon="-8.7056327239">
        <ele>115.98</ele>
        <time>2019-12-29T09:22:02Z</time>
      </trkpt>
      <trkpt lat="37.7449564543" lon="-8.7055986095">
        <ele>116.46</ele>
        <time>2019-12-29T09:22:10Z</time>
      </trkpt>
      <trkpt lat="37.7449881379" lon="-8.7055752240">
        <ele>116.46</ele>
        <time>2019-12-29T09:22:13Z</time>
      </trkpt>
      <trkpt lat="37.7450076677" lon="-8.7055598851">
        <ele>116.94</ele>
        <time>2019-12-29T09:22:15Z</time>
      </trkpt>
      <trkpt lat="37.7450315561" lon="-8.7055482343">
        <ele>117.42</ele>
        <time>2019-12-29T09:22:17Z</time>
      </trkpt>
      <trkpt lat="37.7450778242" lon="-8.7055057380">
        <ele>117.90</ele>
        <time>2019-12-29T09:22:23Z</time>
      </trkpt>
      <trkpt lat="37.7451477293" lon="-8.7054494955">
        <ele>117.90</ele>
        <time>2019-12-29T09:22:30Z</time>
      </trkpt>
      <trkpt lat="37.7452084143" lon="-8.7054162193">
        <ele>118.86</ele>
        <time>2019-12-29T09:22:35Z</time>
      </trkpt>
      <trkpt lat="37.7453389205" lon="-8.7053059973">
        <ele>120.78</ele>
        <time>2019-12-29T09:22:46Z</time>
      </trkpt>
      <trkpt lat="37.7453921456" lon="-8.7052161433">
        <ele>120.30</ele>
        <time>2019-12-29T09:22:53Z</time>
      </trkpt>
      <trkpt lat="37.7454338875" lon="-8.7050796021">
        <ele>120.78</ele>
        <time>2019-12-29T09:23:03Z</time>
      </trkpt>
      <trkpt lat="37.7454647329" lon="-8.7049542088">
        <ele>122.22</ele>
        <time>2019-12-29T09:23:12Z</time>
      </trkpt>
      <trkpt lat="37.7454825025" lon="-8.7048268039">
        <ele>124.15</ele>
        <time>2019-12-29T09:23:21Z</time>
      </trkpt>
      <trkpt lat="37.7454869449" lon="-8.7048082799">
        <ele>124.15</ele>
        <time>2019-12-29T09:23:22Z</time>
      </trkpt>
      <trkpt lat="37.7454905491" lon="-8.7046811264">
        <ele>124.15</ele>
        <time>2019-12-29T09:23:30Z</time>
      </trkpt>
      <trkpt lat="37.7454907168" lon="-8.7046486046">
        <ele>123.67</ele>
        <time>2019-12-29T09:23:32Z</time>
      </trkpt>
      <trkpt lat="37.7454949915" lon="-8.7045917753">
        <ele>125.11</ele>
        <time>2019-12-29T09:23:36Z</time>
      </trkpt>
      <trkpt lat="37.7455013618" lon="-8.7043932080">
        <ele>125.59</ele>
        <time>2019-12-29T09:23:49Z</time>
      </trkpt>
      <trkpt lat="37.7454854362" lon="-8.7042288389">
        <ele>125.59</ele>
        <time>2019-12-29T09:24:00Z</time>
      </trkpt>
      <trkpt lat="37.7454739530" lon="-8.7039821595">
        <ele>125.11</ele>
        <time>2019-12-29T09:24:16Z</time>
      </trkpt>
      <trkpt lat="37.7454697620" lon="-8.7039475422">
        <ele>125.11</ele>
        <time>2019-12-29T09:24:19Z</time>
      </trkpt>
      <trkpt lat="37.7454845980" lon="-8.7038424332">
        <ele>124.15</ele>
        <time>2019-12-29T09:24:26Z</time>
      </trkpt>
      <trkpt lat="37.7455123421" lon="-8.7035892997">
        <ele>123.67</ele>
        <time>2019-12-29T09:24:43Z</time>
      </trkpt>
      <trkpt lat="37.7455543354" lon="-8.7035166286">
        <ele>123.19</ele>
        <time>2019-12-29T09:24:49Z</time>
      </trkpt>
      <trkpt lat="37.7455979213" lon="-8.7034693547">
        <ele>123.19</ele>
        <time>2019-12-29T09:24:55Z</time>
      </trkpt>
      <trkpt lat="37.7456710953" lon="-8.7034706958">
        <ele>123.67</ele>
        <time>2019-12-29T09:25:01Z</time>
      </trkpt>
      <trkpt lat="37.7456960734" lon="-8.7034893874">
        <ele>123.19</ele>
        <time>2019-12-29T09:25:04Z</time>
      </trkpt>
      <trkpt lat="37.7458027750" lon="-8.7036599591">
        <ele>123.19</ele>
        <time>2019-12-29T09:25:18Z</time>
      </trkpt>
      <trkpt lat="37.7458836604" lon="-8.7038346380">
        <ele>120.30</ele>
        <time>2019-12-29T09:25:32Z</time>
      </trkpt>
      <trkpt lat="37.7459978219" lon="-8.7039321195">
        <ele>119.34</ele>
        <time>2019-12-29T09:25:44Z</time>
      </trkpt>
      <trkpt lat="37.7461755183" lon="-8.7039413396">
        <ele>117.42</ele>
        <time>2019-12-29T09:25:58Z</time>
      </trkpt>
      <trkpt lat="37.7462341916" lon="-8.7039210554">
        <ele>117.42</ele>
        <time>2019-12-29T09:26:03Z</time>
      </trkpt>
      <trkpt lat="37.7463689726" lon="-8.7039028667">
        <ele>115.50</ele>
        <time>2019-12-29T09:26:14Z</time>
      </trkpt>
      <trkpt lat="37.7465164103" lon="-8.7038938981">
        <ele>114.05</ele>
        <time>2019-12-29T09:26:27Z</time>
      </trkpt>
      <trkpt lat="37.7465985529" lon="-8.7039139308">
        <ele>113.09</ele>
        <time>2019-12-29T09:26:35Z</time>
      </trkpt>
      <trkpt lat="37.7466339245" lon="-8.7039330415">
        <ele>112.61</ele>
        <time>2019-12-29T09:26:39Z</time>
      </trkpt>
      <trkpt lat="37.7466900833" lon="-8.7039769627">
        <ele>112.61</ele>
        <time>2019-12-29T09:26:45Z</time>
      </trkpt>
      <trkpt lat="37.7467246167" lon="-8.7040137593">
        <ele>112.61</ele>
        <time>2019-12-29T09:26:59Z</time>
      </trkpt>
      <trkpt lat="37.7467405424" lon="-8.7040441856">
        <ele>113.09</ele>
        <time>2019-12-29T09:27:02Z</time>
      </trkpt>
      <trkpt lat="37.7467484213" lon="-8.7040726840">
        <ele>112.61</ele>
        <time>2019-12-29T09:27:04Z</time>
      </trkpt>
      <trkpt lat="37.7467642631" lon="-8.7041274179">
        <ele>112.61</ele>
        <time>2019-12-29T09:27:08Z</time>
      </trkpt>
      <trkpt lat="37.7467942704" lon="-8.7042379752">
        <ele>113.09</ele>
        <time>2019-12-29T09:27:16Z</time>
      </trkpt>
      <trkpt lat="37.7467884030" lon="-8.7042981572">
        <ele>113.09</ele>
        <time>2019-12-29T09:27:20Z</time>
      </trkpt>
      <trkpt lat="37.7467934322" lon="-8.7043372169">
        <ele>113.57</ele>
        <time>2019-12-29T09:27:23Z</time>
      </trkpt>
      <trkpt lat="37.7468106151" lon="-8.7044914439">
        <ele>113.57</ele>
        <time>2019-12-29T09:27:35Z</time>
      </trkpt>
      <trkpt lat="37.7468132973" lon="-8.7045044359">
        <ele>113.57</ele>
        <time>2019-12-29T09:27:36Z</time>
      </trkpt>
      <trkpt lat="37.7468277141" lon="-8.7045633607">
        <ele>113.57</ele>
        <time>2019-12-29T09:27:40Z</time>
      </trkpt>
      <trkpt lat="37.7468828671" lon="-8.7047179230">
        <ele>112.13</ele>
        <time>2019-12-29T09:27:53Z</time>
      </trkpt>
      <trkpt lat="37.7469252795" lon="-8.7048625946">
        <ele>112.61</ele>
        <time>2019-12-29T09:28:04Z</time>
      </trkpt>
      <trkpt lat="37.7469471563" lon="-8.7049620040">
        <ele>113.09</ele>
        <time>2019-12-29T09:28:11Z</time>
      </trkpt>
      <trkpt lat="37.7469701227" lon="-8.7051178236">
        <ele>114.05</ele>
        <time>2019-12-29T09:28:22Z</time>
      </trkpt>
      <trkpt lat="37.7469718829" lon="-8.7051744852">
        <ele>114.53</ele>
        <time>2019-12-29T09:28:27Z</time>
      </trkpt>
      <trkpt lat="37.7469955198" lon="-8.7052676082">
        <ele>114.53</ele>
        <time>2019-12-29T09:28:34Z</time>
      </trkpt>
      <trkpt lat="37.7470084280" lon="-8.7053402793">
        <ele>114.05</ele>
        <time>2019-12-29T09:28:40Z</time>
      </trkpt>
      <trkpt lat="37.7470275387" lon="-8.7053965218">
        <ele>114.05</ele>
        <time>2019-12-29T09:28:44Z</time>
      </trkpt>
      <trkpt lat="37.7470316458" lon="-8.7054450531">
        <ele>114.05</ele>
        <time>2019-12-29T09:28:48Z</time>
      </trkpt>
      <trkpt lat="37.7470588870" lon="-8.7055401877">
        <ele>114.53</ele>
        <time>2019-12-29T09:28:55Z</time>
      </trkpt>
      <trkpt lat="37.7470575459" lon="-8.7055947538">
        <ele>114.53</ele>
        <time>2019-12-29T09:28:59Z</time>
      </trkpt>
      <trkpt lat="37.7470715437" lon="-8.7057582848">
        <ele>115.50</ele>
        <time>2019-12-29T09:29:11Z</time>
      </trkpt>
      <trkpt lat="37.7470803447" lon="-8.7058138568">
        <ele>115.50</ele>
        <time>2019-12-29T09:29:15Z</time>
      </trkpt>
      <trkpt lat="37.7471126989" lon="-8.7059489731">
        <ele>116.46</ele>
        <time>2019-12-29T09:29:25Z</time>
      </trkpt>
      <trkpt lat="37.7471223380" lon="-8.7059747893">
        <ele>116.46</ele>
        <time>2019-12-29T09:29:27Z</time>
      </trkpt>
      <trkpt lat="37.7471441310" lon="-8.7060724385">
        <ele>116.46</ele>
        <time>2019-12-29T09:29:34Z</time>
      </trkpt>
      <trkpt lat="37.7471529320" lon="-8.7061517313">
        <ele>116.94</ele>
        <time>2019-12-29T09:29:40Z</time>
      </trkpt>
      <trkpt lat="37.7471774071" lon="-8.7062567566">
        <ele>117.42</ele>
        <time>2019-12-29T09:29:48Z</time>
      </trkpt>
      <trkpt lat="37.7471997868" lon="-8.7063976564">
        <ele>118.86</ele>
        <time>2019-12-29T09:29:59Z</time>
      </trkpt>
      <trkpt lat="37.7472381759" lon="-8.7065119855">
        <ele>118.86</ele>
        <time>2019-12-29T09:30:08Z</time>
      </trkpt>
      <trkpt lat="37.7472600527" lon="-8.7066244707">
        <ele>118.38</ele>
        <time>2019-12-29T09:30:16Z</time>
      </trkpt>
      <trkpt lat="37.7473203186" lon="-8.7068413943">
        <ele>116.94</ele>
        <time>2019-12-29T09:30:32Z</time>
      </trkpt>
      <trkpt lat="37.7473238390" lon="-8.7068698090">
        <ele>116.94</ele>
        <time>2019-12-29T09:30:34Z</time>
      </trkpt>
      <trkpt lat="37.7473442908" lon="-8.7069703080">
        <ele>116.94</ele>
        <time>2019-12-29T09:30:41Z</time>
      </trkpt>
      <trkpt lat="37.7473511640" lon="-8.7070310768">
        <ele>117.42</ele>
        <time>2019-12-29T09:30:45Z</time>
      </trkpt>
      <trkpt lat="37.7473540138" lon="-8.7070713937">
        <ele>117.42</ele>
        <time>2019-12-29T09:30:48Z</time>
      </trkpt>
      <trkpt lat="37.7473694365" lon="-8.7071169913">
        <ele>117.42</ele>
        <time>2019-12-29T09:30:52Z</time>
      </trkpt>
      <trkpt lat="37.7473826800" lon="-8.7071748264">
        <ele>117.42</ele>
        <time>2019-12-29T09:30:56Z</time>
      </trkpt>
      <trkpt lat="37.7474012040" lon="-8.7072572205">
        <ele>116.46</ele>
        <time>2019-12-29T09:31:01Z</time>
      </trkpt>
      <trkpt lat="37.7474301215" lon="-8.7073534448">
        <ele>116.46</ele>
        <time>2019-12-29T09:31:08Z</time>
      </trkpt>
      <trkpt lat="37.7474787366" lon="-8.7075576279">
        <ele>114.53</ele>
        <time>2019-12-29T09:31:24Z</time>
      </trkpt>
      <trkpt lat="37.7475320455" lon="-8.7077130284">
        <ele>113.09</ele>
        <time>2019-12-29T09:31:35Z</time>
      </trkpt>
      <trkpt lat="37.7475668304" lon="-8.7079020403">
        <ele>113.57</ele>
        <time>2019-12-29T09:31:48Z</time>
      </trkpt>
      <trkpt lat="37.7475812472" lon="-8.7079501525">
        <ele>113.09</ele>
        <time>2019-12-29T09:31:51Z</time>
      </trkpt>
      <trkpt lat="37.7476663236" lon="-8.7081626337">
        <ele>112.13</ele>
        <time>2019-12-29T09:32:07Z</time>
      </trkpt>
      <trkpt lat="37.7476930618" lon="-8.7082208879">
        <ele>111.65</ele>
        <time>2019-12-29T09:32:11Z</time>
      </trkpt>
      <trkpt lat="37.7477394138" lon="-8.7082865182">
        <ele>110.69</ele>
        <time>2019-12-29T09:32:17Z</time>
      </trkpt>
      <trkpt lat="37.7477801498" lon="-8.7083221413">
        <ele>109.73</ele>
        <time>2019-12-29T09:32:21Z</time>
      </trkpt>
      <trkpt lat="37.7479118295" lon="-8.7083990034">
        <ele>106.84</ele>
        <time>2019-12-29T09:32:34Z</time>
      </trkpt>
      <trkpt lat="37.7480230574" lon="-8.7084191199">
        <ele>104.92</ele>
        <time>2019-12-29T09:32:43Z</time>
      </trkpt>
      <trkpt lat="37.7481732611" lon="-8.7084593531">
        <ele>103.00</ele>
        <time>2019-12-29T09:32:56Z</time>
      </trkpt>
      <trkpt lat="37.7483279072" lon="-8.7085611094">
        <ele>101.08</ele>
        <time>2019-12-29T09:33:10Z</time>
      </trkpt>
      <trkpt lat="37.7483380493" lon="-8.7085707486">
        <ele>101.08</ele>
        <time>2019-12-29T09:33:11Z</time>
      </trkpt>
      <trkpt lat="37.7484452538" lon="-8.7086911127">
        <ele>99.63</ele>
        <time>2019-12-29T09:33:23Z</time>
      </trkpt>
      <trkpt lat="37.7484873310" lon="-8.7087403983">
        <ele>100.11</ele>
        <time>2019-12-29T09:33:28Z</time>
      </trkpt>
      <trkpt lat="37.7486190107" lon="-8.7088066153">
        <ele>98.19</ele>
        <time>2019-12-29T09:33:39Z</time>
      </trkpt>
      <trkpt lat="37.7486465033" lon="-8.7088285759">
        <ele>98.19</ele>
        <time>2019-12-29T09:33:42Z</time>
      </trkpt>
      <trkpt lat="37.7487297356" lon="-8.7088807113">
        <ele>98.19</ele>
        <time>2019-12-29T09:33:50Z</time>
      </trkpt>
      <trkpt lat="37.7488361020" lon="-8.7089663744">
        <ele>98.19</ele>
        <time>2019-12-29T09:34:00Z</time>
      </trkpt>
      <trkpt lat="37.7488599066" lon="-8.7089935318">
        <ele>98.19</ele>
        <time>2019-12-29T09:34:03Z</time>
      </trkpt>
      <trkpt lat="37.7488809451" lon="-8.7090051826">
        <ele>98.19</ele>
        <time>2019-12-29T09:34:05Z</time>
      </trkpt>
      <trkpt lat="37.7490151394" lon="-8.7091309950">
        <ele>98.19</ele>
        <time>2019-12-29T09:34:19Z</time>
      </trkpt>
      <trkpt lat="37.7491353359" lon="-8.7091836333">
        <ele>98.67</ele>
        <time>2019-12-29T09:34:29Z</time>
      </trkpt>
      <trkpt lat="37.7491503395" lon="-8.7092014868">
        <ele>98.67</ele>
        <time>2019-12-29T09:34:31Z</time>
      </trkpt>
      <trkpt lat="37.7491799276" lon="-8.7092015706">
        <ele>98.67</ele>
        <time>2019-12-29T09:34:34Z</time>
      </trkpt>
      <trkpt lat="37.7491930034" lon="-8.7091872375">
        <ele>97.71</ele>
        <time>2019-12-29T09:34:47Z</time>
      </trkpt>
      <trkpt lat="37.7491936740" lon="-8.7091831304">
        <ele>97.71</ele>
        <time>2019-12-29T09:35:19Z</time>
      </trkpt>
      <trkpt lat="37.7491941769" lon="-8.7091814540">
        <ele>97.71</ele>
        <time>2019-12-29T09:35:57Z</time>
      </trkpt>
      <trkpt lat="37.7491946798" lon="-8.7091808673">
        <ele>97.23</ele>
        <time>2019-12-29T09:36:39Z</time>
      </trkpt>
      <trkpt lat="37.7491946798" lon="-8.7091808673">
        <ele>98.19</ele>
        <time>2019-12-29T09:37:11Z</time>
      </trkpt>
      <trkpt lat="37.7491943445" lon="-8.7091804482">
        <ele>98.19</ele>
        <time>2019-12-29T09:37:41Z</time>
      </trkpt>
      <trkpt lat="37.7492067497" lon="-8.7091832142">
        <ele>99.15</ele>
        <time>2019-12-29T09:37:58Z</time>
      </trkpt>
      <trkpt lat="37.7492067497" lon="-8.7091832142">
        <ele>98.19</ele>
        <time>2019-12-29T09:38:15Z</time>
      </trkpt>
      <trkpt lat="37.7492067497" lon="-8.7091832142">
        <ele>97.71</ele>
        <time>2019-12-29T09:38:33Z</time>
      </trkpt>
      <trkpt lat="37.7492047381" lon="-8.7091843877">
        <ele>99.15</ele>
        <time>2019-12-29T09:38:47Z</time>
      </trkpt>
      <trkpt lat="37.7492047381" lon="-8.7091843877">
        <ele>98.67</ele>
        <time>2019-12-29T09:39:08Z</time>
      </trkpt>
      <trkpt lat="37.7492047381" lon="-8.7091843877">
        <ele>98.67</ele>
        <time>2019-12-29T09:39:11Z</time>
      </trkpt>
      <trkpt lat="37.7492201608" lon="-8.7092592381">
        <ele>98.19</ele>
        <time>2019-12-29T09:39:25Z</time>
      </trkpt>
      <trkpt lat="37.7492201608" lon="-8.7092592381">
        <ele>97.71</ele>
        <time>2019-12-29T09:39:27Z</time>
      </trkpt>
      <trkpt lat="37.7492229268" lon="-8.7093382794">
        <ele>99.63</ele>
        <time>2019-12-29T09:39:34Z</time>
      </trkpt>
      <trkpt lat="37.7492309734" lon="-8.7093925104">
        <ele>100.11</ele>
        <time>2019-12-29T09:39:38Z</time>
      </trkpt>
      <trkpt lat="37.7492444683" lon="-8.7094562966">
        <ele>101.08</ele>
        <time>2019-12-29T09:39:43Z</time>
      </trkpt>
      <trkpt lat="37.7492508385" lon="-8.7094937637">
        <ele>101.56</ele>
        <time>2019-12-29T09:39:46Z</time>
      </trkpt>
      <trkpt lat="37.7492571250" lon="-8.7095661834">
        <ele>101.08</ele>
        <time>2019-12-29T09:39:58Z</time>
      </trkpt>
      <trkpt lat="37.7492571250" lon="-8.7095661834">
        <ele>103.00</ele>
        <time>2019-12-29T09:40:05Z</time>
      </trkpt>
      <trkpt lat="37.7492596395" lon="-8.7095867191">
        <ele>102.52</ele>
        <time>2019-12-29T09:40:08Z</time>
      </trkpt>
      <trkpt lat="37.7492754813" lon="-8.7096734717">
        <ele>101.08</ele>
        <time>2019-12-29T09:40:14Z</time>
      </trkpt>
      <trkpt lat="37.7492955141" lon="-8.7098010443">
        <ele>101.56</ele>
        <time>2019-12-29T09:40:24Z</time>
      </trkpt>
      <trkpt lat="37.7493305504" lon="-8.7099863682">
        <ele>102.52</ele>
        <time>2019-12-29T09:40:37Z</time>
      </trkpt>
      <trkpt lat="37.7493345737" lon="-8.7100014556">
        <ele>102.04</ele>
        <time>2019-12-29T09:40:38Z</time>
      </trkpt>
      <trkpt lat="37.7493931632" lon="-8.7101175450">
        <ele>102.04</ele>
        <time>2019-12-29T09:40:47Z</time>
      </trkpt>
      <trkpt lat="37.7494616434" lon="-8.7101919763">
        <ele>100.60</ele>
        <time>2019-12-29T09:40:55Z</time>
      </trkpt>
      <trkpt lat="37.7495837677" lon="-8.7102798186">
        <ele>99.15</ele>
        <time>2019-12-29T09:41:06Z</time>
      </trkpt>
      <trkpt lat="37.7496042196" lon="-8.7102782261">
        <ele>99.15</ele>
        <time>2019-12-29T09:41:08Z</time>
      </trkpt>
      <trkpt lat="37.7496300358" lon="-8.7102887873">
        <ele>98.67</ele>
        <time>2019-12-29T09:41:11Z</time>
      </trkpt>
      <trkpt lat="37.7496607974" lon="-8.7102833390">
        <ele>98.19</ele>
        <time>2019-12-29T09:41:14Z</time>
      </trkpt>
      <trkpt lat="37.7497468796" lon="-8.7103015278">
        <ele>97.23</ele>
        <time>2019-12-29T09:41:22Z</time>
      </trkpt>
      <trkpt lat="37.7498006914" lon="-8.7103310321">
        <ele>96.75</ele>
        <time>2019-12-29T09:41:27Z</time>
      </trkpt>
      <trkpt lat="37.7499733586" lon="-8.7103742827">
        <ele>93.87</ele>
        <time>2019-12-29T09:41:40Z</time>
      </trkpt>
      <trkpt lat="37.7500029467" lon="-8.7103889510">
        <ele>92.90</ele>
        <time>2019-12-29T09:41:44Z</time>
      </trkpt>
      <trkpt lat="37.7501240652" lon="-8.7104268372">
        <ele>90.98</ele>
        <time>2019-12-29T09:41:54Z</time>
      </trkpt>
      <trkpt lat="37.7501532342" lon="-8.7104263343">
        <ele>89.54</ele>
        <time>2019-12-29T09:41:57Z</time>
      </trkpt>
      <trkpt lat="37.7501956467" lon="-8.7104558386">
        <ele>88.58</ele>
        <time>2019-12-29T09:42:01Z</time>
      </trkpt>
      <trkpt lat="37.7502763644" lon="-8.7104938924">
        <ele>88.58</ele>
        <time>2019-12-29T09:42:08Z</time>
      </trkpt>
      <trkpt lat="37.7503409889" lon="-8.7105151825">
        <ele>87.62</ele>
        <time>2019-12-29T09:42:13Z</time>
      </trkpt>
      <trkpt lat="37.7503828146" lon="-8.7105091475">
        <ele>88.10</ele>
        <time>2019-12-29T09:42:15Z</time>
      </trkpt>
      <trkpt lat="37.7504227962" lon="-8.7105417531">
        <ele>87.62</ele>
        <time>2019-12-29T09:42:19Z</time>
      </trkpt>
      <trkpt lat="37.7505050227" lon="-8.7105829921">
        <ele>87.14</ele>
        <time>2019-12-29T09:42:26Z</time>
      </trkpt>
      <trkpt lat="37.7505117282" lon="-8.7105979118">
        <ele>87.14</ele>
        <time>2019-12-29T09:42:27Z</time>
      </trkpt>
      <trkpt lat="37.7506301645" lon="-8.7106536515">
        <ele>85.69</ele>
        <time>2019-12-29T09:42:37Z</time>
      </trkpt>
      <trkpt lat="37.7506885026" lon="-8.7106627040">
        <ele>85.69</ele>
        <time>2019-12-29T09:42:41Z</time>
      </trkpt>
      <trkpt lat="37.7507252991" lon="-8.7107269932">
        <ele>85.21</ele>
        <time>2019-12-29T09:42:46Z</time>
      </trkpt>
      <trkpt lat="37.7508066874" lon="-8.7108155899">
        <ele>85.21</ele>
        <time>2019-12-29T09:42:55Z</time>
      </trkpt>
      <trkpt lat="37.7508379519" lon="-8.7108319346">
        <ele>85.21</ele>
        <time>2019-12-29T09:42:58Z</time>
      </trkpt>
      <trkpt lat="37.7508857287" lon="-8.7108832318">
        <ele>84.73</ele>
        <time>2019-12-29T09:43:03Z</time>
      </trkpt>
      <trkpt lat="37.7509543765" lon="-8.7108789571">
        <ele>84.25</ele>
        <time>2019-12-29T09:43:07Z</time>
      </trkpt>
      <trkpt lat="37.7510464098" lon="-8.7109335233">
        <ele>83.29</ele>
        <time>2019-12-29T09:43:15Z</time>
      </trkpt>
      <trkpt lat="37.7510724775" lon="-8.7109982315">
        <ele>83.29</ele>
        <time>2019-12-29T09:43:20Z</time>
      </trkpt>
      <trkpt lat="37.7510974556" lon="-8.7110149115">
        <ele>83.77</ele>
        <time>2019-12-29T09:43:23Z</time>
      </trkpt>
      <trkpt lat="37.7511246130" lon="-8.7110374589">
        <ele>83.77</ele>
        <time>2019-12-29T09:43:26Z</time>
      </trkpt>
      <trkpt lat="37.7511916682" lon="-8.7111039273">
        <ele>83.77</ele>
        <time>2019-12-29T09:43:33Z</time>
      </trkpt>
      <trkpt lat="37.7512137126" lon="-8.7111274805">
        <ele>84.25</ele>
        <time>2019-12-29T09:43:35Z</time>
      </trkpt>
      <trkpt lat="37.7512427978" lon="-8.7111634389">
        <ele>84.25</ele>
        <time>2019-12-29T09:43:38Z</time>
      </trkpt>
      <trkpt lat="37.7512856293" lon="-8.7111930270">
        <ele>84.73</ele>
        <time>2019-12-29T09:43:42Z</time>
      </trkpt>
      <trkpt lat="37.7513199951" lon="-8.7112019956">
        <ele>84.73</ele>
        <time>2019-12-29T09:43:45Z</time>
      </trkpt>
      <trkpt lat="37.7513567917" lon="-8.7112375349">
        <ele>84.73</ele>
        <time>2019-12-29T09:43:49Z</time>
      </trkpt>
      <trkpt lat="37.7514122799" lon="-8.7113200966">
        <ele>84.25</ele>
        <time>2019-12-29T09:43:55Z</time>
      </trkpt>
      <trkpt lat="37.7514505852" lon="-8.7113952823">
        <ele>84.25</ele>
        <time>2019-12-29T09:44:01Z</time>
      </trkpt>
      <trkpt lat="37.7514681872" lon="-8.7114185840">
        <ele>84.73</ele>
        <time>2019-12-29T09:44:03Z</time>
      </trkpt>
      <trkpt lat="37.7515157964" lon="-8.7114964519">
        <ele>84.73</ele>
        <time>2019-12-29T09:44:09Z</time>
      </trkpt>
      <trkpt lat="37.7516485658" lon="-8.7115950231">
        <ele>84.25</ele>
        <time>2019-12-29T09:44:22Z</time>
      </trkpt>
      <trkpt lat="37.7517763898" lon="-8.7116328254">
        <ele>84.25</ele>
        <time>2019-12-29T09:44:38Z</time>
      </trkpt>
      <trkpt lat="37.7518001106" lon="-8.7116402853">
        <ele>84.25</ele>
        <time>2019-12-29T09:44:40Z</time>
      </trkpt>
      <trkpt lat="37.7519944869" lon="-8.7116614915">
        <ele>83.77</ele>
        <time>2019-12-29T09:44:56Z</time>
      </trkpt>
      <trkpt lat="37.7521270048" lon="-8.7116678618">
        <ele>83.77</ele>
        <time>2019-12-29T09:45:08Z</time>
      </trkpt>
      <trkpt lat="37.7521790564" lon="-8.7117222603">
        <ele>84.73</ele>
        <time>2019-12-29T09:45:21Z</time>
      </trkpt>
      <trkpt lat="37.7521826606" lon="-8.7117236853">
        <ele>84.73</ele>
        <time>2019-12-29T09:45:36Z</time>
      </trkpt>
      <trkpt lat="37.7521814872" lon="-8.7117238529">
        <ele>84.73</ele>
        <time>2019-12-29T09:45:50Z</time>
      </trkpt>
      <trkpt lat="37.7521886956" lon="-8.7117098551">
        <ele>84.73</ele>
        <time>2019-12-29T09:46:09Z</time>
      </trkpt>
      <trkpt lat="37.7521890309" lon="-8.7117043231">
        <ele>84.25</ele>
        <time>2019-12-29T09:46:24Z</time>
      </trkpt>
      <trkpt lat="37.7522437647" lon="-8.7116515171">
        <ele>84.73</ele>
        <time>2019-12-29T09:46:31Z</time>
      </trkpt>
      <trkpt lat="37.7522720117" lon="-8.7116282992">
        <ele>84.73</ele>
        <time>2019-12-29T09:46:34Z</time>
      </trkpt>
      <trkpt lat="37.7524175216" lon="-8.7115648482">
        <ele>85.69</ele>
        <time>2019-12-29T09:46:47Z</time>
      </trkpt>
      <trkpt lat="37.7525349520" lon="-8.7115086894">
        <ele>87.14</ele>
        <time>2019-12-29T09:46:58Z</time>
      </trkpt>
      <trkpt lat="37.7525988221" lon="-8.7114824541">
        <ele>87.14</ele>
        <time>2019-12-29T09:47:03Z</time>
      </trkpt>
      <trkpt lat="37.7526203636" lon="-8.7114715576">
        <ele>87.62</ele>
        <time>2019-12-29T09:47:05Z</time>
      </trkpt>
      <trkpt lat="37.7526343614" lon="-8.7114609964">
        <ele>87.62</ele>
        <time>2019-12-29T09:47:07Z</time>
      </trkpt>
      <trkpt lat="37.7526675537" lon="-8.7114491779">
        <ele>87.62</ele>
        <time>2019-12-29T09:47:09Z</time>
      </trkpt>
      <trkpt lat="37.7527070325" lon="-8.7114249542">
        <ele>87.62</ele>
        <time>2019-12-29T09:47:13Z</time>
      </trkpt>
      <trkpt lat="37.7527563181" lon="-8.7113946956">
        <ele>88.58</ele>
        <time>2019-12-29T09:47:17Z</time>
      </trkpt>
      <trkpt lat="37.7528857347" lon="-8.7113224436">
        <ele>89.54</ele>
        <time>2019-12-29T09:47:30Z</time>
      </trkpt>
      <trkpt lat="37.7529346012" lon="-8.7112889159">
        <ele>89.54</ele>
        <time>2019-12-29T09:47:34Z</time>
      </trkpt>
      <trkpt lat="37.7530557197" lon="-8.7112221960">
        <ele>90.50</ele>
        <time>2019-12-29T09:47:45Z</time>
      </trkpt>
      <trkpt lat="37.7532105334" lon="-8.7111654505">
        <ele>90.02</ele>
        <time>2019-12-29T09:47:58Z</time>
      </trkpt>
      <trkpt lat="37.7532215137" lon="-8.7111597508">
        <ele>90.02</ele>
        <time>2019-12-29T09:47:59Z</time>
      </trkpt>
      <trkpt lat="37.7532651834" lon="-8.7111467589">
        <ele>90.50</ele>
        <time>2019-12-29T09:48:03Z</time>
      </trkpt>
      <trkpt lat="37.7533920016" lon="-8.7110875826">
        <ele>92.42</ele>
        <time>2019-12-29T09:48:14Z</time>
      </trkpt>
      <trkpt lat="37.7535007987" lon="-8.7110515404">
        <ele>93.87</ele>
        <time>2019-12-29T09:48:24Z</time>
      </trkpt>
      <trkpt lat="37.7535674348" lon="-8.7110361177">
        <ele>94.35</ele>
        <time>2019-12-29T09:48:30Z</time>
      </trkpt>
      <trkpt lat="37.7537109330" lon="-8.7110252213">
        <ele>95.79</ele>
        <time>2019-12-29T09:48:43Z</time>
      </trkpt>
      <trkpt lat="37.7538245078" lon="-8.7110293284">
        <ele>97.71</ele>
        <time>2019-12-29T09:48:54Z</time>
      </trkpt>
      <trkpt lat="37.7540037967" lon="-8.7110547256">
        <ele>96.75</ele>
        <time>2019-12-29T09:49:09Z</time>
      </trkpt>
      <trkpt lat="37.7540267631" lon="-8.7110611796">
        <ele>96.75</ele>
        <time>2019-12-29T09:49:11Z</time>
      </trkpt>
      <trkpt lat="37.7541837562" lon="-8.7110803742">
        <ele>95.31</ele>
        <time>2019-12-29T09:49:24Z</time>
      </trkpt>
      <trkpt lat="37.7543519810" lon="-8.7110500317">
        <ele>94.83</ele>
        <time>2019-12-29T09:49:38Z</time>
      </trkpt>
      <trkpt lat="37.7544943057" lon="-8.7109785341">
        <ele>94.83</ele>
        <time>2019-12-29T09:49:51Z</time>
      </trkpt>
      <trkpt lat="37.7546354569" lon="-8.7108838186">
        <ele>93.39</ele>
        <time>2019-12-29T09:50:03Z</time>
      </trkpt>
      <trkpt lat="37.7546680626" lon="-8.7108577508">
        <ele>93.39</ele>
        <time>2019-12-29T09:50:06Z</time>
      </trkpt>
      <trkpt lat="37.7548479382" lon="-8.7107055355">
        <ele>90.98</ele>
        <time>2019-12-29T09:50:23Z</time>
      </trkpt>
      <trkpt lat="37.7549911011" lon="-8.7105973251">
        <ele>90.50</ele>
        <time>2019-12-29T09:50:37Z</time>
      </trkpt>
      <trkpt lat="37.7550452482" lon="-8.7105557509">
        <ele>90.50</ele>
        <time>2019-12-29T09:50:42Z</time>
      </trkpt>
      <trkpt lat="37.7551167458" lon="-8.7104760390">
        <ele>89.54</ele>
        <time>2019-12-29T09:50:50Z</time>
      </trkpt>
      <trkpt lat="37.7552109584" lon="-8.7104075588">
        <ele>89.54</ele>
        <time>2019-12-29T09:50:58Z</time>
      </trkpt>
      <trkpt lat="37.7552423906" lon="-8.7103678286">
        <ele>89.54</ele>
        <time>2019-12-29T09:51:02Z</time>
      </trkpt>
      <trkpt lat="37.7552966215" lon="-8.7103291880">
        <ele>90.02</ele>
        <time>2019-12-29T09:51:07Z</time>
      </trkpt>
      <trkpt lat="37.7553306520" lon="-8.7102866918">
        <ele>90.50</ele>
        <time>2019-12-29T09:51:11Z</time>
      </trkpt>
      <trkpt lat="37.7554244455" lon="-8.7102177925">
        <ele>91.46</ele>
        <time>2019-12-29T09:51:20Z</time>
      </trkpt>
      <trkpt lat="37.7554424666" lon="-8.7102086563">
        <ele>91.46</ele>
        <time>2019-12-29T09:51:22Z</time>
      </trkpt>
      <trkpt lat="37.7555904072" lon="-8.7100744620">
        <ele>91.94</ele>
        <time>2019-12-29T09:51:37Z</time>
      </trkpt>
      <trkpt lat="37.7555989567" lon="-8.7100694329">
        <ele>91.94</ele>
        <time>2019-12-29T09:51:38Z</time>
      </trkpt>
      <trkpt lat="37.7556643356" lon="-8.7099938281">
        <ele>91.94</ele>
        <time>2019-12-29T09:51:45Z</time>
      </trkpt>
      <trkpt lat="37.7557085920" lon="-8.7099567801">
        <ele>91.46</ele>
        <time>2019-12-29T09:51:49Z</time>
      </trkpt>
      <trkpt lat="37.7558822650" lon="-8.7098438758">
        <ele>90.50</ele>
        <time>2019-12-29T09:52:05Z</time>
      </trkpt>
      <trkpt lat="37.7558905631" lon="-8.7098401878">
        <ele>90.50</ele>
        <time>2019-12-29T09:52:06Z</time>
      </trkpt>
      <trkpt lat="37.7559521701" lon="-8.7098216638">
        <ele>89.54</ele>
        <time>2019-12-29T09:52:12Z</time>
      </trkpt>
      <trkpt lat="37.7560074069" lon="-8.7098144554">
        <ele>89.54</ele>
        <time>2019-12-29T09:52:16Z</time>
      </trkpt>
      <trkpt lat="37.7561223228" lon="-8.7098924071">
        <ele>88.10</ele>
        <time>2019-12-29T09:52:28Z</time>
      </trkpt>
      <trkpt lat="37.7561775595" lon="-8.7099699397">
        <ele>86.66</ele>
        <time>2019-12-29T09:52:36Z</time>
      </trkpt>
      <trkpt lat="37.7562074829" lon="-8.7100009527">
        <ele>85.69</ele>
        <time>2019-12-29T09:52:39Z</time>
      </trkpt>
      <trkpt lat="37.7563051321" lon="-8.7101222388">
        <ele>84.25</ele>
        <time>2019-12-29T09:52:51Z</time>
      </trkpt>
      <trkpt lat="37.7563236561" lon="-8.7101417687">
        <ele>83.77</ele>
        <time>2019-12-29T09:52:53Z</time>
      </trkpt>
      <trkpt lat="37.7563669905" lon="-8.7101708539">
        <ele>83.29</ele>
        <time>2019-12-29T09:52:57Z</time>
      </trkpt>
      <trkpt lat="37.7564042900" lon="-8.7102085724">
        <ele>82.81</ele>
        <time>2019-12-29T09:53:02Z</time>
      </trkpt>
      <trkpt lat="37.7564502228" lon="-8.7102320418">
        <ele>82.81</ele>
        <time>2019-12-29T09:53:06Z</time>
      </trkpt>
      <trkpt lat="37.7564705908" lon="-8.7102497276">
        <ele>82.81</ele>
        <time>2019-12-29T09:53:08Z</time>
      </trkpt>
      <trkpt lat="37.7564831637" lon="-8.7102742027">
        <ele>83.29</ele>
        <time>2019-12-29T09:53:10Z</time>
      </trkpt>
      <trkpt lat="37.7565045375" lon="-8.7103032041">
        <ele>83.77</ele>
        <time>2019-12-29T09:53:13Z</time>
      </trkpt>
      <trkpt lat="37.7565943915" lon="-8.7103398331">
        <ele>83.29</ele>
        <time>2019-12-29T09:53:20Z</time>
      </trkpt>
      <trkpt lat="37.7566794679" lon="-8.7103340495">
        <ele>84.73</ele>
        <time>2019-12-29T09:53:26Z</time>
      </trkpt>
      <trkpt lat="37.7567425836" lon="-8.7102866080">
        <ele>85.21</ele>
        <time>2019-12-29T09:53:32Z</time>
      </trkpt>
      <trkpt lat="37.7568338625" lon="-8.7100944947">
        <ele>85.69</ele>
        <time>2019-12-29T09:53:47Z</time>
      </trkpt>
      <trkpt lat="37.7568663843" lon="-8.7099954206">
        <ele>85.21</ele>
        <time>2019-12-29T09:53:54Z</time>
      </trkpt>
      <trkpt lat="37.7569072042" lon="-8.7099091709">
        <ele>85.21</ele>
        <time>2019-12-29T09:54:01Z</time>
      </trkpt>
      <trkpt lat="37.7569476049" lon="-8.7098201551">
        <ele>85.21</ele>
        <time>2019-12-29T09:54:07Z</time>
      </trkpt>
      <trkpt lat="37.7569964714" lon="-8.7097202428">
        <ele>84.73</ele>
        <time>2019-12-29T09:54:15Z</time>
      </trkpt>
      <trkpt lat="37.7570429072" lon="-8.7096440513">
        <ele>85.69</ele>
        <time>2019-12-29T09:54:21Z</time>
      </trkpt>
      <trkpt lat="37.7571231220" lon="-8.7094761617">
        <ele>85.69</ele>
        <time>2019-12-29T09:54:34Z</time>
      </trkpt>
      <trkpt lat="37.7572311647" lon="-8.7093326636">
        <ele>85.21</ele>
        <time>2019-12-29T09:54:47Z</time>
      </trkpt>
      <trkpt lat="37.7573231142" lon="-8.7092086952">
        <ele>86.66</ele>
        <time>2019-12-29T09:54:58Z</time>
      </trkpt>
      <trkpt lat="37.7573442366" lon="-8.7091887463">
        <ele>86.18</ele>
        <time>2019-12-29T09:55:00Z</time>
      </trkpt>
      <trkpt lat="37.7574573923" lon="-8.7090494391">
        <ele>86.66</ele>
        <time>2019-12-29T09:55:13Z</time>
      </trkpt>
      <trkpt lat="37.7574642655" lon="-8.7090383749">
        <ele>86.66</ele>
        <time>2019-12-29T09:55:14Z</time>
      </trkpt>
      <trkpt lat="37.7575693745" lon="-8.7088852376">
        <ele>87.62</ele>
        <time>2019-12-29T09:55:28Z</time>
      </trkpt>
      <trkpt lat="37.7576602343" lon="-8.7087366264">
        <ele>88.10</ele>
        <time>2019-12-29T09:55:40Z</time>
      </trkpt>
      <trkpt lat="37.7577676903" lon="-8.7086128257">
        <ele>87.62</ele>
        <time>2019-12-29T09:55:53Z</time>
      </trkpt>
      <trkpt lat="37.7578722127" lon="-8.7085061241">
        <ele>89.54</ele>
        <time>2019-12-29T09:56:04Z</time>
      </trkpt>
      <trkpt lat="37.7579306345" lon="-8.7084477022">
        <ele>89.06</ele>
        <time>2019-12-29T09:56:10Z</time>
      </trkpt>
      <trkpt lat="37.7580355760" lon="-8.7082779687">
        <ele>89.54</ele>
        <time>2019-12-29T09:56:24Z</time>
      </trkpt>
      <trkpt lat="37.7581267711" lon="-8.7081059720">
        <ele>89.54</ele>
        <time>2019-12-29T09:56:37Z</time>
      </trkpt>
      <trkpt lat="37.7582061477" lon="-8.7079346459">
        <ele>90.02</ele>
        <time>2019-12-29T09:56:50Z</time>
      </trkpt>
      <trkpt lat="37.7582110930" lon="-8.7079194747">
        <ele>90.02</ele>
        <time>2019-12-29T09:56:51Z</time>
      </trkpt>
      <trkpt lat="37.7582676709" lon="-8.7077662535">
        <ele>91.94</ele>
        <time>2019-12-29T09:57:02Z</time>
      </trkpt>
      <trkpt lat="37.7583187167" lon="-8.7076389324">
        <ele>91.94</ele>
        <time>2019-12-29T09:57:12Z</time>
      </trkpt>
      <trkpt lat="37.7583202254" lon="-8.7074132916">
        <ele>91.46</ele>
        <time>2019-12-29T09:57:27Z</time>
      </trkpt>
      <trkpt lat="37.7583253384" lon="-8.7073994614">
        <ele>91.46</ele>
        <time>2019-12-29T09:57:28Z</time>
      </trkpt>
      <trkpt lat="37.7583441976" lon="-8.7071748264">
        <ele>92.42</ele>
        <time>2019-12-29T09:57:42Z</time>
      </trkpt>
      <trkpt lat="37.7583661582" lon="-8.7070052605">
        <ele>92.90</ele>
        <time>2019-12-29T09:57:53Z</time>
      </trkpt>
      <trkpt lat="37.7583881188" lon="-8.7068267260">
        <ele>92.90</ele>
        <time>2019-12-29T09:58:05Z</time>
      </trkpt>
      <trkpt lat="37.7584372368" lon="-8.7067320943">
        <ele>93.39</ele>
        <time>2019-12-29T09:58:12Z</time>
      </trkpt>
      <trkpt lat="37.7584645618" lon="-8.7065637019">
        <ele>92.90</ele>
        <time>2019-12-29T09:58:23Z</time>
      </trkpt>
      <trkpt lat="37.7585125063" lon="-8.7064498756">
        <ele>93.39</ele>
        <time>2019-12-29T09:58:31Z</time>
      </trkpt>
      <trkpt lat="37.7585374005" lon="-8.7063913699">
        <ele>93.39</ele>
        <time>2019-12-29T09:58:35Z</time>
      </trkpt>
      <trkpt lat="37.7585840877" lon="-8.7062833272">
        <ele>93.39</ele>
        <time>2019-12-29T09:58:43Z</time>
      </trkpt>
      <trkpt lat="37.7586107422" lon="-8.7062114943">
        <ele>93.87</ele>
        <time>2019-12-29T09:58:48Z</time>
      </trkpt>
      <trkpt lat="37.7586208005" lon="-8.7061849236">
        <ele>93.39</ele>
        <time>2019-12-29T09:58:50Z</time>
      </trkpt>
      <trkpt lat="37.7587175276" lon="-8.7059458718">
        <ele>93.39</ele>
        <time>2019-12-29T09:59:07Z</time>
      </trkpt>
      <trkpt lat="37.7588088904" lon="-8.7057608832">
        <ele>94.35</ele>
        <time>2019-12-29T09:59:21Z</time>
      </trkpt>
      <trkpt lat="37.7588265762" lon="-8.7057413533">
        <ele>94.83</ele>
        <time>2019-12-29T09:59:23Z</time>
      </trkpt>
      <trkpt lat="37.7588865068" lon="-8.7056319695">
        <ele>95.79</ele>
        <time>2019-12-29T09:59:31Z</time>
      </trkpt>
      <trkpt lat="37.7589076292" lon="-8.7055885512">
        <ele>95.79</ele>
        <time>2019-12-29T09:59:34Z</time>
      </trkpt>
      <trkpt lat="37.7590112295" lon="-8.7054434605">
        <ele>95.79</ele>
        <time>2019-12-29T09:59:46Z</time>
      </trkpt>
      <trkpt lat="37.7590565756" lon="-8.7053863797">
        <ele>96.27</ele>
        <time>2019-12-29T09:59:51Z</time>
      </trkpt>
      <trkpt lat="37.7590978146" lon="-8.7053327356">
        <ele>97.23</ele>
        <time>2019-12-29T09:59:56Z</time>
      </trkpt>
      <trkpt lat="37.7591212839" lon="-8.7052950170">
        <ele>96.75</ele>
        <time>2019-12-29T09:59:59Z</time>
      </trkpt>
      <trkpt lat="37.7592124790" lon="-8.7051659357">
        <ele>97.23</ele>
        <time>2019-12-29T10:00:11Z</time>
      </trkpt>
      <trkpt lat="37.7592439950" lon="-8.7051361799">
        <ele>97.71</ele>
        <time>2019-12-29T10:00:14Z</time>
      </trkpt>
      <trkpt lat="37.7593432367" lon="-8.7050443981">
        <ele>98.19</ele>
        <time>2019-12-29T10:00:23Z</time>
      </trkpt>
      <trkpt lat="37.7593627665" lon="-8.7050293107">
        <ele>97.71</ele>
        <time>2019-12-29T10:00:25Z</time>
      </trkpt>
      <trkpt lat="37.7595190890" lon="-8.7049039174">
        <ele>99.63</ele>
        <time>2019-12-29T10:00:40Z</time>
      </trkpt>
      <trkpt lat="37.7595190890" lon="-8.7049039174">
        <ele>99.15</ele>
        <time>2019-12-29T10:00:44Z</time>
      </trkpt>
      <trkpt lat="37.7595803607" lon="-8.7048749160">
        <ele>99.15</ele>
        <time>2019-12-29T10:00:49Z</time>
      </trkpt>
      <trkpt lat="37.7597179078" lon="-8.7047864869">
        <ele>98.67</ele>
        <time>2019-12-29T10:01:02Z</time>
      </trkpt>
      <trkpt lat="37.7598008048" lon="-8.7046898436">
        <ele>98.67</ele>
        <time>2019-12-29T10:01:12Z</time>
      </trkpt>
      <trkpt lat="37.7598214243" lon="-8.7046677992">
        <ele>98.67</ele>
        <time>2019-12-29T10:01:14Z</time>
      </trkpt>
      <trkpt lat="37.7598949336" lon="-8.7046164181">
        <ele>98.67</ele>
        <time>2019-12-29T10:01:21Z</time>
      </trkpt>
      <trkpt lat="37.7599430457" lon="-8.7045749277">
        <ele>98.67</ele>
        <time>2019-12-29T10:01:26Z</time>
      </trkpt>
      <trkpt lat="37.7600104362" lon="-8.7045507878">
        <ele>98.67</ele>
        <time>2019-12-29T10:01:32Z</time>
      </trkpt>
      <trkpt lat="37.7600332350" lon="-8.7045476027">
        <ele>98.67</ele>
        <time>2019-12-29T10:01:34Z</time>
      </trkpt>
      <trkpt lat="37.7601837739" lon="-8.7044094689">
        <ele>99.63</ele>
        <time>2019-12-29T10:01:49Z</time>
      </trkpt>
      <trkpt lat="37.7602089196" lon="-8.7043868378">
        <ele>99.15</ele>
        <time>2019-12-29T10:01:52Z</time>
      </trkpt>
      <trkpt lat="37.7603286132" lon="-8.7042736821">
        <ele>99.63</ele>
        <time>2019-12-29T10:02:05Z</time>
      </trkpt>
      <trkpt lat="37.7604368236" lon="-8.7041862588">
        <ele>100.11</ele>
        <time>2019-12-29T10:02:17Z</time>
      </trkpt>
      <trkpt lat="37.7604649030" lon="-8.7041508034">
        <ele>100.11</ele>
        <time>2019-12-29T10:02:21Z</time>
      </trkpt>
      <trkpt lat="37.7604736201" lon="-8.7041261606">
        <ele>100.60</ele>
        <time>2019-12-29T10:02:23Z</time>
      </trkpt>
      <trkpt lat="37.7605281025" lon="-8.7039819919">
        <ele>100.60</ele>
        <time>2019-12-29T10:02:36Z</time>
      </trkpt>
      <trkpt lat="37.7605400048" lon="-8.7039775494">
        <ele>101.08</ele>
        <time>2019-12-29T10:02:37Z</time>
      </trkpt>
      <trkpt lat="37.7605583612" lon="-8.7039697543">
        <ele>101.08</ele>
        <time>2019-12-29T10:02:39Z</time>
      </trkpt>
      <trkpt lat="37.7605781425" lon="-8.7039773818">
        <ele>100.60</ele>
        <time>2019-12-29T10:02:41Z</time>
      </trkpt>
      <trkpt lat="37.7606016118" lon="-8.7039809860">
        <ele>101.56</ele>
        <time>2019-12-29T10:02:43Z</time>
      </trkpt>
      <trkpt lat="37.7606677450" lon="-8.7039948162">
        <ele>102.04</ele>
        <time>2019-12-29T10:02:50Z</time>
      </trkpt>
      <trkpt lat="37.7607273404" lon="-8.7040123343">
        <ele>103.00</ele>
        <time>2019-12-29T10:02:55Z</time>
      </trkpt>
      <trkpt lat="37.7607638855" lon="-8.7040216383">
        <ele>103.48</ele>
        <time>2019-12-29T10:02:59Z</time>
      </trkpt>
      <trkpt lat="37.7607857622" lon="-8.7040342111">
        <ele>103.96</ele>
        <time>2019-12-29T10:03:01Z</time>
      </trkpt>
      <trkpt lat="37.7608736046" lon="-8.7040557526">
        <ele>104.92</ele>
        <time>2019-12-29T10:03:09Z</time>
      </trkpt>
      <trkpt lat="37.7609481197" lon="-8.7041226402">
        <ele>104.92</ele>
        <time>2019-12-29T10:03:17Z</time>
      </trkpt>
      <trkpt lat="37.7609971538" lon="-8.7041482888">
        <ele>105.88</ele>
        <time>2019-12-29T10:03:22Z</time>
      </trkpt>
      <trkpt lat="37.7610969823" lon="-8.7042552419">
        <ele>107.32</ele>
        <time>2019-12-29T10:03:34Z</time>
      </trkpt>
      <trkpt lat="37.7612041030" lon="-8.7043072097">
        <ele>109.25</ele>
        <time>2019-12-29T10:03:44Z</time>
      </trkpt>
      <trkpt lat="37.7612103056" lon="-8.7043072935">
        <ele>109.25</ele>
        <time>2019-12-29T10:03:45Z</time>
      </trkpt>
      <trkpt lat="37.7612631116" lon="-8.7043430842">
        <ele>109.25</ele>
        <time>2019-12-29T10:03:50Z</time>
      </trkpt>
      <trkpt lat="37.7612978965" lon="-8.7043673079">
        <ele>109.73</ele>
        <time>2019-12-29T10:03:53Z</time>
      </trkpt>
      <trkpt lat="37.7613933664" lon="-8.7044158392">
        <ele>111.65</ele>
        <time>2019-12-29T10:04:02Z</time>
      </trkpt>
      <trkpt lat="37.7614248823" lon="-8.7044305075">
        <ele>111.65</ele>
        <time>2019-12-29T10:04:05Z</time>
      </trkpt>
      <trkpt lat="37.7615520358" lon="-8.7044693995">
        <ele>112.13</ele>
        <time>2019-12-29T10:04:15Z</time>
      </trkpt>
      <trkpt lat="37.7616095357" lon="-8.7044784520">
        <ele>113.09</ele>
        <time>2019-12-29T10:04:20Z</time>
      </trkpt>
      <trkpt lat="37.7616322506" lon="-8.7044866662">
        <ele>113.09</ele>
        <time>2019-12-29T10:04:22Z</time>
      </trkpt>
      <trkpt lat="37.7617252059" lon="-8.7044906896">
        <ele>114.05</ele>
        <time>2019-12-29T10:04:30Z</time>
      </trkpt>
      <trkpt lat="37.7617724799" lon="-8.7045088783">
        <ele>114.05</ele>
        <time>2019-12-29T10:04:34Z</time>
      </trkpt>
      <trkpt lat="37.7618148923" lon="-8.7045191042">
        <ele>115.01</ele>
        <time>2019-12-29T10:04:38Z</time>
      </trkpt>
      <trkpt lat="37.7618323267" lon="-8.7045296654">
        <ele>115.01</ele>
        <time>2019-12-29T10:04:40Z</time>
      </trkpt>
      <trkpt lat="37.7618639264" lon="-8.7045328505">
        <ele>115.50</ele>
        <time>2019-12-29T10:04:43Z</time>
      </trkpt>
      <trkpt lat="37.7619245276" lon="-8.7045464292">
        <ele>115.98</ele>
        <time>2019-12-29T10:04:48Z</time>
      </trkpt>
      <trkpt lat="37.7619741485" lon="-8.7045589183">
        <ele>116.94</ele>
        <time>2019-12-29T10:04:52Z</time>
      </trkpt>
      <trkpt lat="37.7620957699" lon="-8.7045430765">
        <ele>117.42</ele>
        <time>2019-12-29T10:05:03Z</time>
      </trkpt>
      <trkpt lat="37.7621775772" lon="-8.7045498658">
        <ele>118.38</ele>
        <time>2019-12-29T10:05:10Z</time>
      </trkpt>
      <trkpt lat="37.7623329777" lon="-8.7045409810">
        <ele>119.82</ele>
        <time>2019-12-29T10:05:24Z</time>
      </trkpt>
      <trkpt lat="37.7623544354" lon="-8.7045434117">
        <ele>120.30</ele>
        <time>2019-12-29T10:05:26Z</time>
      </trkpt>
      <trkpt lat="37.7624017932" lon="-8.7045435794">
        <ele>120.30</ele>
        <time>2019-12-29T10:05:30Z</time>
      </trkpt>
      <trkpt lat="37.7625384182" lon="-8.7045592535">
        <ele>120.78</ele>
        <time>2019-12-29T10:05:42Z</time>
      </trkpt>
      <trkpt lat="37.7625592053" lon="-8.7045623548">
        <ele>120.78</ele>
        <time>2019-12-29T10:05:44Z</time>
      </trkpt>
      <trkpt lat="37.7627255861" lon="-8.7045514584">
        <ele>121.26</ele>
        <time>2019-12-29T10:05:58Z</time>
      </trkpt>
      <trkpt lat="37.7628597803" lon="-8.7045724131">
        <ele>122.22</ele>
        <time>2019-12-29T10:06:09Z</time>
      </trkpt>
      <trkpt lat="37.7628778853" lon="-8.7045652885">
        <ele>122.22</ele>
        <time>2019-12-29T10:06:11Z</time>
      </trkpt>
      <trkpt lat="37.7629244048" lon="-8.7045982294">
        <ele>122.71</ele>
        <time>2019-12-29T10:06:15Z</time>
      </trkpt>
      <trkpt lat="37.7629744448" lon="-8.7046154961">
        <ele>122.71</ele>
        <time>2019-12-29T10:06:19Z</time>
      </trkpt>
      <trkpt lat="37.7631473634" lon="-8.7046338525">
        <ele>122.71</ele>
        <time>2019-12-29T10:06:33Z</time>
      </trkpt>
      <trkpt lat="37.7633202821" lon="-8.7046254706">
        <ele>123.19</ele>
        <time>2019-12-29T10:06:48Z</time>
      </trkpt>
      <trkpt lat="37.7633318491" lon="-8.7046186812">
        <ele>122.71</ele>
        <time>2019-12-29T10:06:49Z</time>
      </trkpt>
      <trkpt lat="37.7633665502" lon="-8.7046110537">
        <ele>122.71</ele>
        <time>2019-12-29T10:06:52Z</time>
      </trkpt>
      <trkpt lat="37.7635227051" lon="-8.7046040967">
        <ele>123.67</ele>
        <time>2019-12-29T10:07:05Z</time>
      </trkpt>
      <trkpt lat="37.7636370342" lon="-8.7046799529">
        <ele>124.63</ele>
        <time>2019-12-29T10:07:17Z</time>
      </trkpt>
      <trkpt lat="37.7636467572" lon="-8.7046865746">
        <ele>124.63</ele>
        <time>2019-12-29T10:07:18Z</time>
      </trkpt>
      <trkpt lat="37.7637237869" lon="-8.7047099601">
        <ele>125.11</ele>
        <time>2019-12-29T10:07:25Z</time>
      </trkpt>
      <trkpt lat="37.7638676204" lon="-8.7047376204">
        <ele>126.55</ele>
        <time>2019-12-29T10:07:38Z</time>
      </trkpt>
      <trkpt lat="37.7638815343" lon="-8.7047396321">
        <ele>126.55</ele>
        <time>2019-12-29T10:07:39Z</time>
      </trkpt>
      <trkpt lat="37.7640547045" lon="-8.7047543004">
        <ele>128.95</ele>
        <time>2019-12-29T10:07:53Z</time>
      </trkpt>
      <trkpt lat="37.7642048243" lon="-8.7047605030">
        <ele>129.92</ele>
        <time>2019-12-29T10:08:05Z</time>
      </trkpt>
      <trkpt lat="37.7642801777" lon="-8.7047702260">
        <ele>130.88</ele>
        <time>2019-12-29T10:08:12Z</time>
      </trkpt>
      <trkpt lat="37.7643572073" lon="-8.7047811225">
        <ele>131.36</ele>
        <time>2019-12-29T10:08:19Z</time>
      </trkpt>
      <trkpt lat="37.7644592151" lon="-8.7048273068">
        <ele>131.84</ele>
        <time>2019-12-29T10:08:28Z</time>
      </trkpt>
      <trkpt lat="37.7646209020" lon="-8.7049228605">
        <ele>134.24</ele>
        <time>2019-12-29T10:08:43Z</time>
      </trkpt>
      <trkpt lat="37.7646726184" lon="-8.7050007284">
        <ele>135.20</ele>
        <time>2019-12-29T10:08:50Z</time>
      </trkpt>
      <trkpt lat="37.7646850236" lon="-8.7050449848">
        <ele>135.68</ele>
        <time>2019-12-29T10:08:53Z</time>
      </trkpt>
      <trkpt lat="37.7647430263" lon="-8.7051375210">
        <ele>136.64</ele>
        <time>2019-12-29T10:09:02Z</time>
      </trkpt>
      <trkpt lat="37.7647576109" lon="-8.7051509321">
        <ele>137.13</ele>
        <time>2019-12-29T10:09:04Z</time>
      </trkpt>
      <trkpt lat="37.7648110874" lon="-8.7052117847">
        <ele>138.57</ele>
        <time>2019-12-29T10:09:12Z</time>
      </trkpt>
      <trkpt lat="37.7648386639" lon="-8.7052431330">
        <ele>139.53</ele>
        <time>2019-12-29T10:09:15Z</time>
      </trkpt>
      <trkpt lat="37.7648724429" lon="-8.7053636648">
        <ele>139.53</ele>
        <time>2019-12-29T10:09:23Z</time>
      </trkpt>
      <trkpt lat="37.7648976725" lon="-8.7054074183">
        <ele>140.49</ele>
        <time>2019-12-29T10:09:27Z</time>
      </trkpt>
      <trkpt lat="37.7649043780" lon="-8.7054555304">
        <ele>141.93</ele>
        <time>2019-12-29T10:09:30Z</time>
      </trkpt>
      <trkpt lat="37.7649294399" lon="-8.7055049837">
        <ele>142.89</ele>
        <time>2019-12-29T10:09:35Z</time>
      </trkpt>
      <trkpt lat="37.7649355587" lon="-8.7055250164">
        <ele>142.89</ele>
        <time>2019-12-29T10:09:36Z</time>
      </trkpt>
      <trkpt lat="37.7649223991" lon="-8.7055771518">
        <ele>143.85</ele>
        <time>2019-12-29T10:09:39Z</time>
      </trkpt>
      <trkpt lat="37.7649585251" lon="-8.7056994438">
        <ele>144.82</ele>
        <time>2019-12-29T10:09:47Z</time>
      </trkpt>
      <trkpt lat="37.7649799827" lon="-8.7057960872">
        <ele>146.26</ele>
        <time>2019-12-29T10:09:54Z</time>
      </trkpt>
      <trkpt lat="37.7649582736" lon="-8.7058975920">
        <ele>147.22</ele>
        <time>2019-12-29T10:10:01Z</time>
      </trkpt>
      <trkpt lat="37.7649648115" lon="-8.7059240788">
        <ele>147.70</ele>
        <time>2019-12-29T10:10:03Z</time>
      </trkpt>
      <trkpt lat="37.7649580222" lon="-8.7059638090">
        <ele>148.18</ele>
        <time>2019-12-29T10:10:06Z</time>
      </trkpt>
      <trkpt lat="37.7649628837" lon="-8.7060063053">
        <ele>148.66</ele>
        <time>2019-12-29T10:10:10Z</time>
      </trkpt>
      <trkpt lat="37.7649717685" lon="-8.7060353905">
        <ele>149.14</ele>
        <time>2019-12-29T10:10:12Z</time>
      </trkpt>
      <trkpt lat="37.7649602853" lon="-8.7061016914">
        <ele>149.14</ele>
        <time>2019-12-29T10:10:16Z</time>
      </trkpt>
      <trkpt lat="37.7649637219" lon="-8.7061590236">
        <ele>149.62</ele>
        <time>2019-12-29T10:10:21Z</time>
      </trkpt>
      <trkpt lat="37.7650035359" lon="-8.7062197924">
        <ele>150.10</ele>
        <time>2019-12-29T10:10:26Z</time>
      </trkpt>
      <trkpt lat="37.7650265023" lon="-8.7063353788">
        <ele>150.58</ele>
        <time>2019-12-29T10:10:33Z</time>
      </trkpt>
      <trkpt lat="37.7650549170" lon="-8.7063621171">
        <ele>151.54</ele>
        <time>2019-12-29T10:10:36Z</time>
      </trkpt>
      <trkpt lat="37.7650995087" lon="-8.7065196130">
        <ele>152.51</ele>
        <time>2019-12-29T10:10:46Z</time>
      </trkpt>
      <trkpt lat="37.7651439328" lon="-8.7065976486">
        <ele>153.47</ele>
        <time>2019-12-29T10:10:52Z</time>
      </trkpt>
      <trkpt lat="37.7651953138" lon="-8.7066972256">
        <ele>155.87</ele>
        <time>2019-12-29T10:11:00Z</time>
      </trkpt>
      <trkpt lat="37.7653544024" lon="-8.7067163363">
        <ele>156.35</ele>
        <time>2019-12-29T10:11:15Z</time>
      </trkpt>
      <trkpt lat="37.7653652150" lon="-8.7067084573">
        <ele>157.31</ele>
        <time>2019-12-29T10:11:16Z</time>
      </trkpt>
      <trkpt lat="37.7654290851" lon="-8.7066600937">
        <ele>157.79</ele>
        <time>2019-12-29T10:11:22Z</time>
      </trkpt>
      <trkpt lat="37.7654647920" lon="-8.7066457607">
        <ele>157.31</ele>
        <time>2019-12-29T10:11:25Z</time>
      </trkpt>
      <trkpt lat="37.7656326815" lon="-8.7065706588">
        <ele>158.27</ele>
        <time>2019-12-29T10:11:39Z</time>
      </trkpt>
      <trkpt lat="37.7657373715" lon="-8.7065195292">
        <ele>157.79</ele>
        <time>2019-12-29T10:11:48Z</time>
      </trkpt>
      <trkpt lat="37.7658027504" lon="-8.7064960599">
        <ele>158.27</ele>
        <time>2019-12-29T10:11:53Z</time>
      </trkpt>
      <trkpt lat="37.7659475058" lon="-8.7064035237">
        <ele>159.24</ele>
        <time>2019-12-29T10:12:06Z</time>
      </trkpt>
      <trkpt lat="37.7660614997" lon="-8.7063333672">
        <ele>160.68</ele>
        <time>2019-12-29T10:12:16Z</time>
      </trkpt>
      <trkpt lat="37.7661356796" lon="-8.7063108198">
        <ele>162.12</ele>
        <time>2019-12-29T10:12:22Z</time>
      </trkpt>
      <trkpt lat="37.7661941852" lon="-8.7062873505">
        <ele>163.08</ele>
        <time>2019-12-29T10:12:27Z</time>
      </trkpt>
      <trkpt lat="37.7663438860" lon="-8.7062460277">
        <ele>164.52</ele>
        <time>2019-12-29T10:12:40Z</time>
      </trkpt>
      <trkpt lat="37.7663675230" lon="-8.7062275037">
        <ele>165.00</ele>
        <time>2019-12-29T10:12:42Z</time>
      </trkpt>
      <trkpt lat="37.7663908247" lon="-8.7062218040">
        <ele>165.00</ele>
        <time>2019-12-29T10:12:44Z</time>
      </trkpt>
      <trkpt lat="37.7664494980" lon="-8.7062035315">
        <ele>166.45</ele>
        <time>2019-12-29T10:12:49Z</time>
      </trkpt>
      <trkpt lat="37.7665796690" lon="-8.7061895337">
        <ele>167.41</ele>
        <time>2019-12-29T10:12:59Z</time>
      </trkpt>
      <trkpt lat="37.7667276096" lon="-8.7061202992">
        <ele>168.85</ele>
        <time>2019-12-29T10:13:13Z</time>
      </trkpt>
      <trkpt lat="37.7667402662" lon="-8.7061163597">
        <ele>168.85</ele>
        <time>2019-12-29T10:13:14Z</time>
      </trkpt>
      <trkpt lat="37.7668906376" lon="-8.7060839217">
        <ele>170.77</ele>
        <time>2019-12-29T10:13:26Z</time>
      </trkpt>
      <trkpt lat="37.7669188008" lon="-8.7060700078">
        <ele>171.25</ele>
        <time>2019-12-29T10:13:29Z</time>
      </trkpt>
      <trkpt lat="37.7670474630" lon="-8.7060630508">
        <ele>171.73</ele>
        <time>2019-12-29T10:13:40Z</time>
      </trkpt>
      <trkpt lat="37.7672142629" lon="-8.7060633861">
        <ele>174.62</ele>
        <time>2019-12-29T10:13:53Z</time>
      </trkpt>
      <trkpt lat="37.7673015185" lon="-8.7060729414">
        <ele>175.58</ele>
        <time>2019-12-29T10:14:01Z</time>
      </trkpt>
      <trkpt lat="37.7674339525" lon="-8.7060741987">
        <ele>176.54</ele>
        <time>2019-12-29T10:14:12Z</time>
      </trkpt>
      <trkpt lat="37.7674672287" lon="-8.7060918845">
        <ele>177.02</ele>
        <time>2019-12-29T10:14:15Z</time>
      </trkpt>
      <trkpt lat="37.7675368823" lon="-8.7060763780">
        <ele>177.02</ele>
        <time>2019-12-29T10:14:22Z</time>
      </trkpt>
      <trkpt lat="37.7676865831" lon="-8.7060512323">
        <ele>177.98</ele>
        <time>2019-12-29T10:14:34Z</time>
      </trkpt>
      <trkpt lat="37.7678006608" lon="-8.7059835065">
        <ele>178.46</ele>
        <time>2019-12-29T10:14:45Z</time>
      </trkpt>
      <trkpt lat="37.7678582445" lon="-8.7059570197">
        <ele>179.42</ele>
        <time>2019-12-29T10:14:55Z</time>
      </trkpt>
      <trkpt lat="37.7678637765" lon="-8.7059301976">
        <ele>178.94</ele>
        <time>2019-12-29T10:14:57Z</time>
      </trkpt>
      <trkpt lat="37.7679010760" lon="-8.7058347277">
        <ele>179.90</ele>
        <time>2019-12-29T10:15:04Z</time>
      </trkpt>
      <trkpt lat="37.7679175045" lon="-8.7057984341">
        <ele>179.90</ele>
        <time>2019-12-29T10:15:07Z</time>
      </trkpt>
      <trkpt lat="37.7679222822" lon="-8.7057663314">
        <ele>179.90</ele>
        <time>2019-12-29T10:15:09Z</time>
      </trkpt>
      <trkpt lat="37.7679491881" lon="-8.7057076581">
        <ele>180.38</ele>
        <time>2019-12-29T10:15:13Z</time>
      </trkpt>
      <trkpt lat="37.7679837216" lon="-8.7056344002">
        <ele>180.87</ele>
        <time>2019-12-29T10:15:19Z</time>
      </trkpt>
      <trkpt lat="37.7680216916" lon="-8.7055491563">
        <ele>181.35</ele>
        <time>2019-12-29T10:15:25Z</time>
      </trkpt>
      <trkpt lat="37.7680603322" lon="-8.7054526806">
        <ele>181.83</ele>
        <time>2019-12-29T10:15:34Z</time>
      </trkpt>
      <trkpt lat="37.7682084404" lon="-8.7054829393">
        <ele>182.79</ele>
        <time>2019-12-29T10:15:47Z</time>
      </trkpt>
      <trkpt lat="37.7683537826" lon="-8.7054884713">
        <ele>182.31</ele>
        <time>2019-12-29T10:15:59Z</time>
      </trkpt>
      <trkpt lat="37.7684785053" lon="-8.7055609748">
        <ele>182.31</ele>
        <time>2019-12-29T10:16:10Z</time>
      </trkpt>
      <trkpt lat="37.7685301378" lon="-8.7055659201">
        <ele>181.83</ele>
        <time>2019-12-29T10:16:14Z</time>
      </trkpt>
      <trkpt lat="37.7686224226" lon="-8.7055524252">
        <ele>181.83</ele>
        <time>2019-12-29T10:16:23Z</time>
      </trkpt>
      <trkpt lat="37.7687696926" lon="-8.7054867111">
        <ele>180.87</ele>
        <time>2019-12-29T10:16:35Z</time>
      </trkpt>
      <trkpt lat="37.7689229138" lon="-8.7054465618">
        <ele>179.42</ele>
        <time>2019-12-29T10:16:48Z</time>
      </trkpt>
      <trkpt lat="37.7690894622" lon="-8.7054854538">
        <ele>178.94</ele>
        <time>2019-12-29T10:17:02Z</time>
      </trkpt>
      <trkpt lat="37.7691705152" lon="-8.7055234239">
        <ele>178.94</ele>
        <time>2019-12-29T10:17:10Z</time>
      </trkpt>
      <trkpt lat="37.7692440245" lon="-8.7055167183">
        <ele>178.94</ele>
        <time>2019-12-29T10:17:16Z</time>
      </trkpt>
      <trkpt lat="37.7693972457" lon="-8.7054643314">
        <ele>178.46</ele>
        <time>2019-12-29T10:17:29Z</time>
      </trkpt>
      <trkpt lat="37.7694323659" lon="-8.7053033151">
        <ele>177.98</ele>
        <time>2019-12-29T10:17:41Z</time>
      </trkpt>
      <trkpt lat="37.7694075555" lon="-8.7051183265">
        <ele>177.50</ele>
        <time>2019-12-29T10:17:53Z</time>
      </trkpt>
      <trkpt lat="37.7694140095" lon="-8.7050029077">
        <ele>177.02</ele>
        <time>2019-12-29T10:18:01Z</time>
      </trkpt>
      <trkpt lat="37.7695251536" lon="-8.7048326712">
        <ele>177.50</ele>
        <time>2019-12-29T10:18:15Z</time>
      </trkpt>
      <trkpt lat="37.7695364691" lon="-8.7048225291">
        <ele>177.50</ele>
        <time>2019-12-29T10:18:16Z</time>
      </trkpt>
      <trkpt lat="37.7696278319" lon="-8.7047795299">
        <ele>177.98</ele>
        <time>2019-12-29T10:18:29Z</time>
      </trkpt>
      <trkpt lat="37.7696278319" lon="-8.7047795299">
        <ele>178.46</ele>
        <time>2019-12-29T10:18:38Z</time>
      </trkpt>
      <trkpt lat="37.7696412429" lon="-8.7047585752">
        <ele>177.98</ele>
        <time>2019-12-29T10:18:40Z</time>
      </trkpt>
      <trkpt lat="37.7696728427" lon="-8.7047218625">
        <ele>177.50</ele>
        <time>2019-12-29T10:18:44Z</time>
      </trkpt>
      <trkpt lat="37.7696929593" lon="-8.7046831381">
        <ele>177.98</ele>
        <time>2019-12-29T10:18:47Z</time>
      </trkpt>
      <trkpt lat="37.7697189432" lon="-8.7046324275">
        <ele>177.98</ele>
        <time>2019-12-29T10:18:51Z</time>
      </trkpt>
      <trkpt lat="37.7696880139" lon="-8.7044933718">
        <ele>178.94</ele>
        <time>2019-12-29T10:19:01Z</time>
      </trkpt>
      <trkpt lat="37.7696297597" lon="-8.7043681461">
        <ele>179.90</ele>
        <time>2019-12-29T10:19:10Z</time>
      </trkpt>
      <trkpt lat="37.7695963159" lon="-8.7042843271">
        <ele>179.42</ele>
        <time>2019-12-29T10:19:17Z</time>
      </trkpt>
      <trkpt lat="37.7695632912" lon="-8.7042070460">
        <ele>179.42</ele>
        <time>2019-12-29T10:19:23Z</time>
      </trkpt>
      <trkpt lat="37.7695264947" lon="-8.7041486241">
        <ele>178.46</ele>
        <time>2019-12-29T10:19:28Z</time>
      </trkpt>
      <trkpt lat="37.7694953140" lon="-8.7040932197">
        <ele>178.94</ele>
        <time>2019-12-29T10:19:32Z</time>
      </trkpt>
      <trkpt lat="37.7694586013" lon="-8.7040362228">
        <ele>179.42</ele>
        <time>2019-12-29T10:19:37Z</time>
      </trkpt>
      <trkpt lat="37.7694264986" lon="-8.7039122544">
        <ele>179.90</ele>
        <time>2019-12-29T10:19:46Z</time>
      </trkpt>
      <trkpt lat="37.7694161050" lon="-8.7038498092">
        <ele>179.90</ele>
        <time>2019-12-29T10:19:51Z</time>
      </trkpt>
      <trkpt lat="37.7694228943" lon="-8.7038218975">
        <ele>179.90</ele>
        <time>2019-12-29T10:19:53Z</time>
      </trkpt>
      <trkpt lat="37.7694564220" lon="-8.7037644815">
        <ele>179.42</ele>
        <time>2019-12-29T10:19:58Z</time>
      </trkpt>
      <trkpt lat="37.7694747783" lon="-8.7037294451">
        <ele>178.94</ele>
        <time>2019-12-29T10:20:01Z</time>
      </trkpt>
      <trkpt lat="37.7696208749" lon="-8.7036208995">
        <ele>179.90</ele>
        <time>2019-12-29T10:20:15Z</time>
      </trkpt>
      <trkpt lat="37.7696506307" lon="-8.7035975978">
        <ele>179.42</ele>
        <time>2019-12-29T10:20:18Z</time>
      </trkpt>
      <trkpt lat="37.7697044425" lon="-8.7035427801">
        <ele>179.90</ele>
        <time>2019-12-29T10:20:24Z</time>
      </trkpt>
      <trkpt lat="37.7697399817" lon="-8.7035012897">
        <ele>180.38</ele>
        <time>2019-12-29T10:20:27Z</time>
      </trkpt>
      <trkpt lat="37.7698314283" lon="-8.7033583783">
        <ele>180.87</ele>
        <time>2019-12-29T10:20:40Z</time>
      </trkpt>
      <trkpt lat="37.7698609326" lon="-8.7033147085">
        <ele>180.38</ele>
        <time>2019-12-29T10:20:44Z</time>
      </trkpt>
      <trkpt lat="37.7699415665" lon="-8.7031874713">
        <ele>179.90</ele>
        <time>2019-12-29T10:20:56Z</time>
      </trkpt>
      <trkpt lat="37.7700042631" lon="-8.7030842900">
        <ele>178.94</ele>
        <time>2019-12-29T10:21:04Z</time>
      </trkpt>
      <trkpt lat="37.7700640261" lon="-8.7030286342">
        <ele>177.98</ele>
        <time>2019-12-29T10:21:10Z</time>
      </trkpt>
      <trkpt lat="37.7701719850" lon="-8.7030485831">
        <ele>178.94</ele>
        <time>2019-12-29T10:21:21Z</time>
      </trkpt>
      <trkpt lat="37.7701910958" lon="-8.7030641735">
        <ele>178.46</ele>
        <time>2019-12-29T10:21:23Z</time>
      </trkpt>
      <trkpt lat="37.7703346778" lon="-8.7032082584">
        <ele>176.54</ele>
        <time>2019-12-29T10:21:39Z</time>
      </trkpt>
      <trkpt lat="37.7704404574" lon="-8.7033156306">
        <ele>176.54</ele>
        <time>2019-12-29T10:21:51Z</time>
      </trkpt>
      <trkpt lat="37.7704702970" lon="-8.7033456378">
        <ele>176.06</ele>
        <time>2019-12-29T10:21:54Z</time>
      </trkpt>
      <trkpt lat="37.7706044074" lon="-8.7034784909">
        <ele>174.62</ele>
        <time>2019-12-29T10:22:09Z</time>
      </trkpt>
      <trkpt lat="37.7706338279" lon="-8.7035037205">
        <ele>174.14</ele>
        <time>2019-12-29T10:22:21Z</time>
      </trkpt>
      <trkpt lat="37.7706338279" lon="-8.7035037205">
        <ele>174.14</ele>
        <time>2019-12-29T10:22:31Z</time>
      </trkpt>
      <trkpt lat="37.7706611529" lon="-8.7035192270">
        <ele>173.66</ele>
        <time>2019-12-29T10:22:34Z</time>
      </trkpt>
      <trkpt lat="37.7707155515" lon="-8.7035506591">
        <ele>173.66</ele>
        <time>2019-12-29T10:22:39Z</time>
      </trkpt>
      <trkpt lat="37.7707803436" lon="-8.7035679258">
        <ele>172.21</ele>
        <time>2019-12-29T10:22:45Z</time>
      </trkpt>
      <trkpt lat="37.7709549386" lon="-8.7035067379">
        <ele>170.29</ele>
        <time>2019-12-29T10:23:00Z</time>
      </trkpt>
      <trkpt lat="37.7711064834" lon="-8.7033699453">
        <ele>169.81</ele>
        <time>2019-12-29T10:23:15Z</time>
      </trkpt>
      <trkpt lat="37.7711449564" lon="-8.7033100985">
        <ele>169.33</ele>
        <time>2019-12-29T10:23:20Z</time>
      </trkpt>
      <trkpt lat="37.7711691801" lon="-8.7032572925">
        <ele>168.37</ele>
        <time>2019-12-29T10:23:24Z</time>
      </trkpt>
      <trkpt lat="37.7712403424" lon="-8.7030635867">
        <ele>168.37</ele>
        <time>2019-12-29T10:23:38Z</time>
      </trkpt>
      <trkpt lat="37.7712654043" lon="-8.7030281313">
        <ele>167.89</ele>
        <time>2019-12-29T10:23:42Z</time>
      </trkpt>
      <trkpt lat="37.7712897118" lon="-8.7029916700">
        <ele>167.89</ele>
        <time>2019-12-29T10:23:45Z</time>
      </trkpt>
      <trkpt lat="37.7714006882" lon="-8.7028698809">
        <ele>166.93</ele>
        <time>2019-12-29T10:23:57Z</time>
      </trkpt>
      <trkpt lat="37.7714799810" lon="-8.7027796917">
        <ele>165.96</ele>
        <time>2019-12-29T10:24:05Z</time>
      </trkpt>
      <trkpt lat="37.7715125866" lon="-8.7027509417">
        <ele>165.48</ele>
        <time>2019-12-29T10:24:08Z</time>
      </trkpt>
      <trkpt lat="37.7715722658" lon="-8.7027071882">
        <ele>165.00</ele>
        <time>2019-12-29T10:24:15Z</time>
      </trkpt>
      <trkpt lat="37.7716451883" lon="-8.7026728224">
        <ele>164.52</ele>
        <time>2019-12-29T10:24:22Z</time>
      </trkpt>
      <trkpt lat="37.7717840765" lon="-8.7026154064">
        <ele>165.48</ele>
        <time>2019-12-29T10:24:35Z</time>
      </trkpt>
      <trkpt lat="37.7718565799" lon="-8.7026555557">
        <ele>165.96</ele>
        <time>2019-12-29T10:24:43Z</time>
      </trkpt>
      <trkpt lat="37.7718886826" lon="-8.7027059309">
        <ele>165.96</ele>
        <time>2019-12-29T10:24:48Z</time>
      </trkpt>
      <trkpt lat="37.7719116490" lon="-8.7027555518">
        <ele>165.96</ele>
        <time>2019-12-29T10:24:52Z</time>
      </trkpt>
      <trkpt lat="37.7719175164" lon="-8.7027841341">
        <ele>165.96</ele>
        <time>2019-12-29T10:24:54Z</time>
      </trkpt>
      <trkpt lat="37.7719367947" lon="-8.7028296478">
        <ele>166.45</ele>
        <time>2019-12-29T10:24:58Z</time>
      </trkpt>
      <trkpt lat="37.7719596773" lon="-8.7028599065">
        <ele>166.93</ele>
        <time>2019-12-29T10:25:01Z</time>
      </trkpt>
      <trkpt lat="37.7720178477" lon="-8.7029195018">
        <ele>167.89</ele>
        <time>2019-12-29T10:25:07Z</time>
      </trkpt>
      <trkpt lat="37.7720731683" lon="-8.7029416300">
        <ele>168.37</ele>
        <time>2019-12-29T10:25:13Z</time>
      </trkpt>
      <trkpt lat="37.7720940392" lon="-8.7029577233">
        <ele>168.85</ele>
        <time>2019-12-29T10:25:15Z</time>
      </trkpt>
      <trkpt lat="37.7721262258" lon="-8.7030110322">
        <ele>169.33</ele>
        <time>2019-12-29T10:25:20Z</time>
      </trkpt>
      <trkpt lat="37.7722116373" lon="-8.7030666042">
        <ele>171.25</ele>
        <time>2019-12-29T10:25:28Z</time>
      </trkpt>
      <trkpt lat="37.7722260542" lon="-8.7030897383">
        <ele>171.73</ele>
        <time>2019-12-29T10:25:30Z</time>
      </trkpt>
      <trkpt lat="37.7722520381" lon="-8.7031080946">
        <ele>171.73</ele>
        <time>2019-12-29T10:25:33Z</time>
      </trkpt>
      <trkpt lat="37.7722817939" lon="-8.7031301390">
        <ele>171.73</ele>
        <time>2019-12-29T10:25:36Z</time>
      </trkpt>
      <trkpt lat="37.7722936124" lon="-8.7031531055">
        <ele>171.73</ele>
        <time>2019-12-29T10:25:38Z</time>
      </trkpt>
      <trkpt lat="37.7723648585" lon="-8.7032457255">
        <ele>172.69</ele>
        <time>2019-12-29T10:25:49Z</time>
      </trkpt>
      <trkpt lat="37.7724428102" lon="-8.7033166364">
        <ele>174.62</ele>
        <time>2019-12-29T10:25:59Z</time>
      </trkpt>
      <trkpt lat="37.7724699676" lon="-8.7033191510">
        <ele>174.62</ele>
        <time>2019-12-29T10:26:02Z</time>
      </trkpt>
      <trkpt lat="37.7725828718" lon="-8.7032790016">
        <ele>175.58</ele>
        <time>2019-12-29T10:26:13Z</time>
      </trkpt>
      <trkpt lat="37.7726572193" lon="-8.7031745631">
        <ele>176.54</ele>
        <time>2019-12-29T10:26:23Z</time>
      </trkpt>
      <trkpt lat="37.7726983745" lon="-8.7030350044">
        <ele>178.46</ele>
        <time>2019-12-29T10:26:35Z</time>
      </trkpt>
      <trkpt lat="37.7727195807" lon="-8.7029817794">
        <ele>179.42</ele>
        <time>2019-12-29T10:26:39Z</time>
      </trkpt>
      <trkpt lat="37.7727208380" lon="-8.7029434741">
        <ele>179.42</ele>
        <time>2019-12-29T10:26:42Z</time>
      </trkpt>
      <trkpt lat="37.7727749012" lon="-8.7028429750">
        <ele>181.35</ele>
        <time>2019-12-29T10:26:51Z</time>
      </trkpt>
      <trkpt lat="37.7728510927" lon="-8.7026995607">
        <ele>183.75</ele>
        <time>2019-12-29T10:27:04Z</time>
      </trkpt>
      <trkpt lat="37.7728836145" lon="-8.7026573997">
        <ele>183.75</ele>
        <time>2019-12-29T10:27:09Z</time>
      </trkpt>
      <trkpt lat="37.7729171421" lon="-8.7026052643">
        <ele>184.71</ele>
        <time>2019-12-29T10:27:14Z</time>
      </trkpt>
      <trkpt lat="37.7729708701" lon="-8.7025692221">
        <ele>185.67</ele>
        <time>2019-12-29T10:27:19Z</time>
      </trkpt>
      <trkpt lat="37.7729890589" lon="-8.7025521230">
        <ele>186.15</ele>
        <time>2019-12-29T10:27:22Z</time>
      </trkpt>
      <trkpt lat="37.7730458882" lon="-8.7025185116">
        <ele>187.11</ele>
        <time>2019-12-29T10:27:27Z</time>
      </trkpt>
      <trkpt lat="37.7731228340" lon="-8.7024653703">
        <ele>188.56</ele>
        <time>2019-12-29T10:27:35Z</time>
      </trkpt>
      <trkpt lat="37.7732487302" lon="-8.7023799587">
        <ele>190.96</ele>
        <time>2019-12-29T10:27:49Z</time>
      </trkpt>
      <trkpt lat="37.7732577827" lon="-8.7023795396">
        <ele>190.96</ele>
        <time>2019-12-29T10:27:50Z</time>
      </trkpt>
      <trkpt lat="37.7732800785" lon="-8.7023748457">
        <ele>191.92</ele>
        <time>2019-12-29T10:27:52Z</time>
      </trkpt>
      <trkpt lat="37.7733729500" lon="-8.7023111433">
        <ele>193.36</ele>
        <time>2019-12-29T10:28:03Z</time>
      </trkpt>
      <trkpt lat="37.7734133508" lon="-8.7022953015">
        <ele>194.32</ele>
        <time>2019-12-29T10:28:07Z</time>
      </trkpt>
      <trkpt lat="37.7734358981" lon="-8.7022794597">
        <ele>194.80</ele>
        <time>2019-12-29T10:28:10Z</time>
      </trkpt>
      <trkpt lat="37.7734562661" lon="-8.7022764422">
        <ele>194.80</ele>
        <time>2019-12-29T10:28:12Z</time>
      </trkpt>
      <trkpt lat="37.7734877821" lon="-8.7022595946">
        <ele>195.28</ele>
        <time>2019-12-29T10:28:15Z</time>
      </trkpt>
      <trkpt lat="37.7735189628" lon="-8.7022530567">
        <ele>195.28</ele>
        <time>2019-12-29T10:28:18Z</time>
      </trkpt>
      <trkpt lat="37.7735686675" lon="-8.7022393104">
        <ele>195.77</ele>
        <time>2019-12-29T10:28:23Z</time>
      </trkpt>
      <trkpt lat="37.7735981718" lon="-8.7022232171">
        <ele>196.73</ele>
        <time>2019-12-29T10:28:26Z</time>
      </trkpt>
      <trkpt lat="37.7736230660" lon="-8.7022250611">
        <ele>197.21</ele>
        <time>2019-12-29T10:28:28Z</time>
      </trkpt>
      <trkpt lat="37.7736717649" lon="-8.7021807209">
        <ele>197.21</ele>
        <time>2019-12-29T10:28:34Z</time>
      </trkpt>
      <trkpt lat="37.7737167757" lon="-8.7021103967">
        <ele>198.17</ele>
        <time>2019-12-29T10:28:40Z</time>
      </trkpt>
      <trkpt lat="37.7737208828" lon="-8.7020502985">
        <ele>199.13</ele>
        <time>2019-12-29T10:28:45Z</time>
      </trkpt>
      <trkpt lat="37.7737118304" lon="-8.7019836623">
        <ele>201.05</ele>
        <time>2019-12-29T10:28:50Z</time>
      </trkpt>
      <trkpt lat="37.7736804821" lon="-8.7019223906">
        <ele>201.53</ele>
        <time>2019-12-29T10:28:56Z</time>
      </trkpt>
      <trkpt lat="37.7736548334" lon="-8.7018879410">
        <ele>201.53</ele>
        <time>2019-12-29T10:28:59Z</time>
      </trkpt>
      <trkpt lat="37.7736380696" lon="-8.7018525694">
        <ele>202.01</ele>
        <time>2019-12-29T10:29:02Z</time>
      </trkpt>
      <trkpt lat="37.7735981718" lon="-8.7017988414">
        <ele>202.98</ele>
        <time>2019-12-29T10:29:08Z</time>
      </trkpt>
      <trkpt lat="37.7735812403" lon="-8.7017956562">
        <ele>202.98</ele>
        <time>2019-12-29T10:29:22Z</time>
      </trkpt>
      <trkpt lat="37.7735772170" lon="-8.7017781381">
        <ele>202.49</ele>
        <time>2019-12-29T10:29:35Z</time>
      </trkpt>
      <trkpt lat="37.7735565137" lon="-8.7017431855">
        <ele>203.46</ele>
        <time>2019-12-29T10:29:38Z</time>
      </trkpt>
      <trkpt lat="37.7735462040" lon="-8.7016938161">
        <ele>203.46</ele>
        <time>2019-12-29T10:29:42Z</time>
      </trkpt>
      <trkpt lat="37.7735234890" lon="-8.7016477156">
        <ele>203.94</ele>
        <time>2019-12-29T10:29:46Z</time>
      </trkpt>
      <trkpt lat="37.7734964155" lon="-8.7015369907">
        <ele>204.90</ele>
        <time>2019-12-29T10:29:56Z</time>
      </trkpt>
      <trkpt lat="37.7735462040" lon="-8.7014197279">
        <ele>207.30</ele>
        <time>2019-12-29T10:30:08Z</time>
      </trkpt>
      <trkpt lat="37.7736342978" lon="-8.7013938278">
        <ele>209.22</ele>
        <time>2019-12-29T10:30:16Z</time>
      </trkpt>
      <trkpt lat="37.7737672348" lon="-8.7013281975">
        <ele>210.67</ele>
        <time>2019-12-29T10:30:30Z</time>
      </trkpt>
      <trkpt lat="37.7738857549" lon="-8.7012737151">
        <ele>212.59</ele>
        <time>2019-12-29T10:30:42Z</time>
      </trkpt>
      <trkpt lat="37.7739419136" lon="-8.7012651656">
        <ele>214.03</ele>
        <time>2019-12-29T10:30:56Z</time>
      </trkpt>
      <trkpt lat="37.7739443444" lon="-8.7012634892">
        <ele>213.55</ele>
        <time>2019-12-29T10:31:11Z</time>
      </trkpt>
      <trkpt lat="37.7739476971" lon="-8.7012656685">
        <ele>213.55</ele>
        <time>2019-12-29T10:31:13Z</time>
      </trkpt>
      <trkpt lat="37.7739580069" lon="-8.7012567837">
        <ele>213.55</ele>
        <time>2019-12-29T10:31:15Z</time>
      </trkpt>
      <trkpt lat="37.7739819791" lon="-8.7012334820">
        <ele>214.03</ele>
        <time>2019-12-29T10:31:18Z</time>
      </trkpt>
      <trkpt lat="37.7740254812" lon="-8.7012054026">
        <ele>214.99</ele>
        <time>2019-12-29T10:31:22Z</time>
      </trkpt>
      <trkpt lat="37.7740470227" lon="-8.7011988647">
        <ele>214.99</ele>
        <time>2019-12-29T10:31:24Z</time>
      </trkpt>
      <trkpt lat="37.7741759364" lon="-8.7011199910">
        <ele>215.95</ele>
        <time>2019-12-29T10:31:37Z</time>
      </trkpt>
      <trkpt lat="37.7742460929" lon="-8.7010870501">
        <ele>217.40</ele>
        <time>2019-12-29T10:31:44Z</time>
      </trkpt>
      <trkpt lat="37.7742775250" lon="-8.7010792550">
        <ele>217.88</ele>
        <time>2019-12-29T10:31:47Z</time>
      </trkpt>
      <trkpt lat="37.7744187601" lon="-8.7010128703">
        <ele>219.80</ele>
        <time>2019-12-29T10:32:01Z</time>
      </trkpt>
      <trkpt lat="37.7745330054" lon="-8.7009863835">
        <ele>221.24</ele>
        <time>2019-12-29T10:32:12Z</time>
      </trkpt>
      <trkpt lat="37.7746391203" lon="-8.7009583879">
        <ele>222.20</ele>
        <time>2019-12-29T10:32:22Z</time>
      </trkpt>
      <trkpt lat="37.7747547906" lon="-8.7009152211">
        <ele>224.12</ele>
        <time>2019-12-29T10:32:32Z</time>
      </trkpt>
      <trkpt lat="37.7748174034" lon="-8.7008862197">
        <ele>224.12</ele>
        <time>2019-12-29T10:32:38Z</time>
      </trkpt>
      <trkpt lat="37.7748426329" lon="-8.7008772511">
        <ele>223.64</ele>
        <time>2019-12-29T10:32:40Z</time>
      </trkpt>
      <trkpt lat="37.7748806868" lon="-8.7008765806">
        <ele>223.64</ele>
        <time>2019-12-29T10:32:43Z</time>
      </trkpt>
      <trkpt lat="37.7749267034" lon="-8.7008416280">
        <ele>224.61</ele>
        <time>2019-12-29T10:32:47Z</time>
      </trkpt>
      <trkpt lat="37.7750064153" lon="-8.7007908337">
        <ele>225.09</ele>
        <time>2019-12-29T10:32:54Z</time>
      </trkpt>
      <trkpt lat="37.7751242649" lon="-8.7006982137">
        <ele>226.05</ele>
        <time>2019-12-29T10:33:06Z</time>
      </trkpt>
      <trkpt lat="37.7751634084" lon="-8.7006432284">
        <ele>227.01</ele>
        <time>2019-12-29T10:33:11Z</time>
      </trkpt>
      <trkpt lat="37.7752035577" lon="-8.7005813699">
        <ele>227.01</ele>
        <time>2019-12-29T10:33:16Z</time>
      </trkpt>
      <trkpt lat="37.7752542682" lon="-8.7005186733">
        <ele>227.97</ele>
        <time>2019-12-29T10:33:22Z</time>
      </trkpt>
      <trkpt lat="37.7752625663" lon="-8.7004925217">
        <ele>228.45</ele>
        <time>2019-12-29T10:33:24Z</time>
      </trkpt>
      <trkpt lat="37.7753459662" lon="-8.7003349420">
        <ele>230.37</ele>
        <time>2019-12-29T10:33:37Z</time>
      </trkpt>
      <trkpt lat="37.7753842715" lon="-8.7002218701">
        <ele>231.81</ele>
        <time>2019-12-29T10:33:46Z</time>
      </trkpt>
      <trkpt lat="37.7754554339" lon="-8.7000859156">
        <ele>233.26</ele>
        <time>2019-12-29T10:33:57Z</time>
      </trkpt>
      <trkpt lat="37.7754744608" lon="-8.7000450958">
        <ele>233.74</ele>
        <time>2019-12-29T10:34:00Z</time>
      </trkpt>
      <trkpt lat="37.7755047195" lon="-8.7000185251">
        <ele>234.22</ele>
        <time>2019-12-29T10:34:03Z</time>
      </trkpt>
      <trkpt lat="37.7755665779" lon="-8.6999187805">
        <ele>235.66</ele>
        <time>2019-12-29T10:34:12Z</time>
      </trkpt>
      <trkpt lat="37.7757023647" lon="-8.6997979134">
        <ele>237.10</ele>
        <time>2019-12-29T10:34:25Z</time>
      </trkpt>
      <trkpt lat="37.7758208010" lon="-8.6997120827">
        <ele>238.54</ele>
        <time>2019-12-29T10:34:37Z</time>
      </trkpt>
      <trkpt lat="37.7758445218" lon="-8.6996964086">
        <ele>239.02</ele>
        <time>2019-12-29T10:34:39Z</time>
      </trkpt>
      <trkpt lat="37.7758809831" lon="-8.6996886134">
        <ele>239.02</ele>
        <time>2019-12-29T10:34:42Z</time>
      </trkpt>
      <trkpt lat="37.7759200428" lon="-8.6996577680">
        <ele>239.02</ele>
        <time>2019-12-29T10:34:46Z</time>
      </trkpt>
      <trkpt lat="37.7759474516" lon="-8.6996475421">
        <ele>239.02</ele>
        <time>2019-12-29T10:34:49Z</time>
      </trkpt>
      <trkpt lat="37.7760727610" lon="-8.6995512340">
        <ele>241.43</ele>
        <time>2019-12-29T10:35:02Z</time>
      </trkpt>
      <trkpt lat="37.7761906106" lon="-8.6994313728">
        <ele>242.87</ele>
        <time>2019-12-29T10:35:15Z</time>
      </trkpt>
      <trkpt lat="37.7763051912" lon="-8.6992596276">
        <ele>243.35</ele>
        <time>2019-12-29T10:35:29Z</time>
      </trkpt>
      <trkpt lat="37.7763794549" lon="-8.6991712824">
        <ele>243.83</ele>
        <time>2019-12-29T10:35:37Z</time>
      </trkpt>
      <trkpt lat="37.7765004057" lon="-8.6990622338">
        <ele>244.31</ele>
        <time>2019-12-29T10:35:50Z</time>
      </trkpt>
      <trkpt lat="37.7765442431" lon="-8.6990545224">
        <ele>244.79</ele>
        <time>2019-12-29T10:35:54Z</time>
      </trkpt>
      <trkpt lat="37.7765654493" lon="-8.6990354955">
        <ele>244.79</ele>
        <time>2019-12-29T10:35:56Z</time>
      </trkpt>
      <trkpt lat="37.7766930219" lon="-8.6989940051">
        <ele>246.23</ele>
        <time>2019-12-29T10:36:07Z</time>
      </trkpt>
      <trkpt lat="37.7767853066" lon="-8.6989329010">
        <ele>247.68</ele>
        <time>2019-12-29T10:36:16Z</time>
      </trkpt>
      <trkpt lat="37.7768377773" lon="-8.6988947634">
        <ele>247.68</ele>
        <time>2019-12-29T10:36:22Z</time>
      </trkpt>
      <trkpt lat="37.7769900765" lon="-8.6988045741">
        <ele>249.12</ele>
        <time>2019-12-29T10:36:36Z</time>
      </trkpt>
      <trkpt lat="37.7770654298" lon="-8.6987625808">
        <ele>249.60</ele>
        <time>2019-12-29T10:36:42Z</time>
      </trkpt>
      <trkpt lat="37.7771256119" lon="-8.6987173185">
        <ele>249.60</ele>
        <time>2019-12-29T10:36:48Z</time>
      </trkpt>
      <trkpt lat="37.7771616541" lon="-8.6987177376">
        <ele>250.08</ele>
        <time>2019-12-29T10:36:51Z</time>
      </trkpt>
      <trkpt lat="37.7772536036" lon="-8.6986745708">
        <ele>250.56</ele>
        <time>2019-12-29T10:36:59Z</time>
      </trkpt>
      <trkpt lat="37.7773225866" lon="-8.6986402888">
        <ele>250.56</ele>
        <time>2019-12-29T10:37:05Z</time>
      </trkpt>
      <trkpt lat="37.7773745544" lon="-8.6986133829">
        <ele>251.04</ele>
        <time>2019-12-29T10:37:10Z</time>
      </trkpt>
      <trkpt lat="37.7774058189" lon="-8.6986073479">
        <ele>251.04</ele>
        <time>2019-12-29T10:37:13Z</time>
      </trkpt>
      <trkpt lat="37.7775590401" lon="-8.6985126324">
        <ele>252.00</ele>
        <time>2019-12-29T10:37:27Z</time>
      </trkpt>
      <trkpt lat="37.7775795758" lon="-8.6985024903">
        <ele>252.00</ele>
        <time>2019-12-29T10:37:42Z</time>
      </trkpt>
      <trkpt lat="37.7775979321" lon="-8.6984835472">
        <ele>251.52</ele>
        <time>2019-12-29T10:38:11Z</time>
      </trkpt>
      <trkpt lat="37.7776427753" lon="-8.6984534562">
        <ele>250.56</ele>
        <time>2019-12-29T10:38:16Z</time>
      </trkpt>
      <trkpt lat="37.7777101658" lon="-8.6983775999">
        <ele>250.08</ele>
        <time>2019-12-29T10:38:24Z</time>
      </trkpt>
      <trkpt lat="37.7777455375" lon="-8.6983312480">
        <ele>249.12</ele>
        <time>2019-12-29T10:38:28Z</time>
      </trkpt>
      <trkpt lat="37.7778961603" lon="-8.6981613468">
        <ele>247.20</ele>
        <time>2019-12-29T10:38:43Z</time>
      </trkpt>
      <trkpt lat="37.7779303584" lon="-8.6981112231">
        <ele>246.72</ele>
        <time>2019-12-29T10:38:48Z</time>
      </trkpt>
      <trkpt lat="37.7779629640" lon="-8.6980518792">
        <ele>246.23</ele>
        <time>2019-12-29T10:38:53Z</time>
      </trkpt>
      <trkpt lat="37.7780974098" lon="-8.6978046130">
        <ele>244.31</ele>
        <time>2019-12-29T10:39:12Z</time>
      </trkpt>
      <trkpt lat="37.7781994175" lon="-8.6975917965">
        <ele>242.87</ele>
        <time>2019-12-29T10:39:28Z</time>
      </trkpt>
      <trkpt lat="37.7782860864" lon="-8.6974207219">
        <ele>242.39</ele>
        <time>2019-12-29T10:39:41Z</time>
      </trkpt>
      <trkpt lat="37.7783143334" lon="-8.6973671615">
        <ele>241.91</ele>
        <time>2019-12-29T10:39:45Z</time>
      </trkpt>
      <trkpt lat="37.7783744317" lon="-8.6972555984">
        <ele>240.95</ele>
        <time>2019-12-29T10:39:54Z</time>
      </trkpt>
      <trkpt lat="37.7785056084" lon="-8.6969750561">
        <ele>239.02</ele>
        <time>2019-12-29T10:40:14Z</time>
      </trkpt>
      <trkpt lat="37.7785178460" lon="-8.6969329789">
        <ele>238.54</ele>
        <time>2019-12-29T10:40:17Z</time>
      </trkpt>
      <trkpt lat="37.7785407286" lon="-8.6968780775">
        <ele>239.02</ele>
        <time>2019-12-29T10:40:21Z</time>
      </trkpt>
      <trkpt lat="37.7785600908" lon="-8.6967803445">
        <ele>238.06</ele>
        <time>2019-12-29T10:40:27Z</time>
      </trkpt>
      <trkpt lat="37.7785636950" lon="-8.6967556179">
        <ele>238.06</ele>
        <time>2019-12-29T10:40:29Z</time>
      </trkpt>
      <trkpt lat="37.7785874158" lon="-8.6966867186">
        <ele>237.58</ele>
        <time>2019-12-29T10:40:34Z</time>
      </trkpt>
      <trkpt lat="37.7785984799" lon="-8.6965159792">
        <ele>236.14</ele>
        <time>2019-12-29T10:40:45Z</time>
      </trkpt>
      <trkpt lat="37.7786065266" lon="-8.6964827869">
        <ele>236.14</ele>
        <time>2019-12-29T10:40:47Z</time>
      </trkpt>
      <trkpt lat="37.7786196023" lon="-8.6964169890">
        <ele>235.66</ele>
        <time>2019-12-29T10:40:51Z</time>
      </trkpt>
      <trkpt lat="37.7786407247" lon="-8.6963352654">
        <ele>236.14</ele>
        <time>2019-12-29T10:40:57Z</time>
      </trkpt>
      <trkpt lat="37.7786900941" lon="-8.6962031666">
        <ele>235.18</ele>
        <time>2019-12-29T10:41:07Z</time>
      </trkpt>
      <trkpt lat="37.7787165809" lon="-8.6961295735">
        <ele>235.18</ele>
        <time>2019-12-29T10:41:12Z</time>
      </trkpt>
      <trkpt lat="37.7787525393" lon="-8.6960659549">
        <ele>234.70</ele>
        <time>2019-12-29T10:41:17Z</time>
      </trkpt>
      <trkpt lat="37.7787909284" lon="-8.6959968042">
        <ele>234.22</ele>
        <time>2019-12-29T10:41:22Z</time>
      </trkpt>
      <trkpt lat="37.7789024077" lon="-8.6958238017">
        <ele>233.74</ele>
        <time>2019-12-29T10:41:36Z</time>
      </trkpt>
      <trkpt lat="37.7789460775" lon="-8.6957586743">
        <ele>233.74</ele>
        <time>2019-12-29T10:41:41Z</time>
      </trkpt>
      <trkpt lat="37.7790282201" lon="-8.6955857556">
        <ele>233.26</ele>
        <time>2019-12-29T10:41:53Z</time>
      </trkpt>
      <trkpt lat="37.7790549584" lon="-8.6955161020">
        <ele>232.78</ele>
        <time>2019-12-29T10:41:58Z</time>
      </trkpt>
      <trkpt lat="37.7791135479" lon="-8.6953353044">
        <ele>231.33</ele>
        <time>2019-12-29T10:42:10Z</time>
      </trkpt>
      <trkpt lat="37.7791339997" lon="-8.6952797323">
        <ele>230.85</ele>
        <time>2019-12-29T10:42:14Z</time>
      </trkpt>
      <trkpt lat="37.7791494224" lon="-8.6952307820">
        <ele>231.33</ele>
        <time>2019-12-29T10:42:17Z</time>
      </trkpt>
      <trkpt lat="37.7792127058" lon="-8.6950531695">
        <ele>230.85</ele>
        <time>2019-12-29T10:42:29Z</time>
      </trkpt>
      <trkpt lat="37.7792236023" lon="-8.6950227432">
        <ele>230.37</ele>
        <time>2019-12-29T10:42:31Z</time>
      </trkpt>
      <trkpt lat="37.7792389411" lon="-8.6949743796">
        <ele>229.89</ele>
        <time>2019-12-29T10:42:34Z</time>
      </trkpt>
      <trkpt lat="37.7793137077" lon="-8.6947707832">
        <ele>229.41</ele>
        <time>2019-12-29T10:42:48Z</time>
      </trkpt>
      <trkpt lat="37.7793597244" lon="-8.6946587171">
        <ele>228.45</ele>
        <time>2019-12-29T10:42:56Z</time>
      </trkpt>
      <trkpt lat="37.7793984488" lon="-8.6945396941">
        <ele>227.97</ele>
        <time>2019-12-29T10:43:04Z</time>
      </trkpt>
      <trkpt lat="37.7794516739" lon="-8.6943941843">
        <ele>227.49</ele>
        <time>2019-12-29T10:43:14Z</time>
      </trkpt>
      <trkpt lat="37.7794696111" lon="-8.6943526939">
        <ele>227.49</ele>
        <time>2019-12-29T10:43:17Z</time>
      </trkpt>
      <trkpt lat="37.7795142867" lon="-8.6942139734">
        <ele>226.53</ele>
        <time>2019-12-29T10:43:27Z</time>
      </trkpt>
      <trkpt lat="37.7795481496" lon="-8.6941103730">
        <ele>227.01</ele>
        <time>2019-12-29T10:43:34Z</time>
      </trkpt>
      <trkpt lat="37.7795633208" lon="-8.6940672062">
        <ele>227.01</ele>
        <time>2019-12-29T10:43:37Z</time>
      </trkpt>
      <trkpt lat="37.7796000335" lon="-8.6939298268">
        <ele>226.53</ele>
        <time>2019-12-29T10:43:46Z</time>
      </trkpt>
      <trkpt lat="37.7796386741" lon="-8.6938457564">
        <ele>226.05</ele>
        <time>2019-12-29T10:43:53Z</time>
      </trkpt>
      <trkpt lat="37.7796888817" lon="-8.6936967261">
        <ele>225.57</ele>
        <time>2019-12-29T10:44:04Z</time>
      </trkpt>
      <trkpt lat="37.7796913125" lon="-8.6936725862">
        <ele>225.57</ele>
        <time>2019-12-29T10:44:06Z</time>
      </trkpt>
      <trkpt lat="37.7797048073" lon="-8.6936344486">
        <ele>225.57</ele>
        <time>2019-12-29T10:44:09Z</time>
      </trkpt>
      <trkpt lat="37.7797140274" lon="-8.6935965624">
        <ele>225.57</ele>
        <time>2019-12-29T10:44:12Z</time>
      </trkpt>
      <trkpt lat="37.7797693480" lon="-8.6934513878">
        <ele>225.57</ele>
        <time>2019-12-29T10:44:23Z</time>
      </trkpt>
      <trkpt lat="37.7797742933" lon="-8.6934278347">
        <ele>225.09</ele>
        <time>2019-12-29T10:44:25Z</time>
      </trkpt>
      <trkpt lat="37.7798079047" lon="-8.6933283415">
        <ele>225.09</ele>
        <time>2019-12-29T10:44:32Z</time>
      </trkpt>
      <trkpt lat="37.7798392531" lon="-8.6932640523">
        <ele>225.09</ele>
        <time>2019-12-29T10:44:37Z</time>
      </trkpt>
      <trkpt lat="37.7798587829" lon="-8.6931801494">
        <ele>225.09</ele>
        <time>2019-12-29T10:44:43Z</time>
      </trkpt>
      <trkpt lat="37.7799090743" lon="-8.6930628866">
        <ele>224.61</ele>
        <time>2019-12-29T10:44:52Z</time>
      </trkpt>
      <trkpt lat="37.7799382433" lon="-8.6930046324">
        <ele>224.61</ele>
        <time>2019-12-29T10:44:56Z</time>
      </trkpt>
      <trkpt lat="37.7799629699" lon="-8.6929233279">
        <ele>224.12</ele>
        <time>2019-12-29T10:45:02Z</time>
      </trkpt>
      <trkpt lat="37.7799686696" lon="-8.6928812508">
        <ele>224.12</ele>
        <time>2019-12-29T10:45:05Z</time>
      </trkpt>
      <trkpt lat="37.7800101601" lon="-8.6928010359">
        <ele>223.16</ele>
        <time>2019-12-29T10:45:11Z</time>
      </trkpt>
      <trkpt lat="37.7800689172" lon="-8.6926708650">
        <ele>223.64</ele>
        <time>2019-12-29T10:45:21Z</time>
      </trkpt>
      <trkpt lat="37.7800886985" lon="-8.6925867945">
        <ele>223.16</ele>
        <time>2019-12-29T10:45:27Z</time>
      </trkpt>
      <trkpt lat="37.7801007684" lon="-8.6925485730">
        <ele>223.16</ele>
        <time>2019-12-29T10:45:30Z</time>
      </trkpt>
      <trkpt lat="37.7801197954" lon="-8.6924434640">
        <ele>222.68</ele>
        <time>2019-12-29T10:45:38Z</time>
      </trkpt>
      <trkpt lat="37.7801446058" lon="-8.6922647618">
        <ele>221.72</ele>
        <time>2019-12-29T10:45:51Z</time>
      </trkpt>
      <trkpt lat="37.7801798098" lon="-8.6920946930">
        <ele>221.24</ele>
        <time>2019-12-29T10:46:03Z</time>
      </trkpt>
      <trkpt lat="37.7801876888" lon="-8.6919273902">
        <ele>221.72</ele>
        <time>2019-12-29T10:46:14Z</time>
      </trkpt>
      <trkpt lat="37.7802027762" lon="-8.6918213591">
        <ele>221.24</ele>
        <time>2019-12-29T10:46:21Z</time>
      </trkpt>
      <trkpt lat="37.7802433446" lon="-8.6916457582">
        <ele>220.76</ele>
        <time>2019-12-29T10:46:32Z</time>
      </trkpt>
      <trkpt lat="37.7802428417" lon="-8.6916184332">
        <ele>221.72</ele>
        <time>2019-12-29T10:46:34Z</time>
      </trkpt>
      <trkpt lat="37.7802560013" lon="-8.6915605143">
        <ele>221.24</ele>
        <time>2019-12-29T10:46:38Z</time>
      </trkpt>
      <trkpt lat="37.7802655566" lon="-8.6915129889">
        <ele>221.24</ele>
        <time>2019-12-29T10:46:41Z</time>
      </trkpt>
      <trkpt lat="37.7803166863" lon="-8.6912774574">
        <ele>220.76</ele>
        <time>2019-12-29T10:46:55Z</time>
      </trkpt>
      <trkpt lat="37.7803198714" lon="-8.6912504677">
        <ele>220.76</ele>
        <time>2019-12-29T10:46:57Z</time>
      </trkpt>
      <trkpt lat="37.7803278342" lon="-8.6911652237">
        <ele>220.28</ele>
        <time>2019-12-29T10:47:02Z</time>
      </trkpt>
      <trkpt lat="37.7803513035" lon="-8.6910471227">
        <ele>220.76</ele>
        <time>2019-12-29T10:47:10Z</time>
      </trkpt>
      <trkpt lat="37.7803634573" lon="-8.6909552570">
        <ele>220.76</ele>
        <time>2019-12-29T10:47:17Z</time>
      </trkpt>
      <trkpt lat="37.7803992480" lon="-8.6907931510">
        <ele>220.76</ele>
        <time>2019-12-29T10:47:28Z</time>
      </trkpt>
      <trkpt lat="37.7804046962" lon="-8.6907762196">
        <ele>220.76</ele>
        <time>2019-12-29T10:47:29Z</time>
      </trkpt>
      <trkpt lat="37.7804397326" lon="-8.6906121857">
        <ele>220.28</ele>
        <time>2019-12-29T10:47:40Z</time>
      </trkpt>
      <trkpt lat="37.7804730926" lon="-8.6903842818">
        <ele>220.28</ele>
        <time>2019-12-29T10:47:55Z</time>
      </trkpt>
      <trkpt lat="37.7804878447" lon="-8.6903391872">
        <ele>220.28</ele>
        <time>2019-12-29T10:47:58Z</time>
      </trkpt>
      <trkpt lat="37.7805030998" lon="-8.6902985349">
        <ele>220.76</ele>
        <time>2019-12-29T10:48:01Z</time>
      </trkpt>
      <trkpt lat="37.7805080451" lon="-8.6902396102">
        <ele>220.76</ele>
        <time>2019-12-29T10:48:05Z</time>
      </trkpt>
      <trkpt lat="37.7805129066" lon="-8.6901787575">
        <ele>220.76</ele>
        <time>2019-12-29T10:48:09Z</time>
      </trkpt>
      <trkpt lat="37.7805562411" lon="-8.6900173221">
        <ele>220.76</ele>
        <time>2019-12-29T10:48:20Z</time>
      </trkpt>
      <trkpt lat="37.7805701550" lon="-8.6899643485">
        <ele>220.28</ele>
        <time>2019-12-29T10:48:24Z</time>
      </trkpt>
      <trkpt lat="37.7806225419" lon="-8.6898137257">
        <ele>220.76</ele>
        <time>2019-12-29T10:48:35Z</time>
      </trkpt>
      <trkpt lat="37.7806352824" lon="-8.6897894181">
        <ele>220.76</ele>
        <time>2019-12-29T10:48:37Z</time>
      </trkpt>
      <trkpt lat="37.7807185147" lon="-8.6896323413">
        <ele>220.76</ele>
        <time>2019-12-29T10:48:49Z</time>
      </trkpt>
      <trkpt lat="37.7807566524" lon="-8.6895904317">
        <ele>220.76</ele>
        <time>2019-12-29T10:48:54Z</time>
      </trkpt>
      <trkpt lat="37.7809094545" lon="-8.6894400604">
        <ele>219.32</ele>
        <time>2019-12-29T10:49:10Z</time>
      </trkpt>
      <trkpt lat="37.7810632624" lon="-8.6893134937">
        <ele>217.40</ele>
        <time>2019-12-29T10:49:25Z</time>
      </trkpt>
      <trkpt lat="37.7812179923" lon="-8.6891571712">
        <ele>215.95</ele>
        <time>2019-12-29T10:49:41Z</time>
      </trkpt>
      <trkpt lat="37.7813800145" lon="-8.6890013516">
        <ele>214.03</ele>
        <time>2019-12-29T10:49:57Z</time>
      </trkpt>
      <trkpt lat="37.7814284619" lon="-8.6889556702">
        <ele>213.55</ele>
        <time>2019-12-29T10:50:02Z</time>
      </trkpt>
      <trkpt lat="37.7814987861" lon="-8.6888979189">
        <ele>214.03</ele>
        <time>2019-12-29T10:50:09Z</time>
      </trkpt>
      <trkpt lat="37.7816843614" lon="-8.6887356453">
        <ele>212.59</ele>
        <time>2019-12-29T10:50:27Z</time>
      </trkpt>
      <trkpt lat="37.7816956770" lon="-8.6887282692">
        <ele>212.59</ele>
        <time>2019-12-29T10:50:28Z</time>
      </trkpt>
      <trkpt lat="37.7817340661" lon="-8.6886849348">
        <ele>212.11</ele>
        <time>2019-12-29T10:50:32Z</time>
      </trkpt>
      <trkpt lat="37.7819143608" lon="-8.6885572784">
        <ele>211.63</ele>
        <time>2019-12-29T10:50:49Z</time>
      </trkpt>
      <trkpt lat="37.7820940688" lon="-8.6884958390">
        <ele>210.19</ele>
        <time>2019-12-29T10:51:04Z</time>
      </trkpt>
      <trkpt lat="37.7822694182" lon="-8.6884570308">
        <ele>209.22</ele>
        <time>2019-12-29T10:51:19Z</time>
      </trkpt>
      <trkpt lat="37.7824748587" lon="-8.6884627305">
        <ele>208.74</ele>
        <time>2019-12-29T10:51:36Z</time>
      </trkpt>
      <trkpt lat="37.7826643735" lon="-8.6884489004">
        <ele>208.26</ele>
        <time>2019-12-29T10:51:52Z</time>
      </trkpt>
      <trkpt lat="37.7827636153" lon="-8.6884336453">
        <ele>208.26</ele>
        <time>2019-12-29T10:52:00Z</time>
      </trkpt>
      <trkpt lat="37.7829495259" lon="-8.6883689370">
        <ele>207.78</ele>
        <time>2019-12-29T10:52:16Z</time>
      </trkpt>
      <trkpt lat="37.7829852328" lon="-8.6883531790">
        <ele>207.78</ele>
        <time>2019-12-29T10:52:19Z</time>
      </trkpt>
      <trkpt lat="37.7831662819" lon="-8.6882204097">
        <ele>207.30</ele>
        <time>2019-12-29T10:52:37Z</time>
      </trkpt>
      <trkpt lat="37.7833424695" lon="-8.6880456470">
        <ele>206.34</ele>
        <time>2019-12-29T10:52:55Z</time>
      </trkpt>
      <trkpt lat="37.7834940981" lon="-8.6878983770">
        <ele>204.42</ele>
        <time>2019-12-29T10:53:10Z</time>
      </trkpt>
      <trkpt lat="37.7835938428" lon="-8.6878064275">
        <ele>203.46</ele>
        <time>2019-12-29T10:53:20Z</time>
      </trkpt>
      <trkpt lat="37.7837562840" lon="-8.6876769271">
        <ele>201.53</ele>
        <time>2019-12-29T10:53:34Z</time>
      </trkpt>
      <trkpt lat="37.7837641630" lon="-8.6876674555">
        <ele>201.53</ele>
        <time>2019-12-29T10:53:35Z</time>
      </trkpt>
      <trkpt lat="37.7839115169" lon="-8.6875254661">
        <ele>200.57</ele>
        <time>2019-12-29T10:53:49Z</time>
      </trkpt>
      <trkpt lat="37.7840546798" lon="-8.6874031741">
        <ele>199.61</ele>
        <time>2019-12-29T10:54:04Z</time>
      </trkpt>
      <trkpt lat="37.7842111699" lon="-8.6873517931">
        <ele>198.65</ele>
        <time>2019-12-29T10:54:17Z</time>
      </trkpt>
      <trkpt lat="37.7842452005" lon="-8.6873452552">
        <ele>198.17</ele>
        <time>2019-12-29T10:54:20Z</time>
      </trkpt>
      <trkpt lat="37.7844379842" lon="-8.6872833129">
        <ele>197.21</ele>
        <time>2019-12-29T10:54:36Z</time>
      </trkpt>
      <trkpt lat="37.7846109867" lon="-8.6872371286">
        <ele>196.73</ele>
        <time>2019-12-29T10:54:50Z</time>
      </trkpt>
      <trkpt lat="37.7847652137" lon="-8.6872228794">
        <ele>196.73</ele>
        <time>2019-12-29T10:55:03Z</time>
      </trkpt>
      <trkpt lat="37.7848210372" lon="-8.6872286629">
        <ele>196.73</ele>
        <time>2019-12-29T10:55:07Z</time>
      </trkpt>
      <trkpt lat="37.7850110549" lon="-8.6871896032">
        <ele>196.73</ele>
        <time>2019-12-29T10:55:22Z</time>
      </trkpt>
      <trkpt lat="37.7851749212" lon="-8.6871486157">
        <ele>196.73</ele>
        <time>2019-12-29T10:55:35Z</time>
      </trkpt>
      <trkpt lat="37.7852781862" lon="-8.6871382222">
        <ele>196.73</ele>
        <time>2019-12-29T10:55:43Z</time>
      </trkpt>
      <trkpt lat="37.7853232808" lon="-8.6871286668">
        <ele>196.73</ele>
        <time>2019-12-29T10:55:47Z</time>
      </trkpt>
      <trkpt lat="37.7854212653" lon="-8.6871108133">
        <ele>197.21</ele>
        <time>2019-12-29T10:55:55Z</time>
      </trkpt>
      <trkpt lat="37.7854712214" lon="-8.6871009227">
        <ele>197.21</ele>
        <time>2019-12-29T10:55:59Z</time>
      </trkpt>
      <trkpt lat="37.7855711337" lon="-8.6870928761">
        <ele>197.21</ele>
        <time>2019-12-29T10:56:07Z</time>
      </trkpt>
      <trkpt lat="37.7856906597" lon="-8.6870722566">
        <ele>197.69</ele>
        <time>2019-12-29T10:56:17Z</time>
      </trkpt>
      <trkpt lat="37.7857138775" lon="-8.6870724242">
        <ele>197.69</ele>
        <time>2019-12-29T10:56:19Z</time>
      </trkpt>
      <trkpt lat="37.7858744748" lon="-8.6870558280">
        <ele>199.13</ele>
        <time>2019-12-29T10:56:31Z</time>
      </trkpt>
      <trkpt lat="37.7860448789" lon="-8.6869805586">
        <ele>198.65</ele>
        <time>2019-12-29T10:56:45Z</time>
      </trkpt>
      <trkpt lat="37.7862358186" lon="-8.6869022716">
        <ele>197.69</ele>
        <time>2019-12-29T10:57:00Z</time>
      </trkpt>
      <trkpt lat="37.7864632197" lon="-8.6867993418">
        <ele>196.25</ele>
        <time>2019-12-29T10:57:19Z</time>
      </trkpt>
      <trkpt lat="37.7866693307" lon="-8.6867649760">
        <ele>194.32</ele>
        <time>2019-12-29T10:57:35Z</time>
      </trkpt>
      <trkpt lat="37.7868926246" lon="-8.6867278442">
        <ele>193.36</ele>
        <time>2019-12-29T10:57:52Z</time>
      </trkpt>
      <trkpt lat="37.7870561555" lon="-8.6866849288">
        <ele>192.40</ele>
        <time>2019-12-29T10:58:05Z</time>
      </trkpt>
      <trkpt lat="37.7872537170" lon="-8.6866244115">
        <ele>190.96</ele>
        <time>2019-12-29T10:58:21Z</time>
      </trkpt>
      <trkpt lat="37.7874997258" lon="-8.6865988467">
        <ele>189.52</ele>
        <time>2019-12-29T10:58:41Z</time>
      </trkpt>
      <trkpt lat="37.7876873966" lon="-8.6865107529">
        <ele>187.11</ele>
        <time>2019-12-29T10:58:57Z</time>
      </trkpt>
      <trkpt lat="37.7877191640" lon="-8.6864576954">
        <ele>187.11</ele>
        <time>2019-12-29T10:59:03Z</time>
      </trkpt>
      <trkpt lat="37.7877844591" lon="-8.6864393391">
        <ele>186.63</ele>
        <time>2019-12-29T10:59:20Z</time>
      </trkpt>
      <trkpt lat="37.7877548710" lon="-8.6864094995">
        <ele>186.63</ele>
        <time>2019-12-29T10:59:24Z</time>
      </trkpt>
      <trkpt lat="37.7877379395" lon="-8.6863538437">
        <ele>186.15</ele>
        <time>2019-12-29T10:59:28Z</time>
      </trkpt>
      <trkpt lat="37.7877233550" lon="-8.6862197332">
        <ele>185.67</ele>
        <time>2019-12-29T10:59:37Z</time>
      </trkpt>
      <trkpt lat="37.7877360955" lon="-8.6860490777">
        <ele>185.19</ele>
        <time>2019-12-29T10:59:49Z</time>
      </trkpt>
      <trkpt lat="37.7877414599" lon="-8.6858744826">
        <ele>184.71</ele>
        <time>2019-12-29T11:00:00Z</time>
      </trkpt>
      <trkpt lat="37.7877459023" lon="-8.6857231054">
        <ele>184.23</ele>
        <time>2019-12-29T11:00:10Z</time>
      </trkpt>
      <trkpt lat="37.7877502609" lon="-8.6856133025">
        <ele>183.75</ele>
        <time>2019-12-29T11:00:16Z</time>
      </trkpt>
      <trkpt lat="37.7877381910" lon="-8.6855600774">
        <ele>183.75</ele>
        <time>2019-12-29T11:00:20Z</time>
      </trkpt>
      <trkpt lat="37.7877524402" lon="-8.6853301618">
        <ele>183.27</ele>
        <time>2019-12-29T11:00:35Z</time>
      </trkpt>
      <trkpt lat="37.7877521049" lon="-8.6852367036">
        <ele>182.79</ele>
        <time>2019-12-29T11:00:41Z</time>
      </trkpt>
      <trkpt lat="37.7877389453" lon="-8.6851168424">
        <ele>182.79</ele>
        <time>2019-12-29T11:00:49Z</time>
      </trkpt>
      <trkpt lat="37.7877448127" lon="-8.6850315984">
        <ele>182.31</ele>
        <time>2019-12-29T11:00:54Z</time>
      </trkpt>
      <trkpt lat="37.7877654321" lon="-8.6849419121">
        <ele>182.31</ele>
        <time>2019-12-29T11:01:00Z</time>
      </trkpt>
      <trkpt lat="37.7877603192" lon="-8.6849006731">
        <ele>182.31</ele>
        <time>2019-12-29T11:01:03Z</time>
      </trkpt>
      <trkpt lat="37.7877790947" lon="-8.6847999226">
        <ele>181.83</ele>
        <time>2019-12-29T11:01:09Z</time>
      </trkpt>
      <trkpt lat="37.7878053300" lon="-8.6846859287">
        <ele>181.35</ele>
        <time>2019-12-29T11:01:16Z</time>
      </trkpt>
      <trkpt lat="37.7878269553" lon="-8.6846062168">
        <ele>180.87</ele>
        <time>2019-12-29T11:01:21Z</time>
      </trkpt>
      <trkpt lat="37.7878952678" lon="-8.6844807398">
        <ele>180.38</ele>
        <time>2019-12-29T11:01:31Z</time>
      </trkpt>
      <trkpt lat="37.7879802603" lon="-8.6843281891">
        <ele>179.42</ele>
        <time>2019-12-29T11:01:43Z</time>
      </trkpt>
      <trkpt lat="37.7880248521" lon="-8.6842611339">
        <ele>179.42</ele>
        <time>2019-12-29T11:01:48Z</time>
      </trkpt>
      <trkpt lat="37.7881081682" lon="-8.6841358244">
        <ele>178.94</ele>
        <time>2019-12-29T11:02:00Z</time>
      </trkpt>
      <trkpt lat="37.7881165501" lon="-8.6841307115">
        <ele>178.94</ele>
        <time>2019-12-29T11:02:01Z</time>
      </trkpt>
      <trkpt lat="37.7881584596" lon="-8.6840296257">
        <ele>178.46</ele>
        <time>2019-12-29T11:02:07Z</time>
      </trkpt>
      <trkpt lat="37.7882579528" lon="-8.6838233471">
        <ele>178.46</ele>
        <time>2019-12-29T11:02:21Z</time>
      </trkpt>
      <trkpt lat="37.7883450408" lon="-8.6836813577">
        <ele>177.50</ele>
        <time>2019-12-29T11:02:32Z</time>
      </trkpt>
      <trkpt lat="37.7883897163" lon="-8.6835925095">
        <ele>177.02</ele>
        <time>2019-12-29T11:02:39Z</time>
      </trkpt>
      <trkpt lat="37.7884724457" lon="-8.6834659427">
        <ele>177.50</ele>
        <time>2019-12-29T11:02:49Z</time>
      </trkpt>
      <trkpt lat="37.7885161154" lon="-8.6833867338">
        <ele>177.50</ele>
        <time>2019-12-29T11:02:55Z</time>
      </trkpt>
      <trkpt lat="37.7885669935" lon="-8.6833061837">
        <ele>177.02</ele>
        <time>2019-12-29T11:03:01Z</time>
      </trkpt>
      <trkpt lat="37.7886776347" lon="-8.6831428204">
        <ele>177.02</ele>
        <time>2019-12-29T11:03:15Z</time>
      </trkpt>
      <trkpt lat="37.7887762059" lon="-8.6829870008">
        <ele>177.02</ele>
        <time>2019-12-29T11:03:27Z</time>
      </trkpt>
      <trkpt lat="37.7888810635" lon="-8.6828248110">
        <ele>177.02</ele>
        <time>2019-12-29T11:03:40Z</time>
      </trkpt>
      <trkpt lat="37.7889866754" lon="-8.6826588493">
        <ele>177.02</ele>
        <time>2019-12-29T11:03:53Z</time>
      </trkpt>
      <trkpt lat="37.7890992444" lon="-8.6824935582">
        <ele>177.50</ele>
        <time>2019-12-29T11:04:07Z</time>
      </trkpt>
      <trkpt lat="37.7891174331" lon="-8.6824714299">
        <ele>177.02</ele>
        <time>2019-12-29T11:04:09Z</time>
      </trkpt>
      <trkpt lat="37.7892537229" lon="-8.6823107488">
        <ele>176.54</ele>
        <time>2019-12-29T11:04:24Z</time>
      </trkpt>
      <trkpt lat="37.7893001586" lon="-8.6822615471">
        <ele>176.06</ele>
        <time>2019-12-29T11:04:29Z</time>
      </trkpt>
      <trkpt lat="37.7894451655" lon="-8.6820675898">
        <ele>175.58</ele>
        <time>2019-12-29T11:04:45Z</time>
      </trkpt>
      <trkpt lat="37.7895135619" lon="-8.6819424480">
        <ele>174.62</ele>
        <time>2019-12-29T11:04:54Z</time>
      </trkpt>
      <trkpt lat="37.7895401325" lon="-8.6818889715">
        <ele>174.62</ele>
        <time>2019-12-29T11:04:58Z</time>
      </trkpt>
      <trkpt lat="37.7895579021" lon="-8.6818274483">
        <ele>174.62</ele>
        <time>2019-12-29T11:05:02Z</time>
      </trkpt>
      <trkpt lat="37.7895832993" lon="-8.6817269493">
        <ele>174.62</ele>
        <time>2019-12-29T11:05:08Z</time>
      </trkpt>
      <trkpt lat="37.7896132227" lon="-8.6815474089">
        <ele>174.14</ele>
        <time>2019-12-29T11:05:19Z</time>
      </trkpt>
      <trkpt lat="37.7896236163" lon="-8.6814930942">
        <ele>174.14</ele>
        <time>2019-12-29T11:05:22Z</time>
      </trkpt>
      <trkpt lat="37.7896161564" lon="-8.6814459879">
        <ele>174.14</ele>
        <time>2019-12-29T11:05:25Z</time>
      </trkpt>
      <trkpt lat="37.7896182518" lon="-8.6813368555">
        <ele>173.17</ele>
        <time>2019-12-29T11:05:32Z</time>
      </trkpt>
      <trkpt lat="37.7896329202" lon="-8.6811132263">
        <ele>172.69</ele>
        <time>2019-12-29T11:05:46Z</time>
      </trkpt>
      <trkpt lat="37.7896525338" lon="-8.6809821334">
        <ele>172.69</ele>
        <time>2019-12-29T11:05:54Z</time>
      </trkpt>
      <trkpt lat="37.7896686271" lon="-8.6808926985">
        <ele>172.21</ele>
        <time>2019-12-29T11:06:00Z</time>
      </trkpt>
      <trkpt lat="37.7897154819" lon="-8.6807204504">
        <ele>171.73</ele>
        <time>2019-12-29T11:06:12Z</time>
      </trkpt>
      <trkpt lat="37.7898131311" lon="-8.6805123277">
        <ele>170.77</ele>
        <time>2019-12-29T11:06:27Z</time>
      </trkpt>
      <trkpt lat="37.7898352593" lon="-8.6804692447">
        <ele>170.77</ele>
        <time>2019-12-29T11:06:30Z</time>
      </trkpt>
      <trkpt lat="37.7898714691" lon="-8.6803795584">
        <ele>169.81</ele>
        <time>2019-12-29T11:06:36Z</time>
      </trkpt>
      <trkpt lat="37.7899379376" lon="-8.6802560929">
        <ele>169.81</ele>
        <time>2019-12-29T11:06:46Z</time>
      </trkpt>
      <trkpt lat="37.7900263667" lon="-8.6801009439">
        <ele>169.33</ele>
        <time>2019-12-29T11:06:58Z</time>
      </trkpt>
      <trkpt lat="37.7900472376" lon="-8.6800597887">
        <ele>168.85</ele>
        <time>2019-12-29T11:07:01Z</time>
      </trkpt>
      <trkpt lat="37.7900661808" lon="-8.6800090782">
        <ele>169.33</ele>
        <time>2019-12-29T11:07:05Z</time>
      </trkpt>
      <trkpt lat="37.7900966071" lon="-8.6799530871">
        <ele>168.85</ele>
        <time>2019-12-29T11:07:09Z</time>
      </trkpt>
      <trkpt lat="37.7901927475" lon="-8.6797576211">
        <ele>168.85</ele>
        <time>2019-12-29T11:07:23Z</time>
      </trkpt>
      <trkpt lat="37.7902687714" lon="-8.6796143744">
        <ele>167.89</ele>
        <time>2019-12-29T11:07:34Z</time>
      </trkpt>
      <trkpt lat="37.7902919892" lon="-8.6795784160">
        <ele>168.37</ele>
        <time>2019-12-29T11:07:37Z</time>
      </trkpt>
      <trkpt lat="37.7904240042" lon="-8.6794073414">
        <ele>166.93</ele>
        <time>2019-12-29T11:07:51Z</time>
      </trkpt>
      <trkpt lat="37.7905369923" lon="-8.6792812776">
        <ele>166.45</ele>
        <time>2019-12-29T11:08:04Z</time>
      </trkpt>
      <trkpt lat="37.7906463761" lon="-8.6791440658">
        <ele>165.96</ele>
        <time>2019-12-29T11:08:16Z</time>
      </trkpt>
      <trkpt lat="37.7907831687" lon="-8.6790119670">
        <ele>166.45</ele>
        <time>2019-12-29T11:08:30Z</time>
      </trkpt>
      <trkpt lat="37.7908140980" lon="-8.6789843068">
        <ele>165.96</ele>
        <time>2019-12-29T11:08:33Z</time>
      </trkpt>
      <trkpt lat="37.7909197938" lon="-8.6788827181">
        <ele>165.96</ele>
        <time>2019-12-29T11:08:43Z</time>
      </trkpt>
      <trkpt lat="37.7909911238" lon="-8.6788092088">
        <ele>165.96</ele>
        <time>2019-12-29T11:08:50Z</time>
      </trkpt>
      <trkpt lat="37.7911424171" lon="-8.6786844023">
        <ele>165.00</ele>
        <time>2019-12-29T11:09:05Z</time>
      </trkpt>
      <trkpt lat="37.7911730949" lon="-8.6786553171">
        <ele>165.00</ele>
        <time>2019-12-29T11:09:08Z</time>
      </trkpt>
      <trkpt lat="37.7912174352" lon="-8.6786132399">
        <ele>165.00</ele>
        <time>2019-12-29T11:09:12Z</time>
      </trkpt>
      <trkpt lat="37.7912963089" lon="-8.6785699055">
        <ele>165.00</ele>
        <time>2019-12-29T11:09:19Z</time>
      </trkpt>
      <trkpt lat="37.7913952991" lon="-8.6785087176">
        <ele>165.00</ele>
        <time>2019-12-29T11:09:28Z</time>
      </trkpt>
      <trkpt lat="37.7914493624" lon="-8.6784884334">
        <ele>165.00</ele>
        <time>2019-12-29T11:09:32Z</time>
      </trkpt>
      <trkpt lat="37.7916207723" lon="-8.6784072965">
        <ele>164.52</ele>
        <time>2019-12-29T11:09:48Z</time>
      </trkpt>
      <trkpt lat="37.7916841395" lon="-8.6783820670">
        <ele>165.00</ele>
        <time>2019-12-29T11:09:53Z</time>
      </trkpt>
      <trkpt lat="37.7917495184" lon="-8.6783416662">
        <ele>164.52</ele>
        <time>2019-12-29T11:09:59Z</time>
      </trkpt>
      <trkpt lat="37.7918130532" lon="-8.6782983318">
        <ele>164.52</ele>
        <time>2019-12-29T11:10:04Z</time>
      </trkpt>
      <trkpt lat="37.7919350937" lon="-8.6781861819">
        <ele>163.56</ele>
        <time>2019-12-29T11:10:16Z</time>
      </trkpt>
      <trkpt lat="37.7919892408" lon="-8.6781374831">
        <ele>164.04</ele>
        <time>2019-12-29T11:10:21Z</time>
      </trkpt>
      <trkpt lat="37.7920583915" lon="-8.6780812405">
        <ele>164.04</ele>
        <time>2019-12-29T11:10:27Z</time>
      </trkpt>
      <trkpt lat="37.7921190765" lon="-8.6780348886">
        <ele>163.56</ele>
        <time>2019-12-29T11:10:33Z</time>
      </trkpt>
      <trkpt lat="37.7922788355" lon="-8.6779210623">
        <ele>163.56</ele>
        <time>2019-12-29T11:10:48Z</time>
      </trkpt>
      <trkpt lat="37.7923219185" lon="-8.6778898817">
        <ele>163.08</ele>
        <time>2019-12-29T11:10:52Z</time>
      </trkpt>
      <trkpt lat="37.7925035544" lon="-8.6778269336">
        <ele>163.08</ele>
        <time>2019-12-29T11:11:07Z</time>
      </trkpt>
      <trkpt lat="37.7926965058" lon="-8.6777965073">
        <ele>163.08</ele>
        <time>2019-12-29T11:11:23Z</time>
      </trkpt>
      <trkpt lat="37.7928218152" lon="-8.6778066494">
        <ele>163.08</ele>
        <time>2019-12-29T11:11:33Z</time>
      </trkpt>
      <trkpt lat="37.7929342166" lon="-8.6778022908">
        <ele>162.60</ele>
        <time>2019-12-29T11:11:41Z</time>
      </trkpt>
      <trkpt lat="37.7929557581" lon="-8.6778032128">
        <ele>163.08</ele>
        <time>2019-12-29T11:11:43Z</time>
      </trkpt>
      <trkpt lat="37.7930293512" lon="-8.6778109241">
        <ele>163.08</ele>
        <time>2019-12-29T11:11:48Z</time>
      </trkpt>
      <trkpt lat="37.7931874339" lon="-8.6778173782">
        <ele>162.12</ele>
        <time>2019-12-29T11:12:01Z</time>
      </trkpt>
      <trkpt lat="37.7932354622" lon="-8.6778229941">
        <ele>162.12</ele>
        <time>2019-12-29T11:12:05Z</time>
      </trkpt>
      <trkpt lat="37.7932730969" lon="-8.6778317951">
        <ele>162.12</ele>
        <time>2019-12-29T11:12:08Z</time>
      </trkpt>
      <trkpt lat="37.7934357058" lon="-8.6778832600">
        <ele>162.60</ele>
        <time>2019-12-29T11:12:20Z</time>
      </trkpt>
      <trkpt lat="37.7935443353" lon="-8.6779176258">
        <ele>162.12</ele>
        <time>2019-12-29T11:12:28Z</time>
      </trkpt>
      <trkpt lat="37.7937173378" lon="-8.6779266782">
        <ele>161.64</ele>
        <time>2019-12-29T11:12:41Z</time>
      </trkpt>
      <trkpt lat="37.7938860655" lon="-8.6778581981">
        <ele>161.16</ele>
        <time>2019-12-29T11:12:55Z</time>
      </trkpt>
      <trkpt lat="37.7939533722" lon="-8.6778367404">
        <ele>161.16</ele>
        <time>2019-12-29T11:13:00Z</time>
      </trkpt>
      <trkpt lat="37.7940035798" lon="-8.6777980160">
        <ele>160.68</ele>
        <time>2019-12-29T11:13:04Z</time>
      </trkpt>
      <trkpt lat="37.7940233611" lon="-8.6777794082">
        <ele>160.68</ele>
        <time>2019-12-29T11:13:06Z</time>
      </trkpt>
      <trkpt lat="37.7940640133" lon="-8.6777469702">
        <ele>161.16</ele>
        <time>2019-12-29T11:13:10Z</time>
      </trkpt>
      <trkpt lat="37.7942226827" lon="-8.6775417812">
        <ele>160.20</ele>
        <time>2019-12-29T11:13:25Z</time>
      </trkpt>
      <trkpt lat="37.7943242714" lon="-8.6774021387">
        <ele>159.72</ele>
        <time>2019-12-29T11:13:37Z</time>
      </trkpt>
      <trkpt lat="37.7943847887" lon="-8.6773215048">
        <ele>160.20</ele>
        <time>2019-12-29T11:13:44Z</time>
      </trkpt>
      <trkpt lat="37.7944636624" lon="-8.6772393622">
        <ele>160.20</ele>
        <time>2019-12-29T11:13:53Z</time>
      </trkpt>
      <trkpt lat="37.7944920771" lon="-8.6772057507">
        <ele>159.72</ele>
        <time>2019-12-29T11:13:56Z</time>
      </trkpt>
      <trkpt lat="37.7945722919" lon="-8.6771466583">
        <ele>160.20</ele>
        <time>2019-12-29T11:14:03Z</time>
      </trkpt>
      <trkpt lat="37.7946303785" lon="-8.6770855542">
        <ele>160.20</ele>
        <time>2019-12-29T11:14:09Z</time>
      </trkpt>
      <trkpt lat="37.7946886327" lon="-8.6770402920">
        <ele>159.72</ele>
        <time>2019-12-29T11:14:14Z</time>
      </trkpt>
      <trkpt lat="37.7947124373" lon="-8.6770205945">
        <ele>159.72</ele>
        <time>2019-12-29T11:14:16Z</time>
      </trkpt>
      <trkpt lat="37.7948881220" lon="-8.6768991407">
        <ele>159.72</ele>
        <time>2019-12-29T11:14:31Z</time>
      </trkpt>
      <trkpt lat="37.7950204723" lon="-8.6767901760">
        <ele>159.72</ele>
        <time>2019-12-29T11:14:43Z</time>
      </trkpt>
      <trkpt lat="37.7950397506" lon="-8.6767733283">
        <ele>159.72</ele>
        <time>2019-12-29T11:14:45Z</time>
      </trkpt>
      <trkpt lat="37.7950911317" lon="-8.6767102126">
        <ele>159.24</ele>
        <time>2019-12-29T11:14:50Z</time>
      </trkpt>
      <trkpt lat="37.7952135075" lon="-8.6765722465">
        <ele>159.72</ele>
        <time>2019-12-29T11:15:03Z</time>
      </trkpt>
      <trkpt lat="37.7953405771" lon="-8.6764323525">
        <ele>159.24</ele>
        <time>2019-12-29T11:15:16Z</time>
      </trkpt>
      <trkpt lat="37.7953477856" lon="-8.6764193606">
        <ele>159.24</ele>
        <time>2019-12-29T11:15:17Z</time>
      </trkpt>
      <trkpt lat="37.7953749429" lon="-8.6763860006">
        <ele>158.75</ele>
        <time>2019-12-29T11:15:20Z</time>
      </trkpt>
      <trkpt lat="37.7954564150" lon="-8.6763051152">
        <ele>158.75</ele>
        <time>2019-12-29T11:15:28Z</time>
      </trkpt>
      <trkpt lat="37.7955750190" lon="-8.6761885229">
        <ele>159.24</ele>
        <time>2019-12-29T11:15:39Z</time>
      </trkpt>
      <trkpt lat="37.7956447564" lon="-8.6761007644">
        <ele>159.24</ele>
        <time>2019-12-29T11:15:46Z</time>
      </trkpt>
      <trkpt lat="37.7957149129" lon="-8.6760347150">
        <ele>159.24</ele>
        <time>2019-12-29T11:15:53Z</time>
      </trkpt>
      <trkpt lat="37.7958344389" lon="-8.6759347189">
        <ele>158.75</ele>
        <time>2019-12-29T11:16:04Z</time>
      </trkpt>
      <trkpt lat="37.7959120553" lon="-8.6758749560">
        <ele>159.24</ele>
        <time>2019-12-29T11:16:11Z</time>
      </trkpt>
      <trkpt lat="37.7959396318" lon="-8.6758607905">
        <ele>159.24</ele>
        <time>2019-12-29T11:16:14Z</time>
      </trkpt>
      <trkpt lat="37.7961028274" lon="-8.6757601239">
        <ele>160.20</ele>
        <time>2019-12-29T11:16:29Z</time>
      </trkpt>
      <trkpt lat="37.7962355129" lon="-8.6757485569">
        <ele>160.20</ele>
        <time>2019-12-29T11:16:40Z</time>
      </trkpt>
      <trkpt lat="37.7963332459" lon="-8.6757405940">
        <ele>160.20</ele>
        <time>2019-12-29T11:16:48Z</time>
      </trkpt>
      <trkpt lat="37.7963535301" lon="-8.6757479701">
        <ele>160.20</ele>
        <time>2019-12-29T11:16:50Z</time>
      </trkpt>
      <trkpt lat="37.7965119481" lon="-8.6757348944">
        <ele>160.68</ele>
        <time>2019-12-29T11:17:03Z</time>
      </trkpt>
      <trkpt lat="37.7965386864" lon="-8.6757268477">
        <ele>160.68</ele>
        <time>2019-12-29T11:17:05Z</time>
      </trkpt>
      <trkpt lat="37.7965730522" lon="-8.6757338047">
        <ele>160.20</ele>
        <time>2019-12-29T11:17:08Z</time>
      </trkpt>
      <trkpt lat="37.7966315579" lon="-8.6757178791">
        <ele>160.68</ele>
        <time>2019-12-29T11:17:12Z</time>
      </trkpt>
      <trkpt lat="37.7966509201" lon="-8.6757249199">
        <ele>160.68</ele>
        <time>2019-12-29T11:17:14Z</time>
      </trkpt>
      <trkpt lat="37.7966872975" lon="-8.6757129338">
        <ele>161.16</ele>
        <time>2019-12-29T11:17:17Z</time>
      </trkpt>
      <trkpt lat="37.7967095096" lon="-8.6757188849">
        <ele>161.16</ele>
        <time>2019-12-29T11:17:19Z</time>
      </trkpt>
      <trkpt lat="37.7967480663" lon="-8.6757011991">
        <ele>161.16</ele>
        <time>2019-12-29T11:17:22Z</time>
      </trkpt>
      <trkpt lat="37.7968829311" lon="-8.6756659951">
        <ele>160.68</ele>
        <time>2019-12-29T11:17:34Z</time>
      </trkpt>
      <trkpt lat="37.7969602961" lon="-8.6756265163">
        <ele>160.68</ele>
        <time>2019-12-29T11:17:40Z</time>
      </trkpt>
      <trkpt lat="37.7970980946" lon="-8.6755704414">
        <ele>161.64</ele>
        <time>2019-12-29T11:17:51Z</time>
      </trkpt>
      <trkpt lat="37.7971643116" lon="-8.6755466368">
        <ele>160.68</ele>
        <time>2019-12-29T11:17:57Z</time>
      </trkpt>
      <trkpt lat="37.7973448578" lon="-8.6754529271">
        <ele>161.16</ele>
        <time>2019-12-29T11:18:12Z</time>
      </trkpt>
      <trkpt lat="37.7973565925" lon="-8.6754447967">
        <ele>161.16</ele>
        <time>2019-12-29T11:18:13Z</time>
      </trkpt>
      <trkpt lat="37.7973886114" lon="-8.6754267756">
        <ele>161.16</ele>
        <time>2019-12-29T11:18:16Z</time>
      </trkpt>
      <trkpt lat="37.7974789683" lon="-8.6753713712">
        <ele>161.16</ele>
        <time>2019-12-29T11:18:24Z</time>
      </trkpt>
      <trkpt lat="37.7975108195" lon="-8.6753574573">
        <ele>161.64</ele>
        <time>2019-12-29T11:18:27Z</time>
      </trkpt>
      <trkpt lat="37.7976631187" lon="-8.6752668489">
        <ele>161.64</ele>
        <time>2019-12-29T11:18:40Z</time>
      </trkpt>
      <trkpt lat="37.7977382205" lon="-8.6752350815">
        <ele>161.64</ele>
        <time>2019-12-29T11:18:46Z</time>
      </trkpt>
      <trkpt lat="37.7978621051" lon="-8.6751655117">
        <ele>161.64</ele>
        <time>2019-12-29T11:18:56Z</time>
      </trkpt>
      <trkpt lat="37.7979081217" lon="-8.6751239374">
        <ele>162.12</ele>
        <time>2019-12-29T11:19:00Z</time>
      </trkpt>
      <trkpt lat="37.7980495244" lon="-8.6750520207">
        <ele>162.12</ele>
        <time>2019-12-29T11:19:12Z</time>
      </trkpt>
      <trkpt lat="37.7981247939" lon="-8.6750231031">
        <ele>162.60</ele>
        <time>2019-12-29T11:19:19Z</time>
      </trkpt>
      <trkpt lat="37.7982398774" lon="-8.6749712192">
        <ele>163.08</ele>
        <time>2019-12-29T11:19:31Z</time>
      </trkpt>
      <trkpt lat="37.7982908394" lon="-8.6748680379">
        <ele>162.60</ele>
        <time>2019-12-29T11:19:42Z</time>
      </trkpt>
      <trkpt lat="37.7983098663" lon="-8.6748664454">
        <ele>162.60</ele>
        <time>2019-12-29T11:19:44Z</time>
      </trkpt>
      <trkpt lat="37.7983341739" lon="-8.6748596560">
        <ele>162.60</ele>
        <time>2019-12-29T11:19:46Z</time>
      </trkpt>
      <trkpt lat="37.7983646002" lon="-8.6748679541">
        <ele>163.08</ele>
        <time>2019-12-29T11:19:49Z</time>
      </trkpt>
      <trkpt lat="37.7984966990" lon="-8.6749886535">
        <ele>162.60</ele>
        <time>2019-12-29T11:20:04Z</time>
      </trkpt>
      <trkpt lat="37.7985788416" lon="-8.6750504281">
        <ele>162.60</ele>
        <time>2019-12-29T11:20:12Z</time>
      </trkpt>
      <trkpt lat="37.7986232657" lon="-8.6750877276">
        <ele>162.12</ele>
        <time>2019-12-29T11:20:16Z</time>
      </trkpt>
      <trkpt lat="37.7986392751" lon="-8.6751078442">
        <ele>162.12</ele>
        <time>2019-12-29T11:20:18Z</time>
      </trkpt>
      <trkpt lat="37.7986910753" lon="-8.6751407851">
        <ele>162.60</ele>
        <time>2019-12-29T11:20:24Z</time>
      </trkpt>
      <trkpt lat="37.7987153828" lon="-8.6751695350">
        <ele>162.60</ele>
        <time>2019-12-29T11:20:27Z</time>
      </trkpt>
      <trkpt lat="37.7987674344" lon="-8.6751350854">
        <ele>162.60</ele>
        <time>2019-12-29T11:20:33Z</time>
      </trkpt>
      <trkpt lat="37.7987888921" lon="-8.6751093529">
        <ele>162.60</ele>
        <time>2019-12-29T11:20:36Z</time>
      </trkpt>
      <trkpt lat="37.7988063265" lon="-8.6750937626">
        <ele>162.60</ele>
        <time>2019-12-29T11:20:38Z</time>
      </trkpt>
      <trkpt lat="37.7988183964" lon="-8.6750618275">
        <ele>162.12</ele>
        <time>2019-12-29T11:20:40Z</time>
      </trkpt>
      <trkpt lat="37.7988150436" lon="-8.6749279685">
        <ele>162.60</ele>
        <time>2019-12-29T11:20:49Z</time>
      </trkpt>
      <trkpt lat="37.7988157980" lon="-8.6748723965">
        <ele>163.08</ele>
        <time>2019-12-29T11:20:53Z</time>
      </trkpt>
      <trkpt lat="37.7988134511" lon="-8.6748487595">
        <ele>162.60</ele>
        <time>2019-12-29T11:20:55Z</time>
      </trkpt>
      <trkpt lat="37.7988331486" lon="-8.6747604143">
        <ele>162.60</ele>
        <time>2019-12-29T11:21:01Z</time>
      </trkpt>
      <trkpt lat="37.7988488227" lon="-8.6746252980">
        <ele>163.56</ele>
        <time>2019-12-29T11:21:09Z</time>
      </trkpt>
      <trkpt lat="37.7988819312" lon="-8.6744781118">
        <ele>163.56</ele>
        <time>2019-12-29T11:21:19Z</time>
      </trkpt>
      <trkpt lat="37.7989374194" lon="-8.6743533053">
        <ele>164.04</ele>
        <time>2019-12-29T11:21:28Z</time>
      </trkpt>
      <trkpt lat="37.7989724558" lon="-8.6742647924">
        <ele>164.52</ele>
        <time>2019-12-29T11:21:35Z</time>
      </trkpt>
      <trkpt lat="37.7989883814" lon="-8.6742405687">
        <ele>164.52</ele>
        <time>2019-12-29T11:21:37Z</time>
      </trkpt>
      <trkpt lat="37.7990152873" lon="-8.6741732620">
        <ele>165.00</ele>
        <time>2019-12-29T11:21:42Z</time>
      </trkpt>
      <trkpt lat="37.7990247589" lon="-8.6741426680">
        <ele>165.00</ele>
        <time>2019-12-29T11:21:44Z</time>
      </trkpt>
      <trkpt lat="37.7990657464" lon="-8.6740679014">
        <ele>165.48</ele>
        <time>2019-12-29T11:21:50Z</time>
      </trkpt>
      <trkpt lat="37.7991142776" lon="-8.6739936378">
        <ele>165.48</ele>
        <time>2019-12-29T11:21:57Z</time>
      </trkpt>
      <trkpt lat="37.7991978452" lon="-8.6739591043">
        <ele>165.48</ele>
        <time>2019-12-29T11:22:05Z</time>
      </trkpt>
      <trkpt lat="37.7992447000" lon="-8.6738859303">
        <ele>165.00</ele>
        <time>2019-12-29T11:22:12Z</time>
      </trkpt>
      <trkpt lat="37.7993307821" lon="-8.6738054641">
        <ele>164.52</ele>
        <time>2019-12-29T11:22:20Z</time>
      </trkpt>
      <trkpt lat="37.7994541638" lon="-8.6736781429">
        <ele>164.52</ele>
        <time>2019-12-29T11:22:33Z</time>
      </trkpt>
      <trkpt lat="37.7995463647" lon="-8.6735853553">
        <ele>164.04</ele>
        <time>2019-12-29T11:22:43Z</time>
      </trkpt>
      <trkpt lat="37.7995824069" lon="-8.6735597067">
        <ele>164.04</ele>
        <time>2019-12-29T11:22:47Z</time>
      </trkpt>
      <trkpt lat="37.7996442653" lon="-8.6733644083">
        <ele>163.08</ele>
        <time>2019-12-29T11:22:58Z</time>
      </trkpt>
      <trkpt lat="37.7997022681" lon="-8.6732953414">
        <ele>163.08</ele>
        <time>2019-12-29T11:23:04Z</time>
      </trkpt>
      <trkpt lat="37.7998135798" lon="-8.6731641646">
        <ele>162.60</ele>
        <time>2019-12-29T11:23:17Z</time>
      </trkpt>
      <trkpt lat="37.7998295892" lon="-8.6731403600">
        <ele>162.60</ele>
        <time>2019-12-29T11:23:19Z</time>
      </trkpt>
      <trkpt lat="37.7998666372" lon="-8.6730629951">
        <ele>162.60</ele>
        <time>2019-12-29T11:23:24Z</time>
      </trkpt>
      <trkpt lat="37.7999093849" lon="-8.6730128713">
        <ele>162.60</ele>
        <time>2019-12-29T11:23:29Z</time>
      </trkpt>
      <trkpt lat="37.7999530546" lon="-8.6729524378">
        <ele>162.12</ele>
        <time>2019-12-29T11:23:35Z</time>
      </trkpt>
      <trkpt lat="37.8000333533" lon="-8.6729134619">
        <ele>161.64</ele>
        <time>2019-12-29T11:23:43Z</time>
      </trkpt>
      <trkpt lat="37.8000884224" lon="-8.6728527769">
        <ele>161.64</ele>
        <time>2019-12-29T11:23:49Z</time>
      </trkpt>
      <trkpt lat="37.8001488559" lon="-8.6727827042">
        <ele>161.16</ele>
        <time>2019-12-29T11:23:56Z</time>
      </trkpt>
      <trkpt lat="37.8001740016" lon="-8.6726335902">
        <ele>160.68</ele>
        <time>2019-12-29T11:24:08Z</time>
      </trkpt>
      <trkpt lat="37.8001773544" lon="-8.6726220232">
        <ele>160.68</ele>
        <time>2019-12-29T11:24:14Z</time>
      </trkpt>
      <trkpt lat="37.8002095409" lon="-8.6725736596">
        <ele>160.68</ele>
        <time>2019-12-29T11:24:19Z</time>
      </trkpt>
      <trkpt lat="37.8002297413" lon="-8.6725618411">
        <ele>160.20</ele>
        <time>2019-12-29T11:24:21Z</time>
      </trkpt>
      <trkpt lat="37.8002415597" lon="-8.6725473404">
        <ele>160.20</ele>
        <time>2019-12-29T11:24:23Z</time>
      </trkpt>
      <trkpt lat="37.8002549708" lon="-8.6725366116">
        <ele>160.68</ele>
        <time>2019-12-29T11:24:25Z</time>
      </trkpt>
      <trkpt lat="37.8002854809" lon="-8.6725237034">
        <ele>160.68</ele>
        <time>2019-12-29T11:24:28Z</time>
      </trkpt>
      <trkpt lat="37.8003395442" lon="-8.6724434886">
        <ele>160.20</ele>
        <time>2019-12-29T11:24:37Z</time>
      </trkpt>
      <trkpt lat="37.8003722336" lon="-8.6723757628">
        <ele>160.20</ele>
        <time>2019-12-29T11:24:45Z</time>
      </trkpt>
      <trkpt lat="37.8003905900" lon="-8.6723303329">
        <ele>160.20</ele>
        <time>2019-12-29T11:24:49Z</time>
      </trkpt>
      <trkpt lat="37.8004021570" lon="-8.6723105516">
        <ele>159.72</ele>
        <time>2019-12-29T11:24:51Z</time>
      </trkpt>
      <trkpt lat="37.8004082758" lon="-8.6721739266">
        <ele>159.72</ele>
        <time>2019-12-29T11:25:03Z</time>
      </trkpt>
      <trkpt lat="37.8004097007" lon="-8.6721688136">
        <ele>160.20</ele>
        <time>2019-12-29T11:25:16Z</time>
      </trkpt>
      <trkpt lat="37.8004050069" lon="-8.6721845716">
        <ele>159.72</ele>
        <time>2019-12-29T11:25:31Z</time>
      </trkpt>
      <trkpt lat="37.8004050069" lon="-8.6721845716">
        <ele>159.72</ele>
        <time>2019-12-29T11:25:57Z</time>
      </trkpt>
      <trkpt lat="37.8004035819" lon="-8.6721818056">
        <ele>160.20</ele>
        <time>2019-12-29T11:26:25Z</time>
      </trkpt>
      <trkpt lat="37.8004060965" lon="-8.6721790396">
        <ele>160.20</ele>
        <time>2019-12-29T11:26:51Z</time>
      </trkpt>
      <trkpt lat="37.8004060965" lon="-8.6721790396">
        <ele>159.72</ele>
        <time>2019-12-29T11:27:04Z</time>
      </trkpt>
      <trkpt lat="37.8004294820" lon="-8.6722464301">
        <ele>160.68</ele>
        <time>2019-12-29T11:27:19Z</time>
      </trkpt>
      <trkpt lat="37.8004326671" lon="-8.6723096296">
        <ele>160.68</ele>
        <time>2019-12-29T11:27:31Z</time>
      </trkpt>
      <trkpt lat="37.8004520293" lon="-8.6723024212">
        <ele>160.68</ele>
        <time>2019-12-29T11:27:57Z</time>
      </trkpt>
      <trkpt lat="37.8005074337" lon="-8.6722425744">
        <ele>160.20</ele>
        <time>2019-12-29T11:28:05Z</time>
      </trkpt>
      <trkpt lat="37.8005501814" lon="-8.6722337734">
        <ele>160.20</ele>
        <time>2019-12-29T11:28:09Z</time>
      </trkpt>
      <trkpt lat="37.8006146383" lon="-8.6722063646">
        <ele>159.72</ele>
        <time>2019-12-29T11:28:23Z</time>
      </trkpt>
      <trkpt lat="37.8005964495" lon="-8.6722105555">
        <ele>159.72</ele>
        <time>2019-12-29T11:28:35Z</time>
      </trkpt>
      <trkpt lat="37.8005268797" lon="-8.6722742580">
        <ele>161.16</ele>
        <time>2019-12-29T11:28:47Z</time>
      </trkpt>
      <trkpt lat="37.8004885744" lon="-8.6723052710">
        <ele>160.68</ele>
        <time>2019-12-29T11:29:01Z</time>
      </trkpt>
      <trkpt lat="37.8004710563" lon="-8.6723530479">
        <ele>161.16</ele>
        <time>2019-12-29T11:29:13Z</time>
      </trkpt>
      <trkpt lat="37.8004697151" lon="-8.6723560654">
        <ele>160.68</ele>
        <time>2019-12-29T11:29:29Z</time>
      </trkpt>
      <trkpt lat="37.8004697151" lon="-8.6723560654">
        <ele>160.68</ele>
        <time>2019-12-29T11:29:56Z</time>
      </trkpt>
      <trkpt lat="37.8004660271" lon="-8.6723584961">
        <ele>160.20</ele>
        <time>2019-12-29T11:30:26Z</time>
      </trkpt>
      <trkpt lat="37.8004673682" lon="-8.6723579094">
        <ele>160.20</ele>
        <time>2019-12-29T11:30:53Z</time>
      </trkpt>
      <trkpt lat="37.8004659433" lon="-8.6723597534">
        <ele>160.20</ele>
        <time>2019-12-29T11:31:28Z</time>
      </trkpt>
      <trkpt lat="37.8004659433" lon="-8.6723597534">
        <ele>160.68</ele>
        <time>2019-12-29T11:31:59Z</time>
      </trkpt>
      <trkpt lat="37.8004653566" lon="-8.6723602563">
        <ele>160.68</ele>
        <time>2019-12-29T11:32:25Z</time>
      </trkpt>
      <trkpt lat="37.8004648536" lon="-8.6723614298">
        <ele>160.20</ele>
        <time>2019-12-29T11:32:55Z</time>
      </trkpt>
      <trkpt lat="37.8004648536" lon="-8.6723614298">
        <ele>160.20</ele>
        <time>2019-12-29T11:33:25Z</time>
      </trkpt>
      <trkpt lat="37.8004638478" lon="-8.6723634414">
        <ele>159.72</ele>
        <time>2019-12-29T11:33:54Z</time>
      </trkpt>
      <trkpt lat="37.8004663624" lon="-8.6723645311">
        <ele>160.20</ele>
        <time>2019-12-29T11:34:25Z</time>
      </trkpt>
      <trkpt lat="37.8004733194" lon="-8.6723651178">
        <ele>160.20</ele>
        <time>2019-12-29T11:35:02Z</time>
      </trkpt>
      <trkpt lat="37.8004747443" lon="-8.6723702308">
        <ele>159.72</ele>
        <time>2019-12-29T11:35:37Z</time>
      </trkpt>
      <trkpt lat="37.8004747443" lon="-8.6723702308">
        <ele>160.20</ele>
        <time>2019-12-29T11:36:07Z</time>
      </trkpt>
      <trkpt lat="37.8004718944" lon="-8.6723758467">
        <ele>159.72</ele>
        <time>2019-12-29T11:36:36Z</time>
      </trkpt>
      <trkpt lat="37.8004722297" lon="-8.6723745894">
        <ele>160.20</ele>
        <time>2019-12-29T11:37:10Z</time>
      </trkpt>
      <trkpt lat="37.8004734032" lon="-8.6723715719">
        <ele>159.72</ele>
        <time>2019-12-29T11:37:40Z</time>
      </trkpt>
      <trkpt lat="37.8004733194" lon="-8.6723714881">
        <ele>159.72</ele>
        <time>2019-12-29T11:38:18Z</time>
      </trkpt>
      <trkpt lat="37.8004723135" lon="-8.6723735835">
        <ele>159.72</ele>
        <time>2019-12-29T11:38:50Z</time>
      </trkpt>
      <trkpt lat="37.8004723135" lon="-8.6723735835">
        <ele>159.72</ele>
        <time>2019-12-29T11:39:19Z</time>
      </trkpt>
      <trkpt lat="37.8004717268" lon="-8.6723729130">
        <ele>159.72</ele>
        <time>2019-12-29T11:39:50Z</time>
      </trkpt>
      <trkpt lat="37.8004716430" lon="-8.6723711528">
        <ele>160.20</ele>
        <time>2019-12-29T11:40:20Z</time>
      </trkpt>
      <trkpt lat="37.8004725650" lon="-8.6723717395">
        <ele>159.72</ele>
        <time>2019-12-29T11:40:54Z</time>
      </trkpt>
      <trkpt lat="37.8004744090" lon="-8.6723723263">
        <ele>159.72</ele>
        <time>2019-12-29T11:41:28Z</time>
      </trkpt>
      <trkpt lat="37.8004744090" lon="-8.6723723263">
        <ele>159.72</ele>
        <time>2019-12-29T11:42:03Z</time>
      </trkpt>
      <trkpt lat="37.8004748281" lon="-8.6723723263">
        <ele>159.72</ele>
        <time>2019-12-29T11:42:37Z</time>
      </trkpt>
      <trkpt lat="37.8004761692" lon="-8.6723765172">
        <ele>159.24</ele>
        <time>2019-12-29T11:43:17Z</time>
      </trkpt>
      <trkpt lat="37.8004770074" lon="-8.6723792832">
        <ele>159.72</ele>
        <time>2019-12-29T11:43:50Z</time>
      </trkpt>
      <trkpt lat="37.8004775941" lon="-8.6723820493">
        <ele>159.72</ele>
        <time>2019-12-29T11:44:27Z</time>
      </trkpt>
      <trkpt lat="37.8004764207" lon="-8.6723820493">
        <ele>159.24</ele>
        <time>2019-12-29T11:44:59Z</time>
      </trkpt>
      <trkpt lat="37.8004770912" lon="-8.6723814625">
        <ele>159.24</ele>
        <time>2019-12-29T11:45:31Z</time>
      </trkpt>
      <trkpt lat="37.8004770912" lon="-8.6723814625">
        <ele>158.75</ele>
        <time>2019-12-29T11:45:56Z</time>
      </trkpt>
      <trkpt lat="37.8004748281" lon="-8.6723791156">
        <ele>159.24</ele>
        <time>2019-12-29T11:46:23Z</time>
      </trkpt>
      <trkpt lat="37.8004744090" lon="-8.6723798700">
        <ele>158.75</ele>
        <time>2019-12-29T11:46:58Z</time>
      </trkpt>
      <trkpt lat="37.8004727326" lon="-8.6723784450">
        <ele>158.27</ele>
        <time>2019-12-29T11:47:28Z</time>
      </trkpt>
      <trkpt lat="37.8004727326" lon="-8.6723784450">
        <ele>158.27</ele>
        <time>2019-12-29T11:48:00Z</time>
      </trkpt>
      <trkpt lat="37.8004754987" lon="-8.6723801214">
        <ele>158.27</ele>
        <time>2019-12-29T11:48:33Z</time>
      </trkpt>
      <trkpt lat="37.8004757501" lon="-8.6723813787">
        <ele>158.27</ele>
        <time>2019-12-29T11:49:00Z</time>
      </trkpt>
      <trkpt lat="37.8004750796" lon="-8.6723807920">
        <ele>158.27</ele>
        <time>2019-12-29T11:49:32Z</time>
      </trkpt>
      <trkpt lat="37.8004750796" lon="-8.6723807920">
        <ele>158.27</ele>
        <time>2019-12-29T11:50:01Z</time>
      </trkpt>
      <trkpt lat="37.8004752472" lon="-8.6723814625">
        <ele>158.27</ele>
        <time>2019-12-29T11:50:33Z</time>
      </trkpt>
      <trkpt lat="37.8004746605" lon="-8.6723815463">
        <ele>158.27</ele>
        <time>2019-12-29T11:51:07Z</time>
      </trkpt>
      <trkpt lat="37.8004739061" lon="-8.6723829713">
        <ele>157.79</ele>
        <time>2019-12-29T11:51:36Z</time>
      </trkpt>
      <trkpt lat="37.8004726488" lon="-8.6723820493">
        <ele>157.79</ele>
        <time>2019-12-29T11:52:14Z</time>
      </trkpt>
      <trkpt lat="37.8004726488" lon="-8.6723820493">
        <ele>157.79</ele>
        <time>2019-12-29T11:52:45Z</time>
      </trkpt>
      <trkpt lat="37.8004724812" lon="-8.6723812949">
        <ele>157.79</ele>
        <time>2019-12-29T11:53:18Z</time>
      </trkpt>
      <trkpt lat="37.8004755825" lon="-8.6723750085">
        <ele>157.79</ele>
        <time>2019-12-29T11:53:50Z</time>
      </trkpt>
      <trkpt lat="37.8004762530" lon="-8.6723704822">
        <ele>157.79</ele>
        <time>2019-12-29T11:54:19Z</time>
      </trkpt>
      <trkpt lat="37.8004749957" lon="-8.6723785289">
        <ele>157.31</ele>
        <time>2019-12-29T11:54:54Z</time>
      </trkpt>
      <trkpt lat="37.8004783485" lon="-8.6723785289">
        <ele>157.31</ele>
        <time>2019-12-29T11:55:29Z</time>
      </trkpt>
      <trkpt lat="37.8004783485" lon="-8.6723785289">
        <ele>157.31</ele>
        <time>2019-12-29T11:56:04Z</time>
      </trkpt>
      <trkpt lat="37.8004753310" lon="-8.6723854020">
        <ele>157.31</ele>
        <time>2019-12-29T11:56:35Z</time>
      </trkpt>
      <trkpt lat="37.8004749119" lon="-8.6723844800">
        <ele>157.31</ele>
        <time>2019-12-29T11:57:06Z</time>
      </trkpt>
      <trkpt lat="37.8004769236" lon="-8.6723873299">
        <ele>157.31</ele>
        <time>2019-12-29T11:57:37Z</time>
      </trkpt>
      <trkpt lat="37.8004769236" lon="-8.6723873299">
        <ele>157.31</ele>
        <time>2019-12-29T11:58:05Z</time>
      </trkpt>
      <trkpt lat="37.8004765883" lon="-8.6723849829">
        <ele>156.83</ele>
        <time>2019-12-29T11:58:30Z</time>
      </trkpt>
      <trkpt lat="37.8004755825" lon="-8.6723851506">
        <ele>156.83</ele>
        <time>2019-12-29T11:58:57Z</time>
      </trkpt>
      <trkpt lat="37.8004755825" lon="-8.6723851506">
        <ele>156.35</ele>
        <time>2019-12-29T11:59:26Z</time>
      </trkpt>
      <trkpt lat="37.8004780971" lon="-8.6723860726">
        <ele>156.83</ele>
        <time>2019-12-29T11:59:57Z</time>
      </trkpt>
      <trkpt lat="37.8004757501" lon="-8.6723864917">
        <ele>156.35</ele>
        <time>2019-12-29T12:00:22Z</time>
      </trkpt>
      <trkpt lat="37.8004775941" lon="-8.6723859888">
        <ele>156.35</ele>
        <time>2019-12-29T12:00:58Z</time>
      </trkpt>
      <trkpt lat="37.8004790191" lon="-8.6723839771">
        <ele>156.35</ele>
        <time>2019-12-29T12:01:32Z</time>
      </trkpt>
      <trkpt lat="37.8004790191" lon="-8.6723839771">
        <ele>155.87</ele>
        <time>2019-12-29T12:02:07Z</time>
      </trkpt>
      <trkpt lat="37.8004801925" lon="-8.6723859049">
        <ele>155.87</ele>
        <time>2019-12-29T12:02:43Z</time>
      </trkpt>
      <trkpt lat="37.8004811145" lon="-8.6723835580">
        <ele>155.87</ele>
        <time>2019-12-29T12:03:10Z</time>
      </trkpt>
      <trkpt lat="37.8004827909" lon="-8.6723850667">
        <ele>155.39</ele>
        <time>2019-12-29T12:03:41Z</time>
      </trkpt>
      <trkpt lat="37.8004812822" lon="-8.6723883357">
        <ele>155.39</ele>
        <time>2019-12-29T12:04:16Z</time>
      </trkpt>
      <trkpt lat="37.8004812822" lon="-8.6723883357">
        <ele>155.87</ele>
        <time>2019-12-29T12:04:45Z</time>
      </trkpt>
      <trkpt lat="37.8004765883" lon="-8.6723786127">
        <ele>156.35</ele>
        <time>2019-12-29T12:05:00Z</time>
      </trkpt>
      <trkpt lat="37.8004749957" lon="-8.6723775230">
        <ele>156.35</ele>
        <time>2019-12-29T12:05:18Z</time>
      </trkpt>
      <trkpt lat="37.8005635086" lon="-8.6723031756">
        <ele>155.39</ele>
        <time>2019-12-29T12:05:32Z</time>
      </trkpt>
      <trkpt lat="37.8006236907" lon="-8.6722414847">
        <ele>154.91</ele>
        <time>2019-12-29T12:05:40Z</time>
      </trkpt>
      <trkpt lat="37.8006654326" lon="-8.6722025927">
        <ele>155.39</ele>
        <time>2019-12-29T12:05:50Z</time>
      </trkpt>
      <trkpt lat="37.8006727248" lon="-8.6721902713">
        <ele>155.39</ele>
        <time>2019-12-29T12:06:05Z</time>
      </trkpt>
      <trkpt lat="37.8006723057" lon="-8.6721907742">
        <ele>155.39</ele>
        <time>2019-12-29T12:06:18Z</time>
      </trkpt>
      <trkpt lat="37.8006723057" lon="-8.6721907742">
        <ele>155.39</ele>
        <time>2019-12-29T12:06:41Z</time>
      </trkpt>
      <trkpt lat="37.8006628342" lon="-8.6721816380">
        <ele>155.39</ele>
        <time>2019-12-29T12:06:54Z</time>
      </trkpt>
      <trkpt lat="37.8006678633" lon="-8.6721857451">
        <ele>155.39</ele>
        <time>2019-12-29T12:07:13Z</time>
      </trkpt>
      <trkpt lat="37.8006982058" lon="-8.6721937917">
        <ele>155.39</ele>
        <time>2019-12-29T12:07:17Z</time>
      </trkpt>
      <trkpt lat="37.8007626627" lon="-8.6721801292">
        <ele>155.39</ele>
        <time>2019-12-29T12:07:24Z</time>
      </trkpt>
      <trkpt lat="37.8008777462" lon="-8.6721323524">
        <ele>155.39</ele>
        <time>2019-12-29T12:07:37Z</time>
      </trkpt>
      <trkpt lat="37.8009736352" lon="-8.6721449252">
        <ele>155.39</ele>
        <time>2019-12-29T12:07:50Z</time>
      </trkpt>
      <trkpt lat="37.8010579571" lon="-8.6722084600">
        <ele>155.39</ele>
        <time>2019-12-29T12:08:02Z</time>
      </trkpt>
      <trkpt lat="37.8010605555" lon="-8.6722109746">
        <ele>154.91</ele>
        <time>2019-12-29T12:08:03Z</time>
      </trkpt>
      <trkpt lat="37.8010892216" lon="-8.6722265650">
        <ele>154.91</ele>
        <time>2019-12-29T12:08:06Z</time>
      </trkpt>
      <trkpt lat="37.8012516629" lon="-8.6723753437">
        <ele>155.87</ele>
        <time>2019-12-29T12:08:21Z</time>
      </trkpt>
      <trkpt lat="37.8012612183" lon="-8.6723842286">
        <ele>154.91</ele>
        <time>2019-12-29T12:08:22Z</time>
      </trkpt>
      <trkpt lat="37.8012921475" lon="-8.6724263895">
        <ele>155.39</ele>
        <time>2019-12-29T12:08:25Z</time>
      </trkpt>
      <trkpt lat="37.8013138566" lon="-8.6724629346">
        <ele>155.39</ele>
        <time>2019-12-29T12:08:28Z</time>
      </trkpt>
      <trkpt lat="37.8013752960" lon="-8.6725206021">
        <ele>155.87</ele>
        <time>2019-12-29T12:08:41Z</time>
      </trkpt>
      <trkpt lat="37.8013680037" lon="-8.6725309957">
        <ele>155.39</ele>
        <time>2019-12-29T12:08:54Z</time>
      </trkpt>
      <trkpt lat="37.8013954125" lon="-8.6725138966">
        <ele>155.39</ele>
        <time>2019-12-29T12:09:16Z</time>
      </trkpt>
      <trkpt lat="37.8013848513" lon="-8.6725322530">
        <ele>155.87</ele>
        <time>2019-12-29T12:09:30Z</time>
      </trkpt>
      <trkpt lat="37.8014560137" lon="-8.6725221109">
        <ele>155.87</ele>
        <time>2019-12-29T12:09:46Z</time>
      </trkpt>
      <trkpt lat="37.8015494719" lon="-8.6726055108">
        <ele>155.87</ele>
        <time>2019-12-29T12:10:01Z</time>
      </trkpt>
      <trkpt lat="37.8015373182" lon="-8.6725988891">
        <ele>156.35</ele>
        <time>2019-12-29T12:10:06Z</time>
      </trkpt>
      <trkpt lat="37.8015139326" lon="-8.6725761741">
        <ele>156.35</ele>
        <time>2019-12-29T12:10:09Z</time>
      </trkpt>
      <trkpt lat="37.8014227375" lon="-8.6724766809">
        <ele>155.87</ele>
        <time>2019-12-29T12:10:22Z</time>
      </trkpt>
      <trkpt lat="37.8014001902" lon="-8.6724989768">
        <ele>155.87</ele>
        <time>2019-12-29T12:10:28Z</time>
      </trkpt>
      <trkpt lat="37.8014027048" lon="-8.6725969613">
        <ele>156.35</ele>
        <time>2019-12-29T12:10:33Z</time>
      </trkpt>
      <trkpt lat="37.8014089912" lon="-8.6726307403">
        <ele>156.35</ele>
        <time>2019-12-29T12:10:35Z</time>
      </trkpt>
      <trkpt lat="37.8014167864" lon="-8.6726932693">
        <ele>156.35</ele>
        <time>2019-12-29T12:10:40Z</time>
      </trkpt>
      <trkpt lat="37.8014510684" lon="-8.6727577262">
        <ele>156.35</ele>
        <time>2019-12-29T12:10:45Z</time>
      </trkpt>
      <trkpt lat="37.8014312033" lon="-8.6728471611">
        <ele>156.35</ele>
        <time>2019-12-29T12:10:51Z</time>
      </trkpt>
      <trkpt lat="37.8014378250" lon="-8.6729033198">
        <ele>156.35</ele>
        <time>2019-12-29T12:10:55Z</time>
      </trkpt>
      <trkpt lat="37.8014453687" lon="-8.6729435530">
        <ele>156.35</ele>
        <time>2019-12-29T12:10:58Z</time>
      </trkpt>
      <trkpt lat="37.8014528286" lon="-8.6729868874">
        <ele>156.35</ele>
        <time>2019-12-29T12:11:01Z</time>
      </trkpt>
      <trkpt lat="37.8014436085" lon="-8.6730129551">
        <ele>156.35</ele>
        <time>2019-12-29T12:11:03Z</time>
      </trkpt>
      <trkpt lat="37.8015065566" lon="-8.6730974447">
        <ele>156.35</ele>
        <time>2019-12-29T12:11:10Z</time>
      </trkpt>
      <trkpt lat="37.8015046287" lon="-8.6731204949">
        <ele>156.35</ele>
        <time>2019-12-29T12:11:12Z</time>
      </trkpt>
      <trkpt lat="37.8015776351" lon="-8.6732468102">
        <ele>156.83</ele>
        <time>2019-12-29T12:11:23Z</time>
      </trkpt>
      <trkpt lat="37.8015592787" lon="-8.6733920686">
        <ele>156.83</ele>
        <time>2019-12-29T12:11:35Z</time>
      </trkpt>
      <trkpt lat="37.8015866037" lon="-8.6734905560">
        <ele>156.83</ele>
        <time>2019-12-29T12:11:45Z</time>
      </trkpt>
      <trkpt lat="37.8016631305" lon="-8.6735840980">
        <ele>157.79</ele>
        <time>2019-12-29T12:11:56Z</time>
      </trkpt>
      <trkpt lat="37.8016641364" lon="-8.6736017838">
        <ele>157.79</ele>
        <time>2019-12-29T12:11:57Z</time>
      </trkpt>
      <trkpt lat="37.8016799781" lon="-8.6736768018">
        <ele>157.79</ele>
        <time>2019-12-29T12:12:05Z</time>
      </trkpt>
      <trkpt lat="37.8017039504" lon="-8.6737319548">
        <ele>157.79</ele>
        <time>2019-12-29T12:12:09Z</time>
      </trkpt>
      <trkpt lat="37.8016889468" lon="-8.6737534963">
        <ele>157.79</ele>
        <time>2019-12-29T12:12:11Z</time>
      </trkpt>
      <trkpt lat="37.8017078899" lon="-8.6737951543">
        <ele>157.79</ele>
        <time>2019-12-29T12:12:15Z</time>
      </trkpt>
      <trkpt lat="37.8017346282" lon="-8.6738189589">
        <ele>157.79</ele>
        <time>2019-12-29T12:12:18Z</time>
      </trkpt>
      <trkpt lat="37.8017912060" lon="-8.6738735251">
        <ele>158.27</ele>
        <time>2019-12-29T12:12:25Z</time>
      </trkpt>
      <trkpt lat="37.8018169384" lon="-8.6739069689">
        <ele>158.27</ele>
        <time>2019-12-29T12:12:28Z</time>
      </trkpt>
      <trkpt lat="37.8018482868" lon="-8.6739864293">
        <ele>160.20</ele>
        <time>2019-12-29T12:12:35Z</time>
      </trkpt>
      <trkpt lat="37.8018859215" lon="-8.6740966514">
        <ele>161.16</ele>
        <time>2019-12-29T12:12:44Z</time>
      </trkpt>
      <trkpt lat="37.8018941358" lon="-8.6741082184">
        <ele>161.16</ele>
        <time>2019-12-29T12:12:56Z</time>
      </trkpt>
      <trkpt lat="37.8018932976" lon="-8.6741130799">
        <ele>161.64</ele>
        <time>2019-12-29T12:13:03Z</time>
      </trkpt>
      <trkpt lat="37.8018969018" lon="-8.6741412431">
        <ele>161.64</ele>
        <time>2019-12-29T12:13:05Z</time>
      </trkpt>
      <trkpt lat="37.8019812237" lon="-8.6742510460">
        <ele>162.60</ele>
        <time>2019-12-29T12:13:16Z</time>
      </trkpt>
      <trkpt lat="37.8019901086" lon="-8.6742613558">
        <ele>163.08</ele>
        <time>2019-12-29T12:13:17Z</time>
      </trkpt>
      <trkpt lat="37.8020323534" lon="-8.6743067019">
        <ele>164.04</ele>
        <time>2019-12-29T12:13:22Z</time>
      </trkpt>
      <trkpt lat="37.8020421602" lon="-8.6743570771">
        <ele>164.52</ele>
        <time>2019-12-29T12:13:26Z</time>
      </trkpt>
      <trkpt lat="37.8020753525" lon="-8.6743668001">
        <ele>164.04</ele>
        <time>2019-12-29T12:13:28Z</time>
      </trkpt>
      <trkpt lat="37.8022249695" lon="-8.6743402295">
        <ele>164.52</ele>
        <time>2019-12-29T12:13:36Z</time>
      </trkpt>
      <trkpt lat="37.8021857422" lon="-8.6743767746">
        <ele>164.04</ele>
        <time>2019-12-29T12:13:48Z</time>
      </trkpt>
      <trkpt lat="37.8022165038" lon="-8.6743615195">
        <ele>163.56</ele>
        <time>2019-12-29T12:13:54Z</time>
      </trkpt>
      <trkpt lat="37.8022274002" lon="-8.6743451748">
        <ele>163.56</ele>
        <time>2019-12-29T12:13:56Z</time>
      </trkpt>
      <trkpt lat="37.8023199365" lon="-8.6742369644">
        <ele>162.60</ele>
        <time>2019-12-29T12:14:10Z</time>
      </trkpt>
      <trkpt lat="37.8023504466" lon="-8.6742058676">
        <ele>161.64</ele>
        <time>2019-12-29T12:14:15Z</time>
      </trkpt>
      <trkpt lat="37.8023570683" lon="-8.6741875950">
        <ele>162.12</ele>
        <time>2019-12-29T12:14:17Z</time>
      </trkpt>
      <trkpt lat="37.8023563139" lon="-8.6741430033">
        <ele>161.64</ele>
        <time>2019-12-29T12:14:23Z</time>
      </trkpt>
      <trkpt lat="37.8023828007" lon="-8.6741223838">
        <ele>161.64</ele>
        <time>2019-12-29T12:14:27Z</time>
      </trkpt>
      <trkpt lat="37.8024245426" lon="-8.6741005909">
        <ele>162.12</ele>
        <time>2019-12-29T12:14:38Z</time>
      </trkpt>
      <trkpt lat="37.8024643566" lon="-8.6740667280">
        <ele>162.60</ele>
        <time>2019-12-29T12:14:45Z</time>
      </trkpt>
      <trkpt lat="37.8024936933" lon="-8.6740546580">
        <ele>162.60</ele>
        <time>2019-12-29T12:14:48Z</time>
      </trkpt>
      <trkpt lat="37.8025485110" lon="-8.6740119103">
        <ele>163.08</ele>
        <time>2019-12-29T12:14:53Z</time>
      </trkpt>
      <trkpt lat="37.8026285581" lon="-8.6739529017">
        <ele>164.04</ele>
        <time>2019-12-29T12:15:01Z</time>
      </trkpt>
      <trkpt lat="37.8026772570" lon="-8.6739555839">
        <ele>164.04</ele>
        <time>2019-12-29T12:15:04Z</time>
      </trkpt>
      <trkpt lat="37.8027417138" lon="-8.6739288457">
        <ele>165.00</ele>
        <time>2019-12-29T12:15:17Z</time>
      </trkpt>
      <trkpt lat="37.8028049972" lon="-8.6738960724">
        <ele>164.52</ele>
        <time>2019-12-29T12:15:26Z</time>
      </trkpt>
      <trkpt lat="37.8028225992" lon="-8.6738827452">
        <ele>164.52</ele>
        <time>2019-12-29T12:15:28Z</time>
      </trkpt>
      <trkpt lat="37.8029691149" lon="-8.6737785581">
        <ele>163.56</ele>
        <time>2019-12-29T12:15:43Z</time>
      </trkpt>
      <trkpt lat="37.8030123655" lon="-8.6737548374">
        <ele>163.08</ele>
        <time>2019-12-29T12:15:46Z</time>
      </trkpt>
      <trkpt lat="37.8031113558" lon="-8.6736655701">
        <ele>163.08</ele>
        <time>2019-12-29T12:15:56Z</time>
      </trkpt>
      <trkpt lat="37.8031261079" lon="-8.6736502312">
        <ele>163.08</ele>
        <time>2019-12-29T12:15:58Z</time>
      </trkpt>
      <trkpt lat="37.8031578753" lon="-8.6735797394">
        <ele>161.64</ele>
        <time>2019-12-29T12:16:07Z</time>
      </trkpt>
      <trkpt lat="37.8031710349" lon="-8.6735591199">
        <ele>161.16</ele>
        <time>2019-12-29T12:16:09Z</time>
      </trkpt>
      <trkpt lat="37.8033069056" lon="-8.6734604649">
        <ele>161.16</ele>
        <time>2019-12-29T12:16:23Z</time>
      </trkpt>
      <trkpt lat="37.8033773974" lon="-8.6734154541">
        <ele>160.68</ele>
        <time>2019-12-29T12:16:31Z</time>
      </trkpt>
      <trkpt lat="37.8034074046" lon="-8.6734160408">
        <ele>160.68</ele>
        <time>2019-12-29T12:16:34Z</time>
      </trkpt>
      <trkpt lat="37.8034271859" lon="-8.6734154541">
        <ele>160.68</ele>
        <time>2019-12-29T12:16:36Z</time>
      </trkpt>
      <trkpt lat="37.8034573607" lon="-8.6734146997">
        <ele>160.68</ele>
        <time>2019-12-29T12:16:39Z</time>
      </trkpt>
      <trkpt lat="37.8035009466" lon="-8.6734072398">
        <ele>160.68</ele>
        <time>2019-12-29T12:16:43Z</time>
      </trkpt>
      <trkpt lat="37.8036229871" lon="-8.6733893026">
        <ele>160.20</ele>
        <time>2019-12-29T12:16:54Z</time>
      </trkpt>
      <trkpt lat="37.8036721051" lon="-8.6733766459">
        <ele>160.68</ele>
        <time>2019-12-29T12:16:59Z</time>
      </trkpt>
      <trkpt lat="37.8037042916" lon="-8.6733433697">
        <ele>160.20</ele>
        <time>2019-12-29T12:17:03Z</time>
      </trkpt>
      <trkpt lat="37.8037696704" lon="-8.6732564494">
        <ele>161.16</ele>
        <time>2019-12-29T12:17:14Z</time>
      </trkpt>
      <trkpt lat="37.8037990071" lon="-8.6732435413">
        <ele>161.16</ele>
        <time>2019-12-29T12:17:16Z</time>
      </trkpt>
      <trkpt lat="37.8038907889" lon="-8.6732190661">
        <ele>161.16</ele>
        <time>2019-12-29T12:17:23Z</time>
      </trkpt>
      <trkpt lat="37.8039673157" lon="-8.6731989495">
        <ele>161.64</ele>
        <time>2019-12-29T12:17:30Z</time>
      </trkpt>
      <trkpt lat="37.8040623665" lon="-8.6731507536">
        <ele>162.12</ele>
        <time>2019-12-29T12:17:38Z</time>
      </trkpt>
      <trkpt lat="37.8041502926" lon="-8.6731305532">
        <ele>162.60</ele>
        <time>2019-12-29T12:17:45Z</time>
      </trkpt>
      <trkpt lat="37.8043152485" lon="-8.6731237639">
        <ele>161.64</ele>
        <time>2019-12-29T12:17:59Z</time>
      </trkpt>
      <trkpt lat="37.8043232951" lon="-8.6731220037">
        <ele>161.16</ele>
        <time>2019-12-29T12:18:00Z</time>
      </trkpt>
      <trkpt lat="37.8043616004" lon="-8.6731234286">
        <ele>161.16</ele>
        <time>2019-12-29T12:18:04Z</time>
      </trkpt>
      <trkpt lat="37.8044534661" lon="-8.6731155496">
        <ele>160.68</ele>
        <time>2019-12-29T12:18:12Z</time>
      </trkpt>
      <trkpt lat="37.8046178352" lon="-8.6730579659">
        <ele>159.72</ele>
        <time>2019-12-29T12:18:26Z</time>
      </trkpt>
      <trkpt lat="37.8047412168" lon="-8.6729869712">
        <ele>158.27</ele>
        <time>2019-12-29T12:18:38Z</time>
      </trkpt>
      <trkpt lat="37.8047772590" lon="-8.6729722191">
        <ele>158.27</ele>
        <time>2019-12-29T12:18:41Z</time>
      </trkpt>
      <trkpt lat="37.8048537858" lon="-8.6728972010">
        <ele>157.79</ele>
        <time>2019-12-29T12:18:49Z</time>
      </trkpt>
      <trkpt lat="37.8048806079" lon="-8.6728723906">
        <ele>157.79</ele>
        <time>2019-12-29T12:18:52Z</time>
      </trkpt>
      <trkpt lat="37.8048985451" lon="-8.6728349235">
        <ele>157.31</ele>
        <time>2019-12-29T12:18:56Z</time>
      </trkpt>
      <trkpt lat="37.8049485013" lon="-8.6727258749">
        <ele>157.31</ele>
        <time>2019-12-29T12:19:05Z</time>
      </trkpt>
      <trkpt lat="37.8049446456" lon="-8.6726630945">
        <ele>156.83</ele>
        <time>2019-12-29T12:19:09Z</time>
      </trkpt>
      <trkpt lat="37.8049464058" lon="-8.6726327520">
        <ele>156.35</ele>
        <time>2019-12-29T12:19:11Z</time>
      </trkpt>
      <trkpt lat="37.8049748205" lon="-8.6724962946">
        <ele>155.39</ele>
        <time>2019-12-29T12:19:21Z</time>
      </trkpt>
      <trkpt lat="37.8049883153" lon="-8.6724533793">
        <ele>155.39</ele>
        <time>2019-12-29T12:19:24Z</time>
      </trkpt>
      <trkpt lat="37.8050626628" lon="-8.6723332666">
        <ele>153.95</ele>
        <time>2019-12-29T12:19:33Z</time>
      </trkpt>
      <trkpt lat="37.8051334899" lon="-8.6721585877">
        <ele>153.47</ele>
        <time>2019-12-29T12:19:45Z</time>
      </trkpt>
      <trkpt lat="37.8051566239" lon="-8.6720690690">
        <ele>152.51</ele>
        <time>2019-12-29T12:19:51Z</time>
      </trkpt>
      <trkpt lat="37.8051854577" lon="-8.6719948053">
        <ele>152.03</ele>
        <time>2019-12-29T12:19:57Z</time>
      </trkpt>
      <trkpt lat="37.8052584641" lon="-8.6718858406">
        <ele>151.54</ele>
        <time>2019-12-29T12:20:07Z</time>
      </trkpt>
      <trkpt lat="37.8052771557" lon="-8.6718606949">
        <ele>151.06</ele>
        <time>2019-12-29T12:20:09Z</time>
      </trkpt>
      <trkpt lat="37.8053541016" lon="-8.6717767920">
        <ele>150.58</ele>
        <time>2019-12-29T12:20:17Z</time>
      </trkpt>
      <trkpt lat="37.8053782415" lon="-8.6717329547">
        <ele>150.58</ele>
        <time>2019-12-29T12:20:21Z</time>
      </trkpt>
      <trkpt lat="37.8054120205" lon="-8.6716988403">
        <ele>150.10</ele>
        <time>2019-12-29T12:20:24Z</time>
      </trkpt>
      <trkpt lat="37.8054421954" lon="-8.6716513988">
        <ele>149.62</ele>
        <time>2019-12-29T12:20:29Z</time>
      </trkpt>
      <trkpt lat="37.8055038024" lon="-8.6715778057">
        <ele>149.62</ele>
        <time>2019-12-29T12:20:36Z</time>
      </trkpt>
      <trkpt lat="37.8055628948" lon="-8.6714588664">
        <ele>148.66</ele>
        <time>2019-12-29T12:20:45Z</time>
      </trkpt>
      <trkpt lat="37.8056074027" lon="-8.6713738739">
        <ele>148.18</ele>
        <time>2019-12-29T12:20:51Z</time>
      </trkpt>
      <trkpt lat="37.8056153655" lon="-8.6713431124">
        <ele>148.18</ele>
        <time>2019-12-29T12:20:53Z</time>
      </trkpt>
      <trkpt lat="37.8056392539" lon="-8.6712412722">
        <ele>147.22</ele>
        <time>2019-12-29T12:21:00Z</time>
      </trkpt>
      <trkpt lat="37.8056763858" lon="-8.6711071618">
        <ele>146.26</ele>
        <time>2019-12-29T12:21:09Z</time>
      </trkpt>
      <trkpt lat="37.8056943230" lon="-8.6710418668">
        <ele>145.78</ele>
        <time>2019-12-29T12:21:14Z</time>
      </trkpt>
      <trkpt lat="37.8057101648" lon="-8.6709486600">
        <ele>145.30</ele>
        <time>2019-12-29T12:21:20Z</time>
      </trkpt>
      <trkpt lat="37.8057410941" lon="-8.6707905773">
        <ele>144.34</ele>
        <time>2019-12-29T12:21:31Z</time>
      </trkpt>
      <trkpt lat="37.8057541698" lon="-8.6707366817">
        <ele>144.34</ele>
        <time>2019-12-29T12:21:35Z</time>
      </trkpt>
      <trkpt lat="37.8058136813" lon="-8.6706000566">
        <ele>142.89</ele>
        <time>2019-12-29T12:21:46Z</time>
      </trkpt>
      <trkpt lat="37.8058497235" lon="-8.6705244519">
        <ele>142.41</ele>
        <time>2019-12-29T12:21:52Z</time>
      </trkpt>
      <trkpt lat="37.8059093188" lon="-8.6704651918">
        <ele>141.93</ele>
        <time>2019-12-29T12:21:58Z</time>
      </trkpt>
      <trkpt lat="37.8059439361" lon="-8.6704268027">
        <ele>141.93</ele>
        <time>2019-12-29T12:22:02Z</time>
      </trkpt>
      <trkpt lat="37.8059653100" lon="-8.6704005674">
        <ele>141.93</ele>
        <time>2019-12-29T12:22:05Z</time>
      </trkpt>
      <trkpt lat="37.8061363008" lon="-8.6702959612">
        <ele>141.45</ele>
        <time>2019-12-29T12:22:20Z</time>
      </trkpt>
      <trkpt lat="37.8062872589" lon="-8.6702211108">
        <ele>140.01</ele>
        <time>2019-12-29T12:22:34Z</time>
      </trkpt>
      <trkpt lat="37.8064319305" lon="-8.6701712385">
        <ele>140.01</ele>
        <time>2019-12-29T12:22:47Z</time>
      </trkpt>
      <trkpt lat="37.8066006582" lon="-8.6701392196">
        <ele>139.53</ele>
        <time>2019-12-29T12:23:02Z</time>
      </trkpt>
      <trkpt lat="37.8067097906" lon="-8.6701198574">
        <ele>139.53</ele>
        <time>2019-12-29T12:23:12Z</time>
      </trkpt>
      <trkpt lat="37.8068828769" lon="-8.6700465158">
        <ele>138.57</ele>
        <time>2019-12-29T12:23:27Z</time>
      </trkpt>
      <trkpt lat="37.8069320787" lon="-8.6700346973">
        <ele>138.57</ele>
        <time>2019-12-29T12:23:31Z</time>
      </trkpt>
      <trkpt lat="37.8069785982" lon="-8.6700118147">
        <ele>138.09</ele>
        <time>2019-12-29T12:23:35Z</time>
      </trkpt>
      <trkpt lat="37.8070720565" lon="-8.6699694023">
        <ele>138.09</ele>
        <time>2019-12-29T12:23:44Z</time>
      </trkpt>
      <trkpt lat="37.8072293010" lon="-8.6699161772">
        <ele>137.61</ele>
        <time>2019-12-29T12:23:58Z</time>
      </trkpt>
      <trkpt lat="37.8072513454" lon="-8.6699009221">
        <ele>137.61</ele>
        <time>2019-12-29T12:24:01Z</time>
      </trkpt>
      <trkpt lat="37.8073302191" lon="-8.6698580068">
        <ele>137.61</ele>
        <time>2019-12-29T12:24:08Z</time>
      </trkpt>
      <trkpt lat="37.8073522635" lon="-8.6698466912">
        <ele>137.61</ele>
        <time>2019-12-29T12:24:10Z</time>
      </trkpt>
      <trkpt lat="37.8074760642" lon="-8.6696943082">
        <ele>137.13</ele>
        <time>2019-12-29T12:24:25Z</time>
      </trkpt>
      <trkpt lat="37.8075250983" lon="-8.6696495488">
        <ele>136.64</ele>
        <time>2019-12-29T12:24:30Z</time>
      </trkpt>
      <trkpt lat="37.8076311294" lon="-8.6695072241">
        <ele>136.16</ele>
        <time>2019-12-29T12:24:43Z</time>
      </trkpt>
      <trkpt lat="37.8077475540" lon="-8.6693311203">
        <ele>135.68</ele>
        <time>2019-12-29T12:24:57Z</time>
      </trkpt>
      <trkpt lat="37.8077773098" lon="-8.6693000235">
        <ele>135.20</ele>
        <time>2019-12-29T12:25:00Z</time>
      </trkpt>
      <trkpt lat="37.8078367375" lon="-8.6691421922">
        <ele>135.20</ele>
        <time>2019-12-29T12:25:11Z</time>
      </trkpt>
      <trkpt lat="37.8078502323" lon="-8.6691093352">
        <ele>135.20</ele>
        <time>2019-12-29T12:25:13Z</time>
      </trkpt>
      <trkpt lat="37.8078651521" lon="-8.6690841895">
        <ele>135.20</ele>
        <time>2019-12-29T12:25:15Z</time>
      </trkpt>
      <trkpt lat="37.8079001885" lon="-8.6689763982">
        <ele>134.72</ele>
        <time>2019-12-29T12:25:23Z</time>
      </trkpt>
      <trkpt lat="37.8079220653" lon="-8.6689173896">
        <ele>134.72</ele>
        <time>2019-12-29T12:25:27Z</time>
      </trkpt>
      <trkpt lat="37.8079392482" lon="-8.6688935012">
        <ele>134.24</ele>
        <time>2019-12-29T12:25:29Z</time>
      </trkpt>
      <trkpt lat="37.8079912998" lon="-8.6687966064">
        <ele>134.24</ele>
        <time>2019-12-29T12:25:37Z</time>
      </trkpt>
      <trkpt lat="37.8080300242" lon="-8.6687263660">
        <ele>133.76</ele>
        <time>2019-12-29T12:25:43Z</time>
      </trkpt>
      <trkpt lat="37.8080638871" lon="-8.6686603166">
        <ele>133.28</ele>
        <time>2019-12-29T12:25:48Z</time>
      </trkpt>
      <trkpt lat="37.8081204649" lon="-8.6685852986">
        <ele>133.28</ele>
        <time>2019-12-29T12:25:55Z</time>
      </trkpt>
      <trkpt lat="37.8081860114" lon="-8.6684904154">
        <ele>133.28</ele>
        <time>2019-12-29T12:26:03Z</time>
      </trkpt>
      <trkpt lat="37.8082212154" lon="-8.6684283894">
        <ele>132.80</ele>
        <time>2019-12-29T12:26:08Z</time>
      </trkpt>
      <trkpt lat="37.8083204571" lon="-8.6682604998">
        <ele>132.32</ele>
        <time>2019-12-29T12:26:22Z</time>
      </trkpt>
      <trkpt lat="37.8083398193" lon="-8.6682355218">
        <ele>132.80</ele>
        <time>2019-12-29T12:26:24Z</time>
      </trkpt>
      <trkpt lat="37.8083874285" lon="-8.6681222823">
        <ele>132.32</ele>
        <time>2019-12-29T12:26:33Z</time>
      </trkpt>
      <trkpt lat="37.8084386420" lon="-8.6679610983">
        <ele>132.32</ele>
        <time>2019-12-29T12:26:45Z</time>
      </trkpt>
      <trkpt lat="37.8085076250" lon="-8.6677706614">
        <ele>131.36</ele>
        <time>2019-12-29T12:26:59Z</time>
      </trkpt>
      <trkpt lat="37.8085139953" lon="-8.6677407380">
        <ele>131.84</ele>
        <time>2019-12-29T12:27:01Z</time>
      </trkpt>
      <trkpt lat="37.8085308429" lon="-8.6676861718">
        <ele>131.84</ele>
        <time>2019-12-29T12:27:05Z</time>
      </trkpt>
      <trkpt lat="37.8085580841" lon="-8.6675825715">
        <ele>131.84</ele>
        <time>2019-12-29T12:27:12Z</time>
      </trkpt>
      <trkpt lat="37.8085673042" lon="-8.6675173603">
        <ele>131.84</ele>
        <time>2019-12-29T12:27:17Z</time>
      </trkpt>
      <trkpt lat="37.8085871693" lon="-8.6674612015">
        <ele>131.84</ele>
        <time>2019-12-29T12:27:21Z</time>
      </trkpt>
      <trkpt lat="37.8086046036" lon="-8.6674127541">
        <ele>131.36</ele>
        <time>2019-12-29T12:27:25Z</time>
      </trkpt>
      <trkpt lat="37.8086786158" lon="-8.6672674958">
        <ele>132.32</ele>
        <time>2019-12-29T12:27:37Z</time>
      </trkpt>
      <trkpt lat="37.8087405581" lon="-8.6671819165">
        <ele>131.84</ele>
        <time>2019-12-29T12:27:44Z</time>
      </trkpt>
      <trkpt lat="37.8087714035" lon="-8.6669972632">
        <ele>132.32</ele>
        <time>2019-12-29T12:27:57Z</time>
      </trkpt>
      <trkpt lat="37.8087802045" lon="-8.6669674236">
        <ele>132.32</ele>
        <time>2019-12-29T12:27:59Z</time>
      </trkpt>
      <trkpt lat="37.8087885026" lon="-8.6669018771">
        <ele>132.32</ele>
        <time>2019-12-29T12:28:04Z</time>
      </trkpt>
      <trkpt lat="37.8087996505" lon="-8.6668618117">
        <ele>132.32</ele>
        <time>2019-12-29T12:28:07Z</time>
      </trkpt>
      <trkpt lat="37.8088197671" lon="-8.6667690240">
        <ele>132.32</ele>
        <time>2019-12-29T12:28:13Z</time>
      </trkpt>
      <trkpt lat="37.8088521212" lon="-8.6666568741">
        <ele>132.80</ele>
        <time>2019-12-29T12:28:21Z</time>
      </trkpt>
      <trkpt lat="37.8088684659" lon="-8.6666007992">
        <ele>132.80</ele>
        <time>2019-12-29T12:28:25Z</time>
      </trkpt>
      <trkpt lat="37.8088923544" lon="-8.6665185727">
        <ele>133.28</ele>
        <time>2019-12-29T12:28:31Z</time>
      </trkpt>
      <trkpt lat="37.8089154884" lon="-8.6663821992">
        <ele>133.76</ele>
        <time>2019-12-29T12:28:41Z</time>
      </trkpt>
      <trkpt lat="37.8089474235" lon="-8.6662357673">
        <ele>133.76</ele>
        <time>2019-12-29T12:28:51Z</time>
      </trkpt>
      <trkpt lat="37.8089996427" lon="-8.6661130562">
        <ele>133.28</ele>
        <time>2019-12-29T12:29:00Z</time>
      </trkpt>
      <trkpt lat="37.8090512753" lon="-8.6659814604">
        <ele>133.28</ele>
        <time>2019-12-29T12:29:10Z</time>
      </trkpt>
      <trkpt lat="37.8090799414" lon="-8.6658998206">
        <ele>132.80</ele>
        <time>2019-12-29T12:29:17Z</time>
      </trkpt>
      <trkpt lat="37.8092077654" lon="-8.6657859106">
        <ele>132.80</ele>
        <time>2019-12-29T12:29:30Z</time>
      </trkpt>
      <trkpt lat="37.8092261218" lon="-8.6657743435">
        <ele>132.80</ele>
        <time>2019-12-29T12:29:32Z</time>
      </trkpt>
      <trkpt lat="37.8092450649" lon="-8.6657615192">
        <ele>132.32</ele>
        <time>2019-12-29T12:29:34Z</time>
      </trkpt>
      <trkpt lat="37.8093942627" lon="-8.6656613555">
        <ele>130.88</ele>
        <time>2019-12-29T12:29:49Z</time>
      </trkpt>
      <trkpt lat="37.8095768206" lon="-8.6655357946">
        <ele>130.40</ele>
        <time>2019-12-29T12:30:07Z</time>
      </trkpt>
      <trkpt lat="37.8097010404" lon="-8.6654141732">
        <ele>130.40</ele>
        <time>2019-12-29T12:30:21Z</time>
      </trkpt>
      <trkpt lat="37.8097118530" lon="-8.6653663125">
        <ele>130.40</ele>
        <time>2019-12-29T12:30:24Z</time>
      </trkpt>
      <trkpt lat="37.8097938281" lon="-8.6652255803">
        <ele>130.88</ele>
        <time>2019-12-29T12:30:36Z</time>
      </trkpt>
      <trkpt lat="37.8098572791" lon="-8.6651231535">
        <ele>130.88</ele>
        <time>2019-12-29T12:30:45Z</time>
      </trkpt>
      <trkpt lat="37.8098686785" lon="-8.6651008576">
        <ele>130.88</ele>
        <time>2019-12-29T12:30:47Z</time>
      </trkpt>
      <trkpt lat="37.8098777309" lon="-8.6650761310">
        <ele>130.88</ele>
        <time>2019-12-29T12:30:49Z</time>
      </trkpt>
      <trkpt lat="37.8099356499" lon="-8.6649716087">
        <ele>131.36</ele>
        <time>2019-12-29T12:30:57Z</time>
      </trkpt>
      <trkpt lat="37.8099754639" lon="-8.6648766417">
        <ele>131.36</ele>
        <time>2019-12-29T12:31:04Z</time>
      </trkpt>
      <trkpt lat="37.8100194689" lon="-8.6647827644">
        <ele>131.36</ele>
        <time>2019-12-29T12:31:12Z</time>
      </trkpt>
      <trkpt lat="37.8100774717" lon="-8.6647012923">
        <ele>131.36</ele>
        <time>2019-12-29T12:31:19Z</time>
      </trkpt>
      <trkpt lat="37.8100834228" lon="-8.6646761466">
        <ele>131.36</ele>
        <time>2019-12-29T12:31:21Z</time>
      </trkpt>
      <trkpt lat="37.8101207223" lon="-8.6646196526">
        <ele>131.36</ele>
        <time>2019-12-29T12:31:26Z</time>
      </trkpt>
      <trkpt lat="37.8101727739" lon="-8.6645216681">
        <ele>131.36</ele>
        <time>2019-12-29T12:31:34Z</time>
      </trkpt>
      <trkpt lat="37.8102182876" lon="-8.6644384358">
        <ele>130.88</ele>
        <time>2019-12-29T12:31:41Z</time>
      </trkpt>
      <trkpt lat="37.8102503903" lon="-8.6643868871">
        <ele>130.40</ele>
        <time>2019-12-29T12:31:45Z</time>
      </trkpt>
      <trkpt lat="37.8103565052" lon="-8.6642551236">
        <ele>130.40</ele>
        <time>2019-12-29T12:31:57Z</time>
      </trkpt>
      <trkpt lat="37.8103817347" lon="-8.6642036587">
        <ele>130.40</ele>
        <time>2019-12-29T12:32:01Z</time>
      </trkpt>
      <trkpt lat="37.8104348760" lon="-8.6641494278">
        <ele>129.92</ele>
        <time>2019-12-29T12:32:06Z</time>
      </trkpt>
      <trkpt lat="37.8104550764" lon="-8.6641268805">
        <ele>129.43</ele>
        <time>2019-12-29T12:32:08Z</time>
      </trkpt>
      <trkpt lat="37.8105783742" lon="-8.6639619246">
        <ele>128.47</ele>
        <time>2019-12-29T12:32:23Z</time>
      </trkpt>
      <trkpt lat="37.8105971497" lon="-8.6639292352">
        <ele>127.99</ele>
        <time>2019-12-29T12:32:26Z</time>
      </trkpt>
      <trkpt lat="37.8106405679" lon="-8.6638678797">
        <ele>128.47</ele>
        <time>2019-12-29T12:32:35Z</time>
      </trkpt>
      <trkpt lat="37.8106999118" lon="-8.6637868267">
        <ele>127.99</ele>
        <time>2019-12-29T12:32:43Z</time>
      </trkpt>
      <trkpt lat="37.8107511252" lon="-8.6637446657">
        <ele>127.99</ele>
        <time>2019-12-29T12:32:48Z</time>
      </trkpt>
      <trkpt lat="37.8107930347" lon="-8.6637076177">
        <ele>127.51</ele>
        <time>2019-12-29T12:32:52Z</time>
      </trkpt>
      <trkpt lat="37.8108426556" lon="-8.6636317614">
        <ele>127.03</ele>
        <time>2019-12-29T12:32:59Z</time>
      </trkpt>
      <trkpt lat="37.8108664602" lon="-8.6636030115">
        <ele>126.55</ele>
        <time>2019-12-29T12:33:02Z</time>
      </trkpt>
      <trkpt lat="37.8109836392" lon="-8.6634376366">
        <ele>126.07</ele>
        <time>2019-12-29T12:33:17Z</time>
      </trkpt>
      <trkpt lat="37.8110466711" lon="-8.6633787956">
        <ele>125.11</ele>
        <time>2019-12-29T12:33:23Z</time>
      </trkpt>
      <trkpt lat="37.8111365251" lon="-8.6633440107">
        <ele>125.59</ele>
        <time>2019-12-29T12:33:32Z</time>
      </trkpt>
      <trkpt lat="37.8112889081" lon="-8.6633114889">
        <ele>125.11</ele>
        <time>2019-12-29T12:33:45Z</time>
      </trkpt>
      <trkpt lat="37.8113578912" lon="-8.6632730160">
        <ele>125.11</ele>
        <time>2019-12-29T12:33:52Z</time>
      </trkpt>
      <trkpt lat="37.8113978729" lon="-8.6632263288">
        <ele>125.59</ele>
        <time>2019-12-29T12:33:57Z</time>
      </trkpt>
      <trkpt lat="37.8114480805" lon="-8.6631960701">
        <ele>125.59</ele>
        <time>2019-12-29T12:34:01Z</time>
      </trkpt>
      <trkpt lat="37.8115543630" lon="-8.6630901229">
        <ele>125.59</ele>
        <time>2019-12-29T12:34:11Z</time>
      </trkpt>
      <trkpt lat="37.8115618229" lon="-8.6630801484">
        <ele>125.59</ele>
        <time>2019-12-29T12:34:12Z</time>
      </trkpt>
      <trkpt lat="37.8116902336" lon="-8.6629163660">
        <ele>125.11</ele>
        <time>2019-12-29T12:34:28Z</time>
      </trkpt>
      <trkpt lat="37.8117290419" lon="-8.6628736183">
        <ele>125.59</ele>
        <time>2019-12-29T12:34:33Z</time>
      </trkpt>
      <trkpt lat="37.8117810935" lon="-8.6628129333">
        <ele>125.59</ele>
        <time>2019-12-29T12:34:39Z</time>
      </trkpt>
      <trkpt lat="37.8118924052" lon="-8.6627250910">
        <ele>125.11</ele>
        <time>2019-12-29T12:34:50Z</time>
      </trkpt>
      <trkpt lat="37.8119762242" lon="-8.6626311298">
        <ele>125.59</ele>
        <time>2019-12-29T12:35:00Z</time>
      </trkpt>
      <trkpt lat="37.8120401781" lon="-8.6625856161">
        <ele>125.59</ele>
        <time>2019-12-29T12:35:06Z</time>
      </trkpt>
      <trkpt lat="37.8121232428" lon="-8.6625375040">
        <ele>125.59</ele>
        <time>2019-12-29T12:35:13Z</time>
      </trkpt>
      <trkpt lat="37.8122308664" lon="-8.6624617316">
        <ele>125.59</ele>
        <time>2019-12-29T12:35:23Z</time>
      </trkpt>
      <trkpt lat="37.8122856840" lon="-8.6623963527">
        <ele>126.07</ele>
        <time>2019-12-29T12:35:30Z</time>
      </trkpt>
      <trkpt lat="37.8123937268" lon="-8.6622582190">
        <ele>127.03</ele>
        <time>2019-12-29T12:35:44Z</time>
      </trkpt>
      <trkpt lat="37.8124875203" lon="-8.6621687841">
        <ele>127.03</ele>
        <time>2019-12-29T12:35:55Z</time>
      </trkpt>
      <trkpt lat="37.8125824034" lon="-8.6620744877">
        <ele>127.51</ele>
        <time>2019-12-29T12:36:06Z</time>
      </trkpt>
      <trkpt lat="37.8126122430" lon="-8.6620480847">
        <ele>127.51</ele>
        <time>2019-12-29T12:36:09Z</time>
      </trkpt>
      <trkpt lat="37.8126451001" lon="-8.6620064266">
        <ele>127.51</ele>
        <time>2019-12-29T12:36:13Z</time>
      </trkpt>
      <trkpt lat="37.8127118200" lon="-8.6619473342">
        <ele>127.99</ele>
        <time>2019-12-29T12:36:20Z</time>
      </trkpt>
      <trkpt lat="37.8127575014" lon="-8.6619205121">
        <ele>128.47</ele>
        <time>2019-12-29T12:36:24Z</time>
      </trkpt>
      <trkpt lat="37.8128621913" lon="-8.6618755851">
        <ele>128.95</ele>
        <time>2019-12-29T12:36:32Z</time>
      </trkpt>
      <trkpt lat="37.8129455913" lon="-8.6618202645">
        <ele>129.43</ele>
        <time>2019-12-29T12:36:39Z</time>
      </trkpt>
      <trkpt lat="37.8129926976" lon="-8.6617927719">
        <ele>129.43</ele>
        <time>2019-12-29T12:36:43Z</time>
      </trkpt>
      <trkpt lat="37.8130279854" lon="-8.6617645249">
        <ele>129.43</ele>
        <time>2019-12-29T12:36:47Z</time>
      </trkpt>
      <trkpt lat="37.8130836412" lon="-8.6617307458">
        <ele>129.92</ele>
        <time>2019-12-29T12:36:53Z</time>
      </trkpt>
      <trkpt lat="37.8130986448" lon="-8.6617098749">
        <ele>129.92</ele>
        <time>2019-12-29T12:36:55Z</time>
      </trkpt>
      <trkpt lat="37.8132200148" lon="-8.6616260558">
        <ele>130.40</ele>
        <time>2019-12-29T12:37:07Z</time>
      </trkpt>
      <trkpt lat="37.8132355213" lon="-8.6616134830">
        <ele>130.88</ele>
        <time>2019-12-29T12:37:09Z</time>
      </trkpt>
      <trkpt lat="37.8133898322" lon="-8.6615279038">
        <ele>131.84</ele>
        <time>2019-12-29T12:37:23Z</time>
      </trkpt>
      <trkpt lat="37.8134550434" lon="-8.6614688952">
        <ele>132.32</ele>
        <time>2019-12-29T12:37:30Z</time>
      </trkpt>
      <trkpt lat="37.8134763334" lon="-8.6614365410">
        <ele>132.32</ele>
        <time>2019-12-29T12:37:33Z</time>
      </trkpt>
      <trkpt lat="37.8135751560" lon="-8.6613530573">
        <ele>132.80</ele>
        <time>2019-12-29T12:37:44Z</time>
      </trkpt>
      <trkpt lat="37.8137086798" lon="-8.6612715852">
        <ele>133.76</ele>
        <time>2019-12-29T12:37:56Z</time>
      </trkpt>
      <trkpt lat="37.8137167264" lon="-8.6612633709">
        <ele>133.76</ele>
        <time>2019-12-29T12:37:57Z</time>
      </trkpt>
      <trkpt lat="37.8138323128" lon="-8.6611806415">
        <ele>134.24</ele>
        <time>2019-12-29T12:38:07Z</time>
      </trkpt>
      <trkpt lat="37.8138497472" lon="-8.6611642130">
        <ele>134.72</ele>
        <time>2019-12-29T12:38:09Z</time>
      </trkpt>
      <trkpt lat="37.8138444666" lon="-8.6611409951">
        <ele>134.72</ele>
        <time>2019-12-29T12:38:11Z</time>
      </trkpt>
      <trkpt lat="37.8139026370" lon="-8.6611033604">
        <ele>135.20</ele>
        <time>2019-12-29T12:38:17Z</time>
      </trkpt>
      <trkpt lat="37.8139789961" lon="-8.6610506382">
        <ele>136.16</ele>
        <time>2019-12-29T12:38:24Z</time>
      </trkpt>
      <trkpt lat="37.8140235879" lon="-8.6610227264">
        <ele>135.68</ele>
        <time>2019-12-29T12:38:28Z</time>
      </trkpt>
      <trkpt lat="37.8140718676" lon="-8.6609828286">
        <ele>136.16</ele>
        <time>2019-12-29T12:38:33Z</time>
      </trkpt>
      <trkpt lat="37.8142129350" lon="-8.6608849280">
        <ele>136.64</ele>
        <time>2019-12-29T12:38:47Z</time>
      </trkpt>
      <trkpt lat="37.8142724466" lon="-8.6608374864">
        <ele>137.13</ele>
        <time>2019-12-29T12:38:53Z</time>
      </trkpt>
      <trkpt lat="37.8143260907" lon="-8.6607700121">
        <ele>137.61</ele>
        <time>2019-12-29T12:39:00Z</time>
      </trkpt>
      <trkpt lat="37.8144123405" lon="-8.6606781464">
        <ele>137.61</ele>
        <time>2019-12-29T12:39:09Z</time>
      </trkpt>
      <trkpt lat="37.8144914657" lon="-8.6606233288">
        <ele>138.09</ele>
        <time>2019-12-29T12:39:15Z</time>
      </trkpt>
      <trkpt lat="37.8145342972" lon="-8.6605637334">
        <ele>139.05</ele>
        <time>2019-12-29T12:39:21Z</time>
      </trkpt>
      <trkpt lat="37.8145644721" lon="-8.6605216563">
        <ele>139.05</ele>
        <time>2019-12-29T12:39:25Z</time>
      </trkpt>
      <trkpt lat="37.8146043699" lon="-8.6604533438">
        <ele>140.01</ele>
        <time>2019-12-29T12:39:31Z</time>
      </trkpt>
      <trkpt lat="37.8146280069" lon="-8.6604345683">
        <ele>140.49</ele>
        <time>2019-12-29T12:39:33Z</time>
      </trkpt>
      <trkpt lat="37.8147080541" lon="-8.6603705306">
        <ele>141.45</ele>
        <time>2019-12-29T12:39:41Z</time>
      </trkpt>
      <trkpt lat="37.8147716727" lon="-8.6602841131">
        <ele>142.41</ele>
        <time>2019-12-29T12:39:49Z</time>
      </trkpt>
      <trkpt lat="37.8148222994" lon="-8.6602586322">
        <ele>142.41</ele>
        <time>2019-12-29T12:39:53Z</time>
      </trkpt>
      <trkpt lat="37.8148865886" lon="-8.6601826921">
        <ele>143.37</ele>
        <time>2019-12-29T12:40:01Z</time>
      </trkpt>
      <trkpt lat="37.8149442561" lon="-8.6601137929">
        <ele>143.37</ele>
        <time>2019-12-29T12:40:08Z</time>
      </trkpt>
      <trkpt lat="37.8149902727" lon="-8.6600752361">
        <ele>143.85</ele>
        <time>2019-12-29T12:40:13Z</time>
      </trkpt>
      <trkpt lat="37.8150235489" lon="-8.6600660998">
        <ele>143.85</ele>
        <time>2019-12-29T12:40:16Z</time>
      </trkpt>
      <trkpt lat="37.8151283227" lon="-8.6599474121">
        <ele>144.34</ele>
        <time>2019-12-29T12:40:28Z</time>
      </trkpt>
      <trkpt lat="37.8151542228" lon="-8.6599171534">
        <ele>143.85</ele>
        <time>2019-12-29T12:40:31Z</time>
      </trkpt>
      <trkpt lat="37.8152637742" lon="-8.6598237790">
        <ele>144.82</ele>
        <time>2019-12-29T12:40:43Z</time>
      </trkpt>
      <trkpt lat="37.8153712302" lon="-8.6597419716">
        <ele>145.30</ele>
        <time>2019-12-29T12:40:53Z</time>
      </trkpt>
      <trkpt lat="37.8154752497" lon="-8.6596615054">
        <ele>146.74</ele>
        <time>2019-12-29T12:41:04Z</time>
      </trkpt>
      <trkpt lat="37.8155235294" lon="-8.6596224457">
        <ele>147.70</ele>
        <time>2019-12-29T12:41:09Z</time>
      </trkpt>
      <trkpt lat="37.8155368567" lon="-8.6595789436">
        <ele>148.66</ele>
        <time>2019-12-29T12:41:15Z</time>
      </trkpt>
      <trkpt lat="37.8155973740" lon="-8.6595616769">
        <ele>149.14</ele>
        <time>2019-12-29T12:41:19Z</time>
      </trkpt>
      <trkpt lat="37.8156429715" lon="-8.6595076136">
        <ele>150.58</ele>
        <time>2019-12-29T12:41:25Z</time>
      </trkpt>
      <trkpt lat="37.8156749066" lon="-8.6594776902">
        <ele>151.54</ele>
        <time>2019-12-29T12:41:29Z</time>
      </trkpt>
      <trkpt lat="37.8157754056" lon="-8.6594030075">
        <ele>152.99</ele>
        <time>2019-12-29T12:41:40Z</time>
      </trkpt>
      <trkpt lat="37.8158333246" lon="-8.6593501177">
        <ele>154.91</ele>
        <time>2019-12-29T12:41:48Z</time>
      </trkpt>
      <trkpt lat="37.8158592246" lon="-8.6593330186">
        <ele>155.87</ele>
        <time>2019-12-29T12:41:51Z</time>
      </trkpt>
      <trkpt lat="37.8159759007" lon="-8.6592547316">
        <ele>157.79</ele>
        <time>2019-12-29T12:42:03Z</time>
      </trkpt>
      <trkpt lat="37.8160371725" lon="-8.6591992434">
        <ele>158.75</ele>
        <time>2019-12-29T12:42:10Z</time>
      </trkpt>
      <trkpt lat="37.8160433751" lon="-8.6591769475">
        <ele>158.75</ele>
        <time>2019-12-29T12:42:12Z</time>
      </trkpt>
      <trkpt lat="37.8160755616" lon="-8.6591441743">
        <ele>158.27</ele>
        <time>2019-12-29T12:42:16Z</time>
      </trkpt>
      <trkpt lat="37.8161746357" lon="-8.6589783803">
        <ele>156.83</ele>
        <time>2019-12-29T12:42:31Z</time>
      </trkpt>
      <trkpt lat="37.8161943331" lon="-8.6589270830">
        <ele>155.87</ele>
        <time>2019-12-29T12:42:35Z</time>
      </trkpt>
      <trkpt lat="37.8162974305" lon="-8.6588063836">
        <ele>155.39</ele>
        <time>2019-12-29T12:42:48Z</time>
      </trkpt>
      <trkpt lat="37.8163869493" lon="-8.6587690003">
        <ele>155.39</ele>
        <time>2019-12-29T12:42:56Z</time>
      </trkpt>
      <trkpt lat="37.8165181261" lon="-8.6586793978">
        <ele>156.35</ele>
        <time>2019-12-29T12:43:08Z</time>
      </trkpt>
      <trkpt lat="37.8165950719" lon="-8.6586076487">
        <ele>156.35</ele>
        <time>2019-12-29T12:43:16Z</time>
      </trkpt>
      <trkpt lat="37.8166710958" lon="-8.6584975105">
        <ele>155.87</ele>
        <time>2019-12-29T12:43:26Z</time>
      </trkpt>
      <trkpt lat="37.8166980017" lon="-8.6584410165">
        <ele>155.87</ele>
        <time>2019-12-29T12:43:31Z</time>
      </trkpt>
      <trkpt lat="37.8167301044" lon="-8.6583639868">
        <ele>155.39</ele>
        <time>2019-12-29T12:43:37Z</time>
      </trkpt>
      <trkpt lat="37.8168209642" lon="-8.6582218297">
        <ele>154.91</ele>
        <time>2019-12-29T12:43:49Z</time>
      </trkpt>
      <trkpt lat="37.8168606106" lon="-8.6581502482">
        <ele>153.95</ele>
        <time>2019-12-29T12:44:01Z</time>
      </trkpt>
      <trkpt lat="37.8168634605" lon="-8.6581433751">
        <ele>154.43</ele>
        <time>2019-12-29T12:44:09Z</time>
      </trkpt>
      <trkpt lat="37.8168751951" lon="-8.6580924969">
        <ele>153.95</ele>
        <time>2019-12-29T12:44:13Z</time>
      </trkpt>
      <trkpt lat="37.8168807272" lon="-8.6580290459">
        <ele>153.95</ele>
        <time>2019-12-29T12:44:18Z</time>
      </trkpt>
      <trkpt lat="37.8169100638" lon="-8.6579306424">
        <ele>153.95</ele>
        <time>2019-12-29T12:44:26Z</time>
      </trkpt>
      <trkpt lat="37.8169571701" lon="-8.6577794328">
        <ele>152.99</ele>
        <time>2019-12-29T12:44:38Z</time>
      </trkpt>
      <trkpt lat="37.8169682343" lon="-8.6576095317">
        <ele>151.54</ele>
        <time>2019-12-29T12:44:50Z</time>
      </trkpt>
      <trkpt lat="37.8169773705" lon="-8.6575599108">
        <ele>151.06</ele>
        <time>2019-12-29T12:45:07Z</time>
      </trkpt>
      <trkpt lat="37.8169773705" lon="-8.6575599108">
        <ele>150.58</ele>
        <time>2019-12-29T12:45:11Z</time>
      </trkpt>
      <trkpt lat="37.8170087188" lon="-8.6573366169">
        <ele>149.14</ele>
        <time>2019-12-29T12:45:26Z</time>
      </trkpt>
      <trkpt lat="37.8170779534" lon="-8.6571061146">
        <ele>147.22</ele>
        <time>2019-12-29T12:45:41Z</time>
      </trkpt>
      <trkpt lat="37.8171206173" lon="-8.6569219641">
        <ele>146.26</ele>
        <time>2019-12-29T12:45:53Z</time>
      </trkpt>
      <trkpt lat="37.8171339445" lon="-8.6568390671">
        <ele>145.78</ele>
        <time>2019-12-29T12:45:58Z</time>
      </trkpt>
      <trkpt lat="37.8171797097" lon="-8.6567073874">
        <ele>145.78</ele>
        <time>2019-12-29T12:46:07Z</time>
      </trkpt>
      <trkpt lat="37.8171846550" lon="-8.6566595268">
        <ele>145.78</ele>
        <time>2019-12-29T12:46:10Z</time>
      </trkpt>
      <trkpt lat="37.8172218706" lon="-8.6565170344">
        <ele>145.30</ele>
        <time>2019-12-29T12:46:20Z</time>
      </trkpt>
      <trkpt lat="37.8172160871" lon="-8.6564535834">
        <ele>145.30</ele>
        <time>2019-12-29T12:46:24Z</time>
      </trkpt>
      <trkpt lat="37.8172310069" lon="-8.6563944910">
        <ele>144.82</ele>
        <time>2019-12-29T12:46:28Z</time>
      </trkpt>
      <trkpt lat="37.8172444180" lon="-8.6563659087">
        <ele>144.82</ele>
        <time>2019-12-29T12:46:30Z</time>
      </trkpt>
      <trkpt lat="37.8172611818" lon="-8.6562161241">
        <ele>144.82</ele>
        <time>2019-12-29T12:46:40Z</time>
      </trkpt>
      <trkpt lat="37.8172683902" lon="-8.6561751366">
        <ele>144.34</ele>
        <time>2019-12-29T12:46:43Z</time>
      </trkpt>
      <trkpt lat="37.8172742575" lon="-8.6560016312">
        <ele>143.37</ele>
        <time>2019-12-29T12:46:55Z</time>
      </trkpt>
      <trkpt lat="37.8172812983" lon="-8.6559370067">
        <ele>142.89</ele>
        <time>2019-12-29T12:47:08Z</time>
      </trkpt>
      <trkpt lat="37.8172812983" lon="-8.6559370067">
        <ele>143.37</ele>
        <time>2019-12-29T12:47:39Z</time>
      </trkpt>
      <trkpt lat="37.8172801249" lon="-8.6559383478">
        <ele>142.89</ele>
        <time>2019-12-29T12:47:47Z</time>
      </trkpt>
      <trkpt lat="37.8172694799" lon="-8.6558895651">
        <ele>142.89</ele>
        <time>2019-12-29T12:47:51Z</time>
      </trkpt>
      <trkpt lat="37.8172619361" lon="-8.6556711327">
        <ele>141.93</ele>
        <time>2019-12-29T12:48:05Z</time>
      </trkpt>
      <trkpt lat="37.8172434960" lon="-8.6556021497">
        <ele>141.45</ele>
        <time>2019-12-29T12:48:10Z</time>
      </trkpt>
      <trkpt lat="37.8172459267" lon="-8.6555431411">
        <ele>141.45</ele>
        <time>2019-12-29T12:48:15Z</time>
      </trkpt>
      <trkpt lat="37.8172390535" lon="-8.6554625910">
        <ele>140.97</ele>
        <time>2019-12-29T12:48:20Z</time>
      </trkpt>
      <trkpt lat="37.8172285762" lon="-8.6554335896">
        <ele>140.97</ele>
        <time>2019-12-29T12:48:22Z</time>
      </trkpt>
      <trkpt lat="37.8172301687" lon="-8.6554019060">
        <ele>140.49</ele>
        <time>2019-12-29T12:48:24Z</time>
      </trkpt>
      <trkpt lat="37.8172336053" lon="-8.6551968846">
        <ele>140.01</ele>
        <time>2019-12-29T12:48:38Z</time>
      </trkpt>
      <trkpt lat="37.8172580805" lon="-8.6549889296">
        <ele>139.05</ele>
        <time>2019-12-29T12:48:53Z</time>
      </trkpt>
      <trkpt lat="37.8172818851" lon="-8.6547992472">
        <ele>139.05</ele>
        <time>2019-12-29T12:49:06Z</time>
      </trkpt>
      <trkpt lat="37.8173119761" lon="-8.6546236463">
        <ele>138.09</ele>
        <time>2019-12-29T12:49:18Z</time>
      </trkpt>
      <trkpt lat="37.8173346072" lon="-8.6543988436">
        <ele>136.64</ele>
        <time>2019-12-29T12:49:33Z</time>
      </trkpt>
      <trkpt lat="37.8173439112" lon="-8.6543224007">
        <ele>136.16</ele>
        <time>2019-12-29T12:49:39Z</time>
      </trkpt>
      <trkpt lat="37.8173507843" lon="-8.6542483047">
        <ele>135.68</ele>
        <time>2019-12-29T12:49:44Z</time>
      </trkpt>
      <trkpt lat="37.8173294105" lon="-8.6540352367">
        <ele>134.72</ele>
        <time>2019-12-29T12:49:58Z</time>
      </trkpt>
      <trkpt lat="37.8173134848" lon="-8.6539211590">
        <ele>134.24</ele>
        <time>2019-12-29T12:50:06Z</time>
      </trkpt>
      <trkpt lat="37.8172945417" lon="-8.6538428720">
        <ele>134.24</ele>
        <time>2019-12-29T12:50:11Z</time>
      </trkpt>
      <trkpt lat="37.8172788676" lon="-8.6537393555">
        <ele>133.76</ele>
        <time>2019-12-29T12:50:18Z</time>
      </trkpt>
      <trkpt lat="37.8172726650" lon="-8.6536908243">
        <ele>133.28</ele>
        <time>2019-12-29T12:50:21Z</time>
      </trkpt>
      <trkpt lat="37.8172313422" lon="-8.6536124535">
        <ele>132.80</ele>
        <time>2019-12-29T12:50:28Z</time>
      </trkpt>
      <trkpt lat="37.8172548115" lon="-8.6534037441">
        <ele>133.28</ele>
        <time>2019-12-29T12:50:41Z</time>
      </trkpt>
      <trkpt lat="37.8173025884" lon="-8.6531973816">
        <ele>132.32</ele>
        <time>2019-12-29T12:50:55Z</time>
      </trkpt>
      <trkpt lat="37.8173310030" lon="-8.6531083658">
        <ele>131.84</ele>
        <time>2019-12-29T12:51:01Z</time>
      </trkpt>
      <trkpt lat="37.8173527960" lon="-8.6530794483">
        <ele>131.36</ele>
        <time>2019-12-29T12:51:04Z</time>
      </trkpt>
      <trkpt lat="37.8174334299" lon="-8.6528842337">
        <ele>130.88</ele>
        <time>2019-12-29T12:51:18Z</time>
      </trkpt>
      <trkpt lat="37.8175061848" lon="-8.6527269054">
        <ele>130.88</ele>
        <time>2019-12-29T12:51:30Z</time>
      </trkpt>
      <trkpt lat="37.8175911773" lon="-8.6525684875">
        <ele>129.92</ele>
        <time>2019-12-29T12:51:43Z</time>
      </trkpt>
      <trkpt lat="37.8176682070" lon="-8.6524057109">
        <ele>129.43</ele>
        <time>2019-12-29T12:51:56Z</time>
      </trkpt>
      <trkpt lat="37.8177528642" lon="-8.6522371508">
        <ele>128.47</ele>
        <time>2019-12-29T12:52:09Z</time>
      </trkpt>
      <trkpt lat="37.8178386949" lon="-8.6520652380">
        <ele>127.51</ele>
        <time>2019-12-29T12:52:22Z</time>
      </trkpt>
      <trkpt lat="37.8179193288" lon="-8.6519336421">
        <ele>126.07</ele>
        <time>2019-12-29T12:52:32Z</time>
      </trkpt>
      <trkpt lat="37.8180244379" lon="-8.6517472286">
        <ele>125.11</ele>
        <time>2019-12-29T12:52:46Z</time>
      </trkpt>
      <trkpt lat="37.8181116097" lon="-8.6515767407">
        <ele>124.15</ele>
        <time>2019-12-29T12:53:00Z</time>
      </trkpt>
      <trkpt lat="37.8182019666" lon="-8.6514069233">
        <ele>122.71</ele>
        <time>2019-12-29T12:53:14Z</time>
      </trkpt>
      <trkpt lat="37.8182283696" lon="-8.6513063405">
        <ele>123.19</ele>
        <time>2019-12-29T12:53:26Z</time>
      </trkpt>
      <trkpt lat="37.8182998672" lon="-8.6511708051">
        <ele>121.74</ele>
        <time>2019-12-29T12:53:38Z</time>
      </trkpt>
      <trkpt lat="37.8183551878" lon="-8.6510559730">
        <ele>120.78</ele>
        <time>2019-12-29T12:53:47Z</time>
      </trkpt>
      <trkpt lat="37.8183850273" lon="-8.6510316655">
        <ele>120.78</ele>
        <time>2019-12-29T12:53:50Z</time>
      </trkpt>
      <trkpt lat="37.8184878733" lon="-8.6508546397">
        <ele>119.82</ele>
        <time>2019-12-29T12:54:05Z</time>
      </trkpt>
      <trkpt lat="37.8185904678" lon="-8.6507036816">
        <ele>119.34</ele>
        <time>2019-12-29T12:54:18Z</time>
      </trkpt>
      <trkpt lat="37.8186955769" lon="-8.6505515501">
        <ele>118.38</ele>
        <time>2019-12-29T12:54:31Z</time>
      </trkpt>
      <trkpt lat="37.8187648114" lon="-8.6504725926">
        <ele>118.86</ele>
        <time>2019-12-29T12:54:39Z</time>
      </trkpt>
      <trkpt lat="37.8188100737" lon="-8.6504011787">
        <ele>118.38</ele>
        <time>2019-12-29T12:54:45Z</time>
      </trkpt>
      <trkpt lat="37.8189285100" lon="-8.6502490472">
        <ele>118.38</ele>
        <time>2019-12-29T12:54:59Z</time>
      </trkpt>
      <trkpt lat="37.8190389834" lon="-8.6501125898">
        <ele>117.90</ele>
        <time>2019-12-29T12:55:12Z</time>
      </trkpt>
      <trkpt lat="37.8191180248" lon="-8.6500070617">
        <ele>117.90</ele>
        <time>2019-12-29T12:55:23Z</time>
      </trkpt>
      <trkpt lat="37.8191295080" lon="-8.6499857716">
        <ele>117.90</ele>
        <time>2019-12-29T12:55:25Z</time>
      </trkpt>
      <trkpt lat="37.8192362934" lon="-8.6498636473">
        <ele>117.42</ele>
        <time>2019-12-29T12:55:38Z</time>
      </trkpt>
      <trkpt lat="37.8193269018" lon="-8.6497934908">
        <ele>116.94</ele>
        <time>2019-12-29T12:55:47Z</time>
      </trkpt>
      <trkpt lat="37.8193495329" lon="-8.6497846898">
        <ele>116.94</ele>
        <time>2019-12-29T12:55:49Z</time>
      </trkpt>
      <trkpt lat="37.8195123933" lon="-8.6497892998">
        <ele>116.46</ele>
        <time>2019-12-29T12:56:02Z</time>
      </trkpt>
      <trkpt lat="37.8195493575" lon="-8.6498051416">
        <ele>116.94</ele>
        <time>2019-12-29T12:56:06Z</time>
      </trkpt>
      <trkpt lat="37.8195791133" lon="-8.6498159543">
        <ele>116.94</ele>
        <time>2019-12-29T12:56:09Z</time>
      </trkpt>
      <trkpt lat="37.8196081985" lon="-8.6498345621">
        <ele>116.94</ele>
        <time>2019-12-29T12:56:12Z</time>
      </trkpt>
      <trkpt lat="37.8196321707" lon="-8.6498449557">
        <ele>116.46</ele>
        <time>2019-12-29T12:56:14Z</time>
      </trkpt>
      <trkpt lat="37.8196740802" lon="-8.6498626415">
        <ele>116.46</ele>
        <time>2019-12-29T12:56:18Z</time>
      </trkpt>
      <trkpt lat="37.8197690472" lon="-8.6499175429">
        <ele>116.46</ele>
        <time>2019-12-29T12:56:28Z</time>
      </trkpt>
      <trkpt lat="37.8198337555" lon="-8.6499211472">
        <ele>116.46</ele>
        <time>2019-12-29T12:56:41Z</time>
      </trkpt>
      <trkpt lat="37.8198423050" lon="-8.6499215662">
        <ele>116.46</ele>
        <time>2019-12-29T12:56:43Z</time>
      </trkpt>
      <trkpt lat="37.8198731504" lon="-8.6499180458">
        <ele>116.46</ele>
        <time>2019-12-29T12:56:46Z</time>
      </trkpt>
      <trkpt lat="37.8199120425" lon="-8.6498865299">
        <ele>116.46</ele>
        <time>2019-12-29T12:56:51Z</time>
      </trkpt>
      <trkpt lat="37.8199532814" lon="-8.6498005316">
        <ele>116.46</ele>
        <time>2019-12-29T12:56:59Z</time>
      </trkpt>
      <trkpt lat="37.8199757449" lon="-8.6497586221">
        <ele>116.46</ele>
        <time>2019-12-29T12:57:02Z</time>
      </trkpt>
      <trkpt lat="37.8199994657" lon="-8.6496833526">
        <ele>115.98</ele>
        <time>2019-12-29T12:57:08Z</time>
      </trkpt>
      <trkpt lat="37.8200286347" lon="-8.6496363301">
        <ele>115.98</ele>
        <time>2019-12-29T12:57:12Z</time>
      </trkpt>
      <trkpt lat="37.8201660980" lon="-8.6495096795">
        <ele>116.46</ele>
        <time>2019-12-29T12:57:27Z</time>
      </trkpt>
      <trkpt lat="37.8202811815" lon="-8.6494044866">
        <ele>116.46</ele>
        <time>2019-12-29T12:57:39Z</time>
      </trkpt>
      <trkpt lat="37.8204099275" lon="-8.6493080948">
        <ele>116.46</ele>
        <time>2019-12-29T12:57:51Z</time>
      </trkpt>
      <trkpt lat="37.8205403499" lon="-8.6491682846">
        <ele>115.98</ele>
        <time>2019-12-29T12:58:05Z</time>
      </trkpt>
      <trkpt lat="37.8206535056" lon="-8.6490611639">
        <ele>115.98</ele>
        <time>2019-12-29T12:58:18Z</time>
      </trkpt>
      <trkpt lat="37.8206946608" lon="-8.6490221042">
        <ele>115.98</ele>
        <time>2019-12-29T12:58:23Z</time>
      </trkpt>
      <trkpt lat="37.8208432719" lon="-8.6489872355">
        <ele>116.46</ele>
        <time>2019-12-29T12:58:36Z</time>
      </trkpt>
      <trkpt lat="37.8209948167" lon="-8.6489323340">
        <ele>116.46</ele>
        <time>2019-12-29T12:58:49Z</time>
      </trkpt>
      <trkpt lat="37.8211528994" lon="-8.6488855630">
        <ele>115.98</ele>
        <time>2019-12-29T12:59:03Z</time>
      </trkpt>
      <trkpt lat="37.8213041089" lon="-8.6488261353">
        <ele>115.98</ele>
        <time>2019-12-29T12:59:16Z</time>
      </trkpt>
      <trkpt lat="37.8214616049" lon="-8.6487694737">
        <ele>116.94</ele>
        <time>2019-12-29T12:59:29Z</time>
      </trkpt>
      <trkpt lat="37.8215747606" lon="-8.6487425677">
        <ele>115.98</ele>
        <time>2019-12-29T12:59:38Z</time>
      </trkpt>
      <trkpt lat="37.8216406424" lon="-8.6487097107">
        <ele>116.94</ele>
        <time>2019-12-29T12:59:44Z</time>
      </trkpt>
      <trkpt lat="37.8216921911" lon="-8.6487087049">
        <ele>116.46</ele>
        <time>2019-12-29T12:59:48Z</time>
      </trkpt>
      <trkpt lat="37.8218660317" lon="-8.6486966349">
        <ele>116.46</ele>
        <time>2019-12-29T13:00:03Z</time>
      </trkpt>
      <trkpt lat="37.8219169099" lon="-8.6487004906">
        <ele>116.46</ele>
        <time>2019-12-29T13:00:07Z</time>
      </trkpt>
      <trkpt lat="37.8220689576" lon="-8.6486963835">
        <ele>116.94</ele>
        <time>2019-12-29T13:00:19Z</time>
      </trkpt>
      <trkpt lat="37.8222412895" lon="-8.6487161648">
        <ele>116.94</ele>
        <time>2019-12-29T13:00:33Z</time>
      </trkpt>
      <trkpt lat="37.8222619928" lon="-8.6487205233">
        <ele>116.94</ele>
        <time>2019-12-29T13:00:35Z</time>
      </trkpt>
      <trkpt lat="37.8222820256" lon="-8.6487295758">
        <ele>116.94</ele>
        <time>2019-12-29T13:00:37Z</time>
      </trkpt>
      <trkpt lat="37.8224177286" lon="-8.6487516202">
        <ele>116.46</ele>
        <time>2019-12-29T13:00:49Z</time>
      </trkpt>
      <trkpt lat="37.8224570397" lon="-8.6487436574">
        <ele>116.46</ele>
        <time>2019-12-29T13:00:53Z</time>
      </trkpt>
      <trkpt lat="37.8226532601" lon="-8.6487397179">
        <ele>115.50</ele>
        <time>2019-12-29T13:01:08Z</time>
      </trkpt>
      <trkpt lat="37.8226801660" lon="-8.6487424839">
        <ele>115.98</ele>
        <time>2019-12-29T13:01:10Z</time>
      </trkpt>
      <trkpt lat="37.8227717802" lon="-8.6487668753">
        <ele>115.50</ele>
        <time>2019-12-29T13:01:18Z</time>
      </trkpt>
      <trkpt lat="37.8227978479" lon="-8.6487739999">
        <ele>115.50</ele>
        <time>2019-12-29T13:01:20Z</time>
      </trkpt>
      <trkpt lat="37.8228660766" lon="-8.6487936135">
        <ele>115.50</ele>
        <time>2019-12-29T13:01:26Z</time>
      </trkpt>
      <trkpt lat="37.8230346367" lon="-8.6488218606">
        <ele>115.50</ele>
        <time>2019-12-29T13:01:40Z</time>
      </trkpt>
      <trkpt lat="37.8230585251" lon="-8.6488293204">
        <ele>115.50</ele>
        <time>2019-12-29T13:01:42Z</time>
      </trkpt>
      <trkpt lat="37.8232389037" lon="-8.6488670390">
        <ele>115.50</ele>
        <time>2019-12-29T13:01:57Z</time>
      </trkpt>
      <trkpt lat="37.8232506383" lon="-8.6488716491">
        <ele>115.50</ele>
        <time>2019-12-29T13:01:58Z</time>
      </trkpt>
      <trkpt lat="37.8233464435" lon="-8.6488927715">
        <ele>115.50</ele>
        <time>2019-12-29T13:02:06Z</time>
      </trkpt>
      <trkpt lat="37.8235079627" lon="-8.6489346810">
        <ele>115.50</ele>
        <time>2019-12-29T13:02:20Z</time>
      </trkpt>
      <trkpt lat="37.8236162569" lon="-8.6489734892">
        <ele>115.50</ele>
        <time>2019-12-29T13:02:30Z</time>
      </trkpt>
      <trkpt lat="37.8236379661" lon="-8.6489859782">
        <ele>115.98</ele>
        <time>2019-12-29T13:02:32Z</time>
      </trkpt>
      <trkpt lat="37.8237976413" lon="-8.6490458250">
        <ele>115.98</ele>
        <time>2019-12-29T13:02:46Z</time>
      </trkpt>
      <trkpt lat="37.8238449153" lon="-8.6490687914">
        <ele>115.98</ele>
        <time>2019-12-29T13:02:50Z</time>
      </trkpt>
      <trkpt lat="37.8238693904" lon="-8.6490726471">
        <ele>115.98</ele>
        <time>2019-12-29T13:02:52Z</time>
      </trkpt>
      <trkpt lat="37.8240119666" lon="-8.6489777640">
        <ele>115.98</ele>
        <time>2019-12-29T13:03:06Z</time>
      </trkpt>
      <trkpt lat="37.8240439855" lon="-8.6489356030">
        <ele>115.98</ele>
        <time>2019-12-29T13:03:10Z</time>
      </trkpt>
      <trkpt lat="37.8241291456" lon="-8.6488228664">
        <ele>116.46</ele>
        <time>2019-12-29T13:03:21Z</time>
      </trkpt>
      <trkpt lat="37.8241440654" lon="-8.6488112155">
        <ele>116.46</ele>
        <time>2019-12-29T13:03:23Z</time>
      </trkpt>
      <trkpt lat="37.8242500126" lon="-8.6487070285">
        <ele>116.94</ele>
        <time>2019-12-29T13:03:33Z</time>
      </trkpt>
      <trkpt lat="37.8243515175" lon="-8.6485861614">
        <ele>117.90</ele>
        <time>2019-12-29T13:03:44Z</time>
      </trkpt>
      <trkpt lat="37.8243632521" lon="-8.6485625245">
        <ele>117.90</ele>
        <time>2019-12-29T13:03:46Z</time>
      </trkpt>
      <trkpt lat="37.8244984522" lon="-8.6484175175">
        <ele>118.86</ele>
        <time>2019-12-29T13:04:00Z</time>
      </trkpt>
      <trkpt lat="37.8245399427" lon="-8.6483758595">
        <ele>118.38</ele>
        <time>2019-12-29T13:04:04Z</time>
      </trkpt>
      <trkpt lat="37.8246060759" lon="-8.6482803896">
        <ele>118.38</ele>
        <time>2019-12-29T13:04:16Z</time>
      </trkpt>
      <trkpt lat="37.8246958461" lon="-8.6481772922">
        <ele>118.86</ele>
        <time>2019-12-29T13:04:26Z</time>
      </trkpt>
      <trkpt lat="37.8247395996" lon="-8.6481264979">
        <ele>119.34</ele>
        <time>2019-12-29T13:04:31Z</time>
      </trkpt>
      <trkpt lat="37.8247696906" lon="-8.6480862647">
        <ele>119.34</ele>
        <time>2019-12-29T13:04:35Z</time>
      </trkpt>
      <trkpt lat="37.8248077445" lon="-8.6480171978">
        <ele>119.34</ele>
        <time>2019-12-29T13:04:41Z</time>
      </trkpt>
      <trkpt lat="37.8249023762" lon="-8.6478628032">
        <ele>119.82</ele>
        <time>2019-12-29T13:04:54Z</time>
      </trkpt>
      <trkpt lat="37.8249157872" lon="-8.6478409264">
        <ele>120.30</ele>
        <time>2019-12-29T13:04:56Z</time>
      </trkpt>
      <trkpt lat="37.8249701019" lon="-8.6477654055">
        <ele>120.30</ele>
        <time>2019-12-29T13:05:03Z</time>
      </trkpt>
      <trkpt lat="37.8249936551" lon="-8.6477193050">
        <ele>120.78</ele>
        <time>2019-12-29T13:05:07Z</time>
      </trkpt>
      <trkpt lat="37.8250112571" lon="-8.6476890463">
        <ele>121.26</ele>
        <time>2019-12-29T13:05:10Z</time>
      </trkpt>
      <trkpt lat="37.8250358161" lon="-8.6476021260">
        <ele>121.74</ele>
        <time>2019-12-29T13:05:17Z</time>
      </trkpt>
      <trkpt lat="37.8250469640" lon="-8.6475623120">
        <ele>121.74</ele>
        <time>2019-12-29T13:05:20Z</time>
      </trkpt>
      <trkpt lat="37.8251065593" lon="-8.6473940033">
        <ele>122.22</ele>
        <time>2019-12-29T13:05:33Z</time>
      </trkpt>
      <trkpt lat="37.8251395002" lon="-8.6473182309">
        <ele>122.22</ele>
        <time>2019-12-29T13:05:38Z</time>
      </trkpt>
      <trkpt lat="37.8251638077" lon="-8.6472591385">
        <ele>122.22</ele>
        <time>2019-12-29T13:05:43Z</time>
      </trkpt>
      <trkpt lat="37.8251873609" lon="-8.6472014710">
        <ele>122.22</ele>
        <time>2019-12-29T13:05:47Z</time>
      </trkpt>
      <trkpt lat="37.8252200503" lon="-8.6471405346">
        <ele>122.22</ele>
        <time>2019-12-29T13:05:51Z</time>
      </trkpt>
      <trkpt lat="37.8252246603" lon="-8.6471128743">
        <ele>122.22</ele>
        <time>2019-12-29T13:05:53Z</time>
      </trkpt>
      <trkpt lat="37.8252605349" lon="-8.6470624153">
        <ele>122.71</ele>
        <time>2019-12-29T13:05:57Z</time>
      </trkpt>
      <trkpt lat="37.8253332898" lon="-8.6469165701">
        <ele>123.19</ele>
        <time>2019-12-29T13:06:08Z</time>
      </trkpt>
      <trkpt lat="37.8254119121" lon="-8.6467833817">
        <ele>123.67</ele>
        <time>2019-12-29T13:06:19Z</time>
      </trkpt>
      <trkpt lat="37.8254586831" lon="-8.6467231996">
        <ele>124.15</ele>
        <time>2019-12-29T13:06:24Z</time>
      </trkpt>
      <trkpt lat="37.8254653886" lon="-8.6466962099">
        <ele>124.15</ele>
        <time>2019-12-29T13:06:26Z</time>
      </trkpt>
      <trkpt lat="37.8254860919" lon="-8.6466769315">
        <ele>124.15</ele>
        <time>2019-12-29T13:06:28Z</time>
      </trkpt>
      <trkpt lat="37.8255097289" lon="-8.6466436554">
        <ele>124.15</ele>
        <time>2019-12-29T13:06:31Z</time>
      </trkpt>
      <trkpt lat="37.8255204577" lon="-8.6466167495">
        <ele>124.15</ele>
        <time>2019-12-29T13:06:33Z</time>
      </trkpt>
      <trkpt lat="37.8255337011" lon="-8.6466035061">
        <ele>124.63</ele>
        <time>2019-12-29T13:06:35Z</time>
      </trkpt>
      <trkpt lat="37.8255513869" lon="-8.6465677992">
        <ele>124.63</ele>
        <time>2019-12-29T13:06:38Z</time>
      </trkpt>
      <trkpt lat="37.8256122395" lon="-8.6464846507">
        <ele>125.11</ele>
        <time>2019-12-29T13:06:45Z</time>
      </trkpt>
      <trkpt lat="37.8256705776" lon="-8.6463893484">
        <ele>125.59</ele>
        <time>2019-12-29T13:06:53Z</time>
      </trkpt>
      <trkpt lat="37.8256944660" lon="-8.6463675555">
        <ele>125.59</ele>
        <time>2019-12-29T13:06:55Z</time>
      </trkpt>
      <trkpt lat="37.8257078771" lon="-8.6463248916">
        <ele>125.59</ele>
        <time>2019-12-29T13:06:59Z</time>
      </trkpt>
      <trkpt lat="37.8257249761" lon="-8.6462228838">
        <ele>125.59</ele>
        <time>2019-12-29T13:07:07Z</time>
      </trkpt>
      <trkpt lat="37.8257692326" lon="-8.6461435910">
        <ele>126.07</ele>
        <time>2019-12-29T13:07:13Z</time>
      </trkpt>
      <trkpt lat="37.8258424066" lon="-8.6459928006">
        <ele>126.55</ele>
        <time>2019-12-29T13:07:24Z</time>
      </trkpt>
      <trkpt lat="37.8258688934" lon="-8.6459342111">
        <ele>126.55</ele>
        <time>2019-12-29T13:07:29Z</time>
      </trkpt>
      <trkpt lat="37.8258856572" lon="-8.6459100712">
        <ele>126.55</ele>
        <time>2019-12-29T13:07:31Z</time>
      </trkpt>
      <trkpt lat="37.8259082884" lon="-8.6458715983">
        <ele>126.55</ele>
        <time>2019-12-29T13:07:34Z</time>
      </trkpt>
      <trkpt lat="37.8259472642" lon="-8.6457745358">
        <ele>126.55</ele>
        <time>2019-12-29T13:07:41Z</time>
      </trkpt>
      <trkpt lat="37.8260218631" lon="-8.6456375755">
        <ele>127.51</ele>
        <time>2019-12-29T13:07:51Z</time>
      </trkpt>
      <trkpt lat="37.8260340169" lon="-8.6455788184">
        <ele>127.51</ele>
        <time>2019-12-29T13:07:56Z</time>
      </trkpt>
      <trkpt lat="37.8260452487" lon="-8.6455550138">
        <ele>127.99</ele>
        <time>2019-12-29T13:07:58Z</time>
      </trkpt>
      <trkpt lat="37.8261029162" lon="-8.6454302073">
        <ele>127.99</ele>
        <time>2019-12-29T13:08:08Z</time>
      </trkpt>
      <trkpt lat="37.8261376172" lon="-8.6453841906">
        <ele>128.47</ele>
        <time>2019-12-29T13:08:12Z</time>
      </trkpt>
      <trkpt lat="37.8262060974" lon="-8.6452886369">
        <ele>128.47</ele>
        <time>2019-12-29T13:08:20Z</time>
      </trkpt>
      <trkpt lat="37.8262706380" lon="-8.6451969389">
        <ele>129.43</ele>
        <time>2019-12-29T13:08:29Z</time>
      </trkpt>
      <trkpt lat="37.8262954485" lon="-8.6451536883">
        <ele>129.43</ele>
        <time>2019-12-29T13:08:33Z</time>
      </trkpt>
      <trkpt lat="37.8263874818" lon="-8.6450384371">
        <ele>129.92</ele>
        <time>2019-12-29T13:08:42Z</time>
      </trkpt>
      <trkpt lat="37.8264110349" lon="-8.6450073402">
        <ele>129.92</ele>
        <time>2019-12-29T13:08:45Z</time>
      </trkpt>
      <trkpt lat="37.8264780063" lon="-8.6448590644">
        <ele>130.88</ele>
        <time>2019-12-29T13:08:57Z</time>
      </trkpt>
      <trkpt lat="37.8265117016" lon="-8.6447910871">
        <ele>131.36</ele>
        <time>2019-12-29T13:09:02Z</time>
      </trkpt>
      <trkpt lat="37.8265535273" lon="-8.6446791887">
        <ele>132.32</ele>
        <time>2019-12-29T13:09:15Z</time>
      </trkpt>
      <trkpt lat="37.8265562933" lon="-8.6446745787">
        <ele>132.32</ele>
        <time>2019-12-29T13:09:23Z</time>
      </trkpt>
      <trkpt lat="37.8265701234" lon="-8.6446371954">
        <ele>132.80</ele>
        <time>2019-12-29T13:09:27Z</time>
      </trkpt>
      <trkpt lat="37.8265831154" lon="-8.6445814557">
        <ele>132.80</ele>
        <time>2019-12-29T13:09:34Z</time>
      </trkpt>
      <trkpt lat="37.8265932575" lon="-8.6445434857">
        <ele>132.80</ele>
        <time>2019-12-29T13:09:37Z</time>
      </trkpt>
      <trkpt lat="37.8266065847" lon="-8.6443943717">
        <ele>133.28</ele>
        <time>2019-12-29T13:09:47Z</time>
      </trkpt>
      <trkpt lat="37.8266211692" lon="-8.6443187669">
        <ele>133.28</ele>
        <time>2019-12-29T13:09:52Z</time>
      </trkpt>
      <trkpt lat="37.8266452253" lon="-8.6442215368">
        <ele>133.28</ele>
        <time>2019-12-29T13:09:58Z</time>
      </trkpt>
      <trkpt lat="37.8266687784" lon="-8.6441082973">
        <ele>133.76</ele>
        <time>2019-12-29T13:10:05Z</time>
      </trkpt>
      <trkpt lat="37.8267401922" lon="-8.6439364683">
        <ele>134.24</ele>
        <time>2019-12-29T13:10:18Z</time>
      </trkpt>
      <trkpt lat="37.8267670143" lon="-8.6438839976">
        <ele>134.72</ele>
        <time>2019-12-29T13:10:23Z</time>
      </trkpt>
      <trkpt lat="37.8268490732" lon="-8.6437833309">
        <ele>135.20</ele>
        <time>2019-12-29T13:10:32Z</time>
      </trkpt>
      <trkpt lat="37.8268644959" lon="-8.6437593587">
        <ele>135.20</ele>
        <time>2019-12-29T13:10:34Z</time>
      </trkpt>
      <trkpt lat="37.8269342333" lon="-8.6436461192">
        <ele>135.20</ele>
        <time>2019-12-29T13:10:44Z</time>
      </trkpt>
      <trkpt lat="37.8269483149" lon="-8.6436187942">
        <ele>135.68</ele>
        <time>2019-12-29T13:10:46Z</time>
      </trkpt>
      <trkpt lat="37.8270531725" lon="-8.6435175408">
        <ele>136.16</ele>
        <time>2019-12-29T13:10:56Z</time>
      </trkpt>
      <trkpt lat="37.8271141928" lon="-8.6434567720">
        <ele>136.16</ele>
        <time>2019-12-29T13:11:01Z</time>
      </trkpt>
      <trkpt lat="37.8272239957" lon="-8.6433078256">
        <ele>136.16</ele>
        <time>2019-12-29T13:11:15Z</time>
      </trkpt>
      <trkpt lat="37.8272256721" lon="-8.6432986893">
        <ele>136.64</ele>
        <time>2019-12-29T13:11:16Z</time>
      </trkpt>
      <trkpt lat="37.8272524104" lon="-8.6432608869">
        <ele>136.64</ele>
        <time>2019-12-29T13:11:20Z</time>
      </trkpt>
      <trkpt lat="37.8272971697" lon="-8.6431920715">
        <ele>136.64</ele>
        <time>2019-12-29T13:11:26Z</time>
      </trkpt>
      <trkpt lat="37.8273761272" lon="-8.6431297101">
        <ele>136.64</ele>
        <time>2019-12-29T13:11:32Z</time>
      </trkpt>
      <trkpt lat="37.8275114950" lon="-8.6429919954">
        <ele>137.61</ele>
        <time>2019-12-29T13:11:46Z</time>
      </trkpt>
      <trkpt lat="37.8276183642" lon="-8.6428891495">
        <ele>138.57</ele>
        <time>2019-12-29T13:11:56Z</time>
      </trkpt>
      <trkpt lat="37.8276418336" lon="-8.6428690329">
        <ele>138.09</ele>
        <time>2019-12-29T13:11:58Z</time>
      </trkpt>
      <trkpt lat="37.8276481200" lon="-8.6428416241">
        <ele>138.57</ele>
        <time>2019-12-29T13:12:01Z</time>
      </trkpt>
      <trkpt lat="37.8277915344" lon="-8.6427013110">
        <ele>138.57</ele>
        <time>2019-12-29T13:12:15Z</time>
      </trkpt>
      <trkpt lat="37.8278289177" lon="-8.6426756624">
        <ele>138.57</ele>
        <time>2019-12-29T13:12:18Z</time>
      </trkpt>
      <trkpt lat="37.8278409038" lon="-8.6426537018">
        <ele>138.09</ele>
        <time>2019-12-29T13:12:20Z</time>
      </trkpt>
      <trkpt lat="37.8278831486" lon="-8.6426167376">
        <ele>138.57</ele>
        <time>2019-12-29T13:12:24Z</time>
      </trkpt>
      <trkpt lat="37.8279289138" lon="-8.6425591540">
        <ele>139.05</ele>
        <time>2019-12-29T13:12:30Z</time>
      </trkpt>
      <trkpt lat="37.8279681411" lon="-8.6425222736">
        <ele>139.05</ele>
        <time>2019-12-29T13:12:34Z</time>
      </trkpt>
      <trkpt lat="37.8280657064" lon="-8.6424083635">
        <ele>139.05</ele>
        <time>2019-12-29T13:12:45Z</time>
      </trkpt>
      <trkpt lat="37.8280779440" lon="-8.6423916835">
        <ele>139.53</ele>
        <time>2019-12-29T13:12:48Z</time>
      </trkpt>
      <trkpt lat="37.8281161655" lon="-8.6423588265">
        <ele>139.53</ele>
        <time>2019-12-29T13:12:52Z</time>
      </trkpt>
      <trkpt lat="37.8281552251" lon="-8.6423395481">
        <ele>140.01</ele>
        <time>2019-12-29T13:12:55Z</time>
      </trkpt>
      <trkpt lat="37.8281937819" lon="-8.6423183419">
        <ele>140.49</ele>
        <time>2019-12-29T13:12:58Z</time>
      </trkpt>
      <trkpt lat="37.8282373678" lon="-8.6422961298">
        <ele>141.45</ele>
        <time>2019-12-29T13:13:02Z</time>
      </trkpt>
      <trkpt lat="37.8282915987" lon="-8.6422522087">
        <ele>141.45</ele>
        <time>2019-12-29T13:13:07Z</time>
      </trkpt>
      <trkpt lat="37.8283220250" lon="-8.6422195192">
        <ele>141.93</ele>
        <time>2019-12-29T13:13:11Z</time>
      </trkpt>
      <trkpt lat="37.8283528704" lon="-8.6421967205">
        <ele>141.93</ele>
        <time>2019-12-29T13:13:14Z</time>
      </trkpt>
      <trkpt lat="37.8283729032" lon="-8.6421717424">
        <ele>141.93</ele>
        <time>2019-12-29T13:13:17Z</time>
      </trkpt>
      <trkpt lat="37.8283858113" lon="-8.6421587504">
        <ele>141.93</ele>
        <time>2019-12-29T13:13:19Z</time>
      </trkpt>
      <trkpt lat="37.8284265473" lon="-8.6421265639">
        <ele>142.41</ele>
        <time>2019-12-29T13:13:23Z</time>
      </trkpt>
      <trkpt lat="37.8284525312" lon="-8.6421085428">
        <ele>142.89</ele>
        <time>2019-12-29T13:13:26Z</time>
      </trkpt>
      <trkpt lat="37.8285234421" lon="-8.6420390569">
        <ele>143.37</ele>
        <time>2019-12-29T13:13:33Z</time>
      </trkpt>
      <trkpt lat="37.8285534494" lon="-8.6419750191">
        <ele>142.89</ele>
        <time>2019-12-29T13:13:38Z</time>
      </trkpt>
      <trkpt lat="37.8285745718" lon="-8.6419528909">
        <ele>143.37</ele>
        <time>2019-12-29T13:13:40Z</time>
      </trkpt>
      <trkpt lat="37.8285832051" lon="-8.6419224646">
        <ele>143.37</ele>
        <time>2019-12-29T13:13:42Z</time>
      </trkpt>
      <trkpt lat="37.8286089376" lon="-8.6418820638">
        <ele>143.37</ele>
        <time>2019-12-29T13:13:46Z</time>
      </trkpt>
      <trkpt lat="37.8286524396" lon="-8.6417865101">
        <ele>144.34</ele>
        <time>2019-12-29T13:13:53Z</time>
      </trkpt>
      <trkpt lat="37.8286526911" lon="-8.6417059600">
        <ele>144.82</ele>
        <time>2019-12-29T13:13:59Z</time>
      </trkpt>
      <trkpt lat="37.8286205884" lon="-8.6415884458">
        <ele>146.74</ele>
        <time>2019-12-29T13:14:09Z</time>
      </trkpt>
      <trkpt lat="37.8286181577" lon="-8.6415624619">
        <ele>147.22</ele>
        <time>2019-12-29T13:14:11Z</time>
      </trkpt>
      <trkpt lat="37.8285973705" lon="-8.6414936464">
        <ele>148.18</ele>
        <time>2019-12-29T13:14:20Z</time>
      </trkpt>
      <trkpt lat="37.8285885695" lon="-8.6414524913">
        <ele>148.18</ele>
        <time>2019-12-29T13:14:23Z</time>
      </trkpt>
      <trkpt lat="37.8285775892" lon="-8.6413482204">
        <ele>148.18</ele>
        <time>2019-12-29T13:14:30Z</time>
      </trkpt>
      <trkpt lat="37.8285682015" lon="-8.6413208116">
        <ele>147.70</ele>
        <time>2019-12-29T13:14:32Z</time>
      </trkpt>
      <trkpt lat="37.8285509348" lon="-8.6411186401">
        <ele>147.22</ele>
        <time>2019-12-29T13:14:46Z</time>
      </trkpt>
      <trkpt lat="37.8285528626" lon="-8.6410531774">
        <ele>146.74</ele>
        <time>2019-12-29T13:14:51Z</time>
      </trkpt>
      <trkpt lat="37.8286111169" lon="-8.6409337353">
        <ele>146.26</ele>
        <time>2019-12-29T13:14:59Z</time>
      </trkpt>
      <trkpt lat="37.8286685329" lon="-8.6407829449">
        <ele>146.26</ele>
        <time>2019-12-29T13:15:09Z</time>
      </trkpt>
      <trkpt lat="37.8287085146" lon="-8.6406738125">
        <ele>146.26</ele>
        <time>2019-12-29T13:15:17Z</time>
      </trkpt>
      <trkpt lat="37.8287487477" lon="-8.6405974533">
        <ele>146.74</ele>
        <time>2019-12-29T13:15:23Z</time>
      </trkpt>
      <trkpt lat="37.8287702054" lon="-8.6405733973">
        <ele>146.74</ele>
        <time>2019-12-29T13:15:25Z</time>
      </trkpt>
      <trkpt lat="37.8288706206" lon="-8.6404521111">
        <ele>147.22</ele>
        <time>2019-12-29T13:15:37Z</time>
      </trkpt>
      <trkpt lat="37.8288949281" lon="-8.6404321622">
        <ele>147.22</ele>
        <time>2019-12-29T13:15:40Z</time>
      </trkpt>
      <trkpt lat="37.8289243486" lon="-8.6403909232">
        <ele>147.70</ele>
        <time>2019-12-29T13:15:44Z</time>
      </trkpt>
      <trkpt lat="37.8289784119" lon="-8.6403442360">
        <ele>147.70</ele>
        <time>2019-12-29T13:15:50Z</time>
      </trkpt>
      <trkpt lat="37.8290504124" lon="-8.6402941961">
        <ele>148.66</ele>
        <time>2019-12-29T13:15:57Z</time>
      </trkpt>
      <trkpt lat="37.8290760610" lon="-8.6402747501">
        <ele>149.14</ele>
        <time>2019-12-29T13:15:59Z</time>
      </trkpt>
      <trkpt lat="37.8291387577" lon="-8.6402297392">
        <ele>149.62</ele>
        <time>2019-12-29T13:16:05Z</time>
      </trkpt>
      <trkpt lat="37.8292149492" lon="-8.6401582416">
        <ele>151.06</ele>
        <time>2019-12-29T13:16:14Z</time>
      </trkpt>
      <trkpt lat="37.8293198906" lon="-8.6400763504">
        <ele>152.51</ele>
        <time>2019-12-29T13:16:24Z</time>
      </trkpt>
      <trkpt lat="37.8293654043" lon="-8.6400594190">
        <ele>152.03</ele>
        <time>2019-12-29T13:16:28Z</time>
      </trkpt>
      <trkpt lat="37.8294573538" lon="-8.6399976443">
        <ele>152.51</ele>
        <time>2019-12-29T13:16:37Z</time>
      </trkpt>
      <trkpt lat="37.8294943180" lon="-8.6399807967">
        <ele>152.99</ele>
        <time>2019-12-29T13:16:40Z</time>
      </trkpt>
      <trkpt lat="37.8295597807" lon="-8.6399335228">
        <ele>152.99</ele>
        <time>2019-12-29T13:16:47Z</time>
      </trkpt>
      <trkpt lat="37.8296397440" lon="-8.6399041023">
        <ele>153.95</ele>
        <time>2019-12-29T13:16:54Z</time>
      </trkpt>
      <trkpt lat="37.8296892811" lon="-8.6398690660">
        <ele>154.91</ele>
        <time>2019-12-29T13:16:58Z</time>
      </trkpt>
      <trkpt lat="37.8297924623" lon="-8.6398210377">
        <ele>155.39</ele>
        <time>2019-12-29T13:17:07Z</time>
      </trkpt>
      <trkpt lat="37.8298172727" lon="-8.6398160923">
        <ele>155.39</ele>
        <time>2019-12-29T13:17:09Z</time>
      </trkpt>
      <trkpt lat="37.8299185261" lon="-8.6398039386">
        <ele>155.87</ele>
        <time>2019-12-29T13:17:17Z</time>
      </trkpt>
      <trkpt lat="37.8299610224" lon="-8.6397809722">
        <ele>156.35</ele>
        <time>2019-12-29T13:17:21Z</time>
      </trkpt>
      <trkpt lat="37.8299796302" lon="-8.6397682317">
        <ele>156.35</ele>
        <time>2019-12-29T13:17:23Z</time>
      </trkpt>
      <trkpt lat="37.8300504573" lon="-8.6397454329">
        <ele>157.31</ele>
        <time>2019-12-29T13:17:30Z</time>
      </trkpt>
      <trkpt lat="37.8300995752" lon="-8.6397271603">
        <ele>157.31</ele>
        <time>2019-12-29T13:17:34Z</time>
      </trkpt>
      <trkpt lat="37.8301334381" lon="-8.6397083011">
        <ele>157.79</ele>
        <time>2019-12-29T13:17:37Z</time>
      </trkpt>
      <trkpt lat="37.8301485255" lon="-8.6396944709">
        <ele>157.79</ele>
        <time>2019-12-29T13:17:39Z</time>
      </trkpt>
      <trkpt lat="37.8302138206" lon="-8.6396564171">
        <ele>158.27</ele>
        <time>2019-12-29T13:17:45Z</time>
      </trkpt>
      <trkpt lat="37.8303848952" lon="-8.6395524815">
        <ele>157.79</ele>
        <time>2019-12-29T13:18:00Z</time>
      </trkpt>
      <trkpt lat="37.8304485139" lon="-8.6394453607">
        <ele>157.79</ele>
        <time>2019-12-29T13:18:08Z</time>
      </trkpt>
      <trkpt lat="37.8305068519" lon="-8.6393566802">
        <ele>157.31</ele>
        <time>2019-12-29T13:18:17Z</time>
      </trkpt>
      <trkpt lat="37.8306601569" lon="-8.6392304488">
        <ele>157.31</ele>
        <time>2019-12-29T13:18:32Z</time>
      </trkpt>
      <trkpt lat="37.8306972049" lon="-8.6392125115">
        <ele>157.79</ele>
        <time>2019-12-29T13:18:36Z</time>
      </trkpt>
      <trkpt lat="37.8308547847" lon="-8.6391165387">
        <ele>157.31</ele>
        <time>2019-12-29T13:18:49Z</time>
      </trkpt>
      <trkpt lat="37.8308858816" lon="-8.6390810832">
        <ele>157.31</ele>
        <time>2019-12-29T13:18:53Z</time>
      </trkpt>
      <trkpt lat="37.8309179004" lon="-8.6390089151">
        <ele>157.31</ele>
        <time>2019-12-29T13:18:59Z</time>
      </trkpt>
      <trkpt lat="37.8309649229" lon="-8.6389264371">
        <ele>157.79</ele>
        <time>2019-12-29T13:19:06Z</time>
      </trkpt>
      <trkpt lat="37.8310097661" lon="-8.6388063245">
        <ele>158.75</ele>
        <time>2019-12-29T13:19:15Z</time>
      </trkpt>
      <trkpt lat="37.8311171383" lon="-8.6386678554">
        <ele>158.75</ele>
        <time>2019-12-29T13:19:27Z</time>
      </trkpt>
      <trkpt lat="37.8311385959" lon="-8.6386448052">
        <ele>159.24</ele>
        <time>2019-12-29T13:19:29Z</time>
      </trkpt>
      <trkpt lat="37.8311481513" lon="-8.6386168096">
        <ele>158.75</ele>
        <time>2019-12-29T13:19:31Z</time>
      </trkpt>
      <trkpt lat="37.8311827686" lon="-8.6385376845">
        <ele>158.75</ele>
        <time>2019-12-29T13:19:37Z</time>
      </trkpt>
      <trkpt lat="37.8312190622" lon="-8.6383984610">
        <ele>158.75</ele>
        <time>2019-12-29T13:19:47Z</time>
      </trkpt>
      <trkpt lat="37.8312509973" lon="-8.6382179148">
        <ele>157.79</ele>
        <time>2019-12-29T13:20:00Z</time>
      </trkpt>
      <trkpt lat="37.8312364966" lon="-8.6380387936">
        <ele>156.35</ele>
        <time>2019-12-29T13:20:12Z</time>
      </trkpt>
      <trkpt lat="37.8312281985" lon="-8.6379227880">
        <ele>155.39</ele>
        <time>2019-12-29T13:20:19Z</time>
      </trkpt>
      <trkpt lat="37.8312380891" lon="-8.6378654558">
        <ele>155.39</ele>
        <time>2019-12-29T13:20:23Z</time>
      </trkpt>
      <trkpt lat="37.8312521707" lon="-8.6377935391">
        <ele>155.87</ele>
        <time>2019-12-29T13:20:28Z</time>
      </trkpt>
      <trkpt lat="37.8312571160" lon="-8.6377546471">
        <ele>155.87</ele>
        <time>2019-12-29T13:20:31Z</time>
      </trkpt>
      <trkpt lat="37.8312730417" lon="-8.6376687326">
        <ele>156.35</ele>
        <time>2019-12-29T13:20:37Z</time>
      </trkpt>
      <trkpt lat="37.8313027974" lon="-8.6375093926">
        <ele>156.83</ele>
        <time>2019-12-29T13:20:48Z</time>
      </trkpt>
      <trkpt lat="37.8313141968" lon="-8.6374955624">
        <ele>156.83</ele>
        <time>2019-12-29T13:20:49Z</time>
      </trkpt>
      <trkpt lat="37.8313258477" lon="-8.6374283396">
        <ele>157.79</ele>
        <time>2019-12-29T13:20:54Z</time>
      </trkpt>
      <trkpt lat="37.8313496523" lon="-8.6373057961">
        <ele>159.24</ele>
        <time>2019-12-29T13:21:03Z</time>
      </trkpt>
      <trkpt lat="37.8313803300" lon="-8.6371656507">
        <ele>160.20</ele>
        <time>2019-12-29T13:21:14Z</time>
      </trkpt>
      <trkpt lat="37.8313980158" lon="-8.6371277645">
        <ele>160.20</ele>
        <time>2019-12-29T13:21:17Z</time>
      </trkpt>
      <trkpt lat="37.8314071521" lon="-8.6370877828">
        <ele>160.68</ele>
        <time>2019-12-29T13:21:20Z</time>
      </trkpt>
      <trkpt lat="37.8314211499" lon="-8.6370610446">
        <ele>160.68</ele>
        <time>2019-12-29T13:21:22Z</time>
      </trkpt>
      <trkpt lat="37.8314437810" lon="-8.6369960848">
        <ele>161.16</ele>
        <time>2019-12-29T13:21:27Z</time>
      </trkpt>
      <trkpt lat="37.8314561862" lon="-8.6369682569">
        <ele>161.16</ele>
        <time>2019-12-29T13:21:29Z</time>
      </trkpt>
      <trkpt lat="37.8314918932" lon="-8.6368826777">
        <ele>160.68</ele>
        <time>2019-12-29T13:21:36Z</time>
      </trkpt>
      <trkpt lat="37.8315487225" lon="-8.6367209908">
        <ele>160.20</ele>
        <time>2019-12-29T13:21:48Z</time>
      </trkpt>
      <trkpt lat="37.8315727785" lon="-8.6366672628">
        <ele>159.72</ele>
        <time>2019-12-29T13:21:52Z</time>
      </trkpt>
      <trkpt lat="37.8316288535" lon="-8.6365059949">
        <ele>158.27</ele>
        <time>2019-12-29T13:22:03Z</time>
      </trkpt>
      <trkpt lat="37.8316751216" lon="-8.6364198290">
        <ele>158.27</ele>
        <time>2019-12-29T13:22:09Z</time>
      </trkpt>
      <trkpt lat="37.8317190427" lon="-8.6363488343">
        <ele>158.75</ele>
        <time>2019-12-29T13:22:14Z</time>
      </trkpt>
      <trkpt lat="37.8317870200" lon="-8.6361802742">
        <ele>158.27</ele>
        <time>2019-12-29T13:22:27Z</time>
      </trkpt>
      <trkpt lat="37.8318140935" lon="-8.6361181643">
        <ele>158.27</ele>
        <time>2019-12-29T13:22:32Z</time>
      </trkpt>
      <trkpt lat="37.8318395745" lon="-8.6360248737">
        <ele>157.79</ele>
        <time>2019-12-29T13:22:39Z</time>
      </trkpt>
      <trkpt lat="37.8318551648" lon="-8.6359698884">
        <ele>157.31</ele>
        <time>2019-12-29T13:22:43Z</time>
      </trkpt>
      <trkpt lat="37.8318863455" lon="-8.6358864047">
        <ele>156.83</ele>
        <time>2019-12-29T13:22:49Z</time>
      </trkpt>
      <trkpt lat="37.8319611121" lon="-8.6357517913">
        <ele>156.83</ele>
        <time>2019-12-29T13:23:00Z</time>
      </trkpt>
      <trkpt lat="37.8319711704" lon="-8.6356993206">
        <ele>156.83</ele>
        <time>2019-12-29T13:23:04Z</time>
      </trkpt>
      <trkpt lat="37.8320104815" lon="-8.6356234644">
        <ele>157.31</ele>
        <time>2019-12-29T13:23:10Z</time>
      </trkpt>
      <trkpt lat="37.8320233058" lon="-8.6355780344">
        <ele>157.79</ele>
        <time>2019-12-29T13:23:14Z</time>
      </trkpt>
      <trkpt lat="37.8320477810" lon="-8.6355331074">
        <ele>158.27</ele>
        <time>2019-12-29T13:23:18Z</time>
      </trkpt>
      <trkpt lat="37.8320735134" lon="-8.6354962271">
        <ele>158.27</ele>
        <time>2019-12-29T13:23:21Z</time>
      </trkpt>
      <trkpt lat="37.8321038559" lon="-8.6354075465">
        <ele>157.79</ele>
        <time>2019-12-29T13:23:28Z</time>
      </trkpt>
      <trkpt lat="37.8321242239" lon="-8.6353346240">
        <ele>157.79</ele>
        <time>2019-12-29T13:23:33Z</time>
      </trkpt>
      <trkpt lat="37.8321331926" lon="-8.6353100650">
        <ele>157.31</ele>
        <time>2019-12-29T13:23:35Z</time>
      </trkpt>
      <trkpt lat="37.8321492020" lon="-8.6352517270">
        <ele>156.35</ele>
        <time>2019-12-29T13:23:39Z</time>
      </trkpt>
      <trkpt lat="37.8321755212" lon="-8.6350482143">
        <ele>155.87</ele>
        <time>2019-12-29T13:23:53Z</time>
      </trkpt>
      <trkpt lat="37.8322239686" lon="-8.6348541733">
        <ele>153.47</ele>
        <time>2019-12-29T13:24:07Z</time>
      </trkpt>
      <trkpt lat="37.8322968073" lon="-8.6347339768">
        <ele>152.03</ele>
        <time>2019-12-29T13:24:18Z</time>
      </trkpt>
      <trkpt lat="37.8323794529" lon="-8.6346063204">
        <ele>149.62</ele>
        <time>2019-12-29T13:24:29Z</time>
      </trkpt>
      <trkpt lat="37.8324062750" lon="-8.6345548555">
        <ele>149.62</ele>
        <time>2019-12-29T13:24:33Z</time>
      </trkpt>
      <trkpt lat="37.8325143177" lon="-8.6343904026">
        <ele>147.70</ele>
        <time>2019-12-29T13:24:47Z</time>
      </trkpt>
      <trkpt lat="37.8325727396" lon="-8.6343565397">
        <ele>148.66</ele>
        <time>2019-12-29T13:24:53Z</time>
      </trkpt>
      <trkpt lat="37.8326028306" lon="-8.6343417037">
        <ele>148.66</ele>
        <time>2019-12-29T13:24:56Z</time>
      </trkpt>
      <trkpt lat="37.8326399624" lon="-8.6343469843">
        <ele>148.66</ele>
        <time>2019-12-29T13:24:59Z</time>
      </trkpt>
      <trkpt lat="37.8327040002" lon="-8.6343295500">
        <ele>149.62</ele>
        <time>2019-12-29T13:25:05Z</time>
      </trkpt>
      <trkpt lat="37.8327352647" lon="-8.6343134567">
        <ele>150.10</ele>
        <time>2019-12-29T13:25:08Z</time>
      </trkpt>
      <trkpt lat="37.8327675350" lon="-8.6343097687">
        <ele>150.58</ele>
        <time>2019-12-29T13:25:11Z</time>
      </trkpt>
      <trkpt lat="37.8328189161" lon="-8.6342998780">
        <ele>151.06</ele>
        <time>2019-12-29T13:25:16Z</time>
      </trkpt>
      <trkpt lat="37.8329272941" lon="-8.6342899874">
        <ele>152.03</ele>
        <time>2019-12-29T13:25:26Z</time>
      </trkpt>
      <trkpt lat="37.8330198303" lon="-8.6343344953">
        <ele>153.47</ele>
        <time>2019-12-29T13:25:36Z</time>
      </trkpt>
      <trkpt lat="37.8330597281" lon="-8.6343516782">
        <ele>154.43</ele>
        <time>2019-12-29T13:25:40Z</time>
      </trkpt>
      <trkpt lat="37.8330775816" lon="-8.6343660951">
        <ele>153.95</ele>
        <time>2019-12-29T13:25:42Z</time>
      </trkpt>
      <trkpt lat="37.8331087623" lon="-8.6343865469">
        <ele>154.91</ele>
        <time>2019-12-29T13:25:45Z</time>
      </trkpt>
      <trkpt lat="37.8332292940" lon="-8.6344582122">
        <ele>155.39</ele>
        <time>2019-12-29T13:25:57Z</time>
      </trkpt>
      <trkpt lat="37.8332598042" lon="-8.6344789993">
        <ele>155.39</ele>
        <time>2019-12-29T13:26:00Z</time>
      </trkpt>
      <trkpt lat="37.8333235066" lon="-8.6345048994">
        <ele>155.87</ele>
        <time>2019-12-29T13:26:06Z</time>
      </trkpt>
      <trkpt lat="37.8333930764" lon="-8.6345123593">
        <ele>155.87</ele>
        <time>2019-12-29T13:26:12Z</time>
      </trkpt>
      <trkpt lat="37.8334506601" lon="-8.6344740540">
        <ele>156.35</ele>
        <time>2019-12-29T13:26:18Z</time>
      </trkpt>
      <trkpt lat="37.8334844392" lon="-8.6344307195">
        <ele>156.35</ele>
        <time>2019-12-29T13:26:22Z</time>
      </trkpt>
      <trkpt lat="37.8335796576" lon="-8.6343187373">
        <ele>156.83</ele>
        <time>2019-12-29T13:26:34Z</time>
      </trkpt>
      <trkpt lat="37.8336910531" lon="-8.6342191603">
        <ele>156.83</ele>
        <time>2019-12-29T13:26:47Z</time>
      </trkpt>
      <trkpt lat="37.8337856010" lon="-8.6341169011">
        <ele>157.31</ele>
        <time>2019-12-29T13:26:59Z</time>
      </trkpt>
      <trkpt lat="37.8338110819" lon="-8.6340870615">
        <ele>157.31</ele>
        <time>2019-12-29T13:27:03Z</time>
      </trkpt>
      <trkpt lat="37.8338338807" lon="-8.6340609938">
        <ele>157.31</ele>
        <time>2019-12-29T13:27:15Z</time>
      </trkpt>
      <trkpt lat="37.8339269198" lon="-8.6339692120">
        <ele>156.35</ele>
        <time>2019-12-29T13:27:27Z</time>
      </trkpt>
      <trkpt lat="37.8339353856" lon="-8.6339479219">
        <ele>156.83</ele>
        <time>2019-12-29T13:27:29Z</time>
      </trkpt>
      <trkpt lat="37.8340356331" lon="-8.6338451598">
        <ele>155.87</ele>
        <time>2019-12-29T13:27:43Z</time>
      </trkpt>
      <trkpt lat="37.8340356331" lon="-8.6338451598">
        <ele>156.35</ele>
        <time>2019-12-29T13:27:44Z</time>
      </trkpt>
      <trkpt lat="37.8340688255" lon="-8.6338107940">
        <ele>156.35</ele>
        <time>2019-12-29T13:27:49Z</time>
      </trkpt>
      <trkpt lat="37.8341262415" lon="-8.6337631848">
        <ele>155.87</ele>
        <time>2019-12-29T13:27:55Z</time>
      </trkpt>
      <trkpt lat="37.8341728449" lon="-8.6337216105">
        <ele>156.35</ele>
        <time>2019-12-29T13:27:59Z</time>
      </trkpt>
      <trkpt lat="37.8342004213" lon="-8.6336926930">
        <ele>156.35</ele>
        <time>2019-12-29T13:28:02Z</time>
      </trkpt>
      <trkpt lat="37.8342466895" lon="-8.6336626019">
        <ele>156.35</ele>
        <time>2019-12-29T13:28:06Z</time>
      </trkpt>
      <trkpt lat="37.8343595099" lon="-8.6335373763">
        <ele>154.91</ele>
        <time>2019-12-29T13:28:19Z</time>
      </trkpt>
      <trkpt lat="37.8343911096" lon="-8.6334789544">
        <ele>153.95</ele>
        <time>2019-12-29T13:28:25Z</time>
      </trkpt>
      <trkpt lat="37.8344667982" lon="-8.6333947163">
        <ele>151.54</ele>
        <time>2019-12-29T13:28:34Z</time>
      </trkpt>
      <trkpt lat="37.8344859090" lon="-8.6333445925">
        <ele>151.54</ele>
        <time>2019-12-29T13:28:38Z</time>
      </trkpt>
      <trkpt lat="37.8345922753" lon="-8.6331912875">
        <ele>149.62</ele>
        <time>2019-12-29T13:28:51Z</time>
      </trkpt>
      <trkpt lat="37.8347009886" lon="-8.6330532376">
        <ele>147.22</ele>
        <time>2019-12-29T13:29:04Z</time>
      </trkpt>
      <trkpt lat="37.8347493522" lon="-8.6329882778">
        <ele>146.26</ele>
        <time>2019-12-29T13:29:10Z</time>
      </trkpt>
      <trkpt lat="37.8347975481" lon="-8.6329196300">
        <ele>145.30</ele>
        <time>2019-12-29T13:29:16Z</time>
      </trkpt>
      <trkpt lat="37.8348248731" lon="-8.6328824144">
        <ele>144.82</ele>
        <time>2019-12-29T13:29:19Z</time>
      </trkpt>
      <trkpt lat="37.8349137213" lon="-8.6327628046">
        <ele>143.37</ele>
        <time>2019-12-29T13:29:29Z</time>
      </trkpt>
      <trkpt lat="37.8349485900" lon="-8.6327080708">
        <ele>142.89</ele>
        <time>2019-12-29T13:29:33Z</time>
      </trkpt>
      <trkpt lat="37.8350308165" lon="-8.6326003633">
        <ele>142.41</ele>
        <time>2019-12-29T13:29:43Z</time>
      </trkpt>
      <trkpt lat="37.8351263702" lon="-8.6324808374">
        <ele>142.89</ele>
        <time>2019-12-29T13:29:55Z</time>
      </trkpt>
      <trkpt lat="37.8352334071" lon="-8.6323769018">
        <ele>143.37</ele>
        <time>2019-12-29T13:30:08Z</time>
      </trkpt>
      <trkpt lat="37.8352806810" lon="-8.6323533487">
        <ele>143.85</ele>
        <time>2019-12-29T13:30:12Z</time>
      </trkpt>
      <trkpt lat="37.8352943435" lon="-8.6323317233">
        <ele>143.85</ele>
        <time>2019-12-29T13:30:14Z</time>
      </trkpt>
      <trkpt lat="37.8353259433" lon="-8.6322853714">
        <ele>143.85</ele>
        <time>2019-12-29T13:30:19Z</time>
      </trkpt>
      <trkpt lat="37.8353694454" lon="-8.6322233453">
        <ele>143.85</ele>
        <time>2019-12-29T13:30:24Z</time>
      </trkpt>
      <trkpt lat="37.8353815991" lon="-8.6321889795">
        <ele>143.37</ele>
        <time>2019-12-29T13:30:26Z</time>
      </trkpt>
      <trkpt lat="37.8353801742" lon="-8.6321497522">
        <ele>143.37</ele>
        <time>2019-12-29T13:30:29Z</time>
      </trkpt>
      <trkpt lat="37.8353800904" lon="-8.6320651788">
        <ele>143.85</ele>
        <time>2019-12-29T13:30:35Z</time>
      </trkpt>
      <trkpt lat="37.8353616502" lon="-8.6319971178">
        <ele>143.37</ele>
        <time>2019-12-29T13:30:40Z</time>
      </trkpt>
      <trkpt lat="37.8353049885" lon="-8.6318195891">
        <ele>143.85</ele>
        <time>2019-12-29T13:30:54Z</time>
      </trkpt>
      <trkpt lat="37.8352914937" lon="-8.6317749135">
        <ele>144.34</ele>
        <time>2019-12-29T13:30:58Z</time>
      </trkpt>
      <trkpt lat="37.8352636658" lon="-8.6317205150">
        <ele>144.34</ele>
        <time>2019-12-29T13:31:02Z</time>
      </trkpt>
      <trkpt lat="37.8352200799" lon="-8.6315698083">
        <ele>144.34</ele>
        <time>2019-12-29T13:31:12Z</time>
      </trkpt>
      <trkpt lat="37.8351683635" lon="-8.6314076185">
        <ele>145.30</ele>
        <time>2019-12-29T13:31:23Z</time>
      </trkpt>
      <trkpt lat="37.8351565450" lon="-8.6312877573">
        <ele>145.78</ele>
        <time>2019-12-29T13:31:31Z</time>
      </trkpt>
      <trkpt lat="37.8351299744" lon="-8.6312132422">
        <ele>145.78</ele>
        <time>2019-12-29T13:31:36Z</time>
      </trkpt>
      <trkpt lat="37.8351080138" lon="-8.6310870107">
        <ele>146.74</ele>
        <time>2019-12-29T13:31:44Z</time>
      </trkpt>
      <trkpt lat="37.8350900766" lon="-8.6310307682">
        <ele>146.74</ele>
        <time>2019-12-29T13:31:48Z</time>
      </trkpt>
      <trkpt lat="37.8350727260" lon="-8.6309744418">
        <ele>146.74</ele>
        <time>2019-12-29T13:31:52Z</time>
      </trkpt>
      <trkpt lat="37.8350646794" lon="-8.6309161875">
        <ele>147.22</ele>
        <time>2019-12-29T13:31:56Z</time>
      </trkpt>
      <trkpt lat="37.8350454848" lon="-8.6308770441">
        <ele>147.22</ele>
        <time>2019-12-29T13:31:59Z</time>
      </trkpt>
      <trkpt lat="37.8350163158" lon="-8.6308000982">
        <ele>148.18</ele>
        <time>2019-12-29T13:32:05Z</time>
      </trkpt>
      <trkpt lat="37.8350107837" lon="-8.6307754554">
        <ele>148.66</ele>
        <time>2019-12-29T13:32:07Z</time>
      </trkpt>
      <trkpt lat="37.8349832073" lon="-8.6307016946">
        <ele>148.66</ele>
        <time>2019-12-29T13:32:12Z</time>
      </trkpt>
      <trkpt lat="37.8349707182" lon="-8.6306599528">
        <ele>148.66</ele>
        <time>2019-12-29T13:32:15Z</time>
      </trkpt>
      <trkpt lat="37.8349649347" lon="-8.6305975076">
        <ele>149.14</ele>
        <time>2019-12-29T13:32:19Z</time>
      </trkpt>
      <trkpt lat="37.8349622525" lon="-8.6305343919">
        <ele>150.10</ele>
        <time>2019-12-29T13:32:23Z</time>
      </trkpt>
      <trkpt lat="37.8349519428" lon="-8.6304856092">
        <ele>150.10</ele>
        <time>2019-12-29T13:32:27Z</time>
      </trkpt>
      <trkpt lat="37.8349502664" lon="-8.6303616408">
        <ele>151.54</ele>
        <time>2019-12-29T13:32:36Z</time>
      </trkpt>
      <trkpt lat="37.8349604085" lon="-8.6302924901">
        <ele>152.03</ele>
        <time>2019-12-29T13:32:41Z</time>
      </trkpt>
      <trkpt lat="37.8349784296" lon="-8.6302140355">
        <ele>152.99</ele>
        <time>2019-12-29T13:32:47Z</time>
      </trkpt>
      <trkpt lat="37.8350253683" lon="-8.6301196553">
        <ele>153.47</ele>
        <time>2019-12-29T13:32:54Z</time>
      </trkpt>
      <trkpt lat="37.8350728936" lon="-8.6299930047">
        <ele>153.95</ele>
        <time>2019-12-29T13:33:04Z</time>
      </trkpt>
      <trkpt lat="37.8350969497" lon="-8.6298974510">
        <ele>154.91</ele>
        <time>2019-12-29T13:33:11Z</time>
      </trkpt>
      <trkpt lat="37.8351248614" lon="-8.6298541166">
        <ele>155.87</ele>
        <time>2019-12-29T13:33:15Z</time>
      </trkpt>
      <trkpt lat="37.8351368476" lon="-8.6298148055">
        <ele>155.87</ele>
        <time>2019-12-29T13:33:18Z</time>
      </trkpt>
      <trkpt lat="37.8351960238" lon="-8.6297223531">
        <ele>158.27</ele>
        <time>2019-12-29T13:33:27Z</time>
      </trkpt>
      <trkpt lat="37.8353023902" lon="-8.6296235304">
        <ele>158.75</ele>
        <time>2019-12-29T13:33:38Z</time>
      </trkpt>
      <trkpt lat="37.8354333155" lon="-8.6295108777">
        <ele>157.79</ele>
        <time>2019-12-29T13:33:52Z</time>
      </trkpt>
      <trkpt lat="37.8355143685" lon="-8.6294323392">
        <ele>157.31</ele>
        <time>2019-12-29T13:34:00Z</time>
      </trkpt>
      <trkpt lat="37.8355611395" lon="-8.6293150764">
        <ele>156.35</ele>
        <time>2019-12-29T13:34:09Z</time>
      </trkpt>
      <trkpt lat="37.8355830163" lon="-8.6291175988">
        <ele>156.83</ele>
        <time>2019-12-29T13:34:23Z</time>
      </trkpt>
      <trkpt lat="37.8355903924" lon="-8.6289865058">
        <ele>156.35</ele>
        <time>2019-12-29T13:34:32Z</time>
      </trkpt>
      <trkpt lat="37.8355976846" lon="-8.6289304309">
        <ele>155.87</ele>
        <time>2019-12-29T13:34:36Z</time>
      </trkpt>
      <trkpt lat="37.8356182203" lon="-8.6287513096">
        <ele>154.91</ele>
        <time>2019-12-29T13:34:48Z</time>
      </trkpt>
      <trkpt lat="37.8356191423" lon="-8.6285484675">
        <ele>152.03</ele>
        <time>2019-12-29T13:35:02Z</time>
      </trkpt>
      <trkpt lat="37.8356234170" lon="-8.6285290215">
        <ele>151.54</ele>
        <time>2019-12-29T13:35:04Z</time>
      </trkpt>
      <trkpt lat="37.8356242552" lon="-8.6282187235">
        <ele>149.62</ele>
        <time>2019-12-29T13:35:23Z</time>
      </trkpt>
      <trkpt lat="37.8356248420" lon="-8.6281782389">
        <ele>149.62</ele>
        <time>2019-12-29T13:35:26Z</time>
      </trkpt>
      <trkpt lat="37.8356375825" lon="-8.6280549411">
        <ele>149.62</ele>
        <time>2019-12-29T13:35:34Z</time>
      </trkpt>
      <trkpt lat="37.8356464673" lon="-8.6279873829">
        <ele>149.62</ele>
        <time>2019-12-29T13:35:39Z</time>
      </trkpt>
      <trkpt lat="37.8356582858" lon="-8.6279593874">
        <ele>150.10</ele>
        <time>2019-12-29T13:35:41Z</time>
      </trkpt>
      <trkpt lat="37.8356742114" lon="-8.6278644204">
        <ele>150.58</ele>
        <time>2019-12-29T13:35:47Z</time>
      </trkpt>
      <trkpt lat="37.8356682602" lon="-8.6278137937">
        <ele>150.58</ele>
        <time>2019-12-29T13:35:51Z</time>
      </trkpt>
      <trkpt lat="37.8357351478" lon="-8.6276464071">
        <ele>148.66</ele>
        <time>2019-12-29T13:36:05Z</time>
      </trkpt>
      <trkpt lat="37.8358319588" lon="-8.6275864765">
        <ele>148.18</ele>
        <time>2019-12-29T13:36:14Z</time>
      </trkpt>
      <trkpt lat="37.8358771373" lon="-8.6275200918">
        <ele>147.22</ele>
        <time>2019-12-29T13:36:19Z</time>
      </trkpt>
      <trkpt lat="37.8358950745" lon="-8.6274502706">
        <ele>146.74</ele>
        <time>2019-12-29T13:36:24Z</time>
      </trkpt>
      <trkpt lat="37.8359063901" lon="-8.6273856461">
        <ele>145.78</ele>
        <time>2019-12-29T13:36:28Z</time>
      </trkpt>
      <trkpt lat="37.8359139338" lon="-8.6272755079">
        <ele>145.30</ele>
        <time>2019-12-29T13:36:35Z</time>
      </trkpt>
      <trkpt lat="37.8359156940" lon="-8.6272046808">
        <ele>145.30</ele>
        <time>2019-12-29T13:36:39Z</time>
      </trkpt>
      <trkpt lat="37.8359187953" lon="-8.6271461751">
        <ele>145.30</ele>
        <time>2019-12-29T13:36:43Z</time>
      </trkpt>
      <trkpt lat="37.8358994331" lon="-8.6269402318">
        <ele>143.85</ele>
        <time>2019-12-29T13:36:57Z</time>
      </trkpt>
      <trkpt lat="37.8358889557" lon="-8.6268471926">
        <ele>143.37</ele>
        <time>2019-12-29T13:37:03Z</time>
      </trkpt>
      <trkpt lat="37.8358506504" lon="-8.6267578416">
        <ele>141.93</ele>
        <time>2019-12-29T13:37:10Z</time>
      </trkpt>
      <trkpt lat="37.8357749619" lon="-8.6265831627">
        <ele>140.49</ele>
        <time>2019-12-29T13:37:23Z</time>
      </trkpt>
      <trkpt lat="37.8357419372" lon="-8.6264034547">
        <ele>140.01</ele>
        <time>2019-12-29T13:37:35Z</time>
      </trkpt>
      <trkpt lat="37.8357430268" lon="-8.6263778899">
        <ele>140.49</ele>
        <time>2019-12-29T13:37:37Z</time>
      </trkpt>
      <trkpt lat="37.8357427754" lon="-8.6263427697">
        <ele>140.49</ele>
        <time>2019-12-29T13:37:40Z</time>
      </trkpt>
      <trkpt lat="37.8357308730" lon="-8.6263020337">
        <ele>141.45</ele>
        <time>2019-12-29T13:37:51Z</time>
      </trkpt>
      <trkpt lat="37.8357317112" lon="-8.6263016984">
        <ele>141.45</ele>
        <time>2019-12-29T13:38:12Z</time>
      </trkpt>
      <trkpt lat="37.8357402608" lon="-8.6262837611">
        <ele>141.45</ele>
        <time>2019-12-29T13:38:26Z</time>
      </trkpt>
      <trkpt lat="37.8357696813" lon="-8.6262286082">
        <ele>141.45</ele>
        <time>2019-12-29T13:38:31Z</time>
      </trkpt>
      <trkpt lat="37.8357894626" lon="-8.6262037978">
        <ele>141.93</ele>
        <time>2019-12-29T13:38:33Z</time>
      </trkpt>
      <trkpt lat="37.8358314559" lon="-8.6261183023">
        <ele>142.41</ele>
        <time>2019-12-29T13:38:39Z</time>
      </trkpt>
      <trkpt lat="37.8358840104" lon="-8.6259701941">
        <ele>142.41</ele>
        <time>2019-12-29T13:38:51Z</time>
      </trkpt>
      <trkpt lat="37.8359427676" lon="-8.6258844472">
        <ele>143.85</ele>
        <time>2019-12-29T13:38:59Z</time>
      </trkpt>
      <trkpt lat="37.8359802347" lon="-8.6258157156">
        <ele>143.37</ele>
        <time>2019-12-29T13:39:04Z</time>
      </trkpt>
      <trkpt lat="37.8360291012" lon="-8.6257463973">
        <ele>144.34</ele>
        <time>2019-12-29T13:39:11Z</time>
      </trkpt>
      <trkpt lat="37.8360555042" lon="-8.6257118639">
        <ele>145.30</ele>
        <time>2019-12-29T13:39:14Z</time>
      </trkpt>
      <trkpt lat="37.8360612877" lon="-8.6256805994">
        <ele>145.78</ele>
        <time>2019-12-29T13:39:16Z</time>
      </trkpt>
      <trkpt lat="37.8361401614" lon="-8.6255498417">
        <ele>147.22</ele>
        <time>2019-12-29T13:39:27Z</time>
      </trkpt>
      <trkpt lat="37.8361776285" lon="-8.6254695430">
        <ele>148.18</ele>
        <time>2019-12-29T13:39:34Z</time>
      </trkpt>
      <trkpt lat="37.8362273332" lon="-8.6253837124">
        <ele>149.14</ele>
        <time>2019-12-29T13:39:41Z</time>
      </trkpt>
      <trkpt lat="37.8362420015" lon="-8.6253634281">
        <ele>149.62</ele>
        <time>2019-12-29T13:39:43Z</time>
      </trkpt>
      <trkpt lat="37.8362485394" lon="-8.6253371928">
        <ele>149.62</ele>
        <time>2019-12-29T13:39:46Z</time>
      </trkpt>
      <trkpt lat="37.8362641297" lon="-8.6252988875">
        <ele>150.10</ele>
        <time>2019-12-29T13:39:49Z</time>
      </trkpt>
      <trkpt lat="37.8362973221" lon="-8.6252523679">
        <ele>150.58</ele>
        <time>2019-12-29T13:39:53Z</time>
      </trkpt>
      <trkpt lat="37.8363559116" lon="-8.6251395475">
        <ele>150.58</ele>
        <time>2019-12-29T13:40:03Z</time>
      </trkpt>
      <trkpt lat="37.8364386410" lon="-8.6249595042">
        <ele>149.62</ele>
        <time>2019-12-29T13:40:17Z</time>
      </trkpt>
      <trkpt lat="37.8364800476" lon="-8.6248931196">
        <ele>149.14</ele>
        <time>2019-12-29T13:40:22Z</time>
      </trkpt>
      <trkpt lat="37.8364942130" lon="-8.6247836519">
        <ele>148.66</ele>
        <time>2019-12-29T13:40:29Z</time>
      </trkpt>
      <trkpt lat="37.8365146648" lon="-8.6247198656">
        <ele>147.70</ele>
        <time>2019-12-29T13:40:33Z</time>
      </trkpt>
      <trkpt lat="37.8365107253" lon="-8.6246291734">
        <ele>147.22</ele>
        <time>2019-12-29T13:40:39Z</time>
      </trkpt>
      <trkpt lat="37.8365232144" lon="-8.6245933827">
        <ele>147.22</ele>
        <time>2019-12-29T13:40:41Z</time>
      </trkpt>
      <trkpt lat="37.8365158383" lon="-8.6245109886">
        <ele>146.26</ele>
        <time>2019-12-29T13:40:46Z</time>
      </trkpt>
      <trkpt lat="37.8365117311" lon="-8.6243980005">
        <ele>144.82</ele>
        <time>2019-12-29T13:40:54Z</time>
      </trkpt>
      <trkpt lat="37.8365020081" lon="-8.6242292728">
        <ele>143.85</ele>
        <time>2019-12-29T13:41:04Z</time>
      </trkpt>
      <trkpt lat="37.8365030140" lon="-8.6241889559">
        <ele>143.37</ele>
        <time>2019-12-29T13:41:07Z</time>
      </trkpt>
      <trkpt lat="37.8365093842" lon="-8.6240585335">
        <ele>142.89</ele>
        <time>2019-12-29T13:41:15Z</time>
      </trkpt>
      <trkpt lat="37.8365055285" lon="-8.6240021233">
        <ele>142.41</ele>
        <time>2019-12-29T13:41:19Z</time>
      </trkpt>
      <trkpt lat="37.8364897706" lon="-8.6238109320">
        <ele>140.97</ele>
        <time>2019-12-29T13:41:31Z</time>
      </trkpt>
      <trkpt lat="37.8364896867" lon="-8.6237959284">
        <ele>140.49</ele>
        <time>2019-12-29T13:41:32Z</time>
      </trkpt>
      <trkpt lat="37.8364998288" lon="-8.6236920767">
        <ele>139.53</ele>
        <time>2019-12-29T13:41:39Z</time>
      </trkpt>
      <trkpt lat="37.8365126532" lon="-8.6236319784">
        <ele>138.57</ele>
        <time>2019-12-29T13:41:43Z</time>
      </trkpt>
      <trkpt lat="37.8365325183" lon="-8.6235452257">
        <ele>138.09</ele>
        <time>2019-12-29T13:41:48Z</time>
      </trkpt>
      <trkpt lat="37.8365269024" lon="-8.6233626679">
        <ele>136.64</ele>
        <time>2019-12-29T13:42:00Z</time>
      </trkpt>
      <trkpt lat="37.8366061114" lon="-8.6232048366">
        <ele>135.68</ele>
        <time>2019-12-29T13:42:12Z</time>
      </trkpt>
      <trkpt lat="37.8366445843" lon="-8.6231466662">
        <ele>135.68</ele>
        <time>2019-12-29T13:42:17Z</time>
      </trkpt>
      <trkpt lat="37.8367772698" lon="-8.6230426468">
        <ele>135.68</ele>
        <time>2019-12-29T13:42:30Z</time>
      </trkpt>
      <trkpt lat="37.8369222768" lon="-8.6229069438">
        <ele>135.20</ele>
        <time>2019-12-29T13:42:45Z</time>
      </trkpt>
      <trkpt lat="37.8370490950" lon="-8.6227958836">
        <ele>134.72</ele>
        <time>2019-12-29T13:42:59Z</time>
      </trkpt>
      <trkpt lat="37.8371710517" lon="-8.6226057820">
        <ele>134.24</ele>
        <time>2019-12-29T13:43:13Z</time>
      </trkpt>
      <trkpt lat="37.8371969517" lon="-8.6225316860">
        <ele>133.28</ele>
        <time>2019-12-29T13:43:18Z</time>
      </trkpt>
      <trkpt lat="37.8372277133" lon="-8.6224719230">
        <ele>133.28</ele>
        <time>2019-12-29T13:43:23Z</time>
      </trkpt>
      <trkpt lat="37.8372733947" lon="-8.6224136688">
        <ele>132.80</ele>
        <time>2019-12-29T13:43:28Z</time>
      </trkpt>
      <trkpt lat="37.8372604027" lon="-8.6223824881">
        <ele>132.80</ele>
        <time>2019-12-29T13:43:30Z</time>
      </trkpt>
      <trkpt lat="37.8373462334" lon="-8.6221665703">
        <ele>130.88</ele>
        <time>2019-12-29T13:43:46Z</time>
      </trkpt>
      <trkpt lat="37.8373620752" lon="-8.6221411731">
        <ele>130.40</ele>
        <time>2019-12-29T13:43:48Z</time>
      </trkpt>
      <trkpt lat="37.8373770788" lon="-8.6220834218">
        <ele>130.40</ele>
        <time>2019-12-29T13:43:52Z</time>
      </trkpt>
      <trkpt lat="37.8374582157" lon="-8.6219326314">
        <ele>130.88</ele>
        <time>2019-12-29T13:44:03Z</time>
      </trkpt>
      <trkpt lat="37.8374871332" lon="-8.6218892131">
        <ele>130.88</ele>
        <time>2019-12-29T13:44:06Z</time>
      </trkpt>
      <trkpt lat="37.8375167213" lon="-8.6217924021">
        <ele>131.36</ele>
        <time>2019-12-29T13:44:14Z</time>
      </trkpt>
      <trkpt lat="37.8375453874" lon="-8.6217302084">
        <ele>131.36</ele>
        <time>2019-12-29T13:44:19Z</time>
      </trkpt>
      <trkpt lat="37.8375718743" lon="-8.6216813419">
        <ele>131.36</ele>
        <time>2019-12-29T13:44:23Z</time>
      </trkpt>
      <trkpt lat="37.8375818487" lon="-8.6216395162">
        <ele>131.84</ele>
        <time>2019-12-29T13:44:26Z</time>
      </trkpt>
      <trkpt lat="37.8376150411" lon="-8.6215813458">
        <ele>132.32</ele>
        <time>2019-12-29T13:44:31Z</time>
      </trkpt>
      <trkpt lat="37.8376862034" lon="-8.6214510072">
        <ele>131.84</ele>
        <time>2019-12-29T13:44:41Z</time>
      </trkpt>
      <trkpt lat="37.8377025481" lon="-8.6214264482">
        <ele>131.84</ele>
        <time>2019-12-29T13:44:43Z</time>
      </trkpt>
      <trkpt lat="37.8377565276" lon="-8.6213421263">
        <ele>131.84</ele>
        <time>2019-12-29T13:44:56Z</time>
      </trkpt>
      <trkpt lat="37.8377797455" lon="-8.6212865543">
        <ele>131.84</ele>
        <time>2019-12-29T13:45:00Z</time>
      </trkpt>
      <trkpt lat="37.8378035501" lon="-8.6212196667">
        <ele>131.84</ele>
        <time>2019-12-29T13:45:05Z</time>
      </trkpt>
      <trkpt lat="37.8378717788" lon="-8.6210848857">
        <ele>131.84</ele>
        <time>2019-12-29T13:45:15Z</time>
      </trkpt>
      <trkpt lat="37.8379487246" lon="-8.6209461652">
        <ele>131.84</ele>
        <time>2019-12-29T13:45:27Z</time>
      </trkpt>
      <trkpt lat="37.8380591981" lon="-8.6208454147">
        <ele>131.84</ele>
        <time>2019-12-29T13:45:40Z</time>
      </trkpt>
      <trkpt lat="37.8380690888" lon="-8.6208404694">
        <ele>131.84</ele>
        <time>2019-12-29T13:45:41Z</time>
      </trkpt>
      <trkpt lat="37.8381093219" lon="-8.6208242923">
        <ele>131.84</ele>
        <time>2019-12-29T13:45:45Z</time>
      </trkpt>
      <trkpt lat="37.8381384909" lon="-8.6208050139">
        <ele>132.32</ele>
        <time>2019-12-29T13:45:48Z</time>
      </trkpt>
      <trkpt lat="37.8381603677" lon="-8.6207983084">
        <ele>132.32</ele>
        <time>2019-12-29T13:45:50Z</time>
      </trkpt>
      <trkpt lat="37.8382202983" lon="-8.6207660381">
        <ele>133.28</ele>
        <time>2019-12-29T13:45:56Z</time>
      </trkpt>
      <trkpt lat="37.8382989205" lon="-8.6207386293">
        <ele>133.76</ele>
        <time>2019-12-29T13:46:03Z</time>
      </trkpt>
      <trkpt lat="37.8384400718" lon="-8.6206844822">
        <ele>134.24</ele>
        <time>2019-12-29T13:46:16Z</time>
      </trkpt>
      <trkpt lat="37.8385915328" lon="-8.6206398904">
        <ele>134.72</ele>
        <time>2019-12-29T13:46:29Z</time>
      </trkpt>
      <trkpt lat="37.8387246374" lon="-8.6206047703">
        <ele>135.20</ele>
        <time>2019-12-29T13:46:41Z</time>
      </trkpt>
      <trkpt lat="37.8388422355" lon="-8.6205491982">
        <ele>135.68</ele>
        <time>2019-12-29T13:46:52Z</time>
      </trkpt>
      <trkpt lat="37.8389790282" lon="-8.6204242241">
        <ele>135.68</ele>
        <time>2019-12-29T13:47:06Z</time>
      </trkpt>
      <trkpt lat="37.8390887473" lon="-8.6202788819">
        <ele>135.20</ele>
        <time>2019-12-29T13:47:21Z</time>
      </trkpt>
      <trkpt lat="37.8391467500" lon="-8.6202140898">
        <ele>133.76</ele>
        <time>2019-12-29T13:47:28Z</time>
      </trkpt>
      <trkpt lat="37.8392141405" lon="-8.6202222202">
        <ele>133.28</ele>
        <time>2019-12-29T13:47:34Z</time>
      </trkpt>
      <trkpt lat="37.8393017314" lon="-8.6202797201">
        <ele>132.80</ele>
        <time>2019-12-29T13:47:50Z</time>
      </trkpt>
      <trkpt lat="37.8393017314" lon="-8.6202797201">
        <ele>133.28</ele>
        <time>2019-12-29T13:47:51Z</time>
      </trkpt>
      <trkpt lat="37.8393127117" lon="-8.6202611960">
        <ele>132.80</ele>
        <time>2019-12-29T13:47:53Z</time>
      </trkpt>
      <trkpt lat="37.8394729737" lon="-8.6202114914">
        <ele>132.32</ele>
        <time>2019-12-29T13:48:09Z</time>
      </trkpt>
      <trkpt lat="37.8395709582" lon="-8.6201917939">
        <ele>132.32</ele>
        <time>2019-12-29T13:48:21Z</time>
      </trkpt>
      <trkpt lat="37.8396611474" lon="-8.6201414187">
        <ele>132.32</ele>
        <time>2019-12-29T13:48:35Z</time>
      </trkpt>
      <trkpt lat="37.8396806773" lon="-8.6201344617">
        <ele>132.32</ele>
        <time>2019-12-29T13:48:49Z</time>
      </trkpt>
      <trkpt lat="37.8396806773" lon="-8.6201344617">
        <ele>132.80</ele>
        <time>2019-12-29T13:49:12Z</time>
      </trkpt>
      <trkpt lat="37.8396565374" lon="-8.6201465316">
        <ele>132.80</ele>
        <time>2019-12-29T13:49:16Z</time>
      </trkpt>
      <trkpt lat="37.8396135382" lon="-8.6201795563">
        <ele>132.32</ele>
        <time>2019-12-29T13:49:22Z</time>
      </trkpt>
      <trkpt lat="37.8394674417" lon="-8.6202052049">
        <ele>132.32</ele>
        <time>2019-12-29T13:49:36Z</time>
      </trkpt>
      <trkpt lat="37.8393360972" lon="-8.6202426720">
        <ele>132.32</ele>
        <time>2019-12-29T13:49:48Z</time>
      </trkpt>
      <trkpt lat="37.8393137176" lon="-8.6203388125">
        <ele>132.32</ele>
        <time>2019-12-29T13:49:56Z</time>
      </trkpt>
      <trkpt lat="37.8393774200" lon="-8.6205211189">
        <ele>130.88</ele>
        <time>2019-12-29T13:50:11Z</time>
      </trkpt>
      <trkpt lat="37.8393925913" lon="-8.6205697339">
        <ele>130.88</ele>
        <time>2019-12-29T13:50:15Z</time>
      </trkpt>
      <trkpt lat="37.8394433018" lon="-8.6206913553">
        <ele>129.43</ele>
        <time>2019-12-29T13:50:25Z</time>
      </trkpt>
      <trkpt lat="37.8395468183" lon="-8.6208589934">
        <ele>127.51</ele>
        <time>2019-12-29T13:50:40Z</time>
      </trkpt>
      <trkpt lat="37.8396649193" lon="-8.6209909245">
        <ele>125.59</ele>
        <time>2019-12-29T13:50:54Z</time>
      </trkpt>
      <trkpt lat="37.8396982793" lon="-8.6210418027">
        <ele>124.63</ele>
        <time>2019-12-29T13:50:59Z</time>
      </trkpt>
      <trkpt lat="37.8397746384" lon="-8.6211889889">
        <ele>123.19</ele>
        <time>2019-12-29T13:51:11Z</time>
      </trkpt>
      <trkpt lat="37.8398296237" lon="-8.6212008912">
        <ele>122.71</ele>
        <time>2019-12-29T13:51:16Z</time>
      </trkpt>
      <trkpt lat="37.8398517519" lon="-8.6211921740">
        <ele>122.71</ele>
        <time>2019-12-29T13:51:18Z</time>
      </trkpt>
      <trkpt lat="37.8398830164" lon="-8.6210887413">
        <ele>121.74</ele>
        <time>2019-12-29T13:51:26Z</time>
      </trkpt>
      <trkpt lat="37.8399414383" lon="-8.6209352687">
        <ele>119.82</ele>
        <time>2019-12-29T13:51:38Z</time>
      </trkpt>
      <trkpt lat="37.8399736248" lon="-8.6208760086">
        <ele>118.86</ele>
        <time>2019-12-29T13:51:52Z</time>
      </trkpt>
      <trkpt lat="37.8399736248" lon="-8.6208760086">
        <ele>118.86</ele>
        <time>2019-12-29T13:51:53Z</time>
      </trkpt>
      <trkpt lat="37.8399862815" lon="-8.6208517849">
        <ele>118.38</ele>
        <time>2019-12-29T13:51:56Z</time>
      </trkpt>
      <trkpt lat="37.8400186356" lon="-8.6208181735">
        <ele>118.38</ele>
        <time>2019-12-29T13:52:01Z</time>
      </trkpt>
      <trkpt lat="37.8400982637" lon="-8.6206822190">
        <ele>117.90</ele>
        <time>2019-12-29T13:52:14Z</time>
      </trkpt>
      <trkpt lat="37.8401338868" lon="-8.6206185166">
        <ele>118.38</ele>
        <time>2019-12-29T13:52:21Z</time>
      </trkpt>
      <trkpt lat="37.8401852679" lon="-8.6205761041">
        <ele>118.38</ele>
        <time>2019-12-29T13:52:28Z</time>
      </trkpt>
      <trkpt lat="37.8402810730" lon="-8.6205297522">
        <ele>118.38</ele>
        <time>2019-12-29T13:52:38Z</time>
      </trkpt>
      <trkpt lat="37.8404106572" lon="-8.6204533093">
        <ele>117.90</ele>
        <time>2019-12-29T13:52:52Z</time>
      </trkpt>
      <trkpt lat="37.8404656425" lon="-8.6204015091">
        <ele>117.90</ele>
        <time>2019-12-29T13:53:05Z</time>
      </trkpt>
      <trkpt lat="37.8405022714" lon="-8.6204112321">
        <ele>117.90</ele>
        <time>2019-12-29T13:53:26Z</time>
      </trkpt>
      <trkpt lat="37.8405534849" lon="-8.6203568336">
        <ele>117.90</ele>
        <time>2019-12-29T13:53:43Z</time>
      </trkpt>
      <trkpt lat="37.8406250663" lon="-8.6202994175">
        <ele>117.90</ele>
        <time>2019-12-29T13:53:55Z</time>
      </trkpt>
      <trkpt lat="37.8406588454" lon="-8.6202890240">
        <ele>117.90</ele>
        <time>2019-12-29T13:54:14Z</time>
      </trkpt>
      <trkpt lat="37.8406667244" lon="-8.6202823184">
        <ele>117.90</ele>
        <time>2019-12-29T13:54:15Z</time>
      </trkpt>
      <trkpt lat="37.8406837396" lon="-8.6202746909">
        <ele>117.90</ele>
        <time>2019-12-29T13:54:17Z</time>
      </trkpt>
      <trkpt lat="37.8407087177" lon="-8.6202577595">
        <ele>117.42</ele>
        <time>2019-12-29T13:54:20Z</time>
      </trkpt>
      <trkpt lat="37.8407450113" lon="-8.6202510539">
        <ele>117.90</ele>
        <time>2019-12-29T13:54:24Z</time>
      </trkpt>
      <trkpt lat="37.8408635315" lon="-8.6202186160">
        <ele>117.90</ele>
        <time>2019-12-29T13:54:37Z</time>
      </trkpt>
      <trkpt lat="37.8408888448" lon="-8.6202135868">
        <ele>117.90</ele>
        <time>2019-12-29T13:54:53Z</time>
      </trkpt>
      <trkpt lat="37.8410419822" lon="-8.6201587692">
        <ele>117.90</ele>
        <time>2019-12-29T13:55:08Z</time>
      </trkpt>
      <trkpt lat="37.8411123063" lon="-8.6201291811">
        <ele>117.90</ele>
        <time>2019-12-29T13:55:20Z</time>
      </trkpt>
      <trkpt lat="37.8411123063" lon="-8.6201291811">
        <ele>117.90</ele>
        <time>2019-12-29T13:55:25Z</time>
      </trkpt>
      <trkpt lat="37.8411289863" lon="-8.6201187037">
        <ele>117.90</ele>
        <time>2019-12-29T13:55:27Z</time>
      </trkpt>
      <trkpt lat="37.8411728237" lon="-8.6201041192">
        <ele>117.90</ele>
        <time>2019-12-29T13:55:31Z</time>
      </trkpt>
      <trkpt lat="37.8413174115" lon="-8.6200575158">
        <ele>117.90</ele>
        <time>2019-12-29T13:55:44Z</time>
      </trkpt>
      <trkpt lat="37.8414447326" lon="-8.6200050451">
        <ele>117.42</ele>
        <time>2019-12-29T13:55:57Z</time>
      </trkpt>
      <trkpt lat="37.8414680343" lon="-8.6199944001">
        <ele>117.90</ele>
        <time>2019-12-29T13:56:09Z</time>
      </trkpt>
      <trkpt lat="37.8414668608" lon="-8.6199985072">
        <ele>117.90</ele>
        <time>2019-12-29T13:56:31Z</time>
      </trkpt>
      <trkpt lat="37.8414668608" lon="-8.6199985072">
        <ele>117.42</ele>
        <time>2019-12-29T13:56:58Z</time>
      </trkpt>
      <trkpt lat="37.8414728958" lon="-8.6199919693">
        <ele>117.90</ele>
        <time>2019-12-29T13:57:06Z</time>
      </trkpt>
      <trkpt lat="37.8414993826" lon="-8.6199819110">
        <ele>117.90</ele>
        <time>2019-12-29T13:57:09Z</time>
      </trkpt>
      <trkpt lat="37.8416146338" lon="-8.6199420132">
        <ele>117.42</ele>
        <time>2019-12-29T13:57:20Z</time>
      </trkpt>
      <trkpt lat="37.8417097684" lon="-8.6199123412">
        <ele>117.90</ele>
        <time>2019-12-29T13:57:30Z</time>
      </trkpt>
      <trkpt lat="37.8417482413" lon="-8.6198973376">
        <ele>117.90</ele>
        <time>2019-12-29T13:57:34Z</time>
      </trkpt>
      <trkpt lat="37.8418209963" lon="-8.6198722757">
        <ele>117.90</ele>
        <time>2019-12-29T13:57:41Z</time>
      </trkpt>
      <trkpt lat="37.8419347387" lon="-8.6198257562">
        <ele>117.90</ele>
        <time>2019-12-29T13:57:52Z</time>
      </trkpt>
      <trkpt lat="37.8420312982" lon="-8.6197924800">
        <ele>117.42</ele>
        <time>2019-12-29T13:58:02Z</time>
      </trkpt>
      <trkpt lat="37.8421726171" lon="-8.6197295319">
        <ele>117.42</ele>
        <time>2019-12-29T13:58:13Z</time>
      </trkpt>
      <trkpt lat="37.8422359843" lon="-8.6196988542">
        <ele>117.42</ele>
        <time>2019-12-29T13:58:21Z</time>
      </trkpt>
      <trkpt lat="37.8423122596" lon="-8.6196772289">
        <ele>116.94</ele>
        <time>2019-12-29T13:58:29Z</time>
      </trkpt>
      <trkpt lat="37.8424185421" lon="-8.6196426116">
        <ele>117.42</ele>
        <time>2019-12-29T13:58:38Z</time>
      </trkpt>
      <trkpt lat="37.8425081447" lon="-8.6196169630">
        <ele>116.94</ele>
        <time>2019-12-29T13:58:45Z</time>
      </trkpt>
      <trkpt lat="37.8426083084" lon="-8.6195716169">
        <ele>116.94</ele>
        <time>2019-12-29T13:58:54Z</time>
      </trkpt>
      <trkpt lat="37.8426245693" lon="-8.6195529252">
        <ele>116.94</ele>
        <time>2019-12-29T13:58:56Z</time>
      </trkpt>
      <trkpt lat="37.8427139204" lon="-8.6195147038">
        <ele>117.42</ele>
        <time>2019-12-29T13:59:04Z</time>
      </trkpt>
      <trkpt lat="37.8427971527" lon="-8.6194986105">
        <ele>116.94</ele>
        <time>2019-12-29T13:59:11Z</time>
      </trkpt>
      <trkpt lat="37.8428245615" lon="-8.6194838583">
        <ele>116.94</ele>
        <time>2019-12-29T13:59:14Z</time>
      </trkpt>
      <trkpt lat="37.8428466897" lon="-8.6194698606">
        <ele>116.94</ele>
        <time>2019-12-29T13:59:16Z</time>
      </trkpt>
      <trkpt lat="37.8428782057" lon="-8.6194651667">
        <ele>116.94</ele>
        <time>2019-12-29T13:59:19Z</time>
      </trkpt>
      <trkpt lat="37.8429203667" lon="-8.6194472294">
        <ele>116.94</ele>
        <time>2019-12-29T13:59:22Z</time>
      </trkpt>
      <trkpt lat="37.8430626076" lon="-8.6194059066">
        <ele>117.42</ele>
        <time>2019-12-29T13:59:35Z</time>
      </trkpt>
      <trkpt lat="37.8432248812" lon="-8.6193510052">
        <ele>117.42</ele>
        <time>2019-12-29T13:59:50Z</time>
      </trkpt>
      <trkpt lat="37.8433975484" lon="-8.6192737240">
        <ele>116.94</ele>
        <time>2019-12-29T14:00:05Z</time>
      </trkpt>
      <trkpt lat="37.8435833752" lon="-8.6191964429">
        <ele>116.46</ele>
        <time>2019-12-29T14:00:22Z</time>
      </trkpt>
      <trkpt lat="37.8436126281" lon="-8.6191879772">
        <ele>116.46</ele>
        <time>2019-12-29T14:00:25Z</time>
      </trkpt>
      <trkpt lat="37.8437325731" lon="-8.6191462353">
        <ele>116.94</ele>
        <time>2019-12-29T14:00:37Z</time>
      </trkpt>
      <trkpt lat="37.8438078426" lon="-8.6191174015">
        <ele>116.94</ele>
        <time>2019-12-29T14:00:44Z</time>
      </trkpt>
      <trkpt lat="37.8439564537" lon="-8.6190622486">
        <ele>117.42</ele>
        <time>2019-12-29T14:00:58Z</time>
      </trkpt>
      <trkpt lat="37.8441212419" lon="-8.6190040782">
        <ele>117.42</ele>
        <time>2019-12-29T14:01:13Z</time>
      </trkpt>
      <trkpt lat="37.8442831803" lon="-8.6189430580">
        <ele>116.94</ele>
        <time>2019-12-29T14:01:27Z</time>
      </trkpt>
      <trkpt lat="37.8444542550" lon="-8.6188775953">
        <ele>117.42</ele>
        <time>2019-12-29T14:01:42Z</time>
      </trkpt>
      <trkpt lat="37.8445966635" lon="-8.6188335903">
        <ele>116.94</ele>
        <time>2019-12-29T14:01:54Z</time>
      </trkpt>
      <trkpt lat="37.8447811492" lon="-8.6187611707">
        <ele>116.94</ele>
        <time>2019-12-29T14:02:10Z</time>
      </trkpt>
      <trkpt lat="37.8448599391" lon="-8.6187269725">
        <ele>116.94</ele>
        <time>2019-12-29T14:02:17Z</time>
      </trkpt>
      <trkpt lat="37.8449328616" lon="-8.6187065206">
        <ele>116.94</ele>
        <time>2019-12-29T14:02:23Z</time>
      </trkpt>
      <trkpt lat="37.8450366296" lon="-8.6186651140">
        <ele>117.42</ele>
        <time>2019-12-29T14:02:33Z</time>
      </trkpt>
      <trkpt lat="37.8450684808" lon="-8.6186493561">
        <ele>116.94</ele>
        <time>2019-12-29T14:02:36Z</time>
      </trkpt>
      <trkpt lat="37.8451098874" lon="-8.6186340172">
        <ele>116.46</ele>
        <time>2019-12-29T14:02:40Z</time>
      </trkpt>
      <trkpt lat="37.8452757653" lon="-8.6185759306">
        <ele>116.94</ele>
        <time>2019-12-29T14:02:55Z</time>
      </trkpt>
      <trkpt lat="37.8454215266" lon="-8.6185184307">
        <ele>116.94</ele>
        <time>2019-12-29T14:03:08Z</time>
      </trkpt>
      <trkpt lat="37.8454441577" lon="-8.6185101327">
        <ele>116.94</ele>
        <time>2019-12-29T14:03:10Z</time>
      </trkpt>
      <trkpt lat="37.8456195071" lon="-8.6184442509">
        <ele>117.42</ele>
        <time>2019-12-29T14:03:26Z</time>
      </trkpt>
      <trkpt lat="37.8457682859" lon="-8.6183941271">
        <ele>116.94</ele>
        <time>2019-12-29T14:03:39Z</time>
      </trkpt>
      <trkpt lat="37.8459322359" lon="-8.6183287483">
        <ele>116.94</ele>
        <time>2019-12-29T14:03:54Z</time>
      </trkpt>
      <trkpt lat="37.8460882232" lon="-8.6182690691">
        <ele>116.46</ele>
        <time>2019-12-29T14:04:08Z</time>
      </trkpt>
      <trkpt lat="37.8462658357" lon="-8.6181967333">
        <ele>116.94</ele>
        <time>2019-12-29T14:04:22Z</time>
      </trkpt>
      <trkpt lat="37.8464118484" lon="-8.6181315221">
        <ele>116.94</ele>
        <time>2019-12-29T14:04:36Z</time>
      </trkpt>
      <trkpt lat="37.8465704340" lon="-8.6180876847">
        <ele>116.46</ele>
        <time>2019-12-29T14:04:50Z</time>
      </trkpt>
      <trkpt lat="37.8467081487" lon="-8.6180392373">
        <ele>117.42</ele>
        <time>2019-12-29T14:05:03Z</time>
      </trkpt>
      <trkpt lat="37.8467778023" lon="-8.6180117447">
        <ele>116.94</ele>
        <time>2019-12-29T14:05:10Z</time>
      </trkpt>
      <trkpt lat="37.8467896208" lon="-8.6180285923">
        <ele>116.94</ele>
        <time>2019-12-29T14:05:12Z</time>
      </trkpt>
      <trkpt lat="37.8467955720" lon="-8.6180659756">
        <ele>116.94</ele>
        <time>2019-12-29T14:05:15Z</time>
      </trkpt>
      <trkpt lat="37.8468172811" lon="-8.6181114055">
        <ele>116.94</ele>
        <time>2019-12-29T14:05:30Z</time>
      </trkpt>
      <trkpt lat="37.8468172811" lon="-8.6181114055">
        <ele>117.42</ele>
        <time>2019-12-29T14:05:31Z</time>
      </trkpt>
      <trkpt lat="37.8468329553" lon="-8.6181676481">
        <ele>116.46</ele>
        <time>2019-12-29T14:05:36Z</time>
      </trkpt>
      <trkpt lat="37.8468504734" lon="-8.6182434205">
        <ele>117.42</ele>
        <time>2019-12-29T14:05:41Z</time>
      </trkpt>
      <trkpt lat="37.8468800616" lon="-8.6183150019">
        <ele>117.90</ele>
        <time>2019-12-29T14:05:47Z</time>
      </trkpt>
      <trkpt lat="37.8468986694" lon="-8.6183538102">
        <ele>117.90</ele>
        <time>2019-12-29T14:05:50Z</time>
      </trkpt>
      <trkpt lat="37.8469158523" lon="-8.6183915287">
        <ele>117.90</ele>
        <time>2019-12-29T14:05:53Z</time>
      </trkpt>
      <trkpt lat="37.8469645511" lon="-8.6184728332">
        <ele>118.38</ele>
        <time>2019-12-29T14:06:02Z</time>
      </trkpt>
      <trkpt lat="37.8469583485" lon="-8.6185617652">
        <ele>117.90</ele>
        <time>2019-12-29T14:06:09Z</time>
      </trkpt>
      <trkpt lat="37.8469941393" lon="-8.6186279822">
        <ele>118.38</ele>
        <time>2019-12-29T14:06:15Z</time>
      </trkpt>
      <trkpt lat="37.8470114898" lon="-8.6186580732">
        <ele>117.90</ele>
        <time>2019-12-29T14:06:18Z</time>
      </trkpt>
      <trkpt lat="37.8470427543" lon="-8.6187988054">
        <ele>118.38</ele>
        <time>2019-12-29T14:06:29Z</time>
      </trkpt>
      <trkpt lat="37.8470887709" lon="-8.6188863963">
        <ele>117.90</ele>
        <time>2019-12-29T14:06:36Z</time>
      </trkpt>
      <trkpt lat="37.8471067082" lon="-8.6189297307">
        <ele>118.86</ele>
        <time>2019-12-29T14:06:40Z</time>
      </trkpt>
      <trkpt lat="37.8471181076" lon="-8.6189714726">
        <ele>118.86</ele>
        <time>2019-12-29T14:06:43Z</time>
      </trkpt>
      <trkpt lat="37.8471289203" lon="-8.6190175731">
        <ele>118.86</ele>
        <time>2019-12-29T14:06:46Z</time>
      </trkpt>
      <trkpt lat="37.8471761104" lon="-8.6191849597">
        <ele>119.34</ele>
        <time>2019-12-29T14:06:58Z</time>
      </trkpt>
      <trkpt lat="37.8472212888" lon="-8.6193310563">
        <ele>118.86</ele>
        <time>2019-12-29T14:07:08Z</time>
      </trkpt>
      <trkpt lat="37.8472248092" lon="-8.6193643324">
        <ele>119.34</ele>
        <time>2019-12-29T14:07:10Z</time>
      </trkpt>
      <trkpt lat="37.8472461831" lon="-8.6194178928">
        <ele>119.34</ele>
        <time>2019-12-29T14:07:13Z</time>
      </trkpt>
      <trkpt lat="37.8472674731" lon="-8.6194927432">
        <ele>119.34</ele>
        <time>2019-12-29T14:07:18Z</time>
      </trkpt>
      <trkpt lat="37.8472879250" lon="-8.6195295397">
        <ele>119.82</ele>
        <time>2019-12-29T14:07:21Z</time>
      </trkpt>
      <trkpt lat="37.8473269008" lon="-8.6196160410">
        <ele>119.34</ele>
        <time>2019-12-29T14:07:27Z</time>
      </trkpt>
      <trkpt lat="37.8473616019" lon="-8.6197634786">
        <ele>119.34</ele>
        <time>2019-12-29T14:07:37Z</time>
      </trkpt>
      <trkpt lat="37.8474065289" lon="-8.6199773848">
        <ele>118.86</ele>
        <time>2019-12-29T14:07:52Z</time>
      </trkpt>
      <trkpt lat="37.8474237118" lon="-8.6200318672">
        <ele>118.86</ele>
        <time>2019-12-29T14:07:56Z</time>
      </trkpt>
      <trkpt lat="37.8474563174" lon="-8.6200940609">
        <ele>118.86</ele>
        <time>2019-12-29T14:08:00Z</time>
      </trkpt>
      <trkpt lat="37.8474892583" lon="-8.6201207153">
        <ele>119.34</ele>
        <time>2019-12-29T14:08:03Z</time>
      </trkpt>
      <trkpt lat="37.8475227021" lon="-8.6201790534">
        <ele>119.34</ele>
        <time>2019-12-29T14:08:08Z</time>
      </trkpt>
      <trkpt lat="37.8475942835" lon="-8.6202429235">
        <ele>119.34</ele>
        <time>2019-12-29T14:08:15Z</time>
      </trkpt>
      <trkpt lat="37.8476657812" lon="-8.6202948913">
        <ele>120.30</ele>
        <time>2019-12-29T14:08:22Z</time>
      </trkpt>
      <trkpt lat="37.8477800265" lon="-8.6203173548">
        <ele>120.30</ele>
        <time>2019-12-29T14:08:32Z</time>
      </trkpt>
      <trkpt lat="37.8478940204" lon="-8.6203331128">
        <ele>119.82</ele>
        <time>2019-12-29T14:08:42Z</time>
      </trkpt>
      <trkpt lat="37.8480346687" lon="-8.6204230506">
        <ele>118.86</ele>
        <time>2019-12-29T14:08:56Z</time>
      </trkpt>
      <trkpt lat="37.8480748180" lon="-8.6204310134">
        <ele>119.34</ele>
        <time>2019-12-29T14:08:59Z</time>
      </trkpt>
      <trkpt lat="37.8481388558" lon="-8.6204312649">
        <ele>118.38</ele>
        <time>2019-12-29T14:09:04Z</time>
      </trkpt>
      <trkpt lat="37.8482848685" lon="-8.6204624455">
        <ele>117.90</ele>
        <time>2019-12-29T14:09:16Z</time>
      </trkpt>
      <trkpt lat="37.8483292088" lon="-8.6204720847">
        <ele>117.42</ele>
        <time>2019-12-29T14:09:20Z</time>
      </trkpt>
      <trkpt lat="37.8483888041" lon="-8.6204886809">
        <ele>117.90</ele>
        <time>2019-12-29T14:09:25Z</time>
      </trkpt>
      <trkpt lat="37.8484716173" lon="-8.6205191910">
        <ele>118.38</ele>
        <time>2019-12-29T14:09:33Z</time>
      </trkpt>
      <trkpt lat="37.8486007825" lon="-8.6205824744">
        <ele>117.42</ele>
        <time>2019-12-29T14:09:45Z</time>
      </trkpt>
      <trkpt lat="37.8487141058" lon="-8.6206793692">
        <ele>115.98</ele>
        <time>2019-12-29T14:09:58Z</time>
      </trkpt>
      <trkpt lat="37.8487681691" lon="-8.6207062751">
        <ele>116.46</ele>
        <time>2019-12-29T14:10:06Z</time>
      </trkpt>
      <trkpt lat="37.8488178737" lon="-8.6207172554">
        <ele>116.46</ele>
        <time>2019-12-29T14:10:11Z</time>
      </trkpt>
      <trkpt lat="37.8489322867" lon="-8.6207427364">
        <ele>117.42</ele>
        <time>2019-12-29T14:10:22Z</time>
      </trkpt>
      <trkpt lat="37.8489750344" lon="-8.6207547225">
        <ele>117.90</ele>
        <time>2019-12-29T14:10:26Z</time>
      </trkpt>
      <trkpt lat="37.8489952348" lon="-8.6207580753">
        <ele>118.38</ele>
        <time>2019-12-29T14:10:28Z</time>
      </trkpt>
      <trkpt lat="37.8490992542" lon="-8.6207766831">
        <ele>118.86</ele>
        <time>2019-12-29T14:10:37Z</time>
      </trkpt>
      <trkpt lat="37.8491641302" lon="-8.6207921058">
        <ele>119.82</ele>
        <time>2019-12-29T14:10:43Z</time>
      </trkpt>
      <trkpt lat="37.8492186125" lon="-8.6208050977">
        <ele>120.30</ele>
        <time>2019-12-29T14:10:48Z</time>
      </trkpt>
      <trkpt lat="37.8492556605" lon="-8.6207927763">
        <ele>120.78</ele>
        <time>2019-12-29T14:10:51Z</time>
      </trkpt>
      <trkpt lat="37.8493357077" lon="-8.6208012421">
        <ele>121.26</ele>
        <time>2019-12-29T14:10:58Z</time>
      </trkpt>
      <trkpt lat="37.8493564948" lon="-8.6208132282">
        <ele>121.26</ele>
        <time>2019-12-29T14:11:00Z</time>
      </trkpt>
      <trkpt lat="37.8494024277" lon="-8.6208088696">
        <ele>121.74</ele>
        <time>2019-12-29T14:11:04Z</time>
      </trkpt>
      <trkpt lat="37.8494296689" lon="-8.6208206043">
        <ele>122.22</ele>
        <time>2019-12-29T14:11:06Z</time>
      </trkpt>
      <trkpt lat="37.8494749311" lon="-8.6208367813">
        <ele>122.22</ele>
        <time>2019-12-29T14:11:10Z</time>
      </trkpt>
      <trkpt lat="37.8495779447" lon="-8.6208746675">
        <ele>123.67</ele>
        <time>2019-12-29T14:11:20Z</time>
      </trkpt>
      <trkpt lat="37.8495991509" lon="-8.6208926048">
        <ele>123.67</ele>
        <time>2019-12-29T14:11:22Z</time>
      </trkpt>
      <trkpt lat="37.8496209439" lon="-8.6209044233">
        <ele>124.15</ele>
        <time>2019-12-29T14:11:24Z</time>
      </trkpt>
      <trkpt lat="37.8497087862" lon="-8.6209306587">
        <ele>124.15</ele>
        <time>2019-12-29T14:11:31Z</time>
      </trkpt>
      <trkpt lat="37.8498107940" lon="-8.6209598277">
        <ele>124.63</ele>
        <time>2019-12-29T14:11:41Z</time>
      </trkpt>
      <trkpt lat="37.8498468362" lon="-8.6209788546">
        <ele>125.11</ele>
        <time>2019-12-29T14:11:44Z</time>
      </trkpt>
      <trkpt lat="37.8498962894" lon="-8.6209893320">
        <ele>125.11</ele>
        <time>2019-12-29T14:11:48Z</time>
      </trkpt>
      <trkpt lat="37.8499226086" lon="-8.6210011505">
        <ele>125.59</ele>
        <time>2019-12-29T14:11:50Z</time>
      </trkpt>
      <trkpt lat="37.8500534501" lon="-8.6210543755">
        <ele>126.07</ele>
        <time>2019-12-29T14:12:01Z</time>
      </trkpt>
      <trkpt lat="37.8501032386" lon="-8.6210692953">
        <ele>126.07</ele>
        <time>2019-12-29T14:12:05Z</time>
      </trkpt>
      <trkpt lat="37.8501748201" lon="-8.6210881546">
        <ele>126.07</ele>
        <time>2019-12-29T14:12:11Z</time>
      </trkpt>
      <trkpt lat="37.8502370976" lon="-8.6210908368">
        <ele>126.55</ele>
        <time>2019-12-29T14:12:16Z</time>
      </trkpt>
      <trkpt lat="37.8502559569" lon="-8.6210973747">
        <ele>126.55</ele>
        <time>2019-12-29T14:12:18Z</time>
      </trkpt>
      <trkpt lat="37.8503149655" lon="-8.6211059242">
        <ele>126.55</ele>
        <time>2019-12-29T14:12:23Z</time>
      </trkpt>
      <trkpt lat="37.8503475711" lon="-8.6211193353">
        <ele>126.55</ele>
        <time>2019-12-29T14:12:26Z</time>
      </trkpt>
      <trkpt lat="37.8503676876" lon="-8.6211270466">
        <ele>126.55</ele>
        <time>2019-12-29T14:12:28Z</time>
      </trkpt>
      <trkpt lat="37.8503881395" lon="-8.6211436428">
        <ele>126.07</ele>
        <time>2019-12-29T14:12:30Z</time>
      </trkpt>
      <trkpt lat="37.8505231719" lon="-8.6211538687">
        <ele>127.03</ele>
        <time>2019-12-29T14:12:41Z</time>
      </trkpt>
      <trkpt lat="37.8506519180" lon="-8.6211682856">
        <ele>127.03</ele>
        <time>2019-12-29T14:12:52Z</time>
      </trkpt>
      <trkpt lat="37.8507854417" lon="-8.6211493425">
        <ele>127.51</ele>
        <time>2019-12-29T14:13:03Z</time>
      </trkpt>
      <trkpt lat="37.8509099130" lon="-8.6211632565">
        <ele>127.99</ele>
        <time>2019-12-29T14:13:15Z</time>
      </trkpt>
      <trkpt lat="37.8510410059" lon="-8.6211768351">
        <ele>128.47</ele>
        <time>2019-12-29T14:13:26Z</time>
      </trkpt>
      <trkpt lat="37.8511867672" lon="-8.6212026514">
        <ele>128.47</ele>
        <time>2019-12-29T14:13:38Z</time>
      </trkpt>
      <trkpt lat="37.8512812313" lon="-8.6212076806">
        <ele>128.95</ele>
        <time>2019-12-29T14:13:46Z</time>
      </trkpt>
      <trkpt lat="37.8513425868" lon="-8.6212215107">
        <ele>128.95</ele>
        <time>2019-12-29T14:13:51Z</time>
      </trkpt>
      <trkpt lat="37.8515036870" lon="-8.6212268751">
        <ele>128.95</ele>
        <time>2019-12-29T14:14:04Z</time>
      </trkpt>
      <trkpt lat="37.8515529726" lon="-8.6212434713">
        <ele>128.95</ele>
        <time>2019-12-29T14:14:08Z</time>
      </trkpt>
      <trkpt lat="37.8516878374" lon="-8.6212837044">
        <ele>128.95</ele>
        <time>2019-12-29T14:14:20Z</time>
      </trkpt>
      <trkpt lat="37.8517569043" lon="-8.6212906614">
        <ele>128.95</ele>
        <time>2019-12-29T14:14:26Z</time>
      </trkpt>
      <trkpt lat="37.8517803736" lon="-8.6212931760">
        <ele>128.95</ele>
        <time>2019-12-29T14:14:28Z</time>
      </trkpt>
      <trkpt lat="37.8518226184" lon="-8.6212997977">
        <ele>129.43</ele>
        <time>2019-12-29T14:14:32Z</time>
      </trkpt>
      <trkpt lat="37.8519715648" lon="-8.6213023961">
        <ele>128.95</ele>
        <time>2019-12-29T14:14:44Z</time>
      </trkpt>
      <trkpt lat="37.8520845529" lon="-8.6213080119">
        <ele>128.95</ele>
        <time>2019-12-29T14:14:53Z</time>
      </trkpt>
      <trkpt lat="37.8521758318" lon="-8.6213346664">
        <ele>128.47</ele>
        <time>2019-12-29T14:15:01Z</time>
      </trkpt>
      <trkpt lat="37.8522219323" lon="-8.6213347502">
        <ele>127.99</ele>
        <time>2019-12-29T14:15:05Z</time>
      </trkpt>
      <trkpt lat="37.8523772489" lon="-8.6213260330">
        <ele>126.55</ele>
        <time>2019-12-29T14:15:18Z</time>
      </trkpt>
      <trkpt lat="37.8524457291" lon="-8.6213515978">
        <ele>125.59</ele>
        <time>2019-12-29T14:15:24Z</time>
      </trkpt>
      <trkpt lat="37.8526026383" lon="-8.6213706248">
        <ele>125.59</ele>
        <time>2019-12-29T14:15:37Z</time>
      </trkpt>
      <trkpt lat="37.8526619822" lon="-8.6213866342">
        <ele>125.59</ele>
        <time>2019-12-29T14:15:42Z</time>
      </trkpt>
      <trkpt lat="37.8527090047" lon="-8.6213973630">
        <ele>125.59</ele>
        <time>2019-12-29T14:15:46Z</time>
      </trkpt>
      <trkpt lat="37.8527314682" lon="-8.6214044876">
        <ele>126.07</ele>
        <time>2019-12-29T14:15:48Z</time>
      </trkpt>
      <trkpt lat="37.8528032172" lon="-8.6214039009">
        <ele>127.03</ele>
        <time>2019-12-29T14:15:55Z</time>
      </trkpt>
      <trkpt lat="37.8528312966" lon="-8.6214142945">
        <ele>127.51</ele>
        <time>2019-12-29T14:15:58Z</time>
      </trkpt>
      <trkpt lat="37.8529434465" lon="-8.6214480735">
        <ele>127.03</ele>
        <time>2019-12-29T14:16:08Z</time>
      </trkpt>
      <trkpt lat="37.8529685922" lon="-8.6214593053">
        <ele>126.55</ele>
        <time>2019-12-29T14:16:10Z</time>
      </trkpt>
      <trkpt lat="37.8530140221" lon="-8.6214733869">
        <ele>127.03</ele>
        <time>2019-12-29T14:16:14Z</time>
      </trkpt>
      <trkpt lat="37.8530342225" lon="-8.6214849539">
        <ele>127.03</ele>
        <time>2019-12-29T14:16:16Z</time>
      </trkpt>
      <trkpt lat="37.8530566022" lon="-8.6214867141">
        <ele>127.51</ele>
        <time>2019-12-29T14:16:18Z</time>
      </trkpt>
      <trkpt lat="37.8530811612" lon="-8.6214838643">
        <ele>127.99</ele>
        <time>2019-12-29T14:16:20Z</time>
      </trkpt>
      <trkpt lat="37.8531260882" lon="-8.6214710400">
        <ele>127.99</ele>
        <time>2019-12-29T14:16:24Z</time>
      </trkpt>
      <trkpt lat="37.8531493060" lon="-8.6214789189">
        <ele>128.47</ele>
        <time>2019-12-29T14:16:26Z</time>
      </trkpt>
      <trkpt lat="37.8532960732" lon="-8.6214997061">
        <ele>129.43</ele>
        <time>2019-12-29T14:16:38Z</time>
      </trkpt>
      <trkpt lat="37.8533595242" lon="-8.6215177272">
        <ele>129.43</ele>
        <time>2019-12-29T14:16:43Z</time>
      </trkpt>
      <trkpt lat="37.8534684889" lon="-8.6215302162">
        <ele>129.43</ele>
        <time>2019-12-29T14:16:52Z</time>
      </trkpt>
      <trkpt lat="37.8535090573" lon="-8.6215598881">
        <ele>129.43</ele>
        <time>2019-12-29T14:16:56Z</time>
      </trkpt>
      <trkpt lat="37.8536471073" lon="-8.6215622351">
        <ele>129.43</ele>
        <time>2019-12-29T14:17:08Z</time>
      </trkpt>
      <trkpt lat="37.8536928724" lon="-8.6215728801">
        <ele>129.43</ele>
        <time>2019-12-29T14:17:12Z</time>
      </trkpt>
      <trkpt lat="37.8537157550" lon="-8.6215784121">
        <ele>128.95</ele>
        <time>2019-12-29T14:17:15Z</time>
      </trkpt>
      <trkpt lat="37.8538736701" lon="-8.6216307990">
        <ele>127.99</ele>
        <time>2019-12-29T14:17:28Z</time>
      </trkpt>
      <trkpt lat="37.8539091256" lon="-8.6216364149">
        <ele>128.47</ele>
        <time>2019-12-29T14:17:31Z</time>
      </trkpt>
      <trkpt lat="37.8539300803" lon="-8.6216440424">
        <ele>127.99</ele>
        <time>2019-12-29T14:17:33Z</time>
      </trkpt>
      <trkpt lat="37.8540165816" lon="-8.6216363311">
        <ele>128.95</ele>
        <time>2019-12-29T14:17:40Z</time>
      </trkpt>
      <trkpt lat="37.8540405538" lon="-8.6216427013">
        <ele>129.43</ele>
        <time>2019-12-29T14:17:42Z</time>
      </trkpt>
      <trkpt lat="37.8541531228" lon="-8.6216474790">
        <ele>129.43</ele>
        <time>2019-12-29T14:17:52Z</time>
      </trkpt>
      <trkpt lat="37.8541863989" lon="-8.6216479819">
        <ele>129.43</ele>
        <time>2019-12-29T14:17:55Z</time>
      </trkpt>
      <trkpt lat="37.8542473353" lon="-8.6216473114">
        <ele>129.43</ele>
        <time>2019-12-29T14:18:00Z</time>
      </trkpt>
      <trkpt lat="37.8543767519" lon="-8.6216936633">
        <ele>129.92</ele>
        <time>2019-12-29T14:18:11Z</time>
      </trkpt>
      <trkpt lat="37.8544128779" lon="-8.6217012908">
        <ele>129.43</ele>
        <time>2019-12-29T14:18:14Z</time>
      </trkpt>
      <trkpt lat="37.8544526920" lon="-8.6217351537">
        <ele>129.92</ele>
        <time>2019-12-29T14:18:18Z</time>
      </trkpt>
      <trkpt lat="37.8545177355" lon="-8.6217658315">
        <ele>130.40</ele>
        <time>2019-12-29T14:18:24Z</time>
      </trkpt>
      <trkpt lat="37.8545806836" lon="-8.6217602994">
        <ele>131.36</ele>
        <time>2019-12-29T14:18:30Z</time>
      </trkpt>
      <trkpt lat="37.8545992076" lon="-8.6217610538">
        <ele>131.84</ele>
        <time>2019-12-29T14:18:32Z</time>
      </trkpt>
      <trkpt lat="37.8547494113" lon="-8.6216921546">
        <ele>131.36</ele>
        <time>2019-12-29T14:18:46Z</time>
      </trkpt>
      <trkpt lat="37.8548001219" lon="-8.6216204893">
        <ele>130.88</ele>
        <time>2019-12-29T14:18:52Z</time>
      </trkpt>
      <trkpt lat="37.8548219986" lon="-8.6215925775">
        <ele>130.40</ele>
        <time>2019-12-29T14:18:54Z</time>
      </trkpt>
      <trkpt lat="37.8548673447" lon="-8.6215234268">
        <ele>130.40</ele>
        <time>2019-12-29T14:19:00Z</time>
      </trkpt>
      <trkpt lat="37.8548946697" lon="-8.6214836966">
        <ele>130.40</ele>
        <time>2019-12-29T14:19:04Z</time>
      </trkpt>
      <trkpt lat="37.8549098410" lon="-8.6214650888">
        <ele>129.92</ele>
        <time>2019-12-29T14:19:06Z</time>
      </trkpt>
      <trkpt lat="37.8549696878" lon="-8.6214381829">
        <ele>130.40</ele>
        <time>2019-12-29T14:19:11Z</time>
      </trkpt>
      <trkpt lat="37.8550165426" lon="-8.6214098521">
        <ele>130.88</ele>
        <time>2019-12-29T14:19:15Z</time>
      </trkpt>
      <trkpt lat="37.8551830072" lon="-8.6213194951">
        <ele>131.36</ele>
        <time>2019-12-29T14:19:29Z</time>
      </trkpt>
      <trkpt lat="37.8552139364" lon="-8.6213109456">
        <ele>131.84</ele>
        <time>2019-12-29T14:19:32Z</time>
      </trkpt>
      <trkpt lat="37.8552832548" lon="-8.6212864704">
        <ele>132.32</ele>
        <time>2019-12-29T14:19:38Z</time>
      </trkpt>
      <trkpt lat="37.8553166986" lon="-8.6212736461">
        <ele>133.28</ele>
        <time>2019-12-29T14:19:41Z</time>
      </trkpt>
      <trkpt lat="37.8553511482" lon="-8.6212797649">
        <ele>133.76</ele>
        <time>2019-12-29T14:19:44Z</time>
      </trkpt>
      <trkpt lat="37.8554490488" lon="-8.6212867219">
        <ele>134.24</ele>
        <time>2019-12-29T14:19:52Z</time>
      </trkpt>
      <trkpt lat="37.8554707579" lon="-8.6212986242">
        <ele>134.24</ele>
        <time>2019-12-29T14:19:54Z</time>
      </trkpt>
      <trkpt lat="37.8555389866" lon="-8.6212995462">
        <ele>134.72</ele>
        <time>2019-12-29T14:20:00Z</time>
      </trkpt>
      <trkpt lat="37.8555715922" lon="-8.6213027313">
        <ele>135.20</ele>
        <time>2019-12-29T14:20:03Z</time>
      </trkpt>
      <trkpt lat="37.8556776233" lon="-8.6212940142">
        <ele>135.68</ele>
        <time>2019-12-29T14:20:12Z</time>
      </trkpt>
      <trkpt lat="37.8557053674" lon="-8.6212921701">
        <ele>136.16</ele>
        <time>2019-12-29T14:20:19Z</time>
      </trkpt>
      <trkpt lat="37.8558156732" lon="-8.6212797649">
        <ele>136.16</ele>
        <time>2019-12-29T14:20:29Z</time>
      </trkpt>
      <trkpt lat="37.8560259752" lon="-8.6212572176">
        <ele>135.20</ele>
        <time>2019-12-29T14:20:46Z</time>
      </trkpt>
      <trkpt lat="37.8562432341" lon="-8.6212698743">
        <ele>135.20</ele>
        <time>2019-12-29T14:21:03Z</time>
      </trkpt>
      <trkpt lat="37.8562696371" lon="-8.6212767474">
        <ele>135.20</ele>
        <time>2019-12-29T14:21:06Z</time>
      </trkpt>
      <trkpt lat="37.8563269693" lon="-8.6212842911">
        <ele>134.72</ele>
        <time>2019-12-29T14:21:11Z</time>
      </trkpt>
      <trkpt lat="37.8563770093" lon="-8.6212835368">
        <ele>134.72</ele>
        <time>2019-12-29T14:21:15Z</time>
      </trkpt>
      <trkpt lat="37.8565152269" lon="-8.6213302240">
        <ele>134.72</ele>
        <time>2019-12-29T14:21:27Z</time>
      </trkpt>
      <trkpt lat="37.8566261195" lon="-8.6212711316">
        <ele>134.72</ele>
        <time>2019-12-29T14:21:38Z</time>
      </trkpt>
      <trkpt lat="37.8567460645" lon="-8.6211392842">
        <ele>135.20</ele>
        <time>2019-12-29T14:21:51Z</time>
      </trkpt>
      <trkpt lat="37.8568924963" lon="-8.6210194230">
        <ele>135.20</ele>
        <time>2019-12-29T14:22:05Z</time>
      </trkpt>
      <trkpt lat="37.8569310531" lon="-8.6209843028">
        <ele>135.20</ele>
        <time>2019-12-29T14:22:09Z</time>
      </trkpt>
      <trkpt lat="37.8569550253" lon="-8.6209716462">
        <ele>135.68</ele>
        <time>2019-12-29T14:22:11Z</time>
      </trkpt>
      <trkpt lat="37.8570546862" lon="-8.6209032498">
        <ele>135.68</ele>
        <time>2019-12-29T14:22:20Z</time>
      </trkpt>
      <trkpt lat="37.8570677619" lon="-8.6208842229">
        <ele>135.20</ele>
        <time>2019-12-29T14:22:22Z</time>
      </trkpt>
      <trkpt lat="37.8570942488" lon="-8.6208590772">
        <ele>135.20</ele>
        <time>2019-12-29T14:22:25Z</time>
      </trkpt>
      <trkpt lat="37.8572347295" lon="-8.6207541358">
        <ele>134.24</ele>
        <time>2019-12-29T14:22:39Z</time>
      </trkpt>
      <trkpt lat="37.8574021999" lon="-8.6206979770">
        <ele>134.24</ele>
        <time>2019-12-29T14:22:52Z</time>
      </trkpt>
      <trkpt lat="37.8574762959" lon="-8.6206581630">
        <ele>133.76</ele>
        <time>2019-12-29T14:22:58Z</time>
      </trkpt>
      <trkpt lat="37.8575943131" lon="-8.6206087936">
        <ele>133.76</ele>
        <time>2019-12-29T14:23:08Z</time>
      </trkpt>
      <trkpt lat="37.8576151002" lon="-8.6206048541">
        <ele>133.76</ele>
        <time>2019-12-29T14:23:10Z</time>
      </trkpt>
      <trkpt lat="37.8576620389" lon="-8.6205998249">
        <ele>133.76</ele>
        <time>2019-12-29T14:23:14Z</time>
      </trkpt>
      <trkpt lat="37.8577363025" lon="-8.6205670517">
        <ele>133.76</ele>
        <time>2019-12-29T14:23:22Z</time>
      </trkpt>
      <trkpt lat="37.8577814810" lon="-8.6205393076">
        <ele>134.24</ele>
        <time>2019-12-29T14:23:29Z</time>
      </trkpt>
      <trkpt lat="37.8578015137" lon="-8.6205071211">
        <ele>134.24</ele>
        <time>2019-12-29T14:23:32Z</time>
      </trkpt>
      <trkpt lat="37.8578300960" lon="-8.6204784550">
        <ele>134.72</ele>
        <time>2019-12-29T14:23:35Z</time>
      </trkpt>
      <trkpt lat="37.8579648770" lon="-8.6203678139">
        <ele>134.72</ele>
        <time>2019-12-29T14:23:48Z</time>
      </trkpt>
      <trkpt lat="37.8580783680" lon="-8.6203156784">
        <ele>134.72</ele>
        <time>2019-12-29T14:23:57Z</time>
      </trkpt>
      <trkpt lat="37.8582085390" lon="-8.6202579271">
        <ele>134.72</ele>
        <time>2019-12-29T14:24:08Z</time>
      </trkpt>
      <trkpt lat="37.8583147377" lon="-8.6202252377">
        <ele>135.20</ele>
        <time>2019-12-29T14:24:17Z</time>
      </trkpt>
      <trkpt lat="37.8584587388" lon="-8.6201834120">
        <ele>134.72</ele>
        <time>2019-12-29T14:24:29Z</time>
      </trkpt>
      <trkpt lat="37.8586131334" lon="-8.6201101542">
        <ele>135.68</ele>
        <time>2019-12-29T14:24:42Z</time>
      </trkpt>
      <trkpt lat="37.8586608265" lon="-8.6200933065">
        <ele>135.20</ele>
        <time>2019-12-29T14:24:46Z</time>
      </trkpt>
      <trkpt lat="37.8588367626" lon="-8.6200072244">
        <ele>134.72</ele>
        <time>2019-12-29T14:25:00Z</time>
      </trkpt>
      <trkpt lat="37.8589890618" lon="-8.6199497245">
        <ele>135.20</ele>
        <time>2019-12-29T14:25:13Z</time>
      </trkpt>
      <trkpt lat="37.8590285406" lon="-8.6199399177">
        <ele>134.72</ele>
        <time>2019-12-29T14:25:16Z</time>
      </trkpt>
      <trkpt lat="37.8590543568" lon="-8.6199385766">
        <ele>134.72</ele>
        <time>2019-12-29T14:25:18Z</time>
      </trkpt>
      <trkpt lat="37.8590905666" lon="-8.6199083179">
        <ele>135.20</ele>
        <time>2019-12-29T14:25:24Z</time>
      </trkpt>
      <trkpt lat="37.8591087554" lon="-8.6198997684">
        <ele>134.72</ele>
        <time>2019-12-29T14:25:26Z</time>
      </trkpt>
      <trkpt lat="37.8591614775" lon="-8.6198918056">
        <ele>134.72</ele>
        <time>2019-12-29T14:25:30Z</time>
      </trkpt>
      <trkpt lat="37.8592573665" lon="-8.6198455375">
        <ele>134.72</ele>
        <time>2019-12-29T14:25:38Z</time>
      </trkpt>
      <trkpt lat="37.8592839371" lon="-8.6198356468">
        <ele>134.72</ele>
        <time>2019-12-29T14:25:40Z</time>
      </trkpt>
      <trkpt lat="37.8593676724" lon="-8.6198033765">
        <ele>134.72</ele>
        <time>2019-12-29T14:25:47Z</time>
      </trkpt>
      <trkpt lat="37.8595395014" lon="-8.6197393388">
        <ele>134.72</ele>
        <time>2019-12-29T14:26:00Z</time>
      </trkpt>
      <trkpt lat="37.8596731927" lon="-8.6196842697">
        <ele>134.72</ele>
        <time>2019-12-29T14:26:11Z</time>
      </trkpt>
      <trkpt lat="37.8598502185" lon="-8.6196188070">
        <ele>134.72</ele>
        <time>2019-12-29T14:26:26Z</time>
      </trkpt>
      <trkpt lat="37.8600074630" lon="-8.6195479799">
        <ele>134.24</ele>
        <time>2019-12-29T14:26:38Z</time>
      </trkpt>
      <trkpt lat="37.8601770289" lon="-8.6194862053">
        <ele>134.24</ele>
        <time>2019-12-29T14:26:52Z</time>
      </trkpt>
      <trkpt lat="37.8602286614" lon="-8.6194655020">
        <ele>134.24</ele>
        <time>2019-12-29T14:26:56Z</time>
      </trkpt>
      <trkpt lat="37.8603834752" lon="-8.6193982791">
        <ele>134.72</ele>
        <time>2019-12-29T14:27:09Z</time>
      </trkpt>
      <trkpt lat="37.8604727425" lon="-8.6193704512">
        <ele>134.72</ele>
        <time>2019-12-29T14:27:16Z</time>
      </trkpt>
      <trkpt lat="37.8605140653" lon="-8.6193401925">
        <ele>134.72</ele>
        <time>2019-12-29T14:27:20Z</time>
      </trkpt>
      <trkpt lat="37.8605776001" lon="-8.6193201598">
        <ele>134.72</ele>
        <time>2019-12-29T14:27:25Z</time>
      </trkpt>
      <trkpt lat="37.8606615029" lon="-8.6192766577">
        <ele>134.72</ele>
        <time>2019-12-29T14:27:33Z</time>
      </trkpt>
      <trkpt lat="37.8606998082" lon="-8.6192648392">
        <ele>134.72</ele>
        <time>2019-12-29T14:27:36Z</time>
      </trkpt>
      <trkpt lat="37.8608694579" lon="-8.6191950180">
        <ele>134.72</ele>
        <time>2019-12-29T14:27:50Z</time>
      </trkpt>
      <trkpt lat="37.8610282950" lon="-8.6191329919">
        <ele>134.72</ele>
        <time>2019-12-29T14:28:04Z</time>
      </trkpt>
      <trkpt lat="37.8610624094" lon="-8.6191210058">
        <ele>134.72</ele>
        <time>2019-12-29T14:28:07Z</time>
      </trkpt>
      <trkpt lat="37.8611064143" lon="-8.6190913338">
        <ele>134.72</ele>
        <time>2019-12-29T14:28:11Z</time>
      </trkpt>
      <trkpt lat="37.8612718731" lon="-8.6190228537">
        <ele>135.20</ele>
        <time>2019-12-29T14:28:25Z</time>
      </trkpt>
      <trkpt lat="37.8614889644" lon="-8.6189311557">
        <ele>134.72</ele>
        <time>2019-12-29T14:28:40Z</time>
      </trkpt>
      <trkpt lat="37.8616468795" lon="-8.6188837141">
        <ele>135.20</ele>
        <time>2019-12-29T14:28:53Z</time>
      </trkpt>
      <trkpt lat="37.8617172875" lon="-8.6188450735">
        <ele>135.20</ele>
        <time>2019-12-29T14:29:00Z</time>
      </trkpt>
      <trkpt lat="37.8618130926" lon="-8.6188130546">
        <ele>135.20</ele>
        <time>2019-12-29T14:29:08Z</time>
      </trkpt>
      <trkpt lat="37.8619930521" lon="-8.6187391263">
        <ele>135.20</ele>
        <time>2019-12-29T14:29:23Z</time>
      </trkpt>
      <trkpt lat="37.8621731792" lon="-8.6186666228">
        <ele>135.68</ele>
        <time>2019-12-29T14:29:38Z</time>
      </trkpt>
      <trkpt lat="37.8623399790" lon="-8.6185994837">
        <ele>135.68</ele>
        <time>2019-12-29T14:29:52Z</time>
      </trkpt>
      <trkpt lat="37.8624900989" lon="-8.6185425706">
        <ele>136.16</ele>
        <time>2019-12-29T14:30:05Z</time>
      </trkpt>
      <trkpt lat="37.8626556415" lon="-8.6184597574">
        <ele>135.68</ele>
        <time>2019-12-29T14:30:20Z</time>
      </trkpt>
      <trkpt lat="37.8627822082" lon="-8.6184104718">
        <ele>135.68</ele>
        <time>2019-12-29T14:30:31Z</time>
      </trkpt>
      <trkpt lat="37.8628367744" lon="-8.6183772795">
        <ele>135.68</ele>
        <time>2019-12-29T14:30:35Z</time>
      </trkpt>
      <trkpt lat="37.8630181588" lon="-8.6183155049">
        <ele>136.16</ele>
        <time>2019-12-29T14:30:49Z</time>
      </trkpt>
      <trkpt lat="37.8631563764" lon="-8.6183414049">
        <ele>136.64</ele>
        <time>2019-12-29T14:31:01Z</time>
      </trkpt>
      <trkpt lat="37.8631754871" lon="-8.6183559895">
        <ele>136.16</ele>
        <time>2019-12-29T14:31:03Z</time>
      </trkpt>
      <trkpt lat="37.8632146306" lon="-8.6184363719">
        <ele>136.16</ele>
        <time>2019-12-29T14:31:10Z</time>
      </trkpt>
      <trkpt lat="37.8633090947" lon="-8.6186627671">
        <ele>135.20</ele>
        <time>2019-12-29T14:31:25Z</time>
      </trkpt>
      <trkpt lat="37.8634020500" lon="-8.6188534554">
        <ele>135.20</ele>
        <time>2019-12-29T14:31:40Z</time>
      </trkpt>
      <trkpt lat="37.8634366672" lon="-8.6189401243">
        <ele>135.20</ele>
        <time>2019-12-29T14:31:46Z</time>
      </trkpt>
      <trkpt lat="37.8634604719" lon="-8.6190075148">
        <ele>134.72</ele>
        <time>2019-12-29T14:31:51Z</time>
      </trkpt>
      <trkpt lat="37.8634810913" lon="-8.6190563813">
        <ele>135.20</ele>
        <time>2019-12-29T14:31:55Z</time>
      </trkpt>
      <trkpt lat="37.8635190614" lon="-8.6191220116">
        <ele>135.20</ele>
        <time>2019-12-29T14:32:01Z</time>
      </trkpt>
      <trkpt lat="37.8635255154" lon="-8.6191469897">
        <ele>135.20</ele>
        <time>2019-12-29T14:32:03Z</time>
      </trkpt>
      <trkpt lat="37.8635509964" lon="-8.6191946827">
        <ele>135.20</ele>
        <time>2019-12-29T14:32:07Z</time>
      </trkpt>
      <trkpt lat="37.8635915648" lon="-8.6192613188">
        <ele>135.68</ele>
        <time>2019-12-29T14:32:13Z</time>
      </trkpt>
      <trkpt lat="37.8636056464" lon="-8.6193349119">
        <ele>136.16</ele>
        <time>2019-12-29T14:32:18Z</time>
      </trkpt>
      <trkpt lat="37.8636238351" lon="-8.6193971895">
        <ele>136.16</ele>
        <time>2019-12-29T14:32:22Z</time>
      </trkpt>
      <trkpt lat="37.8636405151" lon="-8.6194445472">
        <ele>135.68</ele>
        <time>2019-12-29T14:32:25Z</time>
      </trkpt>
      <trkpt lat="37.8636558540" lon="-8.6195339821">
        <ele>135.20</ele>
        <time>2019-12-29T14:32:31Z</time>
      </trkpt>
      <trkpt lat="37.8636726178" lon="-8.6196082458">
        <ele>134.72</ele>
        <time>2019-12-29T14:32:36Z</time>
      </trkpt>
      <trkpt lat="37.8636866994" lon="-8.6196968425">
        <ele>134.24</ele>
        <time>2019-12-29T14:32:42Z</time>
      </trkpt>
      <trkpt lat="37.8636996914" lon="-8.6198947392">
        <ele>132.32</ele>
        <time>2019-12-29T14:32:55Z</time>
      </trkpt>
      <trkpt lat="37.8637408465" lon="-8.6201195419">
        <ele>131.36</ele>
        <time>2019-12-29T14:33:10Z</time>
      </trkpt>
      <trkpt lat="37.8637533356" lon="-8.6201512255">
        <ele>131.84</ele>
        <time>2019-12-29T14:33:12Z</time>
      </trkpt>
      <trkpt lat="37.8637814987" lon="-8.6202052049">
        <ele>130.88</ele>
        <time>2019-12-29T14:33:16Z</time>
      </trkpt>
      <trkpt lat="37.8637957480" lon="-8.6202269141">
        <ele>130.88</ele>
        <time>2019-12-29T14:33:18Z</time>
      </trkpt>
      <trkpt lat="37.8638694249" lon="-8.6204438377">
        <ele>129.92</ele>
        <time>2019-12-29T14:33:33Z</time>
      </trkpt>
      <trkpt lat="37.8639189620" lon="-8.6206228752">
        <ele>128.95</ele>
        <time>2019-12-29T14:33:46Z</time>
      </trkpt>
      <trkpt lat="37.8639507294" lon="-8.6207876634">
        <ele>128.47</ele>
        <time>2019-12-29T14:33:57Z</time>
      </trkpt>
      <trkpt lat="37.8639776353" lon="-8.6209879071">
        <ele>127.03</ele>
        <time>2019-12-29T14:34:10Z</time>
      </trkpt>
      <trkpt lat="37.8640103247" lon="-8.6212258693">
        <ele>126.07</ele>
        <time>2019-12-29T14:34:26Z</time>
      </trkpt>
      <trkpt lat="37.8640573472" lon="-8.6214421224">
        <ele>124.63</ele>
        <time>2019-12-29T14:34:41Z</time>
      </trkpt>
      <trkpt lat="37.8641025256" lon="-8.6215985287">
        <ele>124.15</ele>
        <time>2019-12-29T14:34:51Z</time>
      </trkpt>
      <trkpt lat="37.8642085567" lon="-8.6217633169">
        <ele>123.67</ele>
        <time>2019-12-29T14:35:05Z</time>
      </trkpt>
      <trkpt lat="37.8642559983" lon="-8.6218299530">
        <ele>123.19</ele>
        <time>2019-12-29T14:35:11Z</time>
      </trkpt>
      <trkpt lat="37.8642686550" lon="-8.6218538415">
        <ele>122.71</ele>
        <time>2019-12-29T14:35:13Z</time>
      </trkpt>
      <trkpt lat="37.8643274959" lon="-8.6219283566">
        <ele>122.71</ele>
        <time>2019-12-29T14:35:20Z</time>
      </trkpt>
      <trkpt lat="37.8643735126" lon="-8.6219840124">
        <ele>122.22</ele>
        <time>2019-12-29T14:35:25Z</time>
      </trkpt>
      <trkpt lat="37.8643967304" lon="-8.6220207252">
        <ele>122.71</ele>
        <time>2019-12-29T14:35:28Z</time>
      </trkpt>
      <trkpt lat="37.8644496202" lon="-8.6221086513">
        <ele>122.22</ele>
        <time>2019-12-29T14:35:35Z</time>
      </trkpt>
      <trkpt lat="37.8644587565" lon="-8.6221398320">
        <ele>122.22</ele>
        <time>2019-12-29T14:35:37Z</time>
      </trkpt>
      <trkpt lat="37.8645003308" lon="-8.6222373135">
        <ele>122.71</ele>
        <time>2019-12-29T14:35:43Z</time>
      </trkpt>
      <trkpt lat="37.8645115625" lon="-8.6222670693">
        <ele>123.19</ele>
        <time>2019-12-29T14:35:45Z</time>
      </trkpt>
      <trkpt lat="37.8645323496" lon="-8.6222995073">
        <ele>123.19</ele>
        <time>2019-12-29T14:35:48Z</time>
      </trkpt>
      <trkpt lat="37.8646086250" lon="-8.6224202905">
        <ele>123.19</ele>
        <time>2019-12-29T14:35:58Z</time>
      </trkpt>
      <trkpt lat="37.8646508697" lon="-8.6224844959">
        <ele>123.67</ele>
        <time>2019-12-29T14:36:03Z</time>
      </trkpt>
      <trkpt lat="37.8646607604" lon="-8.6225140002">
        <ele>123.67</ele>
        <time>2019-12-29T14:36:05Z</time>
      </trkpt>
      <trkpt lat="37.8646900970" lon="-8.6225600168">
        <ele>124.63</ele>
        <time>2019-12-29T14:36:09Z</time>
      </trkpt>
      <trkpt lat="37.8647660371" lon="-8.6226661317">
        <ele>123.67</ele>
        <time>2019-12-29T14:36:19Z</time>
      </trkpt>
      <trkpt lat="37.8648684639" lon="-8.6228237953">
        <ele>122.22</ele>
        <time>2019-12-29T14:36:33Z</time>
      </trkpt>
      <trkpt lat="37.8648871556" lon="-8.6228832230">
        <ele>122.22</ele>
        <time>2019-12-29T14:36:38Z</time>
      </trkpt>
      <trkpt lat="37.8648905084" lon="-8.6230295710">
        <ele>120.78</ele>
        <time>2019-12-29T14:36:49Z</time>
      </trkpt>
      <trkpt lat="37.8648884967" lon="-8.6231696326">
        <ele>119.82</ele>
        <time>2019-12-29T14:36:58Z</time>
      </trkpt>
      <trkpt lat="37.8648947831" lon="-8.6232668627">
        <ele>119.82</ele>
        <time>2019-12-29T14:37:05Z</time>
      </trkpt>
      <trkpt lat="37.8649165761" lon="-8.6234179046">
        <ele>118.86</ele>
        <time>2019-12-29T14:37:18Z</time>
      </trkpt>
      <trkpt lat="37.8649210185" lon="-8.6234168150">
        <ele>117.90</ele>
        <time>2019-12-29T14:37:33Z</time>
      </trkpt>
      <trkpt lat="37.8649210185" lon="-8.6234168150">
        <ele>117.90</ele>
        <time>2019-12-29T14:38:01Z</time>
      </trkpt>
      <trkpt lat="37.8649219405" lon="-8.6234162282">
        <ele>117.90</ele>
        <time>2019-12-29T14:38:30Z</time>
      </trkpt>
      <trkpt lat="37.8649215214" lon="-8.6234161444">
        <ele>118.38</ele>
        <time>2019-12-29T14:39:01Z</time>
      </trkpt>
      <trkpt lat="37.8649204317" lon="-8.6234168150">
        <ele>117.90</ele>
        <time>2019-12-29T14:39:32Z</time>
      </trkpt>
      <trkpt lat="37.8649204317" lon="-8.6234168150">
        <ele>118.38</ele>
        <time>2019-12-29T14:40:07Z</time>
      </trkpt>
      <trkpt lat="37.8649148159" lon="-8.6234218441">
        <ele>119.34</ele>
        <time>2019-12-29T14:40:17Z</time>
      </trkpt>
      <trkpt lat="37.8649162408" lon="-8.6234222632">
        <ele>119.82</ele>
        <time>2019-12-29T14:40:32Z</time>
      </trkpt>
      <trkpt lat="37.8649197612" lon="-8.6234769132">
        <ele>119.34</ele>
        <time>2019-12-29T14:40:44Z</time>
      </trkpt>
      <trkpt lat="37.8649598267" lon="-8.6235689465">
        <ele>118.38</ele>
        <time>2019-12-29T14:40:52Z</time>
      </trkpt>
      <trkpt lat="37.8650418017" lon="-8.6237247661">
        <ele>117.90</ele>
        <time>2019-12-29T14:41:05Z</time>
      </trkpt>
      <trkpt lat="37.8650606610" lon="-8.6237845290">
        <ele>117.90</ele>
        <time>2019-12-29T14:41:09Z</time>
      </trkpt>
      <trkpt lat="37.8651837911" lon="-8.6239810847">
        <ele>116.94</ele>
        <time>2019-12-29T14:41:27Z</time>
      </trkpt>
      <trkpt lat="37.8652065899" lon="-8.6240312923">
        <ele>116.94</ele>
        <time>2019-12-29T14:41:31Z</time>
      </trkpt>
      <trkpt lat="37.8652443085" lon="-8.6240954977">
        <ele>117.42</ele>
        <time>2019-12-29T14:41:41Z</time>
      </trkpt>
      <trkpt lat="37.8652692027" lon="-8.6241392512">
        <ele>116.94</ele>
        <time>2019-12-29T14:41:48Z</time>
      </trkpt>
      <trkpt lat="37.8652955219" lon="-8.6241897941">
        <ele>117.42</ele>
        <time>2019-12-29T14:41:52Z</time>
      </trkpt>
      <trkpt lat="37.8653078433" lon="-8.6242325418">
        <ele>116.94</ele>
        <time>2019-12-29T14:41:55Z</time>
      </trkpt>
      <trkpt lat="37.8654157184" lon="-8.6244317796">
        <ele>117.42</ele>
        <time>2019-12-29T14:42:12Z</time>
      </trkpt>
      <trkpt lat="37.8654831089" lon="-8.6245635431">
        <ele>117.42</ele>
        <time>2019-12-29T14:42:24Z</time>
      </trkpt>
      <trkpt lat="37.8655130323" lon="-8.6246425845">
        <ele>116.94</ele>
        <time>2019-12-29T14:42:31Z</time>
      </trkpt>
      <trkpt lat="37.8655740526" lon="-8.6247465201">
        <ele>117.90</ele>
        <time>2019-12-29T14:42:41Z</time>
      </trkpt>
      <trkpt lat="37.8655929118" lon="-8.6247584224">
        <ele>117.42</ele>
        <time>2019-12-29T14:42:43Z</time>
      </trkpt>
      <trkpt lat="37.8657317162" lon="-8.6247968115">
        <ele>118.38</ele>
        <time>2019-12-29T14:42:56Z</time>
      </trkpt>
      <trkpt lat="37.8657447919" lon="-8.6247949675">
        <ele>118.38</ele>
        <time>2019-12-29T14:42:57Z</time>
      </trkpt>
      <trkpt lat="37.8657664172" lon="-8.6247932911">
        <ele>118.86</ele>
        <time>2019-12-29T14:42:59Z</time>
      </trkpt>
      <trkpt lat="37.8658103384" lon="-8.6247850768">
        <ele>118.86</ele>
        <time>2019-12-29T14:43:04Z</time>
      </trkpt>
      <trkpt lat="37.8658675030" lon="-8.6247485317">
        <ele>118.86</ele>
        <time>2019-12-29T14:43:09Z</time>
      </trkpt>
      <trkpt lat="37.8659270145" lon="-8.6247338634">
        <ele>119.34</ele>
        <time>2019-12-29T14:43:15Z</time>
      </trkpt>
      <trkpt lat="37.8660203051" lon="-8.6247106455">
        <ele>118.86</ele>
        <time>2019-12-29T14:43:22Z</time>
      </trkpt>
      <trkpt lat="37.8660759609" lon="-8.6246974021">
        <ele>118.38</ele>
        <time>2019-12-29T14:43:27Z</time>
      </trkpt>
      <trkpt lat="37.8662074730" lon="-8.6247040238">
        <ele>118.86</ele>
        <time>2019-12-29T14:43:38Z</time>
      </trkpt>
      <trkpt lat="37.8663506359" lon="-8.6247420777">
        <ele>119.82</ele>
        <time>2019-12-29T14:43:50Z</time>
      </trkpt>
      <trkpt lat="37.8663945571" lon="-8.6247580033">
        <ele>119.82</ele>
        <time>2019-12-29T14:43:54Z</time>
      </trkpt>
      <trkpt lat="37.8664830700" lon="-8.6248079594">
        <ele>119.82</ele>
        <time>2019-12-29T14:44:02Z</time>
      </trkpt>
      <trkpt lat="37.8665048629" lon="-8.6248246394">
        <ele>119.82</ele>
        <time>2019-12-29T14:44:04Z</time>
      </trkpt>
      <trkpt lat="37.8666139115" lon="-8.6248970591">
        <ele>120.30</ele>
        <time>2019-12-29T14:44:14Z</time>
      </trkpt>
      <trkpt lat="37.8666334413" lon="-8.6249105539">
        <ele>120.30</ele>
        <time>2019-12-29T14:44:16Z</time>
      </trkpt>
      <trkpt lat="37.8667575773" lon="-8.6249916069">
        <ele>120.78</ele>
        <time>2019-12-29T14:44:27Z</time>
      </trkpt>
      <trkpt lat="37.8668091260" lon="-8.6250382103">
        <ele>121.26</ele>
        <time>2019-12-29T14:44:32Z</time>
      </trkpt>
      <trkpt lat="37.8668699786" lon="-8.6250614282">
        <ele>122.22</ele>
        <time>2019-12-29T14:44:37Z</time>
      </trkpt>
      <trkpt lat="37.8669736627" lon="-8.6251434032">
        <ele>123.19</ele>
        <time>2019-12-29T14:44:47Z</time>
      </trkpt>
      <trkpt lat="37.8670079447" lon="-8.6251636874">
        <ele>123.67</ele>
        <time>2019-12-29T14:44:50Z</time>
      </trkpt>
      <trkpt lat="37.8670470882" lon="-8.6252064351">
        <ele>124.63</ele>
        <time>2019-12-29T14:44:54Z</time>
      </trkpt>
      <trkpt lat="37.8670926020" lon="-8.6252449080">
        <ele>124.63</ele>
        <time>2019-12-29T14:44:58Z</time>
      </trkpt>
      <trkpt lat="37.8672011476" lon="-8.6253282242">
        <ele>126.55</ele>
        <time>2019-12-29T14:45:08Z</time>
      </trkpt>
      <trkpt lat="37.8672355134" lon="-8.6253444012">
        <ele>127.03</ele>
        <time>2019-12-29T14:45:11Z</time>
      </trkpt>
      <trkpt lat="37.8673011437" lon="-8.6253649369">
        <ele>127.99</ele>
        <time>2019-12-29T14:45:17Z</time>
      </trkpt>
      <trkpt lat="37.8673331626" lon="-8.6253831256">
        <ele>127.99</ele>
        <time>2019-12-29T14:45:20Z</time>
      </trkpt>
      <trkpt lat="37.8674673568" lon="-8.6254731473">
        <ele>129.43</ele>
        <time>2019-12-29T14:45:32Z</time>
      </trkpt>
      <trkpt lat="37.8675190732" lon="-8.6255106982">
        <ele>130.40</ele>
        <time>2019-12-29T14:45:37Z</time>
      </trkpt>
      <trkpt lat="37.8675675206" lon="-8.6255349219">
        <ele>130.40</ele>
        <time>2019-12-29T14:45:41Z</time>
      </trkpt>
      <trkpt lat="37.8675842844" lon="-8.6255546194">
        <ele>130.88</ele>
        <time>2019-12-29T14:45:43Z</time>
      </trkpt>
      <trkpt lat="37.8676371742" lon="-8.6255804356">
        <ele>131.84</ele>
        <time>2019-12-29T14:45:48Z</time>
      </trkpt>
      <trkpt lat="37.8676662594" lon="-8.6256231833">
        <ele>131.84</ele>
        <time>2019-12-29T14:45:52Z</time>
      </trkpt>
      <trkpt lat="37.8677045647" lon="-8.6256538611">
        <ele>132.80</ele>
        <time>2019-12-29T14:45:56Z</time>
      </trkpt>
      <trkpt lat="37.8677184787" lon="-8.6256780010">
        <ele>132.80</ele>
        <time>2019-12-29T14:45:58Z</time>
      </trkpt>
      <trkpt lat="37.8677447140" lon="-8.6257181503">
        <ele>133.28</ele>
        <time>2019-12-29T14:46:01Z</time>
      </trkpt>
      <trkpt lat="37.8678319696" lon="-8.6258514225">
        <ele>134.72</ele>
        <time>2019-12-29T14:46:11Z</time>
      </trkpt>
      <trkpt lat="37.8678912297" lon="-8.6258928291">
        <ele>134.72</ele>
        <time>2019-12-29T14:46:17Z</time>
      </trkpt>
      <trkpt lat="37.8679607995" lon="-8.6259504128">
        <ele>135.20</ele>
        <time>2019-12-29T14:46:24Z</time>
      </trkpt>
      <trkpt lat="37.8680581134" lon="-8.6260349024">
        <ele>136.16</ele>
        <time>2019-12-29T14:46:34Z</time>
      </trkpt>
      <trkpt lat="37.8681365680" lon="-8.6261140276">
        <ele>136.16</ele>
        <time>2019-12-29T14:46:43Z</time>
      </trkpt>
      <trkpt lat="37.8681907151" lon="-8.6261809152">
        <ele>136.64</ele>
        <time>2019-12-29T14:46:49Z</time>
      </trkpt>
      <trkpt lat="37.8682305291" lon="-8.6262508202">
        <ele>136.64</ele>
        <time>2019-12-29T14:46:54Z</time>
      </trkpt>
      <trkpt lat="37.8682883643" lon="-8.6263094936">
        <ele>136.16</ele>
        <time>2019-12-29T14:47:00Z</time>
      </trkpt>
      <trkpt lat="37.8683161084" lon="-8.6263340525">
        <ele>136.16</ele>
        <time>2019-12-29T14:47:03Z</time>
      </trkpt>
      <trkpt lat="37.8684026096" lon="-8.6264339648">
        <ele>136.16</ele>
        <time>2019-12-29T14:47:12Z</time>
      </trkpt>
      <trkpt lat="37.8684201278" lon="-8.6264485493">
        <ele>136.64</ele>
        <time>2019-12-29T14:47:14Z</time>
      </trkpt>
      <trkpt lat="37.8685375582" lon="-8.6265203822">
        <ele>136.64</ele>
        <time>2019-12-29T14:47:26Z</time>
      </trkpt>
      <trkpt lat="37.8686217126" lon="-8.6265891977">
        <ele>136.16</ele>
        <time>2019-12-29T14:47:33Z</time>
      </trkpt>
      <trkpt lat="37.8686878458" lon="-8.6266331188">
        <ele>136.16</ele>
        <time>2019-12-29T14:47:39Z</time>
      </trkpt>
      <trkpt lat="37.8687066212" lon="-8.6266570073">
        <ele>136.16</ele>
        <time>2019-12-29T14:47:41Z</time>
      </trkpt>
      <trkpt lat="37.8688512929" lon="-8.6267428380">
        <ele>136.16</ele>
        <time>2019-12-29T14:47:54Z</time>
      </trkpt>
      <trkpt lat="37.8688718285" lon="-8.6267584283">
        <ele>135.68</ele>
        <time>2019-12-29T14:47:56Z</time>
      </trkpt>
      <trkpt lat="37.8689386323" lon="-8.6267893575">
        <ele>135.68</ele>
        <time>2019-12-29T14:48:01Z</time>
      </trkpt>
      <trkpt lat="37.8690739162" lon="-8.6268767808">
        <ele>134.72</ele>
        <time>2019-12-29T14:48:12Z</time>
      </trkpt>
      <trkpt lat="37.8691416420" lon="-8.6269160081">
        <ele>134.72</ele>
        <time>2019-12-29T14:48:18Z</time>
      </trkpt>
      <trkpt lat="37.8691679612" lon="-8.6269401480">
        <ele>134.72</ele>
        <time>2019-12-29T14:48:21Z</time>
      </trkpt>
      <trkpt lat="37.8692200128" lon="-8.6269676406">
        <ele>134.72</ele>
        <time>2019-12-29T14:48:25Z</time>
      </trkpt>
      <trkpt lat="37.8692785185" lon="-8.6270206980">
        <ele>134.72</ele>
        <time>2019-12-29T14:48:30Z</time>
      </trkpt>
      <trkpt lat="37.8693485074" lon="-8.6270702351">
        <ele>134.24</ele>
        <time>2019-12-29T14:48:37Z</time>
      </trkpt>
      <trkpt lat="37.8694654349" lon="-8.6272193491">
        <ele>134.72</ele>
        <time>2019-12-29T14:48:51Z</time>
      </trkpt>
      <trkpt lat="37.8695590608" lon="-8.6272983905">
        <ele>134.24</ele>
        <time>2019-12-29T14:49:01Z</time>
      </trkpt>
      <trkpt lat="37.8696812689" lon="-8.6274590716">
        <ele>134.72</ele>
        <time>2019-12-29T14:49:15Z</time>
      </trkpt>
      <trkpt lat="37.8696991224" lon="-8.6274762545">
        <ele>134.72</ele>
        <time>2019-12-29T14:49:17Z</time>
      </trkpt>
      <trkpt lat="37.8698172234" lon="-8.6276123766">
        <ele>135.20</ele>
        <time>2019-12-29T14:49:30Z</time>
      </trkpt>
      <trkpt lat="37.8698589653" lon="-8.6276656017">
        <ele>135.68</ele>
        <time>2019-12-29T14:49:35Z</time>
      </trkpt>
      <trkpt lat="37.8699825145" lon="-8.6277553719">
        <ele>135.68</ele>
        <time>2019-12-29T14:49:47Z</time>
      </trkpt>
      <trkpt lat="37.8700162098" lon="-8.6277900729">
        <ele>136.16</ele>
        <time>2019-12-29T14:49:51Z</time>
      </trkpt>
      <trkpt lat="37.8700374160" lon="-8.6278028972">
        <ele>136.64</ele>
        <time>2019-12-29T14:49:53Z</time>
      </trkpt>
      <trkpt lat="37.8701338917" lon="-8.6279588845">
        <ele>137.13</ele>
        <time>2019-12-29T14:50:05Z</time>
      </trkpt>
      <trkpt lat="37.8701455425" lon="-8.6279887240">
        <ele>137.61</ele>
        <time>2019-12-29T14:50:07Z</time>
      </trkpt>
      <trkpt lat="37.8702285234" lon="-8.6281395983">
        <ele>138.57</ele>
        <time>2019-12-29T14:50:18Z</time>
      </trkpt>
      <trkpt lat="37.8702814132" lon="-8.6281877942">
        <ele>139.05</ele>
        <time>2019-12-29T14:50:24Z</time>
      </trkpt>
      <trkpt lat="37.8703414276" lon="-8.6282583699">
        <ele>140.01</ele>
        <time>2019-12-29T14:50:31Z</time>
      </trkpt>
      <trkpt lat="37.8704332095" lon="-8.6284112558">
        <ele>140.49</ele>
        <time>2019-12-29T14:50:43Z</time>
      </trkpt>
      <trkpt lat="37.8704728559" lon="-8.6284819990">
        <ele>141.45</ele>
        <time>2019-12-29T14:50:48Z</time>
      </trkpt>
      <trkpt lat="37.8705806471" lon="-8.6286223959">
        <ele>141.93</ele>
        <time>2019-12-29T14:51:00Z</time>
      </trkpt>
      <trkpt lat="37.8705952317" lon="-8.6286413390">
        <ele>141.93</ele>
        <time>2019-12-29T14:51:02Z</time>
      </trkpt>
      <trkpt lat="37.8706483729" lon="-8.6286809854">
        <ele>142.41</ele>
        <time>2019-12-29T14:51:07Z</time>
      </trkpt>
      <trkpt lat="37.8707263246" lon="-8.6287595239">
        <ele>143.37</ele>
        <time>2019-12-29T14:51:15Z</time>
      </trkpt>
      <trkpt lat="37.8707409091" lon="-8.6287861783">
        <ele>143.37</ele>
        <time>2019-12-29T14:51:17Z</time>
      </trkpt>
      <trkpt lat="37.8707839083" lon="-8.6288119107">
        <ele>143.37</ele>
        <time>2019-12-29T14:51:21Z</time>
      </trkpt>
      <trkpt lat="37.8708018456" lon="-8.6288304348">
        <ele>143.85</ele>
        <time>2019-12-29T14:51:23Z</time>
      </trkpt>
      <trkpt lat="37.8708442580" lon="-8.6288549937">
        <ele>144.34</ele>
        <time>2019-12-29T14:51:27Z</time>
      </trkpt>
      <trkpt lat="37.8708858322" lon="-8.6288792174">
        <ele>144.34</ele>
        <time>2019-12-29T14:51:31Z</time>
      </trkpt>
      <trkpt lat="37.8709784523" lon="-8.6289294250">
        <ele>144.82</ele>
        <time>2019-12-29T14:51:39Z</time>
      </trkpt>
      <trkpt lat="37.8710230440" lon="-8.6289394833">
        <ele>145.30</ele>
        <time>2019-12-29T14:51:43Z</time>
      </trkpt>
      <trkpt lat="37.8710679710" lon="-8.6289744359">
        <ele>146.26</ele>
        <time>2019-12-29T14:51:47Z</time>
      </trkpt>
      <trkpt lat="37.8712100442" lon="-8.6290305108">
        <ele>147.22</ele>
        <time>2019-12-29T14:51:59Z</time>
      </trkpt>
      <trkpt lat="37.8712689690" lon="-8.6290514655">
        <ele>147.22</ele>
        <time>2019-12-29T14:52:04Z</time>
      </trkpt>
      <trkpt lat="37.8713155724" lon="-8.6290582549">
        <ele>147.70</ele>
        <time>2019-12-29T14:52:08Z</time>
      </trkpt>
      <trkpt lat="37.8713502735" lon="-8.6290787067">
        <ele>147.70</ele>
        <time>2019-12-29T14:52:11Z</time>
      </trkpt>
      <trkpt lat="37.8713843878" lon="-8.6290963925">
        <ele>147.70</ele>
        <time>2019-12-29T14:52:14Z</time>
      </trkpt>
      <trkpt lat="37.8715129662" lon="-8.6291653756">
        <ele>148.66</ele>
        <time>2019-12-29T14:52:26Z</time>
      </trkpt>
      <trkpt lat="37.8716459870" lon="-8.6292706523">
        <ele>148.66</ele>
        <time>2019-12-29T14:52:38Z</time>
      </trkpt>
      <trkpt lat="37.8716930933" lon="-8.6293395516">
        <ele>149.14</ele>
        <time>2019-12-29T14:52:44Z</time>
      </trkpt>
      <trkpt lat="37.8717303928" lon="-8.6294025835">
        <ele>149.14</ele>
        <time>2019-12-29T14:52:49Z</time>
      </trkpt>
      <trkpt lat="37.8718161397" lon="-8.6295102071">
        <ele>149.62</ele>
        <time>2019-12-29T14:52:59Z</time>
      </trkpt>
      <trkpt lat="37.8718760703" lon="-8.6295874882">
        <ele>150.10</ele>
        <time>2019-12-29T14:53:06Z</time>
      </trkpt>
      <trkpt lat="37.8719209135" lon="-8.6296190042">
        <ele>150.10</ele>
        <time>2019-12-29T14:53:10Z</time>
      </trkpt>
      <trkpt lat="37.8720345721" lon="-8.6297240295">
        <ele>151.06</ele>
        <time>2019-12-29T14:53:22Z</time>
      </trkpt>
      <trkpt lat="37.8720693570" lon="-8.6297594011">
        <ele>151.06</ele>
        <time>2019-12-29T14:53:25Z</time>
      </trkpt>
      <trkpt lat="37.8721432853" lon="-8.6298001371">
        <ele>152.03</ele>
        <time>2019-12-29T14:53:32Z</time>
      </trkpt>
      <trkpt lat="37.8722364921" lon="-8.6298424657">
        <ele>152.51</ele>
        <time>2019-12-29T14:53:41Z</time>
      </trkpt>
      <trkpt lat="37.8723156173" lon="-8.6298852134">
        <ele>152.51</ele>
        <time>2019-12-29T14:53:49Z</time>
      </trkpt>
      <trkpt lat="37.8723780625" lon="-8.6299163103">
        <ele>153.47</ele>
        <time>2019-12-29T14:53:55Z</time>
      </trkpt>
      <trkpt lat="37.8725239076" lon="-8.6300910730">
        <ele>152.99</ele>
        <time>2019-12-29T14:54:11Z</time>
      </trkpt>
      <trkpt lat="37.8725232370" lon="-8.6301024724">
        <ele>152.99</ele>
        <time>2019-12-29T14:54:12Z</time>
      </trkpt>
      <trkpt lat="37.8725396655" lon="-8.6301300488">
        <ele>152.51</ele>
        <time>2019-12-29T14:54:14Z</time>
      </trkpt>
      <trkpt lat="37.8725572675" lon="-8.6301714554">
        <ele>152.03</ele>
        <time>2019-12-29T14:54:17Z</time>
      </trkpt>
      <trkpt lat="37.8725987580" lon="-8.6302236747">
        <ele>152.03</ele>
        <time>2019-12-29T14:54:21Z</time>
      </trkpt>
      <trkpt lat="37.8726878576" lon="-8.6303428654">
        <ele>152.03</ele>
        <time>2019-12-29T14:54:31Z</time>
      </trkpt>
      <trkpt lat="37.8727362212" lon="-8.6304056458">
        <ele>151.06</ele>
        <time>2019-12-29T14:54:36Z</time>
      </trkpt>
      <trkpt lat="37.8728391510" lon="-8.6305644829">
        <ele>151.54</ele>
        <time>2019-12-29T14:54:49Z</time>
      </trkpt>
      <trkpt lat="37.8728762828" lon="-8.6306481343">
        <ele>152.03</ele>
        <time>2019-12-29T14:54:55Z</time>
      </trkpt>
      <trkpt lat="37.8729550727" lon="-8.6307735275">
        <ele>152.51</ele>
        <time>2019-12-29T14:55:06Z</time>
      </trkpt>
      <trkpt lat="37.8730418254" lon="-8.6309238151">
        <ele>152.99</ele>
        <time>2019-12-29T14:55:18Z</time>
      </trkpt>
      <trkpt lat="37.8730790410" lon="-8.6309664790">
        <ele>153.95</ele>
        <time>2019-12-29T14:55:22Z</time>
      </trkpt>
      <trkpt lat="37.8731554840" lon="-8.6311025172">
        <ele>153.95</ele>
        <time>2019-12-29T14:55:33Z</time>
      </trkpt>
      <trkpt lat="37.8731774446" lon="-8.6311538983">
        <ele>153.95</ele>
        <time>2019-12-29T14:55:37Z</time>
      </trkpt>
      <trkpt lat="37.8732370399" lon="-8.6312613543">
        <ele>154.91</ele>
        <time>2019-12-29T14:55:45Z</time>
      </trkpt>
      <trkpt lat="37.8733321745" lon="-8.6314169224">
        <ele>155.39</ele>
        <time>2019-12-29T14:55:57Z</time>
      </trkpt>
      <trkpt lat="37.8735186718" lon="-8.6314717401">
        <ele>155.39</ele>
        <time>2019-12-29T14:56:11Z</time>
      </trkpt>
      <trkpt lat="37.8735806979" lon="-8.6314919405">
        <ele>155.39</ele>
        <time>2019-12-29T14:56:16Z</time>
      </trkpt>
      <trkpt lat="37.8737497609" lon="-8.6315167509">
        <ele>155.39</ele>
        <time>2019-12-29T14:56:30Z</time>
      </trkpt>
      <trkpt lat="37.8738209233" lon="-8.6315304972">
        <ele>154.91</ele>
        <time>2019-12-29T14:56:36Z</time>
      </trkpt>
      <trkpt lat="37.8739013895" lon="-8.6315516196">
        <ele>154.91</ele>
        <time>2019-12-29T14:56:43Z</time>
      </trkpt>
      <trkpt lat="37.8739971947" lon="-8.6315593310">
        <ele>154.43</ele>
        <time>2019-12-29T14:56:51Z</time>
      </trkpt>
      <trkpt lat="37.8741634917" lon="-8.6316045094">
        <ele>154.43</ele>
        <time>2019-12-29T14:57:05Z</time>
      </trkpt>
      <trkpt lat="37.8741872963" lon="-8.6316162441">
        <ele>153.95</ele>
        <time>2019-12-29T14:57:07Z</time>
      </trkpt>
      <trkpt lat="37.8742693551" lon="-8.6316718999">
        <ele>153.95</ele>
        <time>2019-12-29T14:57:15Z</time>
      </trkpt>
      <trkpt lat="37.8742920700" lon="-8.6316941120">
        <ele>153.95</ele>
        <time>2019-12-29T14:57:17Z</time>
      </trkpt>
      <trkpt lat="37.8744183853" lon="-8.6318080220">
        <ele>153.95</ele>
        <time>2019-12-29T14:57:30Z</time>
      </trkpt>
      <trkpt lat="37.8744426928" lon="-8.6318446510">
        <ele>153.95</ele>
        <time>2019-12-29T14:57:33Z</time>
      </trkpt>
      <trkpt lat="37.8744732030" lon="-8.6318723112">
        <ele>154.43</ele>
        <time>2019-12-29T14:57:36Z</time>
      </trkpt>
      <trkpt lat="37.8745230753" lon="-8.6319307331">
        <ele>153.47</ele>
        <time>2019-12-29T14:57:41Z</time>
      </trkpt>
      <trkpt lat="37.8745950758" lon="-8.6320025660">
        <ele>153.47</ele>
        <time>2019-12-29T14:57:48Z</time>
      </trkpt>
      <trkpt lat="37.8746981733" lon="-8.6320732255">
        <ele>153.95</ele>
        <time>2019-12-29T14:57:58Z</time>
      </trkpt>
      <trkpt lat="37.8747535776" lon="-8.6321508419">
        <ele>153.95</ele>
        <time>2019-12-29T14:58:05Z</time>
      </trkpt>
      <trkpt lat="37.8747809865" lon="-8.6321859621">
        <ele>153.95</ele>
        <time>2019-12-29T14:58:08Z</time>
      </trkpt>
      <trkpt lat="37.8748135082" lon="-8.6322285421">
        <ele>153.95</ele>
        <time>2019-12-29T14:58:12Z</time>
      </trkpt>
      <trkpt lat="37.8748247400" lon="-8.6322589684">
        <ele>154.43</ele>
        <time>2019-12-29T14:58:14Z</time>
      </trkpt>
      <trkpt lat="37.8748666495" lon="-8.6322946753">
        <ele>154.43</ele>
        <time>2019-12-29T14:58:18Z</time>
      </trkpt>
      <trkpt lat="37.8749235626" lon="-8.6323385965">
        <ele>154.43</ele>
        <time>2019-12-29T14:58:24Z</time>
      </trkpt>
      <trkpt lat="37.8750342038" lon="-8.6324373353">
        <ele>154.43</ele>
        <time>2019-12-29T14:58:35Z</time>
      </trkpt>
      <trkpt lat="37.8750557452" lon="-8.6324515846">
        <ele>154.43</ele>
        <time>2019-12-29T14:58:37Z</time>
      </trkpt>
      <trkpt lat="37.8750997502" lon="-8.6325105093">
        <ele>154.91</ele>
        <time>2019-12-29T14:58:42Z</time>
      </trkpt>
      <trkpt lat="37.8751202021" lon="-8.6325343978">
        <ele>154.91</ele>
        <time>2019-12-29T14:58:44Z</time>
      </trkpt>
      <trkpt lat="37.8751388099" lon="-8.6325433664">
        <ele>154.91</ele>
        <time>2019-12-29T14:58:46Z</time>
      </trkpt>
      <trkpt lat="37.8751754388" lon="-8.6326108407">
        <ele>154.43</ele>
        <time>2019-12-29T14:58:51Z</time>
      </trkpt>
      <trkpt lat="37.8752415720" lon="-8.6326937377">
        <ele>154.43</ele>
        <time>2019-12-29T14:58:59Z</time>
      </trkpt>
      <trkpt lat="37.8752833977" lon="-8.6327774730">
        <ele>154.43</ele>
        <time>2019-12-29T14:59:05Z</time>
      </trkpt>
      <trkpt lat="37.8753606789" lon="-8.6328538321">
        <ele>153.95</ele>
        <time>2019-12-29T14:59:13Z</time>
      </trkpt>
      <trkpt lat="37.8753732517" lon="-8.6328818277">
        <ele>154.43</ele>
        <time>2019-12-29T14:59:15Z</time>
      </trkpt>
      <trkpt lat="37.8754271474" lon="-8.6329675745">
        <ele>153.95</ele>
        <time>2019-12-29T14:59:23Z</time>
      </trkpt>
      <trkpt lat="37.8755712323" lon="-8.6331373081">
        <ele>153.47</ele>
        <time>2019-12-29T14:59:37Z</time>
      </trkpt>
      <trkpt lat="37.8756081127" lon="-8.6331709195">
        <ele>153.47</ele>
        <time>2019-12-29T14:59:41Z</time>
      </trkpt>
      <trkpt lat="37.8756264690" lon="-8.6331835762">
        <ele>153.47</ele>
        <time>2019-12-29T14:59:43Z</time>
      </trkpt>
      <trkpt lat="37.8756421432" lon="-8.6332047824">
        <ele>153.47</ele>
        <time>2019-12-29T14:59:45Z</time>
      </trkpt>
      <trkpt lat="37.8757501859" lon="-8.6333207041">
        <ele>152.99</ele>
        <time>2019-12-29T14:59:56Z</time>
      </trkpt>
      <trkpt lat="37.8757927660" lon="-8.6333801318">
        <ele>152.51</ele>
        <time>2019-12-29T15:00:01Z</time>
      </trkpt>
      <trkpt lat="37.8758441471" lon="-8.6334139109">
        <ele>152.51</ele>
        <time>2019-12-29T15:00:05Z</time>
      </trkpt>
      <trkpt lat="37.8759611584" lon="-8.6335439980">
        <ele>151.54</ele>
        <time>2019-12-29T15:00:17Z</time>
      </trkpt>
      <trkpt lat="37.8759868909" lon="-8.6335743405">
        <ele>151.06</ele>
        <time>2019-12-29T15:00:20Z</time>
      </trkpt>
      <trkpt lat="37.8760125395" lon="-8.6335973069">
        <ele>151.06</ele>
        <time>2019-12-29T15:00:23Z</time>
      </trkpt>
      <trkpt lat="37.8760991246" lon="-8.6337163299">
        <ele>151.06</ele>
        <time>2019-12-29T15:00:33Z</time>
      </trkpt>
      <trkpt lat="37.8761990368" lon="-8.6338427290">
        <ele>150.58</ele>
        <time>2019-12-29T15:00:45Z</time>
      </trkpt>
      <trkpt lat="37.8763092589" lon="-8.6339653563">
        <ele>149.62</ele>
        <time>2019-12-29T15:00:56Z</time>
      </trkpt>
      <trkpt lat="37.8764074109" lon="-8.6340759136">
        <ele>148.66</ele>
        <time>2019-12-29T15:01:06Z</time>
      </trkpt>
      <trkpt lat="37.8764217440" lon="-8.6340974551">
        <ele>149.14</ele>
        <time>2019-12-29T15:01:08Z</time>
      </trkpt>
      <trkpt lat="37.8765431140" lon="-8.6341793463">
        <ele>148.18</ele>
        <time>2019-12-29T15:01:19Z</time>
      </trkpt>
      <trkpt lat="37.8765964229" lon="-8.6342304759">
        <ele>148.18</ele>
        <time>2019-12-29T15:01:24Z</time>
      </trkpt>
      <trkpt lat="37.8767562658" lon="-8.6343751475">
        <ele>147.70</ele>
        <time>2019-12-29T15:01:40Z</time>
      </trkpt>
      <trkpt lat="37.8767949063" lon="-8.6344090104">
        <ele>147.70</ele>
        <time>2019-12-29T15:01:44Z</time>
      </trkpt>
      <trkpt lat="37.8769398294" lon="-8.6344994511">
        <ele>147.22</ele>
        <time>2019-12-29T15:01:57Z</time>
      </trkpt>
      <trkpt lat="37.8770074714" lon="-8.6345183942">
        <ele>146.74</ele>
        <time>2019-12-29T15:02:02Z</time>
      </trkpt>
      <trkpt lat="37.8771613631" lon="-8.6345746368">
        <ele>146.74</ele>
        <time>2019-12-29T15:02:15Z</time>
      </trkpt>
      <trkpt lat="37.8772054520" lon="-8.6345988605">
        <ele>146.26</ele>
        <time>2019-12-29T15:02:19Z</time>
      </trkpt>
      <trkpt lat="37.8773160931" lon="-8.6346262693">
        <ele>146.26</ele>
        <time>2019-12-29T15:02:33Z</time>
      </trkpt>
      <trkpt lat="37.8773160931" lon="-8.6346262693">
        <ele>146.26</ele>
        <time>2019-12-29T15:02:35Z</time>
      </trkpt>
      <trkpt lat="37.8774703201" lon="-8.6346713640">
        <ele>145.78</ele>
        <time>2019-12-29T15:02:49Z</time>
      </trkpt>
      <trkpt lat="37.8774930350" lon="-8.6346727889">
        <ele>145.30</ele>
        <time>2019-12-29T15:02:51Z</time>
      </trkpt>
      <trkpt lat="37.8776393831" lon="-8.6346997786">
        <ele>145.30</ele>
        <time>2019-12-29T15:03:03Z</time>
      </trkpt>
      <trkpt lat="37.8777010739" lon="-8.6347071547">
        <ele>145.30</ele>
        <time>2019-12-29T15:03:08Z</time>
      </trkpt>
      <trkpt lat="37.8777491022" lon="-8.6347214039">
        <ele>144.82</ele>
        <time>2019-12-29T15:03:20Z</time>
      </trkpt>
      <trkpt lat="37.8777491022" lon="-8.6347214039">
        <ele>144.82</ele>
        <time>2019-12-29T15:03:35Z</time>
      </trkpt>
      <trkpt lat="37.8777702246" lon="-8.6347208172">
        <ele>144.82</ele>
        <time>2019-12-29T15:03:38Z</time>
      </trkpt>
      <trkpt lat="37.8779395390" lon="-8.6347314622">
        <ele>144.82</ele>
        <time>2019-12-29T15:03:52Z</time>
      </trkpt>
      <trkpt lat="37.8780863900" lon="-8.6347403470">
        <ele>144.82</ele>
        <time>2019-12-29T15:04:04Z</time>
      </trkpt>
      <trkpt lat="37.8782363422" lon="-8.6347355694">
        <ele>144.34</ele>
        <time>2019-12-29T15:04:16Z</time>
      </trkpt>
      <trkpt lat="37.8782728035" lon="-8.6347466335">
        <ele>144.34</ele>
        <time>2019-12-29T15:04:19Z</time>
      </trkpt>
      <trkpt lat="37.8783861268" lon="-8.6347365752">
        <ele>144.34</ele>
        <time>2019-12-29T15:04:28Z</time>
      </trkpt>
      <trkpt lat="37.8784575406" lon="-8.6347320490">
        <ele>143.85</ele>
        <time>2019-12-29T15:04:34Z</time>
      </trkpt>
      <trkpt lat="37.8785047308" lon="-8.6347357370">
        <ele>144.34</ele>
        <time>2019-12-29T15:04:38Z</time>
      </trkpt>
      <trkpt lat="37.8786199819" lon="-8.6347267684">
        <ele>144.82</ele>
        <time>2019-12-29T15:04:47Z</time>
      </trkpt>
      <trkpt lat="37.8787182178" lon="-8.6347265169">
        <ele>144.82</ele>
        <time>2019-12-29T15:04:55Z</time>
      </trkpt>
      <trkpt lat="37.8788669966" lon="-8.6347258464">
        <ele>145.30</ele>
        <time>2019-12-29T15:05:08Z</time>
      </trkpt>
      <trkpt lat="37.8790346347" lon="-8.6347066518">
        <ele>145.78</ele>
        <time>2019-12-29T15:05:21Z</time>
      </trkpt>
      <trkpt lat="37.8791845869" lon="-8.6346991919">
        <ele>145.30</ele>
        <time>2019-12-29T15:05:34Z</time>
      </trkpt>
      <trkpt lat="37.8792081401" lon="-8.6347000301">
        <ele>145.78</ele>
        <time>2019-12-29T15:05:36Z</time>
      </trkpt>
      <trkpt lat="37.8793456033" lon="-8.6346811708">
        <ele>145.78</ele>
        <time>2019-12-29T15:05:47Z</time>
      </trkpt>
      <trkpt lat="37.8794708289" lon="-8.6346660834">
        <ele>145.78</ele>
        <time>2019-12-29T15:05:58Z</time>
      </trkpt>
      <trkpt lat="37.8796263132" lon="-8.6346618086">
        <ele>145.30</ele>
        <time>2019-12-29T15:06:11Z</time>
      </trkpt>
      <trkpt lat="37.8798028361" lon="-8.6346460506">
        <ele>144.82</ele>
        <time>2019-12-29T15:06:24Z</time>
      </trkpt>
      <trkpt lat="37.8799846396" lon="-8.6346511636">
        <ele>144.82</ele>
        <time>2019-12-29T15:06:39Z</time>
      </trkpt>
      <trkpt lat="37.8801775910" lon="-8.6346846074">
        <ele>144.82</ele>
        <time>2019-12-29T15:06:55Z</time>
      </trkpt>
      <trkpt lat="37.8803316504" lon="-8.6347274389">
        <ele>145.30</ele>
        <time>2019-12-29T15:07:08Z</time>
      </trkpt>
      <trkpt lat="37.8803818580" lon="-8.6347323842">
        <ele>145.30</ele>
        <time>2019-12-29T15:07:12Z</time>
      </trkpt>
      <trkpt lat="37.8804354183" lon="-8.6347566079">
        <ele>146.26</ele>
        <time>2019-12-29T15:07:17Z</time>
      </trkpt>
      <trkpt lat="37.8805098496" lon="-8.6347716954">
        <ele>146.26</ele>
        <time>2019-12-29T15:07:23Z</time>
      </trkpt>
      <trkpt lat="37.8806535993" lon="-8.6348106712">
        <ele>146.74</ele>
        <time>2019-12-29T15:07:35Z</time>
      </trkpt>
      <trkpt lat="37.8807387594" lon="-8.6348255072">
        <ele>146.74</ele>
        <time>2019-12-29T15:07:42Z</time>
      </trkpt>
      <trkpt lat="37.8809005301" lon="-8.6348611303">
        <ele>146.74</ele>
        <time>2019-12-29T15:07:55Z</time>
      </trkpt>
      <trkpt lat="37.8809932340" lon="-8.6348807439">
        <ele>146.74</ele>
        <time>2019-12-29T15:08:03Z</time>
      </trkpt>
      <trkpt lat="37.8811545018" lon="-8.6348966695">
        <ele>146.74</ele>
        <time>2019-12-29T15:08:16Z</time>
      </trkpt>
      <trkpt lat="37.8813000955" lon="-8.6348850187">
        <ele>146.26</ele>
        <time>2019-12-29T15:08:28Z</time>
      </trkpt>
      <trkpt lat="37.8814518079" lon="-8.6348535866">
        <ele>146.74</ele>
        <time>2019-12-29T15:08:40Z</time>
      </trkpt>
      <trkpt lat="37.8816275764" lon="-8.6348017864">
        <ele>146.74</ele>
        <time>2019-12-29T15:08:54Z</time>
      </trkpt>
      <trkpt lat="37.8818154987" lon="-8.6347393412">
        <ele>146.74</ele>
        <time>2019-12-29T15:09:10Z</time>
      </trkpt>
      <trkpt lat="37.8819587454" lon="-8.6347039696">
        <ele>146.74</ele>
        <time>2019-12-29T15:09:22Z</time>
      </trkpt>
      <trkpt lat="37.8821408842" lon="-8.6346359085">
        <ele>146.26</ele>
        <time>2019-12-29T15:09:37Z</time>
      </trkpt>
      <trkpt lat="37.8823089413" lon="-8.6345799174">
        <ele>146.74</ele>
        <time>2019-12-29T15:09:52Z</time>
      </trkpt>
      <trkpt lat="37.8824592289" lon="-8.6345291231">
        <ele>146.74</ele>
        <time>2019-12-29T15:10:04Z</time>
      </trkpt>
      <trkpt lat="37.8825214226" lon="-8.6345171370">
        <ele>147.22</ele>
        <time>2019-12-29T15:10:09Z</time>
      </trkpt>
      <trkpt lat="37.8826179821" lon="-8.6344730482">
        <ele>147.22</ele>
        <time>2019-12-29T15:10:17Z</time>
      </trkpt>
      <trkpt lat="37.8826650884" lon="-8.6344698630">
        <ele>147.70</ele>
        <time>2019-12-29T15:10:21Z</time>
      </trkpt>
      <trkpt lat="37.8828252666" lon="-8.6344054900">
        <ele>148.66</ele>
        <time>2019-12-29T15:10:34Z</time>
      </trkpt>
      <trkpt lat="37.8829370812" lon="-8.6343664303">
        <ele>149.14</ele>
        <time>2019-12-29T15:10:43Z</time>
      </trkpt>
      <trkpt lat="37.8829512466" lon="-8.6343634129">
        <ele>149.14</ele>
        <time>2019-12-29T15:10:44Z</time>
      </trkpt>
      <trkpt lat="37.8831006959" lon="-8.6343050748">
        <ele>150.58</ele>
        <time>2019-12-29T15:10:57Z</time>
      </trkpt>
      <trkpt lat="37.8832446132" lon="-8.6342476588">
        <ele>151.06</ele>
        <time>2019-12-29T15:11:09Z</time>
      </trkpt>
      <trkpt lat="37.8833954874" lon="-8.6341938470">
        <ele>151.54</ele>
        <time>2019-12-29T15:11:21Z</time>
      </trkpt>
      <trkpt lat="37.8835361358" lon="-8.6341563798">
        <ele>151.54</ele>
        <time>2019-12-29T15:11:33Z</time>
      </trkpt>
      <trkpt lat="37.8836940508" lon="-8.6341342516">
        <ele>151.06</ele>
        <time>2019-12-29T15:11:46Z</time>
      </trkpt>
      <trkpt lat="37.8838323522" lon="-8.6341270432">
        <ele>151.06</ele>
        <time>2019-12-29T15:11:57Z</time>
      </trkpt>
      <trkpt lat="37.8840207774" lon="-8.6341513507">
        <ele>149.62</ele>
        <time>2019-12-29T15:12:12Z</time>
      </trkpt>
      <trkpt lat="37.8842202667" lon="-8.6342142150">
        <ele>148.66</ele>
        <time>2019-12-29T15:12:29Z</time>
      </trkpt>
      <trkpt lat="37.8843869828" lon="-8.6342728045">
        <ele>148.66</ele>
        <time>2019-12-29T15:12:43Z</time>
      </trkpt>
      <trkpt lat="37.8843984660" lon="-8.6342783365">
        <ele>148.66</ele>
        <time>2019-12-29T15:12:44Z</time>
      </trkpt>
      <trkpt lat="37.8844551276" lon="-8.6342991237">
        <ele>148.66</ele>
        <time>2019-12-29T15:12:49Z</time>
      </trkpt>
      <trkpt lat="37.8845203388" lon="-8.6343359202">
        <ele>149.14</ele>
        <time>2019-12-29T15:12:55Z</time>
      </trkpt>
      <trkpt lat="37.8845982067" lon="-8.6343905702">
        <ele>149.14</ele>
        <time>2019-12-29T15:13:03Z</time>
      </trkpt>
      <trkpt lat="37.8847704548" lon="-8.6344747245">
        <ele>149.62</ele>
        <time>2019-12-29T15:13:18Z</time>
      </trkpt>
      <trkpt lat="37.8847815190" lon="-8.6344824359">
        <ele>150.10</ele>
        <time>2019-12-29T15:13:19Z</time>
      </trkpt>
      <trkpt lat="37.8848527651" lon="-8.6345267761">
        <ele>150.10</ele>
        <time>2019-12-29T15:13:26Z</time>
      </trkpt>
      <trkpt lat="37.8848893940" lon="-8.6345438752">
        <ele>150.10</ele>
        <time>2019-12-29T15:13:29Z</time>
      </trkpt>
      <trkpt lat="37.8849526774" lon="-8.6345860362">
        <ele>150.10</ele>
        <time>2019-12-29T15:13:35Z</time>
      </trkpt>
      <trkpt lat="37.8849935811" lon="-8.6346095894">
        <ele>150.10</ele>
        <time>2019-12-29T15:13:39Z</time>
      </trkpt>
      <trkpt lat="37.8850271925" lon="-8.6346322205">
        <ele>150.10</ele>
        <time>2019-12-29T15:13:42Z</time>
      </trkpt>
      <trkpt lat="37.8850931581" lon="-8.6347188056">
        <ele>150.10</ele>
        <time>2019-12-29T15:13:50Z</time>
      </trkpt>
      <trkpt lat="37.8851644043" lon="-8.6348057259">
        <ele>149.62</ele>
        <time>2019-12-29T15:13:58Z</time>
      </trkpt>
      <trkpt lat="37.8852840140" lon="-8.6349704303">
        <ele>148.66</ele>
        <time>2019-12-29T15:14:13Z</time>
      </trkpt>
      <trkpt lat="37.8852997720" lon="-8.6350083165">
        <ele>148.66</ele>
        <time>2019-12-29T15:14:16Z</time>
      </trkpt>
      <trkpt lat="37.8853287734" lon="-8.6350679118">
        <ele>149.14</ele>
        <time>2019-12-29T15:14:21Z</time>
      </trkpt>
      <trkpt lat="37.8853493091" lon="-8.6351083126">
        <ele>149.14</ele>
        <time>2019-12-29T15:14:24Z</time>
      </trkpt>
      <trkpt lat="37.8854066413" lon="-8.6352259945">
        <ele>149.14</ele>
        <time>2019-12-29T15:14:33Z</time>
      </trkpt>
      <trkpt lat="37.8854483832" lon="-8.6353347078">
        <ele>148.66</ele>
        <time>2019-12-29T15:14:43Z</time>
      </trkpt>
      <trkpt lat="37.8854524065" lon="-8.6353741027">
        <ele>148.66</ele>
        <time>2019-12-29T15:14:56Z</time>
      </trkpt>
      <trkpt lat="37.8854631353" lon="-8.6353744380">
        <ele>148.66</ele>
        <time>2019-12-29T15:14:57Z</time>
      </trkpt>
      <trkpt lat="37.8855246585" lon="-8.6353659723">
        <ele>148.18</ele>
        <time>2019-12-29T15:15:02Z</time>
      </trkpt>
      <trkpt lat="37.8856327850" lon="-8.6353348754">
        <ele>147.70</ele>
        <time>2019-12-29T15:15:11Z</time>
      </trkpt>
      <trkpt lat="37.8857963160" lon="-8.6351993401">
        <ele>147.22</ele>
        <time>2019-12-29T15:15:27Z</time>
      </trkpt>
      <trkpt lat="37.8859513812" lon="-8.6350609548">
        <ele>147.22</ele>
        <time>2019-12-29T15:15:41Z</time>
      </trkpt>
      <trkpt lat="37.8860641178" lon="-8.6349595338">
        <ele>145.78</ele>
        <time>2019-12-29T15:15:53Z</time>
      </trkpt>
      <trkpt lat="37.8862201888" lon="-8.6348200589">
        <ele>146.26</ele>
        <time>2019-12-29T15:16:08Z</time>
      </trkpt>
      <trkpt lat="37.8863503598" lon="-8.6347006168">
        <ele>145.78</ele>
        <time>2019-12-29T15:16:21Z</time>
      </trkpt>
      <trkpt lat="37.8864264674" lon="-8.6346309632">
        <ele>145.30</ele>
        <time>2019-12-29T15:16:29Z</time>
      </trkpt>
      <trkpt lat="37.8865783475" lon="-8.6344655044">
        <ele>145.30</ele>
        <time>2019-12-29T15:16:46Z</time>
      </trkpt>
      <trkpt lat="37.8867276292" lon="-8.6343211681">
        <ele>144.34</ele>
        <time>2019-12-29T15:17:01Z</time>
      </trkpt>
      <trkpt lat="37.8868445568" lon="-8.6341612414">
        <ele>143.85</ele>
        <time>2019-12-29T15:17:15Z</time>
      </trkpt>
      <trkpt lat="37.8869624063" lon="-8.6339977104">
        <ele>143.85</ele>
        <time>2019-12-29T15:17:30Z</time>
      </trkpt>
      <trkpt lat="37.8870220855" lon="-8.6339273024">
        <ele>143.37</ele>
        <time>2019-12-29T15:17:37Z</time>
      </trkpt>
      <trkpt lat="37.8870422859" lon="-8.6339207646">
        <ele>143.37</ele>
        <time>2019-12-29T15:17:39Z</time>
      </trkpt>
      <trkpt lat="37.8870792501" lon="-8.6339332536">
        <ele>143.85</ele>
        <time>2019-12-29T15:17:52Z</time>
      </trkpt>
      <trkpt lat="37.8871358279" lon="-8.6339526158">
        <ele>143.37</ele>
        <time>2019-12-29T15:18:00Z</time>
      </trkpt>
      <trkpt lat="37.8872672562" lon="-8.6339928489">
        <ele>144.34</ele>
        <time>2019-12-29T15:18:13Z</time>
      </trkpt>
      <trkpt lat="37.8873628937" lon="-8.6339573096">
        <ele>144.34</ele>
        <time>2019-12-29T15:18:22Z</time>
      </trkpt>
      <trkpt lat="37.8874748759" lon="-8.6338667851">
        <ele>144.34</ele>
        <time>2019-12-29T15:18:34Z</time>
      </trkpt>
      <trkpt lat="37.8876001853" lon="-8.6337723210">
        <ele>146.74</ele>
        <time>2019-12-29T15:18:48Z</time>
      </trkpt>
      <trkpt lat="37.8876067232" lon="-8.6337704770">
        <ele>146.26</ele>
        <time>2019-12-29T15:18:54Z</time>
      </trkpt>
      <trkpt lat="37.8876221459" lon="-8.6337581556">
        <ele>146.74</ele>
        <time>2019-12-29T15:18:56Z</time>
      </trkpt>
      <trkpt lat="37.8876998462" lon="-8.6337172519">
        <ele>147.22</ele>
        <time>2019-12-29T15:19:04Z</time>
      </trkpt>
      <trkpt lat="37.8877373133" lon="-8.6336959619">
        <ele>147.22</ele>
        <time>2019-12-29T15:19:08Z</time>
      </trkpt>
      <trkpt lat="37.8877938911" lon="-8.6336706486">
        <ele>147.22</ele>
        <time>2019-12-29T15:19:14Z</time>
      </trkpt>
      <trkpt lat="37.8878135048" lon="-8.6336630210">
        <ele>147.70</ele>
        <time>2019-12-29T15:19:16Z</time>
      </trkpt>
      <trkpt lat="37.8878338728" lon="-8.6336578242">
        <ele>147.22</ele>
        <time>2019-12-29T15:19:18Z</time>
      </trkpt>
      <trkpt lat="37.8878643829" lon="-8.6336489394">
        <ele>147.22</ele>
        <time>2019-12-29T15:19:21Z</time>
      </trkpt>
      <trkpt lat="37.8879621997" lon="-8.6336189322">
        <ele>147.70</ele>
        <time>2019-12-29T15:19:30Z</time>
      </trkpt>
      <trkpt lat="37.8880795464" lon="-8.6335920263">
        <ele>147.22</ele>
        <time>2019-12-29T15:19:40Z</time>
      </trkpt>
      <trkpt lat="37.8881991562" lon="-8.6335699819">
        <ele>146.74</ele>
        <time>2019-12-29T15:19:49Z</time>
      </trkpt>
      <trkpt lat="37.8883263096" lon="-8.6335740890">
        <ele>146.74</ele>
        <time>2019-12-29T15:20:00Z</time>
      </trkpt>
      <trkpt lat="37.8884723224" lon="-8.6336337682">
        <ele>145.78</ele>
        <time>2019-12-29T15:20:13Z</time>
      </trkpt>
      <trkpt lat="37.8885525372" lon="-8.6336786952">
        <ele>145.30</ele>
        <time>2019-12-29T15:20:20Z</time>
      </trkpt>
      <trkpt lat="37.8886552155" lon="-8.6337141506">
        <ele>145.30</ele>
        <time>2019-12-29T15:20:29Z</time>
      </trkpt>
      <trkpt lat="37.8886975441" lon="-8.6337341834">
        <ele>145.78</ele>
        <time>2019-12-29T15:20:33Z</time>
      </trkpt>
      <trkpt lat="37.8887288086" lon="-8.6337546352">
        <ele>145.78</ele>
        <time>2019-12-29T15:20:36Z</time>
      </trkpt>
      <trkpt lat="37.8887837101" lon="-8.6337747518">
        <ele>145.30</ele>
        <time>2019-12-29T15:20:41Z</time>
      </trkpt>
      <trkpt lat="37.8888365161" lon="-8.6338103749">
        <ele>145.30</ele>
        <time>2019-12-29T15:20:46Z</time>
      </trkpt>
      <trkpt lat="37.8889989574" lon="-8.6338861473">
        <ele>145.30</ele>
        <time>2019-12-29T15:21:01Z</time>
      </trkpt>
      <trkpt lat="37.8890631627" lon="-8.6339148134">
        <ele>145.78</ele>
        <time>2019-12-29T15:21:07Z</time>
      </trkpt>
      <trkpt lat="37.8891188186" lon="-8.6339361034">
        <ele>145.78</ele>
        <time>2019-12-29T15:21:12Z</time>
      </trkpt>
      <trkpt lat="37.8891494125" lon="-8.6339550465">
        <ele>146.26</ele>
        <time>2019-12-29T15:21:15Z</time>
      </trkpt>
      <trkpt lat="37.8892408591" lon="-8.6340112053">
        <ele>145.78</ele>
        <time>2019-12-29T15:21:24Z</time>
      </trkpt>
      <trkpt lat="37.8892805893" lon="-8.6340383627">
        <ele>145.30</ele>
        <time>2019-12-29T15:21:28Z</time>
      </trkpt>
      <trkpt lat="37.8894007020" lon="-8.6340951081">
        <ele>145.30</ele>
        <time>2019-12-29T15:21:39Z</time>
      </trkpt>
      <trkpt lat="37.8895514924" lon="-8.6341575533">
        <ele>143.85</ele>
        <time>2019-12-29T15:21:52Z</time>
      </trkpt>
      <trkpt lat="37.8896445315" lon="-8.6341754068">
        <ele>143.37</ele>
        <time>2019-12-29T15:22:00Z</time>
      </trkpt>
      <trkpt lat="37.8896933142" lon="-8.6342003010">
        <ele>143.37</ele>
        <time>2019-12-29T15:22:04Z</time>
      </trkpt>
      <trkpt lat="37.8897625487" lon="-8.6342350859">
        <ele>142.89</ele>
        <time>2019-12-29T15:22:10Z</time>
      </trkpt>
      <trkpt lat="37.8897868562" lon="-8.6342436355">
        <ele>142.89</ele>
        <time>2019-12-29T15:22:12Z</time>
      </trkpt>
      <trkpt lat="37.8899771255" lon="-8.6343524326">
        <ele>141.93</ele>
        <time>2019-12-29T15:22:29Z</time>
      </trkpt>
      <trkpt lat="37.8901311010" lon="-8.6344639957">
        <ele>141.45</ele>
        <time>2019-12-29T15:22:44Z</time>
      </trkpt>
      <trkpt lat="37.8901433386" lon="-8.6344714556">
        <ele>141.45</ele>
        <time>2019-12-29T15:22:45Z</time>
      </trkpt>
      <trkpt lat="37.8902720846" lon="-8.6345659196">
        <ele>141.93</ele>
        <time>2019-12-29T15:22:57Z</time>
      </trkpt>
      <trkpt lat="37.8903201129" lon="-8.6346089188">
        <ele>141.45</ele>
        <time>2019-12-29T15:23:02Z</time>
      </trkpt>
      <trkpt lat="37.8903423250" lon="-8.6346224137">
        <ele>141.45</ele>
        <time>2019-12-29T15:23:04Z</time>
      </trkpt>
      <trkpt lat="37.8903614357" lon="-8.6346356571">
        <ele>141.45</ele>
        <time>2019-12-29T15:23:06Z</time>
      </trkpt>
      <trkpt lat="37.8904556483" lon="-8.6346975155">
        <ele>141.45</ele>
        <time>2019-12-29T15:23:15Z</time>
      </trkpt>
      <trkpt lat="37.8905995656" lon="-8.6347718630">
        <ele>141.45</ele>
        <time>2019-12-29T15:23:28Z</time>
      </trkpt>
      <trkpt lat="37.8906715661" lon="-8.6348189693">
        <ele>141.93</ele>
        <time>2019-12-29T15:23:35Z</time>
      </trkpt>
      <trkpt lat="37.8906897549" lon="-8.6348227412">
        <ele>141.93</ele>
        <time>2019-12-29T15:23:37Z</time>
      </trkpt>
      <trkpt lat="37.8908057604" lon="-8.6348848511">
        <ele>142.41</ele>
        <time>2019-12-29T15:23:48Z</time>
      </trkpt>
      <trkpt lat="37.8908545431" lon="-8.6349147744">
        <ele>142.41</ele>
        <time>2019-12-29T15:23:53Z</time>
      </trkpt>
      <trkpt lat="37.8908745758" lon="-8.6349309515">
        <ele>142.41</ele>
        <time>2019-12-29T15:23:55Z</time>
      </trkpt>
      <trkpt lat="37.8909661062" lon="-8.6350059696">
        <ele>142.41</ele>
        <time>2019-12-29T15:24:04Z</time>
      </trkpt>
      <trkpt lat="37.8910110332" lon="-8.6350366473">
        <ele>142.89</ele>
        <time>2019-12-29T15:24:08Z</time>
      </trkpt>
      <trkpt lat="37.8911185730" lon="-8.6350975838">
        <ele>142.89</ele>
        <time>2019-12-29T15:24:18Z</time>
      </trkpt>
      <trkpt lat="37.8912521806" lon="-8.6351741944">
        <ele>142.89</ele>
        <time>2019-12-29T15:24:31Z</time>
      </trkpt>
      <trkpt lat="37.8913250193" lon="-8.6352362204">
        <ele>142.89</ele>
        <time>2019-12-29T15:24:38Z</time>
      </trkpt>
      <trkpt lat="37.8914032225" lon="-8.6352859251">
        <ele>142.89</ele>
        <time>2019-12-29T15:24:45Z</time>
      </trkpt>
      <trkpt lat="37.8915105946" lon="-8.6353603564">
        <ele>143.37</ele>
        <time>2019-12-29T15:24:55Z</time>
      </trkpt>
      <trkpt lat="37.8915364947" lon="-8.6353871785">
        <ele>142.89</ele>
        <time>2019-12-29T15:24:58Z</time>
      </trkpt>
      <trkpt lat="37.8916893806" lon="-8.6354850791">
        <ele>143.37</ele>
        <time>2019-12-29T15:25:11Z</time>
      </trkpt>
      <trkpt lat="37.8918286879" lon="-8.6355777830">
        <ele>143.85</ele>
        <time>2019-12-29T15:25:24Z</time>
      </trkpt>
      <trkpt lat="37.8919503093" lon="-8.6356517952">
        <ele>144.82</ele>
        <time>2019-12-29T15:25:36Z</time>
      </trkpt>
      <trkpt lat="37.8920668177" lon="-8.6357405595">
        <ele>145.30</ele>
        <time>2019-12-29T15:25:48Z</time>
      </trkpt>
      <trkpt lat="37.8920840006" lon="-8.6357530486">
        <ele>145.30</ele>
        <time>2019-12-29T15:25:50Z</time>
      </trkpt>
      <trkpt lat="37.8921121638" lon="-8.6357232928">
        <ele>145.78</ele>
        <time>2019-12-29T15:25:53Z</time>
      </trkpt>
      <trkpt lat="37.8921413328" lon="-8.6357439961">
        <ele>145.78</ele>
        <time>2019-12-29T15:26:09Z</time>
      </trkpt>
      <trkpt lat="37.8921844997" lon="-8.6357750092">
        <ele>145.78</ele>
        <time>2019-12-29T15:26:25Z</time>
      </trkpt>
      <trkpt lat="37.8922051191" lon="-8.6358159967">
        <ele>145.78</ele>
        <time>2019-12-29T15:26:28Z</time>
      </trkpt>
      <trkpt lat="37.8922812268" lon="-8.6359005701">
        <ele>145.30</ele>
        <time>2019-12-29T15:26:36Z</time>
      </trkpt>
      <trkpt lat="37.8923152573" lon="-8.6359354388">
        <ele>145.78</ele>
        <time>2019-12-29T15:26:40Z</time>
      </trkpt>
      <trkpt lat="37.8923372179" lon="-8.6359454133">
        <ele>146.26</ele>
        <time>2019-12-29T15:26:42Z</time>
      </trkpt>
      <trkpt lat="37.8923926223" lon="-8.6359938607">
        <ele>145.78</ele>
        <time>2019-12-29T15:26:47Z</time>
      </trkpt>
      <trkpt lat="37.8925677203" lon="-8.6360701360">
        <ele>145.30</ele>
        <time>2019-12-29T15:27:03Z</time>
      </trkpt>
      <trkpt lat="37.8926603403" lon="-8.6361713056">
        <ele>144.82</ele>
        <time>2019-12-29T15:27:14Z</time>
      </trkpt>
      <trkpt lat="37.8927507810" lon="-8.6362844612">
        <ele>143.85</ele>
        <time>2019-12-29T15:27:26Z</time>
      </trkpt>
      <trkpt lat="37.8928008210" lon="-8.6363208387">
        <ele>143.37</ele>
        <time>2019-12-29T15:27:31Z</time>
      </trkpt>
      <trkpt lat="37.8928485140" lon="-8.6363670230">
        <ele>142.89</ele>
        <time>2019-12-29T15:27:36Z</time>
      </trkpt>
      <trkpt lat="37.8928788565" lon="-8.6364095192">
        <ele>142.89</ele>
        <time>2019-12-29T15:27:40Z</time>
      </trkpt>
      <trkpt lat="37.8929192573" lon="-8.6364852078">
        <ele>142.89</ele>
        <time>2019-12-29T15:27:46Z</time>
      </trkpt>
      <trkpt lat="37.8929722309" lon="-8.6365455575">
        <ele>142.89</ele>
        <time>2019-12-29T15:27:53Z</time>
      </trkpt>
      <trkpt lat="37.8929863125" lon="-8.6365681887">
        <ele>142.41</ele>
        <time>2019-12-29T15:27:55Z</time>
      </trkpt>
      <trkpt lat="37.8930602409" lon="-8.6366701964">
        <ele>142.41</ele>
        <time>2019-12-29T15:28:05Z</time>
      </trkpt>
      <trkpt lat="37.8931678645" lon="-8.6368445400">
        <ele>142.41</ele>
        <time>2019-12-29T15:28:19Z</time>
      </trkpt>
      <trkpt lat="37.8932227660" lon="-8.6369589530">
        <ele>142.89</ele>
        <time>2019-12-29T15:28:28Z</time>
      </trkpt>
      <trkpt lat="37.8932620771" lon="-8.6370454542">
        <ele>142.89</ele>
        <time>2019-12-29T15:28:34Z</time>
      </trkpt>
      <trkpt lat="37.8933108598" lon="-8.6371726915">
        <ele>143.37</ele>
        <time>2019-12-29T15:28:44Z</time>
      </trkpt>
      <trkpt lat="37.8933378495" lon="-8.6372099910">
        <ele>143.85</ele>
        <time>2019-12-29T15:28:48Z</time>
      </trkpt>
      <trkpt lat="37.8934134543" lon="-8.6373012699">
        <ele>144.82</ele>
        <time>2019-12-29T15:28:57Z</time>
      </trkpt>
      <trkpt lat="37.8934473172" lon="-8.6373389047">
        <ele>144.82</ele>
        <time>2019-12-29T15:29:01Z</time>
      </trkpt>
      <trkpt lat="37.8934814315" lon="-8.6373830773">
        <ele>145.30</ele>
        <time>2019-12-29T15:29:05Z</time>
      </trkpt>
      <trkpt lat="37.8935413621" lon="-8.6374494620">
        <ele>145.78</ele>
        <time>2019-12-29T15:29:11Z</time>
      </trkpt>
      <trkpt lat="37.8935575392" lon="-8.6374695785">
        <ele>145.78</ele>
        <time>2019-12-29T15:29:13Z</time>
      </trkpt>
      <trkpt lat="37.8936291207" lon="-8.6375875957">
        <ele>147.70</ele>
        <time>2019-12-29T15:29:23Z</time>
      </trkpt>
      <trkpt lat="37.8936843574" lon="-8.6376525555">
        <ele>148.18</ele>
        <time>2019-12-29T15:29:30Z</time>
      </trkpt>
      <trkpt lat="37.8937058989" lon="-8.6376695707">
        <ele>148.18</ele>
        <time>2019-12-29T15:29:32Z</time>
      </trkpt>
      <trkpt lat="37.8937728703" lon="-8.6377792060">
        <ele>148.18</ele>
        <time>2019-12-29T15:29:41Z</time>
      </trkpt>
      <trkpt lat="37.8938157856" lon="-8.6378836446">
        <ele>148.18</ele>
        <time>2019-12-29T15:29:48Z</time>
      </trkpt>
      <trkpt lat="37.8939555958" lon="-8.6380762607">
        <ele>146.26</ele>
        <time>2019-12-29T15:30:04Z</time>
      </trkpt>
      <trkpt lat="37.8940685838" lon="-8.6381643545">
        <ele>145.30</ele>
        <time>2019-12-29T15:30:15Z</time>
      </trkpt>
      <trkpt lat="37.8942297678" lon="-8.6382915080">
        <ele>143.85</ele>
        <time>2019-12-29T15:30:31Z</time>
      </trkpt>
      <trkpt lat="37.8943591006" lon="-8.6383697111">
        <ele>141.93</ele>
        <time>2019-12-29T15:30:42Z</time>
      </trkpt>
      <trkpt lat="37.8944056202" lon="-8.6384006403">
        <ele>142.41</ele>
        <time>2019-12-29T15:30:46Z</time>
      </trkpt>
      <trkpt lat="37.8944882657" lon="-8.6384609062">
        <ele>141.45</ele>
        <time>2019-12-29T15:30:53Z</time>
      </trkpt>
      <trkpt lat="37.8946278244" lon="-8.6386253592">
        <ele>140.49</ele>
        <time>2019-12-29T15:31:08Z</time>
      </trkpt>
      <trkpt lat="37.8946658783" lon="-8.6386707053">
        <ele>140.49</ele>
        <time>2019-12-29T15:31:12Z</time>
      </trkpt>
      <trkpt lat="37.8947711550" lon="-8.6387756467">
        <ele>140.49</ele>
        <time>2019-12-29T15:31:23Z</time>
      </trkpt>
      <trkpt lat="37.8948212788" lon="-8.6388188973">
        <ele>140.49</ele>
        <time>2019-12-29T15:31:28Z</time>
      </trkpt>
      <trkpt lat="37.8948546387" lon="-8.6388235912">
        <ele>140.49</ele>
        <time>2019-12-29T15:31:31Z</time>
      </trkpt>
      <trkpt lat="37.8949399665" lon="-8.6388918199">
        <ele>140.49</ele>
        <time>2019-12-29T15:31:39Z</time>
      </trkpt>
      <trkpt lat="37.8950014059" lon="-8.6389470566">
        <ele>140.49</ele>
        <time>2019-12-29T15:31:45Z</time>
      </trkpt>
      <trkpt lat="37.8950402141" lon="-8.6390042212">
        <ele>140.01</ele>
        <time>2019-12-29T15:31:50Z</time>
      </trkpt>
      <trkpt lat="37.8950799443" lon="-8.6390944943">
        <ele>140.49</ele>
        <time>2019-12-29T15:31:56Z</time>
      </trkpt>
      <trkpt lat="37.8951408807" lon="-8.6391874496">
        <ele>140.49</ele>
        <time>2019-12-29T15:32:04Z</time>
      </trkpt>
      <trkpt lat="37.8951599076" lon="-8.6392268445">
        <ele>140.49</ele>
        <time>2019-12-29T15:32:07Z</time>
      </trkpt>
      <trkpt lat="37.8952599876" lon="-8.6393301096">
        <ele>141.45</ele>
        <time>2019-12-29T15:32:17Z</time>
      </trkpt>
      <trkpt lat="37.8952684533" lon="-8.6393412575">
        <ele>141.45</ele>
        <time>2019-12-29T15:32:18Z</time>
      </trkpt>
      <trkpt lat="37.8953597322" lon="-8.6394004337">
        <ele>142.41</ele>
        <time>2019-12-29T15:32:26Z</time>
      </trkpt>
      <trkpt lat="37.8954543639" lon="-8.6395207141">
        <ele>142.89</ele>
        <time>2019-12-29T15:32:37Z</time>
      </trkpt>
      <trkpt lat="37.8954598121" lon="-8.6395517271">
        <ele>143.37</ele>
        <time>2019-12-29T15:32:39Z</time>
      </trkpt>
      <trkpt lat="37.8954794258" lon="-8.6396061257">
        <ele>143.37</ele>
        <time>2019-12-29T15:32:43Z</time>
      </trkpt>
      <trkpt lat="37.8955004644" lon="-8.6396502983">
        <ele>143.37</ele>
        <time>2019-12-29T15:32:46Z</time>
      </trkpt>
      <trkpt lat="37.8955676034" lon="-8.6398092192">
        <ele>144.82</ele>
        <time>2019-12-29T15:32:57Z</time>
      </trkpt>
      <trkpt lat="37.8956434596" lon="-8.6399715766">
        <ele>144.82</ele>
        <time>2019-12-29T15:33:09Z</time>
      </trkpt>
      <trkpt lat="37.8956710361" lon="-8.6400236282">
        <ele>145.30</ele>
        <time>2019-12-29T15:33:13Z</time>
      </trkpt>
      <trkpt lat="37.8956839442" lon="-8.6400600895">
        <ele>145.78</ele>
        <time>2019-12-29T15:33:16Z</time>
      </trkpt>
      <trkpt lat="37.8957427014" lon="-8.6401707307">
        <ele>144.82</ele>
        <time>2019-12-29T15:33:25Z</time>
      </trkpt>
      <trkpt lat="37.8957965970" lon="-8.6402962077">
        <ele>145.78</ele>
        <time>2019-12-29T15:33:34Z</time>
      </trkpt>
      <trkpt lat="37.8958379198" lon="-8.6405060068">
        <ele>147.22</ele>
        <time>2019-12-29T15:33:48Z</time>
      </trkpt>
      <trkpt lat="37.8958979342" lon="-8.6406579707">
        <ele>148.66</ele>
        <time>2019-12-29T15:33:59Z</time>
      </trkpt>
      <trkpt lat="37.8959105071" lon="-8.6406898219">
        <ele>148.66</ele>
        <time>2019-12-29T15:34:01Z</time>
      </trkpt>
      <trkpt lat="37.8959432803" lon="-8.6408071686">
        <ele>149.62</ele>
        <time>2019-12-29T15:34:09Z</time>
      </trkpt>
      <trkpt lat="37.8959633131" lon="-8.6409159657">
        <ele>149.62</ele>
        <time>2019-12-29T15:34:16Z</time>
      </trkpt>
      <trkpt lat="37.8959788196" lon="-8.6409714539">
        <ele>150.10</ele>
        <time>2019-12-29T15:34:20Z</time>
      </trkpt>
      <trkpt lat="37.8959819209" lon="-8.6410038080">
        <ele>150.10</ele>
        <time>2019-12-29T15:34:22Z</time>
      </trkpt>
      <trkpt lat="37.8960294463" lon="-8.6411626451">
        <ele>151.06</ele>
        <time>2019-12-29T15:34:33Z</time>
      </trkpt>
      <trkpt lat="37.8960690927" lon="-8.6412847694">
        <ele>151.06</ele>
        <time>2019-12-29T15:34:42Z</time>
      </trkpt>
      <trkpt lat="37.8960878681" lon="-8.6413692590">
        <ele>151.06</ele>
        <time>2019-12-29T15:34:48Z</time>
      </trkpt>
      <trkpt lat="37.8961397521" lon="-8.6414923891">
        <ele>152.03</ele>
        <time>2019-12-29T15:34:57Z</time>
      </trkpt>
      <trkpt lat="37.8961938992" lon="-8.6415870208">
        <ele>152.03</ele>
        <time>2019-12-29T15:35:04Z</time>
      </trkpt>
      <trkpt lat="37.8962337971" lon="-8.6416543275">
        <ele>152.51</ele>
        <time>2019-12-29T15:35:09Z</time>
      </trkpt>
      <trkpt lat="37.8962608706" lon="-8.6417241488">
        <ele>152.51</ele>
        <time>2019-12-29T15:35:14Z</time>
      </trkpt>
      <trkpt lat="37.8963101562" lon="-8.6417797208">
        <ele>152.51</ele>
        <time>2019-12-29T15:35:19Z</time>
      </trkpt>
      <trkpt lat="37.8963358887" lon="-8.6418444291">
        <ele>152.99</ele>
        <time>2019-12-29T15:35:24Z</time>
      </trkpt>
      <trkpt lat="37.8963657282" lon="-8.6418684013">
        <ele>152.99</ele>
        <time>2019-12-29T15:35:27Z</time>
      </trkpt>
      <trkpt lat="37.8964830749" lon="-8.6420226283">
        <ele>152.99</ele>
        <time>2019-12-29T15:35:40Z</time>
      </trkpt>
      <trkpt lat="37.8965724260" lon="-8.6421246361">
        <ele>152.99</ele>
        <time>2019-12-29T15:35:49Z</time>
      </trkpt>
      <trkpt lat="37.8966609389" lon="-8.6422595009">
        <ele>152.99</ele>
        <time>2019-12-29T15:36:00Z</time>
      </trkpt>
      <trkpt lat="37.8967139963" lon="-8.6423511151">
        <ele>152.99</ele>
        <time>2019-12-29T15:36:07Z</time>
      </trkpt>
      <trkpt lat="37.8968189377" lon="-8.6425190885">
        <ele>151.54</ele>
        <time>2019-12-29T15:36:20Z</time>
      </trkpt>
      <trkpt lat="37.8968478553" lon="-8.6426397040">
        <ele>150.58</ele>
        <time>2019-12-29T15:36:28Z</time>
      </trkpt>
      <trkpt lat="37.8968578298" lon="-8.6426808592">
        <ele>149.62</ele>
        <time>2019-12-29T15:36:31Z</time>
      </trkpt>
      <trkpt lat="37.8969006613" lon="-8.6428132933">
        <ele>147.70</ele>
        <time>2019-12-29T15:36:40Z</time>
      </trkpt>
      <trkpt lat="37.8969159164" lon="-8.6428659316">
        <ele>147.22</ele>
        <time>2019-12-29T15:36:43Z</time>
      </trkpt>
      <trkpt lat="37.8969709016" lon="-8.6430538539">
        <ele>145.78</ele>
        <time>2019-12-29T15:36:56Z</time>
      </trkpt>
      <trkpt lat="37.8970604204" lon="-8.6432652455">
        <ele>143.37</ele>
        <time>2019-12-29T15:37:11Z</time>
      </trkpt>
      <trkpt lat="37.8972041700" lon="-8.6434147786">
        <ele>140.97</ele>
        <time>2019-12-29T15:37:26Z</time>
      </trkpt>
      <trkpt lat="37.8973183315" lon="-8.6434601247">
        <ele>140.01</ele>
        <time>2019-12-29T15:37:41Z</time>
      </trkpt>
      <trkpt lat="37.8973183315" lon="-8.6434601247">
        <ele>140.01</ele>
        <time>2019-12-29T15:37:55Z</time>
      </trkpt>
      <trkpt lat="37.8974092752" lon="-8.6435274314">
        <ele>139.53</ele>
        <time>2019-12-29T15:38:03Z</time>
      </trkpt>
      <trkpt lat="37.8975960240" lon="-8.6435995996">
        <ele>138.57</ele>
        <time>2019-12-29T15:38:17Z</time>
      </trkpt>
      <trkpt lat="37.8976192418" lon="-8.6436129268">
        <ele>139.05</ele>
        <time>2019-12-29T15:38:19Z</time>
      </trkpt>
      <trkpt lat="37.8977768216" lon="-8.6436177045">
        <ele>138.57</ele>
        <time>2019-12-29T15:38:32Z</time>
      </trkpt>
      <trkpt lat="37.8979120217" lon="-8.6435959116">
        <ele>139.53</ele>
        <time>2019-12-29T15:38:43Z</time>
      </trkpt>
      <trkpt lat="37.8979533445" lon="-8.6435927264">
        <ele>139.53</ele>
        <time>2019-12-29T15:38:46Z</time>
      </trkpt>
      <trkpt lat="37.8980828449" lon="-8.6436130106">
        <ele>140.49</ele>
        <time>2019-12-29T15:38:57Z</time>
      </trkpt>
      <trkpt lat="37.8981004469" lon="-8.6436310317">
        <ele>141.45</ele>
        <time>2019-12-29T15:38:59Z</time>
      </trkpt>
      <trkpt lat="37.8982418496" lon="-8.6436679959">
        <ele>142.41</ele>
        <time>2019-12-29T15:39:11Z</time>
      </trkpt>
      <trkpt lat="37.8983343020" lon="-8.6437050439">
        <ele>142.89</ele>
        <time>2019-12-29T15:39:18Z</time>
      </trkpt>
      <trkpt lat="37.8984173667" lon="-8.6437253281">
        <ele>143.37</ele>
        <time>2019-12-29T15:39:25Z</time>
      </trkpt>
      <trkpt lat="37.8984446079" lon="-8.6437381525">
        <ele>143.85</ele>
        <time>2019-12-29T15:39:27Z</time>
      </trkpt>
      <trkpt lat="37.8984714299" lon="-8.6437356379">
        <ele>143.85</ele>
        <time>2019-12-29T15:39:29Z</time>
      </trkpt>
      <trkpt lat="37.8985264152" lon="-8.6437536590">
        <ele>144.34</ele>
        <time>2019-12-29T15:39:34Z</time>
      </trkpt>
      <trkpt lat="37.8986045346" lon="-8.6437772121">
        <ele>144.82</ele>
        <time>2019-12-29T15:39:41Z</time>
      </trkpt>
      <trkpt lat="37.8986697458" lon="-8.6438130867">
        <ele>145.78</ele>
        <time>2019-12-29T15:39:54Z</time>
      </trkpt>
      <trkpt lat="37.8986866772" lon="-8.6438156851">
        <ele>144.82</ele>
        <time>2019-12-29T15:40:09Z</time>
      </trkpt>
      <trkpt lat="37.8987166006" lon="-8.6438210495">
        <ele>146.26</ele>
        <time>2019-12-29T15:40:12Z</time>
      </trkpt>
      <trkpt lat="37.8987420816" lon="-8.6438461114">
        <ele>146.26</ele>
        <time>2019-12-29T15:40:15Z</time>
      </trkpt>
      <trkpt lat="37.8987898584" lon="-8.6438696645">
        <ele>145.78</ele>
        <time>2019-12-29T15:40:20Z</time>
      </trkpt>
      <trkpt lat="37.8988586739" lon="-8.6439098977">
        <ele>144.82</ele>
        <time>2019-12-29T15:40:28Z</time>
      </trkpt>
      <trkpt lat="37.8988927882" lon="-8.6439907830">
        <ele>143.85</ele>
        <time>2019-12-29T15:40:35Z</time>
      </trkpt>
      <trkpt lat="37.8989049420" lon="-8.6440268252">
        <ele>142.89</ele>
        <time>2019-12-29T15:40:38Z</time>
      </trkpt>
      <trkpt lat="37.8989776131" lon="-8.6441733409">
        <ele>139.53</ele>
        <time>2019-12-29T15:40:50Z</time>
      </trkpt>
      <trkpt lat="37.8990065306" lon="-8.6442112271">
        <ele>139.05</ele>
        <time>2019-12-29T15:40:53Z</time>
      </trkpt>
      <trkpt lat="37.8991920222" lon="-8.6443138216">
        <ele>139.05</ele>
        <time>2019-12-29T15:41:09Z</time>
      </trkpt>
      <trkpt lat="37.8992289025" lon="-8.6443344411">
        <ele>139.53</ele>
        <time>2019-12-29T15:41:12Z</time>
      </trkpt>
      <trkpt lat="37.8993228637" lon="-8.6443934496">
        <ele>139.53</ele>
        <time>2019-12-29T15:41:20Z</time>
      </trkpt>
      <trkpt lat="37.8994506039" lon="-8.6444679648">
        <ele>140.49</ele>
        <time>2019-12-29T15:41:31Z</time>
      </trkpt>
      <trkpt lat="37.8995699622" lon="-8.6445683800">
        <ele>141.93</ele>
        <time>2019-12-29T15:41:44Z</time>
      </trkpt>
      <trkpt lat="37.8996678628" lon="-8.6446340941">
        <ele>142.41</ele>
        <time>2019-12-29T15:41:53Z</time>
      </trkpt>
      <trkpt lat="37.8997256979" lon="-8.6446608324">
        <ele>143.37</ele>
        <time>2019-12-29T15:41:58Z</time>
      </trkpt>
      <trkpt lat="37.8998046555" lon="-8.6446957011">
        <ele>144.34</ele>
        <time>2019-12-29T15:42:05Z</time>
      </trkpt>
      <trkpt lat="37.8999389336" lon="-8.6447465792">
        <ele>145.78</ele>
        <time>2019-12-29T15:42:16Z</time>
      </trkpt>
      <trkpt lat="37.8999531828" lon="-8.6447480880">
        <ele>146.26</ele>
        <time>2019-12-29T15:42:17Z</time>
      </trkpt>
      <trkpt lat="37.8999722097" lon="-8.6447607446">
        <ele>146.26</ele>
        <time>2019-12-29T15:42:19Z</time>
      </trkpt>
      <trkpt lat="37.9001110140" lon="-8.6448214296">
        <ele>146.74</ele>
        <time>2019-12-29T15:42:32Z</time>
      </trkpt>
      <trkpt lat="37.9002360720" lon="-8.6448934302">
        <ele>146.74</ele>
        <time>2019-12-29T15:42:43Z</time>
      </trkpt>
      <trkpt lat="37.9002836812" lon="-8.6449399497">
        <ele>146.74</ele>
        <time>2019-12-29T15:42:48Z</time>
      </trkpt>
      <trkpt lat="37.9003830906" lon="-8.6451193225">
        <ele>144.82</ele>
        <time>2019-12-29T15:43:04Z</time>
      </trkpt>
      <trkpt lat="37.9004027881" lon="-8.6451515090">
        <ele>144.82</ele>
        <time>2019-12-29T15:43:07Z</time>
      </trkpt>
      <trkpt lat="37.9004187137" lon="-8.6451690271">
        <ele>142.89</ele>
        <time>2019-12-29T15:43:09Z</time>
      </trkpt>
      <trkpt lat="37.9005042091" lon="-8.6453165486">
        <ele>140.49</ele>
        <time>2019-12-29T15:43:21Z</time>
      </trkpt>
      <trkpt lat="37.9006280936" lon="-8.6454627290">
        <ele>140.01</ele>
        <time>2019-12-29T15:43:34Z</time>
      </trkpt>
      <trkpt lat="37.9007425904" lon="-8.6455958337">
        <ele>138.09</ele>
        <time>2019-12-29T15:43:47Z</time>
      </trkpt>
      <trkpt lat="37.9007531516" lon="-8.6456195544">
        <ele>138.09</ele>
        <time>2019-12-29T15:43:49Z</time>
      </trkpt>
      <trkpt lat="37.9008919559" lon="-8.6457346380">
        <ele>137.13</ele>
        <time>2019-12-29T15:44:03Z</time>
      </trkpt>
      <trkpt lat="37.9010213725" lon="-8.6457637232">
        <ele>136.16</ele>
        <time>2019-12-29T15:44:13Z</time>
      </trkpt>
      <trkpt lat="37.9011103883" lon="-8.6457773019">
        <ele>135.20</ele>
        <time>2019-12-29T15:44:20Z</time>
      </trkpt>
      <trkpt lat="37.9011978116" lon="-8.6458788067">
        <ele>135.20</ele>
        <time>2019-12-29T15:44:31Z</time>
      </trkpt>
      <trkpt lat="37.9012119770" lon="-8.6458990909">
        <ele>135.68</ele>
        <time>2019-12-29T15:44:33Z</time>
      </trkpt>
      <trkpt lat="37.9012975562" lon="-8.6460262444">
        <ele>135.68</ele>
        <time>2019-12-29T15:44:44Z</time>
      </trkpt>
      <trkpt lat="37.9013346881" lon="-8.6460772902">
        <ele>136.16</ele>
        <time>2019-12-29T15:44:48Z</time>
      </trkpt>
      <trkpt lat="37.9013493564" lon="-8.6461015139">
        <ele>136.16</ele>
        <time>2019-12-29T15:44:50Z</time>
      </trkpt>
      <trkpt lat="37.9013769329" lon="-8.6461276654">
        <ele>135.68</ele>
        <time>2019-12-29T15:44:53Z</time>
      </trkpt>
      <trkpt lat="37.9014050961" lon="-8.6461716704">
        <ele>136.16</ele>
        <time>2019-12-29T15:44:57Z</time>
      </trkpt>
      <trkpt lat="37.9014654458" lon="-8.6462281644">
        <ele>135.20</ele>
        <time>2019-12-29T15:45:06Z</time>
      </trkpt>
      <trkpt lat="37.9014753364" lon="-8.6462336127">
        <ele>135.20</ele>
        <time>2019-12-29T15:45:08Z</time>
      </trkpt>
      <trkpt lat="37.9014912620" lon="-8.6462528072">
        <ele>134.72</ele>
        <time>2019-12-29T15:45:10Z</time>
      </trkpt>
      <trkpt lat="37.9015192576" lon="-8.6463446729">
        <ele>135.20</ele>
        <time>2019-12-29T15:45:18Z</time>
      </trkpt>
      <trkpt lat="37.9015741590" lon="-8.6463937070">
        <ele>135.68</ele>
        <time>2019-12-29T15:45:24Z</time>
      </trkpt>
      <trkpt lat="37.9016285576" lon="-8.6464666296">
        <ele>135.20</ele>
        <time>2019-12-29T15:45:31Z</time>
      </trkpt>
      <trkpt lat="37.9016418010" lon="-8.6464869138">
        <ele>135.68</ele>
        <time>2019-12-29T15:45:33Z</time>
      </trkpt>
      <trkpt lat="37.9016917571" lon="-8.6465508677">
        <ele>135.68</ele>
        <time>2019-12-29T15:45:45Z</time>
      </trkpt>
      <trkpt lat="37.9016917571" lon="-8.6465508677">
        <ele>135.68</ele>
        <time>2019-12-29T15:45:54Z</time>
      </trkpt>
      <trkpt lat="37.9017709661" lon="-8.6465784442">
        <ele>135.20</ele>
        <time>2019-12-29T15:46:01Z</time>
      </trkpt>
      <trkpt lat="37.9018346686" lon="-8.6466159113">
        <ele>135.68</ele>
        <time>2019-12-29T15:46:07Z</time>
      </trkpt>
      <trkpt lat="37.9019058309" lon="-8.6466473434">
        <ele>135.68</ele>
        <time>2019-12-29T15:46:14Z</time>
      </trkpt>
      <trkpt lat="37.9019472376" lon="-8.6466618441">
        <ele>135.68</ele>
        <time>2019-12-29T15:46:18Z</time>
      </trkpt>
      <trkpt lat="37.9019699525" lon="-8.6466610059">
        <ele>135.68</ele>
        <time>2019-12-29T15:46:20Z</time>
      </trkpt>
      <trkpt lat="37.9021371715" lon="-8.6466840561">
        <ele>136.16</ele>
        <time>2019-12-29T15:46:34Z</time>
      </trkpt>
      <trkpt lat="37.9021931626" lon="-8.6467046756">
        <ele>136.16</ele>
        <time>2019-12-29T15:46:39Z</time>
      </trkpt>
      <trkpt lat="37.9022269417" lon="-8.6467080284">
        <ele>136.16</ele>
        <time>2019-12-29T15:46:42Z</time>
      </trkpt>
      <trkpt lat="37.9023818392" lon="-8.6467454117">
        <ele>137.61</ele>
        <time>2019-12-29T15:46:56Z</time>
      </trkpt>
      <trkpt lat="37.9024046380" lon="-8.6467568949">
        <ele>137.13</ele>
        <time>2019-12-29T15:46:59Z</time>
      </trkpt>
      <trkpt lat="37.9024134390" lon="-8.6467775144">
        <ele>138.09</ele>
        <time>2019-12-29T15:47:06Z</time>
      </trkpt>
      <trkpt lat="37.9023989383" lon="-8.6468185857">
        <ele>137.61</ele>
        <time>2019-12-29T15:47:09Z</time>
      </trkpt>
      <trkpt lat="37.9023706913" lon="-8.6468488444">
        <ele>137.13</ele>
        <time>2019-12-29T15:47:13Z</time>
      </trkpt>
      <trkpt lat="37.9023593757" lon="-8.6469496787">
        <ele>136.64</ele>
        <time>2019-12-29T15:47:18Z</time>
      </trkpt>
      <trkpt lat="37.9023445398" lon="-8.6470992118">
        <ele>135.68</ele>
        <time>2019-12-29T15:47:30Z</time>
      </trkpt>
      <trkpt lat="37.9023851920" lon="-8.6472816858">
        <ele>135.68</ele>
        <time>2019-12-29T15:47:42Z</time>
      </trkpt>
      <trkpt lat="37.9023999441" lon="-8.6473496631">
        <ele>135.68</ele>
        <time>2019-12-29T15:47:47Z</time>
      </trkpt>
      <trkpt lat="37.9024856072" lon="-8.6475386750">
        <ele>135.68</ele>
        <time>2019-12-29T15:48:00Z</time>
      </trkpt>
      <trkpt lat="37.9025697615" lon="-8.6477006972">
        <ele>135.68</ele>
        <time>2019-12-29T15:48:14Z</time>
      </trkpt>
      <trkpt lat="37.9025835078" lon="-8.6477271840">
        <ele>136.16</ele>
        <time>2019-12-29T15:48:16Z</time>
      </trkpt>
      <trkpt lat="37.9026396666" lon="-8.6479301099">
        <ele>136.64</ele>
        <time>2019-12-29T15:48:30Z</time>
      </trkpt>
      <trkpt lat="37.9026794806" lon="-8.6481176130">
        <ele>136.64</ele>
        <time>2019-12-29T15:48:43Z</time>
      </trkpt>
      <trkpt lat="37.9026835877" lon="-8.6481594387">
        <ele>136.64</ele>
        <time>2019-12-29T15:48:56Z</time>
      </trkpt>
      <trkpt lat="37.9026842583" lon="-8.6481779628">
        <ele>137.13</ele>
        <time>2019-12-29T15:49:04Z</time>
      </trkpt>
      <trkpt lat="37.9026841745" lon="-8.6482052039">
        <ele>137.13</ele>
        <time>2019-12-29T15:49:06Z</time>
      </trkpt>
      <trkpt lat="37.9026668239" lon="-8.6482705828">
        <ele>137.13</ele>
        <time>2019-12-29T15:49:11Z</time>
      </trkpt>
      <trkpt lat="37.9026685003" lon="-8.6483599339">
        <ele>136.64</ele>
        <time>2019-12-29T15:49:18Z</time>
      </trkpt>
      <trkpt lat="37.9026617948" lon="-8.6483952217">
        <ele>136.16</ele>
        <time>2019-12-29T15:49:21Z</time>
      </trkpt>
      <trkpt lat="37.9026549216" lon="-8.6484429985">
        <ele>136.64</ele>
        <time>2019-12-29T15:49:25Z</time>
      </trkpt>
      <trkpt lat="37.9026378226" lon="-8.6484928709">
        <ele>136.64</ele>
        <time>2019-12-29T15:49:32Z</time>
      </trkpt>
      <trkpt lat="37.9026264232" lon="-8.6485144962">
        <ele>137.13</ele>
        <time>2019-12-29T15:49:34Z</time>
      </trkpt>
      <trkpt lat="37.9025834240" lon="-8.6486123130">
        <ele>137.13</ele>
        <time>2019-12-29T15:49:41Z</time>
      </trkpt>
      <trkpt lat="37.9025442805" lon="-8.6487381253">
        <ele>137.61</ele>
        <time>2019-12-29T15:49:50Z</time>
      </trkpt>
      <trkpt lat="37.9025055561" lon="-8.6489336751">
        <ele>137.61</ele>
        <time>2019-12-29T15:50:03Z</time>
      </trkpt>
      <trkpt lat="37.9024951626" lon="-8.6489741597">
        <ele>137.61</ele>
        <time>2019-12-29T15:50:06Z</time>
      </trkpt>
      <trkpt lat="37.9025071487" lon="-8.6490721442">
        <ele>138.09</ele>
        <time>2019-12-29T15:50:19Z</time>
      </trkpt>
      <trkpt lat="37.9025066458" lon="-8.6490827054">
        <ele>137.61</ele>
        <time>2019-12-29T15:50:29Z</time>
      </trkpt>
      <trkpt lat="37.9024985153" lon="-8.6491505988">
        <ele>138.09</ele>
        <time>2019-12-29T15:50:45Z</time>
      </trkpt>
      <trkpt lat="37.9025077354" lon="-8.6492977850">
        <ele>138.09</ele>
        <time>2019-12-29T15:50:55Z</time>
      </trkpt>
      <trkpt lat="37.9025069810" lon="-8.6493280437">
        <ele>138.57</ele>
        <time>2019-12-29T15:50:57Z</time>
      </trkpt>
      <trkpt lat="37.9025128484" lon="-8.6494577117">
        <ele>138.57</ele>
        <time>2019-12-29T15:51:07Z</time>
      </trkpt>
      <trkpt lat="37.9025031254" lon="-8.6496232543">
        <ele>139.53</ele>
        <time>2019-12-29T15:51:19Z</time>
      </trkpt>
      <trkpt lat="37.9024894629" lon="-8.6496787425">
        <ele>139.53</ele>
        <time>2019-12-29T15:51:23Z</time>
      </trkpt>
      <trkpt lat="37.9024548456" lon="-8.6497840192">
        <ele>140.01</ele>
        <time>2019-12-29T15:51:30Z</time>
      </trkpt>
      <trkpt lat="37.9024164565" lon="-8.6499346420">
        <ele>140.49</ele>
        <time>2019-12-29T15:51:41Z</time>
      </trkpt>
      <trkpt lat="37.9023918137" lon="-8.6499788985">
        <ele>140.97</ele>
        <time>2019-12-29T15:51:44Z</time>
      </trkpt>
      <trkpt lat="37.9023566097" lon="-8.6500812415">
        <ele>141.45</ele>
        <time>2019-12-29T15:51:51Z</time>
      </trkpt>
      <trkpt lat="37.9023269378" lon="-8.6501984205">
        <ele>141.45</ele>
        <time>2019-12-29T15:51:59Z</time>
      </trkpt>
      <trkpt lat="37.9023098387" lon="-8.6502530705">
        <ele>141.45</ele>
        <time>2019-12-29T15:52:03Z</time>
      </trkpt>
      <trkpt lat="37.9023264349" lon="-8.6504537333">
        <ele>141.45</ele>
        <time>2019-12-29T15:52:17Z</time>
      </trkpt>
      <trkpt lat="37.9023361579" lon="-8.6506188568">
        <ele>141.45</ele>
        <time>2019-12-29T15:52:28Z</time>
      </trkpt>
      <trkpt lat="37.9023359064" lon="-8.6506959703">
        <ele>141.93</ele>
        <time>2019-12-29T15:52:33Z</time>
      </trkpt>
      <trkpt lat="37.9023357388" lon="-8.6509145703">
        <ele>141.93</ele>
        <time>2019-12-29T15:52:47Z</time>
      </trkpt>
      <trkpt lat="37.9023447074" lon="-8.6510061845">
        <ele>142.41</ele>
        <time>2019-12-29T15:52:53Z</time>
      </trkpt>
      <trkpt lat="37.9023887962" lon="-8.6512213480">
        <ele>142.89</ele>
        <time>2019-12-29T15:53:07Z</time>
      </trkpt>
      <trkpt lat="37.9024240002" lon="-8.6513661873">
        <ele>143.85</ele>
        <time>2019-12-29T15:53:17Z</time>
      </trkpt>
      <trkpt lat="37.9024309572" lon="-8.6514138803">
        <ele>143.37</ele>
        <time>2019-12-29T15:53:20Z</time>
      </trkpt>
      <trkpt lat="37.9024552647" lon="-8.6516458075">
        <ele>144.34</ele>
        <time>2019-12-29T15:53:36Z</time>
      </trkpt>
      <trkpt lat="37.9024587851" lon="-8.6516589671">
        <ele>144.82</ele>
        <time>2019-12-29T15:53:37Z</time>
      </trkpt>
      <trkpt lat="37.9024639819" lon="-8.6517287884">
        <ele>144.34</ele>
        <time>2019-12-29T15:53:42Z</time>
      </trkpt>
      <trkpt lat="37.9024685081" lon="-8.6518598814">
        <ele>145.30</ele>
        <time>2019-12-29T15:53:50Z</time>
      </trkpt>
      <trkpt lat="37.9024635628" lon="-8.6519372463">
        <ele>144.82</ele>
        <time>2019-12-29T15:53:55Z</time>
      </trkpt>
      <trkpt lat="37.9024067335" lon="-8.6521276832">
        <ele>146.26</ele>
        <time>2019-12-29T15:54:08Z</time>
      </trkpt>
      <trkpt lat="37.9023628123" lon="-8.6522896215">
        <ele>146.74</ele>
        <time>2019-12-29T15:54:19Z</time>
      </trkpt>
      <trkpt lat="37.9023438692" lon="-8.6523361411">
        <ele>146.74</ele>
        <time>2019-12-29T15:54:22Z</time>
      </trkpt>
      <trkpt lat="37.9023038037" lon="-8.6525047850">
        <ele>147.22</ele>
        <time>2019-12-29T15:54:33Z</time>
      </trkpt>
      <trkpt lat="37.9022989422" lon="-8.6525154300">
        <ele>147.70</ele>
        <time>2019-12-29T15:54:34Z</time>
      </trkpt>
      <trkpt lat="37.9022796638" lon="-8.6525651347">
        <ele>147.22</ele>
        <time>2019-12-29T15:54:38Z</time>
      </trkpt>
      <trkpt lat="37.9022129439" lon="-8.6527113989">
        <ele>147.22</ele>
        <time>2019-12-29T15:54:49Z</time>
      </trkpt>
      <trkpt lat="37.9021684360" lon="-8.6528092995">
        <ele>147.22</ele>
        <time>2019-12-29T15:54:56Z</time>
      </trkpt>
      <trkpt lat="37.9021017160" lon="-8.6530018318">
        <ele>146.26</ele>
        <time>2019-12-29T15:55:10Z</time>
      </trkpt>
      <trkpt lat="37.9020552803" lon="-8.6532183364">
        <ele>145.78</ele>
        <time>2019-12-29T15:55:24Z</time>
      </trkpt>
      <trkpt lat="37.9019905720" lon="-8.6533968709">
        <ele>144.82</ele>
        <time>2019-12-29T15:55:38Z</time>
      </trkpt>
      <trkpt lat="37.9019869678" lon="-8.6535209231">
        <ele>143.85</ele>
        <time>2019-12-29T15:55:45Z</time>
      </trkpt>
      <trkpt lat="37.9019868001" lon="-8.6535624135">
        <ele>143.85</ele>
        <time>2019-12-29T15:55:48Z</time>
      </trkpt>
      <trkpt lat="37.9019347485" lon="-8.6536996253">
        <ele>143.85</ele>
        <time>2019-12-29T15:55:58Z</time>
      </trkpt>
      <trkpt lat="37.9019336589" lon="-8.6538257729">
        <ele>144.34</ele>
        <time>2019-12-29T15:56:06Z</time>
      </trkpt>
      <trkpt lat="37.9019308090" lon="-8.6539232545">
        <ele>144.82</ele>
        <time>2019-12-29T15:56:12Z</time>
      </trkpt>
      <trkpt lat="37.9019103572" lon="-8.6540393438">
        <ele>144.34</ele>
        <time>2019-12-29T15:56:21Z</time>
      </trkpt>
      <trkpt lat="37.9018960241" lon="-8.6541176308">
        <ele>144.82</ele>
        <time>2019-12-29T15:56:26Z</time>
      </trkpt>
      <trkpt lat="37.9018838704" lon="-8.6541643180">
        <ele>145.30</ele>
        <time>2019-12-29T15:56:29Z</time>
      </trkpt>
      <trkpt lat="37.9018493369" lon="-8.6543028709">
        <ele>145.30</ele>
        <time>2019-12-29T15:56:38Z</time>
      </trkpt>
      <trkpt lat="37.9018634185" lon="-8.6544187926">
        <ele>145.78</ele>
        <time>2019-12-29T15:56:46Z</time>
      </trkpt>
      <trkpt lat="37.9018662684" lon="-8.6544937268">
        <ele>146.26</ele>
        <time>2019-12-29T15:56:51Z</time>
      </trkpt>
      <trkpt lat="37.9018749017" lon="-8.6545627937">
        <ele>146.74</ele>
        <time>2019-12-29T15:56:56Z</time>
      </trkpt>
      <trkpt lat="37.9018575512" lon="-8.6546699982">
        <ele>146.74</ele>
        <time>2019-12-29T15:57:03Z</time>
      </trkpt>
      <trkpt lat="37.9018186592" lon="-8.6547839083">
        <ele>147.22</ele>
        <time>2019-12-29T15:57:10Z</time>
      </trkpt>
      <trkpt lat="37.9017992131" lon="-8.6548485328">
        <ele>147.22</ele>
        <time>2019-12-29T15:57:15Z</time>
      </trkpt>
      <trkpt lat="37.9017812759" lon="-8.6549056973">
        <ele>147.22</ele>
        <time>2019-12-29T15:57:19Z</time>
      </trkpt>
      <trkpt lat="37.9017813597" lon="-8.6549320165">
        <ele>147.22</ele>
        <time>2019-12-29T15:57:21Z</time>
      </trkpt>
      <trkpt lat="37.9017755762" lon="-8.6549867503">
        <ele>147.70</ele>
        <time>2019-12-29T15:57:25Z</time>
      </trkpt>
      <trkpt lat="37.9017619975" lon="-8.6550460942">
        <ele>148.18</ele>
        <time>2019-12-29T15:57:29Z</time>
      </trkpt>
      <trkpt lat="37.9017723072" lon="-8.6551127303">
        <ele>148.18</ele>
        <time>2019-12-29T15:57:33Z</time>
      </trkpt>
      <trkpt lat="37.9017641768" lon="-8.6551426537">
        <ele>148.18</ele>
        <time>2019-12-29T15:57:35Z</time>
      </trkpt>
      <trkpt lat="37.9017661046" lon="-8.6552069429">
        <ele>148.66</ele>
        <time>2019-12-29T15:57:39Z</time>
      </trkpt>
      <trkpt lat="37.9017733969" lon="-8.6552415602">
        <ele>149.14</ele>
        <time>2019-12-29T15:57:41Z</time>
      </trkpt>
      <trkpt lat="37.9017671943" lon="-8.6553215235">
        <ele>149.14</ele>
        <time>2019-12-29T15:57:46Z</time>
      </trkpt>
      <trkpt lat="37.9017713014" lon="-8.6553683784">
        <ele>150.10</ele>
        <time>2019-12-29T15:57:49Z</time>
      </trkpt>
      <trkpt lat="37.9017606564" lon="-8.6553959548">
        <ele>150.10</ele>
        <time>2019-12-29T15:57:51Z</time>
      </trkpt>
      <trkpt lat="37.9017577227" lon="-8.6554227769">
        <ele>150.58</ele>
        <time>2019-12-29T15:57:53Z</time>
      </trkpt>
      <trkpt lat="37.9017366841" lon="-8.6555006448">
        <ele>151.06</ele>
        <time>2019-12-29T15:57:59Z</time>
      </trkpt>
      <trkpt lat="37.9017303977" lon="-8.6555569712">
        <ele>151.54</ele>
        <time>2019-12-29T15:58:03Z</time>
      </trkpt>
      <trkpt lat="37.9017127119" lon="-8.6556116212">
        <ele>151.54</ele>
        <time>2019-12-29T15:58:07Z</time>
      </trkpt>
      <trkpt lat="37.9017116223" lon="-8.6556669418">
        <ele>151.54</ele>
        <time>2019-12-29T15:58:11Z</time>
      </trkpt>
      <trkpt lat="37.9017153941" lon="-8.6557000503">
        <ele>152.03</ele>
        <time>2019-12-29T15:58:13Z</time>
      </trkpt>
      <trkpt lat="37.9017082695" lon="-8.6558099370">
        <ele>151.54</ele>
        <time>2019-12-29T15:58:20Z</time>
      </trkpt>
      <trkpt lat="37.9017128795" lon="-8.6559903156">
        <ele>151.54</ele>
        <time>2019-12-29T15:58:31Z</time>
      </trkpt>
      <trkpt lat="37.9017072637" lon="-8.6560161319">
        <ele>151.54</ele>
        <time>2019-12-29T15:58:33Z</time>
      </trkpt>
      <trkpt lat="37.9017470777" lon="-8.6562103406">
        <ele>152.99</ele>
        <time>2019-12-29T15:58:46Z</time>
      </trkpt>
      <trkpt lat="37.9017679486" lon="-8.6563077383">
        <ele>153.47</ele>
        <time>2019-12-29T15:58:52Z</time>
      </trkpt>
      <trkpt lat="37.9018331598" lon="-8.6564749572">
        <ele>153.95</ele>
        <time>2019-12-29T15:59:03Z</time>
      </trkpt>
      <trkpt lat="37.9019228462" lon="-8.6566441879">
        <ele>153.95</ele>
        <time>2019-12-29T15:59:16Z</time>
      </trkpt>
      <trkpt lat="37.9019505065" lon="-8.6567271687">
        <ele>153.95</ele>
        <time>2019-12-29T15:59:21Z</time>
      </trkpt>
      <trkpt lat="37.9020627402" lon="-8.6569512170">
        <ele>153.95</ele>
        <time>2019-12-29T15:59:37Z</time>
      </trkpt>
      <trkpt lat="37.9021447152" lon="-8.6571316794">
        <ele>153.95</ele>
        <time>2019-12-29T15:59:51Z</time>
      </trkpt>
      <trkpt lat="37.9022218287" lon="-8.6573027540">
        <ele>153.95</ele>
        <time>2019-12-29T16:00:05Z</time>
      </trkpt>
      <trkpt lat="37.9022985231" lon="-8.6575208511">
        <ele>153.95</ele>
        <time>2019-12-29T16:00:20Z</time>
      </trkpt>
      <trkpt lat="37.9023022112" lon="-8.6575347651">
        <ele>153.95</ele>
        <time>2019-12-29T16:00:21Z</time>
      </trkpt>
      <trkpt lat="37.9023302067" lon="-8.6575805303">
        <ele>154.43</ele>
        <time>2019-12-29T16:00:25Z</time>
      </trkpt>
      <trkpt lat="37.9023744632" lon="-8.6576604098">
        <ele>154.43</ele>
        <time>2019-12-29T16:00:31Z</time>
      </trkpt>
      <trkpt lat="37.9024140257" lon="-8.6578595638">
        <ele>153.47</ele>
        <time>2019-12-29T16:00:46Z</time>
      </trkpt>
      <trkpt lat="37.9023633990" lon="-8.6580391880">
        <ele>152.03</ele>
        <time>2019-12-29T16:00:58Z</time>
      </trkpt>
      <trkpt lat="37.9023249261" lon="-8.6581928283">
        <ele>152.99</ele>
        <time>2019-12-29T16:01:09Z</time>
      </trkpt>
      <trkpt lat="37.9023262672" lon="-8.6584088299">
        <ele>152.51</ele>
        <time>2019-12-29T16:01:23Z</time>
      </trkpt>
      <trkpt lat="37.9023553524" lon="-8.6585374922">
        <ele>152.51</ele>
        <time>2019-12-29T16:01:32Z</time>
      </trkpt>
      <trkpt lat="37.9023600463" lon="-8.6586124264">
        <ele>152.51</ele>
        <time>2019-12-29T16:01:36Z</time>
      </trkpt>
      <trkpt lat="37.9023941606" lon="-8.6587549187">
        <ele>152.51</ele>
        <time>2019-12-29T16:01:46Z</time>
      </trkpt>
      <trkpt lat="37.9024150316" lon="-8.6588191241">
        <ele>151.54</ele>
        <time>2019-12-29T16:01:50Z</time>
      </trkpt>
      <trkpt lat="37.9024504032" lon="-8.6589744408">
        <ele>152.99</ele>
        <time>2019-12-29T16:02:00Z</time>
      </trkpt>
      <trkpt lat="37.9024588689" lon="-8.6589975748">
        <ele>152.99</ele>
        <time>2019-12-29T16:02:02Z</time>
      </trkpt>
      <trkpt lat="37.9024716932" lon="-8.6590527277">
        <ele>152.99</ele>
        <time>2019-12-29T16:02:06Z</time>
      </trkpt>
      <trkpt lat="37.9025337193" lon="-8.6592595093">
        <ele>153.47</ele>
        <time>2019-12-29T16:02:20Z</time>
      </trkpt>
      <trkpt lat="37.9025435261" lon="-8.6593012512">
        <ele>153.47</ele>
        <time>2019-12-29T16:02:23Z</time>
      </trkpt>
      <trkpt lat="37.9025693424" lon="-8.6593580805">
        <ele>153.95</ele>
        <time>2019-12-29T16:02:27Z</time>
      </trkpt>
      <trkpt lat="37.9025964160" lon="-8.6594213638">
        <ele>153.95</ele>
        <time>2019-12-29T16:02:32Z</time>
      </trkpt>
      <trkpt lat="37.9026035406" lon="-8.6594498623">
        <ele>154.43</ele>
        <time>2019-12-29T16:02:34Z</time>
      </trkpt>
      <trkpt lat="37.9026432708" lon="-8.6595286522">
        <ele>154.43</ele>
        <time>2019-12-29T16:02:40Z</time>
      </trkpt>
      <trkpt lat="37.9026613757" lon="-8.6596475076">
        <ele>154.91</ele>
        <time>2019-12-29T16:02:48Z</time>
      </trkpt>
      <trkpt lat="37.9026990104" lon="-8.6598179955">
        <ele>156.35</ele>
        <time>2019-12-29T16:02:59Z</time>
      </trkpt>
      <trkpt lat="37.9026995134" lon="-8.6598533671">
        <ele>155.87</ele>
        <time>2019-12-29T16:03:01Z</time>
      </trkpt>
      <trkpt lat="37.9027269222" lon="-8.6599984579">
        <ele>156.83</ele>
        <time>2019-12-29T16:03:11Z</time>
      </trkpt>
      <trkpt lat="37.9027581867" lon="-8.6601172294">
        <ele>157.31</ele>
        <time>2019-12-29T16:03:19Z</time>
      </trkpt>
      <trkpt lat="37.9027815722" lon="-8.6602106877">
        <ele>157.31</ele>
        <time>2019-12-29T16:03:25Z</time>
      </trkpt>
      <trkpt lat="37.9028150998" lon="-8.6603259388">
        <ele>157.79</ele>
        <time>2019-12-29T16:03:33Z</time>
      </trkpt>
      <trkpt lat="37.9028296843" lon="-8.6604033038">
        <ele>157.79</ele>
        <time>2019-12-29T16:03:38Z</time>
      </trkpt>
      <trkpt lat="37.9028669000" lon="-8.6606017873">
        <ele>158.75</ele>
        <time>2019-12-29T16:03:51Z</time>
      </trkpt>
      <trkpt lat="37.9028661456" lon="-8.6606183834">
        <ele>158.75</ele>
        <time>2019-12-29T16:03:52Z</time>
      </trkpt>
      <trkpt lat="37.9028926324" lon="-8.6608448625">
        <ele>158.75</ele>
        <time>2019-12-29T16:04:06Z</time>
      </trkpt>
      <trkpt lat="37.9029713385" lon="-8.6610583495">
        <ele>159.24</ele>
        <time>2019-12-29T16:04:21Z</time>
      </trkpt>
      <trkpt lat="37.9029781278" lon="-8.6611673143">
        <ele>158.75</ele>
        <time>2019-12-29T16:04:28Z</time>
      </trkpt>
      <trkpt lat="37.9029726796" lon="-8.6612781230">
        <ele>158.75</ele>
        <time>2019-12-29T16:04:35Z</time>
      </trkpt>
      <trkpt lat="37.9029392358" lon="-8.6614387203">
        <ele>159.72</ele>
        <time>2019-12-29T16:04:46Z</time>
      </trkpt>
      <trkpt lat="37.9029177781" lon="-8.6614829767">
        <ele>159.72</ele>
        <time>2019-12-29T16:04:49Z</time>
      </trkpt>
      <trkpt lat="37.9029141739" lon="-8.6615128163">
        <ele>159.24</ele>
        <time>2019-12-29T16:04:51Z</time>
      </trkpt>
      <trkpt lat="37.9029077198" lon="-8.6616710667">
        <ele>160.20</ele>
        <time>2019-12-29T16:05:02Z</time>
      </trkpt>
      <trkpt lat="37.9028785508" lon="-8.6618150678">
        <ele>160.20</ele>
        <time>2019-12-29T16:05:12Z</time>
      </trkpt>
      <trkpt lat="37.9028682411" lon="-8.6618418898">
        <ele>160.20</ele>
        <time>2019-12-29T16:05:14Z</time>
      </trkpt>
      <trkpt lat="37.9028043710" lon="-8.6620236933">
        <ele>160.68</ele>
        <time>2019-12-29T16:05:27Z</time>
      </trkpt>
      <trkpt lat="37.9028018564" lon="-8.6620521080">
        <ele>160.68</ele>
        <time>2019-12-29T16:05:29Z</time>
      </trkpt>
      <trkpt lat="37.9027896188" lon="-8.6620965321">
        <ele>161.16</ele>
        <time>2019-12-29T16:05:32Z</time>
      </trkpt>
      <trkpt lat="37.9027449433" lon="-8.6622599792">
        <ele>161.64</ele>
        <time>2019-12-29T16:05:42Z</time>
      </trkpt>
      <trkpt lat="37.9027178697" lon="-8.6623977777">
        <ele>162.12</ele>
        <time>2019-12-29T16:05:51Z</time>
      </trkpt>
      <trkpt lat="37.9027154390" lon="-8.6624391004">
        <ele>161.64</ele>
        <time>2019-12-29T16:05:54Z</time>
      </trkpt>
      <trkpt lat="37.9027078114" lon="-8.6624732986">
        <ele>161.64</ele>
        <time>2019-12-29T16:05:57Z</time>
      </trkpt>
      <trkpt lat="37.9027025308" lon="-8.6625198182">
        <ele>162.12</ele>
        <time>2019-12-29T16:06:01Z</time>
      </trkpt>
      <trkpt lat="37.9026868567" lon="-8.6625948362">
        <ele>162.12</ele>
        <time>2019-12-29T16:06:05Z</time>
      </trkpt>
      <trkpt lat="37.9026333801" lon="-8.6626626458">
        <ele>162.12</ele>
        <time>2019-12-29T16:06:10Z</time>
      </trkpt>
      <trkpt lat="37.9025871959" lon="-8.6627628934">
        <ele>162.12</ele>
        <time>2019-12-29T16:06:17Z</time>
      </trkpt>
      <trkpt lat="37.9025617149" lon="-8.6627943255">
        <ele>162.60</ele>
        <time>2019-12-29T16:06:20Z</time>
      </trkpt>
      <trkpt lat="37.9024856910" lon="-8.6629740335">
        <ele>162.60</ele>
        <time>2019-12-29T16:06:32Z</time>
      </trkpt>
      <trkpt lat="37.9024761356" lon="-8.6630229838">
        <ele>162.60</ele>
        <time>2019-12-29T16:06:35Z</time>
      </trkpt>
      <trkpt lat="37.9024736211" lon="-8.6630504765">
        <ele>162.60</ele>
        <time>2019-12-29T16:06:37Z</time>
      </trkpt>
      <trkpt lat="37.9024157021" lon="-8.6632027756">
        <ele>163.08</ele>
        <time>2019-12-29T16:06:47Z</time>
      </trkpt>
      <trkpt lat="37.9023621418" lon="-8.6633094773">
        <ele>163.08</ele>
        <time>2019-12-29T16:06:55Z</time>
      </trkpt>
      <trkpt lat="37.9023592919" lon="-8.6633343715">
        <ele>163.56</ele>
        <time>2019-12-29T16:06:57Z</time>
      </trkpt>
      <trkpt lat="37.9023440368" lon="-8.6633725930">
        <ele>164.04</ele>
        <time>2019-12-29T16:07:00Z</time>
      </trkpt>
      <trkpt lat="37.9023048095" lon="-8.6634740978">
        <ele>164.04</ele>
        <time>2019-12-29T16:07:07Z</time>
      </trkpt>
      <trkpt lat="37.9022754729" lon="-8.6635256466">
        <ele>164.04</ele>
        <time>2019-12-29T16:07:11Z</time>
      </trkpt>
      <trkpt lat="37.9021944199" lon="-8.6636872496">
        <ele>164.52</ele>
        <time>2019-12-29T16:07:23Z</time>
      </trkpt>
      <trkpt lat="37.9021630716" lon="-8.6637285724">
        <ele>165.00</ele>
        <time>2019-12-29T16:07:27Z</time>
      </trkpt>
      <trkpt lat="37.9021393508" lon="-8.6637848988">
        <ele>165.48</ele>
        <time>2019-12-29T16:07:31Z</time>
      </trkpt>
      <trkpt lat="37.9021290410" lon="-8.6638093740">
        <ele>165.00</ele>
        <time>2019-12-29T16:07:33Z</time>
      </trkpt>
      <trkpt lat="37.9021124449" lon="-8.6638750881">
        <ele>165.96</ele>
        <time>2019-12-29T16:07:38Z</time>
      </trkpt>
      <trkpt lat="37.9021029733" lon="-8.6639210209">
        <ele>165.96</ele>
        <time>2019-12-29T16:07:41Z</time>
      </trkpt>
      <trkpt lat="37.9020842817" lon="-8.6639632657">
        <ele>165.96</ele>
        <time>2019-12-29T16:07:44Z</time>
      </trkpt>
      <trkpt lat="37.9020467307" lon="-8.6640771758">
        <ele>166.93</ele>
        <time>2019-12-29T16:07:51Z</time>
      </trkpt>
      <trkpt lat="37.9020168073" lon="-8.6641181633">
        <ele>166.45</ele>
        <time>2019-12-29T16:07:54Z</time>
      </trkpt>
      <trkpt lat="37.9019528534" lon="-8.6642520223">
        <ele>167.41</ele>
        <time>2019-12-29T16:08:04Z</time>
      </trkpt>
      <trkpt lat="37.9019497521" lon="-8.6642637569">
        <ele>167.41</ele>
        <time>2019-12-29T16:08:05Z</time>
      </trkpt>
      <trkpt lat="37.9019379336" lon="-8.6643165629">
        <ele>167.41</ele>
        <time>2019-12-29T16:08:09Z</time>
      </trkpt>
      <trkpt lat="37.9019219242" lon="-8.6643831152">
        <ele>167.89</ele>
        <time>2019-12-29T16:08:14Z</time>
      </trkpt>
      <trkpt lat="37.9019142967" lon="-8.6644171458">
        <ele>167.89</ele>
        <time>2019-12-29T16:08:16Z</time>
      </trkpt>
      <trkpt lat="37.9018880613" lon="-8.6645232607">
        <ele>167.89</ele>
        <time>2019-12-29T16:08:22Z</time>
      </trkpt>
      <trkpt lat="37.9018563777" lon="-8.6646635737">
        <ele>168.85</ele>
        <time>2019-12-29T16:08:31Z</time>
      </trkpt>
      <trkpt lat="37.9018572997" lon="-8.6646914855">
        <ele>168.85</ele>
        <time>2019-12-29T16:08:33Z</time>
      </trkpt>
      <trkpt lat="37.9018521868" lon="-8.6647526734">
        <ele>168.85</ele>
        <time>2019-12-29T16:08:37Z</time>
      </trkpt>
      <trkpt lat="37.9017981235" lon="-8.6649097502">
        <ele>169.33</ele>
        <time>2019-12-29T16:08:47Z</time>
      </trkpt>
      <trkpt lat="37.9017886519" lon="-8.6649374105">
        <ele>168.85</ele>
        <time>2019-12-29T16:08:49Z</time>
      </trkpt>
      <trkpt lat="37.9017750733" lon="-8.6649872828">
        <ele>168.85</ele>
        <time>2019-12-29T16:08:53Z</time>
      </trkpt>
      <trkpt lat="37.9017447308" lon="-8.6651440244">
        <ele>169.81</ele>
        <time>2019-12-29T16:09:02Z</time>
      </trkpt>
      <trkpt lat="37.9017401207" lon="-8.6652610358">
        <ele>169.81</ele>
        <time>2019-12-29T16:09:09Z</time>
      </trkpt>
      <trkpt lat="37.9017403722" lon="-8.6653560027">
        <ele>170.77</ele>
        <time>2019-12-29T16:09:16Z</time>
      </trkpt>
      <trkpt lat="37.9017362650" lon="-8.6654612795">
        <ele>170.77</ele>
        <time>2019-12-29T16:09:22Z</time>
      </trkpt>
      <trkpt lat="37.9017397854" lon="-8.6655485351">
        <ele>171.25</ele>
        <time>2019-12-29T16:09:27Z</time>
      </trkpt>
      <trkpt lat="37.9017134663" lon="-8.6657279916">
        <ele>171.25</ele>
        <time>2019-12-29T16:09:38Z</time>
      </trkpt>
      <trkpt lat="37.9017055873" lon="-8.6658714898">
        <ele>172.21</ele>
        <time>2019-12-29T16:09:47Z</time>
      </trkpt>
      <trkpt lat="37.9017042462" lon="-8.6659282353">
        <ele>171.73</ele>
        <time>2019-12-29T16:09:51Z</time>
      </trkpt>
      <trkpt lat="37.9017236922" lon="-8.6661166605">
        <ele>172.69</ele>
        <time>2019-12-29T16:10:02Z</time>
      </trkpt>
      <trkpt lat="37.9017392825" lon="-8.6662541237">
        <ele>173.66</ele>
        <time>2019-12-29T16:10:11Z</time>
      </trkpt>
      <trkpt lat="37.9017793480" lon="-8.6663816124">
        <ele>173.66</ele>
        <time>2019-12-29T16:10:20Z</time>
      </trkpt>
      <trkpt lat="37.9018422961" lon="-8.6665857956">
        <ele>174.62</ele>
        <time>2019-12-29T16:10:33Z</time>
      </trkpt>
      <trkpt lat="37.9019216727" lon="-8.6667275336">
        <ele>175.10</ele>
        <time>2019-12-29T16:10:44Z</time>
      </trkpt>
      <trkpt lat="37.9019739758" lon="-8.6668056529">
        <ele>175.58</ele>
        <time>2019-12-29T16:10:51Z</time>
      </trkpt>
      <trkpt lat="37.9020552803" lon="-8.6668869574">
        <ele>176.06</ele>
        <time>2019-12-29T16:10:58Z</time>
      </trkpt>
      <trkpt lat="37.9022173025" lon="-8.6670820881">
        <ele>176.54</ele>
        <time>2019-12-29T16:11:15Z</time>
      </trkpt>
      <trkpt lat="37.9022814240" lon="-8.6671567708">
        <ele>177.02</ele>
        <time>2019-12-29T16:11:22Z</time>
      </trkpt>
      <trkpt lat="37.9023696017" lon="-8.6672850978">
        <ele>177.50</ele>
        <time>2019-12-29T16:11:32Z</time>
      </trkpt>
      <trkpt lat="37.9024330527" lon="-8.6673674919">
        <ele>178.46</ele>
        <time>2019-12-29T16:11:40Z</time>
      </trkpt>
      <trkpt lat="37.9024453741" lon="-8.6673953198">
        <ele>178.46</ele>
        <time>2019-12-29T16:11:42Z</time>
      </trkpt>
      <trkpt lat="37.9025316238" lon="-8.6674842518">
        <ele>179.42</ele>
        <time>2019-12-29T16:11:52Z</time>
      </trkpt>
      <trkpt lat="37.9025513213" lon="-8.6675181985">
        <ele>179.42</ele>
        <time>2019-12-29T16:12:03Z</time>
      </trkpt>
      <trkpt lat="37.9025314562" lon="-8.6675668973">
        <ele>179.42</ele>
        <time>2019-12-29T16:12:16Z</time>
      </trkpt>
      <trkpt lat="37.9025314562" lon="-8.6675668973">
        <ele>179.42</ele>
        <time>2019-12-29T16:12:19Z</time>
      </trkpt>
      <trkpt lat="37.9025154468" lon="-8.6676240619">
        <ele>179.90</ele>
        <time>2019-12-29T16:12:24Z</time>
      </trkpt>
      <trkpt lat="37.9024724476" lon="-8.6676855851">
        <ele>180.87</ele>
        <time>2019-12-29T16:12:29Z</time>
      </trkpt>
      <trkpt lat="37.9024189711" lon="-8.6677260697">
        <ele>181.83</ele>
        <time>2019-12-29T16:12:34Z</time>
      </trkpt>
      <trkpt lat="37.9023175500" lon="-8.6677742656">
        <ele>182.79</ele>
        <time>2019-12-29T16:12:43Z</time>
      </trkpt>
      <trkpt lat="37.9022328090" lon="-8.6678325199">
        <ele>184.23</ele>
        <time>2019-12-29T16:12:51Z</time>
      </trkpt>
      <trkpt lat="37.9021869600" lon="-8.6678833980">
        <ele>184.71</ele>
        <time>2019-12-29T16:12:56Z</time>
      </trkpt>
      <trkpt lat="37.9021348245" lon="-8.6679165903">
        <ele>186.15</ele>
        <time>2019-12-29T16:13:02Z</time>
      </trkpt>
      <trkpt lat="37.9021149594" lon="-8.6679303367">
        <ele>186.63</ele>
        <time>2019-12-29T16:13:04Z</time>
      </trkpt>
      <trkpt lat="37.9020170588" lon="-8.6680811271">
        <ele>185.67</ele>
        <time>2019-12-29T16:13:17Z</time>
      </trkpt>
      <trkpt lat="37.9019502550" lon="-8.6681202706">
        <ele>185.67</ele>
        <time>2019-12-29T16:13:23Z</time>
      </trkpt>
      <trkpt lat="37.9018943477" lon="-8.6681766808">
        <ele>186.15</ele>
        <time>2019-12-29T16:13:28Z</time>
      </trkpt>
      <trkpt lat="37.9018391110" lon="-8.6682033353">
        <ele>186.63</ele>
        <time>2019-12-29T16:13:33Z</time>
      </trkpt>
      <trkpt lat="37.9017697927" lon="-8.6682904232">
        <ele>186.63</ele>
        <time>2019-12-29T16:13:41Z</time>
      </trkpt>
      <trkpt lat="37.9017395340" lon="-8.6683568079">
        <ele>186.15</ele>
        <time>2019-12-29T16:13:46Z</time>
      </trkpt>
      <trkpt lat="37.9016718920" lon="-8.6684345081">
        <ele>185.67</ele>
        <time>2019-12-29T16:13:54Z</time>
      </trkpt>
      <trkpt lat="37.9016374424" lon="-8.6685293913">
        <ele>186.15</ele>
        <time>2019-12-29T16:14:00Z</time>
      </trkpt>
      <trkpt lat="37.9015884921" lon="-8.6685463227">
        <ele>186.15</ele>
        <time>2019-12-29T16:14:04Z</time>
      </trkpt>
      <trkpt lat="37.9014757555" lon="-8.6685993802">
        <ele>186.63</ele>
        <time>2019-12-29T16:14:15Z</time>
      </trkpt>
      <trkpt lat="37.9014597461" lon="-8.6686205026">
        <ele>186.63</ele>
        <time>2019-12-29T16:14:17Z</time>
      </trkpt>
      <trkpt lat="37.9014401324" lon="-8.6686577182">
        <ele>187.11</ele>
        <time>2019-12-29T16:14:21Z</time>
      </trkpt>
      <trkpt lat="37.9014294874" lon="-8.6686819419">
        <ele>187.59</ele>
        <time>2019-12-29T16:14:23Z</time>
      </trkpt>
      <trkpt lat="37.9013886675" lon="-8.6687430460">
        <ele>188.08</ele>
        <time>2019-12-29T16:14:29Z</time>
      </trkpt>
      <trkpt lat="37.9013751727" lon="-8.6687697843">
        <ele>189.04</ele>
        <time>2019-12-29T16:14:31Z</time>
      </trkpt>
      <trkpt lat="37.9013216961" lon="-8.6688594706">
        <ele>189.52</ele>
        <time>2019-12-29T16:14:38Z</time>
      </trkpt>
      <trkpt lat="37.9012782779" lon="-8.6689385958">
        <ele>190.00</ele>
        <time>2019-12-29T16:14:44Z</time>
      </trkpt>
      <trkpt lat="37.9012300819" lon="-8.6690948345">
        <ele>190.48</ele>
        <time>2019-12-29T16:14:54Z</time>
      </trkpt>
      <trkpt lat="37.9012082890" lon="-8.6692731176">
        <ele>190.00</ele>
        <time>2019-12-29T16:15:06Z</time>
      </trkpt>
      <trkpt lat="37.9011440836" lon="-8.6694761273">
        <ele>190.96</ele>
        <time>2019-12-29T16:15:21Z</time>
      </trkpt>
      <trkpt lat="37.9011089634" lon="-8.6696206313">
        <ele>190.48</ele>
        <time>2019-12-29T16:15:31Z</time>
      </trkpt>
      <trkpt lat="37.9010989890" lon="-8.6696425080">
        <ele>190.48</ele>
        <time>2019-12-29T16:15:33Z</time>
      </trkpt>
      <trkpt lat="37.9010893498" lon="-8.6697016843">
        <ele>190.00</ele>
        <time>2019-12-29T16:15:37Z</time>
      </trkpt>
      <trkpt lat="37.9010874219" lon="-8.6697295122">
        <ele>190.00</ele>
        <time>2019-12-29T16:15:39Z</time>
      </trkpt>
      <trkpt lat="37.9010846559" lon="-8.6697881855">
        <ele>190.00</ele>
        <time>2019-12-29T16:15:43Z</time>
      </trkpt>
      <trkpt lat="37.9010398127" lon="-8.6699475255">
        <ele>190.00</ele>
        <time>2019-12-29T16:15:54Z</time>
      </trkpt>
      <trkpt lat="37.9009727575" lon="-8.6700599268">
        <ele>190.48</ele>
        <time>2019-12-29T16:16:03Z</time>
      </trkpt>
      <trkpt lat="37.9009357095" lon="-8.6701094639">
        <ele>190.96</ele>
        <time>2019-12-29T16:16:07Z</time>
      </trkpt>
      <trkpt lat="37.9009210411" lon="-8.6701494455">
        <ele>191.44</ele>
        <time>2019-12-29T16:16:10Z</time>
      </trkpt>
      <trkpt lat="37.9009075463" lon="-8.6701892596">
        <ele>191.44</ele>
        <time>2019-12-29T16:16:13Z</time>
      </trkpt>
      <trkpt lat="37.9008957278" lon="-8.6702373717">
        <ele>191.92</ele>
        <time>2019-12-29T16:16:17Z</time>
      </trkpt>
      <trkpt lat="37.9008827358" lon="-8.6702973861">
        <ele>193.36</ele>
        <time>2019-12-29T16:16:21Z</time>
      </trkpt>
      <trkpt lat="37.9008745216" lon="-8.6703497730">
        <ele>193.84</ele>
        <time>2019-12-29T16:16:25Z</time>
      </trkpt>
      <trkpt lat="37.9008738510" lon="-8.6703769304">
        <ele>194.32</ele>
        <time>2019-12-29T16:16:27Z</time>
      </trkpt>
      <trkpt lat="37.9008801375" lon="-8.6704073567">
        <ele>194.80</ele>
        <time>2019-12-29T16:16:29Z</time>
      </trkpt>
      <trkpt lat="37.9008802213" lon="-8.6704790220">
        <ele>195.77</ele>
        <time>2019-12-29T16:16:34Z</time>
      </trkpt>
      <trkpt lat="37.9008893576" lon="-8.6705169082">
        <ele>196.25</ele>
        <time>2019-12-29T16:16:37Z</time>
      </trkpt>
      <trkpt lat="37.9008882679" lon="-8.6705445684">
        <ele>196.25</ele>
        <time>2019-12-29T16:16:39Z</time>
      </trkpt>
      <trkpt lat="37.9008948896" lon="-8.6705713067">
        <ele>197.21</ele>
        <time>2019-12-29T16:16:41Z</time>
      </trkpt>
      <trkpt lat="37.9009057861" lon="-8.6705951113">
        <ele>197.21</ele>
        <time>2019-12-29T16:16:43Z</time>
      </trkpt>
      <trkpt lat="37.9009531438" lon="-8.6707221810">
        <ele>197.69</ele>
        <time>2019-12-29T16:16:52Z</time>
      </trkpt>
      <trkpt lat="37.9010702390" lon="-8.6709116120">
        <ele>196.73</ele>
        <time>2019-12-29T16:17:07Z</time>
      </trkpt>
      <trkpt lat="37.9010967258" lon="-8.6709603108">
        <ele>196.73</ele>
        <time>2019-12-29T16:17:11Z</time>
      </trkpt>
      <trkpt lat="37.9011468496" lon="-8.6710613128">
        <ele>196.25</ele>
        <time>2019-12-29T16:17:19Z</time>
      </trkpt>
      <trkpt lat="37.9011574108" lon="-8.6710846983">
        <ele>196.25</ele>
        <time>2019-12-29T16:17:21Z</time>
      </trkpt>
      <trkpt lat="37.9012211133" lon="-8.6712856125">
        <ele>195.77</ele>
        <time>2019-12-29T16:17:34Z</time>
      </trkpt>
      <trkpt lat="37.9012343567" lon="-8.6713365745">
        <ele>195.28</ele>
        <time>2019-12-29T16:17:37Z</time>
      </trkpt>
      <trkpt lat="37.9012980592" lon="-8.6715373211">
        <ele>195.28</ele>
        <time>2019-12-29T16:17:50Z</time>
      </trkpt>
      <trkpt lat="37.9013332631" lon="-8.6716629658">
        <ele>195.28</ele>
        <time>2019-12-29T16:17:59Z</time>
      </trkpt>
      <trkpt lat="37.9013521224" lon="-8.6717025284">
        <ele>195.77</ele>
        <time>2019-12-29T16:18:02Z</time>
      </trkpt>
      <trkpt lat="37.9013652820" lon="-8.6718130857">
        <ele>196.73</ele>
        <time>2019-12-29T16:18:09Z</time>
      </trkpt>
      <trkpt lat="37.9013864882" lon="-8.6719197035">
        <ele>196.73</ele>
        <time>2019-12-29T16:18:16Z</time>
      </trkpt>
      <trkpt lat="37.9014148191" lon="-8.6720846593">
        <ele>196.25</ele>
        <time>2019-12-29T16:18:27Z</time>
      </trkpt>
      <trkpt lat="37.9014720675" lon="-8.6723030079">
        <ele>194.80</ele>
        <time>2019-12-29T16:18:42Z</time>
      </trkpt>
      <trkpt lat="37.9015161563" lon="-8.6725370307">
        <ele>192.88</ele>
        <time>2019-12-29T16:18:56Z</time>
      </trkpt>
      <trkpt lat="37.9015395418" lon="-8.6726630945">
        <ele>191.92</ele>
        <time>2019-12-29T16:19:04Z</time>
      </trkpt>
      <trkpt lat="37.9015428107" lon="-8.6728377733">
        <ele>190.96</ele>
        <time>2019-12-29T16:19:15Z</time>
      </trkpt>
      <trkpt lat="37.9015425593" lon="-8.6728714686">
        <ele>190.96</ele>
        <time>2019-12-29T16:19:17Z</time>
      </trkpt>
      <trkpt lat="37.9015267175" lon="-8.6731142923">
        <ele>189.04</ele>
        <time>2019-12-29T16:19:32Z</time>
      </trkpt>
      <trkpt lat="37.9015102889" lon="-8.6732784938">
        <ele>188.56</ele>
        <time>2019-12-29T16:19:42Z</time>
      </trkpt>
      <trkpt lat="37.9014966264" lon="-8.6734136939">
        <ele>188.56</ele>
        <time>2019-12-29T16:19:51Z</time>
      </trkpt>
      <trkpt lat="37.9014838859" lon="-8.6734666675">
        <ele>189.04</ele>
        <time>2019-12-29T16:19:54Z</time>
      </trkpt>
      <trkpt lat="37.9014812037" lon="-8.6735214852">
        <ele>189.52</ele>
        <time>2019-12-29T16:19:57Z</time>
      </trkpt>
      <trkpt lat="37.9014537949" lon="-8.6736118421">
        <ele>190.00</ele>
        <time>2019-12-29T16:20:03Z</time>
      </trkpt>
      <trkpt lat="37.9014404677" lon="-8.6737312842">
        <ele>190.48</ele>
        <time>2019-12-29T16:20:11Z</time>
      </trkpt>
      <trkpt lat="37.9014014080" lon="-8.6739637982">
        <ele>189.04</ele>
        <time>2019-12-29T16:20:26Z</time>
      </trkpt>
      <trkpt lat="37.9013935290" lon="-8.6740723439">
        <ele>189.04</ele>
        <time>2019-12-29T16:20:33Z</time>
      </trkpt>
      <trkpt lat="37.9013470095" lon="-8.6741806380">
        <ele>189.04</ele>
        <time>2019-12-29T16:20:41Z</time>
      </trkpt>
      <trkpt lat="37.9013205227" lon="-8.6743038520">
        <ele>189.04</ele>
        <time>2019-12-29T16:20:49Z</time>
      </trkpt>
      <trkpt lat="37.9012865759" lon="-8.6744405609">
        <ele>190.00</ele>
        <time>2019-12-29T16:20:58Z</time>
      </trkpt>
      <trkpt lat="37.9012719914" lon="-8.6745306663">
        <ele>190.96</ele>
        <time>2019-12-29T16:21:03Z</time>
      </trkpt>
      <trkpt lat="37.9012604244" lon="-8.6745765153">
        <ele>190.96</ele>
        <time>2019-12-29T16:21:06Z</time>
      </trkpt>
      <trkpt lat="37.9012602568" lon="-8.6746489350">
        <ele>191.92</ele>
        <time>2019-12-29T16:21:11Z</time>
      </trkpt>
      <trkpt lat="37.9012791999" lon="-8.6748098675">
        <ele>192.88</ele>
        <time>2019-12-29T16:21:21Z</time>
      </trkpt>
      <trkpt lat="37.9013445787" lon="-8.6749858875">
        <ele>194.32</ele>
        <time>2019-12-29T16:21:34Z</time>
      </trkpt>
      <trkpt lat="37.9013608396" lon="-8.6750470754">
        <ele>194.32</ele>
        <time>2019-12-29T16:21:38Z</time>
      </trkpt>
      <trkpt lat="37.9013828002" lon="-8.6751293857">
        <ele>194.32</ele>
        <time>2019-12-29T16:21:44Z</time>
      </trkpt>
      <trkpt lat="37.9013777710" lon="-8.6752288789">
        <ele>194.32</ele>
        <time>2019-12-29T16:21:50Z</time>
      </trkpt>
      <trkpt lat="37.9013491049" lon="-8.6752992868">
        <ele>194.32</ele>
        <time>2019-12-29T16:21:55Z</time>
      </trkpt>
      <trkpt lat="37.9013220314" lon="-8.6753518414">
        <ele>194.32</ele>
        <time>2019-12-29T16:21:59Z</time>
      </trkpt>
      <trkpt lat="37.9013108835" lon="-8.6753793340">
        <ele>194.32</ele>
        <time>2019-12-29T16:22:01Z</time>
      </trkpt>
      <trkpt lat="37.9012214486" lon="-8.6755030509">
        <ele>194.80</ele>
        <time>2019-12-29T16:22:12Z</time>
      </trkpt>
      <trkpt lat="37.9011377972" lon="-8.6755896360">
        <ele>195.77</ele>
        <time>2019-12-29T16:22:21Z</time>
      </trkpt>
      <trkpt lat="37.9011147469" lon="-8.6756031308">
        <ele>195.28</ele>
        <time>2019-12-29T16:22:23Z</time>
      </trkpt>
      <trkpt lat="37.9010522179" lon="-8.6756575294">
        <ele>195.28</ele>
        <time>2019-12-29T16:22:29Z</time>
      </trkpt>
      <trkpt lat="37.9010205343" lon="-8.6756744608">
        <ele>195.28</ele>
        <time>2019-12-29T16:22:32Z</time>
      </trkpt>
      <trkpt lat="37.9009568319" lon="-8.6757424381">
        <ele>195.77</ele>
        <time>2019-12-29T16:22:39Z</time>
      </trkpt>
      <trkpt lat="37.9009156767" lon="-8.6757816654">
        <ele>195.77</ele>
        <time>2019-12-29T16:22:43Z</time>
      </trkpt>
      <trkpt lat="37.9008698277" lon="-8.6758274306">
        <ele>196.73</ele>
        <time>2019-12-29T16:22:49Z</time>
      </trkpt>
      <trkpt lat="37.9008377250" lon="-8.6758769676">
        <ele>197.21</ele>
        <time>2019-12-29T16:22:53Z</time>
      </trkpt>
      <trkpt lat="37.9008249007" lon="-8.6759009399">
        <ele>197.69</ele>
        <time>2019-12-29T16:22:55Z</time>
      </trkpt>
      <trkpt lat="37.9007687420" lon="-8.6760642193">
        <ele>197.69</ele>
        <time>2019-12-29T16:23:07Z</time>
      </trkpt>
      <trkpt lat="37.9007506371" lon="-8.6761078052">
        <ele>197.69</ele>
        <time>2019-12-29T16:23:10Z</time>
      </trkpt>
      <trkpt lat="37.9007254075" lon="-8.6761889420">
        <ele>197.69</ele>
        <time>2019-12-29T16:23:16Z</time>
      </trkpt>
      <trkpt lat="37.9007169418" lon="-8.6762750242">
        <ele>199.13</ele>
        <time>2019-12-29T16:23:22Z</time>
      </trkpt>
      <trkpt lat="37.9007335380" lon="-8.6763817258">
        <ele>200.09</ele>
        <time>2019-12-29T16:23:30Z</time>
      </trkpt>
      <trkpt lat="37.9007720109" lon="-8.6764419917">
        <ele>201.05</ele>
        <time>2019-12-29T16:23:35Z</time>
      </trkpt>
      <trkpt lat="37.9007877689" lon="-8.6764741782">
        <ele>201.05</ele>
        <time>2019-12-29T16:23:37Z</time>
      </trkpt>
      <trkpt lat="37.9008208774" lon="-8.6765133217">
        <ele>201.53</ele>
        <time>2019-12-29T16:23:41Z</time>
      </trkpt>
      <trkpt lat="37.9008398205" lon="-8.6765402276">
        <ele>201.53</ele>
        <time>2019-12-29T16:23:44Z</time>
      </trkpt>
      <trkpt lat="37.9009634536" lon="-8.6766610108">
        <ele>201.53</ele>
        <time>2019-12-29T16:23:57Z</time>
      </trkpt>
      <trkpt lat="37.9010262340" lon="-8.6767075304">
        <ele>201.05</ele>
        <time>2019-12-29T16:24:03Z</time>
      </trkpt>
      <trkpt lat="37.9010664672" lon="-8.6767435726">
        <ele>200.57</ele>
        <time>2019-12-29T16:24:06Z</time>
      </trkpt>
      <trkpt lat="37.9011957999" lon="-8.6768711451">
        <ele>200.57</ele>
        <time>2019-12-29T16:24:20Z</time>
      </trkpt>
      <trkpt lat="37.9013010766" lon="-8.6770607438">
        <ele>197.21</ele>
        <time>2019-12-29T16:24:35Z</time>
      </trkpt>
      <trkpt lat="37.9013945349" lon="-8.6772661004">
        <ele>195.28</ele>
        <time>2019-12-29T16:24:50Z</time>
      </trkpt>
      <trkpt lat="37.9014428146" lon="-8.6773738917">
        <ele>194.80</ele>
        <time>2019-12-29T16:24:58Z</time>
      </trkpt>
      <trkpt lat="37.9014908429" lon="-8.6774622370">
        <ele>194.80</ele>
        <time>2019-12-29T16:25:04Z</time>
      </trkpt>
      <trkpt lat="37.9015647713" lon="-8.6776259355">
        <ele>195.28</ele>
        <time>2019-12-29T16:25:16Z</time>
      </trkpt>
      <trkpt lat="37.9016511049" lon="-8.6778584495">
        <ele>193.84</ele>
        <time>2019-12-29T16:25:33Z</time>
      </trkpt>
      <trkpt lat="37.9016818665" lon="-8.6780084856">
        <ele>194.32</ele>
        <time>2019-12-29T16:25:42Z</time>
      </trkpt>
      <trkpt lat="37.9017334990" lon="-8.6781866010">
        <ele>194.80</ele>
        <time>2019-12-29T16:25:54Z</time>
      </trkpt>
      <trkpt lat="37.9017795995" lon="-8.6783578433">
        <ele>196.25</ele>
        <time>2019-12-29T16:26:05Z</time>
      </trkpt>
      <trkpt lat="37.9017795995" lon="-8.6783759482">
        <ele>196.25</ele>
        <time>2019-12-29T16:26:07Z</time>
      </trkpt>
      <trkpt lat="37.9017948546" lon="-8.6784127448">
        <ele>196.73</ele>
        <time>2019-12-29T16:26:10Z</time>
      </trkpt>
      <trkpt lat="37.9018324055" lon="-8.6785763595">
        <ele>196.73</ele>
        <time>2019-12-29T16:26:22Z</time>
      </trkpt>
      <trkpt lat="37.9018827807" lon="-8.6787683051">
        <ele>195.77</ele>
        <time>2019-12-29T16:26:35Z</time>
      </trkpt>
      <trkpt lat="37.9019208346" lon="-8.6789538804">
        <ele>195.28</ele>
        <time>2019-12-29T16:26:47Z</time>
      </trkpt>
      <trkpt lat="37.9019247741" lon="-8.6790068541">
        <ele>195.28</ele>
        <time>2019-12-29T16:26:50Z</time>
      </trkpt>
      <trkpt lat="37.9019261990" lon="-8.6791722290">
        <ele>195.77</ele>
        <time>2019-12-29T16:27:01Z</time>
      </trkpt>
      <trkpt lat="37.9019324016" lon="-8.6792544555">
        <ele>196.25</ele>
        <time>2019-12-29T16:27:06Z</time>
      </trkpt>
      <trkpt lat="37.9019354191" lon="-8.6793643422">
        <ele>196.73</ele>
        <time>2019-12-29T16:27:13Z</time>
      </trkpt>
      <trkpt lat="37.9019380175" lon="-8.6794846226">
        <ele>197.21</ele>
        <time>2019-12-29T16:27:21Z</time>
      </trkpt>
      <trkpt lat="37.9019419570" lon="-8.6795772426">
        <ele>197.21</ele>
        <time>2019-12-29T16:27:27Z</time>
      </trkpt>
      <trkpt lat="37.9019472376" lon="-8.6796235945">
        <ele>197.69</ele>
        <time>2019-12-29T16:27:30Z</time>
      </trkpt>
      <trkpt lat="37.9019577149" lon="-8.6797315534">
        <ele>197.69</ele>
        <time>2019-12-29T16:27:37Z</time>
      </trkpt>
      <trkpt lat="37.9019612353" lon="-8.6798765603">
        <ele>198.65</ele>
        <time>2019-12-29T16:27:46Z</time>
      </trkpt>
      <trkpt lat="37.9019688629" lon="-8.6800046358">
        <ele>199.61</ele>
        <time>2019-12-29T16:27:54Z</time>
      </trkpt>
      <trkpt lat="37.9019803461" lon="-8.6800505687">
        <ele>200.09</ele>
        <time>2019-12-29T16:27:57Z</time>
      </trkpt>
      <trkpt lat="37.9019919131" lon="-8.6801275145">
        <ele>200.09</ele>
        <time>2019-12-29T16:28:02Z</time>
      </trkpt>
      <trkpt lat="37.9020230100" lon="-8.6802711803">
        <ele>200.57</ele>
        <time>2019-12-29T16:28:11Z</time>
      </trkpt>
      <trkpt lat="37.9020710383" lon="-8.6803710926">
        <ele>201.05</ele>
        <time>2019-12-29T16:28:19Z</time>
      </trkpt>
      <trkpt lat="37.9021155462" lon="-8.6804585997">
        <ele>202.01</ele>
        <time>2019-12-29T16:28:26Z</time>
      </trkpt>
      <trkpt lat="37.9021330643" lon="-8.6804909538">
        <ele>202.98</ele>
        <time>2019-12-29T16:28:29Z</time>
      </trkpt>
      <trkpt lat="37.9022513330" lon="-8.6806947179">
        <ele>202.49</ele>
        <time>2019-12-29T16:28:44Z</time>
      </trkpt>
      <trkpt lat="37.9023490660" lon="-8.6808834784">
        <ele>201.53</ele>
        <time>2019-12-29T16:28:58Z</time>
      </trkpt>
      <trkpt lat="37.9024259280" lon="-8.6810565647">
        <ele>201.53</ele>
        <time>2019-12-29T16:29:12Z</time>
      </trkpt>
      <trkpt lat="37.9024866130" lon="-8.6811761744">
        <ele>201.05</ele>
        <time>2019-12-29T16:29:20Z</time>
      </trkpt>
      <trkpt lat="37.9025795683" lon="-8.6813787650">
        <ele>200.09</ele>
        <time>2019-12-29T16:29:36Z</time>
      </trkpt>
      <trkpt lat="37.9026427679" lon="-8.6815114506">
        <ele>200.09</ele>
        <time>2019-12-29T16:29:46Z</time>
      </trkpt>
      <trkpt lat="37.9027291015" lon="-8.6817103531">
        <ele>200.09</ele>
        <time>2019-12-29T16:30:00Z</time>
      </trkpt>
      <trkpt lat="37.9028393235" lon="-8.6818846967">
        <ele>200.09</ele>
        <time>2019-12-29T16:30:14Z</time>
      </trkpt>
      <trkpt lat="37.9028907884" lon="-8.6819315515">
        <ele>200.09</ele>
        <time>2019-12-29T16:30:19Z</time>
      </trkpt>
      <trkpt lat="37.9029691592" lon="-8.6820335593">
        <ele>200.09</ele>
        <time>2019-12-29T16:30:28Z</time>
      </trkpt>
      <trkpt lat="37.9030311015" lon="-8.6822104175">
        <ele>200.09</ele>
        <time>2019-12-29T16:30:40Z</time>
      </trkpt>
      <trkpt lat="37.9030657187" lon="-8.6823838390">
        <ele>200.57</ele>
        <time>2019-12-29T16:30:52Z</time>
      </trkpt>
      <trkpt lat="37.9030818120" lon="-8.6824440211">
        <ele>200.57</ele>
        <time>2019-12-29T16:30:56Z</time>
      </trkpt>
      <trkpt lat="37.9031236377" lon="-8.6825145129">
        <ele>201.05</ele>
        <time>2019-12-29T16:31:01Z</time>
      </trkpt>
      <trkpt lat="37.9031617753" lon="-8.6825642176">
        <ele>201.53</ele>
        <time>2019-12-29T16:31:06Z</time>
      </trkpt>
      <trkpt lat="37.9032751825" lon="-8.6827181093">
        <ele>201.05</ele>
        <time>2019-12-29T16:31:19Z</time>
      </trkpt>
      <trkpt lat="37.9033724125" lon="-8.6828350369">
        <ele>200.57</ele>
        <time>2019-12-29T16:31:30Z</time>
      </trkpt>
      <trkpt lat="37.9034993146" lon="-8.6830041837">
        <ele>201.05</ele>
        <time>2019-12-29T16:31:45Z</time>
      </trkpt>
      <trkpt lat="37.9035361111" lon="-8.6830530502">
        <ele>201.53</ele>
        <time>2019-12-29T16:31:50Z</time>
      </trkpt>
      <trkpt lat="37.9036014900" lon="-8.6831434909">
        <ele>202.49</ele>
        <time>2019-12-29T16:31:58Z</time>
      </trkpt>
      <trkpt lat="37.9037242848" lon="-8.6832827143">
        <ele>202.01</ele>
        <time>2019-12-29T16:32:12Z</time>
      </trkpt>
      <trkpt lat="37.9038113728" lon="-8.6834118795">
        <ele>201.05</ele>
        <time>2019-12-29T16:32:23Z</time>
      </trkpt>
      <trkpt lat="37.9038878158" lon="-8.6835428886">
        <ele>202.01</ele>
        <time>2019-12-29T16:32:33Z</time>
      </trkpt>
      <trkpt lat="37.9039889015" lon="-8.6837241054">
        <ele>201.53</ele>
        <time>2019-12-29T16:32:47Z</time>
      </trkpt>
      <trkpt lat="37.9040059168" lon="-8.6837643385">
        <ele>201.53</ele>
        <time>2019-12-29T16:32:50Z</time>
      </trkpt>
      <trkpt lat="37.9040526878" lon="-8.6838280410">
        <ele>201.53</ele>
        <time>2019-12-29T16:32:56Z</time>
      </trkpt>
      <trkpt lat="37.9040926695" lon="-8.6839249358">
        <ele>201.53</ele>
        <time>2019-12-29T16:33:03Z</time>
      </trkpt>
      <trkpt lat="37.9041178152" lon="-8.6840213276">
        <ele>202.01</ele>
        <time>2019-12-29T16:33:09Z</time>
      </trkpt>
      <trkpt lat="37.9041442182" lon="-8.6840743013">
        <ele>202.49</ele>
        <time>2019-12-29T16:33:13Z</time>
      </trkpt>
      <trkpt lat="37.9042273667" lon="-8.6842257623">
        <ele>203.46</ele>
        <time>2019-12-29T16:33:25Z</time>
      </trkpt>
      <trkpt lat="37.9042741377" lon="-8.6842997745">
        <ele>204.42</ele>
        <time>2019-12-29T16:33:31Z</time>
      </trkpt>
      <trkpt lat="37.9042909015" lon="-8.6843359005">
        <ele>204.90</ele>
        <time>2019-12-29T16:33:34Z</time>
      </trkpt>
      <trkpt lat="37.9043434560" lon="-8.6844645627">
        <ele>207.30</ele>
        <time>2019-12-29T16:33:46Z</time>
      </trkpt>
      <trkpt lat="37.9043591302" lon="-8.6845943145">
        <ele>207.78</ele>
        <time>2019-12-29T16:33:54Z</time>
      </trkpt>
      <trkpt lat="37.9044489842" lon="-8.6848125793">
        <ele>205.86</ele>
        <time>2019-12-29T16:34:09Z</time>
      </trkpt>
      <trkpt lat="37.9045415204" lon="-8.6850165110">
        <ele>203.94</ele>
        <time>2019-12-29T16:34:25Z</time>
      </trkpt>
      <trkpt lat="37.9045501538" lon="-8.6850430816">
        <ele>203.94</ele>
        <time>2019-12-29T16:34:27Z</time>
      </trkpt>
      <trkpt lat="37.9046521615" lon="-8.6852966342">
        <ele>203.94</ele>
        <time>2019-12-29T16:34:46Z</time>
      </trkpt>
      <trkpt lat="37.9046560172" lon="-8.6853096262">
        <ele>203.94</ele>
        <time>2019-12-29T16:34:47Z</time>
      </trkpt>
      <trkpt lat="37.9046543408" lon="-8.6853691377">
        <ele>203.46</ele>
        <time>2019-12-29T16:34:51Z</time>
      </trkpt>
      <trkpt lat="37.9046771396" lon="-8.6854809523">
        <ele>203.46</ele>
        <time>2019-12-29T16:34:58Z</time>
      </trkpt>
      <trkpt lat="37.9046847671" lon="-8.6855178326">
        <ele>203.94</ele>
        <time>2019-12-29T16:35:01Z</time>
      </trkpt>
      <trkpt lat="37.9047078174" lon="-8.6856275517">
        <ele>204.42</ele>
        <time>2019-12-29T16:35:09Z</time>
      </trkpt>
      <trkpt lat="37.9047189653" lon="-8.6856959481">
        <ele>204.90</ele>
        <time>2019-12-29T16:35:14Z</time>
      </trkpt>
      <trkpt lat="37.9047160316" lon="-8.6857336666">
        <ele>205.38</ele>
        <time>2019-12-29T16:35:17Z</time>
      </trkpt>
      <trkpt lat="37.9047197197" lon="-8.6858193297">
        <ele>206.34</ele>
        <time>2019-12-29T16:35:23Z</time>
      </trkpt>
      <trkpt lat="37.9047989286" lon="-8.6859877221">
        <ele>206.34</ele>
        <time>2019-12-29T16:35:38Z</time>
      </trkpt>
      <trkpt lat="37.9048633017" lon="-8.6860580463">
        <ele>206.34</ele>
        <time>2019-12-29T16:35:44Z</time>
      </trkpt>
      <trkpt lat="37.9049969092" lon="-8.6862041429">
        <ele>205.86</ele>
        <time>2019-12-29T16:35:58Z</time>
      </trkpt>
      <trkpt lat="37.9051023535" lon="-8.6862812564">
        <ele>207.30</ele>
        <time>2019-12-29T16:36:08Z</time>
      </trkpt>
      <trkpt lat="37.9051199555" lon="-8.6862907279">
        <ele>206.82</ele>
        <time>2019-12-29T16:36:10Z</time>
      </trkpt>
      <trkpt lat="37.9052295908" lon="-8.6863932386">
        <ele>208.74</ele>
        <time>2019-12-29T16:36:22Z</time>
      </trkpt>
      <trkpt lat="37.9052676447" lon="-8.6864335556">
        <ele>208.74</ele>
        <time>2019-12-29T16:36:26Z</time>
      </trkpt>
      <trkpt lat="37.9053372983" lon="-8.6864626408">
        <ele>208.74</ele>
        <time>2019-12-29T16:36:31Z</time>
      </trkpt>
      <trkpt lat="37.9054116458" lon="-8.6865413468">
        <ele>208.74</ele>
        <time>2019-12-29T16:36:39Z</time>
      </trkpt>
      <trkpt lat="37.9055002425" lon="-8.6866635550">
        <ele>208.74</ele>
        <time>2019-12-29T16:36:50Z</time>
      </trkpt>
      <trkpt lat="37.9055579100" lon="-8.6867799796">
        <ele>209.22</ele>
        <time>2019-12-29T16:36:59Z</time>
      </trkpt>
      <trkpt lat="37.9056382924" lon="-8.6869763676">
        <ele>209.22</ele>
        <time>2019-12-29T16:37:14Z</time>
      </trkpt>
      <trkpt lat="37.9056906793" lon="-8.6872202810">
        <ele>206.82</ele>
        <time>2019-12-29T16:37:31Z</time>
      </trkpt>
      <trkpt lat="37.9057266377" lon="-8.6872805469">
        <ele>206.82</ele>
        <time>2019-12-29T16:37:36Z</time>
      </trkpt>
      <trkpt lat="37.9057286493" lon="-8.6873595882">
        <ele>206.34</ele>
        <time>2019-12-29T16:37:41Z</time>
      </trkpt>
      <trkpt lat="37.9057249613" lon="-8.6873942055">
        <ele>206.82</ele>
        <time>2019-12-29T16:37:43Z</time>
      </trkpt>
      <trkpt lat="37.9057389591" lon="-8.6875063553">
        <ele>207.78</ele>
        <time>2019-12-29T16:37:51Z</time>
      </trkpt>
      <trkpt lat="37.9057528730" lon="-8.6875947006">
        <ele>208.26</ele>
        <time>2019-12-29T16:37:57Z</time>
      </trkpt>
      <trkpt lat="37.9057924356" lon="-8.6877428927">
        <ele>206.82</ele>
        <time>2019-12-29T16:38:10Z</time>
      </trkpt>
      <trkpt lat="37.9058037512" lon="-8.6877919268">
        <ele>205.38</ele>
        <time>2019-12-29T16:38:14Z</time>
      </trkpt>
      <trkpt lat="37.9058468342" lon="-8.6879102793">
        <ele>204.42</ele>
        <time>2019-12-29T16:38:25Z</time>
      </trkpt>
      <trkpt lat="37.9058941081" lon="-8.6880620755">
        <ele>202.98</ele>
        <time>2019-12-29T16:38:38Z</time>
      </trkpt>
      <trkpt lat="37.9059557989" lon="-8.6882069986">
        <ele>201.53</ele>
        <time>2019-12-29T16:38:51Z</time>
      </trkpt>
      <trkpt lat="37.9060084373" lon="-8.6883521732">
        <ele>199.61</ele>
        <time>2019-12-29T16:39:02Z</time>
      </trkpt>
      <trkpt lat="37.9060122091" lon="-8.6883648299">
        <ele>200.09</ele>
        <time>2019-12-29T16:39:03Z</time>
      </trkpt>
      <trkpt lat="37.9060288053" lon="-8.6885416880">
        <ele>199.61</ele>
        <time>2019-12-29T16:39:16Z</time>
      </trkpt>
      <trkpt lat="37.9060274642" lon="-8.6885529198">
        <ele>199.13</ele>
        <time>2019-12-29T16:39:17Z</time>
      </trkpt>
      <trkpt lat="37.9060298949" lon="-8.6886093300">
        <ele>199.61</ele>
        <time>2019-12-29T16:39:21Z</time>
      </trkpt>
      <trkpt lat="37.9060208425" lon="-8.6886840127">
        <ele>200.09</ele>
        <time>2019-12-29T16:39:26Z</time>
      </trkpt>
      <trkpt lat="37.9060104489" lon="-8.6887820810">
        <ele>200.09</ele>
        <time>2019-12-29T16:39:33Z</time>
      </trkpt>
      <trkpt lat="37.9060070962" lon="-8.6888101604">
        <ele>199.61</ele>
        <time>2019-12-29T16:39:35Z</time>
      </trkpt>
      <trkpt lat="37.9059909191" lon="-8.6889615376">
        <ele>199.61</ele>
        <time>2019-12-29T16:39:45Z</time>
      </trkpt>
      <trkpt lat="37.9059920087" lon="-8.6890415009">
        <ele>199.61</ele>
        <time>2019-12-29T16:39:50Z</time>
      </trkpt>
      <trkpt lat="37.9060124606" lon="-8.6891514715">
        <ele>199.61</ele>
        <time>2019-12-29T16:39:58Z</time>
      </trkpt>
      <trkpt lat="37.9060640093" lon="-8.6892337818">
        <ele>199.61</ele>
        <time>2019-12-29T16:40:05Z</time>
      </trkpt>
      <trkpt lat="37.9061381891" lon="-8.6893440876">
        <ele>199.61</ele>
        <time>2019-12-29T16:40:15Z</time>
      </trkpt>
      <trkpt lat="37.9062839504" lon="-8.6895376258">
        <ele>200.09</ele>
        <time>2019-12-29T16:40:33Z</time>
      </trkpt>
      <trkpt lat="37.9063613154" lon="-8.6896271445">
        <ele>199.61</ele>
        <time>2019-12-29T16:40:42Z</time>
      </trkpt>
      <trkpt lat="37.9065292049" lon="-8.6897438206">
        <ele>199.13</ele>
        <time>2019-12-29T16:40:59Z</time>
      </trkpt>
      <trkpt lat="37.9066520836" lon="-8.6897869036">
        <ele>198.65</ele>
        <time>2019-12-29T16:41:10Z</time>
      </trkpt>
      <trkpt lat="37.9068269301" lon="-8.6898196768">
        <ele>198.17</ele>
        <time>2019-12-29T16:41:26Z</time>
      </trkpt>
      <trkpt lat="37.9068619665" lon="-8.6898374464">
        <ele>198.17</ele>
        <time>2019-12-29T16:41:35Z</time>
      </trkpt>
      <trkpt lat="37.9068947397" lon="-8.6898399610">
        <ele>197.69</ele>
        <time>2019-12-29T16:41:38Z</time>
      </trkpt>
      <trkpt lat="37.9069621302" lon="-8.6898581497">
        <ele>197.69</ele>
        <time>2019-12-29T16:41:48Z</time>
      </trkpt>
      <trkpt lat="37.9070083983" lon="-8.6898595747">
        <ele>197.21</ele>
        <time>2019-12-29T16:42:00Z</time>
      </trkpt>
      <trkpt lat="37.9070292693" lon="-8.6898895819">
        <ele>197.69</ele>
        <time>2019-12-29T16:42:03Z</time>
      </trkpt>
      <trkpt lat="37.9070791416" lon="-8.6899114586">
        <ele>198.17</ele>
        <time>2019-12-29T16:42:14Z</time>
      </trkpt>
      <trkpt lat="37.9071580991" lon="-8.6899046693">
        <ele>198.65</ele>
        <time>2019-12-29T16:42:25Z</time>
      </trkpt>
      <trkpt lat="37.9072440136" lon="-8.6899107043">
        <ele>198.17</ele>
        <time>2019-12-29T16:42:33Z</time>
      </trkpt>
      <trkpt lat="37.9072490428" lon="-8.6899150629">
        <ele>198.17</ele>
        <time>2019-12-29T16:42:34Z</time>
      </trkpt>
      <trkpt lat="37.9073176067" lon="-8.6899205111">
        <ele>199.13</ele>
        <time>2019-12-29T16:42:40Z</time>
      </trkpt>
      <trkpt lat="37.9074137472" lon="-8.6899182480">
        <ele>199.61</ele>
        <time>2019-12-29T16:42:50Z</time>
      </trkpt>
      <trkpt lat="37.9075105581" lon="-8.6899130512">
        <ele>199.61</ele>
        <time>2019-12-29T16:43:01Z</time>
      </trkpt>
      <trkpt lat="37.9075224604" lon="-8.6899136379">
        <ele>200.09</ele>
        <time>2019-12-29T16:43:02Z</time>
      </trkpt>
      <trkpt lat="37.9075670522" lon="-8.6899175774">
        <ele>200.09</ele>
        <time>2019-12-29T16:43:14Z</time>
      </trkpt>
      <trkpt lat="37.9075652082" lon="-8.6899240315">
        <ele>200.09</ele>
        <time>2019-12-29T16:43:36Z</time>
      </trkpt>
      <trkpt lat="37.9069208913" lon="-8.6898492649">
        <ele>199.13</ele>
        <time>2019-12-30T07:43:56Z</time>
      </trkpt>
      <trkpt lat="37.9069171194" lon="-8.6898446549">
        <ele>197.69</ele>
        <time>2019-12-30T07:44:13Z</time>
      </trkpt>
      <trkpt lat="37.9069209751" lon="-8.6898432299">
        <ele>198.17</ele>
        <time>2019-12-30T07:44:29Z</time>
      </trkpt>
      <trkpt lat="37.9069209751" lon="-8.6898432299">
        <ele>198.65</ele>
        <time>2019-12-30T07:44:45Z</time>
      </trkpt>
      <trkpt lat="37.9069130123" lon="-8.6898688786">
        <ele>198.65</ele>
        <time>2019-12-30T07:44:57Z</time>
      </trkpt>
      <trkpt lat="37.9069375712" lon="-8.6898921803">
        <ele>198.17</ele>
        <time>2019-12-30T07:45:00Z</time>
      </trkpt>
      <trkpt lat="37.9069664050" lon="-8.6899231095">
        <ele>198.65</ele>
        <time>2019-12-30T07:45:04Z</time>
      </trkpt>
      <trkpt lat="37.9070107453" lon="-8.6899220198">
        <ele>198.17</ele>
        <time>2019-12-30T07:45:08Z</time>
      </trkpt>
      <trkpt lat="37.9070295207" lon="-8.6899274681">
        <ele>198.65</ele>
        <time>2019-12-30T07:45:10Z</time>
      </trkpt>
      <trkpt lat="37.9071373958" lon="-8.6899254564">
        <ele>199.13</ele>
        <time>2019-12-30T07:45:20Z</time>
      </trkpt>
      <trkpt lat="37.9071683250" lon="-8.6899276357">
        <ele>199.13</ele>
        <time>2019-12-30T07:45:23Z</time>
      </trkpt>
      <trkpt lat="37.9073144216" lon="-8.6899183318">
        <ele>199.13</ele>
        <time>2019-12-30T07:45:37Z</time>
      </trkpt>
      <trkpt lat="37.9073459376" lon="-8.6899175774">
        <ele>199.61</ele>
        <time>2019-12-30T07:45:40Z</time>
      </trkpt>
      <trkpt lat="37.9074233025" lon="-8.6899218522">
        <ele>200.09</ele>
        <time>2019-12-30T07:45:47Z</time>
      </trkpt>
      <trkpt lat="37.9074646253" lon="-8.6899257079">
        <ele>200.57</ele>
        <time>2019-12-30T07:45:51Z</time>
      </trkpt>
      <trkpt lat="37.9075409006" lon="-8.6899431422">
        <ele>201.05</ele>
        <time>2019-12-30T07:46:04Z</time>
      </trkpt>
      <trkpt lat="37.9075491987" lon="-8.6899356823">
        <ele>200.09</ele>
        <time>2019-12-30T07:46:05Z</time>
      </trkpt>
      <trkpt lat="37.9075953830" lon="-8.6899268813">
        <ele>200.57</ele>
        <time>2019-12-30T07:46:09Z</time>
      </trkpt>
      <trkpt lat="37.9076641984" lon="-8.6899270490">
        <ele>201.05</ele>
        <time>2019-12-30T07:46:15Z</time>
      </trkpt>
      <trkpt lat="37.9077728279" lon="-8.6899292283">
        <ele>201.05</ele>
        <time>2019-12-30T07:46:26Z</time>
      </trkpt>
      <trkpt lat="37.9079358559" lon="-8.6899258755">
        <ele>202.01</ele>
        <time>2019-12-30T07:46:41Z</time>
      </trkpt>
      <trkpt lat="37.9080897477" lon="-8.6899326649">
        <ele>202.01</ele>
        <time>2019-12-30T07:46:54Z</time>
      </trkpt>
      <trkpt lat="37.9081656039" lon="-8.6899355985">
        <ele>202.49</ele>
        <time>2019-12-30T07:47:00Z</time>
      </trkpt>
      <trkpt lat="37.9083122872" lon="-8.6899423879">
        <ele>202.49</ele>
        <time>2019-12-30T07:47:13Z</time>
      </trkpt>
      <trkpt lat="37.9084830265" lon="-8.6899398733">
        <ele>203.46</ele>
        <time>2019-12-30T07:47:27Z</time>
      </trkpt>
      <trkpt lat="37.9085816815" lon="-8.6899394542">
        <ele>203.46</ele>
        <time>2019-12-30T07:47:35Z</time>
      </trkpt>
      <trkpt lat="37.9087334778" lon="-8.6899293959">
        <ele>203.94</ele>
        <time>2019-12-30T07:47:48Z</time>
      </trkpt>
      <trkpt lat="37.9088789038" lon="-8.6898430623">
        <ele>203.94</ele>
        <time>2019-12-30T07:48:01Z</time>
      </trkpt>
      <trkpt lat="37.9090406746" lon="-8.6897962075">
        <ele>203.94</ele>
        <time>2019-12-30T07:48:15Z</time>
      </trkpt>
      <trkpt lat="37.9090681672" lon="-8.6898341775">
        <ele>203.94</ele>
        <time>2019-12-30T07:48:27Z</time>
      </trkpt>
      <trkpt lat="37.9090742022" lon="-8.6898221076">
        <ele>203.46</ele>
        <time>2019-12-30T07:48:30Z</time>
      </trkpt>
      <trkpt lat="37.9090923909" lon="-8.6898012366">
        <ele>203.94</ele>
        <time>2019-12-30T07:48:32Z</time>
      </trkpt>
      <trkpt lat="37.9092084803" lon="-8.6896255519">
        <ele>202.98</ele>
        <time>2019-12-30T07:48:48Z</time>
      </trkpt>
      <trkpt lat="37.9092096537" lon="-8.6896107160">
        <ele>202.98</ele>
        <time>2019-12-30T07:48:49Z</time>
      </trkpt>
      <trkpt lat="37.9092527367" lon="-8.6895004939">
        <ele>202.01</ele>
        <time>2019-12-30T07:48:57Z</time>
      </trkpt>
      <trkpt lat="37.9093049560" lon="-8.6894049402">
        <ele>200.57</ele>
        <time>2019-12-30T07:49:05Z</time>
      </trkpt>
      <trkpt lat="37.9094242305" lon="-8.6892586760">
        <ele>199.13</ele>
        <time>2019-12-30T07:49:20Z</time>
      </trkpt>
      <trkpt lat="37.9094551597" lon="-8.6892287526">
        <ele>199.13</ele>
        <time>2019-12-30T07:49:23Z</time>
      </trkpt>
      <trkpt lat="37.9094903637" lon="-8.6891713366">
        <ele>199.13</ele>
        <time>2019-12-30T07:49:28Z</time>
      </trkpt>
      <trkpt lat="37.9096066207" lon="-8.6890016031">
        <ele>198.17</ele>
        <time>2019-12-30T07:49:42Z</time>
      </trkpt>
      <trkpt lat="37.9096146673" lon="-8.6889892817">
        <ele>197.69</ele>
        <time>2019-12-30T07:49:43Z</time>
      </trkpt>
      <trkpt lat="37.9096932057" lon="-8.6888918839">
        <ele>197.21</ele>
        <time>2019-12-30T07:49:52Z</time>
      </trkpt>
      <trkpt lat="37.9097247217" lon="-8.6888402514">
        <ele>197.21</ele>
        <time>2019-12-30T07:49:56Z</time>
      </trkpt>
      <trkpt lat="37.9097732529" lon="-8.6887713522">
        <ele>197.21</ele>
        <time>2019-12-30T07:50:02Z</time>
      </trkpt>
      <trkpt lat="37.9099056870" lon="-8.6885830108">
        <ele>197.69</ele>
        <time>2019-12-30T07:50:17Z</time>
      </trkpt>
      <trkpt lat="37.9099688865" lon="-8.6884972639">
        <ele>198.65</ele>
        <time>2019-12-30T07:50:24Z</time>
      </trkpt>
      <trkpt lat="37.9100378696" lon="-8.6883748882">
        <ele>199.13</ele>
        <time>2019-12-30T07:50:34Z</time>
      </trkpt>
      <trkpt lat="37.9100863170" lon="-8.6883010436">
        <ele>199.13</ele>
        <time>2019-12-30T07:50:40Z</time>
      </trkpt>
      <trkpt lat="37.9101213533" lon="-8.6882336531">
        <ele>198.65</ele>
        <time>2019-12-30T07:50:45Z</time>
      </trkpt>
      <trkpt lat="37.9101391230" lon="-8.6882147938">
        <ele>199.13</ele>
        <time>2019-12-30T07:50:47Z</time>
      </trkpt>
      <trkpt lat="37.9102535360" lon="-8.6880478263">
        <ele>198.65</ele>
        <time>2019-12-30T07:51:01Z</time>
      </trkpt>
      <trkpt lat="37.9103501793" lon="-8.6878873967">
        <ele>198.17</ele>
        <time>2019-12-30T07:51:13Z</time>
      </trkpt>
      <trkpt lat="37.9104428831" lon="-8.6877531186">
        <ele>199.61</ele>
        <time>2019-12-30T07:51:25Z</time>
      </trkpt>
      <trkpt lat="37.9104849603" lon="-8.6876274738">
        <ele>198.65</ele>
        <time>2019-12-30T07:51:34Z</time>
      </trkpt>
      <trkpt lat="37.9105122853" lon="-8.6874240451">
        <ele>196.25</ele>
        <time>2019-12-30T07:51:47Z</time>
      </trkpt>
      <trkpt lat="37.9105137102" lon="-8.6873735860">
        <ele>195.28</ele>
        <time>2019-12-30T07:51:50Z</time>
      </trkpt>
      <trkpt lat="37.9105087649" lon="-8.6873133201">
        <ele>195.28</ele>
        <time>2019-12-30T07:51:54Z</time>
      </trkpt>
      <trkpt lat="37.9105044063" lon="-8.6872450076">
        <ele>194.80</ele>
        <time>2019-12-30T07:51:59Z</time>
      </trkpt>
      <trkpt lat="37.9105280433" lon="-8.6871606857">
        <ele>194.80</ele>
        <time>2019-12-30T07:52:04Z</time>
      </trkpt>
      <trkpt lat="37.9105471540" lon="-8.6870734300">
        <ele>194.80</ele>
        <time>2019-12-30T07:52:10Z</time>
      </trkpt>
      <trkpt lat="37.9106015526" lon="-8.6869436782">
        <ele>193.84</ele>
        <time>2019-12-30T07:52:19Z</time>
      </trkpt>
      <trkpt lat="37.9106417019" lon="-8.6868224759">
        <ele>191.44</ele>
        <time>2019-12-30T07:52:28Z</time>
      </trkpt>
      <trkpt lat="37.9107024707" lon="-8.6866376549">
        <ele>189.04</ele>
        <time>2019-12-30T07:52:41Z</time>
      </trkpt>
      <trkpt lat="37.9107916541" lon="-8.6865444481">
        <ele>187.59</ele>
        <time>2019-12-30T07:52:51Z</time>
      </trkpt>
      <trkpt lat="37.9108370002" lon="-8.6865462083">
        <ele>187.11</ele>
        <time>2019-12-30T07:52:55Z</time>
      </trkpt>
      <trkpt lat="37.9108779877" lon="-8.6865586974">
        <ele>187.59</ele>
        <time>2019-12-30T07:52:59Z</time>
      </trkpt>
      <trkpt lat="37.9109153710" lon="-8.6865850165">
        <ele>187.11</ele>
        <time>2019-12-30T07:53:03Z</time>
      </trkpt>
      <trkpt lat="37.9110804945" lon="-8.6866368167">
        <ele>187.59</ele>
        <time>2019-12-30T07:53:16Z</time>
      </trkpt>
      <trkpt lat="37.9111442808" lon="-8.6866404209">
        <ele>187.59</ele>
        <time>2019-12-30T07:53:21Z</time>
      </trkpt>
      <trkpt lat="37.9112778883" lon="-8.6866648123">
        <ele>188.08</ele>
        <time>2019-12-30T07:53:33Z</time>
      </trkpt>
      <trkpt lat="37.9113130923" lon="-8.6866789777">
        <ele>188.56</ele>
        <time>2019-12-30T07:53:36Z</time>
      </trkpt>
      <trkpt lat="37.9114560038" lon="-8.6867061350">
        <ele>188.56</ele>
        <time>2019-12-30T07:53:47Z</time>
      </trkpt>
      <trkpt lat="37.9115389008" lon="-8.6867315322">
        <ele>190.00</ele>
        <time>2019-12-30T07:53:54Z</time>
      </trkpt>
      <trkpt lat="37.9115623701" lon="-8.6867332086">
        <ele>189.52</ele>
        <time>2019-12-30T07:53:56Z</time>
      </trkpt>
      <trkpt lat="37.9117201176" lon="-8.6867397465">
        <ele>190.96</ele>
        <time>2019-12-30T07:54:09Z</time>
      </trkpt>
      <trkpt lat="37.9117854964" lon="-8.6867350526">
        <ele>191.44</ele>
        <time>2019-12-30T07:54:14Z</time>
      </trkpt>
      <trkpt lat="37.9118108936" lon="-8.6867503077">
        <ele>191.44</ele>
        <time>2019-12-30T07:54:16Z</time>
      </trkpt>
      <trkpt lat="37.9119719099" lon="-8.6867981683">
        <ele>192.88</ele>
        <time>2019-12-30T07:54:29Z</time>
      </trkpt>
      <trkpt lat="37.9120229557" lon="-8.6868128367">
        <ele>192.88</ele>
        <time>2019-12-30T07:54:33Z</time>
      </trkpt>
      <trkpt lat="37.9120997339" lon="-8.6869377270">
        <ele>194.32</ele>
        <time>2019-12-30T07:54:44Z</time>
      </trkpt>
      <trkpt lat="37.9121284001" lon="-8.6870259885">
        <ele>194.80</ele>
        <time>2019-12-30T07:54:50Z</time>
      </trkpt>
      <trkpt lat="37.9121489357" lon="-8.6870882660">
        <ele>195.28</ele>
        <time>2019-12-30T07:54:54Z</time>
      </trkpt>
      <trkpt lat="37.9121758416" lon="-8.6871524714">
        <ele>195.28</ele>
        <time>2019-12-30T07:54:59Z</time>
      </trkpt>
      <trkpt lat="37.9122257140" lon="-8.6872992385">
        <ele>196.73</ele>
        <time>2019-12-30T07:55:10Z</time>
      </trkpt>
      <trkpt lat="37.9122645222" lon="-8.6874708161">
        <ele>197.21</ele>
        <time>2019-12-30T07:55:21Z</time>
      </trkpt>
      <trkpt lat="37.9122718144" lon="-8.6875268910">
        <ele>197.21</ele>
        <time>2019-12-30T07:55:25Z</time>
      </trkpt>
      <trkpt lat="37.9122932721" lon="-8.6876616720">
        <ele>197.69</ele>
        <time>2019-12-30T07:55:33Z</time>
      </trkpt>
      <trkpt lat="37.9123100359" lon="-8.6877104547">
        <ele>198.17</ele>
        <time>2019-12-30T07:55:36Z</time>
      </trkpt>
      <trkpt lat="37.9123396240" lon="-8.6878269631">
        <ele>199.61</ele>
        <time>2019-12-30T07:55:43Z</time>
      </trkpt>
      <trkpt lat="37.9123654403" lon="-8.6878926773">
        <ele>201.05</ele>
        <time>2019-12-30T07:55:48Z</time>
      </trkpt>
      <trkpt lat="37.9123702180" lon="-8.6879241932">
        <ele>201.05</ele>
        <time>2019-12-30T07:55:50Z</time>
      </trkpt>
      <trkpt lat="37.9123974591" lon="-8.6879745685">
        <ele>201.05</ele>
        <time>2019-12-30T07:55:54Z</time>
      </trkpt>
      <trkpt lat="37.9124834575" lon="-8.6881090980">
        <ele>202.98</ele>
        <time>2019-12-30T07:56:05Z</time>
      </trkpt>
      <trkpt lat="37.9125021491" lon="-8.6881270353">
        <ele>202.98</ele>
        <time>2019-12-30T07:56:07Z</time>
      </trkpt>
      <trkpt lat="37.9125442263" lon="-8.6881624907">
        <ele>203.94</ele>
        <time>2019-12-30T07:56:11Z</time>
      </trkpt>
      <trkpt lat="37.9125737306" lon="-8.6882106028">
        <ele>204.90</ele>
        <time>2019-12-30T07:56:15Z</time>
      </trkpt>
      <trkpt lat="37.9126380198" lon="-8.6882703658">
        <ele>204.90</ele>
        <time>2019-12-30T07:56:21Z</time>
      </trkpt>
      <trkpt lat="37.9126715474" lon="-8.6883086711">
        <ele>204.90</ele>
        <time>2019-12-30T07:56:25Z</time>
      </trkpt>
      <trkpt lat="37.9128258582" lon="-8.6883537658">
        <ele>204.90</ele>
        <time>2019-12-30T07:56:38Z</time>
      </trkpt>
      <trkpt lat="37.9129469767" lon="-8.6884125229">
        <ele>204.90</ele>
        <time>2019-12-30T07:56:50Z</time>
      </trkpt>
      <trkpt lat="37.9129942507" lon="-8.6884613894">
        <ele>205.38</ele>
        <time>2019-12-30T07:57:05Z</time>
      </trkpt>
      <trkpt lat="37.9130338132" lon="-8.6884589586">
        <ele>204.90</ele>
        <time>2019-12-30T07:57:15Z</time>
      </trkpt>
      <trkpt lat="37.9131223261" lon="-8.6884389259">
        <ele>204.42</ele>
        <time>2019-12-30T07:57:22Z</time>
      </trkpt>
      <trkpt lat="37.9131431971" lon="-8.6882228404">
        <ele>201.53</ele>
        <time>2019-12-30T07:57:36Z</time>
      </trkpt>
      <trkpt lat="37.9131468013" lon="-8.6882078368">
        <ele>201.53</ele>
        <time>2019-12-30T07:57:37Z</time>
      </trkpt>
      <trkpt lat="37.9131559376" lon="-8.6880370136">
        <ele>199.61</ele>
        <time>2019-12-30T07:57:48Z</time>
      </trkpt>
      <trkpt lat="37.9131536745" lon="-8.6879557930">
        <ele>198.17</ele>
        <time>2019-12-30T07:57:53Z</time>
      </trkpt>
      <trkpt lat="37.9132219031" lon="-8.6877677869">
        <ele>197.21</ele>
        <time>2019-12-30T07:58:07Z</time>
      </trkpt>
      <trkpt lat="37.9132799059" lon="-8.6876408011">
        <ele>196.25</ele>
        <time>2019-12-30T07:58:17Z</time>
      </trkpt>
      <trkpt lat="37.9133112542" lon="-8.6875627656">
        <ele>195.77</ele>
        <time>2019-12-30T07:58:22Z</time>
      </trkpt>
      <trkpt lat="37.9134342168" lon="-8.6873359513">
        <ele>194.32</ele>
        <time>2019-12-30T07:58:40Z</time>
      </trkpt>
      <trkpt lat="37.9135342129" lon="-8.6871488672">
        <ele>192.40</ele>
        <time>2019-12-30T07:58:55Z</time>
      </trkpt>
      <trkpt lat="37.9136109911" lon="-8.6869616155">
        <ele>190.96</ele>
        <time>2019-12-30T07:59:08Z</time>
      </trkpt>
      <trkpt lat="37.9137301818" lon="-8.6867544148">
        <ele>189.52</ele>
        <time>2019-12-30T07:59:24Z</time>
      </trkpt>
      <trkpt lat="37.9137735162" lon="-8.6866952386">
        <ele>190.00</ele>
        <time>2019-12-30T07:59:29Z</time>
      </trkpt>
      <trkpt lat="37.9138111509" lon="-8.6866546702">
        <ele>189.52</ele>
        <time>2019-12-30T07:59:33Z</time>
      </trkpt>
      <trkpt lat="37.9139898531" lon="-8.6866022833">
        <ele>189.52</ele>
        <time>2019-12-30T07:59:48Z</time>
      </trkpt>
      <trkpt lat="37.9141512886" lon="-8.6865691748">
        <ele>189.04</ele>
        <time>2019-12-30T08:00:01Z</time>
      </trkpt>
      <trkpt lat="37.9142259713" lon="-8.6865515728">
        <ele>188.56</ele>
        <time>2019-12-30T08:00:07Z</time>
      </trkpt>
      <trkpt lat="37.9143402167" lon="-8.6865619663">
        <ele>188.56</ele>
        <time>2019-12-30T08:00:16Z</time>
      </trkpt>
      <trkpt lat="37.9144977126" lon="-8.6866106652">
        <ele>188.56</ele>
        <time>2019-12-30T08:00:29Z</time>
      </trkpt>
      <trkpt lat="37.9146604892" lon="-8.6866933107">
        <ele>189.04</ele>
        <time>2019-12-30T08:00:44Z</time>
      </trkpt>
      <trkpt lat="37.9146669433" lon="-8.6867025308">
        <ele>189.04</ele>
        <time>2019-12-30T08:00:46Z</time>
      </trkpt>
      <trkpt lat="37.9147507623" lon="-8.6867769621">
        <ele>188.08</ele>
        <time>2019-12-30T08:00:54Z</time>
      </trkpt>
      <trkpt lat="37.9148370121" lon="-8.6868922971">
        <ele>187.59</ele>
        <time>2019-12-30T08:01:04Z</time>
      </trkpt>
      <trkpt lat="37.9148657620" lon="-8.6869397387">
        <ele>186.63</ele>
        <time>2019-12-30T08:01:08Z</time>
      </trkpt>
      <trkpt lat="37.9149814323" lon="-8.6870846618">
        <ele>186.15</ele>
        <time>2019-12-30T08:01:21Z</time>
      </trkpt>
      <trkpt lat="37.9150004592" lon="-8.6871087179">
        <ele>186.63</ele>
        <time>2019-12-30T08:01:23Z</time>
      </trkpt>
      <trkpt lat="37.9150244314" lon="-8.6871394794">
        <ele>186.15</ele>
        <time>2019-12-30T08:01:26Z</time>
      </trkpt>
      <trkpt lat="37.9151222482" lon="-8.6872635316">
        <ele>186.15</ele>
        <time>2019-12-30T08:01:36Z</time>
      </trkpt>
      <trkpt lat="37.9151739646" lon="-8.6873212829">
        <ele>186.15</ele>
        <time>2019-12-30T08:01:41Z</time>
      </trkpt>
      <trkpt lat="37.9152257647" lon="-8.6873662937">
        <ele>186.15</ele>
        <time>2019-12-30T08:01:46Z</time>
      </trkpt>
      <trkpt lat="37.9153208155" lon="-8.6874936987">
        <ele>186.15</ele>
        <time>2019-12-30T08:01:57Z</time>
      </trkpt>
      <trkpt lat="37.9153409321" lon="-8.6875160784">
        <ele>186.15</ele>
        <time>2019-12-30T08:01:59Z</time>
      </trkpt>
      <trkpt lat="37.9153898824" lon="-8.6875709798">
        <ele>186.63</ele>
        <time>2019-12-30T08:02:04Z</time>
      </trkpt>
      <trkpt lat="37.9155435227" lon="-8.6877529509">
        <ele>185.19</ele>
        <time>2019-12-30T08:02:20Z</time>
      </trkpt>
      <trkpt lat="37.9156456981" lon="-8.6878923420">
        <ele>185.19</ele>
        <time>2019-12-30T08:02:32Z</time>
      </trkpt>
      <trkpt lat="37.9157565068" lon="-8.6880158912">
        <ele>184.71</ele>
        <time>2019-12-30T08:02:43Z</time>
      </trkpt>
      <trkpt lat="37.9157715105" lon="-8.6880331580">
        <ele>184.71</ele>
        <time>2019-12-30T08:02:45Z</time>
      </trkpt>
      <trkpt lat="37.9158806428" lon="-8.6881355848">
        <ele>184.23</ele>
        <time>2019-12-30T08:02:55Z</time>
      </trkpt>
      <trkpt lat="37.9159275815" lon="-8.6881651729">
        <ele>183.75</ele>
        <time>2019-12-30T08:02:59Z</time>
      </trkpt>
      <trkpt lat="37.9160537291" lon="-8.6882606428">
        <ele>183.75</ele>
        <time>2019-12-30T08:03:11Z</time>
      </trkpt>
      <trkpt lat="37.9161653761" lon="-8.6883452162">
        <ele>182.79</ele>
        <time>2019-12-30T08:03:22Z</time>
      </trkpt>
      <trkpt lat="37.9162806273" lon="-8.6884334777">
        <ele>182.79</ele>
        <time>2019-12-30T08:03:32Z</time>
      </trkpt>
      <trkpt lat="37.9164479300" lon="-8.6885550153">
        <ele>183.27</ele>
        <time>2019-12-30T08:03:47Z</time>
      </trkpt>
      <trkpt lat="37.9166027438" lon="-8.6886618007">
        <ele>183.27</ele>
        <time>2019-12-30T08:04:01Z</time>
      </trkpt>
      <trkpt lat="37.9166574776" lon="-8.6887167022">
        <ele>182.79</ele>
        <time>2019-12-30T08:04:06Z</time>
      </trkpt>
      <trkpt lat="37.9166770075" lon="-8.6887320410">
        <ele>182.79</ele>
        <time>2019-12-30T08:04:08Z</time>
      </trkpt>
      <trkpt lat="37.9168126266" lon="-8.6888534110">
        <ele>181.35</ele>
        <time>2019-12-30T08:04:21Z</time>
      </trkpt>
      <trkpt lat="37.9168489203" lon="-8.6888834182">
        <ele>181.35</ele>
        <time>2019-12-30T08:04:24Z</time>
      </trkpt>
      <trkpt lat="37.9169166461" lon="-8.6889433488">
        <ele>180.38</ele>
        <time>2019-12-30T08:04:30Z</time>
      </trkpt>
      <trkpt lat="37.9169371817" lon="-8.6889562570">
        <ele>180.38</ele>
        <time>2019-12-30T08:04:32Z</time>
      </trkpt>
      <trkpt lat="37.9170568753" lon="-8.6890778784">
        <ele>180.38</ele>
        <time>2019-12-30T08:04:45Z</time>
      </trkpt>
      <trkpt lat="37.9171294626" lon="-8.6892230529">
        <ele>179.42</ele>
        <time>2019-12-30T08:04:56Z</time>
      </trkpt>
      <trkpt lat="37.9171396885" lon="-8.6892331112">
        <ele>179.42</ele>
        <time>2019-12-30T08:04:57Z</time>
      </trkpt>
      <trkpt lat="37.9171661753" lon="-8.6892810557">
        <ele>179.42</ele>
        <time>2019-12-30T08:05:01Z</time>
      </trkpt>
      <trkpt lat="37.9171857890" lon="-8.6893253960">
        <ele>179.42</ele>
        <time>2019-12-30T08:05:04Z</time>
      </trkpt>
      <trkpt lat="37.9172084201" lon="-8.6893870030">
        <ele>179.42</ele>
        <time>2019-12-30T08:05:08Z</time>
      </trkpt>
      <trkpt lat="37.9173022136" lon="-8.6895959638">
        <ele>178.94</ele>
        <time>2019-12-30T08:05:22Z</time>
      </trkpt>
      <trkpt lat="37.9173707776" lon="-8.6898032483">
        <ele>177.50</ele>
        <time>2019-12-30T08:05:35Z</time>
      </trkpt>
      <trkpt lat="37.9174499027" lon="-8.6900210101">
        <ele>177.02</ele>
        <time>2019-12-30T08:05:49Z</time>
      </trkpt>
      <trkpt lat="37.9175730329" lon="-8.6901288014">
        <ele>176.06</ele>
        <time>2019-12-30T08:06:00Z</time>
      </trkpt>
      <trkpt lat="37.9176446982" lon="-8.6901728902">
        <ele>176.06</ele>
        <time>2019-12-30T08:06:06Z</time>
      </trkpt>
      <trkpt lat="37.9176789802" lon="-8.6901912466">
        <ele>176.06</ele>
        <time>2019-12-30T08:06:09Z</time>
      </trkpt>
      <trkpt lat="37.9177124240" lon="-8.6902184039">
        <ele>176.54</ele>
        <time>2019-12-30T08:06:12Z</time>
      </trkpt>
      <trkpt lat="37.9177951533" lon="-8.6903227586">
        <ele>176.06</ele>
        <time>2019-12-30T08:06:22Z</time>
      </trkpt>
      <trkpt lat="37.9178825766" lon="-8.6904329807">
        <ele>177.02</ele>
        <time>2019-12-30T08:06:31Z</time>
      </trkpt>
      <trkpt lat="37.9178979155" lon="-8.6904687714">
        <ele>177.50</ele>
        <time>2019-12-30T08:06:33Z</time>
      </trkpt>
      <trkpt lat="37.9179390706" lon="-8.6905359104">
        <ele>178.46</ele>
        <time>2019-12-30T08:06:38Z</time>
      </trkpt>
      <trkpt lat="37.9179729335" lon="-8.6906181369">
        <ele>179.42</ele>
        <time>2019-12-30T08:06:44Z</time>
      </trkpt>
      <trkpt lat="37.9180153459" lon="-8.6907380819">
        <ele>180.87</ele>
        <time>2019-12-30T08:06:52Z</time>
      </trkpt>
      <trkpt lat="37.9180550762" lon="-8.6907939892">
        <ele>180.38</ele>
        <time>2019-12-30T08:06:56Z</time>
      </trkpt>
      <trkpt lat="37.9181813914" lon="-8.6909283511">
        <ele>181.35</ele>
        <time>2019-12-30T08:07:08Z</time>
      </trkpt>
      <trkpt lat="37.9182652943" lon="-8.6910271738">
        <ele>181.83</ele>
        <time>2019-12-30T08:07:16Z</time>
      </trkpt>
      <trkpt lat="37.9183526337" lon="-8.6911036167">
        <ele>182.31</ele>
        <time>2019-12-30T08:07:24Z</time>
      </trkpt>
      <trkpt lat="37.9183914419" lon="-8.6911444366">
        <ele>183.27</ele>
        <time>2019-12-30T08:07:28Z</time>
      </trkpt>
      <trkpt lat="37.9184330162" lon="-8.6911677383">
        <ele>183.75</ele>
        <time>2019-12-30T08:07:32Z</time>
      </trkpt>
      <trkpt lat="37.9184724111" lon="-8.6912766192">
        <ele>185.67</ele>
        <time>2019-12-30T08:07:40Z</time>
      </trkpt>
      <trkpt lat="37.9184684716" lon="-8.6913570017">
        <ele>186.63</ele>
        <time>2019-12-30T08:07:45Z</time>
      </trkpt>
      <trkpt lat="37.9184960481" lon="-8.6914630327">
        <ele>187.11</ele>
        <time>2019-12-30T08:07:52Z</time>
      </trkpt>
      <trkpt lat="37.9185116384" lon="-8.6915284954">
        <ele>187.11</ele>
        <time>2019-12-30T08:07:56Z</time>
      </trkpt>
      <trkpt lat="37.9185647797" lon="-8.6917097960">
        <ele>188.56</ele>
        <time>2019-12-30T08:08:08Z</time>
      </trkpt>
      <trkpt lat="37.9186268896" lon="-8.6918479297">
        <ele>190.48</ele>
        <time>2019-12-30T08:08:17Z</time>
      </trkpt>
      <trkpt lat="37.9187970422" lon="-8.6920003965">
        <ele>190.96</ele>
        <time>2019-12-30T08:08:32Z</time>
      </trkpt>
      <trkpt lat="37.9189459886" lon="-8.6919999775">
        <ele>189.04</ele>
        <time>2019-12-30T08:08:44Z</time>
      </trkpt>
      <trkpt lat="37.9190929234" lon="-8.6920630094">
        <ele>187.59</ele>
        <time>2019-12-30T08:08:56Z</time>
      </trkpt>
      <trkpt lat="37.9192622378" lon="-8.6921811104">
        <ele>186.15</ele>
        <time>2019-12-30T08:09:10Z</time>
      </trkpt>
      <trkpt lat="37.9192909878" lon="-8.6921993829">
        <ele>185.67</ele>
        <time>2019-12-30T08:09:12Z</time>
      </trkpt>
      <trkpt lat="37.9193518404" lon="-8.6922262888">
        <ele>185.19</ele>
        <time>2019-12-30T08:09:17Z</time>
      </trkpt>
      <trkpt lat="37.9194816761" lon="-8.6922867224">
        <ele>182.31</ele>
        <time>2019-12-30T08:09:28Z</time>
      </trkpt>
      <trkpt lat="37.9195380025" lon="-8.6923210882">
        <ele>180.87</ele>
        <time>2019-12-30T08:09:33Z</time>
      </trkpt>
      <trkpt lat="37.9196782317" lon="-8.6924071703">
        <ele>180.38</ele>
        <time>2019-12-30T08:09:45Z</time>
      </trkpt>
      <trkpt lat="37.9197965004" lon="-8.6926147901">
        <ele>180.38</ele>
        <time>2019-12-30T08:10:00Z</time>
      </trkpt>
      <trkpt lat="37.9198141862" lon="-8.6926729605">
        <ele>180.38</ele>
        <time>2019-12-30T08:10:04Z</time>
      </trkpt>
      <trkpt lat="37.9198646452" lon="-8.6927931570">
        <ele>182.31</ele>
        <time>2019-12-30T08:10:12Z</time>
      </trkpt>
      <trkpt lat="37.9199192952" lon="-8.6929754633">
        <ele>184.23</ele>
        <time>2019-12-30T08:10:24Z</time>
      </trkpt>
      <trkpt lat="37.9199413396" lon="-8.6930220667">
        <ele>184.71</ele>
        <time>2019-12-30T08:10:28Z</time>
      </trkpt>
      <trkpt lat="37.9200207163" lon="-8.6931052990">
        <ele>186.15</ele>
        <time>2019-12-30T08:10:36Z</time>
      </trkpt>
      <trkpt lat="37.9200591054" lon="-8.6931023654">
        <ele>186.63</ele>
        <time>2019-12-30T08:10:39Z</time>
      </trkpt>
      <trkpt lat="37.9201851692" lon="-8.6929934844">
        <ele>187.11</ele>
        <time>2019-12-30T08:10:51Z</time>
      </trkpt>
      <trkpt lat="37.9203273263" lon="-8.6928330548">
        <ele>187.11</ele>
        <time>2019-12-30T08:11:06Z</time>
      </trkpt>
      <trkpt lat="37.9204652924" lon="-8.6927033868">
        <ele>186.15</ele>
        <time>2019-12-30T08:11:19Z</time>
      </trkpt>
      <trkpt lat="37.9205105547" lon="-8.6926587112">
        <ele>185.67</ele>
        <time>2019-12-30T08:11:23Z</time>
      </trkpt>
      <trkpt lat="37.9205875006" lon="-8.6925269477">
        <ele>185.19</ele>
        <time>2019-12-30T08:11:32Z</time>
      </trkpt>
      <trkpt lat="37.9206051026" lon="-8.6923576333">
        <ele>184.23</ele>
        <time>2019-12-30T08:11:42Z</time>
      </trkpt>
      <trkpt lat="37.9206254706" lon="-8.6922513507">
        <ele>184.23</ele>
        <time>2019-12-30T08:11:48Z</time>
      </trkpt>
      <trkpt lat="37.9206283204" lon="-8.6921907496">
        <ele>184.23</ele>
        <time>2019-12-30T08:11:52Z</time>
      </trkpt>
      <trkpt lat="37.9206959624" lon="-8.6920394562">
        <ele>184.23</ele>
        <time>2019-12-30T08:12:03Z</time>
      </trkpt>
      <trkpt lat="37.9208412208" lon="-8.6919017415">
        <ele>183.27</ele>
        <time>2019-12-30T08:12:18Z</time>
      </trkpt>
      <trkpt lat="37.9208966251" lon="-8.6918654479">
        <ele>183.27</ele>
        <time>2019-12-30T08:12:23Z</time>
      </trkpt>
      <trkpt lat="37.9210615810" lon="-8.6917992309">
        <ele>183.27</ele>
        <time>2019-12-30T08:12:36Z</time>
      </trkpt>
      <trkpt lat="37.9211838730" lon="-8.6917393003">
        <ele>183.75</ele>
        <time>2019-12-30T08:12:46Z</time>
      </trkpt>
      <trkpt lat="37.9213258624" lon="-8.6916826386">
        <ele>184.71</ele>
        <time>2019-12-30T08:12:57Z</time>
      </trkpt>
      <trkpt lat="37.9214357492" lon="-8.6916252226">
        <ele>184.71</ele>
        <time>2019-12-30T08:13:06Z</time>
      </trkpt>
      <trkpt lat="37.9216173850" lon="-8.6915221252">
        <ele>183.75</ele>
        <time>2019-12-30T08:13:21Z</time>
      </trkpt>
      <trkpt lat="37.9216716159" lon="-8.6914943811">
        <ele>184.23</ele>
        <time>2019-12-30T08:13:26Z</time>
      </trkpt>
      <trkpt lat="37.9217328038" lon="-8.6914629489">
        <ele>184.23</ele>
        <time>2019-12-30T08:13:31Z</time>
      </trkpt>
      <trkpt lat="37.9218234122" lon="-8.6914162617">
        <ele>183.75</ele>
        <time>2019-12-30T08:13:39Z</time>
      </trkpt>
      <trkpt lat="37.9219317902" lon="-8.6914078798">
        <ele>183.27</ele>
        <time>2019-12-30T08:13:47Z</time>
      </trkpt>
      <trkpt lat="37.9220155254" lon="-8.6914199498">
        <ele>182.79</ele>
        <time>2019-12-30T08:13:54Z</time>
      </trkpt>
      <trkpt lat="37.9220985901" lon="-8.6914435029">
        <ele>182.31</ele>
        <time>2019-12-30T08:14:00Z</time>
      </trkpt>
      <trkpt lat="37.9222845845" lon="-8.6914994102">
        <ele>181.35</ele>
        <time>2019-12-30T08:14:15Z</time>
      </trkpt>
      <trkpt lat="37.9224243946" lon="-8.6915069539">
        <ele>180.38</ele>
        <time>2019-12-30T08:14:26Z</time>
      </trkpt>
      <trkpt lat="37.9225086328" lon="-8.6915155873">
        <ele>180.87</ele>
        <time>2019-12-30T08:14:35Z</time>
      </trkpt>
      <trkpt lat="37.9225241393" lon="-8.6914893519">
        <ele>180.38</ele>
        <time>2019-12-30T08:14:37Z</time>
      </trkpt>
      <trkpt lat="37.9225512128" lon="-8.6914291698">
        <ele>180.38</ele>
        <time>2019-12-30T08:14:41Z</time>
      </trkpt>
      <trkpt lat="37.9225741792" lon="-8.6912751943">
        <ele>180.38</ele>
        <time>2019-12-30T08:14:52Z</time>
      </trkpt>
      <trkpt lat="37.9225733411" lon="-8.6912732664">
        <ele>180.87</ele>
        <time>2019-12-30T08:15:06Z</time>
      </trkpt>
      <trkpt lat="37.9225733411" lon="-8.6912732664">
        <ele>180.38</ele>
        <time>2019-12-30T08:15:10Z</time>
      </trkpt>
      <trkpt lat="37.9225911107" lon="-8.6912630405">
        <ele>180.38</ele>
        <time>2019-12-30T08:15:13Z</time>
      </trkpt>
      <trkpt lat="37.9226710740" lon="-8.6912062950">
        <ele>181.35</ele>
        <time>2019-12-30T08:15:26Z</time>
      </trkpt>
      <trkpt lat="37.9226792045" lon="-8.6912217177">
        <ele>180.87</ele>
        <time>2019-12-30T08:15:45Z</time>
      </trkpt>
      <trkpt lat="37.9226942919" lon="-8.6912228074">
        <ele>181.35</ele>
        <time>2019-12-30T08:15:47Z</time>
      </trkpt>
      <trkpt lat="37.9227650352" lon="-8.6911695823">
        <ele>182.31</ele>
        <time>2019-12-30T08:15:59Z</time>
      </trkpt>
      <trkpt lat="37.9227650352" lon="-8.6911695823">
        <ele>182.31</ele>
        <time>2019-12-30T08:16:07Z</time>
      </trkpt>
      <trkpt lat="37.9228419811" lon="-8.6911080591">
        <ele>182.79</ele>
        <time>2019-12-30T08:16:19Z</time>
      </trkpt>
      <trkpt lat="37.9228512011" lon="-8.6911053769">
        <ele>182.79</ele>
        <time>2019-12-30T08:16:20Z</time>
      </trkpt>
      <trkpt lat="37.9228930268" lon="-8.6910901219">
        <ele>183.27</ele>
        <time>2019-12-30T08:16:24Z</time>
      </trkpt>
      <trkpt lat="37.9230606649" lon="-8.6909994297">
        <ele>182.79</ele>
        <time>2019-12-30T08:16:39Z</time>
      </trkpt>
      <trkpt lat="37.9230546299" lon="-8.6910070572">
        <ele>183.27</ele>
        <time>2019-12-30T08:16:42Z</time>
      </trkpt>
      <trkpt lat="37.9230516125" lon="-8.6910347175">
        <ele>183.75</ele>
        <time>2019-12-30T08:16:48Z</time>
      </trkpt>
      <trkpt lat="37.9231692106" lon="-8.6909279320">
        <ele>182.31</ele>
        <time>2019-12-30T08:17:01Z</time>
      </trkpt>
      <trkpt lat="37.9233017284" lon="-8.6907910556">
        <ele>182.31</ele>
        <time>2019-12-30T08:17:14Z</time>
      </trkpt>
      <trkpt lat="37.9234069213" lon="-8.6906475574">
        <ele>181.83</ele>
        <time>2019-12-30T08:17:26Z</time>
      </trkpt>
      <trkpt lat="37.9234257806" lon="-8.6906322185">
        <ele>181.83</ele>
        <time>2019-12-30T08:17:28Z</time>
      </trkpt>
      <trkpt lat="37.9235017207" lon="-8.6905136984">
        <ele>181.35</ele>
        <time>2019-12-30T08:17:38Z</time>
      </trkpt>
      <trkpt lat="37.9236026388" lon="-8.6904227547">
        <ele>182.31</ele>
        <time>2019-12-30T08:17:52Z</time>
      </trkpt>
      <trkpt lat="37.9236026388" lon="-8.6904227547">
        <ele>181.83</ele>
        <time>2019-12-30T08:17:53Z</time>
      </trkpt>
      <trkpt lat="37.9236385133" lon="-8.6904198211">
        <ele>181.83</ele>
        <time>2019-12-30T08:17:57Z</time>
      </trkpt>
      <trkpt lat="37.9236981086" lon="-8.6904191505">
        <ele>181.83</ele>
        <time>2019-12-30T08:18:02Z</time>
      </trkpt>
      <trkpt lat="37.9237397667" lon="-8.6904270295">
        <ele>181.83</ele>
        <time>2019-12-30T08:18:16Z</time>
      </trkpt>
      <trkpt lat="37.9237468075" lon="-8.6904333159">
        <ele>181.35</ele>
        <time>2019-12-30T08:18:17Z</time>
      </trkpt>
      <trkpt lat="37.9237961769" lon="-8.6904635746">
        <ele>181.35</ele>
        <time>2019-12-30T08:18:22Z</time>
      </trkpt>
      <trkpt lat="37.9239581153" lon="-8.6904105172">
        <ele>181.35</ele>
        <time>2019-12-30T08:18:36Z</time>
      </trkpt>
      <trkpt lat="37.9240125977" lon="-8.6904068291">
        <ele>181.35</ele>
        <time>2019-12-30T08:18:40Z</time>
      </trkpt>
      <trkpt lat="37.9241256695" lon="-8.6905638222">
        <ele>180.38</ele>
        <time>2019-12-30T08:18:54Z</time>
      </trkpt>
      <trkpt lat="37.9242079798" lon="-8.6907136068">
        <ele>179.42</ele>
        <time>2019-12-30T08:19:06Z</time>
      </trkpt>
      <trkpt lat="37.9242240731" lon="-8.6907371599">
        <ele>179.42</ele>
        <time>2019-12-30T08:19:08Z</time>
      </trkpt>
      <trkpt lat="37.9242656473" lon="-8.6907870322">
        <ele>179.42</ele>
        <time>2019-12-30T08:19:18Z</time>
      </trkpt>
      <trkpt lat="37.9243169446" lon="-8.6908545066">
        <ele>179.42</ele>
        <time>2019-12-30T08:19:23Z</time>
      </trkpt>
      <trkpt lat="37.9243773781" lon="-8.6909116711">
        <ele>179.42</ele>
        <time>2019-12-30T08:19:32Z</time>
      </trkpt>
      <trkpt lat="37.9244020209" lon="-8.6909723561">
        <ele>178.94</ele>
        <time>2019-12-30T08:19:36Z</time>
      </trkpt>
      <trkpt lat="37.9244903661" lon="-8.6911376473">
        <ele>178.46</ele>
        <time>2019-12-30T08:19:48Z</time>
      </trkpt>
      <trkpt lat="37.9245476983" lon="-8.6912075523">
        <ele>177.50</ele>
        <time>2019-12-30T08:19:53Z</time>
      </trkpt>
      <trkpt lat="37.9246522207" lon="-8.6913353764">
        <ele>177.02</ele>
        <time>2019-12-30T08:20:04Z</time>
      </trkpt>
      <trkpt lat="37.9247936234" lon="-8.6914731748">
        <ele>176.54</ele>
        <time>2019-12-30T08:20:19Z</time>
      </trkpt>
      <trkpt lat="37.9249245487" lon="-8.6916245520">
        <ele>174.62</ele>
        <time>2019-12-30T08:20:35Z</time>
      </trkpt>
      <trkpt lat="37.9250525404" lon="-8.6917284876">
        <ele>173.17</ele>
        <time>2019-12-30T08:20:49Z</time>
      </trkpt>
      <trkpt lat="37.9251688812" lon="-8.6918982212">
        <ele>171.73</ele>
        <time>2019-12-30T08:21:05Z</time>
      </trkpt>
      <trkpt lat="37.9251995590" lon="-8.6919575650">
        <ele>169.33</ele>
        <time>2019-12-30T08:21:10Z</time>
      </trkpt>
      <trkpt lat="37.9252038337" lon="-8.6919702217">
        <ele>169.33</ele>
        <time>2019-12-30T08:21:11Z</time>
      </trkpt>
      <trkpt lat="37.9252920952" lon="-8.6920733191">
        <ele>169.33</ele>
        <time>2019-12-30T08:21:25Z</time>
      </trkpt>
      <trkpt lat="37.9253000580" lon="-8.6920816172">
        <ele>169.33</ele>
        <time>2019-12-30T08:21:26Z</time>
      </trkpt>
      <trkpt lat="37.9254034907" lon="-8.6920833774">
        <ele>169.33</ele>
        <time>2019-12-30T08:21:35Z</time>
      </trkpt>
      <trkpt lat="37.9255806003" lon="-8.6920540407">
        <ele>169.33</ele>
        <time>2019-12-30T08:21:50Z</time>
      </trkpt>
      <trkpt lat="37.9256893136" lon="-8.6919882428">
        <ele>168.85</ele>
        <time>2019-12-30T08:22:00Z</time>
      </trkpt>
      <trkpt lat="37.9258043971" lon="-8.6918823794">
        <ele>168.85</ele>
        <time>2019-12-30T08:22:12Z</time>
      </trkpt>
      <trkpt lat="37.9258389305" lon="-8.6918470077">
        <ele>169.33</ele>
        <time>2019-12-30T08:22:15Z</time>
      </trkpt>
      <trkpt lat="37.9258963466" lon="-8.6917828862">
        <ele>168.37</ele>
        <time>2019-12-30T08:22:21Z</time>
      </trkpt>
      <trkpt lat="37.9259246774" lon="-8.6917211115">
        <ele>167.89</ele>
        <time>2019-12-30T08:22:25Z</time>
      </trkpt>
      <trkpt lat="37.9259600490" lon="-8.6916402262">
        <ele>167.89</ele>
        <time>2019-12-30T08:22:31Z</time>
      </trkpt>
      <trkpt lat="37.9260305408" lon="-8.6914600991">
        <ele>167.89</ele>
        <time>2019-12-30T08:22:42Z</time>
      </trkpt>
      <trkpt lat="37.9260379169" lon="-8.6914453469">
        <ele>167.89</ele>
        <time>2019-12-30T08:22:43Z</time>
      </trkpt>
      <trkpt lat="37.9260945786" lon="-8.6913813930">
        <ele>167.41</ele>
        <time>2019-12-30T08:22:49Z</time>
      </trkpt>
      <trkpt lat="37.9261514917" lon="-8.6913808901">
        <ele>167.89</ele>
        <time>2019-12-30T08:22:54Z</time>
      </trkpt>
      <trkpt lat="37.9261737037" lon="-8.6913824826">
        <ele>167.41</ele>
        <time>2019-12-30T08:22:56Z</time>
      </trkpt>
      <trkpt lat="37.9262556788" lon="-8.6914452631">
        <ele>168.85</ele>
        <time>2019-12-30T08:23:04Z</time>
      </trkpt>
      <trkpt lat="37.9262826685" lon="-8.6914735939">
        <ele>169.33</ele>
        <time>2019-12-30T08:23:06Z</time>
      </trkpt>
      <trkpt lat="37.9263101611" lon="-8.6915092170">
        <ele>169.81</ele>
        <time>2019-12-30T08:23:09Z</time>
      </trkpt>
      <trkpt lat="37.9264189582" lon="-8.6915698182">
        <ele>169.81</ele>
        <time>2019-12-30T08:23:18Z</time>
      </trkpt>
      <trkpt lat="37.9265501350" lon="-8.6916314252">
        <ele>170.29</ele>
        <time>2019-12-30T08:23:28Z</time>
      </trkpt>
      <trkpt lat="37.9266487062" lon="-8.6916792020">
        <ele>170.77</ele>
        <time>2019-12-30T08:23:36Z</time>
      </trkpt>
      <trkpt lat="37.9267214611" lon="-8.6916826386">
        <ele>169.81</ele>
        <time>2019-12-30T08:23:41Z</time>
      </trkpt>
      <trkpt lat="37.9268442560" lon="-8.6916569900">
        <ele>170.29</ele>
        <time>2019-12-30T08:23:50Z</time>
      </trkpt>
      <trkpt lat="37.9269564897" lon="-8.6916912720">
        <ele>170.77</ele>
        <time>2019-12-30T08:23:59Z</time>
      </trkpt>
      <trkpt lat="37.9270476010" lon="-8.6918066069">
        <ele>172.21</ele>
        <time>2019-12-30T08:24:08Z</time>
      </trkpt>
      <trkpt lat="37.9270705674" lon="-8.6919107940">
        <ele>172.69</ele>
        <time>2019-12-30T08:24:14Z</time>
      </trkpt>
      <trkpt lat="37.9271004070" lon="-8.6919752508">
        <ele>173.66</ele>
        <time>2019-12-30T08:24:18Z</time>
      </trkpt>
      <trkpt lat="37.9271351919" lon="-8.6920545436">
        <ele>174.62</ele>
        <time>2019-12-30T08:24:24Z</time>
      </trkpt>
      <trkpt lat="37.9271864053" lon="-8.6921581440">
        <ele>175.58</ele>
        <time>2019-12-30T08:24:31Z</time>
      </trkpt>
      <trkpt lat="37.9272440728" lon="-8.6922873929">
        <ele>177.02</ele>
        <time>2019-12-30T08:24:40Z</time>
      </trkpt>
      <trkpt lat="37.9272424802" lon="-8.6923140474">
        <ele>177.02</ele>
        <time>2019-12-30T08:24:42Z</time>
      </trkpt>
      <trkpt lat="37.9272863176" lon="-8.6924126185">
        <ele>177.50</ele>
        <time>2019-12-30T08:24:48Z</time>
      </trkpt>
      <trkpt lat="37.9273501877" lon="-8.6925947573">
        <ele>178.46</ele>
        <time>2019-12-30T08:24:59Z</time>
      </trkpt>
      <trkpt lat="37.9274091963" lon="-8.6927012913">
        <ele>178.94</ele>
        <time>2019-12-30T08:25:06Z</time>
      </trkpt>
      <trkpt lat="37.9274212662" lon="-8.6927442905">
        <ele>179.42</ele>
        <time>2019-12-30T08:25:09Z</time>
      </trkpt>
      <trkpt lat="37.9274664447" lon="-8.6928073224">
        <ele>179.42</ele>
        <time>2019-12-30T08:25:15Z</time>
      </trkpt>
      <trkpt lat="37.9275296442" lon="-8.6928875372">
        <ele>179.90</ele>
        <time>2019-12-30T08:25:21Z</time>
      </trkpt>
      <trkpt lat="37.9275702965" lon="-8.6929741222">
        <ele>180.87</ele>
        <time>2019-12-30T08:25:27Z</time>
      </trkpt>
      <trkpt lat="37.9276440572" lon="-8.6930845957">
        <ele>181.83</ele>
        <time>2019-12-30T08:25:36Z</time>
      </trkpt>
      <trkpt lat="37.9277543630" lon="-8.6931980029">
        <ele>182.79</ele>
        <time>2019-12-30T08:25:46Z</time>
      </trkpt>
      <trkpt lat="37.9277968593" lon="-8.6932459474">
        <ele>183.27</ele>
        <time>2019-12-30T08:25:50Z</time>
      </trkpt>
      <trkpt lat="37.9278502520" lon="-8.6933285929">
        <ele>183.27</ele>
        <time>2019-12-30T08:25:56Z</time>
      </trkpt>
      <trkpt lat="37.9278622381" lon="-8.6933483742">
        <ele>183.27</ele>
        <time>2019-12-30T08:25:58Z</time>
      </trkpt>
      <trkpt lat="37.9279084224" lon="-8.6933885235">
        <ele>183.75</ele>
        <time>2019-12-30T08:26:03Z</time>
      </trkpt>
      <trkpt lat="37.9279250186" lon="-8.6934175249">
        <ele>183.27</ele>
        <time>2019-12-30T08:26:05Z</time>
      </trkpt>
      <trkpt lat="37.9279535171" lon="-8.6934607755">
        <ele>183.75</ele>
        <time>2019-12-30T08:26:08Z</time>
      </trkpt>
      <trkpt lat="37.9279754777" lon="-8.6935009249">
        <ele>183.75</ele>
        <time>2019-12-30T08:26:11Z</time>
      </trkpt>
      <trkpt lat="37.9280361626" lon="-8.6935818940">
        <ele>183.75</ele>
        <time>2019-12-30T08:26:17Z</time>
      </trkpt>
      <trkpt lat="37.9280647449" lon="-8.6936101411">
        <ele>183.75</ele>
        <time>2019-12-30T08:26:20Z</time>
      </trkpt>
      <trkpt lat="37.9281212389" lon="-8.6936631147">
        <ele>183.75</ele>
        <time>2019-12-30T08:26:26Z</time>
      </trkpt>
      <trkpt lat="37.9281971790" lon="-8.6937155016">
        <ele>183.27</ele>
        <time>2019-12-30T08:26:32Z</time>
      </trkpt>
      <trkpt lat="37.9282995220" lon="-8.6937632784">
        <ele>183.75</ele>
        <time>2019-12-30T08:26:40Z</time>
      </trkpt>
      <trkpt lat="37.9284423497" lon="-8.6937921960">
        <ele>183.75</ele>
        <time>2019-12-30T08:26:51Z</time>
      </trkpt>
      <trkpt lat="37.9284840077" lon="-8.6938116420">
        <ele>183.27</ele>
        <time>2019-12-30T08:26:55Z</time>
      </trkpt>
      <trkpt lat="37.9285983369" lon="-8.6939255521">
        <ele>183.27</ele>
        <time>2019-12-30T08:27:06Z</time>
      </trkpt>
      <trkpt lat="37.9286130052" lon="-8.6939782742">
        <ele>183.75</ele>
        <time>2019-12-30T08:27:09Z</time>
      </trkpt>
      <trkpt lat="37.9286414199" lon="-8.6940133944">
        <ele>183.75</ele>
        <time>2019-12-30T08:27:12Z</time>
      </trkpt>
      <trkpt lat="37.9287047032" lon="-8.6941303220">
        <ele>184.71</ele>
        <time>2019-12-30T08:27:20Z</time>
      </trkpt>
      <trkpt lat="37.9287681542" lon="-8.6942643486">
        <ele>184.71</ele>
        <time>2019-12-30T08:27:29Z</time>
      </trkpt>
      <trkpt lat="37.9288263246" lon="-8.6944067571">
        <ele>184.71</ele>
        <time>2019-12-30T08:27:39Z</time>
      </trkpt>
      <trkpt lat="37.9288936313" lon="-8.6946111917">
        <ele>185.67</ele>
        <time>2019-12-30T08:27:52Z</time>
      </trkpt>
      <trkpt lat="37.9289683141" lon="-8.6947981082">
        <ele>185.67</ele>
        <time>2019-12-30T08:28:04Z</time>
      </trkpt>
      <trkpt lat="37.9289907776" lon="-8.6948370840">
        <ele>185.67</ele>
        <time>2019-12-30T08:28:08Z</time>
      </trkpt>
      <trkpt lat="37.9290195275" lon="-8.6948689353">
        <ele>185.67</ele>
        <time>2019-12-30T08:28:11Z</time>
      </trkpt>
      <trkpt lat="37.9290633649" lon="-8.6949430313">
        <ele>186.15</ele>
        <time>2019-12-30T08:28:17Z</time>
      </trkpt>
      <trkpt lat="37.9291144107" lon="-8.6950323824">
        <ele>186.15</ele>
        <time>2019-12-30T08:28:23Z</time>
      </trkpt>
      <trkpt lat="37.9291849863" lon="-8.6951629724">
        <ele>185.67</ele>
        <time>2019-12-30T08:28:33Z</time>
      </trkpt>
      <trkpt lat="37.9291985650" lon="-8.6951872800">
        <ele>186.15</ele>
        <time>2019-12-30T08:28:35Z</time>
      </trkpt>
      <trkpt lat="37.9292394686" lon="-8.6952373199">
        <ele>186.15</ele>
        <time>2019-12-30T08:28:40Z</time>
      </trkpt>
      <trkpt lat="37.9292843957" lon="-8.6953431834">
        <ele>186.15</ele>
        <time>2019-12-30T08:28:48Z</time>
      </trkpt>
      <trkpt lat="37.9293300770" lon="-8.6954062991">
        <ele>186.15</ele>
        <time>2019-12-30T08:28:55Z</time>
      </trkpt>
      <trkpt lat="37.9294557218" lon="-8.6954690795">
        <ele>186.63</ele>
        <time>2019-12-30T08:29:07Z</time>
      </trkpt>
      <trkpt lat="37.9295528680" lon="-8.6954600271">
        <ele>187.11</ele>
        <time>2019-12-30T08:29:14Z</time>
      </trkpt>
      <trkpt lat="37.9297613259" lon="-8.6954049580">
        <ele>186.63</ele>
        <time>2019-12-30T08:29:31Z</time>
      </trkpt>
      <trkpt lat="37.9297739826" lon="-8.6954036169">
        <ele>186.63</ele>
        <time>2019-12-30T08:29:32Z</time>
      </trkpt>
      <trkpt lat="37.9298350867" lon="-8.6953803990">
        <ele>186.63</ele>
        <time>2019-12-30T08:29:38Z</time>
      </trkpt>
      <trkpt lat="37.9298982024" lon="-8.6953336280">
        <ele>186.15</ele>
        <time>2019-12-30T08:29:44Z</time>
      </trkpt>
      <trkpt lat="37.9299488291" lon="-8.6953285150">
        <ele>185.67</ele>
        <time>2019-12-30T08:29:48Z</time>
      </trkpt>
      <trkpt lat="37.9299699515" lon="-8.6953308620">
        <ele>186.63</ele>
        <time>2019-12-30T08:29:50Z</time>
      </trkpt>
      <trkpt lat="37.9300870467" lon="-8.6953456979">
        <ele>186.63</ele>
        <time>2019-12-30T08:29:59Z</time>
      </trkpt>
      <trkpt lat="37.9302287009" lon="-8.6953222286">
        <ele>185.67</ele>
        <time>2019-12-30T08:30:11Z</time>
      </trkpt>
      <trkpt lat="37.9303719476" lon="-8.6952832527">
        <ele>185.67</ele>
        <time>2019-12-30T08:30:23Z</time>
      </trkpt>
      <trkpt lat="37.9304335546" lon="-8.6952580232">
        <ele>185.67</ele>
        <time>2019-12-30T08:30:28Z</time>
      </trkpt>
      <trkpt lat="37.9304923955" lon="-8.6952426843">
        <ele>185.67</ele>
        <time>2019-12-30T08:30:33Z</time>
      </trkpt>
      <trkpt lat="37.9305269290" lon="-8.6952211428">
        <ele>186.15</ele>
        <time>2019-12-30T08:30:36Z</time>
      </trkpt>
      <trkpt lat="37.9305500630" lon="-8.6952115875">
        <ele>185.67</ele>
        <time>2019-12-30T08:30:38Z</time>
      </trkpt>
      <trkpt lat="37.9306533281" lon="-8.6952277645">
        <ele>186.15</ele>
        <time>2019-12-30T08:30:47Z</time>
      </trkpt>
      <trkpt lat="37.9307079781" lon="-8.6952518206">
        <ele>186.63</ele>
        <time>2019-12-30T08:30:52Z</time>
      </trkpt>
      <trkpt lat="37.9307513125" lon="-8.6952923890">
        <ele>186.63</ele>
        <time>2019-12-30T08:30:56Z</time>
      </trkpt>
      <trkpt lat="37.9308670666" lon="-8.6953482963">
        <ele>186.63</ele>
        <time>2019-12-30T08:31:06Z</time>
      </trkpt>
      <trkpt lat="37.9309037793" lon="-8.6953513976">
        <ele>187.11</ele>
        <time>2019-12-30T08:31:09Z</time>
      </trkpt>
      <trkpt lat="37.9310106486" lon="-8.6953440215">
        <ele>187.59</ele>
        <time>2019-12-30T08:31:17Z</time>
      </trkpt>
      <trkpt lat="37.9310678132" lon="-8.6953627132">
        <ele>188.08</ele>
        <time>2019-12-30T08:31:22Z</time>
      </trkpt>
      <trkpt lat="37.9311783705" lon="-8.6954288464">
        <ele>188.56</ele>
        <time>2019-12-30T08:31:32Z</time>
      </trkpt>
      <trkpt lat="37.9311922006" lon="-8.6954566743">
        <ele>189.04</ele>
        <time>2019-12-30T08:31:34Z</time>
      </trkpt>
      <trkpt lat="37.9312288295" lon="-8.6955053732">
        <ele>189.04</ele>
        <time>2019-12-30T08:31:38Z</time>
      </trkpt>
      <trkpt lat="37.9312667996" lon="-8.6955388170">
        <ele>188.56</ele>
        <time>2019-12-30T08:31:42Z</time>
      </trkpt>
      <trkpt lat="37.9312916100" lon="-8.6955793854">
        <ele>189.52</ele>
        <time>2019-12-30T08:31:45Z</time>
      </trkpt>
      <trkpt lat="37.9313116428" lon="-8.6956278328">
        <ele>189.04</ele>
        <time>2019-12-30T08:31:48Z</time>
      </trkpt>
      <trkpt lat="37.9313692264" lon="-8.6958182696">
        <ele>190.48</ele>
        <time>2019-12-30T08:32:00Z</time>
      </trkpt>
      <trkpt lat="37.9313799553" lon="-8.6959067825">
        <ele>190.96</ele>
        <time>2019-12-30T08:32:06Z</time>
      </trkpt>
      <trkpt lat="37.9313996527" lon="-8.6959575769">
        <ele>190.00</ele>
        <time>2019-12-30T08:32:10Z</time>
      </trkpt>
      <trkpt lat="37.9314330965" lon="-8.6960951239">
        <ele>190.48</ele>
        <time>2019-12-30T08:32:19Z</time>
      </trkpt>
      <trkpt lat="37.9313999042" lon="-8.6962553021">
        <ele>190.96</ele>
        <time>2019-12-30T08:32:29Z</time>
      </trkpt>
      <trkpt lat="37.9314019997" lon="-8.6963512748">
        <ele>190.48</ele>
        <time>2019-12-30T08:32:35Z</time>
      </trkpt>
      <trkpt lat="37.9313978087" lon="-8.6963837128">
        <ele>190.96</ele>
        <time>2019-12-30T08:32:37Z</time>
      </trkpt>
      <trkpt lat="37.9313925281" lon="-8.6964479182">
        <ele>190.00</ele>
        <time>2019-12-30T08:32:41Z</time>
      </trkpt>
      <trkpt lat="37.9313869961" lon="-8.6964889895">
        <ele>190.48</ele>
        <time>2019-12-30T08:32:44Z</time>
      </trkpt>
      <trkpt lat="37.9313918576" lon="-8.6965954397">
        <ele>190.00</ele>
        <time>2019-12-30T08:32:50Z</time>
      </trkpt>
      <trkpt lat="37.9313930310" lon="-8.6966280453">
        <ele>189.52</ele>
        <time>2019-12-30T08:32:52Z</time>
      </trkpt>
      <trkpt lat="37.9313907679" lon="-8.6967882235">
        <ele>189.04</ele>
        <time>2019-12-30T08:33:02Z</time>
      </trkpt>
      <trkpt lat="37.9313976411" lon="-8.6968216673">
        <ele>189.52</ele>
        <time>2019-12-30T08:33:04Z</time>
      </trkpt>
      <trkpt lat="37.9314362817" lon="-8.6970582046">
        <ele>188.08</ele>
        <time>2019-12-30T08:33:19Z</time>
      </trkpt>
      <trkpt lat="37.9314664565" lon="-8.6971642356">
        <ele>187.11</ele>
        <time>2019-12-30T08:33:26Z</time>
      </trkpt>
      <trkpt lat="37.9315355234" lon="-8.6973905470">
        <ele>186.63</ele>
        <time>2019-12-30T08:33:41Z</time>
      </trkpt>
      <trkpt lat="37.9315875750" lon="-8.6975691654">
        <ele>186.15</ele>
        <time>2019-12-30T08:33:53Z</time>
      </trkpt>
      <trkpt lat="37.9316418059" lon="-8.6978402361">
        <ele>185.67</ele>
        <time>2019-12-30T08:34:09Z</time>
      </trkpt>
      <trkpt lat="37.9316860624" lon="-8.6980749294">
        <ele>185.67</ele>
        <time>2019-12-30T08:34:24Z</time>
      </trkpt>
      <trkpt lat="37.9317411315" lon="-8.6983024981">
        <ele>184.23</ele>
        <time>2019-12-30T08:34:38Z</time>
      </trkpt>
      <trkpt lat="37.9317894112" lon="-8.6984958686">
        <ele>183.75</ele>
        <time>2019-12-30T08:34:50Z</time>
      </trkpt>
      <trkpt lat="37.9318191670" lon="-8.6986174900">
        <ele>183.75</ele>
        <time>2019-12-30T08:34:58Z</time>
      </trkpt>
      <trkpt lat="37.9319037404" lon="-8.6988284625">
        <ele>183.75</ele>
        <time>2019-12-30T08:35:12Z</time>
      </trkpt>
      <trkpt lat="37.9319083504" lon="-8.6988432147">
        <ele>183.27</ele>
        <time>2019-12-30T08:35:13Z</time>
      </trkpt>
      <trkpt lat="37.9319509305" lon="-8.6989214178">
        <ele>183.27</ele>
        <time>2019-12-30T08:35:19Z</time>
      </trkpt>
      <trkpt lat="37.9319938459" lon="-8.6991147883">
        <ele>183.75</ele>
        <time>2019-12-30T08:35:31Z</time>
      </trkpt>
      <trkpt lat="37.9319739807" lon="-8.6992950831">
        <ele>184.23</ele>
        <time>2019-12-30T08:35:42Z</time>
      </trkpt>
      <trkpt lat="37.9319341667" lon="-8.6993716098">
        <ele>184.71</ele>
        <time>2019-12-30T08:35:48Z</time>
      </trkpt>
      <trkpt lat="37.9318522755" lon="-8.6995678302">
        <ele>186.63</ele>
        <time>2019-12-30T08:36:02Z</time>
      </trkpt>
      <trkpt lat="37.9317952786" lon="-8.6997462809">
        <ele>187.59</ele>
        <time>2019-12-30T08:36:14Z</time>
      </trkpt>
      <trkpt lat="37.9317873158" lon="-8.6997750308">
        <ele>188.08</ele>
        <time>2019-12-30T08:36:16Z</time>
      </trkpt>
      <trkpt lat="37.9317802750" lon="-8.6998302676">
        <ele>188.56</ele>
        <time>2019-12-30T08:36:19Z</time>
      </trkpt>
      <trkpt lat="37.9317535367" lon="-8.6999046989">
        <ele>190.00</ele>
        <time>2019-12-30T08:36:24Z</time>
      </trkpt>
      <trkpt lat="37.9317393713" lon="-8.7000057846">
        <ele>190.48</ele>
        <time>2019-12-30T08:36:30Z</time>
      </trkpt>
      <trkpt lat="37.9317152314" lon="-8.7001159228">
        <ele>190.96</ele>
        <time>2019-12-30T08:36:37Z</time>
      </trkpt>
      <trkpt lat="37.9316957854" lon="-8.7002372928">
        <ele>191.92</ele>
        <time>2019-12-30T08:36:44Z</time>
      </trkpt>
      <trkpt lat="37.9316597432" lon="-8.7004262209">
        <ele>191.92</ele>
        <time>2019-12-30T08:36:56Z</time>
      </trkpt>
      <trkpt lat="37.9316418059" lon="-8.7006462459">
        <ele>189.52</ele>
        <time>2019-12-30T08:37:10Z</time>
      </trkpt>
      <trkpt lat="37.9316726513" lon="-8.7008635886">
        <ele>189.04</ele>
        <time>2019-12-30T08:37:24Z</time>
      </trkpt>
      <trkpt lat="37.9317088611" lon="-8.7010743096">
        <ele>188.56</ele>
        <time>2019-12-30T08:37:37Z</time>
      </trkpt>
      <trkpt lat="37.9317267146" lon="-8.7011446338">
        <ele>188.56</ele>
        <time>2019-12-30T08:37:42Z</time>
      </trkpt>
      <trkpt lat="37.9317423888" lon="-8.7011796702">
        <ele>188.56</ele>
        <time>2019-12-30T08:37:45Z</time>
      </trkpt>
      <trkpt lat="37.9318603221" lon="-8.7013022136">
        <ele>189.52</ele>
        <time>2019-12-30T08:37:57Z</time>
      </trkpt>
      <trkpt lat="37.9319422971" lon="-8.7013360765">
        <ele>189.52</ele>
        <time>2019-12-30T08:38:03Z</time>
      </trkpt>
      <trkpt lat="37.9320813529" lon="-8.7013558578">
        <ele>190.96</ele>
        <time>2019-12-30T08:38:13Z</time>
      </trkpt>
      <trkpt lat="37.9321624059" lon="-8.7013710290">
        <ele>190.96</ele>
        <time>2019-12-30T08:38:19Z</time>
      </trkpt>
      <trkpt lat="37.9323090054" lon="-8.7013654970">
        <ele>190.48</ele>
        <time>2019-12-30T08:38:29Z</time>
      </trkpt>
      <trkpt lat="37.9323598836" lon="-8.7013709452">
        <ele>190.96</ele>
        <time>2019-12-30T08:38:33Z</time>
      </trkpt>
      <trkpt lat="37.9324527550" lon="-8.7013877928">
        <ele>191.44</ele>
        <time>2019-12-30T08:38:40Z</time>
      </trkpt>
      <trkpt lat="37.9326035455" lon="-8.7013913132">
        <ele>191.44</ele>
        <time>2019-12-30T08:38:51Z</time>
      </trkpt>
      <trkpt lat="37.9327057209" lon="-8.7013995275">
        <ele>191.92</ele>
        <time>2019-12-30T08:38:59Z</time>
      </trkpt>
      <trkpt lat="37.9327479657" lon="-8.7013924867">
        <ele>191.44</ele>
        <time>2019-12-30T08:39:02Z</time>
      </trkpt>
      <trkpt lat="37.9328892007" lon="-8.7013970129">
        <ele>192.40</ele>
        <time>2019-12-30T08:39:13Z</time>
      </trkpt>
      <trkpt lat="37.9330131691" lon="-8.7014081609">
        <ele>192.40</ele>
        <time>2019-12-30T08:39:22Z</time>
      </trkpt>
      <trkpt lat="37.9330780450" lon="-8.7014250085">
        <ele>192.40</ele>
        <time>2019-12-30T08:39:27Z</time>
      </trkpt>
      <trkpt lat="37.9332243931" lon="-8.7014370784">
        <ele>192.88</ele>
        <time>2019-12-30T08:39:38Z</time>
      </trkpt>
      <trkpt lat="37.9333694000" lon="-8.7014502380">
        <ele>192.88</ele>
        <time>2019-12-30T08:39:49Z</time>
      </trkpt>
      <trkpt lat="37.9334799573" lon="-8.7015070673">
        <ele>193.36</ele>
        <time>2019-12-30T08:39:58Z</time>
      </trkpt>
      <trkpt lat="37.9335513711" lon="-8.7015773077">
        <ele>193.36</ele>
        <time>2019-12-30T08:40:04Z</time>
      </trkpt>
      <trkpt lat="37.9336021654" lon="-8.7016326282">
        <ele>193.36</ele>
        <time>2019-12-30T08:40:09Z</time>
      </trkpt>
      <trkpt lat="37.9336664546" lon="-8.7017044611">
        <ele>193.84</ele>
        <time>2019-12-30T08:40:16Z</time>
      </trkpt>
      <trkpt lat="37.9336958751" lon="-8.7017555907">
        <ele>194.32</ele>
        <time>2019-12-30T08:40:20Z</time>
      </trkpt>
      <trkpt lat="37.9337602481" lon="-8.7018288486">
        <ele>193.84</ele>
        <time>2019-12-30T08:40:26Z</time>
      </trkpt>
      <trkpt lat="37.9337804485" lon="-8.7018794753">
        <ele>194.32</ele>
        <time>2019-12-30T08:40:29Z</time>
      </trkpt>
      <trkpt lat="37.9338625912" lon="-8.7020342890">
        <ele>194.32</ele>
        <time>2019-12-30T08:40:40Z</time>
      </trkpt>
      <trkpt lat="37.9339532834" lon="-8.7021942157">
        <ele>194.80</ele>
        <time>2019-12-30T08:40:51Z</time>
      </trkpt>
      <trkpt lat="37.9339856375" lon="-8.7022589240">
        <ele>194.80</ele>
        <time>2019-12-30T08:41:02Z</time>
      </trkpt>
      <trkpt lat="37.9340606555" lon="-8.7023981474">
        <ele>195.28</ele>
        <time>2019-12-30T08:41:13Z</time>
      </trkpt>
      <trkpt lat="37.9340667743" lon="-8.7024065293">
        <ele>195.28</ele>
        <time>2019-12-30T08:41:14Z</time>
      </trkpt>
      <trkpt lat="37.9341099411" lon="-8.7024666276">
        <ele>195.77</ele>
        <time>2019-12-30T08:41:19Z</time>
      </trkpt>
      <trkpt lat="37.9342290480" lon="-8.7026532926">
        <ele>196.25</ele>
        <time>2019-12-30T08:41:32Z</time>
      </trkpt>
      <trkpt lat="37.9342782497" lon="-8.7027401291">
        <ele>196.73</ele>
        <time>2019-12-30T08:41:38Z</time>
      </trkpt>
      <trkpt lat="37.9343357496" lon="-8.7028453220">
        <ele>196.25</ele>
        <time>2019-12-30T08:41:45Z</time>
      </trkpt>
      <trkpt lat="37.9344185628" lon="-8.7030153070">
        <ele>197.21</ele>
        <time>2019-12-30T08:41:56Z</time>
      </trkpt>
      <trkpt lat="37.9344890546" lon="-8.7031380180">
        <ele>197.69</ele>
        <time>2019-12-30T08:42:05Z</time>
      </trkpt>
      <trkpt lat="37.9345369153" lon="-8.7032151315">
        <ele>197.69</ele>
        <time>2019-12-30T08:42:11Z</time>
      </trkpt>
      <trkpt lat="37.9346204828" lon="-8.7033559475">
        <ele>197.69</ele>
        <time>2019-12-30T08:42:21Z</time>
      </trkpt>
      <trkpt lat="37.9346986860" lon="-8.7034976017">
        <ele>198.17</ele>
        <time>2019-12-30T08:42:31Z</time>
      </trkpt>
      <trkpt lat="37.9347168747" lon="-8.7035328057">
        <ele>197.69</ele>
        <time>2019-12-30T08:42:34Z</time>
      </trkpt>
      <trkpt lat="37.9347860254" lon="-8.7037322950">
        <ele>198.17</ele>
        <time>2019-12-30T08:42:48Z</time>
      </trkpt>
      <trkpt lat="37.9348234925" lon="-8.7039224803">
        <ele>198.65</ele>
        <time>2019-12-30T08:43:00Z</time>
      </trkpt>
      <trkpt lat="37.9348267615" lon="-8.7041670643">
        <ele>199.13</ele>
        <time>2019-12-30T08:43:14Z</time>
      </trkpt>
      <trkpt lat="37.9348393343" lon="-8.7043843232">
        <ele>199.61</ele>
        <time>2019-12-30T08:43:27Z</time>
      </trkpt>
      <trkpt lat="37.9348595347" lon="-8.7044761889">
        <ele>199.61</ele>
        <time>2019-12-30T08:43:33Z</time>
      </trkpt>
      <trkpt lat="37.9348651506" lon="-8.7045357004">
        <ele>200.09</ele>
        <time>2019-12-30T08:43:36Z</time>
      </trkpt>
      <trkpt lat="37.9348649830" lon="-8.7046030071">
        <ele>200.57</ele>
        <time>2019-12-30T08:43:40Z</time>
      </trkpt>
      <trkpt lat="37.9348708503" lon="-8.7046313379">
        <ele>200.57</ele>
        <time>2019-12-30T08:43:42Z</time>
      </trkpt>
      <trkpt lat="37.9348736163" lon="-8.7046755105">
        <ele>201.05</ele>
        <time>2019-12-30T08:43:45Z</time>
      </trkpt>
      <trkpt lat="37.9348861892" lon="-8.7048210204">
        <ele>202.01</ele>
        <time>2019-12-30T08:43:53Z</time>
      </trkpt>
      <trkpt lat="37.9348949064" lon="-8.7049392052">
        <ele>202.49</ele>
        <time>2019-12-30T08:44:00Z</time>
      </trkpt>
      <trkpt lat="37.9349249136" lon="-8.7051638402">
        <ele>202.98</ele>
        <time>2019-12-30T08:44:14Z</time>
      </trkpt>
      <trkpt lat="37.9349323735" lon="-8.7052368466">
        <ele>202.98</ele>
        <time>2019-12-30T08:44:18Z</time>
      </trkpt>
      <trkpt lat="37.9349550884" lon="-8.7054002099">
        <ele>202.98</ele>
        <time>2019-12-30T08:44:28Z</time>
      </trkpt>
      <trkpt lat="37.9349567648" lon="-8.7055100966">
        <ele>203.46</ele>
        <time>2019-12-30T08:44:34Z</time>
      </trkpt>
      <trkpt lat="37.9349766299" lon="-8.7055886351">
        <ele>202.98</ele>
        <time>2019-12-30T08:44:39Z</time>
      </trkpt>
      <trkpt lat="37.9350078944" lon="-8.7057319656">
        <ele>202.98</ele>
        <time>2019-12-30T08:44:48Z</time>
      </trkpt>
      <trkpt lat="37.9350755364" lon="-8.7059071474">
        <ele>203.94</ele>
        <time>2019-12-30T08:44:59Z</time>
      </trkpt>
      <trkpt lat="37.9351153504" lon="-8.7061116658">
        <ele>203.94</ele>
        <time>2019-12-30T08:45:12Z</time>
      </trkpt>
      <trkpt lat="37.9351290967" lon="-8.7062081415">
        <ele>203.46</ele>
        <time>2019-12-30T08:45:17Z</time>
      </trkpt>
      <trkpt lat="37.9351965711" lon="-8.7064589281">
        <ele>202.98</ele>
        <time>2019-12-30T08:45:33Z</time>
      </trkpt>
      <trkpt lat="37.9352445155" lon="-8.7066601776">
        <ele>202.98</ele>
        <time>2019-12-30T08:45:46Z</time>
      </trkpt>
      <trkpt lat="37.9352839105" lon="-8.7067850679">
        <ele>203.46</ele>
        <time>2019-12-30T08:45:54Z</time>
      </trkpt>
      <trkpt lat="37.9352804739" lon="-8.7068590801">
        <ele>203.94</ele>
        <time>2019-12-30T08:45:58Z</time>
      </trkpt>
      <trkpt lat="37.9353008419" lon="-8.7069742475">
        <ele>204.90</ele>
        <time>2019-12-30T08:46:05Z</time>
      </trkpt>
      <trkpt lat="37.9353023507" lon="-8.7070395425">
        <ele>204.90</ele>
        <time>2019-12-30T08:46:09Z</time>
      </trkpt>
      <trkpt lat="37.9353353754" lon="-8.7072066776">
        <ele>206.34</ele>
        <time>2019-12-30T08:46:20Z</time>
      </trkpt>
      <trkpt lat="37.9354025144" lon="-8.7074027304">
        <ele>205.38</ele>
        <time>2019-12-30T08:46:34Z</time>
      </trkpt>
      <trkpt lat="37.9354798794" lon="-8.7075969391">
        <ele>205.38</ele>
        <time>2019-12-30T08:46:47Z</time>
      </trkpt>
      <trkpt lat="37.9354806338" lon="-8.7076142896">
        <ele>205.86</ele>
        <time>2019-12-30T08:46:48Z</time>
      </trkpt>
      <trkpt lat="37.9354924522" lon="-8.7077435385">
        <ele>205.86</ele>
        <time>2019-12-30T08:46:56Z</time>
      </trkpt>
      <trkpt lat="37.9354342818" lon="-8.7079467159">
        <ele>207.30</ele>
        <time>2019-12-30T08:47:10Z</time>
      </trkpt>
      <trkpt lat="37.9354045261" lon="-8.7081071455">
        <ele>206.82</ele>
        <time>2019-12-30T08:47:20Z</time>
      </trkpt>
      <trkpt lat="37.9353322741" lon="-8.7083114963">
        <ele>206.82</ele>
        <time>2019-12-30T08:47:34Z</time>
      </trkpt>
      <trkpt lat="37.9353190307" lon="-8.7085204571">
        <ele>206.82</ele>
        <time>2019-12-30T08:47:49Z</time>
      </trkpt>
      <trkpt lat="37.9353426676" lon="-8.7085741851">
        <ele>205.86</ele>
        <time>2019-12-30T08:47:53Z</time>
      </trkpt>
      <trkpt lat="37.9353526421" lon="-8.7086015940">
        <ele>205.38</ele>
        <time>2019-12-30T08:47:55Z</time>
      </trkpt>
      <trkpt lat="37.9354451783" lon="-8.7088180985">
        <ele>202.49</ele>
        <time>2019-12-30T08:48:09Z</time>
      </trkpt>
      <trkpt lat="37.9355599266" lon="-8.7089979742">
        <ele>201.05</ele>
        <time>2019-12-30T08:48:23Z</time>
      </trkpt>
      <trkpt lat="37.9356142413" lon="-8.7090525404">
        <ele>200.09</ele>
        <time>2019-12-30T08:48:29Z</time>
      </trkpt>
      <trkpt lat="37.9357165843" lon="-8.7091297377">
        <ele>198.17</ele>
        <time>2019-12-30T08:48:39Z</time>
      </trkpt>
      <trkpt lat="37.9358374514" lon="-8.7091880757">
        <ele>196.25</ele>
        <time>2019-12-30T08:48:49Z</time>
      </trkpt>
      <trkpt lat="37.9359028302" lon="-8.7092091981">
        <ele>195.77</ele>
        <time>2019-12-30T08:48:54Z</time>
      </trkpt>
      <trkpt lat="37.9359917622" lon="-8.7092218548">
        <ele>194.80</ele>
        <time>2019-12-30T08:49:01Z</time>
      </trkpt>
      <trkpt lat="37.9361621663" lon="-8.7092081085">
        <ele>191.92</ele>
        <time>2019-12-30T08:49:15Z</time>
      </trkpt>
      <trkpt lat="37.9362500086" lon="-8.7091666181">
        <ele>190.48</ele>
        <time>2019-12-30T08:49:22Z</time>
      </trkpt>
      <trkpt lat="37.9362761602" lon="-8.7091366109">
        <ele>189.52</ele>
        <time>2019-12-30T08:49:25Z</time>
      </trkpt>
      <trkpt lat="37.9363647569" lon="-8.7090507802">
        <ele>188.56</ele>
        <time>2019-12-30T08:49:34Z</time>
      </trkpt>
      <trkpt lat="37.9363899864" lon="-8.7090169173">
        <ele>187.59</ele>
        <time>2019-12-30T08:49:37Z</time>
      </trkpt>
      <trkpt lat="37.9364541918" lon="-8.7089568190">
        <ele>187.11</ele>
        <time>2019-12-30T08:49:43Z</time>
      </trkpt>
      <trkpt lat="37.9365147091" lon="-8.7088793702">
        <ele>185.67</ele>
        <time>2019-12-30T08:49:50Z</time>
      </trkpt>
      <trkpt lat="37.9365877155" lon="-8.7088206131">
        <ele>184.71</ele>
        <time>2019-12-30T08:49:57Z</time>
      </trkpt>
      <trkpt lat="37.9366541002" lon="-8.7087245565">
        <ele>183.75</ele>
        <time>2019-12-30T08:50:04Z</time>
      </trkpt>
      <trkpt lat="37.9367556050" lon="-8.7086151727">
        <ele>181.83</ele>
        <time>2019-12-30T08:50:15Z</time>
      </trkpt>
      <trkpt lat="37.9367800802" lon="-8.7085926253">
        <ele>181.83</ele>
        <time>2019-12-30T08:50:17Z</time>
      </trkpt>
      <trkpt lat="37.9368078243" lon="-8.7085574213">
        <ele>180.87</ele>
        <time>2019-12-30T08:50:20Z</time>
      </trkpt>
      <trkpt lat="37.9368384182" lon="-8.7084998377">
        <ele>180.38</ele>
        <time>2019-12-30T08:50:25Z</time>
      </trkpt>
      <trkpt lat="37.9368768074" lon="-8.7084502168">
        <ele>178.94</ele>
        <time>2019-12-30T08:50:29Z</time>
      </trkpt>
      <trkpt lat="37.9369782284" lon="-8.7083376478">
        <ele>176.54</ele>
        <time>2019-12-30T08:50:41Z</time>
      </trkpt>
      <trkpt lat="37.9371068068" lon="-8.7082976662">
        <ele>174.14</ele>
        <time>2019-12-30T08:50:51Z</time>
      </trkpt>
      <trkpt lat="37.9372640513" lon="-8.7082539964">
        <ele>171.25</ele>
        <time>2019-12-30T08:51:05Z</time>
      </trkpt>
      <trkpt lat="37.9373202939" lon="-8.7082450278">
        <ele>171.25</ele>
        <time>2019-12-30T08:51:10Z</time>
      </trkpt>
      <trkpt lat="37.9375207890" lon="-8.7082910445">
        <ele>170.29</ele>
        <time>2019-12-30T08:51:26Z</time>
      </trkpt>
      <trkpt lat="37.9376211204" lon="-8.7083399110">
        <ele>169.81</ele>
        <time>2019-12-30T08:51:34Z</time>
      </trkpt>
      <trkpt lat="37.9376483615" lon="-8.7083612848">
        <ele>169.81</ele>
        <time>2019-12-30T08:51:37Z</time>
      </trkpt>
      <trkpt lat="37.9376928695" lon="-8.7083826587">
        <ele>170.29</ele>
        <time>2019-12-30T08:51:41Z</time>
      </trkpt>
      <trkpt lat="37.9377299175" lon="-8.7084022723">
        <ele>169.81</ele>
        <time>2019-12-30T08:51:44Z</time>
      </trkpt>
      <trkpt lat="37.9377832264" lon="-8.7084428407">
        <ele>169.33</ele>
        <time>2019-12-30T08:51:49Z</time>
      </trkpt>
      <trkpt lat="37.9378880002" lon="-8.7084715907">
        <ele>167.41</ele>
        <time>2019-12-30T08:51:57Z</time>
      </trkpt>
      <trkpt lat="37.9379988089" lon="-8.7085349578">
        <ele>165.96</ele>
        <time>2019-12-30T08:52:07Z</time>
      </trkpt>
      <trkpt lat="37.9381129704" lon="-8.7086163461">
        <ele>165.00</ele>
        <time>2019-12-30T08:52:19Z</time>
      </trkpt>
      <trkpt lat="37.9381300695" lon="-8.7086466886">
        <ele>165.48</ele>
        <time>2019-12-30T08:52:35Z</time>
      </trkpt>
      <trkpt lat="37.9381262138" lon="-8.7086533941">
        <ele>165.00</ele>
        <time>2019-12-30T08:52:51Z</time>
      </trkpt>
      <trkpt lat="37.9381939396" lon="-8.7086828146">
        <ele>164.52</ele>
        <time>2019-12-30T08:52:59Z</time>
      </trkpt>
      <trkpt lat="37.9382484220" lon="-8.7087273225">
        <ele>163.56</ele>
        <time>2019-12-30T08:53:08Z</time>
      </trkpt>
      <trkpt lat="37.9383081850" lon="-8.7087633647">
        <ele>163.08</ele>
        <time>2019-12-30T08:53:15Z</time>
      </trkpt>
      <trkpt lat="37.9383797664" lon="-8.7087822240">
        <ele>162.60</ele>
        <time>2019-12-30T08:53:20Z</time>
      </trkpt>
      <trkpt lat="37.9383993801" lon="-8.7088043522">
        <ele>162.12</ele>
        <time>2019-12-30T08:53:22Z</time>
      </trkpt>
      <trkpt lat="37.9385251086" lon="-8.7088211998">
        <ele>161.16</ele>
        <time>2019-12-30T08:53:33Z</time>
      </trkpt>
      <trkpt lat="37.9386385158" lon="-8.7088458426">
        <ele>159.24</ele>
        <time>2019-12-30T08:53:41Z</time>
      </trkpt>
      <trkpt lat="37.9387383442" lon="-8.7089171726">
        <ele>159.24</ele>
        <time>2019-12-30T08:53:46Z</time>
      </trkpt>
      <trkpt lat="37.9388425313" lon="-8.7090724055">
        <ele>159.24</ele>
        <time>2019-12-30T08:53:58Z</time>
      </trkpt>
      <trkpt lat="37.9388521705" lon="-8.7090878282">
        <ele>158.75</ele>
        <time>2019-12-30T08:53:59Z</time>
      </trkpt>
      <trkpt lat="37.9388758913" lon="-8.7091518659">
        <ele>158.75</ele>
        <time>2019-12-30T08:54:04Z</time>
      </trkpt>
      <trkpt lat="37.9388960078" lon="-8.7092217710">
        <ele>158.75</ele>
        <time>2019-12-30T08:54:09Z</time>
      </trkpt>
      <trkpt lat="37.9390122648" lon="-8.7093916722">
        <ele>157.31</ele>
        <time>2019-12-30T08:54:24Z</time>
      </trkpt>
      <trkpt lat="37.9390510730" lon="-8.7094465736">
        <ele>156.83</ele>
        <time>2019-12-30T08:54:29Z</time>
      </trkpt>
      <trkpt lat="37.9391447827" lon="-8.7095470726">
        <ele>156.35</ele>
        <time>2019-12-30T08:54:39Z</time>
      </trkpt>
      <trkpt lat="37.9392167833" lon="-8.7096571270">
        <ele>155.87</ele>
        <time>2019-12-30T08:54:49Z</time>
      </trkpt>
      <trkpt lat="37.9392638896" lon="-8.7098737154">
        <ele>155.87</ele>
        <time>2019-12-30T08:55:03Z</time>
      </trkpt>
      <trkpt lat="37.9393104929" lon="-8.7100514118">
        <ele>155.87</ele>
        <time>2019-12-30T08:55:14Z</time>
      </trkpt>
      <trkpt lat="37.9393373150" lon="-8.7101410981">
        <ele>155.87</ele>
        <time>2019-12-30T08:55:20Z</time>
      </trkpt>
      <trkpt lat="37.9393397458" lon="-8.7101943232">
        <ele>155.87</ele>
        <time>2019-12-30T08:55:23Z</time>
      </trkpt>
      <trkpt lat="37.9392893706" lon="-8.7104159407">
        <ele>152.51</ele>
        <time>2019-12-30T08:55:39Z</time>
      </trkpt>
      <trkpt lat="37.9392817430" lon="-8.7105328683">
        <ele>152.51</ele>
        <time>2019-12-30T08:55:51Z</time>
      </trkpt>
      <trkpt lat="37.9392848443" lon="-8.7105669826">
        <ele>152.51</ele>
        <time>2019-12-30T08:55:54Z</time>
      </trkpt>
      <trkpt lat="37.9392821621" lon="-8.7105997559">
        <ele>152.03</ele>
        <time>2019-12-30T08:55:56Z</time>
      </trkpt>
      <trkpt lat="37.9393233173" lon="-8.7108123209">
        <ele>151.06</ele>
        <time>2019-12-30T08:56:10Z</time>
      </trkpt>
      <trkpt lat="37.9393627960" lon="-8.7109029293">
        <ele>151.06</ele>
        <time>2019-12-30T08:56:17Z</time>
      </trkpt>
      <trkpt lat="37.9393824097" lon="-8.7109399773">
        <ele>150.58</ele>
        <time>2019-12-30T08:56:20Z</time>
      </trkpt>
      <trkpt lat="37.9394181166" lon="-8.7110723276">
        <ele>149.62</ele>
        <time>2019-12-30T08:56:29Z</time>
      </trkpt>
      <trkpt lat="37.9394859262" lon="-8.7111875787">
        <ele>149.14</ele>
        <time>2019-12-30T08:56:41Z</time>
      </trkpt>
      <trkpt lat="37.9395047855" lon="-8.7111965474">
        <ele>149.14</ele>
        <time>2019-12-30T08:56:48Z</time>
      </trkpt>
      <trkpt lat="37.9395260755" lon="-8.7112205196">
        <ele>149.14</ele>
        <time>2019-12-30T08:56:51Z</time>
      </trkpt>
      <trkpt lat="37.9396192823" lon="-8.7113694660">
        <ele>149.62</ele>
        <time>2019-12-30T08:57:03Z</time>
      </trkpt>
      <trkpt lat="37.9397408199" lon="-8.7115013972">
        <ele>150.58</ele>
        <time>2019-12-30T08:57:17Z</time>
      </trkpt>
      <trkpt lat="37.9397487827" lon="-8.7115139700">
        <ele>151.06</ele>
        <time>2019-12-30T08:57:18Z</time>
      </trkpt>
      <trkpt lat="37.9397930391" lon="-8.7115695421">
        <ele>151.06</ele>
        <time>2019-12-30T08:57:23Z</time>
      </trkpt>
      <trkpt lat="37.9398010019" lon="-8.7115863059">
        <ele>151.54</ele>
        <time>2019-12-30T08:57:25Z</time>
      </trkpt>
      <trkpt lat="37.9398678895" lon="-8.7117603980">
        <ele>150.58</ele>
        <time>2019-12-30T08:57:40Z</time>
      </trkpt>
      <trkpt lat="37.9399123136" lon="-8.7119427882">
        <ele>148.18</ele>
        <time>2019-12-30T08:57:52Z</time>
      </trkpt>
      <trkpt lat="37.9399195220" lon="-8.7119719572">
        <ele>148.18</ele>
        <time>2019-12-30T08:57:54Z</time>
      </trkpt>
      <trkpt lat="37.9399571568" lon="-8.7121484801">
        <ele>148.18</ele>
        <time>2019-12-30T08:58:05Z</time>
      </trkpt>
      <trkpt lat="37.9399666283" lon="-8.7121992745">
        <ele>148.18</ele>
        <time>2019-12-30T08:58:08Z</time>
      </trkpt>
      <trkpt lat="37.9400378745" lon="-8.7123535853">
        <ele>146.74</ele>
        <time>2019-12-30T08:58:20Z</time>
      </trkpt>
      <trkpt lat="37.9400779400" lon="-8.7124173716">
        <ele>145.78</ele>
        <time>2019-12-30T08:58:25Z</time>
      </trkpt>
      <trkpt lat="37.9401404690" lon="-8.7125654798">
        <ele>145.30</ele>
        <time>2019-12-30T08:58:39Z</time>
      </trkpt>
      <trkpt lat="37.9402023274" lon="-8.7127369735">
        <ele>146.26</ele>
        <time>2019-12-30T08:58:51Z</time>
      </trkpt>
      <trkpt lat="37.9403045028" lon="-8.7128019333">
        <ele>145.30</ele>
        <time>2019-12-30T08:59:00Z</time>
      </trkpt>
      <trkpt lat="37.9403884895" lon="-8.7128325272">
        <ele>144.34</ele>
        <time>2019-12-30T08:59:08Z</time>
      </trkpt>
      <trkpt lat="37.9404252023" lon="-8.7128451839">
        <ele>143.85</ele>
        <time>2019-12-30T08:59:11Z</time>
      </trkpt>
      <trkpt lat="37.9404579755" lon="-8.7128451839">
        <ele>143.85</ele>
        <time>2019-12-30T08:59:14Z</time>
      </trkpt>
      <trkpt lat="37.9404890724" lon="-8.7128519733">
        <ele>143.85</ele>
        <time>2019-12-30T08:59:17Z</time>
      </trkpt>
      <trkpt lat="37.9406318162" lon="-8.7129145022">
        <ele>144.34</ele>
        <time>2019-12-30T08:59:28Z</time>
      </trkpt>
      <trkpt lat="37.9406662658" lon="-8.7129372172">
        <ele>144.82</ele>
        <time>2019-12-30T08:59:31Z</time>
      </trkpt>
      <trkpt lat="37.9406868014" lon="-8.7129574176">
        <ele>145.30</ele>
        <time>2019-12-30T08:59:33Z</time>
      </trkpt>
      <trkpt lat="37.9408475664" lon="-8.7130478583">
        <ele>143.85</ele>
        <time>2019-12-30T08:59:47Z</time>
      </trkpt>
      <trkpt lat="37.9410079122" lon="-8.7130687293">
        <ele>142.89</ele>
        <time>2019-12-30T09:00:00Z</time>
      </trkpt>
      <trkpt lat="37.9411387537" lon="-8.7131867465">
        <ele>141.45</ele>
        <time>2019-12-30T09:00:13Z</time>
      </trkpt>
      <trkpt lat="37.9412830900" lon="-8.7132433243">
        <ele>139.53</ele>
        <time>2019-12-30T09:00:25Z</time>
      </trkpt>
      <trkpt lat="37.9414417595" lon="-8.7133090384">
        <ele>136.64</ele>
        <time>2019-12-30T09:00:39Z</time>
      </trkpt>
      <trkpt lat="37.9415423423" lon="-8.7133288197">
        <ele>134.24</ele>
        <time>2019-12-30T09:00:50Z</time>
      </trkpt>
      <trkpt lat="37.9415694159" lon="-8.7133243773">
        <ele>134.24</ele>
        <time>2019-12-30T09:00:54Z</time>
      </trkpt>
      <trkpt lat="37.9416264966" lon="-8.7133564800">
        <ele>134.24</ele>
        <time>2019-12-30T09:01:03Z</time>
      </trkpt>
      <trkpt lat="37.9416264966" lon="-8.7133564800">
        <ele>134.24</ele>
        <time>2019-12-30T09:01:05Z</time>
      </trkpt>
      <trkpt lat="37.9416590184" lon="-8.7133991439">
        <ele>134.24</ele>
        <time>2019-12-30T09:01:08Z</time>
      </trkpt>
      <trkpt lat="37.9416927975" lon="-8.7134413887">
        <ele>134.72</ele>
        <time>2019-12-30T09:01:11Z</time>
      </trkpt>
      <trkpt lat="37.9417285044" lon="-8.7134548835">
        <ele>135.20</ele>
        <time>2019-12-30T09:01:14Z</time>
      </trkpt>
      <trkpt lat="37.9417637084" lon="-8.7134934403">
        <ele>136.64</ele>
        <time>2019-12-30T09:01:19Z</time>
      </trkpt>
      <trkpt lat="37.9418118205" lon="-8.7135101203">
        <ele>137.13</ele>
        <time>2019-12-30T09:01:34Z</time>
      </trkpt>
      <trkpt lat="37.9418849945" lon="-8.7135234475">
        <ele>137.13</ele>
        <time>2019-12-30T09:01:50Z</time>
      </trkpt>
      <trkpt lat="37.9419425782" lon="-8.7135392055">
        <ele>137.13</ele>
        <time>2019-12-30T09:01:55Z</time>
      </trkpt>
      <trkpt lat="37.9419949651" lon="-8.7135588191">
        <ele>139.05</ele>
        <time>2019-12-30T09:01:59Z</time>
      </trkpt>
      <trkpt lat="37.9421356972" lon="-8.7136049196">
        <ele>141.93</ele>
        <time>2019-12-30T09:02:14Z</time>
      </trkpt>
      <trkpt lat="37.9421688896" lon="-8.7136056740">
        <ele>142.89</ele>
        <time>2019-12-30T09:02:17Z</time>
      </trkpt>
      <trkpt lat="37.9422744177" lon="-8.7136245333">
        <ele>144.34</ele>
        <time>2019-12-30T09:02:27Z</time>
      </trkpt>
      <trkpt lat="37.9423843045" lon="-8.7136683706">
        <ele>144.34</ele>
        <time>2019-12-30T09:02:37Z</time>
      </trkpt>
      <trkpt lat="37.9424360208" lon="-8.7136853859">
        <ele>142.89</ele>
        <time>2019-12-30T09:02:50Z</time>
      </trkpt>
      <trkpt lat="37.9424613342" lon="-8.7136981264">
        <ele>142.89</ele>
        <time>2019-12-30T09:03:10Z</time>
      </trkpt>
      <trkpt lat="37.9425210133" lon="-8.7137231883">
        <ele>141.93</ele>
        <time>2019-12-30T09:03:16Z</time>
      </trkpt>
      <trkpt lat="37.9425728973" lon="-8.7137290556">
        <ele>141.93</ele>
        <time>2019-12-30T09:03:21Z</time>
      </trkpt>
      <trkpt lat="37.9426313192" lon="-8.7137697078">
        <ele>141.45</ele>
        <time>2019-12-30T09:03:27Z</time>
      </trkpt>
      <trkpt lat="37.9427352548" lon="-8.7138214242">
        <ele>140.49</ele>
        <time>2019-12-30T09:03:37Z</time>
      </trkpt>
      <trkpt lat="37.9427534435" lon="-8.7138412893">
        <ele>140.01</ele>
        <time>2019-12-30T09:03:39Z</time>
      </trkpt>
      <trkpt lat="37.9427896533" lon="-8.7138729729">
        <ele>139.05</ele>
        <time>2019-12-30T09:03:43Z</time>
      </trkpt>
      <trkpt lat="37.9428421240" lon="-8.7139967736">
        <ele>139.05</ele>
        <time>2019-12-30T09:03:55Z</time>
      </trkpt>
      <trkpt lat="37.9428548645" lon="-8.7139957678">
        <ele>139.05</ele>
        <time>2019-12-30T09:04:09Z</time>
      </trkpt>
      <trkpt lat="37.9428665992" lon="-8.7140194047">
        <ele>139.53</ele>
        <time>2019-12-30T09:04:11Z</time>
      </trkpt>
      <trkpt lat="37.9429399408" lon="-8.7141004577">
        <ele>139.05</ele>
        <time>2019-12-30T09:04:23Z</time>
      </trkpt>
      <trkpt lat="37.9429535195" lon="-8.7141162157">
        <ele>138.57</ele>
        <time>2019-12-30T09:04:28Z</time>
      </trkpt>
      <trkpt lat="37.9430070799" lon="-8.7141540181">
        <ele>138.09</ele>
        <time>2019-12-30T09:04:34Z</time>
      </trkpt>
      <trkpt lat="37.9430709500" lon="-8.7141665909">
        <ele>138.57</ele>
        <time>2019-12-30T09:04:50Z</time>
      </trkpt>
      <trkpt lat="37.9431348201" lon="-8.7142097577">
        <ele>138.57</ele>
        <time>2019-12-30T09:04:56Z</time>
      </trkpt>
      <trkpt lat="37.9432770610" lon="-8.7142825965">
        <ele>136.16</ele>
        <time>2019-12-30T09:05:09Z</time>
      </trkpt>
      <trkpt lat="37.9433572758" lon="-8.7143388391">
        <ele>135.20</ele>
        <time>2019-12-30T09:05:19Z</time>
      </trkpt>
      <trkpt lat="37.9434792325" lon="-8.7144182995">
        <ele>135.20</ele>
        <time>2019-12-30T09:05:31Z</time>
      </trkpt>
      <trkpt lat="37.9434903804" lon="-8.7144251727">
        <ele>133.76</ele>
        <time>2019-12-30T09:05:32Z</time>
      </trkpt>
      <trkpt lat="37.9435424320" lon="-8.7144886237">
        <ele>133.28</ele>
        <time>2019-12-30T09:05:38Z</time>
      </trkpt>
      <trkpt lat="37.9435910471" lon="-8.7145578582">
        <ele>133.76</ele>
        <time>2019-12-30T09:05:44Z</time>
      </trkpt>
      <trkpt lat="37.9437417537" lon="-8.7146740314">
        <ele>131.36</ele>
        <time>2019-12-30T09:05:59Z</time>
      </trkpt>
      <trkpt lat="37.9437766224" lon="-8.7146921363">
        <ele>130.88</ele>
        <time>2019-12-30T09:06:02Z</time>
      </trkpt>
      <trkpt lat="37.9437949788" lon="-8.7147115823">
        <ele>130.88</ele>
        <time>2019-12-30T09:06:04Z</time>
      </trkpt>
      <trkpt lat="37.9438443482" lon="-8.7147826608">
        <ele>130.88</ele>
        <time>2019-12-30T09:06:10Z</time>
      </trkpt>
      <trkpt lat="37.9439069610" lon="-8.7148472853">
        <ele>130.40</ele>
        <time>2019-12-30T09:06:16Z</time>
      </trkpt>
      <trkpt lat="37.9439444281" lon="-8.7149158493">
        <ele>130.88</ele>
        <time>2019-12-30T09:06:21Z</time>
      </trkpt>
      <trkpt lat="37.9439665563" lon="-8.7149331998">
        <ele>130.88</ele>
        <time>2019-12-30T09:06:23Z</time>
      </trkpt>
      <trkpt lat="37.9439866729" lon="-8.7149683200">
        <ele>131.36</ele>
        <time>2019-12-30T09:06:26Z</time>
      </trkpt>
      <trkpt lat="37.9440945480" lon="-8.7151360419">
        <ele>131.36</ele>
        <time>2019-12-30T09:06:40Z</time>
      </trkpt>
      <trkpt lat="37.9442118108" lon="-8.7152828090">
        <ele>129.92</ele>
        <time>2019-12-30T09:06:54Z</time>
      </trkpt>
      <trkpt lat="37.9442197736" lon="-8.7152948789">
        <ele>129.43</ele>
        <time>2019-12-30T09:06:55Z</time>
      </trkpt>
      <trkpt lat="37.9442538042" lon="-8.7153431587">
        <ele>129.43</ele>
        <time>2019-12-30T09:06:59Z</time>
      </trkpt>
      <trkpt lat="37.9443604220" lon="-8.7155040074">
        <ele>127.51</ele>
        <time>2019-12-30T09:07:13Z</time>
      </trkpt>
      <trkpt lat="37.9444420617" lon="-8.7156079430">
        <ele>127.03</ele>
        <time>2019-12-30T09:07:22Z</time>
      </trkpt>
      <trkpt lat="37.9445787705" lon="-8.7157228589">
        <ele>126.07</ele>
        <time>2019-12-30T09:07:35Z</time>
      </trkpt>
      <trkpt lat="37.9447306506" lon="-8.7158013135">
        <ele>124.63</ele>
        <time>2019-12-30T09:07:48Z</time>
      </trkpt>
      <trkpt lat="37.9448486678" lon="-8.7159087695">
        <ele>122.22</ele>
        <time>2019-12-30T09:08:01Z</time>
      </trkpt>
      <trkpt lat="37.9449161422" lon="-8.7160248589">
        <ele>119.82</ele>
        <time>2019-12-30T09:08:09Z</time>
      </trkpt>
      <trkpt lat="37.9450100195" lon="-8.7161605619">
        <ele>117.90</ele>
        <time>2019-12-30T09:08:21Z</time>
      </trkpt>
      <trkpt lat="37.9450886417" lon="-8.7163017970">
        <ele>116.46</ele>
        <time>2019-12-30T09:08:32Z</time>
      </trkpt>
      <trkpt lat="37.9451241810" lon="-8.7163657509">
        <ele>115.98</ele>
        <time>2019-12-30T09:08:37Z</time>
      </trkpt>
      <trkpt lat="37.9452097602" lon="-8.7164546829">
        <ele>115.50</ele>
        <time>2019-12-30T09:08:46Z</time>
      </trkpt>
      <trkpt lat="37.9452735465" lon="-8.7165281922">
        <ele>115.01</ele>
        <time>2019-12-30T09:08:53Z</time>
      </trkpt>
      <trkpt lat="37.9452967644" lon="-8.7165613007">
        <ele>115.01</ele>
        <time>2019-12-30T09:08:56Z</time>
      </trkpt>
      <trkpt lat="37.9453459661" lon="-8.7166739535">
        <ele>116.94</ele>
        <time>2019-12-30T09:09:05Z</time>
      </trkpt>
      <trkpt lat="37.9453791585" lon="-8.7167236581">
        <ele>116.94</ele>
        <time>2019-12-30T09:09:09Z</time>
      </trkpt>
      <trkpt lat="37.9454386700" lon="-8.7167485524">
        <ele>117.90</ele>
        <time>2019-12-30T09:09:14Z</time>
      </trkpt>
      <trkpt lat="37.9454577807" lon="-8.7167637236">
        <ele>117.42</ele>
        <time>2019-12-30T09:09:16Z</time>
      </trkpt>
      <trkpt lat="37.9455412645" lon="-8.7168416753">
        <ele>118.38</ele>
        <time>2019-12-30T09:09:29Z</time>
      </trkpt>
      <trkpt lat="37.9455492273" lon="-8.7168597803">
        <ele>117.90</ele>
        <time>2019-12-30T09:09:36Z</time>
      </trkpt>
      <trkpt lat="37.9455814138" lon="-8.7169188727">
        <ele>118.86</ele>
        <time>2019-12-30T09:09:42Z</time>
      </trkpt>
      <trkpt lat="37.9456040449" lon="-8.7169770431">
        <ele>118.86</ele>
        <time>2019-12-30T09:09:46Z</time>
      </trkpt>
      <trkpt lat="37.9456472956" lon="-8.7170639634">
        <ele>118.86</ele>
        <time>2019-12-30T09:09:53Z</time>
      </trkpt>
      <trkpt lat="37.9456846789" lon="-8.7172645424">
        <ele>117.90</ele>
        <time>2019-12-30T09:10:06Z</time>
      </trkpt>
      <trkpt lat="37.9456880316" lon="-8.7172993273">
        <ele>117.90</ele>
        <time>2019-12-30T09:10:08Z</time>
      </trkpt>
      <trkpt lat="37.9457101598" lon="-8.7174508721">
        <ele>116.94</ele>
        <time>2019-12-30T09:10:23Z</time>
      </trkpt>
      <trkpt lat="37.9457462020" lon="-8.7174621876">
        <ele>116.46</ele>
        <time>2019-12-30T09:10:31Z</time>
      </trkpt>
      <trkpt lat="37.9457458667" lon="-8.7174631935">
        <ele>116.94</ele>
        <time>2019-12-30T09:10:34Z</time>
      </trkpt>
      <trkpt lat="37.9457470402" lon="-8.7175484374">
        <ele>116.94</ele>
        <time>2019-12-30T09:10:41Z</time>
      </trkpt>
      <trkpt lat="37.9457992595" lon="-8.7177154049">
        <ele>117.42</ele>
        <time>2019-12-30T09:10:53Z</time>
      </trkpt>
      <trkpt lat="37.9458029475" lon="-8.7178982142">
        <ele>117.42</ele>
        <time>2019-12-30T09:11:07Z</time>
      </trkpt>
      <trkpt lat="37.9458026122" lon="-8.7179383636">
        <ele>117.42</ele>
        <time>2019-12-30T09:11:10Z</time>
      </trkpt>
      <trkpt lat="37.9458655603" lon="-8.7181331590">
        <ele>115.50</ele>
        <time>2019-12-30T09:11:24Z</time>
      </trkpt>
      <trkpt lat="37.9458147660" lon="-8.7182628270">
        <ele>116.94</ele>
        <time>2019-12-30T09:11:34Z</time>
      </trkpt>
      <trkpt lat="37.9457802325" lon="-8.7183264457">
        <ele>118.38</ele>
        <time>2019-12-30T09:11:40Z</time>
      </trkpt>
      <trkpt lat="37.9457495548" lon="-8.7183610629">
        <ele>118.38</ele>
        <time>2019-12-30T09:11:55Z</time>
      </trkpt>
      <trkpt lat="37.9457495548" lon="-8.7183610629">
        <ele>118.86</ele>
        <time>2019-12-30T09:12:03Z</time>
      </trkpt>
      <trkpt lat="37.9457599483" lon="-8.7184250169">
        <ele>118.86</ele>
        <time>2019-12-30T09:12:08Z</time>
      </trkpt>
      <trkpt lat="37.9457703419" lon="-8.7184613105">
        <ele>118.38</ele>
        <time>2019-12-30T09:12:11Z</time>
      </trkpt>
      <trkpt lat="37.9458088987" lon="-8.7185810879">
        <ele>118.86</ele>
        <time>2019-12-30T09:12:19Z</time>
      </trkpt>
      <trkpt lat="37.9458433483" lon="-8.7186771445">
        <ele>117.90</ele>
        <time>2019-12-30T09:12:26Z</time>
      </trkpt>
      <trkpt lat="37.9458116647" lon="-8.7188638095">
        <ele>118.38</ele>
        <time>2019-12-30T09:12:39Z</time>
      </trkpt>
      <trkpt lat="37.9457374010" lon="-8.7190264184">
        <ele>119.82</ele>
        <time>2019-12-30T09:12:51Z</time>
      </trkpt>
      <trkpt lat="37.9457076453" lon="-8.7190977484">
        <ele>120.30</ele>
        <time>2019-12-30T09:12:56Z</time>
      </trkpt>
      <trkpt lat="37.9456625506" lon="-8.7192481197">
        <ele>120.78</ele>
        <time>2019-12-30T09:13:06Z</time>
      </trkpt>
      <trkpt lat="37.9456531629" lon="-8.7193005066">
        <ele>121.26</ele>
        <time>2019-12-30T09:13:10Z</time>
      </trkpt>
      <trkpt lat="37.9456671607" lon="-8.7193990778">
        <ele>120.30</ele>
        <time>2019-12-30T09:13:17Z</time>
      </trkpt>
      <trkpt lat="37.9457124230" lon="-8.7194632832">
        <ele>118.86</ele>
        <time>2019-12-30T09:13:22Z</time>
      </trkpt>
      <trkpt lat="37.9457596131" lon="-8.7195117306">
        <ele>118.38</ele>
        <time>2019-12-30T09:13:27Z</time>
      </trkpt>
      <trkpt lat="37.9458441865" lon="-8.7195650395">
        <ele>116.94</ele>
        <time>2019-12-30T09:13:35Z</time>
      </trkpt>
      <trkpt lat="37.9458748642" lon="-8.7195761036">
        <ele>117.42</ele>
        <time>2019-12-30T09:13:38Z</time>
      </trkpt>
      <trkpt lat="37.9460061248" lon="-8.7196679693">
        <ele>117.42</ele>
        <time>2019-12-30T09:13:50Z</time>
      </trkpt>
      <trkpt lat="37.9461634532" lon="-8.7197139859">
        <ele>117.90</ele>
        <time>2019-12-30T09:14:03Z</time>
      </trkpt>
      <trkpt lat="37.9462925345" lon="-8.7197511178">
        <ele>118.86</ele>
        <time>2019-12-30T09:14:14Z</time>
      </trkpt>
      <trkpt lat="37.9463260621" lon="-8.7197553925">
        <ele>118.86</ele>
        <time>2019-12-30T09:14:17Z</time>
      </trkpt>
      <trkpt lat="37.9464617651" lon="-8.7197905965">
        <ele>119.82</ele>
        <time>2019-12-30T09:14:29Z</time>
      </trkpt>
      <trkpt lat="37.9465463385" lon="-8.7197942007">
        <ele>120.78</ele>
        <time>2019-12-30T09:14:36Z</time>
      </trkpt>
      <trkpt lat="37.9466067720" lon="-8.7197740003">
        <ele>120.78</ele>
        <time>2019-12-30T09:14:41Z</time>
      </trkpt>
      <trkpt lat="37.9466403835" lon="-8.7197728269">
        <ele>121.26</ele>
        <time>2019-12-30T09:14:44Z</time>
      </trkpt>
      <trkpt lat="37.9467535391" lon="-8.7197491061">
        <ele>122.22</ele>
        <time>2019-12-30T09:14:53Z</time>
      </trkpt>
      <trkpt lat="37.9468081892" lon="-8.7197553087">
        <ele>122.22</ele>
        <time>2019-12-30T09:14:57Z</time>
      </trkpt>
      <trkpt lat="37.9468284734" lon="-8.7197681330">
        <ele>122.71</ele>
        <time>2019-12-30T09:14:59Z</time>
      </trkpt>
      <trkpt lat="37.9469125438" lon="-8.7197911832">
        <ele>123.67</ele>
        <time>2019-12-30T09:15:07Z</time>
      </trkpt>
      <trkpt lat="37.9469625000" lon="-8.7198004872">
        <ele>124.15</ele>
        <time>2019-12-30T09:15:12Z</time>
      </trkpt>
      <trkpt lat="37.9469982069" lon="-8.7198213581">
        <ele>124.63</ele>
        <time>2019-12-30T09:15:15Z</time>
      </trkpt>
      <trkpt lat="37.9470351711" lon="-8.7198294047">
        <ele>125.11</ele>
        <time>2019-12-30T09:15:18Z</time>
      </trkpt>
      <trkpt lat="37.9470633343" lon="-8.7198452465">
        <ele>125.11</ele>
        <time>2019-12-30T09:15:21Z</time>
      </trkpt>
      <trkpt lat="37.9470834509" lon="-8.7198596634">
        <ele>125.59</ele>
        <time>2019-12-30T09:15:23Z</time>
      </trkpt>
      <trkpt lat="37.9471581336" lon="-8.7198881619">
        <ele>126.55</ele>
        <time>2019-12-30T09:15:30Z</time>
      </trkpt>
      <trkpt lat="37.9472021386" lon="-8.7198914308">
        <ele>127.03</ele>
        <time>2019-12-30T09:15:34Z</time>
      </trkpt>
      <trkpt lat="37.9472658411" lon="-8.7199200131">
        <ele>127.51</ele>
        <time>2019-12-30T09:15:40Z</time>
      </trkpt>
      <trkpt lat="37.9472940043" lon="-8.7199273054">
        <ele>127.99</ele>
        <time>2019-12-30T09:15:42Z</time>
      </trkpt>
      <trkpt lat="37.9473344050" lon="-8.7199570611">
        <ele>128.47</ele>
        <time>2019-12-30T09:15:46Z</time>
      </trkpt>
      <trkpt lat="37.9474015441" lon="-8.7199894153">
        <ele>129.43</ele>
        <time>2019-12-30T09:15:52Z</time>
      </trkpt>
      <trkpt lat="37.9474553559" lon="-8.7200092804">
        <ele>129.43</ele>
        <time>2019-12-30T09:15:57Z</time>
      </trkpt>
      <trkpt lat="37.9474758077" lon="-8.7200241163">
        <ele>130.40</ele>
        <time>2019-12-30T09:15:59Z</time>
      </trkpt>
      <trkpt lat="37.9475095868" lon="-8.7200459093">
        <ele>130.88</ele>
        <time>2019-12-30T09:16:02Z</time>
      </trkpt>
      <trkpt lat="37.9475885443" lon="-8.7202535290">
        <ele>133.28</ele>
        <time>2019-12-30T09:16:17Z</time>
      </trkpt>
      <trkpt lat="37.9475981835" lon="-8.7202844582">
        <ele>133.76</ele>
        <time>2019-12-30T09:16:19Z</time>
      </trkpt>
      <trkpt lat="37.9475852754" lon="-8.7204614840">
        <ele>135.20</ele>
        <time>2019-12-30T09:16:31Z</time>
      </trkpt>
      <trkpt lat="37.9475323018" lon="-8.7205691915">
        <ele>138.09</ele>
        <time>2019-12-30T09:16:43Z</time>
      </trkpt>
      <trkpt lat="37.9475136939" lon="-8.7205955107">
        <ele>138.09</ele>
        <time>2019-12-30T09:16:49Z</time>
      </trkpt>
      <trkpt lat="37.9474976007" lon="-8.7205865420">
        <ele>138.57</ele>
        <time>2019-12-30T09:16:52Z</time>
      </trkpt>
      <trkpt lat="37.9474774003" lon="-8.7206195667">
        <ele>139.53</ele>
        <time>2019-12-30T09:16:56Z</time>
      </trkpt>
      <trkpt lat="37.9474644084" lon="-8.7206533458">
        <ele>139.53</ele>
        <time>2019-12-30T09:16:59Z</time>
      </trkpt>
      <trkpt lat="37.9474799149" lon="-8.7207327224">
        <ele>140.97</ele>
        <time>2019-12-30T09:17:05Z</time>
      </trkpt>
      <trkpt lat="37.9475071561" lon="-8.7207478099">
        <ele>141.93</ele>
        <time>2019-12-30T09:17:07Z</time>
      </trkpt>
      <trkpt lat="37.9476105887" lon="-8.7208400946">
        <ele>141.93</ele>
        <time>2019-12-30T09:17:19Z</time>
      </trkpt>
      <trkpt lat="37.9476940725" lon="-8.7209391687">
        <ele>140.97</ele>
        <time>2019-12-30T09:17:34Z</time>
      </trkpt>
      <trkpt lat="37.9477626365" lon="-8.7210381590">
        <ele>140.01</ele>
        <time>2019-12-30T09:17:49Z</time>
      </trkpt>
      <trkpt lat="37.9478156101" lon="-8.7211576849">
        <ele>138.57</ele>
        <time>2019-12-30T09:18:04Z</time>
      </trkpt>
      <trkpt lat="37.9478319548" lon="-8.7212085631">
        <ele>138.09</ele>
        <time>2019-12-30T09:18:11Z</time>
      </trkpt>
      <trkpt lat="37.9478565138" lon="-8.7213071343">
        <ele>137.61</ele>
        <time>2019-12-30T09:18:23Z</time>
      </trkpt>
      <trkpt lat="37.9478687514" lon="-8.7213699147">
        <ele>136.16</ele>
        <time>2019-12-30T09:18:29Z</time>
      </trkpt>
      <trkpt lat="37.9478721879" lon="-8.7214639597">
        <ele>136.16</ele>
        <time>2019-12-30T09:18:41Z</time>
      </trkpt>
      <trkpt lat="37.9478912987" lon="-8.7215599325">
        <ele>134.72</ele>
        <time>2019-12-30T09:18:55Z</time>
      </trkpt>
      <trkpt lat="37.9478965793" lon="-8.7215938792">
        <ele>134.72</ele>
        <time>2019-12-30T09:19:11Z</time>
      </trkpt>
      <trkpt lat="37.9479493015" lon="-8.7217201106">
        <ele>133.28</ele>
        <time>2019-12-30T09:19:25Z</time>
      </trkpt>
      <trkpt lat="37.9480353836" lon="-8.7218171731">
        <ele>132.32</ele>
        <time>2019-12-30T09:19:38Z</time>
      </trkpt>
      <trkpt lat="37.9480516445" lon="-8.7218285725">
        <ele>132.32</ele>
        <time>2019-12-30T09:19:40Z</time>
      </trkpt>
      <trkpt lat="37.9480862617" lon="-8.7218626868">
        <ele>131.84</ele>
        <time>2019-12-30T09:19:45Z</time>
      </trkpt>
      <trkpt lat="37.9481017683" lon="-8.7218724098">
        <ele>131.84</ele>
        <time>2019-12-30T09:19:47Z</time>
      </trkpt>
      <trkpt lat="37.9481337033" lon="-8.7218887545">
        <ele>131.84</ele>
        <time>2019-12-30T09:19:50Z</time>
      </trkpt>
      <trkpt lat="37.9481785465" lon="-8.7219176721">
        <ele>131.84</ele>
        <time>2019-12-30T09:19:55Z</time>
      </trkpt>
      <trkpt lat="37.9482484516" lon="-8.7219743337">
        <ele>131.36</ele>
        <time>2019-12-30T09:20:04Z</time>
      </trkpt>
      <trkpt lat="37.9482654668" lon="-8.7219921872">
        <ele>131.36</ele>
        <time>2019-12-30T09:20:07Z</time>
      </trkpt>
      <trkpt lat="37.9482760280" lon="-8.7220153213">
        <ele>131.36</ele>
        <time>2019-12-30T09:20:09Z</time>
      </trkpt>
      <trkpt lat="37.9483013414" lon="-8.7220433168">
        <ele>131.84</ele>
        <time>2019-12-30T09:20:12Z</time>
      </trkpt>
      <trkpt lat="37.9483759403" lon="-8.7221641000">
        <ele>132.80</ele>
        <time>2019-12-30T09:20:25Z</time>
      </trkpt>
      <trkpt lat="37.9483749345" lon="-8.7222086079">
        <ele>132.80</ele>
        <time>2019-12-30T09:20:29Z</time>
      </trkpt>
      <trkpt lat="37.9483752698" lon="-8.7222574744">
        <ele>133.28</ele>
        <time>2019-12-30T09:20:33Z</time>
      </trkpt>
      <trkpt lat="37.9483683128" lon="-8.7224333268">
        <ele>132.32</ele>
        <time>2019-12-30T09:20:46Z</time>
      </trkpt>
      <trkpt lat="37.9483631998" lon="-8.7224777509">
        <ele>132.32</ele>
        <time>2019-12-30T09:20:49Z</time>
      </trkpt>
      <trkpt lat="37.9483611044" lon="-8.7225192413">
        <ele>132.32</ele>
        <time>2019-12-30T09:20:52Z</time>
      </trkpt>
      <trkpt lat="37.9483575001" lon="-8.7225635815">
        <ele>132.32</ele>
        <time>2019-12-30T09:20:57Z</time>
      </trkpt>
      <trkpt lat="37.9483497888" lon="-8.7226461433">
        <ele>131.84</ele>
        <time>2019-12-30T09:21:04Z</time>
      </trkpt>
      <trkpt lat="37.9483393952" lon="-8.7226896454">
        <ele>131.36</ele>
        <time>2019-12-30T09:21:07Z</time>
      </trkpt>
      <trkpt lat="37.9483445920" lon="-8.7228345685">
        <ele>131.36</ele>
        <time>2019-12-30T09:21:18Z</time>
      </trkpt>
      <trkpt lat="37.9483438376" lon="-8.7228575349">
        <ele>130.88</ele>
        <time>2019-12-30T09:21:20Z</time>
      </trkpt>
      <trkpt lat="37.9483478609" lon="-8.7229204830">
        <ele>130.88</ele>
        <time>2019-12-30T09:21:24Z</time>
      </trkpt>
      <trkpt lat="37.9483628646" lon="-8.7229563575">
        <ele>130.88</ele>
        <time>2019-12-30T09:21:27Z</time>
      </trkpt>
      <trkpt lat="37.9483813047" lon="-8.7230107561">
        <ele>131.36</ele>
        <time>2019-12-30T09:21:32Z</time>
      </trkpt>
      <trkpt lat="37.9483991582" lon="-8.7230138574">
        <ele>131.84</ele>
        <time>2019-12-30T09:21:34Z</time>
      </trkpt>
      <trkpt lat="37.9484413192" lon="-8.7229903042">
        <ele>131.36</ele>
        <time>2019-12-30T09:21:38Z</time>
      </trkpt>
      <trkpt lat="37.9484789539" lon="-8.7229662482">
        <ele>130.40</ele>
        <time>2019-12-30T09:21:42Z</time>
      </trkpt>
      <trkpt lat="37.9485558998" lon="-8.7229357380">
        <ele>129.92</ele>
        <time>2019-12-30T09:21:49Z</time>
      </trkpt>
      <trkpt lat="37.9487098753" lon="-8.7229048926">
        <ele>129.43</ele>
        <time>2019-12-30T09:22:02Z</time>
      </trkpt>
      <trkpt lat="37.9487655312" lon="-8.7229097541">
        <ele>129.92</ele>
        <time>2019-12-30T09:22:07Z</time>
      </trkpt>
      <trkpt lat="37.9488413036" lon="-8.7229103409">
        <ele>128.95</ele>
        <time>2019-12-30T09:22:14Z</time>
      </trkpt>
      <trkpt lat="37.9490384459" lon="-8.7229193095">
        <ele>127.99</ele>
        <time>2019-12-30T09:22:30Z</time>
      </trkpt>
      <trkpt lat="37.9491923377" lon="-8.7228656653">
        <ele>126.55</ele>
        <time>2019-12-30T09:22:43Z</time>
      </trkpt>
      <trkpt lat="37.9492268711" lon="-8.7228535116">
        <ele>125.59</ele>
        <time>2019-12-30T09:22:46Z</time>
      </trkpt>
      <trkpt lat="37.9493904859" lon="-8.7228488177">
        <ele>124.15</ele>
        <time>2019-12-30T09:23:00Z</time>
      </trkpt>
      <trkpt lat="37.9495396838" lon="-8.7229058146">
        <ele>122.71</ele>
        <time>2019-12-30T09:23:13Z</time>
      </trkpt>
      <trkpt lat="37.9495774861" lon="-8.7229153700">
        <ele>122.22</ele>
        <time>2019-12-30T09:23:16Z</time>
      </trkpt>
      <trkpt lat="37.9496707767" lon="-8.7229626440">
        <ele>121.26</ele>
        <time>2019-12-30T09:23:24Z</time>
      </trkpt>
      <trkpt lat="37.9498148616" lon="-8.7230657414">
        <ele>120.30</ele>
        <time>2019-12-30T09:23:38Z</time>
      </trkpt>
      <trkpt lat="37.9498341400" lon="-8.7230851036">
        <ele>120.30</ele>
        <time>2019-12-30T09:23:40Z</time>
      </trkpt>
      <trkpt lat="37.9499068111" lon="-8.7231234927">
        <ele>119.82</ele>
        <time>2019-12-30T09:23:46Z</time>
      </trkpt>
      <trkpt lat="37.9499523249" lon="-8.7231564336">
        <ele>119.82</ele>
        <time>2019-12-30T09:23:50Z</time>
      </trkpt>
      <trkpt lat="37.9501275066" lon="-8.7231659889">
        <ele>120.30</ele>
        <time>2019-12-30T09:24:04Z</time>
      </trkpt>
      <trkpt lat="37.9502497148" lon="-8.7231849320">
        <ele>121.26</ele>
        <time>2019-12-30T09:24:14Z</time>
      </trkpt>
      <trkpt lat="37.9502831586" lon="-8.7231862731">
        <ele>121.74</ele>
        <time>2019-12-30T09:24:17Z</time>
      </trkpt>
      <trkpt lat="37.9504239745" lon="-8.7232462876">
        <ele>122.22</ele>
        <time>2019-12-30T09:24:30Z</time>
      </trkpt>
      <trkpt lat="37.9504818097" lon="-8.7232526578">
        <ele>123.19</ele>
        <time>2019-12-30T09:24:35Z</time>
      </trkpt>
      <trkpt lat="37.9505459312" lon="-8.7232560106">
        <ele>123.67</ele>
        <time>2019-12-30T09:24:40Z</time>
      </trkpt>
      <trkpt lat="37.9505921155" lon="-8.7232500594">
        <ele>124.63</ele>
        <time>2019-12-30T09:24:44Z</time>
      </trkpt>
      <trkpt lat="37.9507361166" lon="-8.7231930625">
        <ele>126.07</ele>
        <time>2019-12-30T09:24:58Z</time>
      </trkpt>
      <trkpt lat="37.9507870786" lon="-8.7231492251">
        <ele>126.55</ele>
        <time>2019-12-30T09:25:04Z</time>
      </trkpt>
      <trkpt lat="37.9508347716" lon="-8.7230996881">
        <ele>127.03</ele>
        <time>2019-12-30T09:25:09Z</time>
      </trkpt>
      <trkpt lat="37.9508649465" lon="-8.7230680883">
        <ele>127.51</ele>
        <time>2019-12-30T09:25:13Z</time>
      </trkpt>
      <trkpt lat="37.9509501904" lon="-8.7229825929">
        <ele>127.99</ele>
        <time>2019-12-30T09:25:22Z</time>
      </trkpt>
      <trkpt lat="37.9509844724" lon="-8.7229467183">
        <ele>128.47</ele>
        <time>2019-12-30T09:25:26Z</time>
      </trkpt>
      <trkpt lat="37.9510014039" lon="-8.7229077425">
        <ele>128.95</ele>
        <time>2019-12-30T09:25:29Z</time>
      </trkpt>
      <trkpt lat="37.9510578141" lon="-8.7228359934">
        <ele>128.95</ele>
        <time>2019-12-30T09:25:35Z</time>
      </trkpt>
      <trkpt lat="37.9510903358" lon="-8.7228123564">
        <ele>129.43</ele>
        <time>2019-12-30T09:25:37Z</time>
      </trkpt>
      <trkpt lat="37.9511532001" lon="-8.7227201555">
        <ele>130.40</ele>
        <time>2019-12-30T09:25:46Z</time>
      </trkpt>
      <trkpt lat="37.9511699639" lon="-8.7226939201">
        <ele>130.40</ele>
        <time>2019-12-30T09:25:48Z</time>
      </trkpt>
      <trkpt lat="37.9512175731" lon="-8.7225956004">
        <ele>130.88</ele>
        <time>2019-12-30T09:25:55Z</time>
      </trkpt>
      <trkpt lat="37.9512425512" lon="-8.7225395255">
        <ele>131.36</ele>
        <time>2019-12-30T09:25:59Z</time>
      </trkpt>
      <trkpt lat="37.9512990452" lon="-8.7224692851">
        <ele>131.84</ele>
        <time>2019-12-30T09:26:05Z</time>
      </trkpt>
      <trkpt lat="37.9513498396" lon="-8.7223972008">
        <ele>131.84</ele>
        <time>2019-12-30T09:26:12Z</time>
      </trkpt>
      <trkpt lat="37.9513877258" lon="-8.7223621644">
        <ele>132.32</ele>
        <time>2019-12-30T09:26:16Z</time>
      </trkpt>
      <trkpt lat="37.9514548648" lon="-8.7222944386">
        <ele>131.84</ele>
        <time>2019-12-30T09:26:23Z</time>
      </trkpt>
      <trkpt lat="37.9515163042" lon="-8.7222521100">
        <ele>132.32</ele>
        <time>2019-12-30T09:26:29Z</time>
      </trkpt>
      <trkpt lat="37.9515600577" lon="-8.7222327478">
        <ele>132.32</ele>
        <time>2019-12-30T09:26:33Z</time>
      </trkpt>
      <trkpt lat="37.9516561143" lon="-8.7222179957">
        <ele>133.28</ele>
        <time>2019-12-30T09:26:40Z</time>
      </trkpt>
      <trkpt lat="37.9517563619" lon="-8.7222051714">
        <ele>133.76</ele>
        <time>2019-12-30T09:26:48Z</time>
      </trkpt>
      <trkpt lat="37.9518676735" lon="-8.7221734039">
        <ele>134.24</ele>
        <time>2019-12-30T09:26:57Z</time>
      </trkpt>
      <trkpt lat="37.9519240838" lon="-8.7221448217">
        <ele>134.24</ele>
        <time>2019-12-30T09:27:02Z</time>
      </trkpt>
      <trkpt lat="37.9519478884" lon="-8.7221402954">
        <ele>134.24</ele>
        <time>2019-12-30T09:27:04Z</time>
      </trkpt>
      <trkpt lat="37.9520145245" lon="-8.7221225258">
        <ele>134.24</ele>
        <time>2019-12-30T09:27:10Z</time>
      </trkpt>
      <trkpt lat="37.9521353077" lon="-8.7220817059">
        <ele>134.24</ele>
        <time>2019-12-30T09:27:21Z</time>
      </trkpt>
      <trkpt lat="37.9523062985" lon="-8.7220935244">
        <ele>133.76</ele>
        <time>2019-12-30T09:27:36Z</time>
      </trkpt>
      <trkpt lat="37.9524787981" lon="-8.7221201789">
        <ele>132.80</ele>
        <time>2019-12-30T09:27:50Z</time>
      </trkpt>
      <trkpt lat="37.9526264034" lon="-8.7221330032">
        <ele>131.84</ele>
        <time>2019-12-30T09:28:02Z</time>
      </trkpt>
      <trkpt lat="37.9527522158" lon="-8.7221322488">
        <ele>130.88</ele>
        <time>2019-12-30T09:28:13Z</time>
      </trkpt>
      <trkpt lat="37.9527829774" lon="-8.7221418880">
        <ele>130.88</ele>
        <time>2019-12-30T09:28:16Z</time>
      </trkpt>
      <trkpt lat="37.9528834764" lon="-8.7221431453">
        <ele>130.40</ele>
        <time>2019-12-30T09:28:24Z</time>
      </trkpt>
      <trkpt lat="37.9529552255" lon="-8.7221300695">
        <ele>129.92</ele>
        <time>2019-12-30T09:28:30Z</time>
      </trkpt>
      <trkpt lat="37.9530138988" lon="-8.7221111264">
        <ele>129.43</ele>
        <time>2019-12-30T09:28:35Z</time>
      </trkpt>
      <trkpt lat="37.9531797767" lon="-8.7220905907">
        <ele>129.43</ele>
        <time>2019-12-30T09:28:48Z</time>
      </trkpt>
      <trkpt lat="37.9532133043" lon="-8.7220946979">
        <ele>129.43</ele>
        <time>2019-12-30T09:28:51Z</time>
      </trkpt>
      <trkpt lat="37.9532664455" lon="-8.7220954522">
        <ele>129.43</ele>
        <time>2019-12-30T09:28:55Z</time>
      </trkpt>
      <trkpt lat="37.9534004722" lon="-8.7220968772">
        <ele>129.43</ele>
        <time>2019-12-30T09:29:05Z</time>
      </trkpt>
      <trkpt lat="37.9534850456" lon="-8.7221283931">
        <ele>129.43</ele>
        <time>2019-12-30T09:29:12Z</time>
      </trkpt>
      <trkpt lat="37.9535435513" lon="-8.7221528683">
        <ele>129.43</ele>
        <time>2019-12-30T09:29:17Z</time>
      </trkpt>
      <trkpt lat="37.9536068346" lon="-8.7221905869">
        <ele>129.92</ele>
        <time>2019-12-30T09:29:23Z</time>
      </trkpt>
      <trkpt lat="37.9536696151" lon="-8.7222027406">
        <ele>130.40</ele>
        <time>2019-12-30T09:29:28Z</time>
      </trkpt>
      <trkpt lat="37.9537180625" lon="-8.7222315744">
        <ele>130.88</ele>
        <time>2019-12-30T09:29:32Z</time>
      </trkpt>
      <trkpt lat="37.9538642429" lon="-8.7222979590">
        <ele>131.84</ele>
        <time>2019-12-30T09:29:44Z</time>
      </trkpt>
      <trkpt lat="37.9538836051" lon="-8.7223108672">
        <ele>131.84</ele>
        <time>2019-12-30T09:29:46Z</time>
      </trkpt>
      <trkpt lat="37.9539459664" lon="-8.7223348394">
        <ele>132.32</ele>
        <time>2019-12-30T09:29:51Z</time>
      </trkpt>
      <trkpt lat="37.9540359043" lon="-8.7224484142">
        <ele>132.32</ele>
        <time>2019-12-30T09:30:01Z</time>
      </trkpt>
      <trkpt lat="37.9540534224" lon="-8.7224634178">
        <ele>132.32</ele>
        <time>2019-12-30T09:30:03Z</time>
      </trkpt>
      <trkpt lat="37.9542478826" lon="-8.7225478236">
        <ele>132.32</ele>
        <time>2019-12-30T09:30:19Z</time>
      </trkpt>
      <trkpt lat="37.9543968290" lon="-8.7226056587">
        <ele>130.88</ele>
        <time>2019-12-30T09:30:31Z</time>
      </trkpt>
      <trkpt lat="37.9545482062" lon="-8.7226474006">
        <ele>130.88</ele>
        <time>2019-12-30T09:30:44Z</time>
      </trkpt>
      <trkpt lat="37.9545943066" lon="-8.7226564530">
        <ele>130.40</ele>
        <time>2019-12-30T09:30:48Z</time>
      </trkpt>
      <trkpt lat="37.9546694085" lon="-8.7226567045">
        <ele>130.40</ele>
        <time>2019-12-30T09:30:54Z</time>
      </trkpt>
      <trkpt lat="37.9548253957" lon="-8.7226669304">
        <ele>129.92</ele>
        <time>2019-12-30T09:31:07Z</time>
      </trkpt>
      <trkpt lat="37.9549600929" lon="-8.7226899806">
        <ele>129.92</ele>
        <time>2019-12-30T09:31:18Z</time>
      </trkpt>
      <trkpt lat="37.9551124759" lon="-8.7227110192">
        <ele>129.43</ele>
        <time>2019-12-30T09:31:30Z</time>
      </trkpt>
      <trkpt lat="37.9552630149" lon="-8.7227379251">
        <ele>129.43</ele>
        <time>2019-12-30T09:31:42Z</time>
      </trkpt>
      <trkpt lat="37.9552935250" lon="-8.7227472290">
        <ele>129.92</ele>
        <time>2019-12-30T09:31:44Z</time>
      </trkpt>
      <trkpt lat="37.9554384481" lon="-8.7227893062">
        <ele>129.43</ele>
        <time>2019-12-30T09:31:56Z</time>
      </trkpt>
      <trkpt lat="37.9556349199" lon="-8.7228585407">
        <ele>129.92</ele>
        <time>2019-12-30T09:32:12Z</time>
      </trkpt>
      <trkpt lat="37.9556857981" lon="-8.7228601333">
        <ele>129.92</ele>
        <time>2019-12-30T09:32:16Z</time>
      </trkpt>
      <trkpt lat="37.9558740556" lon="-8.7228714488">
        <ele>131.36</ele>
        <time>2019-12-30T09:32:32Z</time>
      </trkpt>
      <trkpt lat="37.9559534322" lon="-8.7228922360">
        <ele>130.88</ele>
        <time>2019-12-30T09:32:39Z</time>
      </trkpt>
      <trkpt lat="37.9560986906" lon="-8.7229676731">
        <ele>128.95</ele>
        <time>2019-12-30T09:32:52Z</time>
      </trkpt>
      <trkpt lat="37.9561229981" lon="-8.7229751330">
        <ele>128.47</ele>
        <time>2019-12-30T09:32:54Z</time>
      </trkpt>
      <trkpt lat="37.9561623093" lon="-8.7229745463">
        <ele>128.47</ele>
        <time>2019-12-30T09:32:57Z</time>
      </trkpt>
      <trkpt lat="37.9562684242" lon="-8.7229576148">
        <ele>127.51</ele>
        <time>2019-12-30T09:33:06Z</time>
      </trkpt>
      <trkpt lat="37.9564832523" lon="-8.7230093312">
        <ele>127.99</ele>
        <time>2019-12-30T09:33:22Z</time>
      </trkpt>
      <trkpt lat="37.9565264191" lon="-8.7230223231">
        <ele>127.99</ele>
        <time>2019-12-30T09:33:25Z</time>
      </trkpt>
      <trkpt lat="37.9565653112" lon="-8.7230210658">
        <ele>128.47</ele>
        <time>2019-12-30T09:33:28Z</time>
      </trkpt>
      <trkpt lat="37.9566704202" lon="-8.7230253406">
        <ele>128.95</ele>
        <time>2019-12-30T09:33:37Z</time>
      </trkpt>
      <trkpt lat="37.9567757808" lon="-8.7230483908">
        <ele>129.43</ele>
        <time>2019-12-30T09:33:45Z</time>
      </trkpt>
      <trkpt lat="37.9568356276" lon="-8.7230799906">
        <ele>129.43</ele>
        <time>2019-12-30T09:33:51Z</time>
      </trkpt>
      <trkpt lat="37.9569268227" lon="-8.7231106684">
        <ele>129.43</ele>
        <time>2019-12-30T09:33:58Z</time>
      </trkpt>
      <trkpt lat="37.9570145812" lon="-8.7232353073">
        <ele>129.92</ele>
        <time>2019-12-30T09:34:08Z</time>
      </trkpt>
      <trkpt lat="37.9570863303" lon="-8.7233178690">
        <ele>129.43</ele>
        <time>2019-12-30T09:34:16Z</time>
      </trkpt>
      <trkpt lat="37.9571302515" lon="-8.7233604491">
        <ele>128.95</ele>
        <time>2019-12-30T09:34:20Z</time>
      </trkpt>
      <trkpt lat="37.9571717419" lon="-8.7234358024">
        <ele>128.47</ele>
        <time>2019-12-30T09:34:26Z</time>
      </trkpt>
      <trkpt lat="37.9572734982" lon="-8.7235487904">
        <ele>127.51</ele>
        <time>2019-12-30T09:34:37Z</time>
      </trkpt>
      <trkpt lat="37.9573631007" lon="-8.7236641254">
        <ele>127.03</ele>
        <time>2019-12-30T09:34:47Z</time>
      </trkpt>
      <trkpt lat="37.9574342631" lon="-8.7237731740">
        <ele>126.55</ele>
        <time>2019-12-30T09:34:56Z</time>
      </trkpt>
      <trkpt lat="37.9574888293" lon="-8.7238522153">
        <ele>126.07</ele>
        <time>2019-12-30T09:35:02Z</time>
      </trkpt>
      <trkpt lat="37.9575815331" lon="-8.7239369564">
        <ele>125.59</ele>
        <time>2019-12-30T09:35:11Z</time>
      </trkpt>
      <trkpt lat="37.9576751590" lon="-8.7240200210">
        <ele>124.63</ele>
        <time>2019-12-30T09:35:20Z</time>
      </trkpt>
      <trkpt lat="37.9577011429" lon="-8.7240518723">
        <ele>124.63</ele>
        <time>2019-12-30T09:35:23Z</time>
      </trkpt>
      <trkpt lat="37.9577552900" lon="-8.7240931112">
        <ele>124.15</ele>
        <time>2019-12-30T09:35:28Z</time>
      </trkpt>
      <trkpt lat="37.9578426294" lon="-8.7241457496">
        <ele>123.67</ele>
        <time>2019-12-30T09:35:36Z</time>
      </trkpt>
      <trkpt lat="37.9579473194" lon="-8.7242159061">
        <ele>122.71</ele>
        <time>2019-12-30T09:35:45Z</time>
      </trkpt>
      <trkpt lat="37.9579908215" lon="-8.7242521159">
        <ele>122.22</ele>
        <time>2019-12-30T09:35:49Z</time>
      </trkpt>
      <trkpt lat="37.9580553621" lon="-8.7242995575">
        <ele>121.26</ele>
        <time>2019-12-30T09:35:55Z</time>
      </trkpt>
      <trkpt lat="37.9581324756" lon="-8.7243857235">
        <ele>120.30</ele>
        <time>2019-12-30T09:36:03Z</time>
      </trkpt>
      <trkpt lat="37.9581742175" lon="-8.7244808581">
        <ele>119.82</ele>
        <time>2019-12-30T09:36:09Z</time>
      </trkpt>
      <trkpt lat="37.9582420271" lon="-8.7245792616">
        <ele>118.38</ele>
        <time>2019-12-30T09:36:17Z</time>
      </trkpt>
      <trkpt lat="37.9582724534" lon="-8.7246524356">
        <ele>117.42</ele>
        <time>2019-12-30T09:36:22Z</time>
      </trkpt>
      <trkpt lat="37.9583929852" lon="-8.7247855403">
        <ele>116.46</ele>
        <time>2019-12-30T09:36:35Z</time>
      </trkpt>
      <trkpt lat="37.9584917240" lon="-8.7248943374">
        <ele>115.50</ele>
        <time>2019-12-30T09:36:48Z</time>
      </trkpt>
      <trkpt lat="37.9584859405" lon="-8.7248964328">
        <ele>115.98</ele>
        <time>2019-12-30T09:37:03Z</time>
      </trkpt>
      <trkpt lat="37.9584947415" lon="-8.7249019649">
        <ele>115.98</ele>
        <time>2019-12-30T09:37:08Z</time>
      </trkpt>
      <trkpt lat="37.9585978389" lon="-8.7250037212">
        <ele>115.50</ele>
        <time>2019-12-30T09:37:20Z</time>
      </trkpt>
      <trkpt lat="37.9586460348" lon="-8.7250490673">
        <ele>115.50</ele>
        <time>2019-12-30T09:37:25Z</time>
      </trkpt>
      <trkpt lat="37.9586664028" lon="-8.7250680942">
        <ele>115.50</ele>
        <time>2019-12-30T09:37:27Z</time>
      </trkpt>
      <trkpt lat="37.9586999305" lon="-8.7251991034">
        <ele>115.98</ele>
        <time>2019-12-30T09:37:38Z</time>
      </trkpt>
      <trkpt lat="37.9587099887" lon="-8.7253446132">
        <ele>117.42</ele>
        <time>2019-12-30T09:37:48Z</time>
      </trkpt>
      <trkpt lat="37.9587212205" lon="-8.7254446093">
        <ele>118.38</ele>
        <time>2019-12-30T09:37:56Z</time>
      </trkpt>
      <trkpt lat="37.9587407503" lon="-8.7255955674">
        <ele>118.86</ele>
        <time>2019-12-30T09:38:05Z</time>
      </trkpt>
      <trkpt lat="37.9587730207" lon="-8.7256972399">
        <ele>119.34</ele>
        <time>2019-12-30T09:38:12Z</time>
      </trkpt>
      <trkpt lat="37.9587835819" lon="-8.7257384788">
        <ele>119.34</ele>
        <time>2019-12-30T09:38:15Z</time>
      </trkpt>
      <trkpt lat="37.9588675685" lon="-8.7258603517">
        <ele>120.30</ele>
        <time>2019-12-30T09:38:26Z</time>
      </trkpt>
      <trkpt lat="37.9588834103" lon="-8.7258528080">
        <ele>120.30</ele>
        <time>2019-12-30T09:38:27Z</time>
      </trkpt>
      <trkpt lat="37.9589960631" lon="-8.7258840725">
        <ele>120.78</ele>
        <time>2019-12-30T09:38:35Z</time>
      </trkpt>
      <trkpt lat="37.9590774514" lon="-8.7259617727">
        <ele>121.74</ele>
        <time>2019-12-30T09:38:43Z</time>
      </trkpt>
      <trkpt lat="37.9590906948" lon="-8.7259892654">
        <ele>122.22</ele>
        <time>2019-12-30T09:38:45Z</time>
      </trkpt>
      <trkpt lat="37.9592281580" lon="-8.7260468490">
        <ele>123.19</ele>
        <time>2019-12-30T09:38:58Z</time>
      </trkpt>
      <trkpt lat="37.9594105482" lon="-8.7260429095">
        <ele>124.15</ele>
        <time>2019-12-30T09:39:14Z</time>
      </trkpt>
      <trkpt lat="37.9595297389" lon="-8.7260411493">
        <ele>123.67</ele>
        <time>2019-12-30T09:39:24Z</time>
      </trkpt>
      <trkpt lat="37.9595763423" lon="-8.7260192726">
        <ele>123.67</ele>
        <time>2019-12-30T09:39:28Z</time>
      </trkpt>
      <trkpt lat="37.9596796911" lon="-8.7260210328">
        <ele>123.19</ele>
        <time>2019-12-30T09:39:36Z</time>
      </trkpt>
      <trkpt lat="37.9597792681" lon="-8.7260094658">
        <ele>122.71</ele>
        <time>2019-12-30T09:39:44Z</time>
      </trkpt>
      <trkpt lat="37.9598302301" lon="-8.7259865832">
        <ele>122.71</ele>
        <time>2019-12-30T09:39:48Z</time>
      </trkpt>
      <trkpt lat="37.9599122889" lon="-8.7258803844">
        <ele>123.67</ele>
        <time>2019-12-30T09:39:58Z</time>
      </trkpt>
      <trkpt lat="37.9599760752" lon="-8.7258041929">
        <ele>123.19</ele>
        <time>2019-12-30T09:40:05Z</time>
      </trkpt>
      <trkpt lat="37.9600818548" lon="-8.7256785482">
        <ele>124.63</ele>
        <time>2019-12-30T09:40:16Z</time>
      </trkpt>
      <trkpt lat="37.9601914063" lon="-8.7255292665">
        <ele>125.11</ele>
        <time>2019-12-30T09:40:29Z</time>
      </trkpt>
      <trkpt lat="37.9602223355" lon="-8.7255032826">
        <ele>125.59</ele>
        <time>2019-12-30T09:40:32Z</time>
      </trkpt>
      <trkpt lat="37.9603288695" lon="-8.7253882829">
        <ele>126.55</ele>
        <time>2019-12-30T09:40:44Z</time>
      </trkpt>
      <trkpt lat="37.9604112636" lon="-8.7253529113">
        <ele>127.51</ele>
        <time>2019-12-30T09:40:51Z</time>
      </trkpt>
      <trkpt lat="37.9604938254" lon="-8.7253381591">
        <ele>127.99</ele>
        <time>2019-12-30T09:40:57Z</time>
      </trkpt>
      <trkpt lat="37.9606550932" lon="-8.7253291905">
        <ele>128.95</ele>
        <time>2019-12-30T09:41:10Z</time>
      </trkpt>
      <trkpt lat="37.9607987590" lon="-8.7253443617">
        <ele>127.51</ele>
        <time>2019-12-30T09:41:21Z</time>
      </trkpt>
      <trkpt lat="37.9610180296" lon="-8.7253283523">
        <ele>124.63</ele>
        <time>2019-12-30T09:41:38Z</time>
      </trkpt>
      <trkpt lat="37.9611169361" lon="-8.7253347225">
        <ele>124.15</ele>
        <time>2019-12-30T09:41:45Z</time>
      </trkpt>
      <trkpt lat="37.9612279963" lon="-8.7253328785">
        <ele>123.67</ele>
        <time>2019-12-30T09:41:54Z</time>
      </trkpt>
      <trkpt lat="37.9614035971" lon="-8.7253363151">
        <ele>124.63</ele>
        <time>2019-12-30T09:42:07Z</time>
      </trkpt>
      <trkpt lat="37.9614698980" lon="-8.7253531627">
        <ele>124.63</ele>
        <time>2019-12-30T09:42:12Z</time>
      </trkpt>
      <trkpt lat="37.9615491070" lon="-8.7254101597">
        <ele>125.11</ele>
        <time>2019-12-30T09:42:19Z</time>
      </trkpt>
      <trkpt lat="37.9616759252" lon="-8.7254846748">
        <ele>126.07</ele>
        <time>2019-12-30T09:42:30Z</time>
      </trkpt>
      <trkpt lat="37.9617112968" lon="-8.7255251594">
        <ele>126.07</ele>
        <time>2019-12-30T09:42:33Z</time>
      </trkpt>
      <trkpt lat="37.9617387895" lon="-8.7255647220">
        <ele>125.59</ele>
        <time>2019-12-30T09:42:36Z</time>
      </trkpt>
      <trkpt lat="37.9618024919" lon="-8.7255891133">
        <ele>125.11</ele>
        <time>2019-12-30T09:42:41Z</time>
      </trkpt>
      <trkpt lat="37.9618613329" lon="-8.7256240658">
        <ele>124.63</ele>
        <time>2019-12-30T09:42:46Z</time>
      </trkpt>
      <trkpt lat="37.9619013984" lon="-8.7256442662">
        <ele>124.63</ele>
        <time>2019-12-30T09:42:49Z</time>
      </trkpt>
      <trkpt lat="37.9619322438" lon="-8.7256914563">
        <ele>124.63</ele>
        <time>2019-12-30T09:42:53Z</time>
      </trkpt>
      <trkpt lat="37.9619874805" lon="-8.7257064600">
        <ele>124.63</ele>
        <time>2019-12-30T09:42:57Z</time>
      </trkpt>
      <trkpt lat="37.9620497581" lon="-8.7257448491">
        <ele>124.15</ele>
        <time>2019-12-30T09:43:02Z</time>
      </trkpt>
      <trkpt lat="37.9621603992" lon="-8.7258004211">
        <ele>123.67</ele>
        <time>2019-12-30T09:43:11Z</time>
      </trkpt>
      <trkpt lat="37.9622123670" lon="-8.7258425821">
        <ele>123.67</ele>
        <time>2019-12-30T09:43:16Z</time>
      </trkpt>
      <trkpt lat="37.9623327311" lon="-8.7259316817">
        <ele>123.67</ele>
        <time>2019-12-30T09:43:27Z</time>
      </trkpt>
      <trkpt lat="37.9623808432" lon="-8.7259683106">
        <ele>124.15</ele>
        <time>2019-12-30T09:43:32Z</time>
      </trkpt>
      <trkpt lat="37.9624372534" lon="-8.7259862479">
        <ele>124.15</ele>
        <time>2019-12-30T09:43:36Z</time>
      </trkpt>
      <trkpt lat="37.9625115171" lon="-8.7260437477">
        <ele>124.15</ele>
        <time>2019-12-30T09:43:43Z</time>
      </trkpt>
      <trkpt lat="37.9626686778" lon="-8.7261268962">
        <ele>126.07</ele>
        <time>2019-12-30T09:43:57Z</time>
      </trkpt>
      <trkpt lat="37.9627971724" lon="-8.7262146547">
        <ele>127.51</ele>
        <time>2019-12-30T09:44:07Z</time>
      </trkpt>
      <trkpt lat="37.9629203863" lon="-8.7263216916">
        <ele>127.99</ele>
        <time>2019-12-30T09:44:20Z</time>
      </trkpt>
      <trkpt lat="37.9630393256" lon="-8.7264586519">
        <ele>127.51</ele>
        <time>2019-12-30T09:44:34Z</time>
      </trkpt>
      <trkpt lat="37.9632042814" lon="-8.7265278026">
        <ele>125.59</ele>
        <time>2019-12-30T09:44:47Z</time>
      </trkpt>
      <trkpt lat="37.9633055348" lon="-8.7265866436">
        <ele>124.63</ele>
        <time>2019-12-30T09:44:56Z</time>
      </trkpt>
      <trkpt lat="37.9633399844" lon="-8.7265900802">
        <ele>124.15</ele>
        <time>2019-12-30T09:44:59Z</time>
      </trkpt>
      <trkpt lat="37.9634230491" lon="-8.7266735639">
        <ele>123.19</ele>
        <time>2019-12-30T09:45:07Z</time>
      </trkpt>
      <trkpt lat="37.9634430818" lon="-8.7266900763">
        <ele>123.19</ele>
        <time>2019-12-30T09:45:09Z</time>
      </trkpt>
      <trkpt lat="37.9634994920" lon="-8.7267103605">
        <ele>122.71</ele>
        <time>2019-12-30T09:45:13Z</time>
      </trkpt>
      <trkpt lat="37.9635432456" lon="-8.7267579697">
        <ele>121.74</ele>
        <time>2019-12-30T09:45:17Z</time>
      </trkpt>
      <trkpt lat="37.9636438284" lon="-8.7267427146">
        <ele>121.26</ele>
        <time>2019-12-30T09:45:26Z</time>
      </trkpt>
      <trkpt lat="37.9637120571" lon="-8.7266444787">
        <ele>121.26</ele>
        <time>2019-12-30T09:45:36Z</time>
      </trkpt>
      <trkpt lat="37.9637387954" lon="-8.7265908346">
        <ele>120.78</ele>
        <time>2019-12-30T09:45:41Z</time>
      </trkpt>
      <trkpt lat="37.9638777673" lon="-8.7265637610">
        <ele>121.26</ele>
        <time>2019-12-30T09:45:51Z</time>
      </trkpt>
      <trkpt lat="37.9639624245" lon="-8.7265190855">
        <ele>121.26</ele>
        <time>2019-12-30T09:45:58Z</time>
      </trkpt>
      <trkpt lat="37.9640863091" lon="-8.7264964543">
        <ele>121.26</ele>
        <time>2019-12-30T09:46:06Z</time>
      </trkpt>
      <trkpt lat="37.9642433859" lon="-8.7264739908">
        <ele>121.74</ele>
        <time>2019-12-30T09:46:19Z</time>
      </trkpt>
      <trkpt lat="37.9644128680" lon="-8.7264288962">
        <ele>123.19</ele>
        <time>2019-12-30T09:46:32Z</time>
      </trkpt>
      <trkpt lat="37.9645823501" lon="-8.7264118809">
        <ele>124.63</ele>
        <time>2019-12-30T09:46:45Z</time>
      </trkpt>
      <trkpt lat="37.9647463840" lon="-8.7264159881">
        <ele>125.59</ele>
        <time>2019-12-30T09:46:57Z</time>
      </trkpt>
      <trkpt lat="37.9647833481" lon="-8.7264195923">
        <ele>126.07</ele>
        <time>2019-12-30T09:47:00Z</time>
      </trkpt>
      <trkpt lat="37.9649432749" lon="-8.7264462467">
        <ele>127.51</ele>
        <time>2019-12-30T09:47:14Z</time>
      </trkpt>
      <trkpt lat="37.9651180375" lon="-8.7264623400">
        <ele>129.43</ele>
        <time>2019-12-30T09:47:27Z</time>
      </trkpt>
      <trkpt lat="37.9652011022" lon="-8.7264642678">
        <ele>129.43</ele>
        <time>2019-12-30T09:47:34Z</time>
      </trkpt>
      <trkpt lat="37.9653458577" lon="-8.7263638526">
        <ele>128.95</ele>
        <time>2019-12-30T09:47:48Z</time>
      </trkpt>
      <trkpt lat="37.9655108973" lon="-8.7262923550">
        <ele>128.47</ele>
        <time>2019-12-30T09:48:01Z</time>
      </trkpt>
      <trkpt lat="37.9656015057" lon="-8.7262435723">
        <ele>128.47</ele>
        <time>2019-12-30T09:48:10Z</time>
      </trkpt>
      <trkpt lat="37.9656976461" lon="-8.7262760103">
        <ele>128.95</ele>
        <time>2019-12-30T09:48:19Z</time>
      </trkpt>
      <trkpt lat="37.9658146575" lon="-8.7262470927">
        <ele>128.95</ele>
        <time>2019-12-30T09:48:30Z</time>
      </trkpt>
      <trkpt lat="37.9658412281" lon="-8.7262587436">
        <ele>128.95</ele>
        <time>2019-12-30T09:48:32Z</time>
      </trkpt>
      <trkpt lat="37.9659103788" lon="-8.7263034191">
        <ele>128.95</ele>
        <time>2019-12-30T09:48:37Z</time>
      </trkpt>
      <trkpt lat="37.9659699742" lon="-8.7263061013">
        <ele>128.95</ele>
        <time>2019-12-30T09:48:42Z</time>
      </trkpt>
      <trkpt lat="37.9661475867" lon="-8.7263314985">
        <ele>129.92</ele>
        <time>2019-12-30T09:48:56Z</time>
      </trkpt>
      <trkpt lat="37.9662055057" lon="-8.7263328396">
        <ele>129.92</ele>
        <time>2019-12-30T09:49:02Z</time>
      </trkpt>
      <trkpt lat="37.9662359320" lon="-8.7263428140">
        <ele>130.40</ele>
        <time>2019-12-30T09:49:04Z</time>
      </trkpt>
      <trkpt lat="37.9663913324" lon="-8.7263642717">
        <ele>130.40</ele>
        <time>2019-12-30T09:49:16Z</time>
      </trkpt>
      <trkpt lat="37.9664010555" lon="-8.7263691332">
        <ele>130.88</ele>
        <time>2019-12-30T09:49:18Z</time>
      </trkpt>
      <trkpt lat="37.9665257782" lon="-8.7264043372">
        <ele>130.88</ele>
        <time>2019-12-30T09:49:28Z</time>
      </trkpt>
      <trkpt lat="37.9665836971" lon="-8.7264014874">
        <ele>131.84</ele>
        <time>2019-12-30T09:49:33Z</time>
      </trkpt>
      <trkpt lat="37.9666153807" lon="-8.7264188379">
        <ele>131.84</ele>
        <time>2019-12-30T09:49:36Z</time>
      </trkpt>
      <trkpt lat="37.9666399397" lon="-8.7264296506">
        <ele>132.32</ele>
        <time>2019-12-30T09:49:38Z</time>
      </trkpt>
      <trkpt lat="37.9667283688" lon="-8.7264405470">
        <ele>132.80</ele>
        <time>2019-12-30T09:49:45Z</time>
      </trkpt>
      <trkpt lat="37.9668485653" lon="-8.7264325842">
        <ele>131.84</ele>
        <time>2019-12-30T09:49:56Z</time>
      </trkpt>
      <trkpt lat="37.9668726213" lon="-8.7264337577">
        <ele>131.84</ele>
        <time>2019-12-30T09:49:58Z</time>
      </trkpt>
      <trkpt lat="37.9669615533" lon="-8.7264454085">
        <ele>130.88</ele>
        <time>2019-12-30T09:50:04Z</time>
      </trkpt>
      <trkpt lat="37.9670592863" lon="-8.7264389545">
        <ele>130.40</ele>
        <time>2019-12-30T09:50:17Z</time>
      </trkpt>
      <trkpt lat="37.9670592863" lon="-8.7264389545">
        <ele>129.43</ele>
        <time>2019-12-30T09:50:31Z</time>
      </trkpt>
      <trkpt lat="37.9670592863" lon="-8.7264389545">
        <ele>129.92</ele>
        <time>2019-12-30T09:50:38Z</time>
      </trkpt>
      <trkpt lat="37.9672352225" lon="-8.7263921835">
        <ele>128.95</ele>
        <time>2019-12-30T09:50:53Z</time>
      </trkpt>
      <trkpt lat="37.9673669860" lon="-8.7263464183">
        <ele>127.99</ele>
        <time>2019-12-30T09:51:03Z</time>
      </trkpt>
      <trkpt lat="37.9675544892" lon="-8.7262855656">
        <ele>127.51</ele>
        <time>2019-12-30T09:51:18Z</time>
      </trkpt>
      <trkpt lat="37.9677196965" lon="-8.7262610905">
        <ele>127.03</ele>
        <time>2019-12-30T09:51:33Z</time>
      </trkpt>
      <trkpt lat="37.9679181799" lon="-8.7262895890">
        <ele>127.51</ele>
        <time>2019-12-30T09:51:50Z</time>
      </trkpt>
      <trkpt lat="37.9680941999" lon="-8.7262703106">
        <ele>127.03</ele>
        <time>2019-12-30T09:52:05Z</time>
      </trkpt>
      <trkpt lat="37.9682607483" lon="-8.7262045126">
        <ele>126.07</ele>
        <time>2019-12-30T09:52:19Z</time>
      </trkpt>
      <trkpt lat="37.9683080222" lon="-8.7261743378">
        <ele>126.55</ele>
        <time>2019-12-30T09:52:24Z</time>
      </trkpt>
      <trkpt lat="37.9683391191" lon="-8.7261627708">
        <ele>126.07</ele>
        <time>2019-12-30T09:52:27Z</time>
      </trkpt>
      <trkpt lat="37.9685124569" lon="-8.7260357011">
        <ele>125.59</ele>
        <time>2019-12-30T09:52:43Z</time>
      </trkpt>
      <trkpt lat="37.9686346650" lon="-8.7259270716">
        <ele>125.11</ele>
        <time>2019-12-30T09:52:55Z</time>
      </trkpt>
      <trkpt lat="37.9686871357" lon="-8.7258623634">
        <ele>124.63</ele>
        <time>2019-12-30T09:53:01Z</time>
      </trkpt>
      <trkpt lat="37.9687970225" lon="-8.7258011755">
        <ele>124.15</ele>
        <time>2019-12-30T09:53:10Z</time>
      </trkpt>
      <trkpt lat="37.9689673427" lon="-8.7257138360">
        <ele>123.67</ele>
        <time>2019-12-30T09:53:23Z</time>
      </trkpt>
      <trkpt lat="37.9689900577" lon="-8.7257031910">
        <ele>123.67</ele>
        <time>2019-12-30T09:53:25Z</time>
      </trkpt>
      <trkpt lat="37.9691535048" lon="-8.7257295102">
        <ele>123.19</ele>
        <time>2019-12-30T09:53:39Z</time>
      </trkpt>
      <trkpt lat="37.9692118429" lon="-8.7257595174">
        <ele>123.19</ele>
        <time>2019-12-30T09:53:44Z</time>
      </trkpt>
      <trkpt lat="37.9693091568" lon="-8.7259185221">
        <ele>123.19</ele>
        <time>2019-12-30T09:53:57Z</time>
      </trkpt>
      <trkpt lat="37.9693329614" lon="-8.7259616051">
        <ele>122.71</ele>
        <time>2019-12-30T09:54:01Z</time>
      </trkpt>
      <trkpt lat="37.9692596197" lon="-8.7261118926">
        <ele>122.71</ele>
        <time>2019-12-30T09:54:12Z</time>
      </trkpt>
      <trkpt lat="37.9692295287" lon="-8.7262014952">
        <ele>123.19</ele>
        <time>2019-12-30T09:54:18Z</time>
      </trkpt>
      <trkpt lat="37.9692203086" lon="-8.7262300774">
        <ele>123.19</ele>
        <time>2019-12-30T09:54:20Z</time>
      </trkpt>
      <trkpt lat="37.9692101665" lon="-8.7263475917">
        <ele>123.19</ele>
        <time>2019-12-30T09:54:28Z</time>
      </trkpt>
      <trkpt lat="37.9692076519" lon="-8.7264454085">
        <ele>123.19</ele>
        <time>2019-12-30T09:54:34Z</time>
      </trkpt>
      <trkpt lat="37.9692010302" lon="-8.7264710572">
        <ele>123.67</ele>
        <time>2019-12-30T09:54:36Z</time>
      </trkpt>
      <trkpt lat="37.9692021199" lon="-8.7265371904">
        <ele>123.67</ele>
        <time>2019-12-30T09:54:40Z</time>
      </trkpt>
      <trkpt lat="37.9692258406" lon="-8.7266043294">
        <ele>123.67</ele>
        <time>2019-12-30T09:54:44Z</time>
      </trkpt>
      <trkpt lat="37.9692233261" lon="-8.7266790122">
        <ele>124.15</ele>
        <time>2019-12-30T09:54:49Z</time>
      </trkpt>
      <trkpt lat="37.9692526627" lon="-8.7267843727">
        <ele>124.63</ele>
        <time>2019-12-30T09:54:56Z</time>
      </trkpt>
      <trkpt lat="37.9692597874" lon="-8.7268087640">
        <ele>124.15</ele>
        <time>2019-12-30T09:54:58Z</time>
      </trkpt>
      <trkpt lat="37.9693544190" lon="-8.7269165553">
        <ele>125.59</ele>
        <time>2019-12-30T09:55:09Z</time>
      </trkpt>
      <trkpt lat="37.9694751184" lon="-8.7270831037">
        <ele>126.07</ele>
        <time>2019-12-30T09:55:23Z</time>
      </trkpt>
      <trkpt lat="37.9695996735" lon="-8.7272277754">
        <ele>125.59</ele>
        <time>2019-12-30T09:55:37Z</time>
      </trkpt>
      <trkpt lat="37.9697404057" lon="-8.7273158692">
        <ele>125.11</ele>
        <time>2019-12-30T09:55:50Z</time>
      </trkpt>
      <trkpt lat="37.9698057845" lon="-8.7273611315">
        <ele>124.63</ele>
        <time>2019-12-30T09:55:56Z</time>
      </trkpt>
      <trkpt lat="37.9699176829" lon="-8.7274586968">
        <ele>124.15</ele>
        <time>2019-12-30T09:56:07Z</time>
      </trkpt>
      <trkpt lat="37.9699759372" lon="-8.7274602056">
        <ele>124.15</ele>
        <time>2019-12-30T09:56:19Z</time>
      </trkpt>
      <trkpt lat="37.9699747637" lon="-8.7274571043">
        <ele>123.67</ele>
        <time>2019-12-30T09:56:39Z</time>
      </trkpt>
      <trkpt lat="37.9700708203" lon="-8.7274851836">
        <ele>124.15</ele>
        <time>2019-12-30T09:56:53Z</time>
      </trkpt>
      <trkpt lat="37.9700760171" lon="-8.7275027018">
        <ele>124.15</ele>
        <time>2019-12-30T09:56:56Z</time>
      </trkpt>
      <trkpt lat="37.9700979777" lon="-8.7275255844">
        <ele>124.15</ele>
        <time>2019-12-30T09:56:59Z</time>
      </trkpt>
      <trkpt lat="37.9701726604" lon="-8.7275602855">
        <ele>123.67</ele>
        <time>2019-12-30T09:57:06Z</time>
      </trkpt>
      <trkpt lat="37.9701920226" lon="-8.7275547534">
        <ele>124.15</ele>
        <time>2019-12-30T09:57:08Z</time>
      </trkpt>
      <trkpt lat="37.9702253826" lon="-8.7275887001">
        <ele>124.15</ele>
        <time>2019-12-30T09:57:12Z</time>
      </trkpt>
      <trkpt lat="37.9702853970" lon="-8.7277175300">
        <ele>123.67</ele>
        <time>2019-12-30T09:57:21Z</time>
      </trkpt>
      <trkpt lat="37.9703114647" lon="-8.7277758680">
        <ele>122.71</ele>
        <time>2019-12-30T09:57:25Z</time>
      </trkpt>
      <trkpt lat="37.9703662824" lon="-8.7278622855">
        <ele>122.71</ele>
        <time>2019-12-30T09:57:31Z</time>
      </trkpt>
      <trkpt lat="37.9704437312" lon="-8.7280221283">
        <ele>121.74</ele>
        <time>2019-12-30T09:57:43Z</time>
      </trkpt>
      <trkpt lat="37.9704516940" lon="-8.7280735094">
        <ele>121.74</ele>
        <time>2019-12-30T09:57:47Z</time>
      </trkpt>
      <trkpt lat="37.9704726487" lon="-8.7281442527">
        <ele>122.22</ele>
        <time>2019-12-30T09:57:51Z</time>
      </trkpt>
      <trkpt lat="37.9704724811" lon="-8.7281709071">
        <ele>122.22</ele>
        <time>2019-12-30T09:57:53Z</time>
      </trkpt>
      <trkpt lat="37.9704775941" lon="-8.7282324303">
        <ele>123.19</ele>
        <time>2019-12-30T09:57:57Z</time>
      </trkpt>
      <trkpt lat="37.9704914242" lon="-8.7283103820">
        <ele>123.19</ele>
        <time>2019-12-30T09:58:02Z</time>
      </trkpt>
      <trkpt lat="37.9704973754" lon="-8.7283375394">
        <ele>123.67</ele>
        <time>2019-12-30T09:58:04Z</time>
      </trkpt>
      <trkpt lat="37.9705043323" lon="-8.7284165807">
        <ele>123.67</ele>
        <time>2019-12-30T09:58:09Z</time>
      </trkpt>
      <trkpt lat="37.9705166537" lon="-8.7286172435">
        <ele>123.19</ele>
        <time>2019-12-30T09:58:22Z</time>
      </trkpt>
      <trkpt lat="37.9705396201" lon="-8.7288598157">
        <ele>120.78</ele>
        <time>2019-12-30T09:58:37Z</time>
      </trkpt>
      <trkpt lat="37.9705526959" lon="-8.7289883103">
        <ele>120.30</ele>
        <time>2019-12-30T09:58:44Z</time>
      </trkpt>
      <trkpt lat="37.9705885705" lon="-8.7291181460">
        <ele>119.82</ele>
        <time>2019-12-30T09:58:53Z</time>
      </trkpt>
      <trkpt lat="37.9706110340" lon="-8.7292501610">
        <ele>119.82</ele>
        <time>2019-12-30T09:59:01Z</time>
      </trkpt>
      <trkpt lat="37.9706174880" lon="-8.7292838562">
        <ele>120.30</ele>
        <time>2019-12-30T09:59:03Z</time>
      </trkpt>
      <trkpt lat="37.9707212560" lon="-8.7295138557">
        <ele>120.78</ele>
        <time>2019-12-30T09:59:18Z</time>
      </trkpt>
      <trkpt lat="37.9707298893" lon="-8.7295239139">
        <ele>120.78</ele>
        <time>2019-12-30T09:59:19Z</time>
      </trkpt>
      <trkpt lat="37.9707739782" lon="-8.7295592856">
        <ele>121.26</ele>
        <time>2019-12-30T09:59:23Z</time>
      </trkpt>
      <trkpt lat="37.9708180670" lon="-8.7296187133">
        <ele>122.22</ele>
        <time>2019-12-30T09:59:28Z</time>
      </trkpt>
      <trkpt lat="37.9709287919" lon="-8.7296724413">
        <ele>123.19</ele>
        <time>2019-12-30T09:59:37Z</time>
      </trkpt>
      <trkpt lat="37.9709653370" lon="-8.7297099922">
        <ele>123.19</ele>
        <time>2019-12-30T09:59:41Z</time>
      </trkpt>
      <trkpt lat="37.9711071588" lon="-8.7297724374">
        <ele>124.63</ele>
        <time>2019-12-30T09:59:52Z</time>
      </trkpt>
      <trkpt lat="37.9712306242" lon="-8.7297862675">
        <ele>125.11</ele>
        <time>2019-12-30T10:00:02Z</time>
      </trkpt>
      <trkpt lat="37.9714151938" lon="-8.7297902070">
        <ele>124.63</ele>
        <time>2019-12-30T10:00:16Z</time>
      </trkpt>
      <trkpt lat="37.9714766331" lon="-8.7297938950">
        <ele>125.11</ele>
        <time>2019-12-30T10:00:21Z</time>
      </trkpt>
      <trkpt lat="37.9715555068" lon="-8.7298169453">
        <ele>125.11</ele>
        <time>2019-12-30T10:00:27Z</time>
      </trkpt>
      <trkpt lat="37.9717332870" lon="-8.7298528198">
        <ele>125.11</ele>
        <time>2019-12-30T10:00:41Z</time>
      </trkpt>
      <trkpt lat="37.9718315229" lon="-8.7298731040">
        <ele>125.59</ele>
        <time>2019-12-30T10:00:49Z</time>
      </trkpt>
      <trkpt lat="37.9720028490" lon="-8.7298691645">
        <ele>125.59</ele>
        <time>2019-12-30T10:01:02Z</time>
      </trkpt>
      <trkpt lat="37.9720559902" lon="-8.7298586033">
        <ele>125.59</ele>
        <time>2019-12-30T10:01:06Z</time>
      </trkpt>
      <trkpt lat="37.9722236283" lon="-8.7298831623">
        <ele>126.07</ele>
        <time>2019-12-30T10:01:19Z</time>
      </trkpt>
      <trkpt lat="37.9723645281" lon="-8.7299269158">
        <ele>126.55</ele>
        <time>2019-12-30T10:01:30Z</time>
      </trkpt>
      <trkpt lat="37.9724304937" lon="-8.7299326155">
        <ele>127.51</ele>
        <time>2019-12-30T10:01:36Z</time>
      </trkpt>
      <trkpt lat="37.9725906719" lon="-8.7299361359">
        <ele>127.51</ele>
        <time>2019-12-30T10:01:48Z</time>
      </trkpt>
      <trkpt lat="37.9727432225" lon="-8.7299146783">
        <ele>127.99</ele>
        <time>2019-12-30T10:02:00Z</time>
      </trkpt>
      <trkpt lat="37.9729427956" lon="-8.7298477069">
        <ele>128.95</ele>
        <time>2019-12-30T10:02:16Z</time>
      </trkpt>
      <trkpt lat="37.9731007107" lon="-8.7297895364">
        <ele>128.47</ele>
        <time>2019-12-30T10:02:30Z</time>
      </trkpt>
      <trkpt lat="37.9732832685" lon="-8.7297394965">
        <ele>126.07</ele>
        <time>2019-12-30T10:02:45Z</time>
      </trkpt>
      <trkpt lat="37.9733057320" lon="-8.7297425140">
        <ele>125.59</ele>
        <time>2019-12-30T10:02:47Z</time>
      </trkpt>
      <trkpt lat="37.9733947478" lon="-8.7297109142">
        <ele>124.15</ele>
        <time>2019-12-30T10:02:54Z</time>
      </trkpt>
      <trkpt lat="37.9735654034" lon="-8.7296278495">
        <ele>122.71</ele>
        <time>2019-12-30T10:03:09Z</time>
      </trkpt>
      <trkpt lat="37.9736893717" lon="-8.7294973433">
        <ele>122.22</ele>
        <time>2019-12-30T10:03:23Z</time>
      </trkpt>
      <trkpt lat="37.9737102427" lon="-8.7294793222">
        <ele>121.74</ele>
        <time>2019-12-30T10:03:25Z</time>
      </trkpt>
      <trkpt lat="37.9737385735" lon="-8.7294456270">
        <ele>121.74</ele>
        <time>2019-12-30T10:03:28Z</time>
      </trkpt>
      <trkpt lat="37.9737995937" lon="-8.7293804996">
        <ele>121.74</ele>
        <time>2019-12-30T10:03:34Z</time>
      </trkpt>
      <trkpt lat="37.9739337880" lon="-8.7292463053">
        <ele>121.26</ele>
        <time>2019-12-30T10:03:47Z</time>
      </trkpt>
      <trkpt lat="37.9739964847" lon="-8.7292151246">
        <ele>121.26</ele>
        <time>2019-12-30T10:03:52Z</time>
      </trkpt>
      <trkpt lat="37.9741765279" lon="-8.7291551102">
        <ele>121.26</ele>
        <time>2019-12-30T10:04:08Z</time>
      </trkpt>
      <trkpt lat="37.9743035976" lon="-8.7291007116">
        <ele>122.22</ele>
        <time>2019-12-30T10:04:18Z</time>
      </trkpt>
      <trkpt lat="37.9744150769" lon="-8.7289664336">
        <ele>122.71</ele>
        <time>2019-12-30T10:04:30Z</time>
      </trkpt>
      <trkpt lat="37.9744394682" lon="-8.7289518490">
        <ele>122.71</ele>
        <time>2019-12-30T10:04:32Z</time>
      </trkpt>
      <trkpt lat="37.9744876642" lon="-8.7288967799">
        <ele>123.19</ele>
        <time>2019-12-30T10:04:37Z</time>
      </trkpt>
      <trkpt lat="37.9745156597" lon="-8.7288615759">
        <ele>123.19</ele>
        <time>2019-12-30T10:04:40Z</time>
      </trkpt>
      <trkpt lat="37.9745910130" lon="-8.7288411241">
        <ele>123.67</ele>
        <time>2019-12-30T10:04:46Z</time>
      </trkpt>
      <trkpt lat="37.9746397119" lon="-8.7288230192">
        <ele>123.67</ele>
        <time>2019-12-30T10:04:50Z</time>
      </trkpt>
      <trkpt lat="37.9746932723" lon="-8.7288334128">
        <ele>124.63</ele>
        <time>2019-12-30T10:04:54Z</time>
      </trkpt>
      <trkpt lat="37.9748588149" lon="-8.7288267072">
        <ele>126.55</ele>
        <time>2019-12-30T10:05:08Z</time>
      </trkpt>
      <trkpt lat="37.9748696275" lon="-8.7288255338">
        <ele>127.03</ele>
        <time>2019-12-30T10:05:09Z</time>
      </trkpt>
      <trkpt lat="37.9750386905" lon="-8.7287941016">
        <ele>128.95</ele>
        <time>2019-12-30T10:05:23Z</time>
      </trkpt>
      <trkpt lat="37.9752277024" lon="-8.7287623342">
        <ele>129.92</ele>
        <time>2019-12-30T10:05:37Z</time>
      </trkpt>
      <trkpt lat="37.9752629902" lon="-8.7287511863">
        <ele>129.92</ele>
        <time>2019-12-30T10:05:40Z</time>
      </trkpt>
      <trkpt lat="37.9754286166" lon="-8.7286832090">
        <ele>131.36</ele>
        <time>2019-12-30T10:05:54Z</time>
      </trkpt>
      <trkpt lat="37.9754697718" lon="-8.7286770064">
        <ele>132.32</ele>
        <time>2019-12-30T10:05:58Z</time>
      </trkpt>
      <trkpt lat="37.9754901398" lon="-8.7286642659">
        <ele>131.84</ele>
        <time>2019-12-30T10:06:00Z</time>
      </trkpt>
      <trkpt lat="37.9755672533" lon="-8.7286386173">
        <ele>132.80</ele>
        <time>2019-12-30T10:06:06Z</time>
      </trkpt>
      <trkpt lat="37.9757436085" lon="-8.7285397109">
        <ele>132.80</ele>
        <time>2019-12-30T10:06:20Z</time>
      </trkpt>
      <trkpt lat="37.9759157728" lon="-8.7284574006">
        <ele>132.80</ele>
        <time>2019-12-30T10:06:35Z</time>
      </trkpt>
      <trkpt lat="37.9759524018" lon="-8.7284409720">
        <ele>132.80</ele>
        <time>2019-12-30T10:06:38Z</time>
      </trkpt>
      <trkpt lat="37.9759859294" lon="-8.7284107134">
        <ele>133.28</ele>
        <time>2019-12-30T10:06:41Z</time>
      </trkpt>
      <trkpt lat="37.9760414176" lon="-8.7283715699">
        <ele>133.28</ele>
        <time>2019-12-30T10:06:46Z</time>
      </trkpt>
      <trkpt lat="37.9761345405" lon="-8.7283043470">
        <ele>133.28</ele>
        <time>2019-12-30T10:06:54Z</time>
      </trkpt>
      <trkpt lat="37.9763145000" lon="-8.7281750981">
        <ele>133.76</ele>
        <time>2019-12-30T10:07:09Z</time>
      </trkpt>
      <trkpt lat="37.9764703196" lon="-8.7280730065">
        <ele>134.24</ele>
        <time>2019-12-30T10:07:22Z</time>
      </trkpt>
      <trkpt lat="37.9764900170" lon="-8.7280503754">
        <ele>134.24</ele>
        <time>2019-12-30T10:07:24Z</time>
      </trkpt>
      <trkpt lat="37.9765484389" lon="-8.7280160934">
        <ele>134.24</ele>
        <time>2019-12-30T10:07:29Z</time>
      </trkpt>
      <trkpt lat="37.9766898416" lon="-8.7279180251">
        <ele>135.20</ele>
        <time>2019-12-30T10:07:42Z</time>
      </trkpt>
      <trkpt lat="37.9767319188" lon="-8.7278860901">
        <ele>135.20</ele>
        <time>2019-12-30T10:07:46Z</time>
      </trkpt>
      <trkpt lat="37.9767548852" lon="-8.7278772891">
        <ele>135.68</ele>
        <time>2019-12-30T10:07:48Z</time>
      </trkpt>
      <trkpt lat="37.9767767619" lon="-8.7278766185">
        <ele>135.20</ele>
        <time>2019-12-30T10:07:50Z</time>
      </trkpt>
      <trkpt lat="37.9768861458" lon="-8.7278090604">
        <ele>135.68</ele>
        <time>2019-12-30T10:08:00Z</time>
      </trkpt>
      <trkpt lat="37.9770035762" lon="-8.7277241517">
        <ele>136.64</ele>
        <time>2019-12-30T10:08:10Z</time>
      </trkpt>
      <trkpt lat="37.9770665243" lon="-8.7276849244">
        <ele>136.64</ele>
        <time>2019-12-30T10:08:15Z</time>
      </trkpt>
      <trkpt lat="37.9772257805" lon="-8.7275845092">
        <ele>137.61</ele>
        <time>2019-12-30T10:08:27Z</time>
      </trkpt>
      <trkpt lat="37.9772533569" lon="-8.7275708467">
        <ele>138.09</ele>
        <time>2019-12-30T10:08:30Z</time>
      </trkpt>
      <trkpt lat="37.9774348252" lon="-8.7275063898">
        <ele>136.64</ele>
        <time>2019-12-30T10:08:45Z</time>
      </trkpt>
      <trkpt lat="37.9776111804" lon="-8.7275110837">
        <ele>135.20</ele>
        <time>2019-12-30T10:08:59Z</time>
      </trkpt>
      <trkpt lat="37.9777741246" lon="-8.7275331281">
        <ele>133.76</ele>
        <time>2019-12-30T10:09:13Z</time>
      </trkpt>
      <trkpt lat="37.9779476300" lon="-8.7275981717">
        <ele>132.32</ele>
        <time>2019-12-30T10:09:27Z</time>
      </trkpt>
      <trkpt lat="37.9780583549" lon="-8.7276755366">
        <ele>131.36</ele>
        <time>2019-12-30T10:09:37Z</time>
      </trkpt>
      <trkpt lat="37.9782762844" lon="-8.7276404165">
        <ele>130.40</ele>
        <time>2019-12-30T10:09:53Z</time>
      </trkpt>
      <trkpt lat="37.9783752747" lon="-8.7275985908">
        <ele>128.95</ele>
        <time>2019-12-30T10:10:00Z</time>
      </trkpt>
      <trkpt lat="37.9784481972" lon="-8.7275532447">
        <ele>127.99</ele>
        <time>2019-12-30T10:10:07Z</time>
      </trkpt>
      <trkpt lat="37.9784993269" lon="-8.7275198009">
        <ele>127.51</ele>
        <time>2019-12-30T10:10:11Z</time>
      </trkpt>
      <trkpt lat="37.9787165858" lon="-8.7274009455">
        <ele>125.59</ele>
        <time>2019-12-30T10:10:28Z</time>
      </trkpt>
      <trkpt lat="37.9788983054" lon="-8.7273029611">
        <ele>123.67</ele>
        <time>2019-12-30T10:10:43Z</time>
      </trkpt>
      <trkpt lat="37.9789687134" lon="-8.7272693496">
        <ele>123.19</ele>
        <time>2019-12-30T10:10:48Z</time>
      </trkpt>
      <trkpt lat="37.9791587312" lon="-8.7271311320">
        <ele>121.74</ele>
        <time>2019-12-30T10:11:05Z</time>
      </trkpt>
      <trkpt lat="37.9792811070" lon="-8.7269903161">
        <ele>120.78</ele>
        <time>2019-12-30T10:11:18Z</time>
      </trkpt>
      <trkpt lat="37.9793718830" lon="-8.7267706264">
        <ele>119.34</ele>
        <time>2019-12-30T10:11:32Z</time>
      </trkpt>
      <trkpt lat="37.9793844558" lon="-8.7266840413">
        <ele>118.38</ele>
        <time>2019-12-30T10:11:37Z</time>
      </trkpt>
      <trkpt lat="37.9794168100" lon="-8.7265459076">
        <ele>118.38</ele>
        <time>2019-12-30T10:11:46Z</time>
      </trkpt>
      <trkpt lat="37.9794497509" lon="-8.7263548002">
        <ele>116.94</ele>
        <time>2019-12-30T10:11:58Z</time>
      </trkpt>
      <trkpt lat="37.9794590548" lon="-8.7263139803">
        <ele>116.94</ele>
        <time>2019-12-30T10:12:01Z</time>
      </trkpt>
      <trkpt lat="37.9795427062" lon="-8.7261940353">
        <ele>115.98</ele>
        <time>2019-12-30T10:12:12Z</time>
      </trkpt>
      <trkpt lat="37.9795487411" lon="-8.7261677999">
        <ele>116.46</ele>
        <time>2019-12-30T10:12:14Z</time>
      </trkpt>
      <trkpt lat="37.9795751441" lon="-8.7261161674">
        <ele>116.94</ele>
        <time>2019-12-30T10:12:18Z</time>
      </trkpt>
      <trkpt lat="37.9796222504" lon="-8.7259736750">
        <ele>117.90</ele>
        <time>2019-12-30T10:12:27Z</time>
      </trkpt>
      <trkpt lat="37.9796245974" lon="-8.7258746848">
        <ele>117.90</ele>
        <time>2019-12-30T10:12:33Z</time>
      </trkpt>
      <trkpt lat="37.9796295427" lon="-8.7258105632">
        <ele>117.90</ele>
        <time>2019-12-30T10:12:37Z</time>
      </trkpt>
      <trkpt lat="37.9796469770" lon="-8.7257305160">
        <ele>118.38</ele>
        <time>2019-12-30T10:12:42Z</time>
      </trkpt>
      <trkpt lat="37.9796539340" lon="-8.7256223895">
        <ele>118.38</ele>
        <time>2019-12-30T10:12:49Z</time>
      </trkpt>
      <trkpt lat="37.9796803370" lon="-8.7255149335">
        <ele>118.86</ele>
        <time>2019-12-30T10:12:56Z</time>
      </trkpt>
      <trkpt lat="37.9797360767" lon="-8.7253358960">
        <ele>118.86</ele>
        <time>2019-12-30T10:13:08Z</time>
      </trkpt>
      <trkpt lat="37.9797606356" lon="-8.7252750434">
        <ele>118.86</ele>
        <time>2019-12-30T10:13:12Z</time>
      </trkpt>
      <trkpt lat="37.9797794111" lon="-8.7250517495">
        <ele>119.34</ele>
        <time>2019-12-30T10:13:26Z</time>
      </trkpt>
      <trkpt lat="37.9797880445" lon="-8.7250045594">
        <ele>119.34</ele>
        <time>2019-12-30T10:13:29Z</time>
      </trkpt>
      <trkpt lat="37.9797888827" lon="-8.7249428686">
        <ele>119.34</ele>
        <time>2019-12-30T10:13:33Z</time>
      </trkpt>
      <trkpt lat="37.9797823448" lon="-8.7248190679">
        <ele>119.82</ele>
        <time>2019-12-30T10:13:41Z</time>
      </trkpt>
      <trkpt lat="37.9797347356" lon="-8.7246571295">
        <ele>119.82</ele>
        <time>2019-12-30T10:13:51Z</time>
      </trkpt>
      <trkpt lat="37.9797641560" lon="-8.7245742325">
        <ele>120.30</ele>
        <time>2019-12-30T10:13:57Z</time>
      </trkpt>
      <trkpt lat="37.9797691014" lon="-8.7244972028">
        <ele>120.30</ele>
        <time>2019-12-30T10:14:02Z</time>
      </trkpt>
      <trkpt lat="37.9797770642" lon="-8.7244372722">
        <ele>120.30</ele>
        <time>2019-12-30T10:14:06Z</time>
      </trkpt>
      <trkpt lat="37.9797959235" lon="-8.7242868170">
        <ele>120.30</ele>
        <time>2019-12-30T10:14:15Z</time>
      </trkpt>
      <trkpt lat="37.9798121005" lon="-8.7242454942">
        <ele>120.30</ele>
        <time>2019-12-30T10:14:18Z</time>
      </trkpt>
      <trkpt lat="37.9797990248" lon="-8.7241444085">
        <ele>120.78</ele>
        <time>2019-12-30T10:14:24Z</time>
      </trkpt>
      <trkpt lat="37.9798130225" lon="-8.7239495292">
        <ele>120.78</ele>
        <time>2019-12-30T10:14:36Z</time>
      </trkpt>
      <trkpt lat="37.9798107594" lon="-8.7238725834">
        <ele>121.74</ele>
        <time>2019-12-30T10:14:41Z</time>
      </trkpt>
      <trkpt lat="37.9798268527" lon="-8.7238068692">
        <ele>121.74</ele>
        <time>2019-12-30T10:14:45Z</time>
      </trkpt>
      <trkpt lat="37.9798390903" lon="-8.7237810530">
        <ele>121.74</ele>
        <time>2019-12-30T10:14:47Z</time>
      </trkpt>
      <trkpt lat="37.9798752163" lon="-8.7236362137">
        <ele>122.71</ele>
        <time>2019-12-30T10:14:56Z</time>
      </trkpt>
      <trkpt lat="37.9799037986" lon="-8.7234582659">
        <ele>122.71</ele>
        <time>2019-12-30T10:15:08Z</time>
      </trkpt>
      <trkpt lat="37.9799302854" lon="-8.7233727705">
        <ele>123.19</ele>
        <time>2019-12-30T10:15:14Z</time>
      </trkpt>
      <trkpt lat="37.9799801577" lon="-8.7231954094">
        <ele>124.15</ele>
        <time>2019-12-30T10:15:26Z</time>
      </trkpt>
      <trkpt lat="37.9799992684" lon="-8.7231413461">
        <ele>124.15</ele>
        <time>2019-12-30T10:15:30Z</time>
      </trkpt>
      <trkpt lat="37.9800042138" lon="-8.7229884602">
        <ele>124.63</ele>
        <time>2019-12-30T10:15:40Z</time>
      </trkpt>
      <trkpt lat="37.9799785651" lon="-8.7227784097">
        <ele>125.11</ele>
        <time>2019-12-30T10:15:53Z</time>
      </trkpt>
      <trkpt lat="37.9799788166" lon="-8.7227468938">
        <ele>125.11</ele>
        <time>2019-12-30T10:15:55Z</time>
      </trkpt>
      <trkpt lat="37.9799647350" lon="-8.7226082571">
        <ele>125.59</ele>
        <time>2019-12-30T10:16:04Z</time>
      </trkpt>
      <trkpt lat="37.9799655732" lon="-8.7225619052">
        <ele>125.59</ele>
        <time>2019-12-30T10:16:07Z</time>
      </trkpt>
      <trkpt lat="37.9799571913" lon="-8.7224692851">
        <ele>126.07</ele>
        <time>2019-12-30T10:16:13Z</time>
      </trkpt>
      <trkpt lat="37.9799667466" lon="-8.7223457359">
        <ele>126.55</ele>
        <time>2019-12-30T10:16:20Z</time>
      </trkpt>
      <trkpt lat="37.9799612984" lon="-8.7222065125">
        <ele>127.03</ele>
        <time>2019-12-30T10:16:29Z</time>
      </trkpt>
      <trkpt lat="37.9799421038" lon="-8.7221333385">
        <ele>127.03</ele>
        <time>2019-12-30T10:16:34Z</time>
      </trkpt>
      <trkpt lat="37.9799273517" lon="-8.7219992280">
        <ele>127.51</ele>
        <time>2019-12-30T10:16:43Z</time>
      </trkpt>
      <trkpt lat="37.9799119290" lon="-8.7219602522">
        <ele>127.51</ele>
        <time>2019-12-30T10:16:45Z</time>
      </trkpt>
      <trkpt lat="37.9799145274" lon="-8.7218912691">
        <ele>127.51</ele>
        <time>2019-12-30T10:16:49Z</time>
      </trkpt>
      <trkpt lat="37.9799369909" lon="-8.7218029238">
        <ele>128.47</ele>
        <time>2019-12-30T10:16:56Z</time>
      </trkpt>
      <trkpt lat="37.9799544252" lon="-8.7218096294">
        <ele>128.47</ele>
        <time>2019-12-30T10:16:58Z</time>
      </trkpt>
      <trkpt lat="37.9800082371" lon="-8.7218582444">
        <ele>128.47</ele>
        <time>2019-12-30T10:17:05Z</time>
      </trkpt>
      <trkpt lat="37.9800856020" lon="-8.7219921872">
        <ele>129.43</ele>
        <time>2019-12-30T10:17:17Z</time>
      </trkpt>
      <trkpt lat="37.9801394138" lon="-8.7220641039">
        <ele>129.92</ele>
        <time>2019-12-30T10:17:23Z</time>
      </trkpt>
      <trkpt lat="37.9802952334" lon="-8.7221350987">
        <ele>130.40</ele>
        <time>2019-12-30T10:17:37Z</time>
      </trkpt>
      <trkpt lat="37.9803410824" lon="-8.7221423071">
        <ele>128.95</ele>
        <time>2019-12-30T10:17:41Z</time>
      </trkpt>
      <trkpt lat="37.9804684874" lon="-8.7221240345">
        <ele>127.03</ele>
        <time>2019-12-30T10:17:51Z</time>
      </trkpt>
      <trkpt lat="37.9805109836" lon="-8.7221193407">
        <ele>127.03</ele>
        <time>2019-12-30T10:17:55Z</time>
      </trkpt>
      <trkpt lat="37.9806368798" lon="-8.7220616732">
        <ele>128.47</ele>
        <time>2019-12-30T10:18:06Z</time>
      </trkpt>
      <trkpt lat="37.9807143286" lon="-8.7219206896">
        <ele>128.47</ele>
        <time>2019-12-30T10:18:17Z</time>
      </trkpt>
      <trkpt lat="37.9807792883" lon="-8.7217877526">
        <ele>128.95</ele>
        <time>2019-12-30T10:18:27Z</time>
      </trkpt>
      <trkpt lat="37.9808378778" lon="-8.7216249760">
        <ele>129.43</ele>
        <time>2019-12-30T10:18:39Z</time>
      </trkpt>
      <trkpt lat="37.9808508698" lon="-8.7215300091">
        <ele>129.92</ele>
        <time>2019-12-30T10:18:45Z</time>
      </trkpt>
      <trkpt lat="37.9808813799" lon="-8.7214664742">
        <ele>130.40</ele>
        <time>2019-12-30T10:18:49Z</time>
      </trkpt>
      <trkpt lat="37.9809387121" lon="-8.7212919630">
        <ele>130.88</ele>
        <time>2019-12-30T10:19:01Z</time>
      </trkpt>
      <trkpt lat="37.9809947871" lon="-8.7211210560">
        <ele>131.84</ele>
        <time>2019-12-30T10:19:13Z</time>
      </trkpt>
      <trkpt lat="37.9810699727" lon="-8.7209824193">
        <ele>132.32</ele>
        <time>2019-12-30T10:19:23Z</time>
      </trkpt>
      <trkpt lat="37.9811040033" lon="-8.7209354807">
        <ele>133.28</ele>
        <time>2019-12-30T10:19:28Z</time>
      </trkpt>
      <trkpt lat="37.9811988026" lon="-8.7208055612">
        <ele>134.24</ele>
        <time>2019-12-30T10:19:39Z</time>
      </trkpt>
      <trkpt lat="37.9812394548" lon="-8.7207595445">
        <ele>135.20</ele>
        <time>2019-12-30T10:19:44Z</time>
      </trkpt>
      <trkpt lat="37.9813440610" lon="-8.7206449639">
        <ele>136.16</ele>
        <time>2019-12-30T10:19:54Z</time>
      </trkpt>
      <trkpt lat="37.9814346693" lon="-8.7205457222">
        <ele>137.61</ele>
        <time>2019-12-30T10:20:04Z</time>
      </trkpt>
      <trkpt lat="37.9814898223" lon="-8.7204717100">
        <ele>137.61</ele>
        <time>2019-12-30T10:20:11Z</time>
      </trkpt>
      <trkpt lat="37.9815049097" lon="-8.7204544432">
        <ele>138.09</ele>
        <time>2019-12-30T10:20:13Z</time>
      </trkpt>
      <trkpt lat="37.9815567099" lon="-8.7203516811">
        <ele>138.57</ele>
        <time>2019-12-30T10:20:21Z</time>
      </trkpt>
      <trkpt lat="37.9815877229" lon="-8.7203205843">
        <ele>138.57</ele>
        <time>2019-12-30T10:20:24Z</time>
      </trkpt>
      <trkpt lat="37.9816059954" lon="-8.7202749867">
        <ele>138.57</ele>
        <time>2019-12-30T10:20:27Z</time>
      </trkpt>
      <trkpt lat="37.9816712905" lon="-8.7201319076">
        <ele>140.01</ele>
        <time>2019-12-30T10:20:39Z</time>
      </trkpt>
      <trkpt lat="37.9816715419" lon="-8.7201141380">
        <ele>139.53</ele>
        <time>2019-12-30T10:20:41Z</time>
      </trkpt>
      <trkpt lat="37.9816870485" lon="-8.7199125532">
        <ele>140.49</ele>
        <time>2019-12-30T10:20:53Z</time>
      </trkpt>
      <trkpt lat="37.9817166366" lon="-8.7198614236">
        <ele>140.49</ele>
        <time>2019-12-30T10:20:57Z</time>
      </trkpt>
      <trkpt lat="37.9817510862" lon="-8.7197414786">
        <ele>140.49</ele>
        <time>2019-12-30T10:21:05Z</time>
      </trkpt>
      <trkpt lat="37.9817684367" lon="-8.7196260598">
        <ele>140.49</ele>
        <time>2019-12-30T10:21:13Z</time>
      </trkpt>
      <trkpt lat="37.9818102624" lon="-8.7194561586">
        <ele>140.01</ele>
        <time>2019-12-30T10:21:24Z</time>
      </trkpt>
      <trkpt lat="37.9818105977" lon="-8.7194273248">
        <ele>140.01</ele>
        <time>2019-12-30T10:21:26Z</time>
      </trkpt>
      <trkpt lat="37.9818524234" lon="-8.7192944717">
        <ele>140.49</ele>
        <time>2019-12-30T10:21:36Z</time>
      </trkpt>
      <trkpt lat="37.9818788264" lon="-8.7192214653">
        <ele>140.49</ele>
        <time>2019-12-30T10:21:41Z</time>
      </trkpt>
      <trkpt lat="37.9819148686" lon="-8.7190966588">
        <ele>140.97</ele>
        <time>2019-12-30T10:21:50Z</time>
      </trkpt>
      <trkpt lat="37.9819178861" lon="-8.7190154381">
        <ele>140.97</ele>
        <time>2019-12-30T10:21:55Z</time>
      </trkpt>
      <trkpt lat="37.9819279443" lon="-8.7189683318">
        <ele>141.45</ele>
        <time>2019-12-30T10:21:58Z</time>
      </trkpt>
      <trkpt lat="37.9819204845" lon="-8.7187932339">
        <ele>142.41</ele>
        <time>2019-12-30T10:22:09Z</time>
      </trkpt>
      <trkpt lat="37.9819299560" lon="-8.7187213171">
        <ele>142.41</ele>
        <time>2019-12-30T10:22:14Z</time>
      </trkpt>
      <trkpt lat="37.9819143657" lon="-8.7185982708">
        <ele>143.85</ele>
        <time>2019-12-30T10:22:23Z</time>
      </trkpt>
      <trkpt lat="37.9819354881" lon="-8.7184293754">
        <ele>145.78</ele>
        <time>2019-12-30T10:22:35Z</time>
      </trkpt>
      <trkpt lat="37.9819530062" lon="-8.7183400244">
        <ele>147.70</ele>
        <time>2019-12-30T10:22:42Z</time>
      </trkpt>
      <trkpt lat="37.9819495697" lon="-8.7182344124">
        <ele>149.14</ele>
        <time>2019-12-30T10:22:49Z</time>
      </trkpt>
      <trkpt lat="37.9819354881" lon="-8.7181769963">
        <ele>149.14</ele>
        <time>2019-12-30T10:22:53Z</time>
      </trkpt>
      <trkpt lat="37.9819431156" lon="-8.7181245256">
        <ele>149.62</ele>
        <time>2019-12-30T10:22:56Z</time>
      </trkpt>
      <trkpt lat="37.9819296207" lon="-8.7180623319">
        <ele>150.10</ele>
        <time>2019-12-30T10:23:00Z</time>
      </trkpt>
      <trkpt lat="37.9818904772" lon="-8.7179393694">
        <ele>150.10</ele>
        <time>2019-12-30T10:23:08Z</time>
      </trkpt>
      <trkpt lat="37.9818748031" lon="-8.7178112101">
        <ele>150.58</ele>
        <time>2019-12-30T10:23:17Z</time>
      </trkpt>
      <trkpt lat="37.9818779882" lon="-8.7177977152">
        <ele>150.58</ele>
        <time>2019-12-30T10:23:18Z</time>
      </trkpt>
      <trkpt lat="37.9818841908" lon="-8.7177729886">
        <ele>150.58</ele>
        <time>2019-12-30T10:23:20Z</time>
      </trkpt>
      <trkpt lat="37.9818759765" lon="-8.7176771834">
        <ele>151.54</ele>
        <time>2019-12-30T10:23:27Z</time>
      </trkpt>
      <trkpt lat="37.9818272777" lon="-8.7176134810">
        <ele>152.03</ele>
        <time>2019-12-30T10:23:40Z</time>
      </trkpt>
      <trkpt lat="37.9818033893" lon="-8.7175733317">
        <ele>152.03</ele>
        <time>2019-12-30T10:23:43Z</time>
      </trkpt>
      <trkpt lat="37.9817483202" lon="-8.7175033428">
        <ele>152.51</ele>
        <time>2019-12-30T10:23:51Z</time>
      </trkpt>
      <trkpt lat="37.9816986155" lon="-8.7174269836">
        <ele>153.47</ele>
        <time>2019-12-30T10:24:01Z</time>
      </trkpt>
      <trkpt lat="37.9816891439" lon="-8.7174260616">
        <ele>153.47</ele>
        <time>2019-12-30T10:24:22Z</time>
      </trkpt>
      <trkpt lat="37.9816891439" lon="-8.7174260616">
        <ele>153.47</ele>
        <time>2019-12-30T10:24:23Z</time>
      </trkpt>
      <trkpt lat="37.9816437978" lon="-8.7174237147">
        <ele>153.95</ele>
        <time>2019-12-30T10:24:35Z</time>
      </trkpt>
      <trkpt lat="37.9816492461" lon="-8.7174206972">
        <ele>152.99</ele>
        <time>2019-12-30T10:24:47Z</time>
      </trkpt>
      <trkpt lat="37.9816492461" lon="-8.7174206972">
        <ele>153.47</ele>
        <time>2019-12-30T10:25:16Z</time>
      </trkpt>
      <trkpt lat="37.9816495813" lon="-8.7174228765">
        <ele>153.47</ele>
        <time>2019-12-30T10:25:48Z</time>
      </trkpt>
      <trkpt lat="37.9816493299" lon="-8.7174212839">
        <ele>153.47</ele>
        <time>2019-12-30T10:26:12Z</time>
      </trkpt>
      <trkpt lat="37.9816515092" lon="-8.7174229603">
        <ele>153.47</ele>
        <time>2019-12-30T10:26:36Z</time>
      </trkpt>
      <trkpt lat="37.9816515092" lon="-8.7174229603">
        <ele>153.47</ele>
        <time>2019-12-30T10:27:00Z</time>
      </trkpt>
      <trkpt lat="37.9816561192" lon="-8.7174235471">
        <ele>153.95</ele>
        <time>2019-12-30T10:27:45Z</time>
      </trkpt>
      <trkpt lat="37.9816680215" lon="-8.7174228765">
        <ele>154.43</ele>
        <time>2019-12-30T10:27:56Z</time>
      </trkpt>
      <trkpt lat="37.9816680215" lon="-8.7174228765">
        <ele>153.95</ele>
        <time>2019-12-30T10:28:12Z</time>
      </trkpt>
      <trkpt lat="37.9816687759" lon="-8.7174212839">
        <ele>154.43</ele>
        <time>2019-12-30T10:28:33Z</time>
      </trkpt>
      <trkpt lat="37.9816601425" lon="-8.7174115609">
        <ele>154.43</ele>
        <time>2019-12-30T10:28:47Z</time>
      </trkpt>
      <trkpt lat="37.9816273693" lon="-8.7173737586">
        <ele>155.39</ele>
        <time>2019-12-30T10:28:58Z</time>
      </trkpt>
      <trkpt lat="37.9815811012" lon="-8.7173219584">
        <ele>156.35</ele>
        <time>2019-12-30T10:29:05Z</time>
      </trkpt>
      <trkpt lat="37.9815225955" lon="-8.7172328588">
        <ele>157.31</ele>
        <time>2019-12-30T10:29:17Z</time>
      </trkpt>
      <trkpt lat="37.9815225955" lon="-8.7172328588">
        <ele>157.79</ele>
        <time>2019-12-30T10:29:18Z</time>
      </trkpt>
      <trkpt lat="37.9814890679" lon="-8.7171938829">
        <ele>158.27</ele>
        <time>2019-12-30T10:29:23Z</time>
      </trkpt>
      <trkpt lat="37.9814719688" lon="-8.7171757780">
        <ele>157.79</ele>
        <time>2019-12-30T10:29:26Z</time>
      </trkpt>
      <trkpt lat="37.9814520199" lon="-8.7171278335">
        <ele>159.24</ele>
        <time>2019-12-30T10:29:35Z</time>
      </trkpt>
      <trkpt lat="37.9814219289" lon="-8.7170359679">
        <ele>160.68</ele>
        <time>2019-12-30T10:29:45Z</time>
      </trkpt>
      <trkpt lat="37.9814049974" lon="-8.7170228921">
        <ele>160.68</ele>
        <time>2019-12-30T10:29:47Z</time>
      </trkpt>
      <trkpt lat="37.9813907482" lon="-8.7169991713">
        <ele>160.68</ele>
        <time>2019-12-30T10:29:49Z</time>
      </trkpt>
      <trkpt lat="37.9813731462" lon="-8.7169691641">
        <ele>161.16</ele>
        <time>2019-12-30T10:29:52Z</time>
      </trkpt>
      <trkpt lat="37.9813045822" lon="-8.7168585230">
        <ele>162.60</ele>
        <time>2019-12-30T10:30:04Z</time>
      </trkpt>
      <trkpt lat="37.9812984634" lon="-8.7168430164">
        <ele>162.60</ele>
        <time>2019-12-30T10:30:06Z</time>
      </trkpt>
      <trkpt lat="37.9812718928" lon="-8.7168064713">
        <ele>163.08</ele>
        <time>2019-12-30T10:30:10Z</time>
      </trkpt>
      <trkpt lat="37.9812573083" lon="-8.7167850137">
        <ele>163.56</ele>
        <time>2019-12-30T10:30:12Z</time>
      </trkpt>
      <trkpt lat="37.9812444001" lon="-8.7167622149">
        <ele>163.56</ele>
        <time>2019-12-30T10:30:14Z</time>
      </trkpt>
      <trkpt lat="37.9812330846" lon="-8.7167391647">
        <ele>164.04</ele>
        <time>2019-12-30T10:30:16Z</time>
      </trkpt>
      <trkpt lat="37.9812047537" lon="-8.7167123426">
        <ele>164.52</ele>
        <time>2019-12-30T10:30:24Z</time>
      </trkpt>
      <trkpt lat="37.9811910074" lon="-8.7166928966">
        <ele>164.52</ele>
        <time>2019-12-30T10:30:26Z</time>
      </trkpt>
      <trkpt lat="37.9811817035" lon="-8.7166734505">
        <ele>164.52</ele>
        <time>2019-12-30T10:30:28Z</time>
      </trkpt>
      <trkpt lat="37.9811710585" lon="-8.7165478896">
        <ele>165.48</ele>
        <time>2019-12-30T10:30:37Z</time>
      </trkpt>
      <trkpt lat="37.9811730701" lon="-8.7164440379">
        <ele>165.96</ele>
        <time>2019-12-30T10:30:44Z</time>
      </trkpt>
      <trkpt lat="37.9811767582" lon="-8.7163645774">
        <ele>165.96</ele>
        <time>2019-12-30T10:30:50Z</time>
      </trkpt>
      <trkpt lat="37.9811586533" lon="-8.7162913196">
        <ele>166.93</ele>
        <time>2019-12-30T10:30:56Z</time>
      </trkpt>
      <trkpt lat="37.9811499361" lon="-8.7162165530">
        <ele>166.93</ele>
        <time>2019-12-30T10:31:01Z</time>
      </trkpt>
      <trkpt lat="37.9811176658" lon="-8.7161004636">
        <ele>167.41</ele>
        <time>2019-12-30T10:31:10Z</time>
      </trkpt>
      <trkpt lat="37.9811134748" lon="-8.7160709593">
        <ele>167.41</ele>
        <time>2019-12-30T10:31:12Z</time>
      </trkpt>
      <trkpt lat="37.9810927715" lon="-8.7158780079">
        <ele>167.89</ele>
        <time>2019-12-30T10:31:25Z</time>
      </trkpt>
      <trkpt lat="37.9810882453" lon="-8.7157908361">
        <ele>167.89</ele>
        <time>2019-12-30T10:31:31Z</time>
      </trkpt>
      <trkpt lat="37.9810909275" lon="-8.7157393713">
        <ele>167.89</ele>
        <time>2019-12-30T10:31:35Z</time>
      </trkpt>
      <trkpt lat="37.9811076075" lon="-8.7156110443">
        <ele>168.37</ele>
        <time>2019-12-30T10:31:44Z</time>
      </trkpt>
      <trkpt lat="37.9811199289" lon="-8.7154802028">
        <ele>168.37</ele>
        <time>2019-12-30T10:31:53Z</time>
      </trkpt>
      <trkpt lat="37.9811196774" lon="-8.7154700607">
        <ele>167.89</ele>
        <time>2019-12-30T10:31:54Z</time>
      </trkpt>
      <trkpt lat="37.9811090324" lon="-8.7153690588">
        <ele>167.41</ele>
        <time>2019-12-30T10:32:01Z</time>
      </trkpt>
      <trkpt lat="37.9811143130" lon="-8.7153376266">
        <ele>167.89</ele>
        <time>2019-12-30T10:32:03Z</time>
      </trkpt>
      <trkpt lat="37.9811202642" lon="-8.7152587529">
        <ele>167.41</ele>
        <time>2019-12-30T10:32:09Z</time>
      </trkpt>
      <trkpt lat="37.9811290652" lon="-8.7150981557">
        <ele>168.37</ele>
        <time>2019-12-30T10:32:20Z</time>
      </trkpt>
      <trkpt lat="37.9811259639" lon="-8.7149135023">
        <ele>167.41</ele>
        <time>2019-12-30T10:32:32Z</time>
      </trkpt>
      <trkpt lat="37.9811094515" lon="-8.7148548290">
        <ele>166.93</ele>
        <time>2019-12-30T10:32:36Z</time>
      </trkpt>
      <trkpt lat="37.9810335953" lon="-8.7146247458">
        <ele>164.52</ele>
        <time>2019-12-30T10:32:52Z</time>
      </trkpt>
      <trkpt lat="37.9810364451" lon="-8.7145659886">
        <ele>163.56</ele>
        <time>2019-12-30T10:32:56Z</time>
      </trkpt>
      <trkpt lat="37.9810206871" lon="-8.7145125121">
        <ele>163.08</ele>
        <time>2019-12-30T10:33:05Z</time>
      </trkpt>
      <trkpt lat="37.9810138978" lon="-8.7144693453">
        <ele>162.12</ele>
        <time>2019-12-30T10:33:08Z</time>
      </trkpt>
      <trkpt lat="37.9810048454" lon="-8.7143998593">
        <ele>160.68</ele>
        <time>2019-12-30T10:33:13Z</time>
      </trkpt>
      <trkpt lat="37.9809873272" lon="-8.7142101768">
        <ele>159.72</ele>
        <time>2019-12-30T10:33:25Z</time>
      </trkpt>
      <trkpt lat="37.9809957091" lon="-8.7140111066">
        <ele>159.24</ele>
        <time>2019-12-30T10:33:38Z</time>
      </trkpt>
      <trkpt lat="37.9809546378" lon="-8.7139025610">
        <ele>159.24</ele>
        <time>2019-12-30T10:33:46Z</time>
      </trkpt>
      <trkpt lat="37.9809133988" lon="-8.7138728052">
        <ele>160.20</ele>
        <time>2019-12-30T10:33:50Z</time>
      </trkpt>
      <trkpt lat="37.9808922764" lon="-8.7138590589">
        <ele>160.20</ele>
        <time>2019-12-30T10:33:52Z</time>
      </trkpt>
      <trkpt lat="37.9808574077" lon="-8.7138728052">
        <ele>161.64</ele>
        <time>2019-12-30T10:33:58Z</time>
      </trkpt>
      <trkpt lat="37.9808253050" lon="-8.7138363440">
        <ele>161.64</ele>
        <time>2019-12-30T10:34:00Z</time>
      </trkpt>
      <trkpt lat="37.9808051884" lon="-8.7138056662">
        <ele>162.60</ele>
        <time>2019-12-30T10:34:03Z</time>
      </trkpt>
      <trkpt lat="37.9807875026" lon="-8.7137881480">
        <ele>163.08</ele>
        <time>2019-12-30T10:34:05Z</time>
      </trkpt>
      <trkpt lat="37.9807701521" lon="-8.7137438077">
        <ele>163.08</ele>
        <time>2019-12-30T10:34:08Z</time>
      </trkpt>
      <trkpt lat="37.9807535559" lon="-8.7136813626">
        <ele>164.04</ele>
        <time>2019-12-30T10:34:12Z</time>
      </trkpt>
      <trkpt lat="37.9806932900" lon="-8.7135535385">
        <ele>165.96</ele>
        <time>2019-12-30T10:34:22Z</time>
      </trkpt>
      <trkpt lat="37.9806757718" lon="-8.7134929374">
        <ele>166.45</ele>
        <time>2019-12-30T10:34:27Z</time>
      </trkpt>
      <trkpt lat="37.9806751851" lon="-8.7134488486">
        <ele>166.93</ele>
        <time>2019-12-30T10:34:30Z</time>
      </trkpt>
      <trkpt lat="37.9806564096" lon="-8.7134035025">
        <ele>166.93</ele>
        <time>2019-12-30T10:34:34Z</time>
      </trkpt>
      <trkpt lat="37.9806416575" lon="-8.7133642752">
        <ele>166.93</ele>
        <time>2019-12-30T10:34:37Z</time>
      </trkpt>
      <trkpt lat="37.9806309287" lon="-8.7132829707">
        <ele>167.41</ele>
        <time>2019-12-30T10:34:43Z</time>
      </trkpt>
      <trkpt lat="37.9806125723" lon="-8.7132473476">
        <ele>167.89</ele>
        <time>2019-12-30T10:34:46Z</time>
      </trkpt>
      <trkpt lat="37.9805654660" lon="-8.7131491955">
        <ele>168.85</ele>
        <time>2019-12-30T10:34:55Z</time>
      </trkpt>
      <trkpt lat="37.9805430025" lon="-8.7130936235">
        <ele>169.81</ele>
        <time>2019-12-30T10:35:01Z</time>
      </trkpt>
      <trkpt lat="37.9804919567" lon="-8.7130007520">
        <ele>171.25</ele>
        <time>2019-12-30T10:35:10Z</time>
      </trkpt>
      <trkpt lat="37.9804567527" lon="-8.7129325233">
        <ele>172.21</ele>
        <time>2019-12-30T10:35:15Z</time>
      </trkpt>
      <trkpt lat="37.9804187827" lon="-8.7128429208">
        <ele>173.17</ele>
        <time>2019-12-30T10:35:21Z</time>
      </trkpt>
      <trkpt lat="37.9803970736" lon="-8.7128052022">
        <ele>174.14</ele>
        <time>2019-12-30T10:35:24Z</time>
      </trkpt>
      <trkpt lat="37.9804026894" lon="-8.7126964051">
        <ele>175.58</ele>
        <time>2019-12-30T10:35:32Z</time>
      </trkpt>
      <trkpt lat="37.9803959839" lon="-8.7125788070">
        <ele>177.02</ele>
        <time>2019-12-30T10:35:41Z</time>
      </trkpt>
      <trkpt lat="37.9803962354" lon="-8.7125524040">
        <ele>177.02</ele>
        <time>2019-12-30T10:35:43Z</time>
      </trkpt>
      <trkpt lat="37.9803819023" lon="-8.7125296053">
        <ele>177.98</ele>
        <time>2019-12-30T10:35:45Z</time>
      </trkpt>
      <trkpt lat="37.9803852551" lon="-8.7125050463">
        <ele>178.46</ele>
        <time>2019-12-30T10:35:47Z</time>
      </trkpt>
      <trkpt lat="37.9804016836" lon="-8.7124655675">
        <ele>179.42</ele>
        <time>2019-12-30T10:35:50Z</time>
      </trkpt>
      <trkpt lat="37.9804062098" lon="-8.7123760488">
        <ele>181.35</ele>
        <time>2019-12-30T10:35:57Z</time>
      </trkpt>
      <trkpt lat="37.9804123286" lon="-8.7123183813">
        <ele>182.79</ele>
        <time>2019-12-30T10:36:02Z</time>
      </trkpt>
      <trkpt lat="37.9804342054" lon="-8.7122690119">
        <ele>183.75</ele>
        <time>2019-12-30T10:36:06Z</time>
      </trkpt>
      <trkpt lat="37.9804380611" lon="-8.7121977657">
        <ele>185.19</ele>
        <time>2019-12-30T10:36:12Z</time>
      </trkpt>
      <trkpt lat="37.9804492928" lon="-8.7121255975">
        <ele>186.15</ele>
        <time>2019-12-30T10:36:17Z</time>
      </trkpt>
      <trkpt lat="37.9804288410" lon="-8.7120908126">
        <ele>187.11</ele>
        <time>2019-12-30T10:36:20Z</time>
      </trkpt>
      <trkpt lat="37.9804197885" lon="-8.7120381743">
        <ele>187.59</ele>
        <time>2019-12-30T10:36:24Z</time>
      </trkpt>
      <trkpt lat="37.9804040305" lon="-8.7119701970">
        <ele>188.08</ele>
        <time>2019-12-30T10:36:29Z</time>
      </trkpt>
      <trkpt lat="37.9803882726" lon="-8.7119283713">
        <ele>188.56</ele>
        <time>2019-12-30T10:36:33Z</time>
      </trkpt>
      <trkpt lat="37.9803860094" lon="-8.7118691951">
        <ele>189.04</ele>
        <time>2019-12-30T10:36:37Z</time>
      </trkpt>
      <trkpt lat="37.9803876858" lon="-8.7118230946">
        <ele>189.52</ele>
        <time>2019-12-30T10:36:40Z</time>
      </trkpt>
      <trkpt lat="37.9803910386" lon="-8.7117686961">
        <ele>190.00</ele>
        <time>2019-12-30T10:36:44Z</time>
      </trkpt>
      <trkpt lat="37.9803791363" lon="-8.7116916664">
        <ele>190.96</ele>
        <time>2019-12-30T10:36:49Z</time>
      </trkpt>
      <trkpt lat="37.9803340416" lon="-8.7115302309">
        <ele>192.88</ele>
        <time>2019-12-30T10:37:00Z</time>
      </trkpt>
      <trkpt lat="37.9803316947" lon="-8.7114942726">
        <ele>193.36</ele>
        <time>2019-12-30T10:37:02Z</time>
      </trkpt>
      <trkpt lat="37.9803130869" lon="-8.7114568893">
        <ele>194.32</ele>
        <time>2019-12-30T10:37:05Z</time>
      </trkpt>
      <trkpt lat="37.9803020228" lon="-8.7114076037">
        <ele>194.32</ele>
        <time>2019-12-30T10:37:09Z</time>
      </trkpt>
      <trkpt lat="37.9802812357" lon="-8.7113762554">
        <ele>194.80</ele>
        <time>2019-12-30T10:37:12Z</time>
      </trkpt>
      <trkpt lat="37.9802638851" lon="-8.7113286462">
        <ele>196.25</ele>
        <time>2019-12-30T10:37:16Z</time>
      </trkpt>
      <trkpt lat="37.9802400805" lon="-8.7112644408">
        <ele>196.73</ele>
        <time>2019-12-30T10:37:21Z</time>
      </trkpt>
      <trkpt lat="37.9802102409" lon="-8.7111668754">
        <ele>197.69</ele>
        <time>2019-12-30T10:37:28Z</time>
      </trkpt>
      <trkpt lat="37.9801934771" lon="-8.7110734172">
        <ele>199.61</ele>
        <time>2019-12-30T10:37:34Z</time>
      </trkpt>
      <trkpt lat="37.9801747017" lon="-8.7110336032">
        <ele>200.09</ele>
        <time>2019-12-30T10:37:37Z</time>
      </trkpt>
      <trkpt lat="37.9801745340" lon="-8.7109037675">
        <ele>202.49</ele>
        <time>2019-12-30T10:37:46Z</time>
      </trkpt>
      <trkpt lat="37.9801437724" lon="-8.7107450981">
        <ele>204.42</ele>
        <time>2019-12-30T10:37:56Z</time>
      </trkpt>
      <trkpt lat="37.9801371507" lon="-8.7107396498">
        <ele>204.42</ele>
        <time>2019-12-30T10:37:57Z</time>
      </trkpt>
      <trkpt lat="37.9800985940" lon="-8.7106255721">
        <ele>206.34</ele>
        <time>2019-12-30T10:38:05Z</time>
      </trkpt>
      <trkpt lat="37.9800765496" lon="-8.7105609477">
        <ele>207.30</ele>
        <time>2019-12-30T10:38:10Z</time>
      </trkpt>
      <trkpt lat="37.9800731968" lon="-8.7105201278">
        <ele>207.30</ele>
        <time>2019-12-30T10:38:13Z</time>
      </trkpt>
      <trkpt lat="37.9800557625" lon="-8.7104603648">
        <ele>208.26</ele>
        <time>2019-12-30T10:38:17Z</time>
      </trkpt>
      <trkpt lat="37.9800352268" lon="-8.7104004342">
        <ele>209.70</ele>
        <time>2019-12-30T10:38:22Z</time>
      </trkpt>
      <trkpt lat="37.9800195526" lon="-8.7103565969">
        <ele>210.19</ele>
        <time>2019-12-30T10:38:25Z</time>
      </trkpt>
      <trkpt lat="37.9799985979" lon="-8.7102944031">
        <ele>210.67</ele>
        <time>2019-12-30T10:38:29Z</time>
      </trkpt>
      <trkpt lat="37.9799684230" lon="-8.7102503143">
        <ele>211.15</ele>
        <time>2019-12-30T10:38:33Z</time>
      </trkpt>
      <trkpt lat="37.9799415171" lon="-8.7102019507">
        <ele>211.63</ele>
        <time>2019-12-30T10:38:37Z</time>
      </trkpt>
      <trkpt lat="37.9798620567" lon="-8.7100982666">
        <ele>211.15</ele>
        <time>2019-12-30T10:38:47Z</time>
      </trkpt>
      <trkpt lat="37.9798059817" lon="-8.7100410182">
        <ele>210.67</ele>
        <time>2019-12-30T10:38:52Z</time>
      </trkpt>
      <trkpt lat="37.9797025491" lon="-8.7098825164">
        <ele>211.15</ele>
        <time>2019-12-30T10:39:04Z</time>
      </trkpt>
      <trkpt lat="37.9796837736" lon="-8.7097624037">
        <ele>211.63</ele>
        <time>2019-12-30T10:39:13Z</time>
      </trkpt>
      <trkpt lat="37.9797226656" lon="-8.7096238509">
        <ele>211.63</ele>
        <time>2019-12-30T10:39:22Z</time>
      </trkpt>
      <trkpt lat="37.9796854500" lon="-8.7095359247">
        <ele>211.63</ele>
        <time>2019-12-30T10:39:28Z</time>
      </trkpt>
      <trkpt lat="37.9796783254" lon="-8.7095030677">
        <ele>211.15</ele>
        <time>2019-12-30T10:39:30Z</time>
      </trkpt>
      <trkpt lat="37.9796209093" lon="-8.7093474157">
        <ele>209.22</ele>
        <time>2019-12-30T10:39:43Z</time>
      </trkpt>
      <trkpt lat="37.9795719590" lon="-8.7092359364">
        <ele>206.82</ele>
        <time>2019-12-30T10:39:51Z</time>
      </trkpt>
      <trkpt lat="37.9795655888" lon="-8.7091353536">
        <ele>205.38</ele>
        <time>2019-12-30T10:39:58Z</time>
      </trkpt>
      <trkpt lat="37.9795870464" lon="-8.7089810427">
        <ele>203.46</ele>
        <time>2019-12-30T10:40:08Z</time>
      </trkpt>
      <trkpt lat="37.9795863759" lon="-8.7089199387">
        <ele>202.49</ele>
        <time>2019-12-30T10:40:12Z</time>
      </trkpt>
      <trkpt lat="37.9796072468" lon="-8.7088433281">
        <ele>201.53</ele>
        <time>2019-12-30T10:40:17Z</time>
      </trkpt>
      <trkpt lat="37.9796024691" lon="-8.7087817211">
        <ele>201.53</ele>
        <time>2019-12-30T10:40:21Z</time>
      </trkpt>
      <trkpt lat="37.9796119407" lon="-8.7086378038">
        <ele>201.53</ele>
        <time>2019-12-30T10:40:30Z</time>
      </trkpt>
      <trkpt lat="37.9796069954" lon="-8.7085860875">
        <ele>201.53</ele>
        <time>2019-12-30T10:40:33Z</time>
      </trkpt>
      <trkpt lat="37.9796512518" lon="-8.7084369734">
        <ele>202.98</ele>
        <time>2019-12-30T10:40:43Z</time>
      </trkpt>
      <trkpt lat="37.9796654172" lon="-8.7083410844">
        <ele>203.94</ele>
        <time>2019-12-30T10:40:50Z</time>
      </trkpt>
      <trkpt lat="37.9797319695" lon="-8.7082379032">
        <ele>205.38</ele>
        <time>2019-12-30T10:40:58Z</time>
      </trkpt>
      <trkpt lat="37.9797684308" lon="-8.7081740331">
        <ele>206.82</ele>
        <time>2019-12-30T10:41:03Z</time>
      </trkpt>
      <trkpt lat="37.9798061494" lon="-8.7081302796">
        <ele>207.30</ele>
        <time>2019-12-30T10:41:07Z</time>
      </trkpt>
      <trkpt lat="37.9798655771" lon="-8.7080602068">
        <ele>209.22</ele>
        <time>2019-12-30T10:41:14Z</time>
      </trkpt>
      <trkpt lat="37.9799286928" lon="-8.7079872005">
        <ele>209.70</ele>
        <time>2019-12-30T10:41:21Z</time>
      </trkpt>
      <trkpt lat="37.9799915571" lon="-8.7078856956">
        <ele>211.63</ele>
        <time>2019-12-30T10:41:31Z</time>
      </trkpt>
      <trkpt lat="37.9799919762" lon="-8.7077949196">
        <ele>213.07</ele>
        <time>2019-12-30T10:41:37Z</time>
      </trkpt>
      <trkpt lat="37.9799428582" lon="-8.7076919898">
        <ele>214.03</ele>
        <time>2019-12-30T10:41:44Z</time>
      </trkpt>
      <trkpt lat="37.9798970092" lon="-8.7076551933">
        <ele>214.51</ele>
        <time>2019-12-30T10:41:48Z</time>
      </trkpt>
      <trkpt lat="37.9798302054" lon="-8.7075830251">
        <ele>215.47</ele>
        <time>2019-12-30T10:41:55Z</time>
      </trkpt>
      <trkpt lat="37.9797823448" lon="-8.7075096834">
        <ele>215.95</ele>
        <time>2019-12-30T10:42:02Z</time>
      </trkpt>
      <trkpt lat="37.9797503259" lon="-8.7074640021">
        <ele>216.91</ele>
        <time>2019-12-30T10:42:06Z</time>
      </trkpt>
      <trkpt lat="37.9797385074" lon="-8.7074381020">
        <ele>216.91</ele>
        <time>2019-12-30T10:42:08Z</time>
      </trkpt>
      <trkpt lat="37.9797354899" lon="-8.7074085139">
        <ele>217.40</ele>
        <time>2019-12-30T10:42:10Z</time>
      </trkpt>
      <trkpt lat="37.9797183909" lon="-8.7073360104">
        <ele>217.40</ele>
        <time>2019-12-30T10:42:15Z</time>
      </trkpt>
      <trkpt lat="37.9797060695" lon="-8.7071795203">
        <ele>219.80</ele>
        <time>2019-12-30T10:42:25Z</time>
      </trkpt>
      <trkpt lat="37.9797050636" lon="-8.7071660254">
        <ele>220.28</ele>
        <time>2019-12-30T10:42:26Z</time>
      </trkpt>
      <trkpt lat="37.9796886351" lon="-8.7070857268">
        <ele>220.28</ele>
        <time>2019-12-30T10:42:32Z</time>
      </trkpt>
      <trkpt lat="37.9796498269" lon="-8.7070021592">
        <ele>221.24</ele>
        <time>2019-12-30T10:42:38Z</time>
      </trkpt>
      <trkpt lat="37.9795822687" lon="-8.7068600859">
        <ele>222.68</ele>
        <time>2019-12-30T10:42:49Z</time>
      </trkpt>
      <trkpt lat="37.9795715399" lon="-8.7068344373">
        <ele>223.16</ele>
        <time>2019-12-30T10:42:51Z</time>
      </trkpt>
      <trkpt lat="37.9794996232" lon="-8.7067613471">
        <ele>224.12</ele>
        <time>2019-12-30T10:42:59Z</time>
      </trkpt>
      <trkpt lat="37.9794479068" lon="-8.7067052722">
        <ele>225.57</ele>
        <time>2019-12-30T10:43:05Z</time>
      </trkpt>
      <trkpt lat="37.9794327356" lon="-8.7066971418">
        <ele>225.57</ele>
        <time>2019-12-30T10:43:12Z</time>
      </trkpt>
      <trkpt lat="37.9794162232" lon="-8.7066798750">
        <ele>225.57</ele>
        <time>2019-12-30T10:43:18Z</time>
      </trkpt>
      <trkpt lat="37.9793934245" lon="-8.7066444196">
        <ele>226.05</ele>
        <time>2019-12-30T10:43:21Z</time>
      </trkpt>
      <trkpt lat="37.9793572985" lon="-8.7066029292">
        <ele>226.53</ele>
        <time>2019-12-30T10:43:35Z</time>
      </trkpt>
      <trkpt lat="37.9792968649" lon="-8.7065211218">
        <ele>226.53</ele>
        <time>2019-12-30T10:43:42Z</time>
      </trkpt>
      <trkpt lat="37.9792287201" lon="-8.7064439245">
        <ele>226.53</ele>
        <time>2019-12-30T10:43:49Z</time>
      </trkpt>
      <trkpt lat="37.9792077653" lon="-8.7064267416">
        <ele>226.05</ele>
        <time>2019-12-30T10:43:51Z</time>
      </trkpt>
      <trkpt lat="37.9791234434" lon="-8.7063254043">
        <ele>225.57</ele>
        <time>2019-12-30T10:44:01Z</time>
      </trkpt>
      <trkpt lat="37.9791113734" lon="-8.7063023541">
        <ele>225.09</ele>
        <time>2019-12-30T10:44:03Z</time>
      </trkpt>
      <trkpt lat="37.9790459946" lon="-8.7061334588">
        <ele>225.09</ele>
        <time>2019-12-30T10:44:14Z</time>
      </trkpt>
      <trkpt lat="37.9790312424" lon="-8.7060226500">
        <ele>225.09</ele>
        <time>2019-12-30T10:44:21Z</time>
      </trkpt>
      <trkpt lat="37.9790092818" lon="-8.7059775554">
        <ele>225.57</ele>
        <time>2019-12-30T10:44:24Z</time>
      </trkpt>
      <trkpt lat="37.9789883271" lon="-8.7058954965">
        <ele>226.05</ele>
        <time>2019-12-30T10:44:29Z</time>
      </trkpt>
      <trkpt lat="37.9789823759" lon="-8.7058060616">
        <ele>226.53</ele>
        <time>2019-12-30T10:44:35Z</time>
      </trkpt>
      <trkpt lat="37.9789077770" lon="-8.7056592945">
        <ele>227.01</ele>
        <time>2019-12-30T10:44:46Z</time>
      </trkpt>
      <trkpt lat="37.9788957909" lon="-8.7056317180">
        <ele>227.49</ele>
        <time>2019-12-30T10:44:48Z</time>
      </trkpt>
      <trkpt lat="37.9788697232" lon="-8.7055700272">
        <ele>227.97</ele>
        <time>2019-12-30T10:44:52Z</time>
      </trkpt>
      <trkpt lat="37.9788449127" lon="-8.7055458874">
        <ele>228.93</ele>
        <time>2019-12-30T10:44:54Z</time>
      </trkpt>
      <trkpt lat="37.9788010754" lon="-8.7054815982">
        <ele>229.41</ele>
        <time>2019-12-30T10:44:59Z</time>
      </trkpt>
      <trkpt lat="37.9787563160" lon="-8.7054067478">
        <ele>229.89</ele>
        <time>2019-12-30T10:45:05Z</time>
      </trkpt>
      <trkpt lat="37.9787486047" lon="-8.7053542770">
        <ele>231.33</ele>
        <time>2019-12-30T10:45:09Z</time>
      </trkpt>
      <trkpt lat="37.9787260573" lon="-8.7052930053">
        <ele>231.33</ele>
        <time>2019-12-30T10:45:13Z</time>
      </trkpt>
      <trkpt lat="37.9787128977" lon="-8.7052312307">
        <ele>231.33</ele>
        <time>2019-12-30T10:45:17Z</time>
      </trkpt>
      <trkpt lat="37.9786940385" lon="-8.7050548755">
        <ele>232.30</ele>
        <time>2019-12-30T10:45:28Z</time>
      </trkpt>
      <trkpt lat="37.9786634445" lon="-8.7048618402">
        <ele>233.26</ele>
        <time>2019-12-30T10:45:40Z</time>
      </trkpt>
      <trkpt lat="37.9787010793" lon="-8.7047418952">
        <ele>234.22</ele>
        <time>2019-12-30T10:45:48Z</time>
      </trkpt>
      <trkpt lat="37.9786963016" lon="-8.7046781089">
        <ele>234.22</ele>
        <time>2019-12-30T10:45:52Z</time>
      </trkpt>
      <trkpt lat="37.9787075333" lon="-8.7045508716">
        <ele>234.70</ele>
        <time>2019-12-30T10:46:00Z</time>
      </trkpt>
      <trkpt lat="37.9787257221" lon="-8.7044575810">
        <ele>235.18</ele>
        <time>2019-12-30T10:46:06Z</time>
      </trkpt>
      <trkpt lat="37.9787357803" lon="-8.7044222094">
        <ele>235.18</ele>
        <time>2019-12-30T10:46:08Z</time>
      </trkpt>
      <trkpt lat="37.9787945375" lon="-8.7043149211">
        <ele>235.66</ele>
        <time>2019-12-30T10:46:15Z</time>
      </trkpt>
      <trkpt lat="37.9788069427" lon="-8.7042818964">
        <ele>236.14</ele>
        <time>2019-12-30T10:46:17Z</time>
      </trkpt>
      <trkpt lat="37.9787963815" lon="-8.7041071337">
        <ele>236.62</ele>
        <time>2019-12-30T10:46:28Z</time>
      </trkpt>
      <trkpt lat="37.9788107146" lon="-8.7040757015">
        <ele>237.10</ele>
        <time>2019-12-30T10:46:30Z</time>
      </trkpt>
      <trkpt lat="37.9788320046" lon="-8.7039938103">
        <ele>237.58</ele>
        <time>2019-12-30T10:46:35Z</time>
      </trkpt>
      <trkpt lat="37.9788397159" lon="-8.7038455345">
        <ele>238.06</ele>
        <time>2019-12-30T10:46:45Z</time>
      </trkpt>
      <trkpt lat="37.9788609222" lon="-8.7037424371">
        <ele>238.54</ele>
        <time>2019-12-30T10:46:51Z</time>
      </trkpt>
      <trkpt lat="37.9788664542" lon="-8.7037115917">
        <ele>238.54</ele>
        <time>2019-12-30T10:46:53Z</time>
      </trkpt>
      <trkpt lat="37.9788691364" lon="-8.7036298681">
        <ele>238.54</ele>
        <time>2019-12-30T10:46:58Z</time>
      </trkpt>
      <trkpt lat="37.9788367823" lon="-8.7035507429">
        <ele>239.51</ele>
        <time>2019-12-30T10:47:03Z</time>
      </trkpt>
      <trkpt lat="37.9788068589" lon="-8.7035157904">
        <ele>239.99</ele>
        <time>2019-12-30T10:47:06Z</time>
      </trkpt>
      <trkpt lat="37.9787733313" lon="-8.7034594640">
        <ele>239.99</ele>
        <time>2019-12-30T10:47:10Z</time>
      </trkpt>
      <trkpt lat="37.9787507840" lon="-8.7033870444">
        <ele>240.95</ele>
        <time>2019-12-30T10:47:15Z</time>
      </trkpt>
      <trkpt lat="37.9787318408" lon="-8.7033401057">
        <ele>241.43</ele>
        <time>2019-12-30T10:47:19Z</time>
      </trkpt>
      <trkpt lat="37.9786880035" lon="-8.7032315601">
        <ele>242.87</ele>
        <time>2019-12-30T10:47:26Z</time>
      </trkpt>
      <trkpt lat="37.9787000734" lon="-8.7031857949">
        <ele>243.35</ele>
        <time>2019-12-30T10:47:29Z</time>
      </trkpt>
      <trkpt lat="37.9787321761" lon="-8.7031029817">
        <ele>244.31</ele>
        <time>2019-12-30T10:47:34Z</time>
      </trkpt>
      <trkpt lat="37.9787417315" lon="-8.7029758282">
        <ele>244.79</ele>
        <time>2019-12-30T10:47:43Z</time>
      </trkpt>
      <trkpt lat="37.9787431564" lon="-8.7029437255">
        <ele>245.27</ele>
        <time>2019-12-30T10:47:45Z</time>
      </trkpt>
      <trkpt lat="37.9787201062" lon="-8.7029153109">
        <ele>246.23</ele>
        <time>2019-12-30T10:47:47Z</time>
      </trkpt>
      <trkpt lat="37.9787295777" lon="-8.7028281391">
        <ele>245.75</ele>
        <time>2019-12-30T10:47:53Z</time>
      </trkpt>
      <trkpt lat="37.9787717387" lon="-8.7027416378">
        <ele>247.20</ele>
        <time>2019-12-30T10:47:59Z</time>
      </trkpt>
      <trkpt lat="37.9788001534" lon="-8.7026195135">
        <ele>248.64</ele>
        <time>2019-12-30T10:48:07Z</time>
      </trkpt>
      <trkpt lat="37.9788043443" lon="-8.7025232054">
        <ele>249.60</ele>
        <time>2019-12-30T10:48:13Z</time>
      </trkpt>
      <trkpt lat="37.9788144026" lon="-8.7024755962">
        <ele>250.08</ele>
        <time>2019-12-30T10:48:16Z</time>
      </trkpt>
      <trkpt lat="37.9788053501" lon="-8.7024225388">
        <ele>251.04</ele>
        <time>2019-12-30T10:48:20Z</time>
      </trkpt>
      <trkpt lat="37.9787947051" lon="-8.7023812998">
        <ele>251.52</ele>
        <time>2019-12-30T10:48:23Z</time>
      </trkpt>
      <trkpt lat="37.9787860718" lon="-8.7023080420">
        <ele>252.48</ele>
        <time>2019-12-30T10:48:28Z</time>
      </trkpt>
      <trkpt lat="37.9787793662" lon="-8.7021787930">
        <ele>253.44</ele>
        <time>2019-12-30T10:48:37Z</time>
      </trkpt>
      <trkpt lat="37.9787755106" lon="-8.7021352071">
        <ele>253.44</ele>
        <time>2019-12-30T10:48:40Z</time>
      </trkpt>
      <trkpt lat="37.9787567351" lon="-8.7020085566">
        <ele>253.93</ele>
        <time>2019-12-30T10:48:49Z</time>
      </trkpt>
      <trkpt lat="37.9787320923" lon="-8.7019130867">
        <ele>253.93</ele>
        <time>2019-12-30T10:48:55Z</time>
      </trkpt>
      <trkpt lat="37.9787119757" lon="-8.7018053792">
        <ele>253.93</ele>
        <time>2019-12-30T10:49:01Z</time>
      </trkpt>
      <trkpt lat="37.9786808789" lon="-8.7016822491">
        <ele>253.93</ele>
        <time>2019-12-30T10:49:09Z</time>
      </trkpt>
      <trkpt lat="37.9786605109" lon="-8.7016041297">
        <ele>253.93</ele>
        <time>2019-12-30T10:49:14Z</time>
      </trkpt>
      <trkpt lat="37.9786335211" lon="-8.7015149463">
        <ele>253.44</ele>
        <time>2019-12-30T10:49:20Z</time>
      </trkpt>
      <trkpt lat="37.9786163382" lon="-8.7014730368">
        <ele>252.96</ele>
        <time>2019-12-30T10:49:23Z</time>
      </trkpt>
      <trkpt lat="37.9786046874" lon="-8.7013904750">
        <ele>252.48</ele>
        <time>2019-12-30T10:49:29Z</time>
      </trkpt>
      <trkpt lat="37.9785675555" lon="-8.7012901437">
        <ele>252.00</ele>
        <time>2019-12-30T10:49:36Z</time>
      </trkpt>
      <trkpt lat="37.9785429128" lon="-8.7011853699">
        <ele>251.04</ele>
        <time>2019-12-30T10:49:44Z</time>
      </trkpt>
      <trkpt lat="37.9785523005" lon="-8.7011389341">
        <ele>251.04</ele>
        <time>2019-12-30T10:49:47Z</time>
      </trkpt>
      <trkpt lat="37.9785467684" lon="-8.7010707054">
        <ele>250.56</ele>
        <time>2019-12-30T10:49:51Z</time>
      </trkpt>
      <trkpt lat="37.9785444215" lon="-8.7010391895">
        <ele>250.56</ele>
        <time>2019-12-30T10:49:53Z</time>
      </trkpt>
      <trkpt lat="37.9785450082" lon="-8.7008430529">
        <ele>250.08</ele>
        <time>2019-12-30T10:50:05Z</time>
      </trkpt>
      <trkpt lat="37.9785483610" lon="-8.7007965334">
        <ele>250.08</ele>
        <time>2019-12-30T10:50:08Z</time>
      </trkpt>
      <trkpt lat="37.9785337765" lon="-8.7006661948">
        <ele>249.12</ele>
        <time>2019-12-30T10:50:17Z</time>
      </trkpt>
      <trkpt lat="37.9785434157" lon="-8.7006108742">
        <ele>248.16</ele>
        <time>2019-12-30T10:50:21Z</time>
      </trkpt>
      <trkpt lat="37.9785398114" lon="-8.7005651928">
        <ele>248.16</ele>
        <time>2019-12-30T10:50:24Z</time>
      </trkpt>
      <trkpt lat="37.9785494506" lon="-8.7004888337">
        <ele>247.68</ele>
        <time>2019-12-30T10:50:29Z</time>
      </trkpt>
      <trkpt lat="37.9785399791" lon="-8.7004292384">
        <ele>246.72</ele>
        <time>2019-12-30T10:50:37Z</time>
      </trkpt>
      <trkpt lat="37.9785336927" lon="-8.7004020810">
        <ele>246.72</ele>
        <time>2019-12-30T10:50:39Z</time>
      </trkpt>
      <trkpt lat="37.9784667213" lon="-8.7002415676">
        <ele>245.75</ele>
        <time>2019-12-30T10:50:51Z</time>
      </trkpt>
      <trkpt lat="37.9784590099" lon="-8.7002182659">
        <ele>245.75</ele>
        <time>2019-12-30T10:50:58Z</time>
      </trkpt>
      <trkpt lat="37.9784429166" lon="-8.7001786195">
        <ele>245.75</ele>
        <time>2019-12-30T10:51:01Z</time>
      </trkpt>
      <trkpt lat="37.9784073774" lon="-8.7000683136">
        <ele>244.79</ele>
        <time>2019-12-30T10:51:09Z</time>
      </trkpt>
      <trkpt lat="37.9784312658" lon="-8.6999782920">
        <ele>244.31</ele>
        <time>2019-12-30T10:51:21Z</time>
      </trkpt>
      <trkpt lat="37.9784273263" lon="-8.6999308504">
        <ele>244.31</ele>
        <time>2019-12-30T10:51:33Z</time>
      </trkpt>
      <trkpt lat="37.9784290865" lon="-8.6998895276">
        <ele>243.83</ele>
        <time>2019-12-30T10:51:36Z</time>
      </trkpt>
      <trkpt lat="37.9784297571" lon="-8.6998446845">
        <ele>243.35</ele>
        <time>2019-12-30T10:51:39Z</time>
      </trkpt>
      <trkpt lat="37.9783923738" lon="-8.6997177824">
        <ele>242.87</ele>
        <time>2019-12-30T10:51:53Z</time>
      </trkpt>
      <trkpt lat="37.9783836566" lon="-8.6996772140">
        <ele>241.91</ele>
        <time>2019-12-30T10:51:57Z</time>
      </trkpt>
      <trkpt lat="37.9783378076" lon="-8.6995962448">
        <ele>241.91</ele>
        <time>2019-12-30T10:52:04Z</time>
      </trkpt>
      <trkpt lat="37.9781991709" lon="-8.6994521599">
        <ele>240.47</ele>
        <time>2019-12-30T10:52:17Z</time>
      </trkpt>
      <trkpt lat="37.9781694151" lon="-8.6993519962">
        <ele>240.47</ele>
        <time>2019-12-30T10:52:25Z</time>
      </trkpt>
      <trkpt lat="37.9781687446" lon="-8.6992375832">
        <ele>240.47</ele>
        <time>2019-12-30T10:52:33Z</time>
      </trkpt>
      <trkpt lat="37.9782076366" lon="-8.6991654988">
        <ele>240.95</ele>
        <time>2019-12-30T10:52:39Z</time>
      </trkpt>
      <trkpt lat="37.9782606103" lon="-8.6990998685">
        <ele>240.95</ele>
        <time>2019-12-30T10:52:52Z</time>
      </trkpt>
      <trkpt lat="37.9782625381" lon="-8.6990959290">
        <ele>240.95</ele>
        <time>2019-12-30T10:52:59Z</time>
      </trkpt>
      <trkpt lat="37.9783434235" lon="-8.6989608128">
        <ele>241.43</ele>
        <time>2019-12-30T10:53:12Z</time>
      </trkpt>
      <trkpt lat="37.9783635400" lon="-8.6989380140">
        <ele>241.91</ele>
        <time>2019-12-30T10:53:24Z</time>
      </trkpt>
      <trkpt lat="37.9784200341" lon="-8.6988328211">
        <ele>241.91</ele>
        <time>2019-12-30T10:53:32Z</time>
      </trkpt>
      <trkpt lat="37.9784593452" lon="-8.6987710465">
        <ele>242.39</ele>
        <time>2019-12-30T10:53:37Z</time>
      </trkpt>
      <trkpt lat="37.9784816410" lon="-8.6987536959">
        <ele>242.87</ele>
        <time>2019-12-30T10:53:40Z</time>
      </trkpt>
      <trkpt lat="37.9785470199" lon="-8.6986920051">
        <ele>242.87</ele>
        <time>2019-12-30T10:53:47Z</time>
      </trkpt>
      <trkpt lat="37.9786133207" lon="-8.6985982116">
        <ele>243.83</ele>
        <time>2019-12-30T10:53:55Z</time>
      </trkpt>
      <trkpt lat="37.9786719102" lon="-8.6985039990">
        <ele>244.31</ele>
        <time>2019-12-30T10:54:09Z</time>
      </trkpt>
      <trkpt lat="37.9786719102" lon="-8.6985039990">
        <ele>244.79</ele>
        <time>2019-12-30T10:54:16Z</time>
      </trkpt>
      <trkpt lat="37.9786980618" lon="-8.6984941922">
        <ele>244.31</ele>
        <time>2019-12-30T10:54:18Z</time>
      </trkpt>
      <trkpt lat="37.9787633568" lon="-8.6984729022">
        <ele>244.31</ele>
        <time>2019-12-30T10:54:23Z</time>
      </trkpt>
      <trkpt lat="37.9788456671" lon="-8.6984645203">
        <ele>244.79</ele>
        <time>2019-12-30T10:54:29Z</time>
      </trkpt>
      <trkpt lat="37.9788725730" lon="-8.6984587368">
        <ele>244.31</ele>
        <time>2019-12-30T10:54:31Z</time>
      </trkpt>
      <trkpt lat="37.9789879918" lon="-8.6984506063">
        <ele>244.79</ele>
        <time>2019-12-30T10:54:42Z</time>
      </trkpt>
      <trkpt lat="37.9790583998" lon="-8.6984443199">
        <ele>245.27</ele>
        <time>2019-12-30T10:54:49Z</time>
      </trkpt>
      <trkpt lat="37.9791417997" lon="-8.6984663643">
        <ele>245.27</ele>
        <time>2019-12-30T10:55:00Z</time>
      </trkpt>
      <trkpt lat="37.9791538697" lon="-8.6984694656">
        <ele>245.27</ele>
        <time>2019-12-30T10:55:01Z</time>
      </trkpt>
      <trkpt lat="37.9791975394" lon="-8.6984869000">
        <ele>245.27</ele>
        <time>2019-12-30T10:55:05Z</time>
      </trkpt>
      <trkpt lat="37.9792148061" lon="-8.6985195056">
        <ele>245.27</ele>
        <time>2019-12-30T10:55:18Z</time>
      </trkpt>
      <trkpt lat="37.9792148061" lon="-8.6985195056">
        <ele>244.79</ele>
        <time>2019-12-30T10:55:37Z</time>
      </trkpt>
      <trkpt lat="37.9792366829" lon="-8.6985212658">
        <ele>244.79</ele>
        <time>2019-12-30T10:55:40Z</time>
      </trkpt>
      <trkpt lat="37.9792777542" lon="-8.6985280551">
        <ele>245.27</ele>
        <time>2019-12-30T10:55:47Z</time>
      </trkpt>
      <trkpt lat="37.9792687856" lon="-8.6985287257">
        <ele>245.27</ele>
        <time>2019-12-30T10:55:59Z</time>
      </trkpt>
      <trkpt lat="37.9792778380" lon="-8.6985277198">
        <ele>245.27</ele>
        <time>2019-12-30T10:56:00Z</time>
      </trkpt>
      <trkpt lat="37.9794574622" lon="-8.6986229382">
        <ele>244.79</ele>
        <time>2019-12-30T10:56:14Z</time>
      </trkpt>
      <trkpt lat="37.9795523454" lon="-8.6986498442">
        <ele>244.79</ele>
        <time>2019-12-30T10:56:22Z</time>
      </trkpt>
      <trkpt lat="37.9795857053" lon="-8.6986674462">
        <ele>244.79</ele>
        <time>2019-12-30T10:56:25Z</time>
      </trkpt>
      <trkpt lat="37.9797797464" lon="-8.6987550370">
        <ele>243.83</ele>
        <time>2019-12-30T10:56:41Z</time>
      </trkpt>
      <trkpt lat="37.9799267650" lon="-8.6988198292">
        <ele>243.35</ele>
        <time>2019-12-30T10:56:53Z</time>
      </trkpt>
      <trkpt lat="37.9799939878" lon="-8.6988355871">
        <ele>243.35</ele>
        <time>2019-12-30T10:57:03Z</time>
      </trkpt>
      <trkpt lat="37.9799975920" lon="-8.6988414545">
        <ele>242.39</ele>
        <time>2019-12-30T10:57:16Z</time>
      </trkpt>
      <trkpt lat="37.9800068960" lon="-8.6988338269">
        <ele>243.35</ele>
        <time>2019-12-30T10:57:45Z</time>
      </trkpt>
      <trkpt lat="37.9800145235" lon="-8.6988327373">
        <ele>243.83</ele>
        <time>2019-12-30T10:57:47Z</time>
      </trkpt>
      <trkpt lat="37.9800782260" lon="-8.6988474894">
        <ele>243.83</ele>
        <time>2019-12-30T10:57:52Z</time>
      </trkpt>
      <trkpt lat="37.9801964946" lon="-8.6988993734">
        <ele>244.31</ele>
        <time>2019-12-30T10:58:04Z</time>
      </trkpt>
      <trkpt lat="37.9801947344" lon="-8.6988978647">
        <ele>244.31</ele>
        <time>2019-12-30T10:58:09Z</time>
      </trkpt>
      <trkpt lat="37.9802326206" lon="-8.6989065818">
        <ele>244.31</ele>
        <time>2019-12-30T10:58:13Z</time>
      </trkpt>
      <trkpt lat="37.9802713450" lon="-8.6989204958">
        <ele>244.31</ele>
        <time>2019-12-30T10:58:17Z</time>
      </trkpt>
      <trkpt lat="37.9804388154" lon="-8.6989807617">
        <ele>245.27</ele>
        <time>2019-12-30T10:58:30Z</time>
      </trkpt>
      <trkpt lat="37.9804923758" lon="-8.6989986990">
        <ele>245.75</ele>
        <time>2019-12-30T10:58:34Z</time>
      </trkpt>
      <trkpt lat="37.9805938806" lon="-8.6990422849">
        <ele>245.75</ele>
        <time>2019-12-30T10:58:42Z</time>
      </trkpt>
      <trkpt lat="37.9806157574" lon="-8.6990462244">
        <ele>245.75</ele>
        <time>2019-12-30T10:58:44Z</time>
      </trkpt>
      <trkpt lat="37.9806613550" lon="-8.6990718730">
        <ele>245.75</ele>
        <time>2019-12-30T10:58:48Z</time>
      </trkpt>
      <trkpt lat="37.9807568248" lon="-8.6990812607">
        <ele>246.23</ele>
        <time>2019-12-30T10:58:55Z</time>
      </trkpt>
      <trkpt lat="37.9808094632" lon="-8.6990676820">
        <ele>246.23</ele>
        <time>2019-12-30T10:58:59Z</time>
      </trkpt>
      <trkpt lat="37.9809408076" lon="-8.6990307178">
        <ele>247.20</ele>
        <time>2019-12-30T10:59:10Z</time>
      </trkpt>
      <trkpt lat="37.9810416419" lon="-8.6990190670">
        <ele>247.20</ele>
        <time>2019-12-30T10:59:18Z</time>
      </trkpt>
      <trkpt lat="37.9811185040" lon="-8.6990118586">
        <ele>247.20</ele>
        <time>2019-12-30T10:59:24Z</time>
      </trkpt>
      <trkpt lat="37.9811391234" lon="-8.6990171392">
        <ele>247.20</ele>
        <time>2019-12-30T10:59:26Z</time>
      </trkpt>
      <trkpt lat="37.9812994692" lon="-8.6990214139">
        <ele>247.68</ele>
        <time>2019-12-30T10:59:38Z</time>
      </trkpt>
      <trkpt lat="37.9813663568" lon="-8.6989904009">
        <ele>247.68</ele>
        <time>2019-12-30T10:59:46Z</time>
      </trkpt>
      <trkpt lat="37.9813953582" lon="-8.6989647523">
        <ele>247.68</ele>
        <time>2019-12-30T10:59:49Z</time>
      </trkpt>
      <trkpt lat="37.9814294726" lon="-8.6989454739">
        <ele>248.16</ele>
        <time>2019-12-30T10:59:52Z</time>
      </trkpt>
      <trkpt lat="37.9814953543" lon="-8.6989017203">
        <ele>248.16</ele>
        <time>2019-12-30T10:59:57Z</time>
      </trkpt>
      <trkpt lat="37.9815536924" lon="-8.6988678575">
        <ele>248.64</ele>
        <time>2019-12-30T11:00:02Z</time>
      </trkpt>
      <trkpt lat="37.9817204922" lon="-8.6988326535">
        <ele>250.08</ele>
        <time>2019-12-30T11:00:13Z</time>
      </trkpt>
      <trkpt lat="37.9818344023" lon="-8.6988438014">
        <ele>251.04</ele>
        <time>2019-12-30T11:00:22Z</time>
      </trkpt>
      <trkpt lat="37.9818914831" lon="-8.6988634150">
        <ele>251.52</ele>
        <time>2019-12-30T11:00:27Z</time>
      </trkpt>
      <trkpt lat="37.9819198977" lon="-8.6988765746">
        <ele>251.52</ele>
        <time>2019-12-30T11:00:30Z</time>
      </trkpt>
      <trkpt lat="37.9819820914" lon="-8.6988858785">
        <ele>252.00</ele>
        <time>2019-12-30T11:00:35Z</time>
      </trkpt>
      <trkpt lat="37.9820841830" lon="-8.6988465674">
        <ele>252.48</ele>
        <time>2019-12-30T11:00:43Z</time>
      </trkpt>
      <trkpt lat="37.9822255857" lon="-8.6987868045">
        <ele>253.44</ele>
        <time>2019-12-30T11:00:54Z</time>
      </trkpt>
      <trkpt lat="37.9822608735" lon="-8.6987516843">
        <ele>253.44</ele>
        <time>2019-12-30T11:00:58Z</time>
      </trkpt>
      <trkpt lat="37.9823603667" lon="-8.6987263709">
        <ele>253.93</ele>
        <time>2019-12-30T11:01:06Z</time>
      </trkpt>
      <trkpt lat="37.9823967442" lon="-8.6987047456">
        <ele>254.41</ele>
        <time>2019-12-30T11:01:10Z</time>
      </trkpt>
      <trkpt lat="37.9824781325" lon="-8.6986820307">
        <ele>254.89</ele>
        <time>2019-12-30T11:01:17Z</time>
      </trkpt>
      <trkpt lat="37.9826408252" lon="-8.6986467429">
        <ele>255.85</ele>
        <time>2019-12-30T11:01:28Z</time>
      </trkpt>
      <trkpt lat="37.9826821480" lon="-8.6986245308">
        <ele>256.33</ele>
        <time>2019-12-30T11:01:31Z</time>
      </trkpt>
      <trkpt lat="37.9827010073" lon="-8.6986091919">
        <ele>256.81</ele>
        <time>2019-12-30T11:01:33Z</time>
      </trkpt>
      <trkpt lat="37.9828600958" lon="-8.6985865608">
        <ele>257.29</ele>
        <time>2019-12-30T11:01:45Z</time>
      </trkpt>
      <trkpt lat="37.9828872532" lon="-8.6985902488">
        <ele>257.77</ele>
        <time>2019-12-30T11:01:48Z</time>
      </trkpt>
      <trkpt lat="37.9829179309" lon="-8.6985765025">
        <ele>257.77</ele>
        <time>2019-12-30T11:01:51Z</time>
      </trkpt>
      <trkpt lat="37.9829770233" lon="-8.6985468306">
        <ele>257.29</ele>
        <time>2019-12-30T11:01:55Z</time>
      </trkpt>
      <trkpt lat="37.9831414763" lon="-8.6984946113">
        <ele>256.81</ele>
        <time>2019-12-30T11:02:07Z</time>
      </trkpt>
      <trkpt lat="37.9831636883" lon="-8.6984824575">
        <ele>256.81</ele>
        <time>2019-12-30T11:02:09Z</time>
      </trkpt>
      <trkpt lat="37.9832542967" lon="-8.6984317470">
        <ele>256.33</ele>
        <time>2019-12-30T11:02:18Z</time>
      </trkpt>
      <trkpt lat="37.9833278060" lon="-8.6984013207">
        <ele>256.81</ele>
        <time>2019-12-30T11:02:25Z</time>
      </trkpt>
      <trkpt lat="37.9833819531" lon="-8.6983939447">
        <ele>256.33</ele>
        <time>2019-12-30T11:02:30Z</time>
      </trkpt>
      <trkpt lat="37.9835302290" lon="-8.6983618420">
        <ele>257.29</ele>
        <time>2019-12-30T11:02:43Z</time>
      </trkpt>
      <trkpt lat="37.9836112820" lon="-8.6983511131">
        <ele>257.77</ele>
        <time>2019-12-30T11:02:50Z</time>
      </trkpt>
      <trkpt lat="37.9837823566" lon="-8.6983794440">
        <ele>257.77</ele>
        <time>2019-12-30T11:03:03Z</time>
      </trkpt>
      <trkpt lat="37.9838774074" lon="-8.6984035838">
        <ele>258.25</ele>
        <time>2019-12-30T11:03:11Z</time>
      </trkpt>
      <trkpt lat="37.9840405192" lon="-8.6984522827">
        <ele>258.25</ele>
        <time>2019-12-30T11:03:24Z</time>
      </trkpt>
      <trkpt lat="37.9840786569" lon="-8.6984682921">
        <ele>258.25</ele>
        <time>2019-12-30T11:03:28Z</time>
      </trkpt>
      <trkpt lat="37.9841185547" lon="-8.6984886602">
        <ele>258.73</ele>
        <time>2019-12-30T11:03:32Z</time>
      </trkpt>
      <trkpt lat="37.9842248373" lon="-8.6985404603">
        <ele>259.21</ele>
        <time>2019-12-30T11:03:45Z</time>
      </trkpt>
      <trkpt lat="37.9842770565" lon="-8.6985557992">
        <ele>259.21</ele>
        <time>2019-12-30T11:03:50Z</time>
      </trkpt>
      <trkpt lat="37.9843639769" lon="-8.6985851359">
        <ele>258.73</ele>
        <time>2019-12-30T11:03:57Z</time>
      </trkpt>
      <trkpt lat="37.9844929744" lon="-8.6986285541">
        <ele>259.21</ele>
        <time>2019-12-30T11:04:09Z</time>
      </trkpt>
      <trkpt lat="37.9845151026" lon="-8.6986256205">
        <ele>259.21</ele>
        <time>2019-12-30T11:04:11Z</time>
      </trkpt>
      <trkpt lat="37.9845467862" lon="-8.6986237764">
        <ele>259.21</ele>
        <time>2019-12-30T11:04:14Z</time>
      </trkpt>
      <trkpt lat="37.9845575150" lon="-8.6986062583">
        <ele>259.69</ele>
        <time>2019-12-30T11:04:32Z</time>
      </trkpt>
      <trkpt lat="37.9845722672" lon="-8.6986080185">
        <ele>260.17</ele>
        <time>2019-12-30T11:04:38Z</time>
      </trkpt>
      <trkpt lat="37.9846168589" lon="-8.6986105330">
        <ele>260.17</ele>
        <time>2019-12-30T11:04:43Z</time>
      </trkpt>
      <trkpt lat="37.9847461078" lon="-8.6986266263">
        <ele>260.65</ele>
        <time>2019-12-30T11:04:54Z</time>
      </trkpt>
      <trkpt lat="37.9847595189" lon="-8.6986479163">
        <ele>260.17</ele>
        <time>2019-12-30T11:05:10Z</time>
      </trkpt>
      <trkpt lat="37.9847666435" lon="-8.6986493412">
        <ele>260.65</ele>
        <time>2019-12-30T11:05:29Z</time>
      </trkpt>
      <trkpt lat="37.9847985785" lon="-8.6986582261">
        <ele>260.17</ele>
        <time>2019-12-30T11:05:32Z</time>
      </trkpt>
      <trkpt lat="37.9849377181" lon="-8.6986681167">
        <ele>260.17</ele>
        <time>2019-12-30T11:05:45Z</time>
      </trkpt>
      <trkpt lat="37.9850784503" lon="-8.6986616626">
        <ele>260.65</ele>
        <time>2019-12-30T11:05:56Z</time>
      </trkpt>
      <trkpt lat="37.9851811286" lon="-8.6986662727">
        <ele>261.14</ele>
        <time>2019-12-30T11:06:05Z</time>
      </trkpt>
      <trkpt lat="37.9852901772" lon="-8.6986915022">
        <ele>261.62</ele>
        <time>2019-12-30T11:06:14Z</time>
      </trkpt>
      <trkpt lat="37.9853936937" lon="-8.6987237725">
        <ele>261.62</ele>
        <time>2019-12-30T11:06:23Z</time>
      </trkpt>
      <trkpt lat="37.9854164924" lon="-8.6987654306">
        <ele>262.10</ele>
        <time>2019-12-30T11:06:27Z</time>
      </trkpt>
      <trkpt lat="37.9854400456" lon="-8.6988157220">
        <ele>262.10</ele>
        <time>2019-12-30T11:06:31Z</time>
      </trkpt>
      <trkpt lat="37.9854690470" lon="-8.6989478208">
        <ele>262.10</ele>
        <time>2019-12-30T11:06:40Z</time>
      </trkpt>
      <trkpt lat="37.9854911752" lon="-8.6990226712">
        <ele>262.10</ele>
        <time>2019-12-30T11:06:45Z</time>
      </trkpt>
      <trkpt lat="37.9855330009" lon="-8.6991959251">
        <ele>263.06</ele>
        <time>2019-12-30T11:06:57Z</time>
      </trkpt>
      <trkpt lat="37.9855489265" lon="-8.6992176343">
        <ele>263.06</ele>
        <time>2019-12-30T11:06:59Z</time>
      </trkpt>
      <trkpt lat="37.9856074322" lon="-8.6993288621">
        <ele>264.50</ele>
        <time>2019-12-30T11:07:08Z</time>
      </trkpt>
      <trkpt lat="37.9856299795" lon="-8.6993684247">
        <ele>264.50</ele>
        <time>2019-12-30T11:07:11Z</time>
      </trkpt>
      <trkpt lat="37.9857318196" lon="-8.6994629726">
        <ele>266.42</ele>
        <time>2019-12-30T11:07:22Z</time>
      </trkpt>
      <trkpt lat="37.9857711308" lon="-8.6995317880">
        <ele>266.90</ele>
        <time>2019-12-30T11:07:27Z</time>
      </trkpt>
      <trkpt lat="37.9858035687" lon="-8.6996068899">
        <ele>267.86</ele>
        <time>2019-12-30T11:07:33Z</time>
      </trkpt>
      <trkpt lat="37.9858334921" lon="-8.6996701732">
        <ele>268.83</ele>
        <time>2019-12-30T11:07:48Z</time>
      </trkpt>
      <trkpt lat="37.9858334921" lon="-8.6996701732">
        <ele>268.35</ele>
        <time>2019-12-30T11:07:50Z</time>
      </trkpt>
      <trkpt lat="37.9858431313" lon="-8.6996728554">
        <ele>268.35</ele>
        <time>2019-12-30T11:07:52Z</time>
      </trkpt>
      <trkpt lat="37.9858993739" lon="-8.6997012701">
        <ele>268.35</ele>
        <time>2019-12-30T11:07:57Z</time>
      </trkpt>
      <trkpt lat="37.9859301355" lon="-8.6997229792">
        <ele>268.35</ele>
        <time>2019-12-30T11:08:00Z</time>
      </trkpt>
      <trkpt lat="37.9859572090" lon="-8.6997475382">
        <ele>268.83</ele>
        <time>2019-12-30T11:08:15Z</time>
      </trkpt>
      <trkpt lat="37.9859572090" lon="-8.6997475382">
        <ele>269.31</ele>
        <time>2019-12-30T11:08:17Z</time>
      </trkpt>
      <trkpt lat="37.9859937541" lon="-8.6997574288">
        <ele>269.31</ele>
        <time>2019-12-30T11:08:20Z</time>
      </trkpt>
      <trkpt lat="37.9860246833" lon="-8.6997772101">
        <ele>268.83</ele>
        <time>2019-12-30T11:08:23Z</time>
      </trkpt>
      <trkpt lat="37.9860770702" lon="-8.6997833289">
        <ele>268.83</ele>
        <time>2019-12-30T11:08:27Z</time>
      </trkpt>
      <trkpt lat="37.9862100910" lon="-8.6998584308">
        <ele>269.79</ele>
        <time>2019-12-30T11:08:38Z</time>
      </trkpt>
      <trkpt lat="37.9862651601" lon="-8.6998752784">
        <ele>269.79</ele>
        <time>2019-12-30T11:08:43Z</time>
      </trkpt>
      <trkpt lat="37.9862991907" lon="-8.6998921260">
        <ele>270.75</ele>
        <time>2019-12-30T11:08:46Z</time>
      </trkpt>
      <trkpt lat="37.9864057247" lon="-8.6999205407">
        <ele>271.71</ele>
        <time>2019-12-30T11:08:54Z</time>
      </trkpt>
      <trkpt lat="37.9865622986" lon="-8.6999875959">
        <ele>271.23</ele>
        <time>2019-12-30T11:09:07Z</time>
      </trkpt>
      <trkpt lat="37.9866995104" lon="-8.7000487000">
        <ele>272.19</ele>
        <time>2019-12-30T11:09:18Z</time>
      </trkpt>
      <trkpt lat="37.9867265839" lon="-8.7000575010">
        <ele>272.19</ele>
        <time>2019-12-30T11:09:20Z</time>
      </trkpt>
      <trkpt lat="37.9868114088" lon="-8.7000897713">
        <ele>272.19</ele>
        <time>2019-12-30T11:09:27Z</time>
      </trkpt>
      <trkpt lat="37.9869007599" lon="-8.7001175154">
        <ele>272.67</ele>
        <time>2019-12-30T11:09:34Z</time>
      </trkpt>
      <trkpt lat="37.9870142508" lon="-8.7001261488">
        <ele>273.63</ele>
        <time>2019-12-30T11:09:43Z</time>
      </trkpt>
      <trkpt lat="37.9870661348" lon="-8.7001253106">
        <ele>274.59</ele>
        <time>2019-12-30T11:09:48Z</time>
      </trkpt>
      <trkpt lat="37.9870880116" lon="-8.7001241371">
        <ele>274.59</ele>
        <time>2019-12-30T11:09:50Z</time>
      </trkpt>
      <trkpt lat="37.9872392211" lon="-8.7001212034">
        <ele>276.04</ele>
        <time>2019-12-30T11:10:01Z</time>
      </trkpt>
      <trkpt lat="37.9872727487" lon="-8.7001200300">
        <ele>277.00</ele>
        <time>2019-12-30T11:10:04Z</time>
      </trkpt>
      <trkpt lat="37.9873210285" lon="-8.7001025956">
        <ele>277.48</ele>
        <time>2019-12-30T11:10:08Z</time>
      </trkpt>
      <trkpt lat="37.9873978067" lon="-8.7001060322">
        <ele>277.96</ele>
        <time>2019-12-30T11:10:15Z</time>
      </trkpt>
      <trkpt lat="37.9875547998" lon="-8.7000900228">
        <ele>278.92</ele>
        <time>2019-12-30T11:10:27Z</time>
      </trkpt>
      <trkpt lat="37.9876029957" lon="-8.7000843231">
        <ele>278.92</ele>
        <time>2019-12-30T11:10:31Z</time>
      </trkpt>
      <trkpt lat="37.9876918439" lon="-8.7000680622">
        <ele>278.44</ele>
        <time>2019-12-30T11:10:38Z</time>
      </trkpt>
      <trkpt lat="37.9877911694" lon="-8.7000427488">
        <ele>278.44</ele>
        <time>2019-12-30T11:10:46Z</time>
      </trkpt>
      <trkpt lat="37.9879251122" lon="-8.7000318523">
        <ele>277.96</ele>
        <time>2019-12-30T11:10:56Z</time>
      </trkpt>
      <trkpt lat="37.9881075025" lon="-8.6999876797">
        <ele>278.44</ele>
        <time>2019-12-30T11:11:10Z</time>
      </trkpt>
      <trkpt lat="37.9882213287" lon="-8.6999987438">
        <ele>278.92</ele>
        <time>2019-12-30T11:11:19Z</time>
      </trkpt>
      <trkpt lat="37.9882660881" lon="-8.6999779567">
        <ele>279.40</ele>
        <time>2019-12-30T11:11:23Z</time>
      </trkpt>
      <trkpt lat="37.9884313792" lon="-8.6999642104">
        <ele>278.44</ele>
        <time>2019-12-30T11:11:39Z</time>
      </trkpt>
      <trkpt lat="37.9884337261" lon="-8.6999724247">
        <ele>278.44</ele>
        <time>2019-12-30T11:11:51Z</time>
      </trkpt>
      <trkpt lat="37.9884337261" lon="-8.6999724247">
        <ele>278.44</ele>
        <time>2019-12-30T11:12:09Z</time>
      </trkpt>
      <trkpt lat="37.9884823412" lon="-8.6999507993">
        <ele>277.96</ele>
        <time>2019-12-30T11:12:14Z</time>
      </trkpt>
      <trkpt lat="37.9886308685" lon="-8.6998875160">
        <ele>277.48</ele>
        <time>2019-12-30T11:12:27Z</time>
      </trkpt>
      <trkpt lat="37.9887593631" lon="-8.6998406611">
        <ele>277.48</ele>
        <time>2019-12-30T11:12:40Z</time>
      </trkpt>
      <trkpt lat="37.9887777194" lon="-8.6998343747">
        <ele>277.96</ele>
        <time>2019-12-30T11:12:42Z</time>
      </trkpt>
      <trkpt lat="37.9889076389" lon="-8.6998104025">
        <ele>277.48</ele>
        <time>2019-12-30T11:12:53Z</time>
      </trkpt>
      <trkpt lat="37.9889728501" lon="-8.6998031102">
        <ele>277.00</ele>
        <time>2019-12-30T11:12:59Z</time>
      </trkpt>
      <trkpt lat="37.9891174380" lon="-8.6998282559">
        <ele>275.56</ele>
        <time>2019-12-30T11:13:12Z</time>
      </trkpt>
      <trkpt lat="37.9892357904" lon="-8.6999963969">
        <ele>272.19</ele>
        <time>2019-12-30T11:13:26Z</time>
      </trkpt>
      <trkpt lat="37.9893136583" lon="-8.7001592573">
        <ele>270.75</ele>
        <time>2019-12-30T11:13:38Z</time>
      </trkpt>
      <trkpt lat="37.9893422406" lon="-8.7002420705">
        <ele>270.75</ele>
        <time>2019-12-30T11:13:44Z</time>
      </trkpt>
      <trkpt lat="37.9893563222" lon="-8.7002705690">
        <ele>270.27</ele>
        <time>2019-12-30T11:13:46Z</time>
      </trkpt>
      <trkpt lat="37.9894461762" lon="-8.7004290707">
        <ele>269.79</ele>
        <time>2019-12-30T11:13:59Z</time>
      </trkpt>
      <trkpt lat="37.9894655384" lon="-8.7004879117">
        <ele>269.79</ele>
        <time>2019-12-30T11:14:03Z</time>
      </trkpt>
      <trkpt lat="37.9894940369" lon="-8.7005407177">
        <ele>269.31</ele>
        <time>2019-12-30T11:14:07Z</time>
      </trkpt>
      <trkpt lat="37.9896035045" lon="-8.7007741537">
        <ele>268.35</ele>
        <time>2019-12-30T11:14:24Z</time>
      </trkpt>
      <trkpt lat="37.9896915983" lon="-8.7009559572">
        <ele>267.38</ele>
        <time>2019-12-30T11:14:37Z</time>
      </trkpt>
      <trkpt lat="37.9897129722" lon="-8.7010360882">
        <ele>267.86</ele>
        <time>2019-12-30T11:14:42Z</time>
      </trkpt>
      <trkpt lat="37.9897101223" lon="-8.7011327315">
        <ele>267.86</ele>
        <time>2019-12-30T11:14:48Z</time>
      </trkpt>
      <trkpt lat="37.9897134751" lon="-8.7012017984">
        <ele>267.86</ele>
        <time>2019-12-30T11:14:53Z</time>
      </trkpt>
      <trkpt lat="37.9896907602" lon="-8.7014043890">
        <ele>269.31</ele>
        <time>2019-12-30T11:15:06Z</time>
      </trkpt>
      <trkpt lat="37.9896942805" lon="-8.7014773954">
        <ele>269.79</ele>
        <time>2019-12-30T11:15:11Z</time>
      </trkpt>
      <trkpt lat="37.9897196777" lon="-8.7015767209">
        <ele>269.79</ele>
        <time>2019-12-30T11:15:18Z</time>
      </trkpt>
      <trkpt lat="37.9897314962" lon="-8.7016174570">
        <ele>270.27</ele>
        <time>2019-12-30T11:15:21Z</time>
      </trkpt>
      <trkpt lat="37.9898430593" lon="-8.7017401680">
        <ele>269.79</ele>
        <time>2019-12-30T11:15:33Z</time>
      </trkpt>
      <trkpt lat="37.9899946880" lon="-8.7018305250">
        <ele>268.35</ele>
        <time>2019-12-30T11:15:47Z</time>
      </trkpt>
      <trkpt lat="37.9900174867" lon="-8.7018340454">
        <ele>268.35</ele>
        <time>2019-12-30T11:15:49Z</time>
      </trkpt>
      <trkpt lat="37.9900616594" lon="-8.7018601131">
        <ele>268.35</ele>
        <time>2019-12-30T11:15:53Z</time>
      </trkpt>
      <trkpt lat="37.9900879785" lon="-8.7018712610">
        <ele>267.86</ele>
        <time>2019-12-30T11:15:55Z</time>
      </trkpt>
      <trkpt lat="37.9901722167" lon="-8.7018848397">
        <ele>267.38</ele>
        <time>2019-12-30T11:16:02Z</time>
      </trkpt>
      <trkpt lat="37.9902383499" lon="-8.7019054592">
        <ele>266.42</ele>
        <time>2019-12-30T11:16:07Z</time>
      </trkpt>
      <trkpt lat="37.9903765675" lon="-8.7019371428">
        <ele>265.46</ele>
        <time>2019-12-30T11:16:19Z</time>
      </trkpt>
      <trkpt lat="37.9904121067" lon="-8.7019437645">
        <ele>265.46</ele>
        <time>2019-12-30T11:16:22Z</time>
      </trkpt>
      <trkpt lat="37.9905017093" lon="-8.7019773759">
        <ele>264.98</ele>
        <time>2019-12-30T11:16:30Z</time>
      </trkpt>
      <trkpt lat="37.9906571098" lon="-8.7020549085">
        <ele>263.06</ele>
        <time>2019-12-30T11:16:43Z</time>
      </trkpt>
      <trkpt lat="37.9907788150" lon="-8.7021786254">
        <ele>260.65</ele>
        <time>2019-12-30T11:16:55Z</time>
      </trkpt>
      <trkpt lat="37.9908249993" lon="-8.7022141647">
        <ele>259.69</ele>
        <time>2019-12-30T11:16:59Z</time>
      </trkpt>
      <trkpt lat="37.9909220617" lon="-8.7023468502">
        <ele>257.29</ele>
        <time>2019-12-30T11:17:10Z</time>
      </trkpt>
      <trkpt lat="37.9909840878" lon="-8.7025056034">
        <ele>255.37</ele>
        <time>2019-12-30T11:17:20Z</time>
      </trkpt>
      <trkpt lat="37.9910274222" lon="-8.7027269695">
        <ele>252.48</ele>
        <time>2019-12-30T11:17:34Z</time>
      </trkpt>
      <trkpt lat="37.9910368938" lon="-8.7027695496">
        <ele>251.52</ele>
        <time>2019-12-30T11:17:37Z</time>
      </trkpt>
      <trkpt lat="37.9910577647" lon="-8.7028478365">
        <ele>251.52</ele>
        <time>2019-12-30T11:17:42Z</time>
      </trkpt>
      <trkpt lat="37.9911277536" lon="-8.7030719686">
        <ele>248.64</ele>
        <time>2019-12-30T11:17:56Z</time>
      </trkpt>
      <trkpt lat="37.9911337886" lon="-8.7030870561">
        <ele>248.16</ele>
        <time>2019-12-30T11:17:57Z</time>
      </trkpt>
      <trkpt lat="37.9911852535" lon="-8.7032049894">
        <ele>245.75</ele>
        <time>2019-12-30T11:18:06Z</time>
      </trkpt>
      <trkpt lat="37.9912325274" lon="-8.7033079192">
        <ele>244.31</ele>
        <time>2019-12-30T11:18:13Z</time>
      </trkpt>
      <trkpt lat="37.9912984930" lon="-8.7034915667">
        <ele>242.39</ele>
        <time>2019-12-30T11:18:26Z</time>
      </trkpt>
      <trkpt lat="37.9913878441" lon="-8.7036636472">
        <ele>239.51</ele>
        <time>2019-12-30T11:18:38Z</time>
      </trkpt>
      <trkpt lat="37.9914970603" lon="-8.7038272619">
        <ele>237.10</ele>
        <time>2019-12-30T11:18:51Z</time>
      </trkpt>
      <trkpt lat="37.9915859085" lon="-8.7039941456">
        <ele>236.14</ele>
        <time>2019-12-30T11:19:03Z</time>
      </trkpt>
      <trkpt lat="37.9916168377" lon="-8.7040258292">
        <ele>235.66</ele>
        <time>2019-12-30T11:19:06Z</time>
      </trkpt>
      <trkpt lat="37.9917035066" lon="-8.7041149288">
        <ele>234.70</ele>
        <time>2019-12-30T11:19:15Z</time>
      </trkpt>
      <trkpt lat="37.9917738307" lon="-8.7041597720">
        <ele>234.22</ele>
        <time>2019-12-30T11:19:21Z</time>
      </trkpt>
      <trkpt lat="37.9918002337" lon="-8.7041755300">
        <ele>233.74</ele>
        <time>2019-12-30T11:19:23Z</time>
      </trkpt>
      <trkpt lat="37.9918235354" lon="-8.7041776255">
        <ele>233.26</ele>
        <time>2019-12-30T11:19:40Z</time>
      </trkpt>
      <trkpt lat="37.9918235354" lon="-8.7041776255">
        <ele>233.26</ele>
        <time>2019-12-30T11:19:41Z</time>
      </trkpt>
      <trkpt lat="37.9918815382" lon="-8.7042231392">
        <ele>232.78</ele>
        <time>2019-12-30T11:19:47Z</time>
      </trkpt>
      <trkpt lat="37.9919023253" lon="-8.7042504642">
        <ele>232.30</ele>
        <time>2019-12-30T11:19:50Z</time>
      </trkpt>
      <trkpt lat="37.9919440672" lon="-8.7043072097">
        <ele>231.81</ele>
        <time>2019-12-30T11:19:54Z</time>
      </trkpt>
      <trkpt lat="37.9920474999" lon="-8.7044871692">
        <ele>231.33</ele>
        <time>2019-12-30T11:20:08Z</time>
      </trkpt>
      <trkpt lat="37.9920695443" lon="-8.7045746762">
        <ele>230.85</ele>
        <time>2019-12-30T11:20:14Z</time>
      </trkpt>
      <trkpt lat="37.9921050835" lon="-8.7047978025">
        <ele>229.89</ele>
        <time>2019-12-30T11:20:28Z</time>
      </trkpt>
      <trkpt lat="37.9921355937" lon="-8.7048918474">
        <ele>229.41</ele>
        <time>2019-12-30T11:20:34Z</time>
      </trkpt>
      <trkpt lat="37.9921909980" lon="-8.7049746606">
        <ele>228.93</ele>
        <time>2019-12-30T11:20:40Z</time>
      </trkpt>
      <trkpt lat="37.9923376814" lon="-8.7051329948">
        <ele>228.45</ele>
        <time>2019-12-30T11:20:55Z</time>
      </trkpt>
      <trkpt lat="37.9923813511" lon="-8.7051833700">
        <ele>227.97</ele>
        <time>2019-12-30T11:21:00Z</time>
      </trkpt>
      <trkpt lat="37.9924920760" lon="-8.7053064164">
        <ele>227.97</ele>
        <time>2019-12-30T11:21:11Z</time>
      </trkpt>
      <trkpt lat="37.9926216602" lon="-8.7054524291">
        <ele>227.01</ele>
        <time>2019-12-30T11:21:25Z</time>
      </trkpt>
      <trkpt lat="37.9926479794" lon="-8.7054823525">
        <ele>227.01</ele>
        <time>2019-12-30T11:21:28Z</time>
      </trkpt>
      <trkpt lat="37.9927222431" lon="-8.7055743020">
        <ele>227.01</ele>
        <time>2019-12-30T11:21:35Z</time>
      </trkpt>
      <trkpt lat="37.9927439522" lon="-8.7056143675">
        <ele>227.01</ele>
        <time>2019-12-30T11:21:38Z</time>
      </trkpt>
      <trkpt lat="37.9928433616" lon="-8.7057068199">
        <ele>226.53</ele>
        <time>2019-12-30T11:21:47Z</time>
      </trkpt>
      <trkpt lat="37.9929588642" lon="-8.7057846040">
        <ele>226.53</ele>
        <time>2019-12-30T11:21:58Z</time>
      </trkpt>
      <trkpt lat="37.9929707665" lon="-8.7057919800">
        <ele>226.53</ele>
        <time>2019-12-30T11:21:59Z</time>
      </trkpt>
      <trkpt lat="37.9930056352" lon="-8.7058076542">
        <ele>227.01</ele>
        <time>2019-12-30T11:22:02Z</time>
      </trkpt>
      <trkpt lat="37.9930822458" lon="-8.7058624718">
        <ele>227.01</ele>
        <time>2019-12-30T11:22:08Z</time>
      </trkpt>
      <trkpt lat="37.9932544101" lon="-8.7059342209">
        <ele>227.49</ele>
        <time>2019-12-30T11:22:21Z</time>
      </trkpt>
      <trkpt lat="37.9933616985" lon="-8.7059970852">
        <ele>225.09</ele>
        <time>2019-12-30T11:22:31Z</time>
      </trkpt>
      <trkpt lat="37.9934145045" lon="-8.7060324568">
        <ele>225.09</ele>
        <time>2019-12-30T11:22:35Z</time>
      </trkpt>
      <trkpt lat="37.9934693221" lon="-8.7060762104">
        <ele>224.61</ele>
        <time>2019-12-30T11:22:39Z</time>
      </trkpt>
      <trkpt lat="37.9935467709" lon="-8.7061541621">
        <ele>223.64</ele>
        <time>2019-12-30T11:22:47Z</time>
      </trkpt>
      <trkpt lat="37.9936305899" lon="-8.7063243985">
        <ele>222.68</ele>
        <time>2019-12-30T11:23:00Z</time>
      </trkpt>
      <trkpt lat="37.9936550651" lon="-8.7063595187">
        <ele>223.16</ele>
        <time>2019-12-30T11:23:03Z</time>
      </trkpt>
      <trkpt lat="37.9937678017" lon="-8.7065533921">
        <ele>221.24</ele>
        <time>2019-12-30T11:23:18Z</time>
      </trkpt>
      <trkpt lat="37.9938706476" lon="-8.7066490296">
        <ele>220.28</ele>
        <time>2019-12-30T11:23:27Z</time>
      </trkpt>
      <trkpt lat="37.9939151555" lon="-8.7066728342">
        <ele>220.28</ele>
        <time>2019-12-30T11:23:31Z</time>
      </trkpt>
      <trkpt lat="37.9940661974" lon="-8.7066708226">
        <ele>219.80</ele>
        <time>2019-12-30T11:23:43Z</time>
      </trkpt>
      <trkpt lat="37.9942146409" lon="-8.7066903524">
        <ele>217.40</ele>
        <time>2019-12-30T11:23:56Z</time>
      </trkpt>
      <trkpt lat="37.9942685366" lon="-8.7066834792">
        <ele>215.95</ele>
        <time>2019-12-30T11:24:00Z</time>
      </trkpt>
      <trkpt lat="37.9944054130" lon="-8.7066615187">
        <ele>212.59</ele>
        <time>2019-12-30T11:24:12Z</time>
      </trkpt>
      <trkpt lat="37.9944328219" lon="-8.7066551484">
        <ele>212.59</ele>
        <time>2019-12-30T11:24:14Z</time>
      </trkpt>
      <trkpt lat="37.9945495818" lon="-8.7066372950">
        <ele>209.70</ele>
        <time>2019-12-30T11:24:25Z</time>
      </trkpt>
      <trkpt lat="37.9946802557" lon="-8.7066304218">
        <ele>206.82</ele>
        <time>2019-12-30T11:24:36Z</time>
      </trkpt>
      <trkpt lat="37.9947660025" lon="-8.7066366244">
        <ele>206.34</ele>
        <time>2019-12-30T11:24:42Z</time>
      </trkpt>
      <trkpt lat="37.9948043916" lon="-8.7066579983">
        <ele>204.90</ele>
        <time>2019-12-30T11:24:46Z</time>
      </trkpt>
      <trkpt lat="37.9948584549" lon="-8.7066791207">
        <ele>204.42</ele>
        <time>2019-12-30T11:24:51Z</time>
      </trkpt>
      <trkpt lat="37.9950055573" lon="-8.7067407276">
        <ele>202.01</ele>
        <time>2019-12-30T11:25:03Z</time>
      </trkpt>
      <trkpt lat="37.9950629734" lon="-8.7067474332">
        <ele>201.05</ele>
        <time>2019-12-30T11:25:07Z</time>
      </trkpt>
      <trkpt lat="37.9952235706" lon="-8.7067937851">
        <ele>198.65</ele>
        <time>2019-12-30T11:25:20Z</time>
      </trkpt>
      <trkpt lat="37.9953189567" lon="-8.7068399694">
        <ele>197.69</ele>
        <time>2019-12-30T11:25:29Z</time>
      </trkpt>
      <trkpt lat="37.9954795539" lon="-8.7068977207">
        <ele>195.77</ele>
        <time>2019-12-30T11:25:40Z</time>
      </trkpt>
      <trkpt lat="37.9956202861" lon="-8.7069254648">
        <ele>194.32</ele>
        <time>2019-12-30T11:25:50Z</time>
      </trkpt>
      <trkpt lat="37.9957725853" lon="-8.7069002353">
        <ele>192.40</ele>
        <time>2019-12-30T11:26:03Z</time>
      </trkpt>
      <trkpt lat="37.9958091304" lon="-8.7068963796">
        <ele>191.92</ele>
        <time>2019-12-30T11:26:06Z</time>
      </trkpt>
      <trkpt lat="37.9958508722" lon="-8.7068853155">
        <ele>191.44</ele>
        <time>2019-12-30T11:26:10Z</time>
      </trkpt>
      <trkpt lat="37.9959051032" lon="-8.7068855669">
        <ele>190.96</ele>
        <time>2019-12-30T11:26:14Z</time>
      </trkpt>
      <trkpt lat="37.9959263094" lon="-8.7068853993">
        <ele>190.48</ele>
        <time>2019-12-30T11:26:16Z</time>
      </trkpt>
      <trkpt lat="37.9959588312" lon="-8.7068898417">
        <ele>190.48</ele>
        <time>2019-12-30T11:26:19Z</time>
      </trkpt>
      <trkpt lat="37.9960888345" lon="-8.7068869919">
        <ele>190.48</ele>
        <time>2019-12-30T11:26:31Z</time>
      </trkpt>
      <trkpt lat="37.9961329233" lon="-8.7068978045">
        <ele>190.48</ele>
        <time>2019-12-30T11:26:36Z</time>
      </trkpt>
      <trkpt lat="37.9961673729" lon="-8.7068945356">
        <ele>190.00</ele>
        <time>2019-12-30T11:26:39Z</time>
      </trkpt>
      <trkpt lat="37.9962048400" lon="-8.7068807893">
        <ele>189.04</ele>
        <time>2019-12-30T11:26:42Z</time>
      </trkpt>
      <trkpt lat="37.9962429777" lon="-8.7068843935">
        <ele>189.04</ele>
        <time>2019-12-30T11:26:45Z</time>
      </trkpt>
      <trkpt lat="37.9963920917" lon="-8.7068643607">
        <ele>187.11</ele>
        <time>2019-12-30T11:26:56Z</time>
      </trkpt>
      <trkpt lat="37.9964213446" lon="-8.7068589125">
        <ele>187.11</ele>
        <time>2019-12-30T11:26:59Z</time>
      </trkpt>
      <trkpt lat="37.9965246934" lon="-8.7067980599">
        <ele>187.11</ele>
        <time>2019-12-30T11:27:09Z</time>
      </trkpt>
      <trkpt lat="37.9965554550" lon="-8.7067809608">
        <ele>186.63</ele>
        <time>2019-12-30T11:27:12Z</time>
      </trkpt>
      <trkpt lat="37.9966584686" lon="-8.7067207787">
        <ele>186.15</ele>
        <time>2019-12-30T11:27:20Z</time>
      </trkpt>
      <trkpt lat="37.9967204947" lon="-8.7066692300">
        <ele>185.67</ele>
        <time>2019-12-30T11:27:25Z</time>
      </trkpt>
      <trkpt lat="37.9968497436" lon="-8.7066079583">
        <ele>185.19</ele>
        <time>2019-12-30T11:27:35Z</time>
      </trkpt>
      <trkpt lat="37.9970193934" lon="-8.7065366283">
        <ele>183.75</ele>
        <time>2019-12-30T11:27:48Z</time>
      </trkpt>
      <trkpt lat="37.9971643165" lon="-8.7064778712">
        <ele>183.27</ele>
        <time>2019-12-30T11:27:59Z</time>
      </trkpt>
      <trkpt lat="37.9971723631" lon="-8.7064766139">
        <ele>183.27</ele>
        <time>2019-12-30T11:28:00Z</time>
      </trkpt>
      <trkpt lat="37.9972030409" lon="-8.7064664718">
        <ele>183.27</ele>
        <time>2019-12-30T11:28:03Z</time>
      </trkpt>
      <trkpt lat="37.9973152746" lon="-8.7063813955">
        <ele>182.79</ele>
        <time>2019-12-30T11:28:12Z</time>
      </trkpt>
      <trkpt lat="37.9974015243" lon="-8.7062906194">
        <ele>180.87</ele>
        <time>2019-12-30T11:28:22Z</time>
      </trkpt>
      <trkpt lat="37.9974108282" lon="-8.7062843330">
        <ele>180.87</ele>
        <time>2019-12-30T11:28:23Z</time>
      </trkpt>
      <trkpt lat="37.9974485468" lon="-8.7062539067">
        <ele>180.87</ele>
        <time>2019-12-30T11:28:27Z</time>
      </trkpt>
      <trkpt lat="37.9975645524" lon="-8.7061560061">
        <ele>179.42</ele>
        <time>2019-12-30T11:28:37Z</time>
      </trkpt>
      <trkpt lat="37.9976409953" lon="-8.7060866039">
        <ele>178.46</ele>
        <time>2019-12-30T11:28:44Z</time>
      </trkpt>
      <trkpt lat="37.9976814799" lon="-8.7060457002">
        <ele>177.98</ele>
        <time>2019-12-30T11:28:48Z</time>
      </trkpt>
      <trkpt lat="37.9977698252" lon="-8.7059753761">
        <ele>177.50</ele>
        <time>2019-12-30T11:28:56Z</time>
      </trkpt>
      <trkpt lat="37.9978680611" lon="-8.7059053872">
        <ele>177.02</ele>
        <time>2019-12-30T11:29:04Z</time>
      </trkpt>
      <trkpt lat="37.9978897702" lon="-8.7058904674">
        <ele>176.54</ele>
        <time>2019-12-30T11:29:06Z</time>
      </trkpt>
      <trkpt lat="37.9979938734" lon="-8.7058264297">
        <ele>176.06</ele>
        <time>2019-12-30T11:29:15Z</time>
      </trkpt>
      <trkpt lat="37.9981287383" lon="-8.7057592906">
        <ele>175.10</ele>
        <time>2019-12-30T11:29:26Z</time>
      </trkpt>
      <trkpt lat="37.9981862381" lon="-8.7057335582">
        <ele>175.58</ele>
        <time>2019-12-30T11:29:30Z</time>
      </trkpt>
      <trkpt lat="37.9982155748" lon="-8.7057118490">
        <ele>175.10</ele>
        <time>2019-12-30T11:29:33Z</time>
      </trkpt>
      <trkpt lat="37.9982720688" lon="-8.7056594621">
        <ele>174.62</ele>
        <time>2019-12-30T11:29:38Z</time>
      </trkpt>
      <trkpt lat="37.9983055964" lon="-8.7056297064">
        <ele>175.10</ele>
        <time>2019-12-30T11:29:41Z</time>
      </trkpt>
      <trkpt lat="37.9983313289" lon="-8.7056173012">
        <ele>175.10</ele>
        <time>2019-12-30T11:29:43Z</time>
      </trkpt>
      <trkpt lat="37.9983550496" lon="-8.7055888865">
        <ele>175.10</ele>
        <time>2019-12-30T11:29:46Z</time>
      </trkpt>
      <trkpt lat="37.9983787704" lon="-8.7055774871">
        <ele>174.62</ele>
        <time>2019-12-30T11:29:48Z</time>
      </trkpt>
      <trkpt lat="37.9985047504" lon="-8.7054561172">
        <ele>173.66</ele>
        <time>2019-12-30T11:29:59Z</time>
      </trkpt>
      <trkpt lat="37.9985752422" lon="-8.7053406984">
        <ele>173.66</ele>
        <time>2019-12-30T11:30:08Z</time>
      </trkpt>
      <trkpt lat="37.9986136314" lon="-8.7053000461">
        <ele>173.17</ele>
        <time>2019-12-30T11:30:12Z</time>
      </trkpt>
      <trkpt lat="37.9986710474" lon="-8.7052174844">
        <ele>172.69</ele>
        <time>2019-12-30T11:30:18Z</time>
      </trkpt>
      <trkpt lat="37.9986918345" lon="-8.7051940151">
        <ele>173.17</ele>
        <time>2019-12-30T11:30:20Z</time>
      </trkpt>
      <trkpt lat="37.9987904057" lon="-8.7050629221">
        <ele>172.21</ele>
        <time>2019-12-30T11:30:31Z</time>
      </trkpt>
      <trkpt lat="37.9988536891" lon="-8.7049871497">
        <ele>172.21</ele>
        <time>2019-12-30T11:30:38Z</time>
      </trkpt>
      <trkpt lat="37.9988763202" lon="-8.7049608305">
        <ele>171.73</ele>
        <time>2019-12-30T11:30:40Z</time>
      </trkpt>
      <trkpt lat="37.9989195708" lon="-8.7049119640">
        <ele>171.25</ele>
        <time>2019-12-30T11:30:45Z</time>
      </trkpt>
      <trkpt lat="37.9989514221" lon="-8.7048739940">
        <ele>171.73</ele>
        <time>2019-12-30T11:30:48Z</time>
      </trkpt>
      <trkpt lat="37.9990259372" lon="-8.7047855649">
        <ele>171.25</ele>
        <time>2019-12-30T11:30:56Z</time>
      </trkpt>
      <trkpt lat="37.9990841914" lon="-8.7047403026">
        <ele>170.77</ele>
        <time>2019-12-30T11:31:01Z</time>
      </trkpt>
      <trkpt lat="37.9991540127" lon="-8.7046846468">
        <ele>170.77</ele>
        <time>2019-12-30T11:31:07Z</time>
      </trkpt>
      <trkpt lat="37.9991711956" lon="-8.7046630215">
        <ele>170.77</ele>
        <time>2019-12-30T11:31:09Z</time>
      </trkpt>
      <trkpt lat="37.9992830940" lon="-8.7045380473">
        <ele>169.81</ele>
        <time>2019-12-30T11:31:20Z</time>
      </trkpt>
      <trkpt lat="37.9993585311" lon="-8.7044758536">
        <ele>169.81</ele>
        <time>2019-12-30T11:31:27Z</time>
      </trkpt>
      <trkpt lat="37.9993928969" lon="-8.7044434994">
        <ele>170.29</ele>
        <time>2019-12-30T11:31:30Z</time>
      </trkpt>
      <trkpt lat="37.9995146859" lon="-8.7043561600">
        <ele>169.81</ele>
        <time>2019-12-30T11:31:41Z</time>
      </trkpt>
      <trkpt lat="37.9996166099" lon="-8.7043035217">
        <ele>168.85</ele>
        <time>2019-12-30T11:31:50Z</time>
      </trkpt>
      <trkpt lat="37.9996394087" lon="-8.7042923737">
        <ele>168.85</ele>
        <time>2019-12-30T11:31:52Z</time>
      </trkpt>
      <trkpt lat="37.9997739382" lon="-8.7042227201">
        <ele>167.89</ele>
        <time>2019-12-30T11:32:03Z</time>
      </trkpt>
      <trkpt lat="37.9997831583" lon="-8.7042163499">
        <ele>168.37</ele>
        <time>2019-12-30T11:32:04Z</time>
      </trkpt>
      <trkpt lat="37.9998611100" lon="-8.7041799724">
        <ele>167.89</ele>
        <time>2019-12-30T11:32:10Z</time>
      </trkpt>
      <trkpt lat="37.9999209568" lon="-8.7041584309">
        <ele>167.89</ele>
        <time>2019-12-30T11:32:14Z</time>
      </trkpt>
      <trkpt lat="37.9999667220" lon="-8.7041269150">
        <ele>167.89</ele>
        <time>2019-12-30T11:32:18Z</time>
      </trkpt>
      <trkpt lat="38.0001434963" lon="-8.7040452752">
        <ele>167.41</ele>
        <time>2019-12-30T11:32:32Z</time>
      </trkpt>
      <trkpt lat="38.0002623517" lon="-8.7040052097">
        <ele>166.45</ele>
        <time>2019-12-30T11:32:41Z</time>
      </trkpt>
      <trkpt lat="38.0003616773" lon="-8.7039498053">
        <ele>166.93</ele>
        <time>2019-12-30T11:32:50Z</time>
      </trkpt>
      <trkpt lat="38.0005006492" lon="-8.7039094884">
        <ele>166.45</ele>
        <time>2019-12-30T11:33:01Z</time>
      </trkpt>
      <trkpt lat="38.0005136412" lon="-8.7039058004">
        <ele>166.45</ele>
        <time>2019-12-30T11:33:02Z</time>
      </trkpt>
      <trkpt lat="38.0006697122" lon="-8.7038480490">
        <ele>165.96</ele>
        <time>2019-12-30T11:33:15Z</time>
      </trkpt>
      <trkpt lat="38.0007200874" lon="-8.7038343027">
        <ele>165.48</ele>
        <time>2019-12-30T11:33:19Z</time>
      </trkpt>
      <trkpt lat="38.0008792598" lon="-8.7037341390">
        <ele>165.00</ele>
        <time>2019-12-30T11:33:32Z</time>
      </trkpt>
      <trkpt lat="38.0009171460" lon="-8.7037038803">
        <ele>165.00</ele>
        <time>2019-12-30T11:33:36Z</time>
      </trkpt>
      <trkpt lat="38.0010085087" lon="-8.7036293652">
        <ele>164.52</ele>
        <time>2019-12-30T11:33:43Z</time>
      </trkpt>
      <trkpt lat="38.0011592153" lon="-8.7035394274">
        <ele>164.04</ele>
        <time>2019-12-30T11:33:56Z</time>
      </trkpt>
      <trkpt lat="38.0012667552" lon="-8.7034624815">
        <ele>163.56</ele>
        <time>2019-12-30T11:34:06Z</time>
      </trkpt>
      <trkpt lat="38.0013633147" lon="-8.7034109328">
        <ele>163.56</ele>
        <time>2019-12-30T11:34:14Z</time>
      </trkpt>
      <trkpt lat="38.0013751332" lon="-8.7034001201">
        <ele>163.56</ele>
        <time>2019-12-30T11:34:15Z</time>
      </trkpt>
      <trkpt lat="38.0013996921" lon="-8.7033398543">
        <ele>163.08</ele>
        <time>2019-12-30T11:34:20Z</time>
      </trkpt>
      <trkpt lat="38.0014103372" lon="-8.7032810133">
        <ele>162.60</ele>
        <time>2019-12-30T11:34:24Z</time>
      </trkpt>
      <trkpt lat="38.0013961717" lon="-8.7031482439">
        <ele>162.60</ele>
        <time>2019-12-30T11:34:32Z</time>
      </trkpt>
      <trkpt lat="38.0013983510" lon="-8.7031041551">
        <ele>163.08</ele>
        <time>2019-12-30T11:34:35Z</time>
      </trkpt>
      <trkpt lat="38.0013865326" lon="-8.7030712981">
        <ele>163.08</ele>
        <time>2019-12-30T11:34:37Z</time>
      </trkpt>
      <trkpt lat="38.0013725348" lon="-8.7030078471">
        <ele>163.56</ele>
        <time>2019-12-30T11:34:41Z</time>
      </trkpt>
      <trkpt lat="38.0013839342" lon="-8.7029409595">
        <ele>163.56</ele>
        <time>2019-12-30T11:34:45Z</time>
      </trkpt>
      <trkpt lat="38.0014273524" lon="-8.7027856428">
        <ele>164.52</ele>
        <time>2019-12-30T11:34:55Z</time>
      </trkpt>
      <trkpt lat="38.0014473014" lon="-8.7027369440">
        <ele>165.00</ele>
        <time>2019-12-30T11:34:58Z</time>
      </trkpt>
      <trkpt lat="38.0014646519" lon="-8.7027096190">
        <ele>165.00</ele>
        <time>2019-12-30T11:35:00Z</time>
      </trkpt>
      <trkpt lat="38.0014649872" lon="-8.7026159931">
        <ele>165.48</ele>
        <time>2019-12-30T11:35:06Z</time>
      </trkpt>
      <trkpt lat="38.0014663283" lon="-8.7025757600">
        <ele>165.96</ele>
        <time>2019-12-30T11:35:08Z</time>
      </trkpt>
      <trkpt lat="38.0014904682" lon="-8.7024882529">
        <ele>166.45</ele>
        <time>2019-12-30T11:35:14Z</time>
      </trkpt>
      <trkpt lat="38.0014931504" lon="-8.7024198566">
        <ele>166.45</ele>
        <time>2019-12-30T11:35:18Z</time>
      </trkpt>
      <trkpt lat="38.0014974251" lon="-8.7023784500">
        <ele>166.45</ele>
        <time>2019-12-30T11:35:20Z</time>
      </trkpt>
      <trkpt lat="38.0015425198" lon="-8.7023284100">
        <ele>166.93</ele>
        <time>2019-12-30T11:35:24Z</time>
      </trkpt>
      <trkpt lat="38.0016343854" lon="-8.7022139970">
        <ele>166.93</ele>
        <time>2019-12-30T11:35:33Z</time>
      </trkpt>
      <trkpt lat="38.0016560946" lon="-8.7021838222">
        <ele>166.93</ele>
        <time>2019-12-30T11:35:36Z</time>
      </trkpt>
      <trkpt lat="38.0016894545" lon="-8.7021352071">
        <ele>167.89</ele>
        <time>2019-12-30T11:35:40Z</time>
      </trkpt>
      <trkpt lat="38.0016985070" lon="-8.7020693254">
        <ele>167.89</ele>
        <time>2019-12-30T11:35:44Z</time>
      </trkpt>
      <trkpt lat="38.0017594434" lon="-8.7019663956">
        <ele>168.85</ele>
        <time>2019-12-30T11:35:53Z</time>
      </trkpt>
      <trkpt lat="38.0017747823" lon="-8.7019477040">
        <ele>168.85</ele>
        <time>2019-12-30T11:35:54Z</time>
      </trkpt>
      <trkpt lat="38.0017983355" lon="-8.7019354664">
        <ele>169.33</ele>
        <time>2019-12-30T11:35:56Z</time>
      </trkpt>
      <trkpt lat="38.0018487107" lon="-8.7018382363">
        <ele>170.29</ele>
        <time>2019-12-30T11:36:04Z</time>
      </trkpt>
      <trkpt lat="38.0019669794" lon="-8.7017444428">
        <ele>171.73</ele>
        <time>2019-12-30T11:36:14Z</time>
      </trkpt>
      <trkpt lat="38.0019977409" lon="-8.7016996834">
        <ele>172.69</ele>
        <time>2019-12-30T11:36:18Z</time>
      </trkpt>
      <trkpt lat="38.0020335317" lon="-8.7016395852">
        <ele>173.17</ele>
        <time>2019-12-30T11:36:23Z</time>
      </trkpt>
      <trkpt lat="38.0020514689" lon="-8.7016035430">
        <ele>173.66</ele>
        <time>2019-12-30T11:36:26Z</time>
      </trkpt>
      <trkpt lat="38.0020634551" lon="-8.7015643995">
        <ele>174.14</ele>
        <time>2019-12-30T11:36:30Z</time>
      </trkpt>
      <trkpt lat="38.0021149199" lon="-8.7014758028">
        <ele>174.62</ele>
        <time>2019-12-30T11:36:37Z</time>
      </trkpt>
      <trkpt lat="38.0021311808" lon="-8.7014160398">
        <ele>175.10</ele>
        <time>2019-12-30T11:36:42Z</time>
      </trkpt>
      <trkpt lat="38.0021936260" lon="-8.7013213243">
        <ele>177.02</ele>
        <time>2019-12-30T11:36:50Z</time>
      </trkpt>
      <trkpt lat="38.0022257287" lon="-8.7013027165">
        <ele>177.02</ele>
        <time>2019-12-30T11:36:53Z</time>
      </trkpt>
      <trkpt lat="38.0022490304" lon="-8.7012281176">
        <ele>178.46</ele>
        <time>2019-12-30T11:36:58Z</time>
      </trkpt>
      <trkpt lat="38.0022899341" lon="-8.7011799216">
        <ele>178.94</ele>
        <time>2019-12-30T11:37:02Z</time>
      </trkpt>
      <trkpt lat="38.0023041833" lon="-8.7011216674">
        <ele>179.42</ele>
        <time>2019-12-30T11:37:06Z</time>
      </trkpt>
      <trkpt lat="38.0023534689" lon="-8.7010800093">
        <ele>180.38</ele>
        <time>2019-12-30T11:37:10Z</time>
      </trkpt>
      <trkpt lat="38.0023432430" lon="-8.7010601442">
        <ele>180.38</ele>
        <time>2019-12-30T11:37:11Z</time>
      </trkpt>
      <trkpt lat="38.0023813806" lon="-8.7009451445">
        <ele>180.87</ele>
        <time>2019-12-30T11:37:19Z</time>
      </trkpt>
      <trkpt lat="38.0023929477" lon="-8.7008698750">
        <ele>181.35</ele>
        <time>2019-12-30T11:37:24Z</time>
      </trkpt>
      <trkpt lat="38.0024045985" lon="-8.7007194199">
        <ele>181.35</ele>
        <time>2019-12-30T11:37:33Z</time>
      </trkpt>
      <trkpt lat="38.0024066102" lon="-8.7006418873">
        <ele>181.35</ele>
        <time>2019-12-30T11:37:38Z</time>
      </trkpt>
      <trkpt lat="38.0024249665" lon="-8.7004869059">
        <ele>183.75</ele>
        <time>2019-12-30T11:37:48Z</time>
      </trkpt>
      <trkpt lat="38.0024378747" lon="-8.7004438229">
        <ele>184.23</ele>
        <time>2019-12-30T11:37:51Z</time>
      </trkpt>
      <trkpt lat="38.0024863221" lon="-8.7002806272">
        <ele>186.15</ele>
        <time>2019-12-30T11:38:01Z</time>
      </trkpt>
      <trkpt lat="38.0025083665" lon="-8.7001858279">
        <ele>186.15</ele>
        <time>2019-12-30T11:38:07Z</time>
      </trkpt>
      <trkpt lat="38.0025295727" lon="-8.7000645418">
        <ele>187.59</ele>
        <time>2019-12-30T11:38:17Z</time>
      </trkpt>
      <trkpt lat="38.0025258847" lon="-8.6999595165">
        <ele>187.59</ele>
        <time>2019-12-30T11:38:21Z</time>
      </trkpt>
      <trkpt lat="38.0025292374" lon="-8.6999152601">
        <ele>187.59</ele>
        <time>2019-12-30T11:38:23Z</time>
      </trkpt>
      <trkpt lat="38.0025327578" lon="-8.6998482887">
        <ele>188.56</ele>
        <time>2019-12-30T11:38:29Z</time>
      </trkpt>
      <trkpt lat="38.0025330093" lon="-8.6997703370">
        <ele>188.08</ele>
        <time>2019-12-30T11:38:33Z</time>
      </trkpt>
      <trkpt lat="38.0025383737" lon="-8.6997261643">
        <ele>189.04</ele>
        <time>2019-12-30T11:38:35Z</time>
      </trkpt>
      <trkpt lat="38.0025518686" lon="-8.6996720172">
        <ele>189.04</ele>
        <time>2019-12-30T11:38:41Z</time>
      </trkpt>
      <trkpt lat="38.0025766790" lon="-8.6995102465">
        <ele>189.52</ele>
        <time>2019-12-30T11:38:52Z</time>
      </trkpt>
      <trkpt lat="38.0025998969" lon="-8.6994757969">
        <ele>189.04</ele>
        <time>2019-12-30T11:38:57Z</time>
      </trkpt>
      <trkpt lat="38.0026032496" lon="-8.6992918141">
        <ele>189.52</ele>
        <time>2019-12-30T11:39:04Z</time>
      </trkpt>
      <trkpt lat="38.0026394594" lon="-8.6992333923">
        <ele>190.00</ele>
        <time>2019-12-30T11:39:11Z</time>
      </trkpt>
      <trkpt lat="38.0026445724" lon="-8.6992141139">
        <ele>190.00</ele>
        <time>2019-12-30T11:39:13Z</time>
      </trkpt>
      <trkpt lat="38.0026532896" lon="-8.6990126129">
        <ele>190.00</ele>
        <time>2019-12-30T11:39:20Z</time>
      </trkpt>
      <trkpt lat="38.0026687123" lon="-8.6989556160">
        <ele>190.00</ele>
        <time>2019-12-30T11:39:25Z</time>
      </trkpt>
      <trkpt lat="38.0027138907" lon="-8.6987319868">
        <ele>190.96</ele>
        <time>2019-12-30T11:39:36Z</time>
      </trkpt>
      <trkpt lat="38.0028353445" lon="-8.6986744870">
        <ele>191.44</ele>
        <time>2019-12-30T11:39:47Z</time>
      </trkpt>
      <trkpt lat="38.0030127056" lon="-8.6986544542">
        <ele>191.44</ele>
        <time>2019-12-30T11:39:59Z</time>
      </trkpt>
      <trkpt lat="38.0030229315" lon="-8.6986515205">
        <ele>191.44</ele>
        <time>2019-12-30T11:40:00Z</time>
      </trkpt>
      <trkpt lat="38.0030448083" lon="-8.6986811925">
        <ele>191.44</ele>
        <time>2019-12-30T11:40:05Z</time>
      </trkpt>
      <trkpt lat="38.0030914117" lon="-8.6987042427">
        <ele>191.44</ele>
        <time>2019-12-30T11:40:09Z</time>
      </trkpt>
      <trkpt lat="38.0032232590" lon="-8.6987042427">
        <ele>191.44</ele>
        <time>2019-12-30T11:40:18Z</time>
      </trkpt>
      <trkpt lat="38.0032567028" lon="-8.6987212580">
        <ele>191.44</ele>
        <time>2019-12-30T11:40:22Z</time>
      </trkpt>
      <trkpt lat="38.0033545196" lon="-8.6987196654">
        <ele>191.44</ele>
        <time>2019-12-30T11:40:27Z</time>
      </trkpt>
      <trkpt lat="38.0034280289" lon="-8.6987194978">
        <ele>191.92</ele>
        <time>2019-12-30T11:40:31Z</time>
      </trkpt>
      <trkpt lat="38.0034919828" lon="-8.6987257842">
        <ele>191.92</ele>
        <time>2019-12-30T11:40:38Z</time>
      </trkpt>
      <trkpt lat="38.0035719462" lon="-8.6986603215">
        <ele>192.40</ele>
        <time>2019-12-30T11:40:45Z</time>
      </trkpt>
      <trkpt lat="38.0036214832" lon="-8.6985620856">
        <ele>193.36</ele>
        <time>2019-12-30T11:40:54Z</time>
      </trkpt>
      <trkpt lat="38.0036746245" lon="-8.6984837148">
        <ele>193.84</ele>
        <time>2019-12-30T11:41:00Z</time>
      </trkpt>
      <trkpt lat="38.0036782287" lon="-8.6983094551">
        <ele>194.32</ele>
        <time>2019-12-30T11:41:08Z</time>
      </trkpt>
      <trkpt lat="38.0037102476" lon="-8.6981571559">
        <ele>195.28</ele>
        <time>2019-12-30T11:41:18Z</time>
      </trkpt>
      <trkpt lat="38.0037229881" lon="-8.6980928667">
        <ele>195.28</ele>
        <time>2019-12-30T11:41:24Z</time>
      </trkpt>
      <trkpt lat="38.0037540849" lon="-8.6979650427">
        <ele>196.25</ele>
        <time>2019-12-30T11:41:32Z</time>
      </trkpt>
      <trkpt lat="38.0037728604" lon="-8.6978665553">
        <ele>196.25</ele>
        <time>2019-12-30T11:41:37Z</time>
      </trkpt>
      <trkpt lat="38.0037876125" lon="-8.6977732647">
        <ele>196.73</ele>
        <time>2019-12-30T11:41:45Z</time>
      </trkpt>
      <trkpt lat="38.0038114171" lon="-8.6977020185">
        <ele>196.73</ele>
        <time>2019-12-30T11:41:49Z</time>
      </trkpt>
      <trkpt lat="38.0038501415" lon="-8.6976037826">
        <ele>197.21</ele>
        <time>2019-12-30T11:41:57Z</time>
      </trkpt>
      <trkpt lat="38.0038842559" lon="-8.6975154374">
        <ele>198.17</ele>
        <time>2019-12-30T11:42:05Z</time>
      </trkpt>
      <trkpt lat="38.0039022770" lon="-8.6974368151">
        <ele>198.17</ele>
        <time>2019-12-30T11:42:08Z</time>
      </trkpt>
      <trkpt lat="38.0039336253" lon="-8.6973918043">
        <ele>198.65</ele>
        <time>2019-12-30T11:42:13Z</time>
      </trkpt>
      <trkpt lat="38.0040269159" lon="-8.6973577738">
        <ele>199.61</ele>
        <time>2019-12-30T11:42:21Z</time>
      </trkpt>
      <trkpt lat="38.0041980743" lon="-8.6973699275">
        <ele>200.57</ele>
        <time>2019-12-30T11:42:35Z</time>
      </trkpt>
      <trkpt lat="38.0042972323" lon="-8.6973985936">
        <ele>200.57</ele>
        <time>2019-12-30T11:42:44Z</time>
      </trkpt>
      <trkpt lat="38.0043350346" lon="-8.6973969173">
        <ele>201.05</ele>
        <time>2019-12-30T11:42:46Z</time>
      </trkpt>
      <trkpt lat="38.0043640360" lon="-8.6974106636">
        <ele>201.53</ele>
        <time>2019-12-30T11:42:49Z</time>
      </trkpt>
      <trkpt lat="38.0045283213" lon="-8.6974287685">
        <ele>203.46</ele>
        <time>2019-12-30T11:43:01Z</time>
      </trkpt>
      <trkpt lat="38.0045740865" lon="-8.6974256672">
        <ele>203.46</ele>
        <time>2019-12-30T11:43:04Z</time>
      </trkpt>
      <trkpt lat="38.0046075303" lon="-8.6974618770">
        <ele>203.94</ele>
        <time>2019-12-30T11:43:10Z</time>
      </trkpt>
      <trkpt lat="38.0047060177" lon="-8.6974816583">
        <ele>204.42</ele>
        <time>2019-12-30T11:43:18Z</time>
      </trkpt>
      <trkpt lat="38.0047277268" lon="-8.6974892020">
        <ele>204.90</ele>
        <time>2019-12-30T11:43:20Z</time>
      </trkpt>
      <trkpt lat="38.0047819577" lon="-8.6974928901">
        <ele>205.38</ele>
        <time>2019-12-30T11:43:23Z</time>
      </trkpt>
      <trkpt lat="38.0049009807" lon="-8.6975045409">
        <ele>206.34</ele>
        <time>2019-12-30T11:43:32Z</time>
      </trkpt>
      <trkpt lat="38.0049381964" lon="-8.6975280941">
        <ele>206.82</ele>
        <time>2019-12-30T11:43:36Z</time>
      </trkpt>
      <trkpt lat="38.0049620010" lon="-8.6975420080">
        <ele>207.30</ele>
        <time>2019-12-30T11:43:38Z</time>
      </trkpt>
      <trkpt lat="38.0049884040" lon="-8.6975529045">
        <ele>207.78</ele>
        <time>2019-12-30T11:43:40Z</time>
      </trkpt>
      <trkpt lat="38.0051002186" lon="-8.6976675689">
        <ele>207.78</ele>
        <time>2019-12-30T11:43:52Z</time>
      </trkpt>
      <trkpt lat="38.0051095225" lon="-8.6976974085">
        <ele>207.30</ele>
        <time>2019-12-30T11:43:55Z</time>
      </trkpt>
      <trkpt lat="38.0051757395" lon="-8.6978491209">
        <ele>206.82</ele>
        <time>2019-12-30T11:44:08Z</time>
      </trkpt>
      <trkpt lat="38.0051677767" lon="-8.6978695728">
        <ele>206.82</ele>
        <time>2019-12-30T11:44:10Z</time>
      </trkpt>
      <trkpt lat="38.0052599777" lon="-8.6980397254">
        <ele>205.86</ele>
        <time>2019-12-30T11:44:21Z</time>
      </trkpt>
      <trkpt lat="38.0053876340" lon="-8.6981516238">
        <ele>205.86</ele>
        <time>2019-12-30T11:44:30Z</time>
      </trkpt>
      <trkpt lat="38.0055096745" lon="-8.6982553080">
        <ele>206.34</ele>
        <time>2019-12-30T11:44:42Z</time>
      </trkpt>
      <trkpt lat="38.0055681802" lon="-8.6983024143">
        <ele>205.86</ele>
        <time>2019-12-30T11:44:46Z</time>
      </trkpt>
      <trkpt lat="38.0055780709" lon="-8.6983526219">
        <ele>204.90</ele>
        <time>2019-12-30T11:44:56Z</time>
      </trkpt>
      <trkpt lat="38.0055868719" lon="-8.6983668711">
        <ele>204.90</ele>
        <time>2019-12-30T11:44:58Z</time>
      </trkpt>
      <trkpt lat="38.0056641530" lon="-8.6983785219">
        <ele>204.42</ele>
        <time>2019-12-30T11:45:02Z</time>
      </trkpt>
      <trkpt lat="38.0057082418" lon="-8.6984210182">
        <ele>204.42</ele>
        <time>2019-12-30T11:45:07Z</time>
      </trkpt>
      <trkpt lat="38.0058806576" lon="-8.6984881572">
        <ele>202.49</ele>
        <time>2019-12-30T11:45:18Z</time>
      </trkpt>
      <trkpt lat="38.0058930628" lon="-8.6985311564">
        <ele>202.01</ele>
        <time>2019-12-30T11:45:24Z</time>
      </trkpt>
      <trkpt lat="38.0059860181" lon="-8.6985837109">
        <ele>201.05</ele>
        <time>2019-12-30T11:45:31Z</time>
      </trkpt>
      <trkpt lat="38.0060659815" lon="-8.6986621656">
        <ele>200.57</ele>
        <time>2019-12-30T11:45:40Z</time>
      </trkpt>
      <trkpt lat="38.0061522312" lon="-8.6987221800">
        <ele>200.09</ele>
        <time>2019-12-30T11:45:48Z</time>
      </trkpt>
      <trkpt lat="38.0062624533" lon="-8.6987979524">
        <ele>199.61</ele>
        <time>2019-12-30T11:45:56Z</time>
      </trkpt>
      <trkpt lat="38.0062741879" lon="-8.6988557037">
        <ele>199.13</ele>
        <time>2019-12-30T11:46:03Z</time>
      </trkpt>
      <trkpt lat="38.0063689034" lon="-8.6988969427">
        <ele>199.61</ele>
        <time>2019-12-30T11:46:08Z</time>
      </trkpt>
      <trkpt lat="38.0064490344" lon="-8.6989631597">
        <ele>199.13</ele>
        <time>2019-12-30T11:46:18Z</time>
      </trkpt>
      <trkpt lat="38.0064890161" lon="-8.6990220845">
        <ele>198.17</ele>
        <time>2019-12-30T11:46:24Z</time>
      </trkpt>
      <trkpt lat="38.0066372082" lon="-8.6991080828">
        <ele>197.21</ele>
        <time>2019-12-30T11:46:35Z</time>
      </trkpt>
      <trkpt lat="38.0066505354" lon="-8.6991359107">
        <ele>196.73</ele>
        <time>2019-12-30T11:46:38Z</time>
      </trkpt>
      <trkpt lat="38.0067102984" lon="-8.6991996970">
        <ele>195.77</ele>
        <time>2019-12-30T11:46:46Z</time>
      </trkpt>
      <trkpt lat="38.0067348573" lon="-8.6992456298">
        <ele>195.77</ele>
        <time>2019-12-30T11:46:57Z</time>
      </trkpt>
      <trkpt lat="38.0067337677" lon="-8.6992400140">
        <ele>194.80</ele>
        <time>2019-12-30T11:47:13Z</time>
      </trkpt>
      <trkpt lat="38.0067350250" lon="-8.6992382538">
        <ele>195.28</ele>
        <time>2019-12-30T11:47:34Z</time>
      </trkpt>
      <trkpt lat="38.0067800358" lon="-8.6992556881">
        <ele>195.28</ele>
        <time>2019-12-30T11:48:01Z</time>
      </trkpt>
      <trkpt lat="38.0067733303" lon="-8.6992545985">
        <ele>194.80</ele>
        <time>2019-12-30T11:48:02Z</time>
      </trkpt>
      <trkpt lat="38.0067665409" lon="-8.6992395949">
        <ele>194.80</ele>
        <time>2019-12-30T11:48:20Z</time>
      </trkpt>
      <trkpt lat="38.0067644455" lon="-8.6992502399">
        <ele>194.80</ele>
        <time>2019-12-30T11:48:36Z</time>
      </trkpt>
      <trkpt lat="38.0068011582" lon="-8.6992924847">
        <ele>194.32</ele>
        <time>2019-12-30T11:48:40Z</time>
      </trkpt>
      <trkpt lat="38.0068558920" lon="-8.6994095799">
        <ele>193.84</ele>
        <time>2019-12-30T11:48:50Z</time>
      </trkpt>
      <trkpt lat="38.0068760924" lon="-8.6994336359">
        <ele>193.84</ele>
        <time>2019-12-30T11:49:10Z</time>
      </trkpt>
      <trkpt lat="38.0068796128" lon="-8.6994802393">
        <ele>193.84</ele>
        <time>2019-12-30T11:49:14Z</time>
      </trkpt>
      <trkpt lat="38.0069470033" lon="-8.6996993423">
        <ele>192.88</ele>
        <time>2019-12-30T11:49:29Z</time>
      </trkpt>
      <trkpt lat="38.0069547985" lon="-8.6997322831">
        <ele>192.88</ele>
        <time>2019-12-30T11:49:31Z</time>
      </trkpt>
      <trkpt lat="38.0070125498" lon="-8.6999329459">
        <ele>192.40</ele>
        <time>2019-12-30T11:49:45Z</time>
      </trkpt>
      <trkpt lat="38.0070262123" lon="-8.7000122387">
        <ele>192.40</ele>
        <time>2019-12-30T11:49:51Z</time>
      </trkpt>
      <trkpt lat="38.0071158987" lon="-8.7002356164">
        <ele>190.96</ele>
        <time>2019-12-30T11:50:07Z</time>
      </trkpt>
      <trkpt lat="38.0071798526" lon="-8.7004304118">
        <ele>189.52</ele>
        <time>2019-12-30T11:50:21Z</time>
      </trkpt>
      <trkpt lat="38.0072067585" lon="-8.7005239539">
        <ele>188.56</ele>
        <time>2019-12-30T11:50:28Z</time>
      </trkpt>
      <trkpt lat="38.0072578043" lon="-8.7007415481">
        <ele>186.63</ele>
        <time>2019-12-30T11:50:43Z</time>
      </trkpt>
      <trkpt lat="38.0072767474" lon="-8.7008107826">
        <ele>185.67</ele>
        <time>2019-12-30T11:50:55Z</time>
      </trkpt>
      <trkpt lat="38.0073432997" lon="-8.7008873932">
        <ele>185.19</ele>
        <time>2019-12-30T11:51:02Z</time>
      </trkpt>
      <trkpt lat="38.0073682778" lon="-8.7009085994">
        <ele>185.19</ele>
        <time>2019-12-30T11:51:04Z</time>
      </trkpt>
      <trkpt lat="38.0074153841" lon="-8.7009141315">
        <ele>183.75</ele>
        <time>2019-12-30T11:51:08Z</time>
      </trkpt>
      <trkpt lat="38.0074707884" lon="-8.7008925900">
        <ele>183.27</ele>
        <time>2019-12-30T11:51:13Z</time>
      </trkpt>
      <trkpt lat="38.0075201578" lon="-8.7008934282">
        <ele>182.79</ele>
        <time>2019-12-30T11:51:17Z</time>
      </trkpt>
      <trkpt lat="38.0076018814" lon="-8.7008443940">
        <ele>182.31</ele>
        <time>2019-12-30T11:51:25Z</time>
      </trkpt>
      <trkpt lat="38.0077405181" lon="-8.7007750757">
        <ele>180.87</ele>
        <time>2019-12-30T11:51:37Z</time>
      </trkpt>
      <trkpt lat="38.0078488123" lon="-8.7008433044">
        <ele>178.94</ele>
        <time>2019-12-30T11:51:46Z</time>
      </trkpt>
      <trkpt lat="38.0078750476" lon="-8.7008930929">
        <ele>177.50</ele>
        <time>2019-12-30T11:51:51Z</time>
      </trkpt>
      <trkpt lat="38.0078981817" lon="-8.7009363435">
        <ele>177.02</ele>
        <time>2019-12-30T11:51:54Z</time>
      </trkpt>
      <trkpt lat="38.0079727806" lon="-8.7011271156">
        <ele>174.62</ele>
        <time>2019-12-30T11:52:09Z</time>
      </trkpt>
      <trkpt lat="38.0079832580" lon="-8.7011863757">
        <ele>174.14</ele>
        <time>2019-12-30T11:52:12Z</time>
      </trkpt>
      <trkpt lat="38.0080076493" lon="-8.7012718711">
        <ele>173.66</ele>
        <time>2019-12-30T11:52:17Z</time>
      </trkpt>
      <trkpt lat="38.0080807395" lon="-8.7014712766">
        <ele>172.69</ele>
        <time>2019-12-30T11:52:30Z</time>
      </trkpt>
      <trkpt lat="38.0080933962" lon="-8.7015283573">
        <ele>172.21</ele>
        <time>2019-12-30T11:52:43Z</time>
      </trkpt>
      <trkpt lat="38.0080992635" lon="-8.7015431095">
        <ele>172.69</ele>
        <time>2019-12-30T11:52:44Z</time>
      </trkpt>
      <trkpt lat="38.0081821606" lon="-8.7017416768">
        <ele>171.73</ele>
        <time>2019-12-30T11:52:57Z</time>
      </trkpt>
      <trkpt lat="38.0081819929" lon="-8.7017436884">
        <ele>171.73</ele>
        <time>2019-12-30T11:53:10Z</time>
      </trkpt>
      <trkpt lat="38.0081804004" lon="-8.7017567642">
        <ele>171.25</ele>
        <time>2019-12-30T11:53:25Z</time>
      </trkpt>
      <trkpt lat="38.0081840884" lon="-8.7017875258">
        <ele>171.25</ele>
        <time>2019-12-30T11:53:27Z</time>
      </trkpt>
      <trkpt lat="38.0082282610" lon="-8.7019116618">
        <ele>170.77</ele>
        <time>2019-12-30T11:53:35Z</time>
      </trkpt>
      <trkpt lat="38.0082730204" lon="-8.7019892782">
        <ele>170.77</ele>
        <time>2019-12-30T11:53:41Z</time>
      </trkpt>
      <trkpt lat="38.0083464459" lon="-8.7020275835">
        <ele>170.77</ele>
        <time>2019-12-30T11:53:48Z</time>
      </trkpt>
      <trkpt lat="38.0084126629" lon="-8.7020993326">
        <ele>170.77</ele>
        <time>2019-12-30T11:53:55Z</time>
      </trkpt>
      <trkpt lat="38.0084772035" lon="-8.7021537311">
        <ele>170.77</ele>
        <time>2019-12-30T11:54:01Z</time>
      </trkpt>
      <trkpt lat="38.0085418280" lon="-8.7022320181">
        <ele>171.25</ele>
        <time>2019-12-30T11:54:09Z</time>
      </trkpt>
      <trkpt lat="38.0086602643" lon="-8.7023944594">
        <ele>170.29</ele>
        <time>2019-12-30T11:54:23Z</time>
      </trkpt>
      <trkpt lat="38.0086880084" lon="-8.7023994885">
        <ele>168.85</ele>
        <time>2019-12-30T11:54:29Z</time>
      </trkpt>
      <trkpt lat="38.0086761899" lon="-8.7023851555">
        <ele>169.33</ele>
        <time>2019-12-30T11:54:32Z</time>
      </trkpt>
      <trkpt lat="38.0086849071" lon="-8.7022947986">
        <ele>167.41</ele>
        <time>2019-12-30T11:54:40Z</time>
      </trkpt>
      <trkpt lat="38.0086523853" lon="-8.7021885999">
        <ele>166.93</ele>
        <time>2019-12-30T11:54:49Z</time>
      </trkpt>
      <trkpt lat="38.0085899401" lon="-8.7020546570">
        <ele>165.96</ele>
        <time>2019-12-30T11:54:58Z</time>
      </trkpt>
      <trkpt lat="38.0085339490" lon="-8.7019581813">
        <ele>165.48</ele>
        <time>2019-12-30T11:55:06Z</time>
      </trkpt>
      <trkpt lat="38.0084423348" lon="-8.7018017750">
        <ele>164.52</ele>
        <time>2019-12-30T11:55:18Z</time>
      </trkpt>
      <trkpt lat="38.0084461067" lon="-8.7017847598">
        <ele>164.52</ele>
        <time>2019-12-30T11:55:29Z</time>
      </trkpt>
      <trkpt lat="38.0084085558" lon="-8.7016778067">
        <ele>164.52</ele>
        <time>2019-12-30T11:55:39Z</time>
      </trkpt>
      <trkpt lat="38.0084111542" lon="-8.7016681675">
        <ele>164.52</ele>
        <time>2019-12-30T11:55:40Z</time>
      </trkpt>
      <trkpt lat="38.0084055383" lon="-8.7016281858">
        <ele>164.04</ele>
        <time>2019-12-30T11:55:43Z</time>
      </trkpt>
      <trkpt lat="38.0083984975" lon="-8.7015485577">
        <ele>163.08</ele>
        <time>2019-12-30T11:55:54Z</time>
      </trkpt>
      <trkpt lat="38.0084087234" lon="-8.7015162874">
        <ele>162.12</ele>
        <time>2019-12-30T11:56:08Z</time>
      </trkpt>
      <trkpt lat="38.0084290076" lon="-8.7014058977">
        <ele>162.12</ele>
        <time>2019-12-30T11:56:16Z</time>
      </trkpt>
      <trkpt lat="38.0084382277" lon="-8.7013848592">
        <ele>161.64</ele>
        <time>2019-12-30T11:56:18Z</time>
      </trkpt>
      <trkpt lat="38.0083970726" lon="-8.7012933288">
        <ele>160.68</ele>
        <time>2019-12-30T11:56:26Z</time>
      </trkpt>
      <trkpt lat="38.0083971564" lon="-8.7012546044">
        <ele>161.64</ele>
        <time>2019-12-30T11:56:39Z</time>
      </trkpt>
      <trkpt lat="38.0083888583" lon="-8.7011903990">
        <ele>161.16</ele>
        <time>2019-12-30T11:56:49Z</time>
      </trkpt>
      <trkpt lat="38.0084021855" lon="-8.7011144590">
        <ele>161.64</ele>
        <time>2019-12-30T11:56:55Z</time>
      </trkpt>
      <trkpt lat="38.0083889421" lon="-8.7009379361">
        <ele>162.12</ele>
        <time>2019-12-30T11:57:07Z</time>
      </trkpt>
      <trkpt lat="38.0083528161" lon="-8.7007500138">
        <ele>162.60</ele>
        <time>2019-12-30T11:57:18Z</time>
      </trkpt>
      <trkpt lat="38.0083749443" lon="-8.7007195875">
        <ele>163.08</ele>
        <time>2019-12-30T11:57:20Z</time>
      </trkpt>
      <trkpt lat="38.0084181949" lon="-8.7007003091">
        <ele>163.08</ele>
        <time>2019-12-30T11:57:24Z</time>
      </trkpt>
      <trkpt lat="38.0084788799" lon="-8.7007185817">
        <ele>164.52</ele>
        <time>2019-12-30T11:57:36Z</time>
      </trkpt>
      <trkpt lat="38.0084974878" lon="-8.7007311545">
        <ele>164.52</ele>
        <time>2019-12-30T11:57:40Z</time>
      </trkpt>
      <trkpt lat="38.0085335299" lon="-8.7007350940">
        <ele>165.48</ele>
        <time>2019-12-30T11:57:44Z</time>
      </trkpt>
      <trkpt lat="38.0085542332" lon="-8.7007457390">
        <ele>165.48</ele>
        <time>2019-12-30T11:57:46Z</time>
      </trkpt>
      <trkpt lat="38.0086445063" lon="-8.7007317413">
        <ele>167.41</ele>
        <time>2019-12-30T11:57:58Z</time>
      </trkpt>
      <trkpt lat="38.0086445063" lon="-8.7007317413">
        <ele>167.89</ele>
        <time>2019-12-30T11:58:06Z</time>
      </trkpt>
      <trkpt lat="38.0086628627" lon="-8.7007055897">
        <ele>168.37</ele>
        <time>2019-12-30T11:58:09Z</time>
      </trkpt>
      <trkpt lat="38.0086957198" lon="-8.7006515265">
        <ele>169.33</ele>
        <time>2019-12-30T11:58:13Z</time>
      </trkpt>
      <trkpt lat="38.0086999945" lon="-8.7006231118">
        <ele>169.81</ele>
        <time>2019-12-30T11:58:15Z</time>
      </trkpt>
      <trkpt lat="38.0087016709" lon="-8.7005822919">
        <ele>169.81</ele>
        <time>2019-12-30T11:58:18Z</time>
      </trkpt>
      <trkpt lat="38.0087365396" lon="-8.7005034182">
        <ele>171.73</ele>
        <time>2019-12-30T11:58:26Z</time>
      </trkpt>
      <trkpt lat="38.0087384675" lon="-8.7004175875">
        <ele>172.69</ele>
        <time>2019-12-30T11:58:32Z</time>
      </trkpt>
      <trkpt lat="38.0087614339" lon="-8.7003693916">
        <ele>172.69</ele>
        <time>2019-12-30T11:58:36Z</time>
      </trkpt>
      <trkpt lat="38.0087607633" lon="-8.7002295814">
        <ele>174.14</ele>
        <time>2019-12-30T11:58:45Z</time>
      </trkpt>
      <trkpt lat="38.0087616015" lon="-8.7002131529">
        <ele>174.62</ele>
        <time>2019-12-30T11:58:46Z</time>
      </trkpt>
      <trkpt lat="38.0087624397" lon="-8.7001828942">
        <ele>174.62</ele>
        <time>2019-12-30T11:58:48Z</time>
      </trkpt>
      <trkpt lat="38.0087817181" lon="-8.7001495343">
        <ele>174.62</ele>
        <time>2019-12-30T11:58:51Z</time>
      </trkpt>
      <trkpt lat="38.0087979790" lon="-8.7000594288">
        <ele>175.58</ele>
        <time>2019-12-30T11:58:57Z</time>
      </trkpt>
      <trkpt lat="38.0088904314" lon="-8.7000363786">
        <ele>175.58</ele>
        <time>2019-12-30T11:59:10Z</time>
      </trkpt>
      <trkpt lat="38.0088916048" lon="-8.7000313494">
        <ele>175.58</ele>
        <time>2019-12-30T11:59:14Z</time>
      </trkpt>
      <trkpt lat="38.0088685546" lon="-8.7000005879">
        <ele>176.06</ele>
        <time>2019-12-30T11:59:17Z</time>
      </trkpt>
      <trkpt lat="38.0088421516" lon="-8.6998679861">
        <ele>176.06</ele>
        <time>2019-12-30T11:59:24Z</time>
      </trkpt>
      <trkpt lat="38.0088527128" lon="-8.6998157669">
        <ele>176.06</ele>
        <time>2019-12-30T11:59:28Z</time>
      </trkpt>
      <trkpt lat="38.0088542216" lon="-8.6996838357">
        <ele>177.50</ele>
        <time>2019-12-30T11:59:41Z</time>
      </trkpt>
      <trkpt lat="38.0088575743" lon="-8.6996774655">
        <ele>177.50</ele>
        <time>2019-12-30T11:59:42Z</time>
      </trkpt>
      <trkpt lat="38.0088604242" lon="-8.6996209715">
        <ele>178.46</ele>
        <time>2019-12-30T11:59:45Z</time>
      </trkpt>
      <trkpt lat="38.0088738352" lon="-8.6995707639">
        <ele>178.94</ele>
        <time>2019-12-30T11:59:48Z</time>
      </trkpt>
      <trkpt lat="38.0089275632" lon="-8.6994974222">
        <ele>178.94</ele>
        <time>2019-12-30T11:59:54Z</time>
      </trkpt>
      <trkpt lat="38.0089894217" lon="-8.6994410120">
        <ele>178.94</ele>
        <time>2019-12-30T11:59:59Z</time>
      </trkpt>
      <trkpt lat="38.0090480112" lon="-8.6993400101">
        <ele>179.90</ele>
        <time>2019-12-30T12:00:07Z</time>
      </trkpt>
      <trkpt lat="38.0090532079" lon="-8.6993114278">
        <ele>179.42</ele>
        <time>2019-12-30T12:00:09Z</time>
      </trkpt>
      <trkpt lat="38.0090538785" lon="-8.6992929038">
        <ele>179.42</ele>
        <time>2019-12-30T12:00:10Z</time>
      </trkpt>
      <trkpt lat="38.0090996437" lon="-8.6992565263">
        <ele>179.42</ele>
        <time>2019-12-30T12:00:21Z</time>
      </trkpt>
      <trkpt lat="38.0092164874" lon="-8.6991304625">
        <ele>177.98</ele>
        <time>2019-12-30T12:00:34Z</time>
      </trkpt>
      <trkpt lat="38.0092265457" lon="-8.6991211586">
        <ele>177.98</ele>
        <time>2019-12-30T12:00:35Z</time>
      </trkpt>
      <trkpt lat="38.0092683714" lon="-8.6990762316">
        <ele>177.50</ele>
        <time>2019-12-30T12:00:39Z</time>
      </trkpt>
      <trkpt lat="38.0092952773" lon="-8.6990577076">
        <ele>177.50</ele>
        <time>2019-12-30T12:00:41Z</time>
      </trkpt>
      <trkpt lat="38.0093619972" lon="-8.6989628244">
        <ele>177.02</ele>
        <time>2019-12-30T12:00:51Z</time>
      </trkpt>
      <trkpt lat="38.0094132945" lon="-8.6989424564">
        <ele>176.54</ele>
        <time>2019-12-30T12:00:56Z</time>
      </trkpt>
      <trkpt lat="38.0094735604" lon="-8.6989477370">
        <ele>175.10</ele>
        <time>2019-12-30T12:01:03Z</time>
      </trkpt>
      <trkpt lat="38.0095214210" lon="-8.6989512574">
        <ele>174.62</ele>
        <time>2019-12-30T12:01:07Z</time>
      </trkpt>
      <trkpt lat="38.0095598940" lon="-8.6989708710">
        <ele>174.14</ele>
        <time>2019-12-30T12:01:10Z</time>
      </trkpt>
      <trkpt lat="38.0096053239" lon="-8.6989900656">
        <ele>173.66</ele>
        <time>2019-12-30T12:01:14Z</time>
      </trkpt>
      <trkpt lat="38.0096334871" lon="-8.6990184803">
        <ele>173.17</ele>
        <time>2019-12-30T12:01:17Z</time>
      </trkpt>
      <trkpt lat="38.0097012129" lon="-8.6990583781">
        <ele>172.21</ele>
        <time>2019-12-30T12:01:23Z</time>
      </trkpt>
      <trkpt lat="38.0097341537" lon="-8.6990750581">
        <ele>172.21</ele>
        <time>2019-12-30T12:01:26Z</time>
      </trkpt>
      <trkpt lat="38.0098298751" lon="-8.6991154589">
        <ele>170.77</ele>
        <time>2019-12-30T12:01:35Z</time>
      </trkpt>
      <trkpt lat="38.0098496564" lon="-8.6991704442">
        <ele>169.81</ele>
        <time>2019-12-30T12:01:50Z</time>
      </trkpt>
      <trkpt lat="38.0098567810" lon="-8.6991681810">
        <ele>169.81</ele>
        <time>2019-12-30T12:01:53Z</time>
      </trkpt>
      <trkpt lat="38.0098902248" lon="-8.6991553567">
        <ele>169.33</ele>
        <time>2019-12-30T12:01:56Z</time>
      </trkpt>
      <trkpt lat="38.0099346489" lon="-8.6991670076">
        <ele>169.33</ele>
        <time>2019-12-30T12:02:00Z</time>
      </trkpt>
      <trkpt lat="38.0099818390" lon="-8.6991582904">
        <ele>169.33</ele>
        <time>2019-12-30T12:02:05Z</time>
      </trkpt>
      <trkpt lat="38.0100000277" lon="-8.6991627328">
        <ele>169.33</ele>
        <time>2019-12-30T12:02:08Z</time>
      </trkpt>
      <trkpt lat="38.0101452023" lon="-8.6991216615">
        <ele>168.85</ele>
        <time>2019-12-30T12:02:19Z</time>
      </trkpt>
      <trkpt lat="38.0102160294" lon="-8.6990925763">
        <ele>168.85</ele>
        <time>2019-12-30T12:02:26Z</time>
      </trkpt>
      <trkpt lat="38.0102678295" lon="-8.6990313046">
        <ele>167.89</ele>
        <time>2019-12-30T12:02:33Z</time>
      </trkpt>
      <trkpt lat="38.0102778878" lon="-8.6990046501">
        <ele>168.37</ele>
        <time>2019-12-30T12:02:35Z</time>
      </trkpt>
      <trkpt lat="38.0103076436" lon="-8.6989598908">
        <ele>167.89</ele>
        <time>2019-12-30T12:02:39Z</time>
      </trkpt>
      <trkpt lat="38.0103263352" lon="-8.6989225913">
        <ele>168.37</ele>
        <time>2019-12-30T12:02:42Z</time>
      </trkpt>
      <trkpt lat="38.0103612877" lon="-8.6988241039">
        <ele>167.89</ele>
        <time>2019-12-30T12:02:50Z</time>
      </trkpt>
      <trkpt lat="38.0103713460" lon="-8.6987361778">
        <ele>167.41</ele>
        <time>2019-12-30T12:02:57Z</time>
      </trkpt>
      <trkpt lat="38.0104246549" lon="-8.6987127922">
        <ele>167.41</ele>
        <time>2019-12-30T12:03:02Z</time>
      </trkpt>
      <trkpt lat="38.0105100665" lon="-8.6987023149">
        <ele>165.96</ele>
        <time>2019-12-30T12:03:12Z</time>
      </trkpt>
      <trkpt lat="38.0105608609" lon="-8.6987227667">
        <ele>165.48</ele>
        <time>2019-12-30T12:03:31Z</time>
      </trkpt>
      <trkpt lat="38.0106376391" lon="-8.6987402849">
        <ele>165.48</ele>
        <time>2019-12-30T12:03:39Z</time>
      </trkpt>
      <trkpt lat="38.0106804706" lon="-8.6987553723">
        <ele>165.48</ele>
        <time>2019-12-30T12:03:44Z</time>
      </trkpt>
      <trkpt lat="38.0107521359" lon="-8.6987666879">
        <ele>165.96</ele>
        <time>2019-12-30T12:03:54Z</time>
      </trkpt>
      <trkpt lat="38.0107580870" lon="-8.6987676937">
        <ele>165.96</ele>
        <time>2019-12-30T12:03:56Z</time>
      </trkpt>
      <trkpt lat="38.0107875075" lon="-8.6987633351">
        <ele>166.45</ele>
        <time>2019-12-30T12:04:08Z</time>
      </trkpt>
      <trkpt lat="38.0108581670" lon="-8.6986930948">
        <ele>166.45</ele>
        <time>2019-12-30T12:04:19Z</time>
      </trkpt>
      <trkpt lat="38.0109801237" lon="-8.6987809371">
        <ele>166.93</ele>
        <time>2019-12-30T12:04:31Z</time>
      </trkpt>
      <trkpt lat="38.0109961331" lon="-8.6987583898">
        <ele>166.45</ele>
        <time>2019-12-30T12:04:33Z</time>
      </trkpt>
      <trkpt lat="38.0110289063" lon="-8.6987059191">
        <ele>166.45</ele>
        <time>2019-12-30T12:04:38Z</time>
      </trkpt>
      <trkpt lat="38.0110353604" lon="-8.6986506823">
        <ele>166.93</ele>
        <time>2019-12-30T12:04:43Z</time>
      </trkpt>
      <trkpt lat="38.0110366177" lon="-8.6985760834">
        <ele>166.45</ele>
        <time>2019-12-30T12:04:48Z</time>
      </trkpt>
      <trkpt lat="38.0110341869" lon="-8.6984840501">
        <ele>166.93</ele>
        <time>2019-12-30T12:04:57Z</time>
      </trkpt>
      <trkpt lat="38.0110338517" lon="-8.6984502710">
        <ele>166.93</ele>
        <time>2019-12-30T12:04:59Z</time>
      </trkpt>
      <trkpt lat="38.0110455863" lon="-8.6984132230">
        <ele>167.41</ele>
        <time>2019-12-30T12:05:13Z</time>
      </trkpt>
      <trkpt lat="38.0110522080" lon="-8.6983870715">
        <ele>167.41</ele>
        <time>2019-12-30T12:05:30Z</time>
      </trkpt>
      <trkpt lat="38.0110520404" lon="-8.6983752530">
        <ele>167.89</ele>
        <time>2019-12-30T12:05:31Z</time>
      </trkpt>
      <trkpt lat="38.0110755935" lon="-8.6982909311">
        <ele>168.37</ele>
        <time>2019-12-30T12:05:38Z</time>
      </trkpt>
      <trkpt lat="38.0110765994" lon="-8.6982676294">
        <ele>168.37</ele>
        <time>2019-12-30T12:05:40Z</time>
      </trkpt>
      <trkpt lat="38.0110765994" lon="-8.6982407235">
        <ele>168.37</ele>
        <time>2019-12-30T12:05:42Z</time>
      </trkpt>
      <trkpt lat="38.0110323429" lon="-8.6981797032">
        <ele>167.89</ele>
        <time>2019-12-30T12:05:49Z</time>
      </trkpt>
      <trkpt lat="38.0110322591" lon="-8.6980460957">
        <ele>168.37</ele>
        <time>2019-12-30T12:05:58Z</time>
      </trkpt>
      <trkpt lat="38.0110453349" lon="-8.6980210338">
        <ele>168.37</ele>
        <time>2019-12-30T12:06:00Z</time>
      </trkpt>
      <trkpt lat="38.0110522080" lon="-8.6979989056">
        <ele>168.37</ele>
        <time>2019-12-30T12:06:02Z</time>
      </trkpt>
      <trkpt lat="38.0110926088" lon="-8.6979637854">
        <ele>168.85</ele>
        <time>2019-12-30T12:06:09Z</time>
      </trkpt>
      <trkpt lat="38.0111360271" lon="-8.6979093868">
        <ele>168.37</ele>
        <time>2019-12-30T12:06:13Z</time>
      </trkpt>
      <trkpt lat="38.0111666210" lon="-8.6977969855">
        <ele>168.37</ele>
        <time>2019-12-30T12:06:21Z</time>
      </trkpt>
      <trkpt lat="38.0111786909" lon="-8.6977709178">
        <ele>168.37</ele>
        <time>2019-12-30T12:06:23Z</time>
      </trkpt>
      <trkpt lat="38.0111995619" lon="-8.6976859253">
        <ele>168.85</ele>
        <time>2019-12-30T12:06:29Z</time>
      </trkpt>
      <trkpt lat="38.0112120509" lon="-8.6976617016">
        <ele>168.85</ele>
        <time>2019-12-30T12:06:31Z</time>
      </trkpt>
      <trkpt lat="38.0112325866" lon="-8.6976062972">
        <ele>168.37</ele>
        <time>2019-12-30T12:06:35Z</time>
      </trkpt>
      <trkpt lat="38.0112608336" lon="-8.6975307763">
        <ele>168.37</ele>
        <time>2019-12-30T12:06:41Z</time>
      </trkpt>
      <trkpt lat="38.0112354364" lon="-8.6974534113">
        <ele>167.89</ele>
        <time>2019-12-30T12:06:51Z</time>
      </trkpt>
      <trkpt lat="38.0112007353" lon="-8.6974338815">
        <ele>167.89</ele>
        <time>2019-12-30T12:07:07Z</time>
      </trkpt>
      <trkpt lat="38.0112502724" lon="-8.6974761263">
        <ele>168.37</ele>
        <time>2019-12-30T12:07:26Z</time>
      </trkpt>
      <trkpt lat="38.0112597439" lon="-8.6974676605">
        <ele>168.37</ele>
        <time>2019-12-30T12:07:27Z</time>
      </trkpt>
      <trkpt lat="38.0112797767" lon="-8.6974109989">
        <ele>168.85</ele>
        <time>2019-12-30T12:07:32Z</time>
      </trkpt>
      <trkpt lat="38.0112872366" lon="-8.6973580252">
        <ele>169.33</ele>
        <time>2019-12-30T12:07:36Z</time>
      </trkpt>
      <trkpt lat="38.0113183334" lon="-8.6973077338">
        <ele>169.33</ele>
        <time>2019-12-30T12:07:41Z</time>
      </trkpt>
      <trkpt lat="38.0113208480" lon="-8.6972789001">
        <ele>169.33</ele>
        <time>2019-12-30T12:07:45Z</time>
      </trkpt>
      <trkpt lat="38.0113456585" lon="-8.6972271837">
        <ele>170.77</ele>
        <time>2019-12-30T12:07:50Z</time>
      </trkpt>
      <trkpt lat="38.0113435630" lon="-8.6972034629">
        <ele>170.29</ele>
        <time>2019-12-30T12:07:52Z</time>
      </trkpt>
      <trkpt lat="38.0113268830" lon="-8.6971432809">
        <ele>170.29</ele>
        <time>2019-12-30T12:07:57Z</time>
      </trkpt>
      <trkpt lat="38.0113407969" lon="-8.6971198115">
        <ele>170.29</ele>
        <time>2019-12-30T12:07:59Z</time>
      </trkpt>
      <trkpt lat="38.0113474187" lon="-8.6970948335">
        <ele>170.29</ele>
        <time>2019-12-30T12:08:01Z</time>
      </trkpt>
      <trkpt lat="38.0113430601" lon="-8.6970600486">
        <ele>170.29</ele>
        <time>2019-12-30T12:08:04Z</time>
      </trkpt>
      <trkpt lat="38.0113612488" lon="-8.6970286164">
        <ele>169.81</ele>
        <time>2019-12-30T12:08:07Z</time>
      </trkpt>
      <trkpt lat="38.0113543756" lon="-8.6969764810">
        <ele>169.81</ele>
        <time>2019-12-30T12:08:11Z</time>
      </trkpt>
      <trkpt lat="38.0114105344" lon="-8.6969483178">
        <ele>171.25</ele>
        <time>2019-12-30T12:08:18Z</time>
      </trkpt>
      <trkpt lat="38.0114463251" lon="-8.6969289556">
        <ele>171.73</ele>
        <time>2019-12-30T12:08:23Z</time>
      </trkpt>
      <trkpt lat="38.0115758255" lon="-8.6969350744">
        <ele>173.17</ele>
        <time>2019-12-30T12:08:34Z</time>
      </trkpt>
      <trkpt lat="38.0115800165" lon="-8.6971425265">
        <ele>173.17</ele>
        <time>2019-12-30T12:08:48Z</time>
      </trkpt>
      <trkpt lat="38.0115611572" lon="-8.6972139403">
        <ele>173.17</ele>
        <time>2019-12-30T12:08:53Z</time>
      </trkpt>
      <trkpt lat="38.0115368497" lon="-8.6973695923">
        <ele>173.17</ele>
        <time>2019-12-30T12:09:04Z</time>
      </trkpt>
      <trkpt lat="38.0115272105" lon="-8.6973950732">
        <ele>173.66</ele>
        <time>2019-12-30T12:09:06Z</time>
      </trkpt>
      <trkpt lat="38.0115221813" lon="-8.6974334624">
        <ele>174.62</ele>
        <time>2019-12-30T12:09:09Z</time>
      </trkpt>
      <trkpt lat="38.0114889052" lon="-8.6975929700">
        <ele>175.10</ele>
        <time>2019-12-30T12:09:21Z</time>
      </trkpt>
      <trkpt lat="38.0114665255" lon="-8.6976356339">
        <ele>175.10</ele>
        <time>2019-12-30T12:09:24Z</time>
      </trkpt>
      <trkpt lat="38.0114385299" lon="-8.6977359653">
        <ele>176.06</ele>
        <time>2019-12-30T12:09:31Z</time>
      </trkpt>
      <trkpt lat="38.0114191677" lon="-8.6978229694">
        <ele>176.06</ele>
        <time>2019-12-30T12:09:37Z</time>
      </trkpt>
      <trkpt lat="38.0114072654" lon="-8.6978669744">
        <ele>176.54</ele>
        <time>2019-12-30T12:09:40Z</time>
      </trkpt>
      <trkpt lat="38.0113985483" lon="-8.6978884321">
        <ele>177.02</ele>
        <time>2019-12-30T12:09:42Z</time>
      </trkpt>
      <trkpt lat="38.0114008952" lon="-8.6979779508">
        <ele>177.02</ele>
        <time>2019-12-30T12:09:48Z</time>
      </trkpt>
      <trkpt lat="38.0114272982" lon="-8.6980188545">
        <ele>177.98</ele>
        <time>2019-12-30T12:09:52Z</time>
      </trkpt>
      <trkpt lat="38.0114749912" lon="-8.6980025098">
        <ele>179.42</ele>
        <time>2019-12-30T12:09:57Z</time>
      </trkpt>
      <trkpt lat="38.0115294736" lon="-8.6979893502">
        <ele>179.90</ele>
        <time>2019-12-30T12:10:01Z</time>
      </trkpt>
      <trkpt lat="38.0115364306" lon="-8.6979669705">
        <ele>180.38</ele>
        <time>2019-12-30T12:10:03Z</time>
      </trkpt>
      <trkpt lat="38.0115673598" lon="-8.6979075428">
        <ele>180.87</ele>
        <time>2019-12-30T12:10:09Z</time>
      </trkpt>
      <trkpt lat="38.0115894880" lon="-8.6978989933">
        <ele>182.31</ele>
        <time>2019-12-30T12:10:12Z</time>
      </trkpt>
      <trkpt lat="38.0116412044" lon="-8.6978589278">
        <ele>183.75</ele>
        <time>2019-12-30T12:10:19Z</time>
      </trkpt>
      <trkpt lat="38.0116805155" lon="-8.6978475284">
        <ele>184.71</ele>
        <time>2019-12-30T12:10:23Z</time>
      </trkpt>
      <trkpt lat="38.0116921663" lon="-8.6978163477">
        <ele>185.19</ele>
        <time>2019-12-30T12:10:26Z</time>
      </trkpt>
      <trkpt lat="38.0117286276" lon="-8.6977175251">
        <ele>185.67</ele>
        <time>2019-12-30T12:10:34Z</time>
      </trkpt>
      <trkpt lat="38.0117836129" lon="-8.6976095662">
        <ele>187.11</ele>
        <time>2019-12-30T12:10:45Z</time>
      </trkpt>
      <trkpt lat="38.0118401069" lon="-8.6975420918">
        <ele>189.52</ele>
        <time>2019-12-30T12:10:55Z</time>
      </trkpt>
      <trkpt lat="38.0118644983" lon="-8.6975171976">
        <ele>190.00</ele>
        <time>2019-12-30T12:11:08Z</time>
      </trkpt>
      <trkpt lat="38.0118827708" lon="-8.6975114141">
        <ele>190.48</ele>
        <time>2019-12-30T12:11:10Z</time>
      </trkpt>
      <trkpt lat="38.0119067430" lon="-8.6974863522">
        <ele>190.48</ele>
        <time>2019-12-30T12:11:12Z</time>
      </trkpt>
      <trkpt lat="38.0119694397" lon="-8.6974326242">
        <ele>192.40</ele>
        <time>2019-12-30T12:11:20Z</time>
      </trkpt>
      <trkpt lat="38.0119921546" lon="-8.6974205542">
        <ele>192.88</ele>
        <time>2019-12-30T12:11:22Z</time>
      </trkpt>
      <trkpt lat="38.0120121874" lon="-8.6973976716">
        <ele>192.88</ele>
        <time>2019-12-30T12:11:25Z</time>
      </trkpt>
      <trkpt lat="38.0120936595" lon="-8.6973006930">
        <ele>196.25</ele>
        <time>2019-12-30T12:11:37Z</time>
      </trkpt>
      <trkpt lat="38.0121026281" lon="-8.6972969212">
        <ele>195.77</ele>
        <time>2019-12-30T12:11:38Z</time>
      </trkpt>
      <trkpt lat="38.0121209007" lon="-8.6972781457">
        <ele>197.21</ele>
        <time>2019-12-30T12:11:41Z</time>
      </trkpt>
      <trkpt lat="38.0121792387" lon="-8.6972286087">
        <ele>198.17</ele>
        <time>2019-12-30T12:11:48Z</time>
      </trkpt>
      <trkpt lat="38.0122346431" lon="-8.6971590389">
        <ele>200.09</ele>
        <time>2019-12-30T12:11:56Z</time>
      </trkpt>
      <trkpt lat="38.0122778099" lon="-8.6970890500">
        <ele>201.53</ele>
        <time>2019-12-30T12:12:03Z</time>
      </trkpt>
      <trkpt lat="38.0123120081" lon="-8.6970682628">
        <ele>202.01</ele>
        <time>2019-12-30T12:12:06Z</time>
      </trkpt>
      <trkpt lat="38.0123383272" lon="-8.6970359925">
        <ele>202.49</ele>
        <time>2019-12-30T12:12:09Z</time>
      </trkpt>
      <trkpt lat="38.0123724416" lon="-8.6970203184">
        <ele>203.46</ele>
        <time>2019-12-30T12:12:13Z</time>
      </trkpt>
      <trkpt lat="38.0124222301" lon="-8.6969958432">
        <ele>204.42</ele>
        <time>2019-12-30T12:12:17Z</time>
      </trkpt>
      <trkpt lat="38.0124752037" lon="-8.6969811749">
        <ele>205.38</ele>
        <time>2019-12-30T12:12:22Z</time>
      </trkpt>
      <trkpt lat="38.0125051271" lon="-8.6969204061">
        <ele>206.34</ele>
        <time>2019-12-30T12:12:27Z</time>
      </trkpt>
      <trkpt lat="38.0125436839" lon="-8.6968771555">
        <ele>207.78</ele>
        <time>2019-12-30T12:12:32Z</time>
      </trkpt>
      <trkpt lat="38.0126008485" lon="-8.6968271155">
        <ele>209.22</ele>
        <time>2019-12-30T12:12:40Z</time>
      </trkpt>
      <trkpt lat="38.0126139242" lon="-8.6968032271">
        <ele>209.22</ele>
        <time>2019-12-30T12:12:43Z</time>
      </trkpt>
      <trkpt lat="38.0126482062" lon="-8.6967929173">
        <ele>209.70</ele>
        <time>2019-12-30T12:12:46Z</time>
      </trkpt>
      <trkpt lat="38.0126930494" lon="-8.6967730522">
        <ele>211.15</ele>
        <time>2019-12-30T12:12:50Z</time>
      </trkpt>
      <trkpt lat="38.0127523933" lon="-8.6967315618">
        <ele>212.11</ele>
        <time>2019-12-30T12:12:57Z</time>
      </trkpt>
      <trkpt lat="38.0128103960" lon="-8.6967133731">
        <ele>213.55</ele>
        <time>2019-12-30T12:13:03Z</time>
      </trkpt>
      <trkpt lat="38.0128579214" lon="-8.6966990400">
        <ele>214.51</ele>
        <time>2019-12-30T12:13:07Z</time>
      </trkpt>
      <trkpt lat="38.0129024293" lon="-8.6966837011">
        <ele>214.99</ele>
        <time>2019-12-30T12:13:11Z</time>
      </trkpt>
      <trkpt lat="38.0129346158" lon="-8.6966752354">
        <ele>215.95</ele>
        <time>2019-12-30T12:13:15Z</time>
      </trkpt>
      <trkpt lat="38.0129579175" lon="-8.6966692004">
        <ele>216.43</ele>
        <time>2019-12-30T12:13:17Z</time>
      </trkpt>
      <trkpt lat="38.0129912775" lon="-8.6966619082">
        <ele>217.40</ele>
        <time>2019-12-30T12:13:21Z</time>
      </trkpt>
      <trkpt lat="38.0130414851" lon="-8.6966416240">
        <ele>218.84</ele>
        <time>2019-12-30T12:13:29Z</time>
      </trkpt>
      <trkpt lat="38.0130830593" lon="-8.6966165621">
        <ele>219.80</ele>
        <time>2019-12-30T12:13:35Z</time>
      </trkpt>
      <trkpt lat="38.0131207779" lon="-8.6966060009">
        <ele>220.76</ele>
        <time>2019-12-30T12:13:38Z</time>
      </trkpt>
      <trkpt lat="38.0131547246" lon="-8.6966014747">
        <ele>221.24</ele>
        <time>2019-12-30T12:13:41Z</time>
      </trkpt>
      <trkpt lat="38.0132229533" lon="-8.6965916678">
        <ele>223.16</ele>
        <time>2019-12-30T12:13:49Z</time>
      </trkpt>
      <trkpt lat="38.0132394657" lon="-8.6965659354">
        <ele>225.09</ele>
        <time>2019-12-30T12:13:58Z</time>
      </trkpt>
      <trkpt lat="38.0132965464" lon="-8.6965686176">
        <ele>225.09</ele>
        <time>2019-12-30T12:14:03Z</time>
      </trkpt>
      <trkpt lat="38.0134229455" lon="-8.6965298932">
        <ele>225.09</ele>
        <time>2019-12-30T12:14:13Z</time>
      </trkpt>
      <trkpt lat="38.0134792719" lon="-8.6965369340">
        <ele>226.53</ele>
        <time>2019-12-30T12:14:21Z</time>
      </trkpt>
      <trkpt lat="38.0135004781" lon="-8.6965324916">
        <ele>226.53</ele>
        <time>2019-12-30T12:14:23Z</time>
      </trkpt>
      <trkpt lat="38.0135207623" lon="-8.6965240259">
        <ele>227.49</ele>
        <time>2019-12-30T12:14:25Z</time>
      </trkpt>
      <trkpt lat="38.0135651026" lon="-8.6964926776">
        <ele>227.97</ele>
        <time>2019-12-30T12:14:30Z</time>
      </trkpt>
      <trkpt lat="38.0136718880" lon="-8.6964640953">
        <ele>229.41</ele>
        <time>2019-12-30T12:14:41Z</time>
      </trkpt>
      <trkpt lat="38.0136957765" lon="-8.6964646820">
        <ele>229.89</ele>
        <time>2019-12-30T12:14:44Z</time>
      </trkpt>
      <trkpt lat="38.0137437209" lon="-8.6964694597">
        <ele>230.37</ele>
        <time>2019-12-30T12:14:48Z</time>
      </trkpt>
      <trkpt lat="38.0138064176" lon="-8.6964667775">
        <ele>230.85</ele>
        <time>2019-12-30T12:14:52Z</time>
      </trkpt>
      <trkpt lat="38.0138434656" lon="-8.6964722257">
        <ele>231.81</ele>
        <time>2019-12-30T12:14:56Z</time>
      </trkpt>
      <trkpt lat="38.0138873030" lon="-8.6964639276">
        <ele>231.33</ele>
        <time>2019-12-30T12:15:00Z</time>
      </trkpt>
      <trkpt lat="38.0140099302" lon="-8.6964581441">
        <ele>231.33</ele>
        <time>2019-12-30T12:15:09Z</time>
      </trkpt>
      <trkpt lat="38.0140748899" lon="-8.6965067592">
        <ele>233.26</ele>
        <time>2019-12-30T12:15:21Z</time>
      </trkpt>
      <trkpt lat="38.0141204037" lon="-8.6964820325">
        <ele>233.26</ele>
        <time>2019-12-30T12:15:30Z</time>
      </trkpt>
      <trkpt lat="38.0141376704" lon="-8.6964998022">
        <ele>234.22</ele>
        <time>2019-12-30T12:15:37Z</time>
      </trkpt>
      <trkpt lat="38.0141694378" lon="-8.6965529434">
        <ele>233.74</ele>
        <time>2019-12-30T12:15:43Z</time>
      </trkpt>
      <trkpt lat="38.0142040551" lon="-8.6966488324">
        <ele>236.14</ele>
        <time>2019-12-30T12:15:53Z</time>
      </trkpt>
      <trkpt lat="38.0142142810" lon="-8.6966666020">
        <ele>236.62</ele>
        <time>2019-12-30T12:15:58Z</time>
      </trkpt>
      <trkpt lat="38.0142556038" lon="-8.6967920791">
        <ele>238.54</ele>
        <time>2019-12-30T12:16:08Z</time>
      </trkpt>
      <trkpt lat="38.0142681766" lon="-8.6968089268">
        <ele>239.02</ele>
        <time>2019-12-30T12:16:10Z</time>
      </trkpt>
      <trkpt lat="38.0142696016" lon="-8.6968447175">
        <ele>239.51</ele>
        <time>2019-12-30T12:16:13Z</time>
      </trkpt>
      <trkpt lat="38.0142747983" lon="-8.6968693603">
        <ele>240.47</ele>
        <time>2019-12-30T12:16:15Z</time>
      </trkpt>
      <trkpt lat="38.0142894667" lon="-8.6969162989">
        <ele>241.43</ele>
        <time>2019-12-30T12:16:23Z</time>
      </trkpt>
      <trkpt lat="38.0142774805" lon="-8.6969401035">
        <ele>241.91</ele>
        <time>2019-12-30T12:16:26Z</time>
      </trkpt>
      <trkpt lat="38.0142468866" lon="-8.6970392615">
        <ele>243.83</ele>
        <time>2019-12-30T12:16:34Z</time>
      </trkpt>
      <trkpt lat="38.0142079107" lon="-8.6971033830">
        <ele>245.27</ele>
        <time>2019-12-30T12:16:39Z</time>
      </trkpt>
      <trkpt lat="38.0142038036" lon="-8.6971637327">
        <ele>246.72</ele>
        <time>2019-12-30T12:16:45Z</time>
      </trkpt>
      <trkpt lat="38.0141611397" lon="-8.6972811632">
        <ele>249.12</ele>
        <time>2019-12-30T12:16:55Z</time>
      </trkpt>
      <trkpt lat="38.0141452141" lon="-8.6973363161">
        <ele>250.08</ele>
        <time>2019-12-30T12:17:00Z</time>
      </trkpt>
      <trkpt lat="38.0140732974" lon="-8.6974258348">
        <ele>252.00</ele>
        <time>2019-12-30T12:17:12Z</time>
      </trkpt>
      <trkpt lat="38.0140605569" lon="-8.6974311993">
        <ele>252.48</ele>
        <time>2019-12-30T12:17:27Z</time>
      </trkpt>
      <trkpt lat="38.0140293762" lon="-8.6973999348">
        <ele>252.48</ele>
        <time>2019-12-30T12:17:31Z</time>
      </trkpt>
      <trkpt lat="38.0140096787" lon="-8.6973803211">
        <ele>252.48</ele>
        <time>2019-12-30T12:17:34Z</time>
      </trkpt>
      <trkpt lat="38.0139070004" lon="-8.6973675806">
        <ele>252.48</ele>
        <time>2019-12-30T12:17:47Z</time>
      </trkpt>
      <trkpt lat="38.0138874706" lon="-8.6973571032">
        <ele>252.48</ele>
        <time>2019-12-30T12:18:01Z</time>
      </trkpt>
      <trkpt lat="38.0138923321" lon="-8.6973887030">
        <ele>252.96</ele>
        <time>2019-12-30T12:18:11Z</time>
      </trkpt>
      <trkpt lat="38.0139281228" lon="-8.6974063888">
        <ele>252.96</ele>
        <time>2019-12-30T12:18:23Z</time>
      </trkpt>
      <trkpt lat="38.0139427911" lon="-8.6974521540">
        <ele>254.41</ele>
        <time>2019-12-30T12:18:36Z</time>
      </trkpt>
      <trkpt lat="38.0139505025" lon="-8.6974918842">
        <ele>256.33</ele>
        <time>2019-12-30T12:18:45Z</time>
      </trkpt>
      <trkpt lat="38.0139748938" lon="-8.6975328717">
        <ele>256.81</ele>
        <time>2019-12-30T12:18:51Z</time>
      </trkpt>
      <trkpt lat="38.0139987823" lon="-8.6976001784">
        <ele>256.81</ele>
        <time>2019-12-30T12:19:05Z</time>
      </trkpt>
      <trkpt lat="38.0139931664" lon="-8.6976270843">
        <ele>256.33</ele>
        <time>2019-12-30T12:19:17Z</time>
      </trkpt>
      <trkpt lat="38.0139919929" lon="-8.6976346280">
        <ele>256.33</ele>
        <time>2019-12-30T12:19:50Z</time>
      </trkpt>
      <trkpt lat="38.0139908195" lon="-8.6976354662">
        <ele>256.33</ele>
        <time>2019-12-30T12:20:27Z</time>
      </trkpt>
      <trkpt lat="38.0139891431" lon="-8.6976375617">
        <ele>256.33</ele>
        <time>2019-12-30T12:21:04Z</time>
      </trkpt>
      <trkpt lat="38.0139880534" lon="-8.6976399925">
        <ele>255.85</ele>
        <time>2019-12-30T12:21:42Z</time>
      </trkpt>
      <trkpt lat="38.0139880534" lon="-8.6976399925">
        <ele>256.81</ele>
        <time>2019-12-30T12:21:49Z</time>
      </trkpt>
      <trkpt lat="38.0139985308" lon="-8.6976068001">
        <ele>256.81</ele>
        <time>2019-12-30T12:21:52Z</time>
      </trkpt>
      <trkpt lat="38.0140204914" lon="-8.6975534912">
        <ele>256.33</ele>
        <time>2019-12-30T12:22:06Z</time>
      </trkpt>
      <trkpt lat="38.0140328966" lon="-8.6975555867">
        <ele>257.29</ele>
        <time>2019-12-30T12:22:27Z</time>
      </trkpt>
      <trkpt lat="38.0140348244" lon="-8.6975565087">
        <ele>257.29</ele>
        <time>2019-12-30T12:22:46Z</time>
      </trkpt>
      <trkpt lat="38.0140370037" lon="-8.6975595262">
        <ele>256.81</ele>
        <time>2019-12-30T12:23:08Z</time>
      </trkpt>
      <trkpt lat="38.0140400212" lon="-8.6975822411">
        <ele>256.81</ele>
        <time>2019-12-30T12:23:24Z</time>
      </trkpt>
      <trkpt lat="38.0140352435" lon="-8.6976052076">
        <ele>256.81</ele>
        <time>2019-12-30T12:23:26Z</time>
      </trkpt>
      <trkpt lat="38.0140291248" lon="-8.6977057066">
        <ele>257.29</ele>
        <time>2019-12-30T12:23:38Z</time>
      </trkpt>
      <trkpt lat="38.0140568689" lon="-8.6977290921">
        <ele>257.29</ele>
        <time>2019-12-30T12:23:54Z</time>
      </trkpt>
      <trkpt lat="38.0140845291" lon="-8.6977478676">
        <ele>257.77</ele>
        <time>2019-12-30T12:24:08Z</time>
      </trkpt>
      <trkpt lat="38.0140940845" lon="-8.6977614462">
        <ele>257.29</ele>
        <time>2019-12-30T12:24:13Z</time>
      </trkpt>
      <trkpt lat="38.0141093396" lon="-8.6977787968">
        <ele>257.77</ele>
        <time>2019-12-30T12:24:15Z</time>
      </trkpt>
      <trkpt lat="38.0142299552" lon="-8.6978636216">
        <ele>258.73</ele>
        <time>2019-12-30T12:24:29Z</time>
      </trkpt>
      <trkpt lat="38.0142400973" lon="-8.6978518870">
        <ele>258.73</ele>
        <time>2019-12-30T12:24:31Z</time>
      </trkpt>
      <trkpt lat="38.0142587889" lon="-8.6978668906">
        <ele>258.73</ele>
        <time>2019-12-30T12:24:33Z</time>
      </trkpt>
      <trkpt lat="38.0142794084" lon="-8.6978881806">
        <ele>258.73</ele>
        <time>2019-12-30T12:24:35Z</time>
      </trkpt>
      <trkpt lat="38.0143046379" lon="-8.6979497038">
        <ele>258.73</ele>
        <time>2019-12-30T12:24:46Z</time>
      </trkpt>
      <trkpt lat="38.0143445358" lon="-8.6979568284">
        <ele>258.25</ele>
        <time>2019-12-30T12:24:59Z</time>
      </trkpt>
      <trkpt lat="38.0143711902" lon="-8.6979831476">
        <ele>257.77</ele>
        <time>2019-12-30T12:25:15Z</time>
      </trkpt>
      <trkpt lat="38.0143433623" lon="-8.6979610194">
        <ele>258.25</ele>
        <time>2019-12-30T12:25:29Z</time>
      </trkpt>
      <trkpt lat="38.0143409315" lon="-8.6979686469">
        <ele>258.73</ele>
        <time>2019-12-30T12:25:30Z</time>
      </trkpt>
      <trkpt lat="38.0143951625" lon="-8.6980829760">
        <ele>259.69</ele>
        <time>2019-12-30T12:25:41Z</time>
      </trkpt>
      <trkpt lat="38.0144182127" lon="-8.6981108040">
        <ele>260.17</ele>
        <time>2019-12-30T12:25:44Z</time>
      </trkpt>
      <trkpt lat="38.0145141855" lon="-8.6982281506">
        <ele>260.65</ele>
        <time>2019-12-30T12:25:56Z</time>
      </trkpt>
      <trkpt lat="38.0145612918" lon="-8.6983034201">
        <ele>260.65</ele>
        <time>2019-12-30T12:26:02Z</time>
      </trkpt>
      <trkpt lat="38.0146345496" lon="-8.6983749177">
        <ele>260.65</ele>
        <time>2019-12-30T12:26:11Z</time>
      </trkpt>
      <trkpt lat="38.0146529060" lon="-8.6983880773">
        <ele>260.65</ele>
        <time>2019-12-30T12:26:13Z</time>
      </trkpt>
      <trkpt lat="38.0147334561" lon="-8.6985161528">
        <ele>260.17</ele>
        <time>2019-12-30T12:26:25Z</time>
      </trkpt>
      <trkpt lat="38.0148088932" lon="-8.6985792685">
        <ele>260.17</ele>
        <time>2019-12-30T12:26:32Z</time>
      </trkpt>
      <trkpt lat="38.0149083026" lon="-8.6986848805">
        <ele>259.69</ele>
        <time>2019-12-30T12:26:42Z</time>
      </trkpt>
      <trkpt lat="38.0149704125" lon="-8.6988222599">
        <ele>258.25</ele>
        <time>2019-12-30T12:26:55Z</time>
      </trkpt>
      <trkpt lat="38.0149611924" lon="-8.6988487467">
        <ele>258.73</ele>
        <time>2019-12-30T12:26:57Z</time>
      </trkpt>
      <trkpt lat="38.0149461050" lon="-8.6988950986">
        <ele>259.21</ele>
        <time>2019-12-30T12:27:09Z</time>
      </trkpt>
      <trkpt lat="38.0149216298" lon="-8.6989214178">
        <ele>259.21</ele>
        <time>2019-12-30T12:27:12Z</time>
      </trkpt>
      <trkpt lat="38.0148792174" lon="-8.6990014650">
        <ele>259.69</ele>
        <time>2019-12-30T12:27:19Z</time>
      </trkpt>
      <trkpt lat="38.0147818197" lon="-8.6991038918">
        <ele>259.21</ele>
        <time>2019-12-30T12:27:32Z</time>
      </trkpt>
      <trkpt lat="38.0147584341" lon="-8.6991250142">
        <ele>258.25</ele>
        <time>2019-12-30T12:27:35Z</time>
      </trkpt>
      <trkpt lat="38.0147401616" lon="-8.6991569493">
        <ele>258.25</ele>
        <time>2019-12-30T12:27:38Z</time>
      </trkpt>
      <trkpt lat="38.0146405846" lon="-8.6992168799">
        <ele>257.29</ele>
        <time>2019-12-30T12:27:50Z</time>
      </trkpt>
      <trkpt lat="38.0146406684" lon="-8.6992173828">
        <ele>256.81</ele>
        <time>2019-12-30T12:28:05Z</time>
      </trkpt>
      <trkpt lat="38.0146248266" lon="-8.6991860345">
        <ele>257.29</ele>
        <time>2019-12-30T12:28:13Z</time>
      </trkpt>
      <trkpt lat="38.0145898741" lon="-8.6991181411">
        <ele>256.81</ele>
        <time>2019-12-30T12:28:20Z</time>
      </trkpt>
      <trkpt lat="38.0144809932" lon="-8.6990137864">
        <ele>256.81</ele>
        <time>2019-12-30T12:28:33Z</time>
      </trkpt>
      <trkpt lat="38.0144008622" lon="-8.6989566218">
        <ele>256.33</ele>
        <time>2019-12-30T12:28:41Z</time>
      </trkpt>
      <trkpt lat="38.0143803265" lon="-8.6989517603">
        <ele>256.33</ele>
        <time>2019-12-30T12:28:43Z</time>
      </trkpt>
      <trkpt lat="38.0143099185" lon="-8.6989308055">
        <ele>255.85</ele>
        <time>2019-12-30T12:28:50Z</time>
      </trkpt>
      <trkpt lat="38.0141932424" lon="-8.6988132074">
        <ele>255.85</ele>
        <time>2019-12-30T12:29:03Z</time>
      </trkpt>
      <trkpt lat="38.0140754767" lon="-8.6987417936">
        <ele>256.33</ele>
        <time>2019-12-30T12:29:15Z</time>
      </trkpt>
      <trkpt lat="38.0140215810" lon="-8.6987433862">
        <ele>256.33</ele>
        <time>2019-12-30T12:29:20Z</time>
      </trkpt>
      <trkpt lat="38.0139188189" lon="-8.6985727306">
        <ele>256.81</ele>
        <time>2019-12-30T12:29:34Z</time>
      </trkpt>
      <trkpt lat="38.0137940124" lon="-8.6984650232">
        <ele>255.85</ele>
        <time>2019-12-30T12:29:48Z</time>
      </trkpt>
      <trkpt lat="38.0137851276" lon="-8.6984658614">
        <ele>256.33</ele>
        <time>2019-12-30T12:30:08Z</time>
      </trkpt>
      <trkpt lat="38.0137671065" lon="-8.6984397098">
        <ele>256.33</ele>
        <time>2019-12-30T12:30:12Z</time>
      </trkpt>
      <trkpt lat="38.0137499236" lon="-8.6983912624">
        <ele>256.81</ele>
        <time>2019-12-30T12:30:18Z</time>
      </trkpt>
      <trkpt lat="38.0137520190" lon="-8.6983367801">
        <ele>257.77</ele>
        <time>2019-12-30T12:30:23Z</time>
      </trkpt>
      <trkpt lat="38.0137365125" lon="-8.6981856544">
        <ele>257.77</ele>
        <time>2019-12-30T12:30:33Z</time>
      </trkpt>
      <trkpt lat="38.0137246102" lon="-8.6981652863">
        <ele>257.77</ele>
        <time>2019-12-30T12:30:35Z</time>
      </trkpt>
      <trkpt lat="38.0137247778" lon="-8.6981322616">
        <ele>257.77</ele>
        <time>2019-12-30T12:30:38Z</time>
      </trkpt>
      <trkpt lat="38.0137391947" lon="-8.6980053596">
        <ele>258.25</ele>
        <time>2019-12-30T12:30:49Z</time>
      </trkpt>
      <trkpt lat="38.0137506779" lon="-8.6979357060">
        <ele>257.77</ele>
        <time>2019-12-30T12:30:55Z</time>
      </trkpt>
      <trkpt lat="38.0137544498" lon="-8.6979119014">
        <ele>257.77</ele>
        <time>2019-12-30T12:30:57Z</time>
      </trkpt>
      <trkpt lat="38.0137640052" lon="-8.6978621967">
        <ele>257.77</ele>
        <time>2019-12-30T12:31:01Z</time>
      </trkpt>
      <trkpt lat="38.0138107762" lon="-8.6977580935">
        <ele>258.25</ele>
        <time>2019-12-30T12:31:15Z</time>
      </trkpt>
      <trkpt lat="38.0138034001" lon="-8.6977319419">
        <ele>257.29</ele>
        <time>2019-12-30T12:31:33Z</time>
      </trkpt>
      <trkpt lat="38.0138223432" lon="-8.6975834984">
        <ele>257.29</ele>
        <time>2019-12-30T12:31:45Z</time>
      </trkpt>
      <trkpt lat="38.0138304736" lon="-8.6975353025">
        <ele>257.77</ele>
        <time>2019-12-30T12:31:49Z</time>
      </trkpt>
      <trkpt lat="38.0138118658" lon="-8.6975104082">
        <ele>257.29</ele>
        <time>2019-12-30T12:32:04Z</time>
      </trkpt>
      <trkpt lat="38.0138140451" lon="-8.6975163594">
        <ele>257.77</ele>
        <time>2019-12-30T12:32:21Z</time>
      </trkpt>
      <trkpt lat="38.0138982832" lon="-8.6975450255">
        <ele>257.29</ele>
        <time>2019-12-30T12:32:34Z</time>
      </trkpt>
      <trkpt lat="38.0139116943" lon="-8.6975455284">
        <ele>257.77</ele>
        <time>2019-12-30T12:32:50Z</time>
      </trkpt>
      <trkpt lat="38.0139170587" lon="-8.6975242384">
        <ele>257.29</ele>
        <time>2019-12-30T12:33:10Z</time>
      </trkpt>
      <trkpt lat="38.0139618181" lon="-8.6975593586">
        <ele>257.77</ele>
        <time>2019-12-30T12:33:29Z</time>
      </trkpt>
      <trkpt lat="38.0139970221" lon="-8.6976104043">
        <ele>257.77</ele>
        <time>2019-12-30T12:33:36Z</time>
      </trkpt>
      <trkpt lat="38.0139981117" lon="-8.6977230571">
        <ele>258.73</ele>
        <time>2019-12-30T12:33:47Z</time>
      </trkpt>
      <trkpt lat="38.0140371714" lon="-8.6977430061">
        <ele>259.21</ele>
        <time>2019-12-30T12:33:59Z</time>
      </trkpt>
      <trkpt lat="38.0140171386" lon="-8.6977191176">
        <ele>258.73</ele>
        <time>2019-12-30T12:34:11Z</time>
      </trkpt>
      <trkpt lat="38.0139967706" lon="-8.6977165192">
        <ele>258.73</ele>
        <time>2019-12-30T12:34:33Z</time>
      </trkpt>
      <trkpt lat="38.0140299629" lon="-8.6977099814">
        <ele>258.25</ele>
        <time>2019-12-30T12:34:45Z</time>
      </trkpt>
      <trkpt lat="38.0140402727" lon="-8.6976700835">
        <ele>258.25</ele>
        <time>2019-12-30T12:34:56Z</time>
      </trkpt>
      <trkpt lat="38.0140580423" lon="-8.6976554152">
        <ele>257.77</ele>
        <time>2019-12-30T12:35:07Z</time>
      </trkpt>
      <trkpt lat="38.0140580423" lon="-8.6976554152">
        <ele>257.77</ele>
        <time>2019-12-30T12:35:14Z</time>
      </trkpt>
      <trkpt lat="38.0140824337" lon="-8.6976364721">
        <ele>256.81</ele>
        <time>2019-12-30T12:35:25Z</time>
      </trkpt>
      <trkpt lat="38.0141105130" lon="-8.6976293474">
        <ele>256.33</ele>
        <time>2019-12-30T12:35:28Z</time>
      </trkpt>
      <trkpt lat="38.0141523387" lon="-8.6975881923">
        <ele>255.37</ele>
        <time>2019-12-30T12:35:41Z</time>
      </trkpt>
      <trkpt lat="38.0141619779" lon="-8.6975893658">
        <ele>255.37</ele>
        <time>2019-12-30T12:35:50Z</time>
      </trkpt>
      <trkpt lat="38.0142082460" lon="-8.6975854263">
        <ele>254.89</ele>
        <time>2019-12-30T12:35:54Z</time>
      </trkpt>
      <trkpt lat="38.0142721161" lon="-8.6975529045">
        <ele>253.44</ele>
        <time>2019-12-30T12:36:01Z</time>
      </trkpt>
      <trkpt lat="38.0144146923" lon="-8.6974819098">
        <ele>251.52</ele>
        <time>2019-12-30T12:36:14Z</time>
      </trkpt>
      <trkpt lat="38.0144500639" lon="-8.6974607036">
        <ele>250.56</ele>
        <time>2019-12-30T12:36:18Z</time>
      </trkpt>
      <trkpt lat="38.0144990981" lon="-8.6974260025">
        <ele>249.60</ele>
        <time>2019-12-30T12:36:28Z</time>
      </trkpt>
      <trkpt lat="38.0145037081" lon="-8.6974193808">
        <ele>249.12</ele>
        <time>2019-12-30T12:36:46Z</time>
      </trkpt>
      <trkpt lat="38.0145229027" lon="-8.6974030361">
        <ele>248.64</ele>
        <time>2019-12-30T12:36:48Z</time>
      </trkpt>
      <trkpt lat="38.0146189593" lon="-8.6973126791">
        <ele>245.75</ele>
        <time>2019-12-30T12:37:01Z</time>
      </trkpt>
      <trkpt lat="38.0146709271" lon="-8.6973667424">
        <ele>244.79</ele>
        <time>2019-12-30T12:37:11Z</time>
      </trkpt>
      <trkpt lat="38.0147416703" lon="-8.6974250805">
        <ele>243.35</ele>
        <time>2019-12-30T12:37:17Z</time>
      </trkpt>
      <trkpt lat="38.0147602782" lon="-8.6974385753">
        <ele>242.87</ele>
        <time>2019-12-30T12:37:29Z</time>
      </trkpt>
      <trkpt lat="38.0147826578" lon="-8.6974501424">
        <ele>242.39</ele>
        <time>2019-12-30T12:37:36Z</time>
      </trkpt>
      <trkpt lat="38.0148457736" lon="-8.6974638049">
        <ele>241.43</ele>
        <time>2019-12-30T12:37:42Z</time>
      </trkpt>
      <trkpt lat="38.0149264913" lon="-8.6973786447">
        <ele>239.02</ele>
        <time>2019-12-30T12:37:52Z</time>
      </trkpt>
      <trkpt lat="38.0149848294" lon="-8.6973488890">
        <ele>237.58</ele>
        <time>2019-12-30T12:38:06Z</time>
      </trkpt>
      <trkpt lat="38.0149899423" lon="-8.6973379925">
        <ele>237.58</ele>
        <time>2019-12-30T12:38:14Z</time>
      </trkpt>
      <trkpt lat="38.0150145013" lon="-8.6972982623">
        <ele>237.10</ele>
        <time>2019-12-30T12:38:18Z</time>
      </trkpt>
      <trkpt lat="38.0150942970" lon="-8.6971304566">
        <ele>234.70</ele>
        <time>2019-12-30T12:38:31Z</time>
      </trkpt>
      <trkpt lat="38.0151182692" lon="-8.6969892215">
        <ele>232.78</ele>
        <time>2019-12-30T12:38:42Z</time>
      </trkpt>
      <trkpt lat="38.0151474383" lon="-8.6968960986">
        <ele>231.81</ele>
        <time>2019-12-30T12:38:54Z</time>
      </trkpt>
      <trkpt lat="38.0151478574" lon="-8.6968829390">
        <ele>231.33</ele>
        <time>2019-12-30T12:38:56Z</time>
      </trkpt>
      <trkpt lat="38.0151654594" lon="-8.6968007963">
        <ele>230.85</ele>
        <time>2019-12-30T12:39:02Z</time>
      </trkpt>
      <trkpt lat="38.0152429920" lon="-8.6966671888">
        <ele>228.93</ele>
        <time>2019-12-30T12:39:14Z</time>
      </trkpt>
      <trkpt lat="38.0152959656" lon="-8.6963606626">
        <ele>226.53</ele>
        <time>2019-12-30T12:39:32Z</time>
      </trkpt>
      <trkpt lat="38.0153347738" lon="-8.6961876601">
        <ele>224.61</ele>
        <time>2019-12-30T12:39:47Z</time>
      </trkpt>
      <trkpt lat="38.0153356120" lon="-8.6960990634">
        <ele>224.12</ele>
        <time>2019-12-30T12:39:53Z</time>
      </trkpt>
      <trkpt lat="38.0153909326" lon="-8.6958562396">
        <ele>221.72</ele>
        <time>2019-12-30T12:40:10Z</time>
      </trkpt>
      <trkpt lat="38.0154413078" lon="-8.6957003362">
        <ele>220.28</ele>
        <time>2019-12-30T12:40:23Z</time>
      </trkpt>
      <trkpt lat="38.0154537968" lon="-8.6955471989">
        <ele>219.80</ele>
        <time>2019-12-30T12:40:35Z</time>
      </trkpt>
      <trkpt lat="38.0155304074" lon="-8.6953196302">
        <ele>218.84</ele>
        <time>2019-12-30T12:40:50Z</time>
      </trkpt>
      <trkpt lat="38.0155571457" lon="-8.6952586100">
        <ele>218.84</ele>
        <time>2019-12-30T12:40:55Z</time>
      </trkpt>
      <trkpt lat="38.0156138912" lon="-8.6951043829">
        <ele>218.36</ele>
        <time>2019-12-30T12:41:08Z</time>
      </trkpt>
      <trkpt lat="38.0156556331" lon="-8.6950128525">
        <ele>217.88</ele>
        <time>2019-12-30T12:41:25Z</time>
      </trkpt>
      <trkpt lat="38.0157231912" lon="-8.6949558556">
        <ele>217.40</ele>
        <time>2019-12-30T12:41:39Z</time>
      </trkpt>
      <trkpt lat="38.0156051740" lon="-8.6947943363">
        <ele>216.43</ele>
        <time>2019-12-30T12:41:54Z</time>
      </trkpt>
      <trkpt lat="38.0155924335" lon="-8.6947756447">
        <ele>216.43</ele>
        <time>2019-12-30T12:41:56Z</time>
      </trkpt>
      <trkpt lat="38.0155763403" lon="-8.6946519278">
        <ele>215.47</ele>
        <time>2019-12-30T12:42:06Z</time>
      </trkpt>
      <trkpt lat="38.0156057607" lon="-8.6944812723">
        <ele>213.07</ele>
        <time>2019-12-30T12:42:19Z</time>
      </trkpt>
      <trkpt lat="38.0156059284" lon="-8.6944714654">
        <ele>213.55</ele>
        <time>2019-12-30T12:42:20Z</time>
      </trkpt>
      <trkpt lat="38.0156231113" lon="-8.6944089364">
        <ele>212.59</ele>
        <time>2019-12-30T12:42:24Z</time>
      </trkpt>
      <trkpt lat="38.0155867338" lon="-8.6943040788">
        <ele>212.11</ele>
        <time>2019-12-30T12:42:31Z</time>
      </trkpt>
      <trkpt lat="38.0155407172" lon="-8.6940477602">
        <ele>209.70</ele>
        <time>2019-12-30T12:42:47Z</time>
      </trkpt>
      <trkpt lat="38.0155380350" lon="-8.6939083692">
        <ele>208.74</ele>
        <time>2019-12-30T12:42:57Z</time>
      </trkpt>
      <trkpt lat="38.0155387055" lon="-8.6936569959">
        <ele>206.82</ele>
        <time>2019-12-30T12:43:14Z</time>
      </trkpt>
      <trkpt lat="38.0155477580" lon="-8.6934840772">
        <ele>205.86</ele>
        <time>2019-12-30T12:43:26Z</time>
      </trkpt>
      <trkpt lat="38.0155436508" lon="-8.6933464464">
        <ele>205.86</ele>
        <time>2019-12-30T12:43:35Z</time>
      </trkpt>
      <trkpt lat="38.0155269708" lon="-8.6932899524">
        <ele>205.38</ele>
        <time>2019-12-30T12:43:38Z</time>
      </trkpt>
      <trkpt lat="38.0155295692" lon="-8.6931986734">
        <ele>204.90</ele>
        <time>2019-12-30T12:43:44Z</time>
      </trkpt>
      <trkpt lat="38.0155191757" lon="-8.6930103321">
        <ele>204.90</ele>
        <time>2019-12-30T12:43:57Z</time>
      </trkpt>
      <trkpt lat="38.0155091174" lon="-8.6929721106">
        <ele>204.90</ele>
        <time>2019-12-30T12:44:00Z</time>
      </trkpt>
      <trkpt lat="38.0156119633" lon="-8.6929126829">
        <ele>204.90</ele>
        <time>2019-12-30T12:44:10Z</time>
      </trkpt>
      <trkpt lat="38.0156213511" lon="-8.6929079890">
        <ele>205.38</ele>
        <time>2019-12-30T12:44:12Z</time>
      </trkpt>
      <trkpt lat="38.0156743247" lon="-8.6929026246">
        <ele>205.38</ele>
        <time>2019-12-30T12:44:17Z</time>
      </trkpt>
      <trkpt lat="38.0158051662" lon="-8.6928710248">
        <ele>206.34</ele>
        <time>2019-12-30T12:44:30Z</time>
      </trkpt>
      <trkpt lat="38.0158928409" lon="-8.6928088311">
        <ele>206.82</ele>
        <time>2019-12-30T12:44:39Z</time>
      </trkpt>
      <trkpt lat="38.0159294698" lon="-8.6928702705">
        <ele>206.82</ele>
        <time>2019-12-30T12:44:42Z</time>
      </trkpt>
      <trkpt lat="38.0159863830" lon="-8.6928440351">
        <ele>206.82</ele>
        <time>2019-12-30T12:44:47Z</time>
      </trkpt>
      <trkpt lat="38.0161461420" lon="-8.6928587034">
        <ele>208.26</ele>
        <time>2019-12-30T12:45:01Z</time>
      </trkpt>
      <trkpt lat="38.0162059050" lon="-8.6928829271">
        <ele>208.26</ele>
        <time>2019-12-30T12:45:08Z</time>
      </trkpt>
      <trkpt lat="38.0162499100" lon="-8.6928962544">
        <ele>208.74</ele>
        <time>2019-12-30T12:45:12Z</time>
      </trkpt>
      <trkpt lat="38.0163896363" lon="-8.6927818414">
        <ele>209.70</ele>
        <time>2019-12-30T12:45:27Z</time>
      </trkpt>
      <trkpt lat="38.0163982697" lon="-8.6927442905">
        <ele>209.22</ele>
        <time>2019-12-30T12:45:39Z</time>
      </trkpt>
      <trkpt lat="38.0164280254" lon="-8.6927438714">
        <ele>209.70</ele>
        <time>2019-12-30T12:45:42Z</time>
      </trkpt>
      <trkpt lat="38.0164650735" lon="-8.6927292868">
        <ele>209.70</ele>
        <time>2019-12-30T12:45:47Z</time>
      </trkpt>
      <trkpt lat="38.0165073182" lon="-8.6927193124">
        <ele>210.19</ele>
        <time>2019-12-30T12:45:52Z</time>
      </trkpt>
      <trkpt lat="38.0166163668" lon="-8.6927230004">
        <ele>211.15</ele>
        <time>2019-12-30T12:46:03Z</time>
      </trkpt>
      <trkpt lat="38.0166858528" lon="-8.6928111780">
        <ele>211.15</ele>
        <time>2019-12-30T12:46:06Z</time>
      </trkpt>
      <trkpt lat="38.0168043729" lon="-8.6928231642">
        <ele>212.11</ele>
        <time>2019-12-30T12:46:17Z</time>
      </trkpt>
      <trkpt lat="38.0168988369" lon="-8.6927756388">
        <ele>212.11</ele>
        <time>2019-12-30T12:46:28Z</time>
      </trkpt>
      <trkpt lat="38.0170525610" lon="-8.6927328911">
        <ele>212.11</ele>
        <time>2019-12-30T12:46:42Z</time>
      </trkpt>
      <trkpt lat="38.0171321891" lon="-8.6926875450">
        <ele>213.07</ele>
        <time>2019-12-30T12:46:51Z</time>
      </trkpt>
      <trkpt lat="38.0172220431" lon="-8.6926261894">
        <ele>213.07</ele>
        <time>2019-12-30T12:47:00Z</time>
      </trkpt>
      <trkpt lat="38.0172972288" lon="-8.6926131975">
        <ele>213.55</ele>
        <time>2019-12-30T12:47:07Z</time>
      </trkpt>
      <trkpt lat="38.0173993204" lon="-8.6927503254">
        <ele>213.55</ele>
        <time>2019-12-30T12:47:13Z</time>
      </trkpt>
      <trkpt lat="38.0174777750" lon="-8.6927704420">
        <ele>214.03</ele>
        <time>2019-12-30T12:47:21Z</time>
      </trkpt>
      <trkpt lat="38.0175310839" lon="-8.6927889660">
        <ele>214.03</ele>
        <time>2019-12-30T12:47:27Z</time>
      </trkpt>
      <trkpt lat="38.0175765138" lon="-8.6927948333">
        <ele>214.03</ele>
        <time>2019-12-30T12:47:31Z</time>
      </trkpt>
      <trkpt lat="38.0176786054" lon="-8.6929081567">
        <ele>213.55</ele>
        <time>2019-12-30T12:47:45Z</time>
      </trkpt>
      <trkpt lat="38.0176858138" lon="-8.6929353140">
        <ele>213.55</ele>
        <time>2019-12-30T12:47:48Z</time>
      </trkpt>
      <trkpt lat="38.0176839698" lon="-8.6929727811">
        <ele>213.55</ele>
        <time>2019-12-30T12:48:03Z</time>
      </trkpt>
      <trkpt lat="38.0176753365" lon="-8.6930480506">
        <ele>213.55</ele>
        <time>2019-12-30T12:48:16Z</time>
      </trkpt>
      <trkpt lat="38.0176238716" lon="-8.6932002660">
        <ele>212.59</ele>
        <time>2019-12-30T12:48:29Z</time>
      </trkpt>
      <trkpt lat="38.0175615940" lon="-8.6933915410">
        <ele>212.59</ele>
        <time>2019-12-30T12:48:43Z</time>
      </trkpt>
      <trkpt lat="38.0175795313" lon="-8.6934536509">
        <ele>212.11</ele>
        <time>2019-12-30T12:48:49Z</time>
      </trkpt>
      <trkpt lat="38.0176055152" lon="-8.6934891902">
        <ele>212.11</ele>
        <time>2019-12-30T12:48:53Z</time>
      </trkpt>
      <trkpt lat="38.0176326726" lon="-8.6935276631">
        <ele>211.63</ele>
        <time>2019-12-30T12:48:58Z</time>
      </trkpt>
      <trkpt lat="38.0176611710" lon="-8.6935525574">
        <ele>212.11</ele>
        <time>2019-12-30T12:49:01Z</time>
      </trkpt>
      <trkpt lat="38.0177098699" lon="-8.6935826484">
        <ele>211.63</ele>
        <time>2019-12-30T12:49:14Z</time>
      </trkpt>
      <trkpt lat="38.0177098699" lon="-8.6935826484">
        <ele>211.63</ele>
        <time>2019-12-30T12:49:15Z</time>
      </trkpt>
      <trkpt lat="38.0177315790" lon="-8.6935813073">
        <ele>211.15</ele>
        <time>2019-12-30T12:49:18Z</time>
      </trkpt>
      <trkpt lat="38.0177613348" lon="-8.6935867555">
        <ele>211.15</ele>
        <time>2019-12-30T12:49:20Z</time>
      </trkpt>
      <trkpt lat="38.0179085210" lon="-8.6936169304">
        <ele>210.67</ele>
        <time>2019-12-30T12:49:33Z</time>
      </trkpt>
      <trkpt lat="38.0179621652" lon="-8.6935991608">
        <ele>210.19</ele>
        <time>2019-12-30T12:49:37Z</time>
      </trkpt>
      <trkpt lat="38.0180159770" lon="-8.6935794633">
        <ele>209.70</ele>
        <time>2019-12-30T12:49:43Z</time>
      </trkpt>
      <trkpt lat="38.0181192420" lon="-8.6935760267">
        <ele>210.19</ele>
        <time>2019-12-30T12:49:53Z</time>
      </trkpt>
      <trkpt lat="38.0182106886" lon="-8.6935202032">
        <ele>209.70</ele>
        <time>2019-12-30T12:50:00Z</time>
      </trkpt>
      <trkpt lat="38.0183293764" lon="-8.6934788805">
        <ele>209.70</ele>
        <time>2019-12-30T12:50:09Z</time>
      </trkpt>
      <trkpt lat="38.0184017122" lon="-8.6934483703">
        <ele>209.70</ele>
        <time>2019-12-30T12:50:15Z</time>
      </trkpt>
      <trkpt lat="38.0184302945" lon="-8.6934362166">
        <ele>209.70</ele>
        <time>2019-12-30T12:50:18Z</time>
      </trkpt>
      <trkpt lat="38.0185536761" lon="-8.6934256554">
        <ele>209.70</ele>
        <time>2019-12-30T12:50:29Z</time>
      </trkpt>
      <trkpt lat="38.0185752176" lon="-8.6934150942">
        <ele>209.70</ele>
        <time>2019-12-30T12:50:31Z</time>
      </trkpt>
      <trkpt lat="38.0186133552" lon="-8.6934206262">
        <ele>210.19</ele>
        <time>2019-12-30T12:50:35Z</time>
      </trkpt>
      <trkpt lat="38.0186762195" lon="-8.6934121605">
        <ele>210.19</ele>
        <time>2019-12-30T12:50:41Z</time>
      </trkpt>
      <trkpt lat="38.0187403411" lon="-8.6933720112">
        <ele>210.19</ele>
        <time>2019-12-30T12:50:44Z</time>
      </trkpt>
      <trkpt lat="38.0188146885" lon="-8.6933238152">
        <ele>210.19</ele>
        <time>2019-12-30T12:50:50Z</time>
      </trkpt>
      <trkpt lat="38.0189369805" lon="-8.6933299340">
        <ele>210.67</ele>
        <time>2019-12-30T12:51:01Z</time>
      </trkpt>
      <trkpt lat="38.0190672353" lon="-8.6933529843">
        <ele>211.15</ele>
        <time>2019-12-30T12:51:11Z</time>
      </trkpt>
      <trkpt lat="38.0191128328" lon="-8.6933733523">
        <ele>211.15</ele>
        <time>2019-12-30T12:51:15Z</time>
      </trkpt>
      <trkpt lat="38.0191368889" lon="-8.6933686584">
        <ele>211.15</ele>
        <time>2019-12-30T12:51:17Z</time>
      </trkpt>
      <trkpt lat="38.0191615317" lon="-8.6933684908">
        <ele>211.15</ele>
        <time>2019-12-30T12:51:19Z</time>
      </trkpt>
      <trkpt lat="38.0191968195" lon="-8.6933433451">
        <ele>212.11</ele>
        <time>2019-12-30T12:51:22Z</time>
      </trkpt>
      <trkpt lat="38.0192321911" lon="-8.6932619568">
        <ele>212.59</ele>
        <time>2019-12-30T12:51:28Z</time>
      </trkpt>
      <trkpt lat="38.0192727596" lon="-8.6931712646">
        <ele>213.07</ele>
        <time>2019-12-30T12:51:35Z</time>
      </trkpt>
      <trkpt lat="38.0192529783" lon="-8.6931104120">
        <ele>213.07</ele>
        <time>2019-12-30T12:51:40Z</time>
      </trkpt>
      <trkpt lat="38.0191999208" lon="-8.6931258347">
        <ele>213.07</ele>
        <time>2019-12-30T12:51:46Z</time>
      </trkpt>
      <trkpt lat="38.0191484559" lon="-8.6931068078">
        <ele>213.07</ele>
        <time>2019-12-30T12:52:00Z</time>
      </trkpt>
      <trkpt lat="38.0191412475" lon="-8.6931008566">
        <ele>213.07</ele>
        <time>2019-12-30T12:52:14Z</time>
      </trkpt>
    </trkseg>
  </trk>
</gpx>
